<?xml version="1.0" encoding="UTF-8" standalone="no" ?>
<gpx xmlns="http://www.topografix.com/GPX/1/1" xmlns:xsi="http://www.w3.org/2001/XMLSchema-instance" xsi:schemaLocation="http://www.topografix.com/GPX/1/1 http://www.topografix.com/GPX/1/1/gpx.xsd" version="1.1" creator="VisuGPX - https://www.visugpx.com">
  <metadata>
    <name>Salagou_05_06_21</name>
    <desc><![CDATA[Salagou-05/06/21]]></desc>
  </metadata>
  <trk>
    <name><![CDATA[Salagou_05_06_21_1]]></name>
    <trkseg>
      <trkpt lat="43.64309" lon="3.36371">
        <ele>143.6</ele>
        <time>2021-06-05T08:42:29Z</time>
      </trkpt>
      <trkpt lat="43.64309" lon="3.36371">
        <ele>143.6</ele>
        <time>2021-06-05T08:42:29Z</time>
      </trkpt>
      <trkpt lat="43.64307" lon="3.36364">
        <ele>143.8</ele>
        <time>2021-06-05T08:42:40Z</time>
      </trkpt>
      <trkpt lat="43.64306" lon="3.36362">
        <ele>144</ele>
        <time>2021-06-05T08:42:41Z</time>
      </trkpt>
      <trkpt lat="43.64306" lon="3.36359">
        <ele>144.2</ele>
        <time>2021-06-05T08:42:41Z</time>
      </trkpt>
      <trkpt lat="43.64305" lon="3.36355">
        <ele>144.6</ele>
        <time>2021-06-05T08:42:43Z</time>
      </trkpt>
      <trkpt lat="43.64304" lon="3.36352">
        <ele>145</ele>
        <time>2021-06-05T08:42:43Z</time>
      </trkpt>
      <trkpt lat="43.64303" lon="3.36348">
        <ele>145.3</ele>
        <time>2021-06-05T08:42:44Z</time>
      </trkpt>
      <trkpt lat="43.64303" lon="3.36345">
        <ele>145.5</ele>
        <time>2021-06-05T08:42:45Z</time>
      </trkpt>
      <trkpt lat="43.64303" lon="3.36342">
        <ele>145.7</ele>
        <time>2021-06-05T08:42:47Z</time>
      </trkpt>
      <trkpt lat="43.64302" lon="3.3634">
        <ele>146</ele>
        <time>2021-06-05T08:42:47Z</time>
      </trkpt>
      <trkpt lat="43.64302" lon="3.36337">
        <ele>146.2</ele>
        <time>2021-06-05T08:42:48Z</time>
      </trkpt>
      <trkpt lat="43.64301" lon="3.36334">
        <ele>146.5</ele>
        <time>2021-06-05T08:42:49Z</time>
      </trkpt>
      <trkpt lat="43.643" lon="3.36331">
        <ele>148</ele>
        <time>2021-06-05T08:42:51Z</time>
      </trkpt>
      <trkpt lat="43.64299" lon="3.36329">
        <ele>148</ele>
        <time>2021-06-05T08:42:53Z</time>
      </trkpt>
      <trkpt lat="43.64297" lon="3.36325">
        <ele>148</ele>
        <time>2021-06-05T08:42:55Z</time>
      </trkpt>
      <trkpt lat="43.64297" lon="3.36321">
        <ele>148</ele>
        <time>2021-06-05T08:42:57Z</time>
      </trkpt>
      <trkpt lat="43.64296" lon="3.36317">
        <ele>148</ele>
        <time>2021-06-05T08:42:59Z</time>
      </trkpt>
      <trkpt lat="43.64296" lon="3.36317">
        <ele>150</ele>
        <time>2021-06-05T08:43:05Z</time>
      </trkpt>
      <trkpt lat="43.64294" lon="3.36306">
        <ele>152</ele>
        <time>2021-06-05T08:44:53Z</time>
      </trkpt>
      <trkpt lat="43.64293" lon="3.36304">
        <ele>152</ele>
        <time>2021-06-05T08:44:53Z</time>
      </trkpt>
      <trkpt lat="43.64293" lon="3.36301">
        <ele>152</ele>
        <time>2021-06-05T08:44:54Z</time>
      </trkpt>
      <trkpt lat="43.64293" lon="3.36298">
        <ele>152</ele>
        <time>2021-06-05T08:44:54Z</time>
      </trkpt>
      <trkpt lat="43.64293" lon="3.36295">
        <ele>152</ele>
        <time>2021-06-05T08:44:55Z</time>
      </trkpt>
      <trkpt lat="43.64293" lon="3.36293">
        <ele>152</ele>
        <time>2021-06-05T08:44:56Z</time>
      </trkpt>
      <trkpt lat="43.64293" lon="3.3629">
        <ele>152</ele>
        <time>2021-06-05T08:44:57Z</time>
      </trkpt>
      <trkpt lat="43.64293" lon="3.36287">
        <ele>152</ele>
        <time>2021-06-05T08:44:58Z</time>
      </trkpt>
      <trkpt lat="43.64293" lon="3.36285">
        <ele>152</ele>
        <time>2021-06-05T08:45:00Z</time>
      </trkpt>
      <trkpt lat="43.64293" lon="3.36281">
        <ele>152</ele>
        <time>2021-06-05T08:45:01Z</time>
      </trkpt>
      <trkpt lat="43.64293" lon="3.36276">
        <ele>153</ele>
        <time>2021-06-05T08:45:03Z</time>
      </trkpt>
      <trkpt lat="43.64294" lon="3.36273">
        <ele>153</ele>
        <time>2021-06-05T08:45:05Z</time>
      </trkpt>
      <trkpt lat="43.64297" lon="3.36272">
        <ele>153</ele>
        <time>2021-06-05T08:45:07Z</time>
      </trkpt>
      <trkpt lat="43.64299" lon="3.36271">
        <ele>153</ele>
        <time>2021-06-05T08:45:08Z</time>
      </trkpt>
      <trkpt lat="43.64301" lon="3.36271">
        <ele>153</ele>
        <time>2021-06-05T08:45:09Z</time>
      </trkpt>
      <trkpt lat="43.64304" lon="3.36268">
        <ele>153</ele>
        <time>2021-06-05T08:45:11Z</time>
      </trkpt>
      <trkpt lat="43.64305" lon="3.36265">
        <ele>153</ele>
        <time>2021-06-05T08:45:13Z</time>
      </trkpt>
      <trkpt lat="43.64306" lon="3.36263">
        <ele>153</ele>
        <time>2021-06-05T08:45:13Z</time>
      </trkpt>
      <trkpt lat="43.64306" lon="3.3626">
        <ele>153</ele>
        <time>2021-06-05T08:45:14Z</time>
      </trkpt>
      <trkpt lat="43.64307" lon="3.36258">
        <ele>153</ele>
        <time>2021-06-05T08:45:15Z</time>
      </trkpt>
      <trkpt lat="43.64307" lon="3.36252">
        <ele>153</ele>
        <time>2021-06-05T08:45:17Z</time>
      </trkpt>
      <trkpt lat="43.64307" lon="3.3625">
        <ele>153</ele>
        <time>2021-06-05T08:45:18Z</time>
      </trkpt>
      <trkpt lat="43.64306" lon="3.36248">
        <ele>153</ele>
        <time>2021-06-05T08:45:19Z</time>
      </trkpt>
      <trkpt lat="43.64306" lon="3.36244">
        <ele>153</ele>
        <time>2021-06-05T08:45:20Z</time>
      </trkpt>
      <trkpt lat="43.64306" lon="3.36241">
        <ele>153</ele>
        <time>2021-06-05T08:45:21Z</time>
      </trkpt>
      <trkpt lat="43.64306" lon="3.36237">
        <ele>154</ele>
        <time>2021-06-05T08:45:23Z</time>
      </trkpt>
      <trkpt lat="43.64306" lon="3.36233">
        <ele>154</ele>
        <time>2021-06-05T08:45:23Z</time>
      </trkpt>
      <trkpt lat="43.64306" lon="3.36229">
        <ele>154</ele>
        <time>2021-06-05T08:45:24Z</time>
      </trkpt>
      <trkpt lat="43.64307" lon="3.36226">
        <ele>154</ele>
        <time>2021-06-05T08:45:26Z</time>
      </trkpt>
      <trkpt lat="43.64307" lon="3.36224">
        <ele>154</ele>
        <time>2021-06-05T08:45:26Z</time>
      </trkpt>
      <trkpt lat="43.64308" lon="3.36221">
        <ele>154</ele>
        <time>2021-06-05T08:45:27Z</time>
      </trkpt>
      <trkpt lat="43.64308" lon="3.36216">
        <ele>154</ele>
        <time>2021-06-05T08:45:29Z</time>
      </trkpt>
      <trkpt lat="43.64309" lon="3.36212">
        <ele>154</ele>
        <time>2021-06-05T08:45:29Z</time>
      </trkpt>
      <trkpt lat="43.64311" lon="3.36209">
        <ele>154</ele>
        <time>2021-06-05T08:45:30Z</time>
      </trkpt>
      <trkpt lat="43.64312" lon="3.36206">
        <ele>154</ele>
        <time>2021-06-05T08:45:31Z</time>
      </trkpt>
      <trkpt lat="43.64313" lon="3.36203">
        <ele>154</ele>
        <time>2021-06-05T08:45:32Z</time>
      </trkpt>
      <trkpt lat="43.64314" lon="3.362">
        <ele>154</ele>
        <time>2021-06-05T08:45:33Z</time>
      </trkpt>
      <trkpt lat="43.64315" lon="3.36197">
        <ele>154</ele>
        <time>2021-06-05T08:45:34Z</time>
      </trkpt>
      <trkpt lat="43.64315" lon="3.36193">
        <ele>154</ele>
        <time>2021-06-05T08:45:35Z</time>
      </trkpt>
      <trkpt lat="43.64315" lon="3.36191">
        <ele>154</ele>
        <time>2021-06-05T08:45:36Z</time>
      </trkpt>
      <trkpt lat="43.64315" lon="3.36187">
        <ele>154</ele>
        <time>2021-06-05T08:45:38Z</time>
      </trkpt>
      <trkpt lat="43.64314" lon="3.36184">
        <ele>154</ele>
        <time>2021-06-05T08:45:41Z</time>
      </trkpt>
      <trkpt lat="43.64312" lon="3.36181">
        <ele>156</ele>
        <time>2021-06-05T08:45:42Z</time>
      </trkpt>
      <trkpt lat="43.64312" lon="3.36177">
        <ele>156</ele>
        <time>2021-06-05T08:45:44Z</time>
      </trkpt>
      <trkpt lat="43.64313" lon="3.36173">
        <ele>156</ele>
        <time>2021-06-05T08:45:47Z</time>
      </trkpt>
      <trkpt lat="43.64314" lon="3.3617">
        <ele>156</ele>
        <time>2021-06-05T08:45:47Z</time>
      </trkpt>
      <trkpt lat="43.64315" lon="3.36168">
        <ele>156</ele>
        <time>2021-06-05T08:45:48Z</time>
      </trkpt>
      <trkpt lat="43.64317" lon="3.36165">
        <ele>156</ele>
        <time>2021-06-05T08:45:51Z</time>
      </trkpt>
      <trkpt lat="43.64319" lon="3.36162">
        <ele>157</ele>
        <time>2021-06-05T08:45:52Z</time>
      </trkpt>
      <trkpt lat="43.64322" lon="3.36161">
        <ele>157</ele>
        <time>2021-06-05T08:45:54Z</time>
      </trkpt>
      <trkpt lat="43.64324" lon="3.36161">
        <ele>157</ele>
        <time>2021-06-05T08:45:55Z</time>
      </trkpt>
      <trkpt lat="43.64326" lon="3.3616">
        <ele>157</ele>
        <time>2021-06-05T08:45:56Z</time>
      </trkpt>
      <trkpt lat="43.64329" lon="3.3616">
        <ele>157</ele>
        <time>2021-06-05T08:45:57Z</time>
      </trkpt>
      <trkpt lat="43.6433" lon="3.3616">
        <ele>157</ele>
        <time>2021-06-05T08:45:58Z</time>
      </trkpt>
      <trkpt lat="43.64333" lon="3.36159">
        <ele>157</ele>
        <time>2021-06-05T08:45:59Z</time>
      </trkpt>
      <trkpt lat="43.64336" lon="3.36159">
        <ele>157</ele>
        <time>2021-06-05T08:46:00Z</time>
      </trkpt>
      <trkpt lat="43.64338" lon="3.36158">
        <ele>157</ele>
        <time>2021-06-05T08:46:01Z</time>
      </trkpt>
      <trkpt lat="43.6434" lon="3.36158">
        <ele>158</ele>
        <time>2021-06-05T08:46:03Z</time>
      </trkpt>
      <trkpt lat="43.64342" lon="3.36157">
        <ele>158</ele>
        <time>2021-06-05T08:46:03Z</time>
      </trkpt>
      <trkpt lat="43.64345" lon="3.36156">
        <ele>158</ele>
        <time>2021-06-05T08:46:04Z</time>
      </trkpt>
      <trkpt lat="43.64348" lon="3.36154">
        <ele>158</ele>
        <time>2021-06-05T08:46:05Z</time>
      </trkpt>
      <trkpt lat="43.64351" lon="3.36152">
        <ele>158</ele>
        <time>2021-06-05T08:46:07Z</time>
      </trkpt>
      <trkpt lat="43.64354" lon="3.3615">
        <ele>158</ele>
        <time>2021-06-05T08:46:07Z</time>
      </trkpt>
      <trkpt lat="43.64357" lon="3.36147">
        <ele>158</ele>
        <time>2021-06-05T08:46:09Z</time>
      </trkpt>
      <trkpt lat="43.64359" lon="3.36146">
        <ele>158</ele>
        <time>2021-06-05T08:46:09Z</time>
      </trkpt>
      <trkpt lat="43.64361" lon="3.36143">
        <ele>158</ele>
        <time>2021-06-05T08:46:11Z</time>
      </trkpt>
      <trkpt lat="43.64363" lon="3.36141">
        <ele>158</ele>
        <time>2021-06-05T08:46:11Z</time>
      </trkpt>
      <trkpt lat="43.64365" lon="3.36138">
        <ele>158</ele>
        <time>2021-06-05T08:46:12Z</time>
      </trkpt>
      <trkpt lat="43.64367" lon="3.36136">
        <ele>158</ele>
        <time>2021-06-05T08:46:13Z</time>
      </trkpt>
      <trkpt lat="43.6437" lon="3.36133">
        <ele>158</ele>
        <time>2021-06-05T08:46:15Z</time>
      </trkpt>
      <trkpt lat="43.64372" lon="3.3613">
        <ele>158</ele>
        <time>2021-06-05T08:46:16Z</time>
      </trkpt>
      <trkpt lat="43.64375" lon="3.36128">
        <ele>158</ele>
        <time>2021-06-05T08:46:16Z</time>
      </trkpt>
      <trkpt lat="43.64377" lon="3.36126">
        <ele>158</ele>
        <time>2021-06-05T08:46:17Z</time>
      </trkpt>
      <trkpt lat="43.64379" lon="3.36124">
        <ele>158</ele>
        <time>2021-06-05T08:46:18Z</time>
      </trkpt>
      <trkpt lat="43.64382" lon="3.36122">
        <ele>158</ele>
        <time>2021-06-05T08:46:19Z</time>
      </trkpt>
      <trkpt lat="43.64385" lon="3.3612">
        <ele>158</ele>
        <time>2021-06-05T08:46:20Z</time>
      </trkpt>
      <trkpt lat="43.64387" lon="3.3612">
        <ele>158</ele>
        <time>2021-06-05T08:46:21Z</time>
      </trkpt>
      <trkpt lat="43.6439" lon="3.3612">
        <ele>157</ele>
        <time>2021-06-05T08:46:22Z</time>
      </trkpt>
      <trkpt lat="43.64393" lon="3.3612">
        <ele>157</ele>
        <time>2021-06-05T08:46:23Z</time>
      </trkpt>
      <trkpt lat="43.64396" lon="3.36119">
        <ele>157</ele>
        <time>2021-06-05T08:46:24Z</time>
      </trkpt>
      <trkpt lat="43.64399" lon="3.36118">
        <ele>157</ele>
        <time>2021-06-05T08:46:26Z</time>
      </trkpt>
      <trkpt lat="43.64403" lon="3.36116">
        <ele>157</ele>
        <time>2021-06-05T08:46:26Z</time>
      </trkpt>
      <trkpt lat="43.64406" lon="3.36114">
        <ele>157</ele>
        <time>2021-06-05T08:46:27Z</time>
      </trkpt>
      <trkpt lat="43.6441" lon="3.36111">
        <ele>157</ele>
        <time>2021-06-05T08:46:29Z</time>
      </trkpt>
      <trkpt lat="43.64413" lon="3.36107">
        <ele>157</ele>
        <time>2021-06-05T08:46:29Z</time>
      </trkpt>
      <trkpt lat="43.64416" lon="3.36103">
        <ele>157</ele>
        <time>2021-06-05T08:46:30Z</time>
      </trkpt>
      <trkpt lat="43.64419" lon="3.36099">
        <ele>157</ele>
        <time>2021-06-05T08:46:31Z</time>
      </trkpt>
      <trkpt lat="43.64421" lon="3.36095">
        <ele>156</ele>
        <time>2021-06-05T08:46:32Z</time>
      </trkpt>
      <trkpt lat="43.64422" lon="3.3609">
        <ele>156</ele>
        <time>2021-06-05T08:46:33Z</time>
      </trkpt>
      <trkpt lat="43.64424" lon="3.36086">
        <ele>156</ele>
        <time>2021-06-05T08:46:34Z</time>
      </trkpt>
      <trkpt lat="43.64427" lon="3.36082">
        <ele>156</ele>
        <time>2021-06-05T08:46:35Z</time>
      </trkpt>
      <trkpt lat="43.6443" lon="3.3608">
        <ele>156</ele>
        <time>2021-06-05T08:46:36Z</time>
      </trkpt>
      <trkpt lat="43.64433" lon="3.36078">
        <ele>156</ele>
        <time>2021-06-05T08:46:38Z</time>
      </trkpt>
      <trkpt lat="43.64436" lon="3.36076">
        <ele>156</ele>
        <time>2021-06-05T08:46:38Z</time>
      </trkpt>
      <trkpt lat="43.64438" lon="3.36074">
        <ele>156</ele>
        <time>2021-06-05T08:46:39Z</time>
      </trkpt>
      <trkpt lat="43.6444" lon="3.36073">
        <ele>156</ele>
        <time>2021-06-05T08:46:40Z</time>
      </trkpt>
      <trkpt lat="43.64443" lon="3.36071">
        <ele>156</ele>
        <time>2021-06-05T08:46:41Z</time>
      </trkpt>
      <trkpt lat="43.64445" lon="3.36071">
        <ele>156</ele>
        <time>2021-06-05T08:46:43Z</time>
      </trkpt>
      <trkpt lat="43.64448" lon="3.3607">
        <ele>156</ele>
        <time>2021-06-05T08:46:44Z</time>
      </trkpt>
      <trkpt lat="43.64451" lon="3.3607">
        <ele>156</ele>
        <time>2021-06-05T08:46:44Z</time>
      </trkpt>
      <trkpt lat="43.64453" lon="3.36069">
        <ele>156</ele>
        <time>2021-06-05T08:46:45Z</time>
      </trkpt>
      <trkpt lat="43.64456" lon="3.36069">
        <ele>156</ele>
        <time>2021-06-05T08:46:46Z</time>
      </trkpt>
      <trkpt lat="43.64459" lon="3.36069">
        <ele>156</ele>
        <time>2021-06-05T08:46:48Z</time>
      </trkpt>
      <trkpt lat="43.64462" lon="3.36069">
        <ele>156</ele>
        <time>2021-06-05T08:46:48Z</time>
      </trkpt>
      <trkpt lat="43.64464" lon="3.36069">
        <ele>156</ele>
        <time>2021-06-05T08:46:49Z</time>
      </trkpt>
      <trkpt lat="43.64467" lon="3.36068">
        <ele>156</ele>
        <time>2021-06-05T08:46:50Z</time>
      </trkpt>
      <trkpt lat="43.64469" lon="3.36066">
        <ele>156</ele>
        <time>2021-06-05T08:46:52Z</time>
      </trkpt>
      <trkpt lat="43.64471" lon="3.36064">
        <ele>156</ele>
        <time>2021-06-05T08:46:53Z</time>
      </trkpt>
      <trkpt lat="43.64474" lon="3.36062">
        <ele>156</ele>
        <time>2021-06-05T08:46:54Z</time>
      </trkpt>
      <trkpt lat="43.64477" lon="3.3606">
        <ele>156</ele>
        <time>2021-06-05T08:46:55Z</time>
      </trkpt>
      <trkpt lat="43.6448" lon="3.36058">
        <ele>156</ele>
        <time>2021-06-05T08:46:55Z</time>
      </trkpt>
      <trkpt lat="43.64484" lon="3.36055">
        <ele>156</ele>
        <time>2021-06-05T08:46:56Z</time>
      </trkpt>
      <trkpt lat="43.64489" lon="3.36052">
        <ele>156</ele>
        <time>2021-06-05T08:46:57Z</time>
      </trkpt>
      <trkpt lat="43.64494" lon="3.36048">
        <ele>156</ele>
        <time>2021-06-05T08:46:58Z</time>
      </trkpt>
      <trkpt lat="43.64499" lon="3.36044">
        <ele>156</ele>
        <time>2021-06-05T08:47:00Z</time>
      </trkpt>
      <trkpt lat="43.64504" lon="3.36042">
        <ele>156</ele>
        <time>2021-06-05T08:47:01Z</time>
      </trkpt>
      <trkpt lat="43.64509" lon="3.36039">
        <ele>156</ele>
        <time>2021-06-05T08:47:01Z</time>
      </trkpt>
      <trkpt lat="43.64514" lon="3.36036">
        <ele>154</ele>
        <time>2021-06-05T08:47:02Z</time>
      </trkpt>
      <trkpt lat="43.6452" lon="3.36034">
        <ele>154</ele>
        <time>2021-06-05T08:47:04Z</time>
      </trkpt>
      <trkpt lat="43.64526" lon="3.36032">
        <ele>154</ele>
        <time>2021-06-05T08:47:04Z</time>
      </trkpt>
      <trkpt lat="43.64532" lon="3.36029">
        <ele>154</ele>
        <time>2021-06-05T08:47:06Z</time>
      </trkpt>
      <trkpt lat="43.64538" lon="3.36027">
        <ele>154</ele>
        <time>2021-06-05T08:47:06Z</time>
      </trkpt>
      <trkpt lat="43.64544" lon="3.36026">
        <ele>154</ele>
        <time>2021-06-05T08:47:08Z</time>
      </trkpt>
      <trkpt lat="43.64551" lon="3.36027">
        <ele>154</ele>
        <time>2021-06-05T08:47:09Z</time>
      </trkpt>
      <trkpt lat="43.64557" lon="3.36027">
        <ele>154</ele>
        <time>2021-06-05T08:47:09Z</time>
      </trkpt>
      <trkpt lat="43.64563" lon="3.36025">
        <ele>154</ele>
        <time>2021-06-05T08:47:10Z</time>
      </trkpt>
      <trkpt lat="43.64569" lon="3.36023">
        <ele>154</ele>
        <time>2021-06-05T08:47:12Z</time>
      </trkpt>
      <trkpt lat="43.64575" lon="3.36021">
        <ele>151</ele>
        <time>2021-06-05T08:47:12Z</time>
      </trkpt>
      <trkpt lat="43.64581" lon="3.3602">
        <ele>151</ele>
        <time>2021-06-05T08:47:13Z</time>
      </trkpt>
      <trkpt lat="43.64585" lon="3.3602">
        <ele>151</ele>
        <time>2021-06-05T08:47:14Z</time>
      </trkpt>
      <trkpt lat="43.64589" lon="3.36023">
        <ele>151</ele>
        <time>2021-06-05T08:47:15Z</time>
      </trkpt>
      <trkpt lat="43.64591" lon="3.36026">
        <ele>151</ele>
        <time>2021-06-05T08:47:17Z</time>
      </trkpt>
      <trkpt lat="43.64593" lon="3.3603">
        <ele>151</ele>
        <time>2021-06-05T08:47:18Z</time>
      </trkpt>
      <trkpt lat="43.64595" lon="3.36035">
        <ele>151</ele>
        <time>2021-06-05T08:47:18Z</time>
      </trkpt>
      <trkpt lat="43.64598" lon="3.36038">
        <ele>151</ele>
        <time>2021-06-05T08:47:19Z</time>
      </trkpt>
      <trkpt lat="43.64602" lon="3.36042">
        <ele>151</ele>
        <time>2021-06-05T08:47:20Z</time>
      </trkpt>
      <trkpt lat="43.64607" lon="3.36043">
        <ele>151</ele>
        <time>2021-06-05T08:47:21Z</time>
      </trkpt>
      <trkpt lat="43.6461" lon="3.36042">
        <ele>148</ele>
        <time>2021-06-05T08:47:23Z</time>
      </trkpt>
      <trkpt lat="43.64613" lon="3.36039">
        <ele>148</ele>
        <time>2021-06-05T08:47:23Z</time>
      </trkpt>
      <trkpt lat="43.64615" lon="3.36036">
        <ele>148</ele>
        <time>2021-06-05T08:47:24Z</time>
      </trkpt>
      <trkpt lat="43.64618" lon="3.36033">
        <ele>148</ele>
        <time>2021-06-05T08:47:25Z</time>
      </trkpt>
      <trkpt lat="43.6462" lon="3.3603">
        <ele>148</ele>
        <time>2021-06-05T08:47:26Z</time>
      </trkpt>
      <trkpt lat="43.64622" lon="3.36027">
        <ele>148</ele>
        <time>2021-06-05T08:47:27Z</time>
      </trkpt>
      <trkpt lat="43.64624" lon="3.36025">
        <ele>148</ele>
        <time>2021-06-05T08:47:29Z</time>
      </trkpt>
      <trkpt lat="43.64626" lon="3.36022">
        <ele>148</ele>
        <time>2021-06-05T08:47:29Z</time>
      </trkpt>
      <trkpt lat="43.64627" lon="3.36019">
        <ele>148</ele>
        <time>2021-06-05T08:47:30Z</time>
      </trkpt>
      <trkpt lat="43.64629" lon="3.36016">
        <ele>148</ele>
        <time>2021-06-05T08:47:32Z</time>
      </trkpt>
      <trkpt lat="43.6463" lon="3.36014">
        <ele>146</ele>
        <time>2021-06-05T08:47:32Z</time>
      </trkpt>
      <trkpt lat="43.64631" lon="3.36012">
        <ele>146</ele>
        <time>2021-06-05T08:47:34Z</time>
      </trkpt>
      <trkpt lat="43.64633" lon="3.36011">
        <ele>146</ele>
        <time>2021-06-05T08:47:34Z</time>
      </trkpt>
      <trkpt lat="43.64634" lon="3.36009">
        <ele>146</ele>
        <time>2021-06-05T08:47:35Z</time>
      </trkpt>
      <trkpt lat="43.64637" lon="3.36008">
        <ele>146</ele>
        <time>2021-06-05T08:47:37Z</time>
      </trkpt>
      <trkpt lat="43.64638" lon="3.36006">
        <ele>146</ele>
        <time>2021-06-05T08:47:37Z</time>
      </trkpt>
      <trkpt lat="43.6464" lon="3.36005">
        <ele>146</ele>
        <time>2021-06-05T08:47:39Z</time>
      </trkpt>
      <trkpt lat="43.64641" lon="3.36003">
        <ele>146</ele>
        <time>2021-06-05T08:47:39Z</time>
      </trkpt>
      <trkpt lat="43.64644" lon="3.36002">
        <ele>146</ele>
        <time>2021-06-05T08:47:40Z</time>
      </trkpt>
      <trkpt lat="43.64645" lon="3.36001">
        <ele>146</ele>
        <time>2021-06-05T08:47:41Z</time>
      </trkpt>
      <trkpt lat="43.64648" lon="3.35999">
        <ele>147</ele>
        <time>2021-06-05T08:47:43Z</time>
      </trkpt>
      <trkpt lat="43.64651" lon="3.35997">
        <ele>147</ele>
        <time>2021-06-05T08:47:46Z</time>
      </trkpt>
      <trkpt lat="43.64654" lon="3.35993">
        <ele>147</ele>
        <time>2021-06-05T08:47:47Z</time>
      </trkpt>
      <trkpt lat="43.64655" lon="3.35991">
        <ele>147</ele>
        <time>2021-06-05T08:47:48Z</time>
      </trkpt>
      <trkpt lat="43.64656" lon="3.35989">
        <ele>147</ele>
        <time>2021-06-05T08:47:49Z</time>
      </trkpt>
      <trkpt lat="43.64658" lon="3.35986">
        <ele>147</ele>
        <time>2021-06-05T08:47:52Z</time>
      </trkpt>
      <trkpt lat="43.64661" lon="3.35986">
        <ele>149</ele>
        <time>2021-06-05T08:47:53Z</time>
      </trkpt>
      <trkpt lat="43.64662" lon="3.3599">
        <ele>149</ele>
        <time>2021-06-05T08:47:55Z</time>
      </trkpt>
      <trkpt lat="43.64661" lon="3.35993">
        <ele>149</ele>
        <time>2021-06-05T08:47:56Z</time>
      </trkpt>
      <trkpt lat="43.64661" lon="3.35997">
        <ele>149</ele>
        <time>2021-06-05T08:47:58Z</time>
      </trkpt>
      <trkpt lat="43.64662" lon="3.36001">
        <ele>149</ele>
        <time>2021-06-05T08:47:58Z</time>
      </trkpt>
      <trkpt lat="43.64663" lon="3.36006">
        <ele>149</ele>
        <time>2021-06-05T08:47:59Z</time>
      </trkpt>
      <trkpt lat="43.64665" lon="3.3601">
        <ele>149</ele>
        <time>2021-06-05T08:48:00Z</time>
      </trkpt>
      <trkpt lat="43.64667" lon="3.36015">
        <ele>149</ele>
        <time>2021-06-05T08:48:02Z</time>
      </trkpt>
      <trkpt lat="43.6467" lon="3.36018">
        <ele>148</ele>
        <time>2021-06-05T08:48:02Z</time>
      </trkpt>
      <trkpt lat="43.64674" lon="3.3602">
        <ele>148</ele>
        <time>2021-06-05T08:48:04Z</time>
      </trkpt>
      <trkpt lat="43.64677" lon="3.36021">
        <ele>148</ele>
        <time>2021-06-05T08:48:05Z</time>
      </trkpt>
      <trkpt lat="43.64679" lon="3.36022">
        <ele>148</ele>
        <time>2021-06-05T08:48:06Z</time>
      </trkpt>
      <trkpt lat="43.64682" lon="3.36023">
        <ele>148</ele>
        <time>2021-06-05T08:48:07Z</time>
      </trkpt>
      <trkpt lat="43.64684" lon="3.36026">
        <ele>148</ele>
        <time>2021-06-05T08:48:07Z</time>
      </trkpt>
      <trkpt lat="43.64684" lon="3.3603">
        <ele>148</ele>
        <time>2021-06-05T08:48:08Z</time>
      </trkpt>
      <trkpt lat="43.64684" lon="3.36034">
        <ele>148</ele>
        <time>2021-06-05T08:48:09Z</time>
      </trkpt>
      <trkpt lat="43.64685" lon="3.36039">
        <ele>148</ele>
        <time>2021-06-05T08:48:10Z</time>
      </trkpt>
      <trkpt lat="43.64685" lon="3.36043">
        <ele>148</ele>
        <time>2021-06-05T08:48:11Z</time>
      </trkpt>
      <trkpt lat="43.64686" lon="3.36046">
        <ele>148</ele>
        <time>2021-06-05T08:48:12Z</time>
      </trkpt>
      <trkpt lat="43.64688" lon="3.3605">
        <ele>148</ele>
        <time>2021-06-05T08:48:13Z</time>
      </trkpt>
      <trkpt lat="43.6469" lon="3.36054">
        <ele>148</ele>
        <time>2021-06-05T08:48:15Z</time>
      </trkpt>
      <trkpt lat="43.64692" lon="3.36058">
        <ele>148</ele>
        <time>2021-06-05T08:48:15Z</time>
      </trkpt>
      <trkpt lat="43.64695" lon="3.36061">
        <ele>148</ele>
        <time>2021-06-05T08:48:16Z</time>
      </trkpt>
      <trkpt lat="43.64698" lon="3.36064">
        <ele>148</ele>
        <time>2021-06-05T08:48:17Z</time>
      </trkpt>
      <trkpt lat="43.647" lon="3.36067">
        <ele>148</ele>
        <time>2021-06-05T08:48:18Z</time>
      </trkpt>
      <trkpt lat="43.64704" lon="3.3607">
        <ele>148</ele>
        <time>2021-06-05T08:48:20Z</time>
      </trkpt>
      <trkpt lat="43.64706" lon="3.36074">
        <ele>148</ele>
        <time>2021-06-05T08:48:20Z</time>
      </trkpt>
      <trkpt lat="43.64709" lon="3.36078">
        <ele>148</ele>
        <time>2021-06-05T08:48:21Z</time>
      </trkpt>
      <trkpt lat="43.64712" lon="3.36082">
        <ele>146</ele>
        <time>2021-06-05T08:48:22Z</time>
      </trkpt>
      <trkpt lat="43.64714" lon="3.36085">
        <ele>146</ele>
        <time>2021-06-05T08:48:23Z</time>
      </trkpt>
      <trkpt lat="43.64717" lon="3.36088">
        <ele>146</ele>
        <time>2021-06-05T08:48:24Z</time>
      </trkpt>
      <trkpt lat="43.64721" lon="3.36091">
        <ele>146</ele>
        <time>2021-06-05T08:48:25Z</time>
      </trkpt>
      <trkpt lat="43.64724" lon="3.36095">
        <ele>146</ele>
        <time>2021-06-05T08:48:26Z</time>
      </trkpt>
      <trkpt lat="43.64727" lon="3.36098">
        <ele>146</ele>
        <time>2021-06-05T08:48:27Z</time>
      </trkpt>
      <trkpt lat="43.6473" lon="3.36098">
        <ele>146</ele>
        <time>2021-06-05T08:48:28Z</time>
      </trkpt>
      <trkpt lat="43.64733" lon="3.36097">
        <ele>146</ele>
        <time>2021-06-05T08:48:29Z</time>
      </trkpt>
      <trkpt lat="43.64736" lon="3.36093">
        <ele>146</ele>
        <time>2021-06-05T08:48:30Z</time>
      </trkpt>
      <trkpt lat="43.64738" lon="3.36089">
        <ele>146</ele>
        <time>2021-06-05T08:48:31Z</time>
      </trkpt>
      <trkpt lat="43.64739" lon="3.36085">
        <ele>145</ele>
        <time>2021-06-05T08:48:32Z</time>
      </trkpt>
      <trkpt lat="43.64741" lon="3.36081">
        <ele>145</ele>
        <time>2021-06-05T08:48:33Z</time>
      </trkpt>
      <trkpt lat="43.64743" lon="3.36077">
        <ele>145</ele>
        <time>2021-06-05T08:48:34Z</time>
      </trkpt>
      <trkpt lat="43.64745" lon="3.36072">
        <ele>145</ele>
        <time>2021-06-05T08:48:35Z</time>
      </trkpt>
      <trkpt lat="43.64748" lon="3.36068">
        <ele>145</ele>
        <time>2021-06-05T08:48:36Z</time>
      </trkpt>
      <trkpt lat="43.6475" lon="3.36065">
        <ele>145</ele>
        <time>2021-06-05T08:48:37Z</time>
      </trkpt>
      <trkpt lat="43.64753" lon="3.36061">
        <ele>145</ele>
        <time>2021-06-05T08:48:38Z</time>
      </trkpt>
      <trkpt lat="43.64755" lon="3.36059">
        <ele>145</ele>
        <time>2021-06-05T08:48:39Z</time>
      </trkpt>
      <trkpt lat="43.64758" lon="3.36056">
        <ele>145</ele>
        <time>2021-06-05T08:48:40Z</time>
      </trkpt>
      <trkpt lat="43.64761" lon="3.36054">
        <ele>145</ele>
        <time>2021-06-05T08:48:42Z</time>
      </trkpt>
      <trkpt lat="43.64763" lon="3.36051">
        <ele>144</ele>
        <time>2021-06-05T08:48:42Z</time>
      </trkpt>
      <trkpt lat="43.64766" lon="3.36047">
        <ele>144</ele>
        <time>2021-06-05T08:48:43Z</time>
      </trkpt>
      <trkpt lat="43.64767" lon="3.36044">
        <ele>144</ele>
        <time>2021-06-05T08:48:44Z</time>
      </trkpt>
      <trkpt lat="43.64769" lon="3.3604">
        <ele>144</ele>
        <time>2021-06-05T08:48:45Z</time>
      </trkpt>
      <trkpt lat="43.6477" lon="3.36035">
        <ele>144</ele>
        <time>2021-06-05T08:48:46Z</time>
      </trkpt>
      <trkpt lat="43.64772" lon="3.36031">
        <ele>144</ele>
        <time>2021-06-05T08:48:47Z</time>
      </trkpt>
      <trkpt lat="43.64773" lon="3.36027">
        <ele>144</ele>
        <time>2021-06-05T08:48:48Z</time>
      </trkpt>
      <trkpt lat="43.64774" lon="3.36023">
        <ele>144</ele>
        <time>2021-06-05T08:48:49Z</time>
      </trkpt>
      <trkpt lat="43.64776" lon="3.36019">
        <ele>144</ele>
        <time>2021-06-05T08:48:50Z</time>
      </trkpt>
      <trkpt lat="43.64777" lon="3.36016">
        <ele>144</ele>
        <time>2021-06-05T08:48:52Z</time>
      </trkpt>
      <trkpt lat="43.64779" lon="3.36013">
        <ele>143</ele>
        <time>2021-06-05T08:48:53Z</time>
      </trkpt>
      <trkpt lat="43.6478" lon="3.36009">
        <ele>143</ele>
        <time>2021-06-05T08:48:54Z</time>
      </trkpt>
      <trkpt lat="43.64781" lon="3.36006">
        <ele>143</ele>
        <time>2021-06-05T08:48:55Z</time>
      </trkpt>
      <trkpt lat="43.64783" lon="3.36003">
        <ele>143</ele>
        <time>2021-06-05T08:48:55Z</time>
      </trkpt>
      <trkpt lat="43.64784" lon="3.35999">
        <ele>143</ele>
        <time>2021-06-05T08:48:56Z</time>
      </trkpt>
      <trkpt lat="43.64785" lon="3.35996">
        <ele>143</ele>
        <time>2021-06-05T08:48:57Z</time>
      </trkpt>
      <trkpt lat="43.64786" lon="3.35993">
        <ele>143</ele>
        <time>2021-06-05T08:48:59Z</time>
      </trkpt>
      <trkpt lat="43.64788" lon="3.35989">
        <ele>143</ele>
        <time>2021-06-05T08:48:59Z</time>
      </trkpt>
      <trkpt lat="43.64789" lon="3.35986">
        <ele>143</ele>
        <time>2021-06-05T08:49:01Z</time>
      </trkpt>
      <trkpt lat="43.6479" lon="3.35982">
        <ele>143</ele>
        <time>2021-06-05T08:49:01Z</time>
      </trkpt>
      <trkpt lat="43.64791" lon="3.3598">
        <ele>143</ele>
        <time>2021-06-05T08:49:02Z</time>
      </trkpt>
      <trkpt lat="43.64793" lon="3.35976">
        <ele>143</ele>
        <time>2021-06-05T08:49:03Z</time>
      </trkpt>
      <trkpt lat="43.64793" lon="3.35973">
        <ele>143</ele>
        <time>2021-06-05T08:49:04Z</time>
      </trkpt>
      <trkpt lat="43.64796" lon="3.3597">
        <ele>143</ele>
        <time>2021-06-05T08:49:05Z</time>
      </trkpt>
      <trkpt lat="43.64797" lon="3.35966">
        <ele>143</ele>
        <time>2021-06-05T08:49:06Z</time>
      </trkpt>
      <trkpt lat="43.64798" lon="3.35963">
        <ele>143</ele>
        <time>2021-06-05T08:49:07Z</time>
      </trkpt>
      <trkpt lat="43.64799" lon="3.3596">
        <ele>143</ele>
        <time>2021-06-05T08:49:08Z</time>
      </trkpt>
      <trkpt lat="43.648" lon="3.35956">
        <ele>143</ele>
        <time>2021-06-05T08:49:09Z</time>
      </trkpt>
      <trkpt lat="43.64801" lon="3.35953">
        <ele>143</ele>
        <time>2021-06-05T08:49:10Z</time>
      </trkpt>
      <trkpt lat="43.64803" lon="3.3595">
        <ele>143</ele>
        <time>2021-06-05T08:49:11Z</time>
      </trkpt>
      <trkpt lat="43.64804" lon="3.35947">
        <ele>144</ele>
        <time>2021-06-05T08:49:12Z</time>
      </trkpt>
      <trkpt lat="43.64805" lon="3.35944">
        <ele>144</ele>
        <time>2021-06-05T08:49:13Z</time>
      </trkpt>
      <trkpt lat="43.64807" lon="3.35941">
        <ele>144</ele>
        <time>2021-06-05T08:49:15Z</time>
      </trkpt>
      <trkpt lat="43.64808" lon="3.35938">
        <ele>144</ele>
        <time>2021-06-05T08:49:15Z</time>
      </trkpt>
      <trkpt lat="43.6481" lon="3.35935">
        <ele>144</ele>
        <time>2021-06-05T08:49:16Z</time>
      </trkpt>
      <trkpt lat="43.64812" lon="3.35933">
        <ele>144</ele>
        <time>2021-06-05T08:49:17Z</time>
      </trkpt>
      <trkpt lat="43.64813" lon="3.3593">
        <ele>144</ele>
        <time>2021-06-05T08:49:18Z</time>
      </trkpt>
      <trkpt lat="43.64815" lon="3.35927">
        <ele>144</ele>
        <time>2021-06-05T08:49:19Z</time>
      </trkpt>
      <trkpt lat="43.64817" lon="3.35924">
        <ele>144</ele>
        <time>2021-06-05T08:49:20Z</time>
      </trkpt>
      <trkpt lat="43.64818" lon="3.3592">
        <ele>144</ele>
        <time>2021-06-05T08:49:21Z</time>
      </trkpt>
      <trkpt lat="43.6482" lon="3.35916">
        <ele>145</ele>
        <time>2021-06-05T08:49:23Z</time>
      </trkpt>
      <trkpt lat="43.64822" lon="3.35912">
        <ele>145</ele>
        <time>2021-06-05T08:49:23Z</time>
      </trkpt>
      <trkpt lat="43.64824" lon="3.35908">
        <ele>145</ele>
        <time>2021-06-05T08:49:24Z</time>
      </trkpt>
      <trkpt lat="43.64826" lon="3.35904">
        <ele>145</ele>
        <time>2021-06-05T08:49:25Z</time>
      </trkpt>
      <trkpt lat="43.64827" lon="3.359">
        <ele>145</ele>
        <time>2021-06-05T08:49:27Z</time>
      </trkpt>
      <trkpt lat="43.64829" lon="3.35896">
        <ele>145</ele>
        <time>2021-06-05T08:49:27Z</time>
      </trkpt>
      <trkpt lat="43.6483" lon="3.35891">
        <ele>145</ele>
        <time>2021-06-05T08:49:29Z</time>
      </trkpt>
      <trkpt lat="43.64831" lon="3.35887">
        <ele>145</ele>
        <time>2021-06-05T08:49:29Z</time>
      </trkpt>
      <trkpt lat="43.64832" lon="3.35882">
        <ele>145</ele>
        <time>2021-06-05T08:49:30Z</time>
      </trkpt>
      <trkpt lat="43.64833" lon="3.35877">
        <ele>145</ele>
        <time>2021-06-05T08:49:31Z</time>
      </trkpt>
      <trkpt lat="43.64834" lon="3.35872">
        <ele>145</ele>
        <time>2021-06-05T08:49:33Z</time>
      </trkpt>
      <trkpt lat="43.64835" lon="3.35866">
        <ele>145</ele>
        <time>2021-06-05T08:49:33Z</time>
      </trkpt>
      <trkpt lat="43.64836" lon="3.35861">
        <ele>145</ele>
        <time>2021-06-05T08:49:34Z</time>
      </trkpt>
      <trkpt lat="43.64838" lon="3.35855">
        <ele>145</ele>
        <time>2021-06-05T08:49:35Z</time>
      </trkpt>
      <trkpt lat="43.64839" lon="3.3585">
        <ele>145</ele>
        <time>2021-06-05T08:49:36Z</time>
      </trkpt>
      <trkpt lat="43.64841" lon="3.35844">
        <ele>145</ele>
        <time>2021-06-05T08:49:37Z</time>
      </trkpt>
      <trkpt lat="43.64842" lon="3.35839">
        <ele>145</ele>
        <time>2021-06-05T08:49:38Z</time>
      </trkpt>
      <trkpt lat="43.64844" lon="3.35834">
        <ele>145</ele>
        <time>2021-06-05T08:49:39Z</time>
      </trkpt>
      <trkpt lat="43.64845" lon="3.35828">
        <ele>145</ele>
        <time>2021-06-05T08:49:41Z</time>
      </trkpt>
      <trkpt lat="43.64846" lon="3.35822">
        <ele>145</ele>
        <time>2021-06-05T08:49:41Z</time>
      </trkpt>
      <trkpt lat="43.64848" lon="3.35817">
        <ele>144</ele>
        <time>2021-06-05T08:49:43Z</time>
      </trkpt>
      <trkpt lat="43.64849" lon="3.35811">
        <ele>144</ele>
        <time>2021-06-05T08:49:44Z</time>
      </trkpt>
      <trkpt lat="43.6485" lon="3.35806">
        <ele>144</ele>
        <time>2021-06-05T08:49:45Z</time>
      </trkpt>
      <trkpt lat="43.64852" lon="3.35801">
        <ele>144</ele>
        <time>2021-06-05T08:49:45Z</time>
      </trkpt>
      <trkpt lat="43.64853" lon="3.35796">
        <ele>144</ele>
        <time>2021-06-05T08:49:46Z</time>
      </trkpt>
      <trkpt lat="43.64854" lon="3.35793">
        <ele>144</ele>
        <time>2021-06-05T08:49:47Z</time>
      </trkpt>
      <trkpt lat="43.64855" lon="3.3579">
        <ele>144</ele>
        <time>2021-06-05T08:49:49Z</time>
      </trkpt>
      <trkpt lat="43.64857" lon="3.35785">
        <ele>144</ele>
        <time>2021-06-05T08:49:51Z</time>
      </trkpt>
      <trkpt lat="43.64857" lon="3.35784">
        <ele>144</ele>
        <time>2021-06-05T08:49:52Z</time>
      </trkpt>
      <trkpt lat="43.64858" lon="3.35781">
        <ele>144</ele>
        <time>2021-06-05T08:49:53Z</time>
      </trkpt>
      <trkpt lat="43.64859" lon="3.35779">
        <ele>144</ele>
        <time>2021-06-05T08:49:54Z</time>
      </trkpt>
      <trkpt lat="43.64859" lon="3.35776">
        <ele>144</ele>
        <time>2021-06-05T08:49:55Z</time>
      </trkpt>
      <trkpt lat="43.64859" lon="3.35773">
        <ele>144</ele>
        <time>2021-06-05T08:49:56Z</time>
      </trkpt>
      <trkpt lat="43.64859" lon="3.35769">
        <ele>144</ele>
        <time>2021-06-05T08:49:57Z</time>
      </trkpt>
      <trkpt lat="43.6486" lon="3.35765">
        <ele>144</ele>
        <time>2021-06-05T08:49:58Z</time>
      </trkpt>
      <trkpt lat="43.64861" lon="3.35762">
        <ele>144</ele>
        <time>2021-06-05T08:49:59Z</time>
      </trkpt>
      <trkpt lat="43.64864" lon="3.35759">
        <ele>144</ele>
        <time>2021-06-05T08:50:00Z</time>
      </trkpt>
      <trkpt lat="43.64866" lon="3.35755">
        <ele>144</ele>
        <time>2021-06-05T08:50:01Z</time>
      </trkpt>
      <trkpt lat="43.6487" lon="3.35752">
        <ele>144</ele>
        <time>2021-06-05T08:50:02Z</time>
      </trkpt>
      <trkpt lat="43.64873" lon="3.35749">
        <ele>144</ele>
        <time>2021-06-05T08:50:04Z</time>
      </trkpt>
      <trkpt lat="43.64876" lon="3.35746">
        <ele>144</ele>
        <time>2021-06-05T08:50:04Z</time>
      </trkpt>
      <trkpt lat="43.64879" lon="3.35744">
        <ele>144</ele>
        <time>2021-06-05T08:50:05Z</time>
      </trkpt>
      <trkpt lat="43.64881" lon="3.35741">
        <ele>144</ele>
        <time>2021-06-05T08:50:06Z</time>
      </trkpt>
      <trkpt lat="43.64883" lon="3.35738">
        <ele>144</ele>
        <time>2021-06-05T08:50:08Z</time>
      </trkpt>
      <trkpt lat="43.64886" lon="3.35734">
        <ele>144</ele>
        <time>2021-06-05T08:50:08Z</time>
      </trkpt>
      <trkpt lat="43.64888" lon="3.35731">
        <ele>144</ele>
        <time>2021-06-05T08:50:09Z</time>
      </trkpt>
      <trkpt lat="43.64891" lon="3.35727">
        <ele>144</ele>
        <time>2021-06-05T08:50:10Z</time>
      </trkpt>
      <trkpt lat="43.64894" lon="3.35723">
        <ele>144</ele>
        <time>2021-06-05T08:50:11Z</time>
      </trkpt>
      <trkpt lat="43.64896" lon="3.3572">
        <ele>144</ele>
        <time>2021-06-05T08:50:12Z</time>
      </trkpt>
      <trkpt lat="43.64898" lon="3.35717">
        <ele>144</ele>
        <time>2021-06-05T08:50:13Z</time>
      </trkpt>
      <trkpt lat="43.64901" lon="3.35714">
        <ele>144</ele>
        <time>2021-06-05T08:50:15Z</time>
      </trkpt>
      <trkpt lat="43.64903" lon="3.35711">
        <ele>144</ele>
        <time>2021-06-05T08:50:15Z</time>
      </trkpt>
      <trkpt lat="43.64905" lon="3.35708">
        <ele>144</ele>
        <time>2021-06-05T08:50:17Z</time>
      </trkpt>
      <trkpt lat="43.64907" lon="3.35704">
        <ele>144</ele>
        <time>2021-06-05T08:50:17Z</time>
      </trkpt>
      <trkpt lat="43.64909" lon="3.35701">
        <ele>144</ele>
        <time>2021-06-05T08:50:19Z</time>
      </trkpt>
      <trkpt lat="43.64912" lon="3.35697">
        <ele>144</ele>
        <time>2021-06-05T08:50:19Z</time>
      </trkpt>
      <trkpt lat="43.64914" lon="3.35694">
        <ele>144</ele>
        <time>2021-06-05T08:50:21Z</time>
      </trkpt>
      <trkpt lat="43.64917" lon="3.3569">
        <ele>144</ele>
        <time>2021-06-05T08:50:21Z</time>
      </trkpt>
      <trkpt lat="43.6492" lon="3.35687">
        <ele>144</ele>
        <time>2021-06-05T08:50:22Z</time>
      </trkpt>
      <trkpt lat="43.64922" lon="3.35684">
        <ele>144</ele>
        <time>2021-06-05T08:50:23Z</time>
      </trkpt>
      <trkpt lat="43.64926" lon="3.35682">
        <ele>144</ele>
        <time>2021-06-05T08:50:24Z</time>
      </trkpt>
      <trkpt lat="43.64929" lon="3.3568">
        <ele>144</ele>
        <time>2021-06-05T08:50:25Z</time>
      </trkpt>
      <trkpt lat="43.64933" lon="3.35678">
        <ele>144</ele>
        <time>2021-06-05T08:50:27Z</time>
      </trkpt>
      <trkpt lat="43.64936" lon="3.35677">
        <ele>144</ele>
        <time>2021-06-05T08:50:27Z</time>
      </trkpt>
      <trkpt lat="43.6494" lon="3.35675">
        <ele>144</ele>
        <time>2021-06-05T08:50:28Z</time>
      </trkpt>
      <trkpt lat="43.64944" lon="3.35674">
        <ele>144</ele>
        <time>2021-06-05T08:50:30Z</time>
      </trkpt>
      <trkpt lat="43.64948" lon="3.35673">
        <ele>144</ele>
        <time>2021-06-05T08:50:30Z</time>
      </trkpt>
      <trkpt lat="43.64952" lon="3.35671">
        <ele>144</ele>
        <time>2021-06-05T08:50:32Z</time>
      </trkpt>
      <trkpt lat="43.64957" lon="3.35668">
        <ele>144</ele>
        <time>2021-06-05T08:50:32Z</time>
      </trkpt>
      <trkpt lat="43.6496" lon="3.35665">
        <ele>144</ele>
        <time>2021-06-05T08:50:33Z</time>
      </trkpt>
      <trkpt lat="43.64964" lon="3.35661">
        <ele>144</ele>
        <time>2021-06-05T08:50:34Z</time>
      </trkpt>
      <trkpt lat="43.64966" lon="3.35656">
        <ele>144</ele>
        <time>2021-06-05T08:50:35Z</time>
      </trkpt>
      <trkpt lat="43.64968" lon="3.3565">
        <ele>144</ele>
        <time>2021-06-05T08:50:36Z</time>
      </trkpt>
      <trkpt lat="43.6497" lon="3.35644">
        <ele>144</ele>
        <time>2021-06-05T08:50:37Z</time>
      </trkpt>
      <trkpt lat="43.64971" lon="3.35638">
        <ele>144</ele>
        <time>2021-06-05T08:50:38Z</time>
      </trkpt>
      <trkpt lat="43.64973" lon="3.35632">
        <ele>144</ele>
        <time>2021-06-05T08:50:39Z</time>
      </trkpt>
      <trkpt lat="43.64974" lon="3.35626">
        <ele>144</ele>
        <time>2021-06-05T08:50:40Z</time>
      </trkpt>
      <trkpt lat="43.64975" lon="3.3562">
        <ele>144</ele>
        <time>2021-06-05T08:50:41Z</time>
      </trkpt>
      <trkpt lat="43.64976" lon="3.35615">
        <ele>144</ele>
        <time>2021-06-05T08:50:43Z</time>
      </trkpt>
      <trkpt lat="43.64977" lon="3.3561">
        <ele>144</ele>
        <time>2021-06-05T08:50:44Z</time>
      </trkpt>
      <trkpt lat="43.64978" lon="3.35605">
        <ele>144</ele>
        <time>2021-06-05T08:50:44Z</time>
      </trkpt>
      <trkpt lat="43.64979" lon="3.356">
        <ele>144</ele>
        <time>2021-06-05T08:50:45Z</time>
      </trkpt>
      <trkpt lat="43.6498" lon="3.35596">
        <ele>144</ele>
        <time>2021-06-05T08:50:46Z</time>
      </trkpt>
      <trkpt lat="43.64981" lon="3.35591">
        <ele>144</ele>
        <time>2021-06-05T08:50:47Z</time>
      </trkpt>
      <trkpt lat="43.64982" lon="3.35587">
        <ele>144</ele>
        <time>2021-06-05T08:50:49Z</time>
      </trkpt>
      <trkpt lat="43.64983" lon="3.35582">
        <ele>144</ele>
        <time>2021-06-05T08:50:50Z</time>
      </trkpt>
      <trkpt lat="43.64985" lon="3.35577">
        <ele>144</ele>
        <time>2021-06-05T08:50:51Z</time>
      </trkpt>
      <trkpt lat="43.64985" lon="3.35573">
        <ele>144</ele>
        <time>2021-06-05T08:50:51Z</time>
      </trkpt>
      <trkpt lat="43.64986" lon="3.35568">
        <ele>144</ele>
        <time>2021-06-05T08:50:53Z</time>
      </trkpt>
      <trkpt lat="43.64987" lon="3.35564">
        <ele>144</ele>
        <time>2021-06-05T08:50:54Z</time>
      </trkpt>
      <trkpt lat="43.64988" lon="3.35559">
        <ele>144</ele>
        <time>2021-06-05T08:50:54Z</time>
      </trkpt>
      <trkpt lat="43.6499" lon="3.35554">
        <ele>144</ele>
        <time>2021-06-05T08:50:56Z</time>
      </trkpt>
      <trkpt lat="43.64991" lon="3.35549">
        <ele>144</ele>
        <time>2021-06-05T08:50:57Z</time>
      </trkpt>
      <trkpt lat="43.64992" lon="3.35545">
        <ele>144</ele>
        <time>2021-06-05T08:50:58Z</time>
      </trkpt>
      <trkpt lat="43.64993" lon="3.3554">
        <ele>144</ele>
        <time>2021-06-05T08:50:59Z</time>
      </trkpt>
      <trkpt lat="43.64993" lon="3.35536">
        <ele>144</ele>
        <time>2021-06-05T08:51:00Z</time>
      </trkpt>
      <trkpt lat="43.64995" lon="3.35531">
        <ele>144</ele>
        <time>2021-06-05T08:51:01Z</time>
      </trkpt>
      <trkpt lat="43.64995" lon="3.35526">
        <ele>144</ele>
        <time>2021-06-05T08:51:02Z</time>
      </trkpt>
      <trkpt lat="43.64995" lon="3.35521">
        <ele>143</ele>
        <time>2021-06-05T08:51:02Z</time>
      </trkpt>
      <trkpt lat="43.64994" lon="3.35517">
        <ele>143</ele>
        <time>2021-06-05T08:51:03Z</time>
      </trkpt>
      <trkpt lat="43.64993" lon="3.35512">
        <ele>143</ele>
        <time>2021-06-05T08:51:05Z</time>
      </trkpt>
      <trkpt lat="43.64991" lon="3.35508">
        <ele>143</ele>
        <time>2021-06-05T08:51:06Z</time>
      </trkpt>
      <trkpt lat="43.64989" lon="3.35504">
        <ele>143</ele>
        <time>2021-06-05T08:51:06Z</time>
      </trkpt>
      <trkpt lat="43.64986" lon="3.35501">
        <ele>143</ele>
        <time>2021-06-05T08:51:08Z</time>
      </trkpt>
      <trkpt lat="43.64982" lon="3.35498">
        <ele>143</ele>
        <time>2021-06-05T08:51:09Z</time>
      </trkpt>
      <trkpt lat="43.64978" lon="3.35496">
        <ele>143</ele>
        <time>2021-06-05T08:51:10Z</time>
      </trkpt>
      <trkpt lat="43.64974" lon="3.35494">
        <ele>143</ele>
        <time>2021-06-05T08:51:11Z</time>
      </trkpt>
      <trkpt lat="43.6497" lon="3.35492">
        <ele>143</ele>
        <time>2021-06-05T08:51:11Z</time>
      </trkpt>
      <trkpt lat="43.64966" lon="3.3549">
        <ele>142</ele>
        <time>2021-06-05T08:51:12Z</time>
      </trkpt>
      <trkpt lat="43.64962" lon="3.35489">
        <ele>142</ele>
        <time>2021-06-05T08:51:14Z</time>
      </trkpt>
      <trkpt lat="43.64958" lon="3.35488">
        <ele>142</ele>
        <time>2021-06-05T08:51:14Z</time>
      </trkpt>
      <trkpt lat="43.64955" lon="3.35487">
        <ele>142</ele>
        <time>2021-06-05T08:51:15Z</time>
      </trkpt>
      <trkpt lat="43.64952" lon="3.35486">
        <ele>142</ele>
        <time>2021-06-05T08:51:16Z</time>
      </trkpt>
      <trkpt lat="43.64949" lon="3.35484">
        <ele>142</ele>
        <time>2021-06-05T08:51:17Z</time>
      </trkpt>
      <trkpt lat="43.64945" lon="3.35483">
        <ele>142</ele>
        <time>2021-06-05T08:51:18Z</time>
      </trkpt>
      <trkpt lat="43.64941" lon="3.35482">
        <ele>142</ele>
        <time>2021-06-05T08:51:19Z</time>
      </trkpt>
      <trkpt lat="43.64938" lon="3.3548">
        <ele>142</ele>
        <time>2021-06-05T08:51:20Z</time>
      </trkpt>
      <trkpt lat="43.64935" lon="3.35478">
        <ele>142</ele>
        <time>2021-06-05T08:51:21Z</time>
      </trkpt>
      <trkpt lat="43.64932" lon="3.35476">
        <ele>142</ele>
        <time>2021-06-05T08:51:22Z</time>
      </trkpt>
      <trkpt lat="43.64929" lon="3.35472">
        <ele>142</ele>
        <time>2021-06-05T08:51:24Z</time>
      </trkpt>
      <trkpt lat="43.64926" lon="3.35468">
        <ele>142</ele>
        <time>2021-06-05T08:51:24Z</time>
      </trkpt>
      <trkpt lat="43.64923" lon="3.35464">
        <ele>142</ele>
        <time>2021-06-05T08:51:26Z</time>
      </trkpt>
      <trkpt lat="43.64921" lon="3.3546">
        <ele>142</ele>
        <time>2021-06-05T08:51:26Z</time>
      </trkpt>
      <trkpt lat="43.64919" lon="3.35456">
        <ele>142</ele>
        <time>2021-06-05T08:51:27Z</time>
      </trkpt>
      <trkpt lat="43.64917" lon="3.35452">
        <ele>142</ele>
        <time>2021-06-05T08:51:28Z</time>
      </trkpt>
      <trkpt lat="43.64914" lon="3.35447">
        <ele>142</ele>
        <time>2021-06-05T08:51:29Z</time>
      </trkpt>
      <trkpt lat="43.64911" lon="3.35443">
        <ele>142</ele>
        <time>2021-06-05T08:51:31Z</time>
      </trkpt>
      <trkpt lat="43.64909" lon="3.35438">
        <ele>142</ele>
        <time>2021-06-05T08:51:31Z</time>
      </trkpt>
      <trkpt lat="43.64908" lon="3.35434">
        <ele>142</ele>
        <time>2021-06-05T08:51:32Z</time>
      </trkpt>
      <trkpt lat="43.64907" lon="3.35428">
        <ele>142</ele>
        <time>2021-06-05T08:51:33Z</time>
      </trkpt>
      <trkpt lat="43.64907" lon="3.35422">
        <ele>142</ele>
        <time>2021-06-05T08:51:34Z</time>
      </trkpt>
      <trkpt lat="43.64909" lon="3.35417">
        <ele>142</ele>
        <time>2021-06-05T08:51:35Z</time>
      </trkpt>
      <trkpt lat="43.64911" lon="3.35412">
        <ele>142</ele>
        <time>2021-06-05T08:51:36Z</time>
      </trkpt>
      <trkpt lat="43.64914" lon="3.35408">
        <ele>142</ele>
        <time>2021-06-05T08:51:37Z</time>
      </trkpt>
      <trkpt lat="43.64918" lon="3.35404">
        <ele>142</ele>
        <time>2021-06-05T08:51:38Z</time>
      </trkpt>
      <trkpt lat="43.6492" lon="3.35401">
        <ele>142</ele>
        <time>2021-06-05T08:51:39Z</time>
      </trkpt>
      <trkpt lat="43.64924" lon="3.35398">
        <ele>142</ele>
        <time>2021-06-05T08:51:40Z</time>
      </trkpt>
      <trkpt lat="43.64927" lon="3.35394">
        <ele>142</ele>
        <time>2021-06-05T08:51:41Z</time>
      </trkpt>
      <trkpt lat="43.6493" lon="3.3539">
        <ele>141</ele>
        <time>2021-06-05T08:51:43Z</time>
      </trkpt>
      <trkpt lat="43.64933" lon="3.35385">
        <ele>141</ele>
        <time>2021-06-05T08:51:43Z</time>
      </trkpt>
      <trkpt lat="43.64935" lon="3.3538">
        <ele>141</ele>
        <time>2021-06-05T08:51:44Z</time>
      </trkpt>
      <trkpt lat="43.64936" lon="3.35375">
        <ele>141</ele>
        <time>2021-06-05T08:51:45Z</time>
      </trkpt>
      <trkpt lat="43.64937" lon="3.35369">
        <ele>141</ele>
        <time>2021-06-05T08:51:46Z</time>
      </trkpt>
      <trkpt lat="43.64938" lon="3.35363">
        <ele>141</ele>
        <time>2021-06-05T08:51:48Z</time>
      </trkpt>
      <trkpt lat="43.64939" lon="3.35356">
        <ele>141</ele>
        <time>2021-06-05T08:51:48Z</time>
      </trkpt>
      <trkpt lat="43.6494" lon="3.35351">
        <ele>141</ele>
        <time>2021-06-05T08:51:49Z</time>
      </trkpt>
      <trkpt lat="43.6494" lon="3.35345">
        <ele>141</ele>
        <time>2021-06-05T08:51:50Z</time>
      </trkpt>
      <trkpt lat="43.64939" lon="3.35339">
        <ele>141</ele>
        <time>2021-06-05T08:51:51Z</time>
      </trkpt>
      <trkpt lat="43.64938" lon="3.35334">
        <ele>141</ele>
        <time>2021-06-05T08:51:52Z</time>
      </trkpt>
      <trkpt lat="43.64936" lon="3.35328">
        <ele>141</ele>
        <time>2021-06-05T08:51:54Z</time>
      </trkpt>
      <trkpt lat="43.64934" lon="3.35323">
        <ele>141</ele>
        <time>2021-06-05T08:51:54Z</time>
      </trkpt>
      <trkpt lat="43.6493" lon="3.35319">
        <ele>141</ele>
        <time>2021-06-05T08:51:55Z</time>
      </trkpt>
      <trkpt lat="43.64927" lon="3.35315">
        <ele>141</ele>
        <time>2021-06-05T08:51:56Z</time>
      </trkpt>
      <trkpt lat="43.64923" lon="3.35311">
        <ele>141</ele>
        <time>2021-06-05T08:51:57Z</time>
      </trkpt>
      <trkpt lat="43.64921" lon="3.35306">
        <ele>141</ele>
        <time>2021-06-05T08:51:58Z</time>
      </trkpt>
      <trkpt lat="43.64919" lon="3.35302">
        <ele>141</ele>
        <time>2021-06-05T08:52:00Z</time>
      </trkpt>
      <trkpt lat="43.64917" lon="3.35297">
        <ele>141</ele>
        <time>2021-06-05T08:52:01Z</time>
      </trkpt>
      <trkpt lat="43.64914" lon="3.35291">
        <ele>141</ele>
        <time>2021-06-05T08:52:02Z</time>
      </trkpt>
      <trkpt lat="43.64914" lon="3.35287">
        <ele>141</ele>
        <time>2021-06-05T08:52:03Z</time>
      </trkpt>
      <trkpt lat="43.64913" lon="3.35281">
        <ele>141</ele>
        <time>2021-06-05T08:52:04Z</time>
      </trkpt>
      <trkpt lat="43.64913" lon="3.35276">
        <ele>141</ele>
        <time>2021-06-05T08:52:05Z</time>
      </trkpt>
      <trkpt lat="43.64913" lon="3.3527">
        <ele>141</ele>
        <time>2021-06-05T08:52:05Z</time>
      </trkpt>
      <trkpt lat="43.64913" lon="3.35264">
        <ele>141</ele>
        <time>2021-06-05T08:52:06Z</time>
      </trkpt>
      <trkpt lat="43.64914" lon="3.35258">
        <ele>141</ele>
        <time>2021-06-05T08:52:07Z</time>
      </trkpt>
      <trkpt lat="43.64916" lon="3.35253">
        <ele>141</ele>
        <time>2021-06-05T08:52:08Z</time>
      </trkpt>
      <trkpt lat="43.64918" lon="3.35247">
        <ele>141</ele>
        <time>2021-06-05T08:52:09Z</time>
      </trkpt>
      <trkpt lat="43.64919" lon="3.35242">
        <ele>141</ele>
        <time>2021-06-05T08:52:11Z</time>
      </trkpt>
      <trkpt lat="43.6492" lon="3.35237">
        <ele>141</ele>
        <time>2021-06-05T08:52:12Z</time>
      </trkpt>
      <trkpt lat="43.64921" lon="3.35231">
        <ele>141</ele>
        <time>2021-06-05T08:52:13Z</time>
      </trkpt>
      <trkpt lat="43.64921" lon="3.35226">
        <ele>141</ele>
        <time>2021-06-05T08:52:14Z</time>
      </trkpt>
      <trkpt lat="43.64921" lon="3.35221">
        <ele>141</ele>
        <time>2021-06-05T08:52:15Z</time>
      </trkpt>
      <trkpt lat="43.64922" lon="3.35216">
        <ele>141</ele>
        <time>2021-06-05T08:52:16Z</time>
      </trkpt>
      <trkpt lat="43.64922" lon="3.3521">
        <ele>141</ele>
        <time>2021-06-05T08:52:17Z</time>
      </trkpt>
      <trkpt lat="43.64922" lon="3.35206">
        <ele>141</ele>
        <time>2021-06-05T08:52:18Z</time>
      </trkpt>
      <trkpt lat="43.64921" lon="3.35201">
        <ele>141</ele>
        <time>2021-06-05T08:52:18Z</time>
      </trkpt>
      <trkpt lat="43.6492" lon="3.35196">
        <ele>141</ele>
        <time>2021-06-05T08:52:19Z</time>
      </trkpt>
      <trkpt lat="43.64918" lon="3.35192">
        <ele>141</ele>
        <time>2021-06-05T08:52:20Z</time>
      </trkpt>
      <trkpt lat="43.64915" lon="3.35188">
        <ele>141</ele>
        <time>2021-06-05T08:52:22Z</time>
      </trkpt>
      <trkpt lat="43.64912" lon="3.35186">
        <ele>140</ele>
        <time>2021-06-05T08:52:23Z</time>
      </trkpt>
      <trkpt lat="43.64908" lon="3.35183">
        <ele>140</ele>
        <time>2021-06-05T08:52:23Z</time>
      </trkpt>
      <trkpt lat="43.64904" lon="3.35182">
        <ele>140</ele>
        <time>2021-06-05T08:52:25Z</time>
      </trkpt>
      <trkpt lat="43.649" lon="3.3518">
        <ele>140</ele>
        <time>2021-06-05T08:52:25Z</time>
      </trkpt>
      <trkpt lat="43.64896" lon="3.35179">
        <ele>140</ele>
        <time>2021-06-05T08:52:26Z</time>
      </trkpt>
      <trkpt lat="43.64892" lon="3.35177">
        <ele>140</ele>
        <time>2021-06-05T08:52:28Z</time>
      </trkpt>
      <trkpt lat="43.64888" lon="3.35175">
        <ele>140</ele>
        <time>2021-06-05T08:52:29Z</time>
      </trkpt>
      <trkpt lat="43.64884" lon="3.35173">
        <ele>140</ele>
        <time>2021-06-05T08:52:30Z</time>
      </trkpt>
      <trkpt lat="43.64881" lon="3.3517">
        <ele>140</ele>
        <time>2021-06-05T08:52:30Z</time>
      </trkpt>
      <trkpt lat="43.64877" lon="3.35166">
        <ele>140</ele>
        <time>2021-06-05T08:52:32Z</time>
      </trkpt>
      <trkpt lat="43.64874" lon="3.35162">
        <ele>140</ele>
        <time>2021-06-05T08:52:32Z</time>
      </trkpt>
      <trkpt lat="43.64872" lon="3.35158">
        <ele>140</ele>
        <time>2021-06-05T08:52:34Z</time>
      </trkpt>
      <trkpt lat="43.6487" lon="3.35153">
        <ele>140</ele>
        <time>2021-06-05T08:52:34Z</time>
      </trkpt>
      <trkpt lat="43.64869" lon="3.35148">
        <ele>140</ele>
        <time>2021-06-05T08:52:35Z</time>
      </trkpt>
      <trkpt lat="43.64867" lon="3.35144">
        <ele>140</ele>
        <time>2021-06-05T08:52:36Z</time>
      </trkpt>
      <trkpt lat="43.64866" lon="3.35139">
        <ele>140</ele>
        <time>2021-06-05T08:52:38Z</time>
      </trkpt>
      <trkpt lat="43.64865" lon="3.35134">
        <ele>140</ele>
        <time>2021-06-05T08:52:39Z</time>
      </trkpt>
      <trkpt lat="43.64863" lon="3.35129">
        <ele>140</ele>
        <time>2021-06-05T08:52:39Z</time>
      </trkpt>
      <trkpt lat="43.64862" lon="3.35124">
        <ele>140</ele>
        <time>2021-06-05T08:52:41Z</time>
      </trkpt>
      <trkpt lat="43.64862" lon="3.35119">
        <ele>140</ele>
        <time>2021-06-05T08:52:41Z</time>
      </trkpt>
      <trkpt lat="43.64862" lon="3.35113">
        <ele>139</ele>
        <time>2021-06-05T08:52:42Z</time>
      </trkpt>
      <trkpt lat="43.64862" lon="3.35108">
        <ele>139</ele>
        <time>2021-06-05T08:52:43Z</time>
      </trkpt>
      <trkpt lat="43.64862" lon="3.35102">
        <ele>139</ele>
        <time>2021-06-05T08:52:44Z</time>
      </trkpt>
      <trkpt lat="43.64863" lon="3.35097">
        <ele>139</ele>
        <time>2021-06-05T08:52:46Z</time>
      </trkpt>
      <trkpt lat="43.64864" lon="3.35092">
        <ele>139</ele>
        <time>2021-06-05T08:52:46Z</time>
      </trkpt>
      <trkpt lat="43.64866" lon="3.35087">
        <ele>139</ele>
        <time>2021-06-05T08:52:47Z</time>
      </trkpt>
      <trkpt lat="43.64867" lon="3.35082">
        <ele>139</ele>
        <time>2021-06-05T08:52:49Z</time>
      </trkpt>
      <trkpt lat="43.64867" lon="3.35077">
        <ele>139</ele>
        <time>2021-06-05T08:52:49Z</time>
      </trkpt>
      <trkpt lat="43.64868" lon="3.35073">
        <ele>139</ele>
        <time>2021-06-05T08:52:50Z</time>
      </trkpt>
      <trkpt lat="43.64868" lon="3.35068">
        <ele>139</ele>
        <time>2021-06-05T08:52:52Z</time>
      </trkpt>
      <trkpt lat="43.64868" lon="3.35064">
        <ele>139</ele>
        <time>2021-06-05T08:52:53Z</time>
      </trkpt>
      <trkpt lat="43.64867" lon="3.3506">
        <ele>139</ele>
        <time>2021-06-05T08:52:54Z</time>
      </trkpt>
      <trkpt lat="43.64866" lon="3.35056">
        <ele>139</ele>
        <time>2021-06-05T08:52:55Z</time>
      </trkpt>
      <trkpt lat="43.64864" lon="3.35053">
        <ele>139</ele>
        <time>2021-06-05T08:52:56Z</time>
      </trkpt>
      <trkpt lat="43.64862" lon="3.35049">
        <ele>139</ele>
        <time>2021-06-05T08:52:57Z</time>
      </trkpt>
      <trkpt lat="43.64859" lon="3.35047">
        <ele>139</ele>
        <time>2021-06-05T08:52:58Z</time>
      </trkpt>
      <trkpt lat="43.64856" lon="3.35045">
        <ele>139</ele>
        <time>2021-06-05T08:52:59Z</time>
      </trkpt>
      <trkpt lat="43.64852" lon="3.35043">
        <ele>139</ele>
        <time>2021-06-05T08:53:00Z</time>
      </trkpt>
      <trkpt lat="43.64849" lon="3.35042">
        <ele>139</ele>
        <time>2021-06-05T08:53:00Z</time>
      </trkpt>
      <trkpt lat="43.64845" lon="3.35041">
        <ele>139</ele>
        <time>2021-06-05T08:53:02Z</time>
      </trkpt>
      <trkpt lat="43.64843" lon="3.3504">
        <ele>139</ele>
        <time>2021-06-05T08:53:02Z</time>
      </trkpt>
      <trkpt lat="43.64841" lon="3.3504">
        <ele>139</ele>
        <time>2021-06-05T08:53:03Z</time>
      </trkpt>
      <trkpt lat="43.64838" lon="3.35038">
        <ele>139</ele>
        <time>2021-06-05T08:53:06Z</time>
      </trkpt>
      <trkpt lat="43.64836" lon="3.35035">
        <ele>139</ele>
        <time>2021-06-05T08:53:08Z</time>
      </trkpt>
      <trkpt lat="43.64838" lon="3.35031">
        <ele>139</ele>
        <time>2021-06-05T08:53:09Z</time>
      </trkpt>
      <trkpt lat="43.64841" lon="3.35032">
        <ele>139</ele>
        <time>2021-06-05T08:53:11Z</time>
      </trkpt>
      <trkpt lat="43.64841" lon="3.35035">
        <ele>139</ele>
        <time>2021-06-05T08:53:12Z</time>
      </trkpt>
      <trkpt lat="43.64838" lon="3.35038">
        <ele>139</ele>
        <time>2021-06-05T08:53:14Z</time>
      </trkpt>
      <trkpt lat="43.64836" lon="3.3504">
        <ele>139</ele>
        <time>2021-06-05T08:53:16Z</time>
      </trkpt>
      <trkpt lat="43.64833" lon="3.3504">
        <ele>139</ele>
        <time>2021-06-05T08:53:19Z</time>
      </trkpt>
      <trkpt lat="43.6483" lon="3.3504">
        <ele>139</ele>
        <time>2021-06-05T08:53:20Z</time>
      </trkpt>
      <trkpt lat="43.64827" lon="3.3504">
        <ele>139</ele>
        <time>2021-06-05T08:53:21Z</time>
      </trkpt>
      <trkpt lat="43.64824" lon="3.3504">
        <ele>139</ele>
        <time>2021-06-05T08:53:22Z</time>
      </trkpt>
      <trkpt lat="43.64821" lon="3.3504">
        <ele>140</ele>
        <time>2021-06-05T08:53:23Z</time>
      </trkpt>
      <trkpt lat="43.64818" lon="3.35039">
        <ele>140</ele>
        <time>2021-06-05T08:53:24Z</time>
      </trkpt>
      <trkpt lat="43.64815" lon="3.35038">
        <ele>140</ele>
        <time>2021-06-05T08:53:25Z</time>
      </trkpt>
      <trkpt lat="43.64814" lon="3.35035">
        <ele>140</ele>
        <time>2021-06-05T08:53:25Z</time>
      </trkpt>
      <trkpt lat="43.64814" lon="3.35032">
        <ele>140</ele>
        <time>2021-06-05T08:53:27Z</time>
      </trkpt>
      <trkpt lat="43.64815" lon="3.35028">
        <ele>140</ele>
        <time>2021-06-05T08:53:27Z</time>
      </trkpt>
      <trkpt lat="43.64816" lon="3.35024">
        <ele>140</ele>
        <time>2021-06-05T08:53:28Z</time>
      </trkpt>
      <trkpt lat="43.64817" lon="3.3502">
        <ele>140</ele>
        <time>2021-06-05T08:53:29Z</time>
      </trkpt>
      <trkpt lat="43.64817" lon="3.35016">
        <ele>140</ele>
        <time>2021-06-05T08:53:30Z</time>
      </trkpt>
      <trkpt lat="43.64817" lon="3.35012">
        <ele>140</ele>
        <time>2021-06-05T08:53:31Z</time>
      </trkpt>
      <trkpt lat="43.64815" lon="3.35007">
        <ele>140</ele>
        <time>2021-06-05T08:53:32Z</time>
      </trkpt>
      <trkpt lat="43.64815" lon="3.35003">
        <ele>140</ele>
        <time>2021-06-05T08:53:33Z</time>
      </trkpt>
      <trkpt lat="43.64814" lon="3.35">
        <ele>140</ele>
        <time>2021-06-05T08:53:34Z</time>
      </trkpt>
      <trkpt lat="43.64815" lon="3.34997">
        <ele>140</ele>
        <time>2021-06-05T08:53:36Z</time>
      </trkpt>
      <trkpt lat="43.64815" lon="3.34995">
        <ele>140</ele>
        <time>2021-06-05T08:53:37Z</time>
      </trkpt>
      <trkpt lat="43.64817" lon="3.34992">
        <ele>140</ele>
        <time>2021-06-05T08:53:38Z</time>
      </trkpt>
      <trkpt lat="43.64817" lon="3.3499">
        <ele>140</ele>
        <time>2021-06-05T08:53:39Z</time>
      </trkpt>
      <trkpt lat="43.64817" lon="3.34986">
        <ele>140</ele>
        <time>2021-06-05T08:53:41Z</time>
      </trkpt>
      <trkpt lat="43.64814" lon="3.34983">
        <ele>140</ele>
        <time>2021-06-05T08:53:42Z</time>
      </trkpt>
      <trkpt lat="43.64812" lon="3.34981">
        <ele>140</ele>
        <time>2021-06-05T08:53:43Z</time>
      </trkpt>
      <trkpt lat="43.64811" lon="3.34978">
        <ele>140</ele>
        <time>2021-06-05T08:53:44Z</time>
      </trkpt>
      <trkpt lat="43.64809" lon="3.34976">
        <ele>140</ele>
        <time>2021-06-05T08:53:46Z</time>
      </trkpt>
      <trkpt lat="43.64807" lon="3.34974">
        <ele>140</ele>
        <time>2021-06-05T08:53:47Z</time>
      </trkpt>
      <trkpt lat="43.64806" lon="3.34972">
        <ele>140</ele>
        <time>2021-06-05T08:53:48Z</time>
      </trkpt>
      <trkpt lat="43.64804" lon="3.3497">
        <ele>140</ele>
        <time>2021-06-05T08:53:48Z</time>
      </trkpt>
      <trkpt lat="43.64802" lon="3.34968">
        <ele>140</ele>
        <time>2021-06-05T08:53:50Z</time>
      </trkpt>
      <trkpt lat="43.648" lon="3.34966">
        <ele>140</ele>
        <time>2021-06-05T08:53:51Z</time>
      </trkpt>
      <trkpt lat="43.64799" lon="3.34964">
        <ele>140</ele>
        <time>2021-06-05T08:53:51Z</time>
      </trkpt>
      <trkpt lat="43.64798" lon="3.34961">
        <ele>141</ele>
        <time>2021-06-05T08:53:52Z</time>
      </trkpt>
      <trkpt lat="43.64796" lon="3.34959">
        <ele>141</ele>
        <time>2021-06-05T08:53:53Z</time>
      </trkpt>
      <trkpt lat="43.64795" lon="3.34957">
        <ele>141</ele>
        <time>2021-06-05T08:53:54Z</time>
      </trkpt>
      <trkpt lat="43.64793" lon="3.34955">
        <ele>141</ele>
        <time>2021-06-05T08:53:56Z</time>
      </trkpt>
      <trkpt lat="43.64791" lon="3.34952">
        <ele>141</ele>
        <time>2021-06-05T08:53:57Z</time>
      </trkpt>
      <trkpt lat="43.6479" lon="3.3495">
        <ele>141</ele>
        <time>2021-06-05T08:53:57Z</time>
      </trkpt>
      <trkpt lat="43.64788" lon="3.34947">
        <ele>141</ele>
        <time>2021-06-05T08:53:58Z</time>
      </trkpt>
      <trkpt lat="43.64786" lon="3.34945">
        <ele>141</ele>
        <time>2021-06-05T08:53:59Z</time>
      </trkpt>
      <trkpt lat="43.64784" lon="3.34942">
        <ele>141</ele>
        <time>2021-06-05T08:54:00Z</time>
      </trkpt>
      <trkpt lat="43.64781" lon="3.3494">
        <ele>141</ele>
        <time>2021-06-05T08:54:01Z</time>
      </trkpt>
      <trkpt lat="43.64779" lon="3.34939">
        <ele>141</ele>
        <time>2021-06-05T08:54:03Z</time>
      </trkpt>
      <trkpt lat="43.64776" lon="3.34938">
        <ele>141</ele>
        <time>2021-06-05T08:54:04Z</time>
      </trkpt>
      <trkpt lat="43.64774" lon="3.34938">
        <ele>141</ele>
        <time>2021-06-05T08:54:04Z</time>
      </trkpt>
      <trkpt lat="43.64771" lon="3.34937">
        <ele>141</ele>
        <time>2021-06-05T08:54:05Z</time>
      </trkpt>
      <trkpt lat="43.64769" lon="3.34937">
        <ele>141</ele>
        <time>2021-06-05T08:54:07Z</time>
      </trkpt>
      <trkpt lat="43.64766" lon="3.34936">
        <ele>141</ele>
        <time>2021-06-05T08:54:08Z</time>
      </trkpt>
      <trkpt lat="43.64764" lon="3.34933">
        <ele>141</ele>
        <time>2021-06-05T08:54:10Z</time>
      </trkpt>
      <trkpt lat="43.64762" lon="3.34929">
        <ele>142</ele>
        <time>2021-06-05T08:54:13Z</time>
      </trkpt>
      <trkpt lat="43.64761" lon="3.34926">
        <ele>142</ele>
        <time>2021-06-05T08:54:13Z</time>
      </trkpt>
      <trkpt lat="43.6476" lon="3.34924">
        <ele>142</ele>
        <time>2021-06-05T08:54:15Z</time>
      </trkpt>
      <trkpt lat="43.6476" lon="3.34921">
        <ele>142</ele>
        <time>2021-06-05T08:54:16Z</time>
      </trkpt>
      <trkpt lat="43.6476" lon="3.34917">
        <ele>142</ele>
        <time>2021-06-05T08:54:17Z</time>
      </trkpt>
      <trkpt lat="43.6476" lon="3.34914">
        <ele>142</ele>
        <time>2021-06-05T08:54:18Z</time>
      </trkpt>
      <trkpt lat="43.64759" lon="3.34911">
        <ele>142</ele>
        <time>2021-06-05T08:54:19Z</time>
      </trkpt>
      <trkpt lat="43.64759" lon="3.34908">
        <ele>142</ele>
        <time>2021-06-05T08:54:20Z</time>
      </trkpt>
      <trkpt lat="43.64758" lon="3.34905">
        <ele>142</ele>
        <time>2021-06-05T08:54:21Z</time>
      </trkpt>
      <trkpt lat="43.64757" lon="3.34902">
        <ele>142</ele>
        <time>2021-06-05T08:54:22Z</time>
      </trkpt>
      <trkpt lat="43.64755" lon="3.34899">
        <ele>143</ele>
        <time>2021-06-05T08:54:23Z</time>
      </trkpt>
      <trkpt lat="43.64755" lon="3.34896">
        <ele>143</ele>
        <time>2021-06-05T08:54:23Z</time>
      </trkpt>
      <trkpt lat="43.64754" lon="3.34893">
        <ele>143</ele>
        <time>2021-06-05T08:54:25Z</time>
      </trkpt>
      <trkpt lat="43.64753" lon="3.3489">
        <ele>143</ele>
        <time>2021-06-05T08:54:26Z</time>
      </trkpt>
      <trkpt lat="43.64752" lon="3.34887">
        <ele>143</ele>
        <time>2021-06-05T08:54:26Z</time>
      </trkpt>
      <trkpt lat="43.64751" lon="3.34885">
        <ele>143</ele>
        <time>2021-06-05T08:54:28Z</time>
      </trkpt>
      <trkpt lat="43.6475" lon="3.34881">
        <ele>143</ele>
        <time>2021-06-05T08:54:29Z</time>
      </trkpt>
      <trkpt lat="43.6475" lon="3.34878">
        <ele>143</ele>
        <time>2021-06-05T08:54:30Z</time>
      </trkpt>
      <trkpt lat="43.64748" lon="3.34875">
        <ele>143</ele>
        <time>2021-06-05T08:54:31Z</time>
      </trkpt>
      <trkpt lat="43.64748" lon="3.34872">
        <ele>143</ele>
        <time>2021-06-05T08:54:31Z</time>
      </trkpt>
      <trkpt lat="43.64747" lon="3.34869">
        <ele>144</ele>
        <time>2021-06-05T08:54:32Z</time>
      </trkpt>
      <trkpt lat="43.64747" lon="3.34866">
        <ele>144</ele>
        <time>2021-06-05T08:54:34Z</time>
      </trkpt>
      <trkpt lat="43.64747" lon="3.34862">
        <ele>144</ele>
        <time>2021-06-05T08:54:35Z</time>
      </trkpt>
      <trkpt lat="43.64748" lon="3.3486">
        <ele>144</ele>
        <time>2021-06-05T08:54:35Z</time>
      </trkpt>
      <trkpt lat="43.64748" lon="3.34855">
        <ele>144</ele>
        <time>2021-06-05T08:54:38Z</time>
      </trkpt>
      <trkpt lat="43.6475" lon="3.34852">
        <ele>144</ele>
        <time>2021-06-05T08:54:39Z</time>
      </trkpt>
      <trkpt lat="43.64753" lon="3.34851">
        <ele>144</ele>
        <time>2021-06-05T08:54:41Z</time>
      </trkpt>
      <trkpt lat="43.64755" lon="3.3485">
        <ele>144</ele>
        <time>2021-06-05T08:54:43Z</time>
      </trkpt>
      <trkpt lat="43.64758" lon="3.3485">
        <ele>144</ele>
        <time>2021-06-05T08:54:43Z</time>
      </trkpt>
      <trkpt lat="43.6476" lon="3.34849">
        <ele>144</ele>
        <time>2021-06-05T08:54:44Z</time>
      </trkpt>
      <trkpt lat="43.64762" lon="3.34848">
        <ele>144</ele>
        <time>2021-06-05T08:54:45Z</time>
      </trkpt>
      <trkpt lat="43.64765" lon="3.34848">
        <ele>144</ele>
        <time>2021-06-05T08:54:46Z</time>
      </trkpt>
      <trkpt lat="43.64767" lon="3.34847">
        <ele>144</ele>
        <time>2021-06-05T08:54:47Z</time>
      </trkpt>
      <trkpt lat="43.64768" lon="3.34846">
        <ele>144</ele>
        <time>2021-06-05T08:54:48Z</time>
      </trkpt>
      <trkpt lat="43.6477" lon="3.34845">
        <ele>144</ele>
        <time>2021-06-05T08:54:49Z</time>
      </trkpt>
      <trkpt lat="43.64772" lon="3.34843">
        <ele>144</ele>
        <time>2021-06-05T08:54:50Z</time>
      </trkpt>
      <trkpt lat="43.64774" lon="3.34842">
        <ele>144</ele>
        <time>2021-06-05T08:54:51Z</time>
      </trkpt>
      <trkpt lat="43.64774" lon="3.34838">
        <ele>143</ele>
        <time>2021-06-05T08:54:54Z</time>
      </trkpt>
      <trkpt lat="43.64774" lon="3.34835">
        <ele>143</ele>
        <time>2021-06-05T08:54:55Z</time>
      </trkpt>
      <trkpt lat="43.64774" lon="3.34833">
        <ele>143</ele>
        <time>2021-06-05T08:54:55Z</time>
      </trkpt>
      <trkpt lat="43.64775" lon="3.3483">
        <ele>143</ele>
        <time>2021-06-05T08:54:57Z</time>
      </trkpt>
      <trkpt lat="43.64776" lon="3.34827">
        <ele>143</ele>
        <time>2021-06-05T08:54:57Z</time>
      </trkpt>
      <trkpt lat="43.64777" lon="3.34825">
        <ele>143</ele>
        <time>2021-06-05T08:54:58Z</time>
      </trkpt>
      <trkpt lat="43.64778" lon="3.34823">
        <ele>143</ele>
        <time>2021-06-05T08:55:00Z</time>
      </trkpt>
      <trkpt lat="43.64779" lon="3.34821">
        <ele>143</ele>
        <time>2021-06-05T08:55:01Z</time>
      </trkpt>
      <trkpt lat="43.6478" lon="3.34816">
        <ele>143</ele>
        <time>2021-06-05T08:55:02Z</time>
      </trkpt>
      <trkpt lat="43.64781" lon="3.34814">
        <ele>143</ele>
        <time>2021-06-05T08:55:03Z</time>
      </trkpt>
      <trkpt lat="43.64782" lon="3.34811">
        <ele>143</ele>
        <time>2021-06-05T08:55:04Z</time>
      </trkpt>
      <trkpt lat="43.64783" lon="3.34809">
        <ele>143</ele>
        <time>2021-06-05T08:55:05Z</time>
      </trkpt>
      <trkpt lat="43.64784" lon="3.34807">
        <ele>143</ele>
        <time>2021-06-05T08:55:06Z</time>
      </trkpt>
      <trkpt lat="43.64784" lon="3.34804">
        <ele>143</ele>
        <time>2021-06-05T08:55:07Z</time>
      </trkpt>
      <trkpt lat="43.64786" lon="3.34802">
        <ele>143</ele>
        <time>2021-06-05T08:55:08Z</time>
      </trkpt>
      <trkpt lat="43.64787" lon="3.348">
        <ele>143</ele>
        <time>2021-06-05T08:55:09Z</time>
      </trkpt>
      <trkpt lat="43.64789" lon="3.34798">
        <ele>143</ele>
        <time>2021-06-05T08:55:10Z</time>
      </trkpt>
      <trkpt lat="43.6479" lon="3.34796">
        <ele>143</ele>
        <time>2021-06-05T08:55:12Z</time>
      </trkpt>
      <trkpt lat="43.64791" lon="3.34791">
        <ele>144</ele>
        <time>2021-06-05T08:55:14Z</time>
      </trkpt>
      <trkpt lat="43.6479" lon="3.34788">
        <ele>144</ele>
        <time>2021-06-05T08:55:16Z</time>
      </trkpt>
      <trkpt lat="43.64788" lon="3.34786">
        <ele>144</ele>
        <time>2021-06-05T08:55:16Z</time>
      </trkpt>
      <trkpt lat="43.64787" lon="3.34784">
        <ele>144</ele>
        <time>2021-06-05T08:55:18Z</time>
      </trkpt>
      <trkpt lat="43.64787" lon="3.34781">
        <ele>144</ele>
        <time>2021-06-05T08:55:18Z</time>
      </trkpt>
      <trkpt lat="43.64787" lon="3.34778">
        <ele>144</ele>
        <time>2021-06-05T08:55:20Z</time>
      </trkpt>
      <trkpt lat="43.64786" lon="3.34775">
        <ele>144</ele>
        <time>2021-06-05T08:55:20Z</time>
      </trkpt>
      <trkpt lat="43.64786" lon="3.34772">
        <ele>144</ele>
        <time>2021-06-05T08:55:22Z</time>
      </trkpt>
      <trkpt lat="43.64785" lon="3.34769">
        <ele>144</ele>
        <time>2021-06-05T08:55:22Z</time>
      </trkpt>
      <trkpt lat="43.64785" lon="3.34766">
        <ele>144</ele>
        <time>2021-06-05T08:55:23Z</time>
      </trkpt>
      <trkpt lat="43.64784" lon="3.34763">
        <ele>144</ele>
        <time>2021-06-05T08:55:24Z</time>
      </trkpt>
      <trkpt lat="43.64784" lon="3.34761">
        <ele>144</ele>
        <time>2021-06-05T08:55:25Z</time>
      </trkpt>
      <trkpt lat="43.64783" lon="3.34758">
        <ele>144</ele>
        <time>2021-06-05T08:55:27Z</time>
      </trkpt>
      <trkpt lat="43.64783" lon="3.34756">
        <ele>144</ele>
        <time>2021-06-05T08:55:28Z</time>
      </trkpt>
      <trkpt lat="43.64782" lon="3.34753">
        <ele>144</ele>
        <time>2021-06-05T08:55:29Z</time>
      </trkpt>
      <trkpt lat="43.64781" lon="3.34751">
        <ele>144</ele>
        <time>2021-06-05T08:55:30Z</time>
      </trkpt>
      <trkpt lat="43.64779" lon="3.34748">
        <ele>144</ele>
        <time>2021-06-05T08:55:36Z</time>
      </trkpt>
      <trkpt lat="43.64779" lon="3.34747">
        <ele>144</ele>
        <time>2021-06-05T08:55:38Z</time>
      </trkpt>
      <trkpt lat="43.64776" lon="3.3474">
        <ele>144</ele>
        <time>2021-06-05T08:55:45Z</time>
      </trkpt>
      <trkpt lat="43.64775" lon="3.34737">
        <ele>144</ele>
        <time>2021-06-05T08:55:51Z</time>
      </trkpt>
      <trkpt lat="43.64775" lon="3.34734">
        <ele>144</ele>
        <time>2021-06-05T08:55:54Z</time>
      </trkpt>
      <trkpt lat="43.64776" lon="3.34731">
        <ele>146</ele>
        <time>2021-06-05T08:55:57Z</time>
      </trkpt>
      <trkpt lat="43.64776" lon="3.34728">
        <ele>146</ele>
        <time>2021-06-05T08:55:59Z</time>
      </trkpt>
      <trkpt lat="43.64776" lon="3.34726">
        <ele>146</ele>
        <time>2021-06-05T08:56:02Z</time>
      </trkpt>
      <trkpt lat="43.64777" lon="3.34723">
        <ele>146</ele>
        <time>2021-06-05T08:56:05Z</time>
      </trkpt>
      <trkpt lat="43.64779" lon="3.34722">
        <ele>146</ele>
        <time>2021-06-05T08:56:08Z</time>
      </trkpt>
      <trkpt lat="43.64782" lon="3.3472">
        <ele>146</ele>
        <time>2021-06-05T08:56:11Z</time>
      </trkpt>
      <trkpt lat="43.64782" lon="3.3472">
        <ele>147</ele>
        <time>2021-06-05T08:56:17Z</time>
      </trkpt>
      <trkpt lat="43.6479" lon="3.34723">
        <ele>148</ele>
        <time>2021-06-05T08:56:26Z</time>
      </trkpt>
      <trkpt lat="43.64792" lon="3.34723">
        <ele>148</ele>
        <time>2021-06-05T08:56:27Z</time>
      </trkpt>
      <trkpt lat="43.64795" lon="3.34724">
        <ele>148</ele>
        <time>2021-06-05T08:56:28Z</time>
      </trkpt>
      <trkpt lat="43.64798" lon="3.34723">
        <ele>148</ele>
        <time>2021-06-05T08:56:31Z</time>
      </trkpt>
      <trkpt lat="43.648" lon="3.34722">
        <ele>148</ele>
        <time>2021-06-05T08:56:32Z</time>
      </trkpt>
      <trkpt lat="43.64803" lon="3.34721">
        <ele>148</ele>
        <time>2021-06-05T08:56:35Z</time>
      </trkpt>
      <trkpt lat="43.64806" lon="3.34719">
        <ele>150</ele>
        <time>2021-06-05T08:56:36Z</time>
      </trkpt>
      <trkpt lat="43.64808" lon="3.34718">
        <ele>150</ele>
        <time>2021-06-05T08:56:38Z</time>
      </trkpt>
      <trkpt lat="43.6481" lon="3.34717">
        <ele>150</ele>
        <time>2021-06-05T08:56:39Z</time>
      </trkpt>
      <trkpt lat="43.64811" lon="3.34715">
        <ele>150</ele>
        <time>2021-06-05T08:56:39Z</time>
      </trkpt>
      <trkpt lat="43.64813" lon="3.34713">
        <ele>150</ele>
        <time>2021-06-05T08:56:41Z</time>
      </trkpt>
      <trkpt lat="43.64814" lon="3.34713">
        <ele>150</ele>
        <time>2021-06-05T08:56:42Z</time>
      </trkpt>
      <trkpt lat="43.64817" lon="3.34713">
        <ele>150</ele>
        <time>2021-06-05T08:56:43Z</time>
      </trkpt>
      <trkpt lat="43.64819" lon="3.34716">
        <ele>150</ele>
        <time>2021-06-05T08:56:45Z</time>
      </trkpt>
      <trkpt lat="43.6482" lon="3.34717">
        <ele>150</ele>
        <time>2021-06-05T08:56:45Z</time>
      </trkpt>
      <trkpt lat="43.64822" lon="3.34719">
        <ele>150</ele>
        <time>2021-06-05T08:56:46Z</time>
      </trkpt>
      <trkpt lat="43.64825" lon="3.34721">
        <ele>150</ele>
        <time>2021-06-05T08:56:48Z</time>
      </trkpt>
      <trkpt lat="43.64827" lon="3.34722">
        <ele>150</ele>
        <time>2021-06-05T08:56:50Z</time>
      </trkpt>
      <trkpt lat="43.64829" lon="3.34723">
        <ele>150</ele>
        <time>2021-06-05T08:56:52Z</time>
      </trkpt>
      <trkpt lat="43.64831" lon="3.34724">
        <ele>150</ele>
        <time>2021-06-05T08:56:54Z</time>
      </trkpt>
      <trkpt lat="43.64833" lon="3.34725">
        <ele>151</ele>
        <time>2021-06-05T08:56:57Z</time>
      </trkpt>
      <trkpt lat="43.64835" lon="3.34727">
        <ele>151</ele>
        <time>2021-06-05T08:56:59Z</time>
      </trkpt>
      <trkpt lat="43.64835" lon="3.34731">
        <ele>151</ele>
        <time>2021-06-05T08:57:01Z</time>
      </trkpt>
      <trkpt lat="43.64833" lon="3.34733">
        <ele>151</ele>
        <time>2021-06-05T08:57:03Z</time>
      </trkpt>
      <trkpt lat="43.64831" lon="3.34732">
        <ele>151</ele>
        <time>2021-06-05T08:57:05Z</time>
      </trkpt>
      <trkpt lat="43.64828" lon="3.34729">
        <ele>151</ele>
        <time>2021-06-05T08:57:07Z</time>
      </trkpt>
      <trkpt lat="43.64826" lon="3.34726">
        <ele>151</ele>
        <time>2021-06-05T08:57:09Z</time>
      </trkpt>
      <trkpt lat="43.64824" lon="3.34722">
        <ele>151</ele>
        <time>2021-06-05T08:57:11Z</time>
      </trkpt>
      <trkpt lat="43.64822" lon="3.34719">
        <ele>151</ele>
        <time>2021-06-05T08:57:12Z</time>
      </trkpt>
      <trkpt lat="43.64821" lon="3.34715">
        <ele>151</ele>
        <time>2021-06-05T08:57:13Z</time>
      </trkpt>
      <trkpt lat="43.6482" lon="3.34713">
        <ele>151</ele>
        <time>2021-06-05T08:57:14Z</time>
      </trkpt>
      <trkpt lat="43.64819" lon="3.34709">
        <ele>151</ele>
        <time>2021-06-05T08:57:16Z</time>
      </trkpt>
      <trkpt lat="43.64821" lon="3.34707">
        <ele>151</ele>
        <time>2021-06-05T08:57:21Z</time>
      </trkpt>
      <trkpt lat="43.64822" lon="3.34706">
        <ele>151</ele>
        <time>2021-06-05T08:57:26Z</time>
      </trkpt>
      <trkpt lat="43.64824" lon="3.34706">
        <ele>151</ele>
        <time>2021-06-05T08:57:30Z</time>
      </trkpt>
      <trkpt lat="43.64828" lon="3.34706">
        <ele>152</ele>
        <time>2021-06-05T08:57:33Z</time>
      </trkpt>
      <trkpt lat="43.64831" lon="3.34705">
        <ele>152</ele>
        <time>2021-06-05T08:57:35Z</time>
      </trkpt>
      <trkpt lat="43.64834" lon="3.34702">
        <ele>152</ele>
        <time>2021-06-05T08:57:37Z</time>
      </trkpt>
      <trkpt lat="43.64836" lon="3.34699">
        <ele>152</ele>
        <time>2021-06-05T08:57:38Z</time>
      </trkpt>
      <trkpt lat="43.64839" lon="3.34697">
        <ele>152</ele>
        <time>2021-06-05T08:57:40Z</time>
      </trkpt>
      <trkpt lat="43.64842" lon="3.34694">
        <ele>152</ele>
        <time>2021-06-05T08:57:42Z</time>
      </trkpt>
      <trkpt lat="43.64844" lon="3.3469">
        <ele>153</ele>
        <time>2021-06-05T08:57:44Z</time>
      </trkpt>
      <trkpt lat="43.64845" lon="3.34686">
        <ele>153</ele>
        <time>2021-06-05T08:57:47Z</time>
      </trkpt>
      <trkpt lat="43.64848" lon="3.34683">
        <ele>153</ele>
        <time>2021-06-05T08:57:48Z</time>
      </trkpt>
      <trkpt lat="43.64851" lon="3.34682">
        <ele>153</ele>
        <time>2021-06-05T08:57:51Z</time>
      </trkpt>
      <trkpt lat="43.64853" lon="3.34682">
        <ele>153</ele>
        <time>2021-06-05T08:57:52Z</time>
      </trkpt>
      <trkpt lat="43.64856" lon="3.34683">
        <ele>154</ele>
        <time>2021-06-05T08:57:54Z</time>
      </trkpt>
      <trkpt lat="43.64859" lon="3.34684">
        <ele>154</ele>
        <time>2021-06-05T08:57:55Z</time>
      </trkpt>
      <trkpt lat="43.64861" lon="3.34685">
        <ele>154</ele>
        <time>2021-06-05T08:57:57Z</time>
      </trkpt>
      <trkpt lat="43.6486" lon="3.34685">
        <ele>154</ele>
        <time>2021-06-05T08:58:06Z</time>
      </trkpt>
      <trkpt lat="43.64864" lon="3.34691">
        <ele>154</ele>
        <time>2021-06-05T08:58:32Z</time>
      </trkpt>
      <trkpt lat="43.64864" lon="3.34696">
        <ele>154</ele>
        <time>2021-06-05T08:58:33Z</time>
      </trkpt>
      <trkpt lat="43.64863" lon="3.347">
        <ele>154</ele>
        <time>2021-06-05T08:58:34Z</time>
      </trkpt>
      <trkpt lat="43.64862" lon="3.34703">
        <ele>154</ele>
        <time>2021-06-05T08:58:35Z</time>
      </trkpt>
      <trkpt lat="43.6486" lon="3.34704">
        <ele>154</ele>
        <time>2021-06-05T08:58:36Z</time>
      </trkpt>
      <trkpt lat="43.64859" lon="3.34706">
        <ele>154</ele>
        <time>2021-06-05T08:58:38Z</time>
      </trkpt>
      <trkpt lat="43.64858" lon="3.3471">
        <ele>154</ele>
        <time>2021-06-05T08:58:40Z</time>
      </trkpt>
      <trkpt lat="43.64859" lon="3.34714">
        <ele>152</ele>
        <time>2021-06-05T08:58:42Z</time>
      </trkpt>
      <trkpt lat="43.64861" lon="3.34717">
        <ele>152</ele>
        <time>2021-06-05T08:58:44Z</time>
      </trkpt>
      <trkpt lat="43.64862" lon="3.3472">
        <ele>152</ele>
        <time>2021-06-05T08:58:46Z</time>
      </trkpt>
      <trkpt lat="43.64864" lon="3.34722">
        <ele>152</ele>
        <time>2021-06-05T08:58:48Z</time>
      </trkpt>
      <trkpt lat="43.64865" lon="3.34724">
        <ele>151</ele>
        <time>2021-06-05T08:58:54Z</time>
      </trkpt>
      <trkpt lat="43.64866" lon="3.34723">
        <ele>151</ele>
        <time>2021-06-05T08:59:02Z</time>
      </trkpt>
      <trkpt lat="43.64871" lon="3.34721">
        <ele>151</ele>
        <time>2021-06-05T08:59:08Z</time>
      </trkpt>
      <trkpt lat="43.64873" lon="3.34722">
        <ele>151</ele>
        <time>2021-06-05T08:59:12Z</time>
      </trkpt>
      <trkpt lat="43.64875" lon="3.34722">
        <ele>151</ele>
        <time>2021-06-05T08:59:16Z</time>
      </trkpt>
      <trkpt lat="43.64877" lon="3.34721">
        <ele>153</ele>
        <time>2021-06-05T08:59:19Z</time>
      </trkpt>
      <trkpt lat="43.64879" lon="3.34719">
        <ele>153</ele>
        <time>2021-06-05T08:59:23Z</time>
      </trkpt>
      <trkpt lat="43.64881" lon="3.34716">
        <ele>153</ele>
        <time>2021-06-05T08:59:26Z</time>
      </trkpt>
      <trkpt lat="43.64881" lon="3.34713">
        <ele>154</ele>
        <time>2021-06-05T08:59:28Z</time>
      </trkpt>
      <trkpt lat="43.64881" lon="3.3471">
        <ele>154</ele>
        <time>2021-06-05T08:59:30Z</time>
      </trkpt>
      <trkpt lat="43.64881" lon="3.34707">
        <ele>154</ele>
        <time>2021-06-05T08:59:32Z</time>
      </trkpt>
      <trkpt lat="43.64881" lon="3.34705">
        <ele>154</ele>
        <time>2021-06-05T08:59:34Z</time>
      </trkpt>
      <trkpt lat="43.64881" lon="3.34701">
        <ele>154</ele>
        <time>2021-06-05T08:59:37Z</time>
      </trkpt>
      <trkpt lat="43.64881" lon="3.34699">
        <ele>156</ele>
        <time>2021-06-05T08:59:39Z</time>
      </trkpt>
      <trkpt lat="43.64881" lon="3.34696">
        <ele>156</ele>
        <time>2021-06-05T08:59:44Z</time>
      </trkpt>
      <trkpt lat="43.64882" lon="3.34694">
        <ele>156</ele>
        <time>2021-06-05T08:59:47Z</time>
      </trkpt>
      <trkpt lat="43.64883" lon="3.34693">
        <ele>156</ele>
        <time>2021-06-05T08:59:53Z</time>
      </trkpt>
      <trkpt lat="43.64886" lon="3.34691">
        <ele>156</ele>
        <time>2021-06-05T09:00:04Z</time>
      </trkpt>
      <trkpt lat="43.64886" lon="3.34691">
        <ele>156</ele>
        <time>2021-06-05T09:00:07Z</time>
      </trkpt>
      <trkpt lat="43.64888" lon="3.34689">
        <ele>156</ele>
        <time>2021-06-05T09:00:10Z</time>
      </trkpt>
      <trkpt lat="43.6489" lon="3.34689">
        <ele>156</ele>
        <time>2021-06-05T09:00:12Z</time>
      </trkpt>
      <trkpt lat="43.64892" lon="3.34687">
        <ele>156</ele>
        <time>2021-06-05T09:00:13Z</time>
      </trkpt>
      <trkpt lat="43.64894" lon="3.34686">
        <ele>156</ele>
        <time>2021-06-05T09:00:15Z</time>
      </trkpt>
      <trkpt lat="43.64896" lon="3.34683">
        <ele>156</ele>
        <time>2021-06-05T09:00:19Z</time>
      </trkpt>
      <trkpt lat="43.64897" lon="3.3468">
        <ele>156</ele>
        <time>2021-06-05T09:00:21Z</time>
      </trkpt>
      <trkpt lat="43.64899" lon="3.34677">
        <ele>157</ele>
        <time>2021-06-05T09:00:23Z</time>
      </trkpt>
      <trkpt lat="43.64902" lon="3.34673">
        <ele>157</ele>
        <time>2021-06-05T09:00:25Z</time>
      </trkpt>
      <trkpt lat="43.64903" lon="3.3467">
        <ele>157</ele>
        <time>2021-06-05T09:00:27Z</time>
      </trkpt>
      <trkpt lat="43.64905" lon="3.34667">
        <ele>157</ele>
        <time>2021-06-05T09:00:29Z</time>
      </trkpt>
      <trkpt lat="43.64905" lon="3.34663">
        <ele>157</ele>
        <time>2021-06-05T09:00:31Z</time>
      </trkpt>
      <trkpt lat="43.64906" lon="3.34659">
        <ele>158</ele>
        <time>2021-06-05T09:00:34Z</time>
      </trkpt>
      <trkpt lat="43.64906" lon="3.34655">
        <ele>158</ele>
        <time>2021-06-05T09:00:36Z</time>
      </trkpt>
      <trkpt lat="43.64907" lon="3.34651">
        <ele>158</ele>
        <time>2021-06-05T09:00:37Z</time>
      </trkpt>
      <trkpt lat="43.64907" lon="3.34647">
        <ele>158</ele>
        <time>2021-06-05T09:00:40Z</time>
      </trkpt>
      <trkpt lat="43.64907" lon="3.34643">
        <ele>158</ele>
        <time>2021-06-05T09:00:42Z</time>
      </trkpt>
      <trkpt lat="43.64906" lon="3.34638">
        <ele>159</ele>
        <time>2021-06-05T09:00:43Z</time>
      </trkpt>
      <trkpt lat="43.64905" lon="3.34635">
        <ele>159</ele>
        <time>2021-06-05T09:00:45Z</time>
      </trkpt>
      <trkpt lat="43.64904" lon="3.3463">
        <ele>159</ele>
        <time>2021-06-05T09:00:47Z</time>
      </trkpt>
      <trkpt lat="43.64903" lon="3.34627">
        <ele>159</ele>
        <time>2021-06-05T09:00:49Z</time>
      </trkpt>
      <trkpt lat="43.64903" lon="3.34624">
        <ele>159</ele>
        <time>2021-06-05T09:00:52Z</time>
      </trkpt>
      <trkpt lat="43.64902" lon="3.3462">
        <ele>160</ele>
        <time>2021-06-05T09:00:53Z</time>
      </trkpt>
      <trkpt lat="43.64898" lon="3.34617">
        <ele>160</ele>
        <time>2021-06-05T09:00:56Z</time>
      </trkpt>
      <trkpt lat="43.64897" lon="3.34615">
        <ele>160</ele>
        <time>2021-06-05T09:00:57Z</time>
      </trkpt>
      <trkpt lat="43.64895" lon="3.34613">
        <ele>160</ele>
        <time>2021-06-05T09:00:59Z</time>
      </trkpt>
      <trkpt lat="43.64894" lon="3.34608">
        <ele>160</ele>
        <time>2021-06-05T09:01:00Z</time>
      </trkpt>
      <trkpt lat="43.64893" lon="3.34605">
        <ele>160</ele>
        <time>2021-06-05T09:01:02Z</time>
      </trkpt>
      <trkpt lat="43.64893" lon="3.34602">
        <ele>160</ele>
        <time>2021-06-05T09:01:02Z</time>
      </trkpt>
      <trkpt lat="43.64892" lon="3.34599">
        <ele>160</ele>
        <time>2021-06-05T09:01:04Z</time>
      </trkpt>
      <trkpt lat="43.64892" lon="3.34597">
        <ele>160</ele>
        <time>2021-06-05T09:01:04Z</time>
      </trkpt>
      <trkpt lat="43.64891" lon="3.34595">
        <ele>160</ele>
        <time>2021-06-05T09:01:06Z</time>
      </trkpt>
      <trkpt lat="43.64891" lon="3.34592">
        <ele>160</ele>
        <time>2021-06-05T09:01:06Z</time>
      </trkpt>
      <trkpt lat="43.64891" lon="3.34587">
        <ele>160</ele>
        <time>2021-06-05T09:01:08Z</time>
      </trkpt>
      <trkpt lat="43.64891" lon="3.34584">
        <ele>160</ele>
        <time>2021-06-05T09:01:09Z</time>
      </trkpt>
      <trkpt lat="43.64891" lon="3.3458">
        <ele>160</ele>
        <time>2021-06-05T09:01:12Z</time>
      </trkpt>
      <trkpt lat="43.64892" lon="3.34575">
        <ele>163</ele>
        <time>2021-06-05T09:01:13Z</time>
      </trkpt>
      <trkpt lat="43.64893" lon="3.34571">
        <ele>163</ele>
        <time>2021-06-05T09:01:15Z</time>
      </trkpt>
      <trkpt lat="43.64895" lon="3.34567">
        <ele>163</ele>
        <time>2021-06-05T09:01:17Z</time>
      </trkpt>
      <trkpt lat="43.64896" lon="3.34563">
        <ele>163</ele>
        <time>2021-06-05T09:01:19Z</time>
      </trkpt>
      <trkpt lat="43.64897" lon="3.34558">
        <ele>163</ele>
        <time>2021-06-05T09:01:21Z</time>
      </trkpt>
      <trkpt lat="43.64897" lon="3.34555">
        <ele>165</ele>
        <time>2021-06-05T09:01:24Z</time>
      </trkpt>
      <trkpt lat="43.64898" lon="3.34551">
        <ele>165</ele>
        <time>2021-06-05T09:01:26Z</time>
      </trkpt>
      <trkpt lat="43.649" lon="3.34548">
        <ele>165</ele>
        <time>2021-06-05T09:01:28Z</time>
      </trkpt>
      <trkpt lat="43.64901" lon="3.34545">
        <ele>165</ele>
        <time>2021-06-05T09:01:30Z</time>
      </trkpt>
      <trkpt lat="43.64903" lon="3.34542">
        <ele>165</ele>
        <time>2021-06-05T09:01:31Z</time>
      </trkpt>
      <trkpt lat="43.64905" lon="3.34539">
        <ele>166</ele>
        <time>2021-06-05T09:01:34Z</time>
      </trkpt>
      <trkpt lat="43.64907" lon="3.34536">
        <ele>166</ele>
        <time>2021-06-05T09:01:36Z</time>
      </trkpt>
      <trkpt lat="43.64909" lon="3.34534">
        <ele>166</ele>
        <time>2021-06-05T09:01:37Z</time>
      </trkpt>
      <trkpt lat="43.64911" lon="3.3453">
        <ele>166</ele>
        <time>2021-06-05T09:01:40Z</time>
      </trkpt>
      <trkpt lat="43.64912" lon="3.34528">
        <ele>166</ele>
        <time>2021-06-05T09:01:41Z</time>
      </trkpt>
      <trkpt lat="43.64914" lon="3.34526">
        <ele>167</ele>
        <time>2021-06-05T09:01:43Z</time>
      </trkpt>
      <trkpt lat="43.64917" lon="3.34524">
        <ele>167</ele>
        <time>2021-06-05T09:01:45Z</time>
      </trkpt>
      <trkpt lat="43.64919" lon="3.34522">
        <ele>167</ele>
        <time>2021-06-05T09:01:47Z</time>
      </trkpt>
      <trkpt lat="43.64921" lon="3.34521">
        <ele>167</ele>
        <time>2021-06-05T09:01:49Z</time>
      </trkpt>
      <trkpt lat="43.64923" lon="3.34519">
        <ele>167</ele>
        <time>2021-06-05T09:01:51Z</time>
      </trkpt>
      <trkpt lat="43.64926" lon="3.34516">
        <ele>169</ele>
        <time>2021-06-05T09:01:53Z</time>
      </trkpt>
      <trkpt lat="43.64928" lon="3.34515">
        <ele>169</ele>
        <time>2021-06-05T09:01:55Z</time>
      </trkpt>
      <trkpt lat="43.64931" lon="3.34513">
        <ele>169</ele>
        <time>2021-06-05T09:01:58Z</time>
      </trkpt>
      <trkpt lat="43.64933" lon="3.34511">
        <ele>169</ele>
        <time>2021-06-05T09:01:59Z</time>
      </trkpt>
      <trkpt lat="43.64935" lon="3.3451">
        <ele>169</ele>
        <time>2021-06-05T09:02:02Z</time>
      </trkpt>
      <trkpt lat="43.64937" lon="3.34508">
        <ele>170</ele>
        <time>2021-06-05T09:02:03Z</time>
      </trkpt>
      <trkpt lat="43.6494" lon="3.34507">
        <ele>170</ele>
        <time>2021-06-05T09:02:05Z</time>
      </trkpt>
      <trkpt lat="43.64942" lon="3.34507">
        <ele>170</ele>
        <time>2021-06-05T09:02:07Z</time>
      </trkpt>
      <trkpt lat="43.64944" lon="3.34507">
        <ele>170</ele>
        <time>2021-06-05T09:02:09Z</time>
      </trkpt>
      <trkpt lat="43.64946" lon="3.34507">
        <ele>170</ele>
        <time>2021-06-05T09:02:11Z</time>
      </trkpt>
      <trkpt lat="43.64949" lon="3.34508">
        <ele>171</ele>
        <time>2021-06-05T09:02:13Z</time>
      </trkpt>
      <trkpt lat="43.64951" lon="3.34508">
        <ele>171</ele>
        <time>2021-06-05T09:02:15Z</time>
      </trkpt>
      <trkpt lat="43.64952" lon="3.34506">
        <ele>171</ele>
        <time>2021-06-05T09:02:17Z</time>
      </trkpt>
      <trkpt lat="43.64954" lon="3.34503">
        <ele>171</ele>
        <time>2021-06-05T09:02:19Z</time>
      </trkpt>
      <trkpt lat="43.64955" lon="3.345">
        <ele>171</ele>
        <time>2021-06-05T09:02:21Z</time>
      </trkpt>
      <trkpt lat="43.64957" lon="3.34498">
        <ele>172</ele>
        <time>2021-06-05T09:02:24Z</time>
      </trkpt>
      <trkpt lat="43.64959" lon="3.34498">
        <ele>172</ele>
        <time>2021-06-05T09:02:26Z</time>
      </trkpt>
      <trkpt lat="43.64962" lon="3.34497">
        <ele>172</ele>
        <time>2021-06-05T09:02:27Z</time>
      </trkpt>
      <trkpt lat="43.64964" lon="3.34495">
        <ele>172</ele>
        <time>2021-06-05T09:02:29Z</time>
      </trkpt>
      <trkpt lat="43.64967" lon="3.34493">
        <ele>172</ele>
        <time>2021-06-05T09:02:31Z</time>
      </trkpt>
      <trkpt lat="43.64969" lon="3.34492">
        <ele>173</ele>
        <time>2021-06-05T09:02:34Z</time>
      </trkpt>
      <trkpt lat="43.64971" lon="3.3449">
        <ele>173</ele>
        <time>2021-06-05T09:02:36Z</time>
      </trkpt>
      <trkpt lat="43.64973" lon="3.34489">
        <ele>173</ele>
        <time>2021-06-05T09:02:38Z</time>
      </trkpt>
      <trkpt lat="43.64975" lon="3.34488">
        <ele>173</ele>
        <time>2021-06-05T09:02:40Z</time>
      </trkpt>
      <trkpt lat="43.64977" lon="3.34486">
        <ele>173</ele>
        <time>2021-06-05T09:02:42Z</time>
      </trkpt>
      <trkpt lat="43.6498" lon="3.34484">
        <ele>175</ele>
        <time>2021-06-05T09:02:44Z</time>
      </trkpt>
      <trkpt lat="43.64982" lon="3.34484">
        <ele>175</ele>
        <time>2021-06-05T09:02:46Z</time>
      </trkpt>
      <trkpt lat="43.64985" lon="3.34483">
        <ele>175</ele>
        <time>2021-06-05T09:02:47Z</time>
      </trkpt>
      <trkpt lat="43.64987" lon="3.34482">
        <ele>175</ele>
        <time>2021-06-05T09:02:50Z</time>
      </trkpt>
      <trkpt lat="43.64988" lon="3.3448">
        <ele>175</ele>
        <time>2021-06-05T09:02:52Z</time>
      </trkpt>
      <trkpt lat="43.6499" lon="3.34479">
        <ele>176</ele>
        <time>2021-06-05T09:02:54Z</time>
      </trkpt>
      <trkpt lat="43.64992" lon="3.34477">
        <ele>176</ele>
        <time>2021-06-05T09:02:56Z</time>
      </trkpt>
      <trkpt lat="43.64994" lon="3.34475">
        <ele>176</ele>
        <time>2021-06-05T09:02:58Z</time>
      </trkpt>
      <trkpt lat="43.64996" lon="3.34473">
        <ele>176</ele>
        <time>2021-06-05T09:03:00Z</time>
      </trkpt>
      <trkpt lat="43.64998" lon="3.34471">
        <ele>176</ele>
        <time>2021-06-05T09:03:01Z</time>
      </trkpt>
      <trkpt lat="43.65022" lon="3.34472">
        <ele>180</ele>
        <time>2021-06-05T09:03:02Z</time>
      </trkpt>
      <trkpt lat="43.65001" lon="3.34469">
        <ele>177</ele>
        <time>2021-06-05T09:03:04Z</time>
      </trkpt>
      <trkpt lat="43.65025" lon="3.34472">
        <ele>180</ele>
        <time>2021-06-05T09:03:04Z</time>
      </trkpt>
      <trkpt lat="43.65027" lon="3.34472">
        <ele>180</ele>
        <time>2021-06-05T09:03:05Z</time>
      </trkpt>
      <trkpt lat="43.65003" lon="3.34468">
        <ele>177</ele>
        <time>2021-06-05T09:03:06Z</time>
      </trkpt>
      <trkpt lat="43.65028" lon="3.34472">
        <ele>180</ele>
        <time>2021-06-05T09:03:06Z</time>
      </trkpt>
      <trkpt lat="43.65005" lon="3.34467">
        <ele>177</ele>
        <time>2021-06-05T09:03:07Z</time>
      </trkpt>
      <trkpt lat="43.65032" lon="3.34474">
        <ele>180</ele>
        <time>2021-06-05T09:03:08Z</time>
      </trkpt>
      <trkpt lat="43.65007" lon="3.34468">
        <ele>177</ele>
        <time>2021-06-05T09:03:10Z</time>
      </trkpt>
      <trkpt lat="43.65035" lon="3.34476">
        <ele>180</ele>
        <time>2021-06-05T09:03:10Z</time>
      </trkpt>
      <trkpt lat="43.65037" lon="3.34477">
        <ele>180</ele>
        <time>2021-06-05T09:03:11Z</time>
      </trkpt>
      <trkpt lat="43.65039" lon="3.34478">
        <ele>181</ele>
        <time>2021-06-05T09:03:12Z</time>
      </trkpt>
      <trkpt lat="43.6501" lon="3.34471">
        <ele>177</ele>
        <time>2021-06-05T09:03:13Z</time>
      </trkpt>
      <trkpt lat="43.6504" lon="3.34478">
        <ele>181</ele>
        <time>2021-06-05T09:03:13Z</time>
      </trkpt>
      <trkpt lat="43.65042" lon="3.34478">
        <ele>181</ele>
        <time>2021-06-05T09:03:14Z</time>
      </trkpt>
      <trkpt lat="43.65011" lon="3.34472">
        <ele>179</ele>
        <time>2021-06-05T09:03:15Z</time>
      </trkpt>
      <trkpt lat="43.65044" lon="3.34477">
        <ele>181</ele>
        <time>2021-06-05T09:03:15Z</time>
      </trkpt>
      <trkpt lat="43.65014" lon="3.34472">
        <ele>179</ele>
        <time>2021-06-05T09:03:16Z</time>
      </trkpt>
      <trkpt lat="43.65047" lon="3.34475">
        <ele>181</ele>
        <time>2021-06-05T09:03:17Z</time>
      </trkpt>
      <trkpt lat="43.65016" lon="3.34472">
        <ele>179</ele>
        <time>2021-06-05T09:03:19Z</time>
      </trkpt>
      <trkpt lat="43.65047" lon="3.34472">
        <ele>181</ele>
        <time>2021-06-05T09:03:19Z</time>
      </trkpt>
      <trkpt lat="43.65045" lon="3.34469">
        <ele>181</ele>
        <time>2021-06-05T09:03:21Z</time>
      </trkpt>
      <trkpt lat="43.65042" lon="3.34468">
        <ele>182</ele>
        <time>2021-06-05T09:03:22Z</time>
      </trkpt>
      <trkpt lat="43.65041" lon="3.34467">
        <ele>182</ele>
        <time>2021-06-05T09:03:23Z</time>
      </trkpt>
      <trkpt lat="43.6504" lon="3.34465">
        <ele>182</ele>
        <time>2021-06-05T09:03:24Z</time>
      </trkpt>
      <trkpt lat="43.65039" lon="3.34463">
        <ele>182</ele>
        <time>2021-06-05T09:03:25Z</time>
      </trkpt>
      <trkpt lat="43.65037" lon="3.34462">
        <ele>182</ele>
        <time>2021-06-05T09:03:26Z</time>
      </trkpt>
      <trkpt lat="43.65015" lon="3.34472">
        <ele>179</ele>
        <time>2021-06-05T09:03:26Z</time>
      </trkpt>
      <trkpt lat="43.65035" lon="3.34461">
        <ele>182</ele>
        <time>2021-06-05T09:03:27Z</time>
      </trkpt>
      <trkpt lat="43.65033" lon="3.34458">
        <ele>182</ele>
        <time>2021-06-05T09:03:29Z</time>
      </trkpt>
      <trkpt lat="43.6503" lon="3.34456">
        <ele>182</ele>
        <time>2021-06-05T09:03:31Z</time>
      </trkpt>
      <trkpt lat="43.65021" lon="3.34448">
        <ele>180</ele>
        <time>2021-06-05T09:04:32Z</time>
      </trkpt>
      <trkpt lat="43.65019" lon="3.34446">
        <ele>180</ele>
        <time>2021-06-05T09:04:33Z</time>
      </trkpt>
      <trkpt lat="43.65017" lon="3.34445">
        <ele>180</ele>
        <time>2021-06-05T09:04:34Z</time>
      </trkpt>
      <trkpt lat="43.65014" lon="3.34443">
        <ele>180</ele>
        <time>2021-06-05T09:04:35Z</time>
      </trkpt>
      <trkpt lat="43.65013" lon="3.3444">
        <ele>180</ele>
        <time>2021-06-05T09:04:36Z</time>
      </trkpt>
      <trkpt lat="43.65011" lon="3.34436">
        <ele>180</ele>
        <time>2021-06-05T09:04:37Z</time>
      </trkpt>
      <trkpt lat="43.6501" lon="3.34432">
        <ele>180</ele>
        <time>2021-06-05T09:04:38Z</time>
      </trkpt>
      <trkpt lat="43.65008" lon="3.34428">
        <ele>180</ele>
        <time>2021-06-05T09:04:39Z</time>
      </trkpt>
      <trkpt lat="43.65006" lon="3.34424">
        <ele>180</ele>
        <time>2021-06-05T09:04:40Z</time>
      </trkpt>
      <trkpt lat="43.65004" lon="3.34421">
        <ele>180</ele>
        <time>2021-06-05T09:04:41Z</time>
      </trkpt>
      <trkpt lat="43.65002" lon="3.34417">
        <ele>180</ele>
        <time>2021-06-05T09:04:42Z</time>
      </trkpt>
      <trkpt lat="43.65" lon="3.34415">
        <ele>180</ele>
        <time>2021-06-05T09:04:43Z</time>
      </trkpt>
      <trkpt lat="43.65029" lon="3.34456">
        <ele>181</ele>
        <time>2021-06-05T09:04:44Z</time>
      </trkpt>
      <trkpt lat="43.64997" lon="3.34413">
        <ele>180</ele>
        <time>2021-06-05T09:04:44Z</time>
      </trkpt>
      <trkpt lat="43.64995" lon="3.34412">
        <ele>180</ele>
        <time>2021-06-05T09:04:45Z</time>
      </trkpt>
      <trkpt lat="43.64991" lon="3.3441">
        <ele>180</ele>
        <time>2021-06-05T09:04:46Z</time>
      </trkpt>
      <trkpt lat="43.64989" lon="3.34408">
        <ele>180</ele>
        <time>2021-06-05T09:04:47Z</time>
      </trkpt>
      <trkpt lat="43.64986" lon="3.34405">
        <ele>180</ele>
        <time>2021-06-05T09:04:48Z</time>
      </trkpt>
      <trkpt lat="43.64983" lon="3.34402">
        <ele>180</ele>
        <time>2021-06-05T09:04:49Z</time>
      </trkpt>
      <trkpt lat="43.64982" lon="3.34399">
        <ele>180</ele>
        <time>2021-06-05T09:04:50Z</time>
      </trkpt>
      <trkpt lat="43.64982" lon="3.34394">
        <ele>180</ele>
        <time>2021-06-05T09:04:51Z</time>
      </trkpt>
      <trkpt lat="43.64983" lon="3.3439">
        <ele>180</ele>
        <time>2021-06-05T09:04:52Z</time>
      </trkpt>
      <trkpt lat="43.64984" lon="3.34385">
        <ele>180</ele>
        <time>2021-06-05T09:04:53Z</time>
      </trkpt>
      <trkpt lat="43.64986" lon="3.3438">
        <ele>180</ele>
        <time>2021-06-05T09:04:54Z</time>
      </trkpt>
      <trkpt lat="43.64987" lon="3.34376">
        <ele>180</ele>
        <time>2021-06-05T09:04:55Z</time>
      </trkpt>
      <trkpt lat="43.64988" lon="3.34372">
        <ele>180</ele>
        <time>2021-06-05T09:04:56Z</time>
      </trkpt>
      <trkpt lat="43.64989" lon="3.34368">
        <ele>180</ele>
        <time>2021-06-05T09:04:57Z</time>
      </trkpt>
      <trkpt lat="43.6499" lon="3.34362">
        <ele>180</ele>
        <time>2021-06-05T09:04:58Z</time>
      </trkpt>
      <trkpt lat="43.64992" lon="3.34355">
        <ele>180</ele>
        <time>2021-06-05T09:04:59Z</time>
      </trkpt>
      <trkpt lat="43.64993" lon="3.34349">
        <ele>180</ele>
        <time>2021-06-05T09:05:00Z</time>
      </trkpt>
      <trkpt lat="43.64995" lon="3.34342">
        <ele>180</ele>
        <time>2021-06-05T09:05:01Z</time>
      </trkpt>
      <trkpt lat="43.64996" lon="3.34335">
        <ele>178</ele>
        <time>2021-06-05T09:05:02Z</time>
      </trkpt>
      <trkpt lat="43.64997" lon="3.3433">
        <ele>178</ele>
        <time>2021-06-05T09:05:03Z</time>
      </trkpt>
      <trkpt lat="43.64998" lon="3.34326">
        <ele>178</ele>
        <time>2021-06-05T09:05:04Z</time>
      </trkpt>
      <trkpt lat="43.64999" lon="3.34322">
        <ele>178</ele>
        <time>2021-06-05T09:05:06Z</time>
      </trkpt>
      <trkpt lat="43.64999" lon="3.34318">
        <ele>178</ele>
        <time>2021-06-05T09:05:08Z</time>
      </trkpt>
      <trkpt lat="43.64999" lon="3.34314">
        <ele>178</ele>
        <time>2021-06-05T09:05:10Z</time>
      </trkpt>
      <trkpt lat="43.64996" lon="3.3431">
        <ele>180</ele>
        <time>2021-06-05T09:05:12Z</time>
      </trkpt>
      <trkpt lat="43.64994" lon="3.34306">
        <ele>180</ele>
        <time>2021-06-05T09:05:14Z</time>
      </trkpt>
      <trkpt lat="43.64993" lon="3.34304">
        <ele>180</ele>
        <time>2021-06-05T09:05:15Z</time>
      </trkpt>
      <trkpt lat="43.64993" lon="3.34301">
        <ele>180</ele>
        <time>2021-06-05T09:05:16Z</time>
      </trkpt>
      <trkpt lat="43.64993" lon="3.34298">
        <ele>180</ele>
        <time>2021-06-05T09:05:17Z</time>
      </trkpt>
      <trkpt lat="43.64992" lon="3.34295">
        <ele>180</ele>
        <time>2021-06-05T09:05:18Z</time>
      </trkpt>
      <trkpt lat="43.64992" lon="3.34293">
        <ele>180</ele>
        <time>2021-06-05T09:05:19Z</time>
      </trkpt>
      <trkpt lat="43.64991" lon="3.34291">
        <ele>180</ele>
        <time>2021-06-05T09:05:20Z</time>
      </trkpt>
      <trkpt lat="43.6499" lon="3.34288">
        <ele>180</ele>
        <time>2021-06-05T09:05:21Z</time>
      </trkpt>
      <trkpt lat="43.64989" lon="3.34286">
        <ele>181</ele>
        <time>2021-06-05T09:05:22Z</time>
      </trkpt>
      <trkpt lat="43.64988" lon="3.34283">
        <ele>181</ele>
        <time>2021-06-05T09:05:23Z</time>
      </trkpt>
      <trkpt lat="43.64987" lon="3.34282">
        <ele>181</ele>
        <time>2021-06-05T09:05:24Z</time>
      </trkpt>
      <trkpt lat="43.64984" lon="3.34279">
        <ele>181</ele>
        <time>2021-06-05T09:05:26Z</time>
      </trkpt>
      <trkpt lat="43.64983" lon="3.34276">
        <ele>181</ele>
        <time>2021-06-05T09:05:28Z</time>
      </trkpt>
      <trkpt lat="43.64981" lon="3.34274">
        <ele>181</ele>
        <time>2021-06-05T09:05:30Z</time>
      </trkpt>
      <trkpt lat="43.64978" lon="3.34271">
        <ele>183</ele>
        <time>2021-06-05T09:05:32Z</time>
      </trkpt>
      <trkpt lat="43.64976" lon="3.34268">
        <ele>183</ele>
        <time>2021-06-05T09:05:34Z</time>
      </trkpt>
      <trkpt lat="43.64975" lon="3.34263">
        <ele>183</ele>
        <time>2021-06-05T09:05:36Z</time>
      </trkpt>
      <trkpt lat="43.64973" lon="3.3426">
        <ele>183</ele>
        <time>2021-06-05T09:05:38Z</time>
      </trkpt>
      <trkpt lat="43.64972" lon="3.34257">
        <ele>183</ele>
        <time>2021-06-05T09:05:39Z</time>
      </trkpt>
      <trkpt lat="43.64971" lon="3.34255">
        <ele>183</ele>
        <time>2021-06-05T09:05:40Z</time>
      </trkpt>
      <trkpt lat="43.64969" lon="3.34251">
        <ele>183</ele>
        <time>2021-06-05T09:05:41Z</time>
      </trkpt>
      <trkpt lat="43.64967" lon="3.34248">
        <ele>183</ele>
        <time>2021-06-05T09:05:42Z</time>
      </trkpt>
      <trkpt lat="43.64966" lon="3.34244">
        <ele>183</ele>
        <time>2021-06-05T09:05:43Z</time>
      </trkpt>
      <trkpt lat="43.64964" lon="3.3424">
        <ele>183</ele>
        <time>2021-06-05T09:05:44Z</time>
      </trkpt>
      <trkpt lat="43.64962" lon="3.34237">
        <ele>183</ele>
        <time>2021-06-05T09:05:45Z</time>
      </trkpt>
      <trkpt lat="43.64961" lon="3.34233">
        <ele>183</ele>
        <time>2021-06-05T09:05:46Z</time>
      </trkpt>
      <trkpt lat="43.6496" lon="3.3423">
        <ele>183</ele>
        <time>2021-06-05T09:05:47Z</time>
      </trkpt>
      <trkpt lat="43.64959" lon="3.34228">
        <ele>183</ele>
        <time>2021-06-05T09:05:48Z</time>
      </trkpt>
      <trkpt lat="43.64958" lon="3.34225">
        <ele>183</ele>
        <time>2021-06-05T09:05:49Z</time>
      </trkpt>
      <trkpt lat="43.64956" lon="3.34222">
        <ele>183</ele>
        <time>2021-06-05T09:05:50Z</time>
      </trkpt>
      <trkpt lat="43.64954" lon="3.34219">
        <ele>183</ele>
        <time>2021-06-05T09:05:51Z</time>
      </trkpt>
      <trkpt lat="43.64952" lon="3.34216">
        <ele>183</ele>
        <time>2021-06-05T09:05:52Z</time>
      </trkpt>
      <trkpt lat="43.6495" lon="3.34212">
        <ele>183</ele>
        <time>2021-06-05T09:05:53Z</time>
      </trkpt>
      <trkpt lat="43.64948" lon="3.34208">
        <ele>183</ele>
        <time>2021-06-05T09:05:54Z</time>
      </trkpt>
      <trkpt lat="43.64946" lon="3.34203">
        <ele>183</ele>
        <time>2021-06-05T09:05:55Z</time>
      </trkpt>
      <trkpt lat="43.64945" lon="3.34198">
        <ele>183</ele>
        <time>2021-06-05T09:05:56Z</time>
      </trkpt>
      <trkpt lat="43.64944" lon="3.34193">
        <ele>183</ele>
        <time>2021-06-05T09:05:57Z</time>
      </trkpt>
      <trkpt lat="43.64942" lon="3.34189">
        <ele>183</ele>
        <time>2021-06-05T09:05:58Z</time>
      </trkpt>
      <trkpt lat="43.64941" lon="3.34184">
        <ele>183</ele>
        <time>2021-06-05T09:05:59Z</time>
      </trkpt>
      <trkpt lat="43.64939" lon="3.34179">
        <ele>183</ele>
        <time>2021-06-05T09:06:00Z</time>
      </trkpt>
      <trkpt lat="43.64937" lon="3.34175">
        <ele>183</ele>
        <time>2021-06-05T09:06:01Z</time>
      </trkpt>
      <trkpt lat="43.64937" lon="3.3417">
        <ele>182</ele>
        <time>2021-06-05T09:06:02Z</time>
      </trkpt>
      <trkpt lat="43.64936" lon="3.34166">
        <ele>182</ele>
        <time>2021-06-05T09:06:03Z</time>
      </trkpt>
      <trkpt lat="43.64936" lon="3.34162">
        <ele>182</ele>
        <time>2021-06-05T09:06:04Z</time>
      </trkpt>
      <trkpt lat="43.64936" lon="3.34157">
        <ele>182</ele>
        <time>2021-06-05T09:06:05Z</time>
      </trkpt>
      <trkpt lat="43.64935" lon="3.34153">
        <ele>182</ele>
        <time>2021-06-05T09:06:06Z</time>
      </trkpt>
      <trkpt lat="43.64935" lon="3.34149">
        <ele>182</ele>
        <time>2021-06-05T09:06:07Z</time>
      </trkpt>
      <trkpt lat="43.64935" lon="3.34144">
        <ele>182</ele>
        <time>2021-06-05T09:06:08Z</time>
      </trkpt>
      <trkpt lat="43.64936" lon="3.3414">
        <ele>182</ele>
        <time>2021-06-05T09:06:09Z</time>
      </trkpt>
      <trkpt lat="43.64936" lon="3.34135">
        <ele>182</ele>
        <time>2021-06-05T09:06:10Z</time>
      </trkpt>
      <trkpt lat="43.64937" lon="3.34131">
        <ele>182</ele>
        <time>2021-06-05T09:06:11Z</time>
      </trkpt>
      <trkpt lat="43.64937" lon="3.34126">
        <ele>182</ele>
        <time>2021-06-05T09:06:12Z</time>
      </trkpt>
      <trkpt lat="43.64937" lon="3.34121">
        <ele>182</ele>
        <time>2021-06-05T09:06:13Z</time>
      </trkpt>
      <trkpt lat="43.64936" lon="3.34116">
        <ele>182</ele>
        <time>2021-06-05T09:06:14Z</time>
      </trkpt>
      <trkpt lat="43.64934" lon="3.34112">
        <ele>182</ele>
        <time>2021-06-05T09:06:15Z</time>
      </trkpt>
      <trkpt lat="43.64932" lon="3.34109">
        <ele>182</ele>
        <time>2021-06-05T09:06:16Z</time>
      </trkpt>
      <trkpt lat="43.64931" lon="3.34105">
        <ele>182</ele>
        <time>2021-06-05T09:06:17Z</time>
      </trkpt>
      <trkpt lat="43.6493" lon="3.34101">
        <ele>182</ele>
        <time>2021-06-05T09:06:18Z</time>
      </trkpt>
      <trkpt lat="43.64929" lon="3.34096">
        <ele>182</ele>
        <time>2021-06-05T09:06:19Z</time>
      </trkpt>
      <trkpt lat="43.64929" lon="3.34091">
        <ele>182</ele>
        <time>2021-06-05T09:06:20Z</time>
      </trkpt>
      <trkpt lat="43.64928" lon="3.34086">
        <ele>182</ele>
        <time>2021-06-05T09:06:21Z</time>
      </trkpt>
      <trkpt lat="43.64927" lon="3.34081">
        <ele>181</ele>
        <time>2021-06-05T09:06:22Z</time>
      </trkpt>
      <trkpt lat="43.64927" lon="3.34074">
        <ele>181</ele>
        <time>2021-06-05T09:06:23Z</time>
      </trkpt>
      <trkpt lat="43.64927" lon="3.34067">
        <ele>181</ele>
        <time>2021-06-05T09:06:24Z</time>
      </trkpt>
      <trkpt lat="43.64927" lon="3.3406">
        <ele>181</ele>
        <time>2021-06-05T09:06:25Z</time>
      </trkpt>
      <trkpt lat="43.64927" lon="3.34054">
        <ele>181</ele>
        <time>2021-06-05T09:06:26Z</time>
      </trkpt>
      <trkpt lat="43.64927" lon="3.34047">
        <ele>181</ele>
        <time>2021-06-05T09:06:27Z</time>
      </trkpt>
      <trkpt lat="43.64927" lon="3.3404">
        <ele>181</ele>
        <time>2021-06-05T09:06:28Z</time>
      </trkpt>
      <trkpt lat="43.64928" lon="3.34034">
        <ele>181</ele>
        <time>2021-06-05T09:06:29Z</time>
      </trkpt>
      <trkpt lat="43.64928" lon="3.34028">
        <ele>181</ele>
        <time>2021-06-05T09:06:30Z</time>
      </trkpt>
      <trkpt lat="43.6493" lon="3.34023">
        <ele>181</ele>
        <time>2021-06-05T09:06:31Z</time>
      </trkpt>
      <trkpt lat="43.64931" lon="3.34018">
        <ele>179</ele>
        <time>2021-06-05T09:06:32Z</time>
      </trkpt>
      <trkpt lat="43.64933" lon="3.34014">
        <ele>179</ele>
        <time>2021-06-05T09:06:33Z</time>
      </trkpt>
      <trkpt lat="43.64933" lon="3.34009">
        <ele>179</ele>
        <time>2021-06-05T09:06:34Z</time>
      </trkpt>
      <trkpt lat="43.64934" lon="3.34006">
        <ele>179</ele>
        <time>2021-06-05T09:06:35Z</time>
      </trkpt>
      <trkpt lat="43.64935" lon="3.34003">
        <ele>179</ele>
        <time>2021-06-05T09:06:36Z</time>
      </trkpt>
      <trkpt lat="43.64935" lon="3.33999">
        <ele>179</ele>
        <time>2021-06-05T09:06:37Z</time>
      </trkpt>
      <trkpt lat="43.64936" lon="3.33994">
        <ele>179</ele>
        <time>2021-06-05T09:06:38Z</time>
      </trkpt>
      <trkpt lat="43.64936" lon="3.33989">
        <ele>179</ele>
        <time>2021-06-05T09:06:39Z</time>
      </trkpt>
      <trkpt lat="43.64936" lon="3.33982">
        <ele>179</ele>
        <time>2021-06-05T09:06:40Z</time>
      </trkpt>
      <trkpt lat="43.64937" lon="3.33976">
        <ele>179</ele>
        <time>2021-06-05T09:06:41Z</time>
      </trkpt>
      <trkpt lat="43.64938" lon="3.33969">
        <ele>178</ele>
        <time>2021-06-05T09:06:42Z</time>
      </trkpt>
      <trkpt lat="43.64941" lon="3.33963">
        <ele>178</ele>
        <time>2021-06-05T09:06:43Z</time>
      </trkpt>
      <trkpt lat="43.64942" lon="3.33958">
        <ele>178</ele>
        <time>2021-06-05T09:06:44Z</time>
      </trkpt>
      <trkpt lat="43.64942" lon="3.33952">
        <ele>178</ele>
        <time>2021-06-05T09:06:45Z</time>
      </trkpt>
      <trkpt lat="43.64941" lon="3.33947">
        <ele>178</ele>
        <time>2021-06-05T09:06:46Z</time>
      </trkpt>
      <trkpt lat="43.64938" lon="3.33943">
        <ele>178</ele>
        <time>2021-06-05T09:06:47Z</time>
      </trkpt>
      <trkpt lat="43.64935" lon="3.33938">
        <ele>178</ele>
        <time>2021-06-05T09:06:48Z</time>
      </trkpt>
      <trkpt lat="43.64932" lon="3.33933">
        <ele>178</ele>
        <time>2021-06-05T09:06:49Z</time>
      </trkpt>
      <trkpt lat="43.64928" lon="3.33927">
        <ele>178</ele>
        <time>2021-06-05T09:06:50Z</time>
      </trkpt>
      <trkpt lat="43.64924" lon="3.3392">
        <ele>178</ele>
        <time>2021-06-05T09:06:51Z</time>
      </trkpt>
      <trkpt lat="43.64922" lon="3.33914">
        <ele>175</ele>
        <time>2021-06-05T09:06:52Z</time>
      </trkpt>
      <trkpt lat="43.64921" lon="3.33909">
        <ele>175</ele>
        <time>2021-06-05T09:06:53Z</time>
      </trkpt>
      <trkpt lat="43.64921" lon="3.33903">
        <ele>175</ele>
        <time>2021-06-05T09:06:54Z</time>
      </trkpt>
      <trkpt lat="43.6492" lon="3.33898">
        <ele>175</ele>
        <time>2021-06-05T09:06:55Z</time>
      </trkpt>
      <trkpt lat="43.64918" lon="3.33892">
        <ele>175</ele>
        <time>2021-06-05T09:06:56Z</time>
      </trkpt>
      <trkpt lat="43.64915" lon="3.33886">
        <ele>175</ele>
        <time>2021-06-05T09:06:57Z</time>
      </trkpt>
      <trkpt lat="43.64913" lon="3.3388">
        <ele>175</ele>
        <time>2021-06-05T09:06:58Z</time>
      </trkpt>
      <trkpt lat="43.6491" lon="3.33874">
        <ele>175</ele>
        <time>2021-06-05T09:06:59Z</time>
      </trkpt>
      <trkpt lat="43.6491" lon="3.33868">
        <ele>175</ele>
        <time>2021-06-05T09:07:00Z</time>
      </trkpt>
      <trkpt lat="43.64911" lon="3.33861">
        <ele>175</ele>
        <time>2021-06-05T09:07:01Z</time>
      </trkpt>
      <trkpt lat="43.64913" lon="3.33854">
        <ele>169</ele>
        <time>2021-06-05T09:07:02Z</time>
      </trkpt>
      <trkpt lat="43.64918" lon="3.33847">
        <ele>169</ele>
        <time>2021-06-05T09:07:03Z</time>
      </trkpt>
      <trkpt lat="43.64921" lon="3.33841">
        <ele>169</ele>
        <time>2021-06-05T09:07:04Z</time>
      </trkpt>
      <trkpt lat="43.64925" lon="3.33836">
        <ele>169</ele>
        <time>2021-06-05T09:07:05Z</time>
      </trkpt>
      <trkpt lat="43.64928" lon="3.33833">
        <ele>169</ele>
        <time>2021-06-05T09:07:06Z</time>
      </trkpt>
      <trkpt lat="43.64932" lon="3.33831">
        <ele>169</ele>
        <time>2021-06-05T09:07:07Z</time>
      </trkpt>
      <trkpt lat="43.64934" lon="3.33829">
        <ele>169</ele>
        <time>2021-06-05T09:07:08Z</time>
      </trkpt>
      <trkpt lat="43.64937" lon="3.33827">
        <ele>169</ele>
        <time>2021-06-05T09:07:09Z</time>
      </trkpt>
      <trkpt lat="43.6494" lon="3.33825">
        <ele>169</ele>
        <time>2021-06-05T09:07:10Z</time>
      </trkpt>
      <trkpt lat="43.64943" lon="3.33823">
        <ele>169</ele>
        <time>2021-06-05T09:07:11Z</time>
      </trkpt>
      <trkpt lat="43.64945" lon="3.3382">
        <ele>168</ele>
        <time>2021-06-05T09:07:12Z</time>
      </trkpt>
      <trkpt lat="43.64948" lon="3.33818">
        <ele>168</ele>
        <time>2021-06-05T09:07:13Z</time>
      </trkpt>
      <trkpt lat="43.6495" lon="3.33816">
        <ele>168</ele>
        <time>2021-06-05T09:07:14Z</time>
      </trkpt>
      <trkpt lat="43.64953" lon="3.33814">
        <ele>168</ele>
        <time>2021-06-05T09:07:15Z</time>
      </trkpt>
      <trkpt lat="43.64956" lon="3.33812">
        <ele>168</ele>
        <time>2021-06-05T09:07:16Z</time>
      </trkpt>
      <trkpt lat="43.64959" lon="3.3381">
        <ele>168</ele>
        <time>2021-06-05T09:07:17Z</time>
      </trkpt>
      <trkpt lat="43.64963" lon="3.33809">
        <ele>168</ele>
        <time>2021-06-05T09:07:18Z</time>
      </trkpt>
      <trkpt lat="43.64966" lon="3.33806">
        <ele>168</ele>
        <time>2021-06-05T09:07:19Z</time>
      </trkpt>
      <trkpt lat="43.64969" lon="3.33803">
        <ele>168</ele>
        <time>2021-06-05T09:07:20Z</time>
      </trkpt>
      <trkpt lat="43.6497" lon="3.338">
        <ele>168</ele>
        <time>2021-06-05T09:07:21Z</time>
      </trkpt>
      <trkpt lat="43.64972" lon="3.33798">
        <ele>167</ele>
        <time>2021-06-05T09:07:22Z</time>
      </trkpt>
      <trkpt lat="43.64973" lon="3.33796">
        <ele>167</ele>
        <time>2021-06-05T09:07:23Z</time>
      </trkpt>
      <trkpt lat="43.64974" lon="3.33794">
        <ele>167</ele>
        <time>2021-06-05T09:07:24Z</time>
      </trkpt>
      <trkpt lat="43.64976" lon="3.33791">
        <ele>167</ele>
        <time>2021-06-05T09:07:26Z</time>
      </trkpt>
      <trkpt lat="43.64977" lon="3.33789">
        <ele>167</ele>
        <time>2021-06-05T09:07:28Z</time>
      </trkpt>
      <trkpt lat="43.64977" lon="3.33785">
        <ele>167</ele>
        <time>2021-06-05T09:07:30Z</time>
      </trkpt>
      <trkpt lat="43.64978" lon="3.33782">
        <ele>167</ele>
        <time>2021-06-05T09:07:31Z</time>
      </trkpt>
      <trkpt lat="43.64979" lon="3.3378">
        <ele>166</ele>
        <time>2021-06-05T09:07:32Z</time>
      </trkpt>
      <trkpt lat="43.64979" lon="3.33777">
        <ele>166</ele>
        <time>2021-06-05T09:07:33Z</time>
      </trkpt>
      <trkpt lat="43.6498" lon="3.33774">
        <ele>166</ele>
        <time>2021-06-05T09:07:34Z</time>
      </trkpt>
      <trkpt lat="43.64982" lon="3.3377">
        <ele>166</ele>
        <time>2021-06-05T09:07:35Z</time>
      </trkpt>
      <trkpt lat="43.64984" lon="3.33767">
        <ele>166</ele>
        <time>2021-06-05T09:07:36Z</time>
      </trkpt>
      <trkpt lat="43.64986" lon="3.33765">
        <ele>166</ele>
        <time>2021-06-05T09:07:37Z</time>
      </trkpt>
      <trkpt lat="43.64988" lon="3.33762">
        <ele>166</ele>
        <time>2021-06-05T09:07:38Z</time>
      </trkpt>
      <trkpt lat="43.6499" lon="3.3376">
        <ele>166</ele>
        <time>2021-06-05T09:07:39Z</time>
      </trkpt>
      <trkpt lat="43.64992" lon="3.33757">
        <ele>166</ele>
        <time>2021-06-05T09:07:40Z</time>
      </trkpt>
      <trkpt lat="43.64995" lon="3.33755">
        <ele>166</ele>
        <time>2021-06-05T09:07:41Z</time>
      </trkpt>
      <trkpt lat="43.64997" lon="3.33752">
        <ele>166</ele>
        <time>2021-06-05T09:07:42Z</time>
      </trkpt>
      <trkpt lat="43.65" lon="3.33749">
        <ele>166</ele>
        <time>2021-06-05T09:07:43Z</time>
      </trkpt>
      <trkpt lat="43.65002" lon="3.33746">
        <ele>166</ele>
        <time>2021-06-05T09:07:44Z</time>
      </trkpt>
      <trkpt lat="43.65004" lon="3.33743">
        <ele>166</ele>
        <time>2021-06-05T09:07:45Z</time>
      </trkpt>
      <trkpt lat="43.65006" lon="3.33739">
        <ele>166</ele>
        <time>2021-06-05T09:07:46Z</time>
      </trkpt>
      <trkpt lat="43.65008" lon="3.33736">
        <ele>166</ele>
        <time>2021-06-05T09:07:47Z</time>
      </trkpt>
      <trkpt lat="43.6501" lon="3.33733">
        <ele>166</ele>
        <time>2021-06-05T09:07:48Z</time>
      </trkpt>
      <trkpt lat="43.65012" lon="3.33729">
        <ele>166</ele>
        <time>2021-06-05T09:07:49Z</time>
      </trkpt>
      <trkpt lat="43.65013" lon="3.33725">
        <ele>166</ele>
        <time>2021-06-05T09:07:50Z</time>
      </trkpt>
      <trkpt lat="43.65013" lon="3.3372">
        <ele>166</ele>
        <time>2021-06-05T09:07:51Z</time>
      </trkpt>
      <trkpt lat="43.65012" lon="3.33714">
        <ele>165</ele>
        <time>2021-06-05T09:07:52Z</time>
      </trkpt>
      <trkpt lat="43.65011" lon="3.33709">
        <ele>165</ele>
        <time>2021-06-05T09:07:53Z</time>
      </trkpt>
      <trkpt lat="43.6501" lon="3.33702">
        <ele>165</ele>
        <time>2021-06-05T09:07:54Z</time>
      </trkpt>
      <trkpt lat="43.65011" lon="3.33696">
        <ele>165</ele>
        <time>2021-06-05T09:07:55Z</time>
      </trkpt>
      <trkpt lat="43.65013" lon="3.33691">
        <ele>165</ele>
        <time>2021-06-05T09:07:56Z</time>
      </trkpt>
      <trkpt lat="43.65018" lon="3.33688">
        <ele>165</ele>
        <time>2021-06-05T09:07:57Z</time>
      </trkpt>
      <trkpt lat="43.65021" lon="3.33685">
        <ele>165</ele>
        <time>2021-06-05T09:07:58Z</time>
      </trkpt>
      <trkpt lat="43.65023" lon="3.3368">
        <ele>165</ele>
        <time>2021-06-05T09:07:59Z</time>
      </trkpt>
      <trkpt lat="43.65024" lon="3.33675">
        <ele>165</ele>
        <time>2021-06-05T09:08:00Z</time>
      </trkpt>
      <trkpt lat="43.65025" lon="3.33668">
        <ele>165</ele>
        <time>2021-06-05T09:08:01Z</time>
      </trkpt>
      <trkpt lat="43.65024" lon="3.33663">
        <ele>163</ele>
        <time>2021-06-05T09:08:02Z</time>
      </trkpt>
      <trkpt lat="43.65023" lon="3.33659">
        <ele>163</ele>
        <time>2021-06-05T09:08:03Z</time>
      </trkpt>
      <trkpt lat="43.65023" lon="3.33656">
        <ele>163</ele>
        <time>2021-06-05T09:08:04Z</time>
      </trkpt>
      <trkpt lat="43.65023" lon="3.33653">
        <ele>163</ele>
        <time>2021-06-05T09:08:05Z</time>
      </trkpt>
      <trkpt lat="43.65023" lon="3.3365">
        <ele>163</ele>
        <time>2021-06-05T09:08:06Z</time>
      </trkpt>
      <trkpt lat="43.65023" lon="3.33646">
        <ele>163</ele>
        <time>2021-06-05T09:08:07Z</time>
      </trkpt>
      <trkpt lat="43.65023" lon="3.33642">
        <ele>163</ele>
        <time>2021-06-05T09:08:08Z</time>
      </trkpt>
      <trkpt lat="43.65024" lon="3.33637">
        <ele>163</ele>
        <time>2021-06-05T09:08:09Z</time>
      </trkpt>
      <trkpt lat="43.65024" lon="3.33632">
        <ele>163</ele>
        <time>2021-06-05T09:08:10Z</time>
      </trkpt>
      <trkpt lat="43.65026" lon="3.33628">
        <ele>163</ele>
        <time>2021-06-05T09:08:11Z</time>
      </trkpt>
      <trkpt lat="43.65027" lon="3.33623">
        <ele>162</ele>
        <time>2021-06-05T09:08:12Z</time>
      </trkpt>
      <trkpt lat="43.65028" lon="3.33617">
        <ele>162</ele>
        <time>2021-06-05T09:08:13Z</time>
      </trkpt>
      <trkpt lat="43.65028" lon="3.33612">
        <ele>162</ele>
        <time>2021-06-05T09:08:14Z</time>
      </trkpt>
      <trkpt lat="43.65029" lon="3.33607">
        <ele>162</ele>
        <time>2021-06-05T09:08:15Z</time>
      </trkpt>
      <trkpt lat="43.6503" lon="3.33602">
        <ele>162</ele>
        <time>2021-06-05T09:08:16Z</time>
      </trkpt>
      <trkpt lat="43.65031" lon="3.33596">
        <ele>162</ele>
        <time>2021-06-05T09:08:17Z</time>
      </trkpt>
      <trkpt lat="43.65032" lon="3.3359">
        <ele>162</ele>
        <time>2021-06-05T09:08:18Z</time>
      </trkpt>
      <trkpt lat="43.65033" lon="3.33584">
        <ele>162</ele>
        <time>2021-06-05T09:08:19Z</time>
      </trkpt>
      <trkpt lat="43.65034" lon="3.33578">
        <ele>162</ele>
        <time>2021-06-05T09:08:20Z</time>
      </trkpt>
      <trkpt lat="43.65035" lon="3.33571">
        <ele>162</ele>
        <time>2021-06-05T09:08:21Z</time>
      </trkpt>
      <trkpt lat="43.65037" lon="3.33564">
        <ele>159</ele>
        <time>2021-06-05T09:08:22Z</time>
      </trkpt>
      <trkpt lat="43.65041" lon="3.33551">
        <ele>159</ele>
        <time>2021-06-05T09:08:24Z</time>
      </trkpt>
      <trkpt lat="43.65044" lon="3.33545">
        <ele>159</ele>
        <time>2021-06-05T09:08:25Z</time>
      </trkpt>
      <trkpt lat="43.65046" lon="3.33538">
        <ele>159</ele>
        <time>2021-06-05T09:08:26Z</time>
      </trkpt>
      <trkpt lat="43.6505" lon="3.33532">
        <ele>159</ele>
        <time>2021-06-05T09:08:27Z</time>
      </trkpt>
      <trkpt lat="43.65052" lon="3.33526">
        <ele>159</ele>
        <time>2021-06-05T09:08:28Z</time>
      </trkpt>
      <trkpt lat="43.65054" lon="3.3352">
        <ele>159</ele>
        <time>2021-06-05T09:08:29Z</time>
      </trkpt>
      <trkpt lat="43.65055" lon="3.33514">
        <ele>159</ele>
        <time>2021-06-05T09:08:30Z</time>
      </trkpt>
      <trkpt lat="43.65054" lon="3.33507">
        <ele>159</ele>
        <time>2021-06-05T09:08:31Z</time>
      </trkpt>
      <trkpt lat="43.65053" lon="3.33502">
        <ele>155</ele>
        <time>2021-06-05T09:08:32Z</time>
      </trkpt>
      <trkpt lat="43.65052" lon="3.33496">
        <ele>155</ele>
        <time>2021-06-05T09:08:33Z</time>
      </trkpt>
      <trkpt lat="43.65051" lon="3.3349">
        <ele>155</ele>
        <time>2021-06-05T09:08:34Z</time>
      </trkpt>
      <trkpt lat="43.6505" lon="3.33485">
        <ele>155</ele>
        <time>2021-06-05T09:08:35Z</time>
      </trkpt>
      <trkpt lat="43.6505" lon="3.33479">
        <ele>155</ele>
        <time>2021-06-05T09:08:36Z</time>
      </trkpt>
      <trkpt lat="43.6505" lon="3.33474">
        <ele>155</ele>
        <time>2021-06-05T09:08:37Z</time>
      </trkpt>
      <trkpt lat="43.6505" lon="3.3347">
        <ele>155</ele>
        <time>2021-06-05T09:08:38Z</time>
      </trkpt>
      <trkpt lat="43.65051" lon="3.33466">
        <ele>155</ele>
        <time>2021-06-05T09:08:39Z</time>
      </trkpt>
      <trkpt lat="43.65051" lon="3.33461">
        <ele>155</ele>
        <time>2021-06-05T09:08:40Z</time>
      </trkpt>
      <trkpt lat="43.65052" lon="3.33458">
        <ele>155</ele>
        <time>2021-06-05T09:08:41Z</time>
      </trkpt>
      <trkpt lat="43.65052" lon="3.33455">
        <ele>152</ele>
        <time>2021-06-05T09:08:42Z</time>
      </trkpt>
      <trkpt lat="43.65052" lon="3.33451">
        <ele>152</ele>
        <time>2021-06-05T09:08:43Z</time>
      </trkpt>
      <trkpt lat="43.65052" lon="3.33448">
        <ele>152</ele>
        <time>2021-06-05T09:08:44Z</time>
      </trkpt>
      <trkpt lat="43.65051" lon="3.33445">
        <ele>152</ele>
        <time>2021-06-05T09:08:45Z</time>
      </trkpt>
      <trkpt lat="43.65051" lon="3.33441">
        <ele>152</ele>
        <time>2021-06-05T09:08:47Z</time>
      </trkpt>
      <trkpt lat="43.6505" lon="3.33436">
        <ele>152</ele>
        <time>2021-06-05T09:08:49Z</time>
      </trkpt>
      <trkpt lat="43.6505" lon="3.33434">
        <ele>152</ele>
        <time>2021-06-05T09:08:50Z</time>
      </trkpt>
      <trkpt lat="43.65049" lon="3.33431">
        <ele>152</ele>
        <time>2021-06-05T09:08:51Z</time>
      </trkpt>
      <trkpt lat="43.65049" lon="3.33427">
        <ele>150</ele>
        <time>2021-06-05T09:08:52Z</time>
      </trkpt>
      <trkpt lat="43.65048" lon="3.33423">
        <ele>150</ele>
        <time>2021-06-05T09:08:53Z</time>
      </trkpt>
      <trkpt lat="43.65046" lon="3.33419">
        <ele>150</ele>
        <time>2021-06-05T09:08:54Z</time>
      </trkpt>
      <trkpt lat="43.65045" lon="3.33415">
        <ele>150</ele>
        <time>2021-06-05T09:08:55Z</time>
      </trkpt>
      <trkpt lat="43.65044" lon="3.3341">
        <ele>150</ele>
        <time>2021-06-05T09:08:56Z</time>
      </trkpt>
      <trkpt lat="43.65044" lon="3.33407">
        <ele>150</ele>
        <time>2021-06-05T09:08:57Z</time>
      </trkpt>
      <trkpt lat="43.65045" lon="3.33403">
        <ele>150</ele>
        <time>2021-06-05T09:08:58Z</time>
      </trkpt>
      <trkpt lat="43.65045" lon="3.334">
        <ele>150</ele>
        <time>2021-06-05T09:08:59Z</time>
      </trkpt>
      <trkpt lat="43.65046" lon="3.33397">
        <ele>150</ele>
        <time>2021-06-05T09:09:00Z</time>
      </trkpt>
      <trkpt lat="43.65047" lon="3.33394">
        <ele>150</ele>
        <time>2021-06-05T09:09:01Z</time>
      </trkpt>
      <trkpt lat="43.65048" lon="3.33392">
        <ele>148</ele>
        <time>2021-06-05T09:09:02Z</time>
      </trkpt>
      <trkpt lat="43.6505" lon="3.3339">
        <ele>148</ele>
        <time>2021-06-05T09:09:03Z</time>
      </trkpt>
      <trkpt lat="43.65051" lon="3.33388">
        <ele>148</ele>
        <time>2021-06-05T09:09:04Z</time>
      </trkpt>
      <trkpt lat="43.65052" lon="3.33387">
        <ele>148</ele>
        <time>2021-06-05T09:09:05Z</time>
      </trkpt>
      <trkpt lat="43.65055" lon="3.33387">
        <ele>148</ele>
        <time>2021-06-05T09:09:06Z</time>
      </trkpt>
      <trkpt lat="43.65057" lon="3.33386">
        <ele>148</ele>
        <time>2021-06-05T09:09:07Z</time>
      </trkpt>
      <trkpt lat="43.65059" lon="3.33385">
        <ele>148</ele>
        <time>2021-06-05T09:09:08Z</time>
      </trkpt>
      <trkpt lat="43.65062" lon="3.33383">
        <ele>148</ele>
        <time>2021-06-05T09:09:09Z</time>
      </trkpt>
      <trkpt lat="43.65065" lon="3.33383">
        <ele>148</ele>
        <time>2021-06-05T09:09:10Z</time>
      </trkpt>
      <trkpt lat="43.65068" lon="3.33383">
        <ele>148</ele>
        <time>2021-06-05T09:09:11Z</time>
      </trkpt>
      <trkpt lat="43.65072" lon="3.33381">
        <ele>147</ele>
        <time>2021-06-05T09:09:12Z</time>
      </trkpt>
      <trkpt lat="43.65075" lon="3.33379">
        <ele>147</ele>
        <time>2021-06-05T09:09:13Z</time>
      </trkpt>
      <trkpt lat="43.65079" lon="3.33377">
        <ele>147</ele>
        <time>2021-06-05T09:09:14Z</time>
      </trkpt>
      <trkpt lat="43.65083" lon="3.33376">
        <ele>147</ele>
        <time>2021-06-05T09:09:15Z</time>
      </trkpt>
      <trkpt lat="43.65087" lon="3.33375">
        <ele>147</ele>
        <time>2021-06-05T09:09:16Z</time>
      </trkpt>
      <trkpt lat="43.6509" lon="3.33375">
        <ele>147</ele>
        <time>2021-06-05T09:09:17Z</time>
      </trkpt>
      <trkpt lat="43.65094" lon="3.33375">
        <ele>147</ele>
        <time>2021-06-05T09:09:18Z</time>
      </trkpt>
      <trkpt lat="43.65098" lon="3.33374">
        <ele>147</ele>
        <time>2021-06-05T09:09:19Z</time>
      </trkpt>
      <trkpt lat="43.65102" lon="3.33373">
        <ele>147</ele>
        <time>2021-06-05T09:09:20Z</time>
      </trkpt>
      <trkpt lat="43.65106" lon="3.33372">
        <ele>147</ele>
        <time>2021-06-05T09:09:21Z</time>
      </trkpt>
      <trkpt lat="43.65109" lon="3.33371">
        <ele>146</ele>
        <time>2021-06-05T09:09:22Z</time>
      </trkpt>
      <trkpt lat="43.65113" lon="3.3337">
        <ele>146</ele>
        <time>2021-06-05T09:09:23Z</time>
      </trkpt>
      <trkpt lat="43.65116" lon="3.3337">
        <ele>146</ele>
        <time>2021-06-05T09:09:24Z</time>
      </trkpt>
      <trkpt lat="43.65118" lon="3.33369">
        <ele>146</ele>
        <time>2021-06-05T09:09:25Z</time>
      </trkpt>
      <trkpt lat="43.65119" lon="3.33368">
        <ele>146</ele>
        <time>2021-06-05T09:09:26Z</time>
      </trkpt>
      <trkpt lat="43.65123" lon="3.33368">
        <ele>146</ele>
        <time>2021-06-05T09:09:28Z</time>
      </trkpt>
      <trkpt lat="43.65125" lon="3.33367">
        <ele>146</ele>
        <time>2021-06-05T09:09:30Z</time>
      </trkpt>
      <trkpt lat="43.65128" lon="3.33367">
        <ele>145</ele>
        <time>2021-06-05T09:09:32Z</time>
      </trkpt>
      <trkpt lat="43.65132" lon="3.33366">
        <ele>145</ele>
        <time>2021-06-05T09:09:34Z</time>
      </trkpt>
      <trkpt lat="43.65134" lon="3.33365">
        <ele>145</ele>
        <time>2021-06-05T09:09:35Z</time>
      </trkpt>
      <trkpt lat="43.65136" lon="3.33364">
        <ele>145</ele>
        <time>2021-06-05T09:09:36Z</time>
      </trkpt>
      <trkpt lat="43.65137" lon="3.33362">
        <ele>145</ele>
        <time>2021-06-05T09:09:37Z</time>
      </trkpt>
      <trkpt lat="43.65138" lon="3.33359">
        <ele>145</ele>
        <time>2021-06-05T09:09:38Z</time>
      </trkpt>
      <trkpt lat="43.65137" lon="3.33356">
        <ele>145</ele>
        <time>2021-06-05T09:09:39Z</time>
      </trkpt>
      <trkpt lat="43.65135" lon="3.33353">
        <ele>145</ele>
        <time>2021-06-05T09:09:40Z</time>
      </trkpt>
      <trkpt lat="43.65132" lon="3.3335">
        <ele>145</ele>
        <time>2021-06-05T09:09:41Z</time>
      </trkpt>
      <trkpt lat="43.65128" lon="3.33347">
        <ele>144</ele>
        <time>2021-06-05T09:09:42Z</time>
      </trkpt>
      <trkpt lat="43.65126" lon="3.33345">
        <ele>144</ele>
        <time>2021-06-05T09:09:43Z</time>
      </trkpt>
      <trkpt lat="43.65124" lon="3.33342">
        <ele>144</ele>
        <time>2021-06-05T09:09:44Z</time>
      </trkpt>
      <trkpt lat="43.65122" lon="3.33339">
        <ele>144</ele>
        <time>2021-06-05T09:09:45Z</time>
      </trkpt>
      <trkpt lat="43.65121" lon="3.33334">
        <ele>144</ele>
        <time>2021-06-05T09:09:46Z</time>
      </trkpt>
      <trkpt lat="43.65121" lon="3.33329">
        <ele>144</ele>
        <time>2021-06-05T09:09:47Z</time>
      </trkpt>
      <trkpt lat="43.6512" lon="3.33325">
        <ele>144</ele>
        <time>2021-06-05T09:09:48Z</time>
      </trkpt>
      <trkpt lat="43.6512" lon="3.33322">
        <ele>144</ele>
        <time>2021-06-05T09:09:49Z</time>
      </trkpt>
      <trkpt lat="43.6512" lon="3.33319">
        <ele>144</ele>
        <time>2021-06-05T09:09:50Z</time>
      </trkpt>
      <trkpt lat="43.65119" lon="3.33317">
        <ele>144</ele>
        <time>2021-06-05T09:09:51Z</time>
      </trkpt>
      <trkpt lat="43.65118" lon="3.33315">
        <ele>144</ele>
        <time>2021-06-05T09:09:52Z</time>
      </trkpt>
      <trkpt lat="43.65117" lon="3.33312">
        <ele>144</ele>
        <time>2021-06-05T09:09:53Z</time>
      </trkpt>
      <trkpt lat="43.65116" lon="3.33309">
        <ele>144</ele>
        <time>2021-06-05T09:09:54Z</time>
      </trkpt>
      <trkpt lat="43.65115" lon="3.33306">
        <ele>144</ele>
        <time>2021-06-05T09:09:55Z</time>
      </trkpt>
      <trkpt lat="43.65113" lon="3.33303">
        <ele>144</ele>
        <time>2021-06-05T09:09:56Z</time>
      </trkpt>
      <trkpt lat="43.65111" lon="3.33301">
        <ele>144</ele>
        <time>2021-06-05T09:09:57Z</time>
      </trkpt>
      <trkpt lat="43.6511" lon="3.33298">
        <ele>144</ele>
        <time>2021-06-05T09:09:59Z</time>
      </trkpt>
      <trkpt lat="43.65107" lon="3.33294">
        <ele>144</ele>
        <time>2021-06-05T09:10:01Z</time>
      </trkpt>
      <trkpt lat="43.65106" lon="3.33291">
        <ele>145</ele>
        <time>2021-06-05T09:10:03Z</time>
      </trkpt>
      <trkpt lat="43.65105" lon="3.33287">
        <ele>145</ele>
        <time>2021-06-05T09:10:05Z</time>
      </trkpt>
      <trkpt lat="43.65104" lon="3.33284">
        <ele>145</ele>
        <time>2021-06-05T09:10:07Z</time>
      </trkpt>
      <trkpt lat="43.65104" lon="3.33281">
        <ele>145</ele>
        <time>2021-06-05T09:10:09Z</time>
      </trkpt>
      <trkpt lat="43.65103" lon="3.33278">
        <ele>145</ele>
        <time>2021-06-05T09:10:11Z</time>
      </trkpt>
      <trkpt lat="43.65104" lon="3.33276">
        <ele>145</ele>
        <time>2021-06-05T09:10:13Z</time>
      </trkpt>
      <trkpt lat="43.65107" lon="3.33278">
        <ele>145</ele>
        <time>2021-06-05T09:10:15Z</time>
      </trkpt>
      <trkpt lat="43.65108" lon="3.33282">
        <ele>145</ele>
        <time>2021-06-05T09:10:17Z</time>
      </trkpt>
      <trkpt lat="43.65108" lon="3.33286">
        <ele>145</ele>
        <time>2021-06-05T09:10:18Z</time>
      </trkpt>
      <trkpt lat="43.65109" lon="3.3329">
        <ele>145</ele>
        <time>2021-06-05T09:10:19Z</time>
      </trkpt>
      <trkpt lat="43.6511" lon="3.33295">
        <ele>145</ele>
        <time>2021-06-05T09:10:20Z</time>
      </trkpt>
      <trkpt lat="43.65111" lon="3.33299">
        <ele>145</ele>
        <time>2021-06-05T09:10:21Z</time>
      </trkpt>
      <trkpt lat="43.65113" lon="3.33303">
        <ele>145</ele>
        <time>2021-06-05T09:10:22Z</time>
      </trkpt>
      <trkpt lat="43.65115" lon="3.33306">
        <ele>145</ele>
        <time>2021-06-05T09:10:23Z</time>
      </trkpt>
      <trkpt lat="43.65117" lon="3.33309">
        <ele>145</ele>
        <time>2021-06-05T09:10:24Z</time>
      </trkpt>
      <trkpt lat="43.65117" lon="3.33312">
        <ele>145</ele>
        <time>2021-06-05T09:10:25Z</time>
      </trkpt>
      <trkpt lat="43.65117" lon="3.33314">
        <ele>145</ele>
        <time>2021-06-05T09:10:26Z</time>
      </trkpt>
      <trkpt lat="43.65116" lon="3.33318">
        <ele>145</ele>
        <time>2021-06-05T09:10:27Z</time>
      </trkpt>
      <trkpt lat="43.65114" lon="3.33322">
        <ele>145</ele>
        <time>2021-06-05T09:10:28Z</time>
      </trkpt>
      <trkpt lat="43.65112" lon="3.33325">
        <ele>145</ele>
        <time>2021-06-05T09:10:29Z</time>
      </trkpt>
      <trkpt lat="43.6511" lon="3.33327">
        <ele>145</ele>
        <time>2021-06-05T09:10:30Z</time>
      </trkpt>
      <trkpt lat="43.65107" lon="3.33328">
        <ele>145</ele>
        <time>2021-06-05T09:10:31Z</time>
      </trkpt>
      <trkpt lat="43.65105" lon="3.33328">
        <ele>144</ele>
        <time>2021-06-05T09:10:32Z</time>
      </trkpt>
      <trkpt lat="43.65103" lon="3.33329">
        <ele>144</ele>
        <time>2021-06-05T09:10:33Z</time>
      </trkpt>
      <trkpt lat="43.65101" lon="3.33331">
        <ele>144</ele>
        <time>2021-06-05T09:10:34Z</time>
      </trkpt>
      <trkpt lat="43.65099" lon="3.33333">
        <ele>144</ele>
        <time>2021-06-05T09:10:35Z</time>
      </trkpt>
      <trkpt lat="43.65096" lon="3.33335">
        <ele>144</ele>
        <time>2021-06-05T09:10:36Z</time>
      </trkpt>
      <trkpt lat="43.65094" lon="3.33336">
        <ele>144</ele>
        <time>2021-06-05T09:10:37Z</time>
      </trkpt>
      <trkpt lat="43.65091" lon="3.33338">
        <ele>144</ele>
        <time>2021-06-05T09:10:38Z</time>
      </trkpt>
      <trkpt lat="43.6509" lon="3.3334">
        <ele>144</ele>
        <time>2021-06-05T09:10:39Z</time>
      </trkpt>
      <trkpt lat="43.65088" lon="3.33341">
        <ele>144</ele>
        <time>2021-06-05T09:10:40Z</time>
      </trkpt>
      <trkpt lat="43.65085" lon="3.33342">
        <ele>144</ele>
        <time>2021-06-05T09:10:41Z</time>
      </trkpt>
      <trkpt lat="43.65083" lon="3.33344">
        <ele>145</ele>
        <time>2021-06-05T09:10:42Z</time>
      </trkpt>
      <trkpt lat="43.6508" lon="3.33346">
        <ele>145</ele>
        <time>2021-06-05T09:10:43Z</time>
      </trkpt>
      <trkpt lat="43.65078" lon="3.33348">
        <ele>145</ele>
        <time>2021-06-05T09:10:44Z</time>
      </trkpt>
      <trkpt lat="43.65075" lon="3.3335">
        <ele>145</ele>
        <time>2021-06-05T09:10:45Z</time>
      </trkpt>
      <trkpt lat="43.65072" lon="3.33352">
        <ele>145</ele>
        <time>2021-06-05T09:10:46Z</time>
      </trkpt>
      <trkpt lat="43.65069" lon="3.33354">
        <ele>145</ele>
        <time>2021-06-05T09:10:47Z</time>
      </trkpt>
      <trkpt lat="43.65066" lon="3.33356">
        <ele>145</ele>
        <time>2021-06-05T09:10:48Z</time>
      </trkpt>
      <trkpt lat="43.65063" lon="3.33357">
        <ele>145</ele>
        <time>2021-06-05T09:10:49Z</time>
      </trkpt>
      <trkpt lat="43.65059" lon="3.33358">
        <ele>145</ele>
        <time>2021-06-05T09:10:50Z</time>
      </trkpt>
      <trkpt lat="43.65056" lon="3.3336">
        <ele>145</ele>
        <time>2021-06-05T09:10:51Z</time>
      </trkpt>
      <trkpt lat="43.65052" lon="3.33361">
        <ele>146</ele>
        <time>2021-06-05T09:10:52Z</time>
      </trkpt>
      <trkpt lat="43.65049" lon="3.33362">
        <ele>146</ele>
        <time>2021-06-05T09:10:53Z</time>
      </trkpt>
      <trkpt lat="43.65045" lon="3.33363">
        <ele>146</ele>
        <time>2021-06-05T09:10:54Z</time>
      </trkpt>
      <trkpt lat="43.65041" lon="3.33363">
        <ele>146</ele>
        <time>2021-06-05T09:10:55Z</time>
      </trkpt>
      <trkpt lat="43.65038" lon="3.33363">
        <ele>146</ele>
        <time>2021-06-05T09:10:56Z</time>
      </trkpt>
      <trkpt lat="43.65034" lon="3.33364">
        <ele>146</ele>
        <time>2021-06-05T09:10:57Z</time>
      </trkpt>
      <trkpt lat="43.6503" lon="3.33364">
        <ele>146</ele>
        <time>2021-06-05T09:10:58Z</time>
      </trkpt>
      <trkpt lat="43.65027" lon="3.33364">
        <ele>146</ele>
        <time>2021-06-05T09:10:59Z</time>
      </trkpt>
      <trkpt lat="43.65022" lon="3.33363">
        <ele>146</ele>
        <time>2021-06-05T09:11:00Z</time>
      </trkpt>
      <trkpt lat="43.65019" lon="3.33363">
        <ele>146</ele>
        <time>2021-06-05T09:11:01Z</time>
      </trkpt>
      <trkpt lat="43.65015" lon="3.33363">
        <ele>145</ele>
        <time>2021-06-05T09:11:02Z</time>
      </trkpt>
      <trkpt lat="43.65011" lon="3.33362">
        <ele>145</ele>
        <time>2021-06-05T09:11:03Z</time>
      </trkpt>
      <trkpt lat="43.65006" lon="3.33361">
        <ele>145</ele>
        <time>2021-06-05T09:11:04Z</time>
      </trkpt>
      <trkpt lat="43.65002" lon="3.33361">
        <ele>145</ele>
        <time>2021-06-05T09:11:05Z</time>
      </trkpt>
      <trkpt lat="43.64998" lon="3.3336">
        <ele>145</ele>
        <time>2021-06-05T09:11:06Z</time>
      </trkpt>
      <trkpt lat="43.64994" lon="3.33359">
        <ele>145</ele>
        <time>2021-06-05T09:11:07Z</time>
      </trkpt>
      <trkpt lat="43.64989" lon="3.33358">
        <ele>145</ele>
        <time>2021-06-05T09:11:08Z</time>
      </trkpt>
      <trkpt lat="43.64986" lon="3.33358">
        <ele>145</ele>
        <time>2021-06-05T09:11:09Z</time>
      </trkpt>
      <trkpt lat="43.64981" lon="3.33356">
        <ele>145</ele>
        <time>2021-06-05T09:11:10Z</time>
      </trkpt>
      <trkpt lat="43.64977" lon="3.33354">
        <ele>145</ele>
        <time>2021-06-05T09:11:11Z</time>
      </trkpt>
      <trkpt lat="43.64973" lon="3.33352">
        <ele>145</ele>
        <time>2021-06-05T09:11:12Z</time>
      </trkpt>
      <trkpt lat="43.6497" lon="3.33351">
        <ele>145</ele>
        <time>2021-06-05T09:11:13Z</time>
      </trkpt>
      <trkpt lat="43.64966" lon="3.33349">
        <ele>145</ele>
        <time>2021-06-05T09:11:14Z</time>
      </trkpt>
      <trkpt lat="43.64962" lon="3.33348">
        <ele>145</ele>
        <time>2021-06-05T09:11:15Z</time>
      </trkpt>
      <trkpt lat="43.64958" lon="3.33346">
        <ele>145</ele>
        <time>2021-06-05T09:11:16Z</time>
      </trkpt>
      <trkpt lat="43.64954" lon="3.33344">
        <ele>145</ele>
        <time>2021-06-05T09:11:17Z</time>
      </trkpt>
      <trkpt lat="43.64951" lon="3.33342">
        <ele>145</ele>
        <time>2021-06-05T09:11:18Z</time>
      </trkpt>
      <trkpt lat="43.64946" lon="3.33341">
        <ele>145</ele>
        <time>2021-06-05T09:11:19Z</time>
      </trkpt>
      <trkpt lat="43.64942" lon="3.33339">
        <ele>145</ele>
        <time>2021-06-05T09:11:20Z</time>
      </trkpt>
      <trkpt lat="43.64938" lon="3.33337">
        <ele>145</ele>
        <time>2021-06-05T09:11:21Z</time>
      </trkpt>
      <trkpt lat="43.64934" lon="3.33335">
        <ele>145</ele>
        <time>2021-06-05T09:11:22Z</time>
      </trkpt>
      <trkpt lat="43.6493" lon="3.33333">
        <ele>145</ele>
        <time>2021-06-05T09:11:23Z</time>
      </trkpt>
      <trkpt lat="43.64926" lon="3.33331">
        <ele>145</ele>
        <time>2021-06-05T09:11:24Z</time>
      </trkpt>
      <trkpt lat="43.64922" lon="3.33329">
        <ele>145</ele>
        <time>2021-06-05T09:11:25Z</time>
      </trkpt>
      <trkpt lat="43.64918" lon="3.33328">
        <ele>145</ele>
        <time>2021-06-05T09:11:26Z</time>
      </trkpt>
      <trkpt lat="43.64914" lon="3.33326">
        <ele>145</ele>
        <time>2021-06-05T09:11:27Z</time>
      </trkpt>
      <trkpt lat="43.6491" lon="3.33325">
        <ele>145</ele>
        <time>2021-06-05T09:11:28Z</time>
      </trkpt>
      <trkpt lat="43.64906" lon="3.33323">
        <ele>145</ele>
        <time>2021-06-05T09:11:29Z</time>
      </trkpt>
      <trkpt lat="43.64902" lon="3.33321">
        <ele>145</ele>
        <time>2021-06-05T09:11:30Z</time>
      </trkpt>
      <trkpt lat="43.64898" lon="3.33319">
        <ele>145</ele>
        <time>2021-06-05T09:11:31Z</time>
      </trkpt>
      <trkpt lat="43.64894" lon="3.33317">
        <ele>145</ele>
        <time>2021-06-05T09:11:32Z</time>
      </trkpt>
      <trkpt lat="43.6489" lon="3.33315">
        <ele>145</ele>
        <time>2021-06-05T09:11:33Z</time>
      </trkpt>
      <trkpt lat="43.64886" lon="3.33313">
        <ele>145</ele>
        <time>2021-06-05T09:11:34Z</time>
      </trkpt>
      <trkpt lat="43.64882" lon="3.33312">
        <ele>145</ele>
        <time>2021-06-05T09:11:35Z</time>
      </trkpt>
      <trkpt lat="43.64879" lon="3.3331">
        <ele>145</ele>
        <time>2021-06-05T09:11:36Z</time>
      </trkpt>
      <trkpt lat="43.64875" lon="3.33308">
        <ele>145</ele>
        <time>2021-06-05T09:11:37Z</time>
      </trkpt>
      <trkpt lat="43.64871" lon="3.33307">
        <ele>145</ele>
        <time>2021-06-05T09:11:38Z</time>
      </trkpt>
      <trkpt lat="43.64868" lon="3.33305">
        <ele>145</ele>
        <time>2021-06-05T09:11:39Z</time>
      </trkpt>
      <trkpt lat="43.64865" lon="3.33303">
        <ele>145</ele>
        <time>2021-06-05T09:11:40Z</time>
      </trkpt>
      <trkpt lat="43.64861" lon="3.33302">
        <ele>145</ele>
        <time>2021-06-05T09:11:41Z</time>
      </trkpt>
      <trkpt lat="43.64858" lon="3.333">
        <ele>145</ele>
        <time>2021-06-05T09:11:42Z</time>
      </trkpt>
      <trkpt lat="43.64854" lon="3.33298">
        <ele>145</ele>
        <time>2021-06-05T09:11:43Z</time>
      </trkpt>
      <trkpt lat="43.64851" lon="3.33297">
        <ele>145</ele>
        <time>2021-06-05T09:11:44Z</time>
      </trkpt>
      <trkpt lat="43.64846" lon="3.33295">
        <ele>145</ele>
        <time>2021-06-05T09:11:45Z</time>
      </trkpt>
      <trkpt lat="43.64843" lon="3.33293">
        <ele>145</ele>
        <time>2021-06-05T09:11:46Z</time>
      </trkpt>
      <trkpt lat="43.64839" lon="3.33291">
        <ele>145</ele>
        <time>2021-06-05T09:11:47Z</time>
      </trkpt>
      <trkpt lat="43.64836" lon="3.33288">
        <ele>145</ele>
        <time>2021-06-05T09:11:48Z</time>
      </trkpt>
      <trkpt lat="43.64834" lon="3.33285">
        <ele>145</ele>
        <time>2021-06-05T09:11:49Z</time>
      </trkpt>
      <trkpt lat="43.64834" lon="3.3328">
        <ele>145</ele>
        <time>2021-06-05T09:11:50Z</time>
      </trkpt>
      <trkpt lat="43.64833" lon="3.33275">
        <ele>145</ele>
        <time>2021-06-05T09:11:51Z</time>
      </trkpt>
      <trkpt lat="43.64833" lon="3.33269">
        <ele>144</ele>
        <time>2021-06-05T09:11:52Z</time>
      </trkpt>
      <trkpt lat="43.64831" lon="3.33264">
        <ele>144</ele>
        <time>2021-06-05T09:11:53Z</time>
      </trkpt>
      <trkpt lat="43.6483" lon="3.33258">
        <ele>144</ele>
        <time>2021-06-05T09:11:54Z</time>
      </trkpt>
      <trkpt lat="43.64828" lon="3.33253">
        <ele>144</ele>
        <time>2021-06-05T09:11:55Z</time>
      </trkpt>
      <trkpt lat="43.64826" lon="3.33249">
        <ele>144</ele>
        <time>2021-06-05T09:11:56Z</time>
      </trkpt>
      <trkpt lat="43.64824" lon="3.33246">
        <ele>144</ele>
        <time>2021-06-05T09:11:57Z</time>
      </trkpt>
      <trkpt lat="43.64821" lon="3.33243">
        <ele>144</ele>
        <time>2021-06-05T09:11:58Z</time>
      </trkpt>
      <trkpt lat="43.6482" lon="3.33239">
        <ele>144</ele>
        <time>2021-06-05T09:11:59Z</time>
      </trkpt>
      <trkpt lat="43.6482" lon="3.33234">
        <ele>144</ele>
        <time>2021-06-05T09:12:00Z</time>
      </trkpt>
      <trkpt lat="43.64822" lon="3.33229">
        <ele>144</ele>
        <time>2021-06-05T09:12:01Z</time>
      </trkpt>
      <trkpt lat="43.64825" lon="3.33225">
        <ele>143</ele>
        <time>2021-06-05T09:12:02Z</time>
      </trkpt>
      <trkpt lat="43.64827" lon="3.3322">
        <ele>143</ele>
        <time>2021-06-05T09:12:03Z</time>
      </trkpt>
      <trkpt lat="43.64827" lon="3.33215">
        <ele>143</ele>
        <time>2021-06-05T09:12:04Z</time>
      </trkpt>
      <trkpt lat="43.64827" lon="3.33209">
        <ele>143</ele>
        <time>2021-06-05T09:12:05Z</time>
      </trkpt>
      <trkpt lat="43.64827" lon="3.33202">
        <ele>143</ele>
        <time>2021-06-05T09:12:06Z</time>
      </trkpt>
      <trkpt lat="43.64826" lon="3.33196">
        <ele>143</ele>
        <time>2021-06-05T09:12:07Z</time>
      </trkpt>
      <trkpt lat="43.64826" lon="3.3319">
        <ele>143</ele>
        <time>2021-06-05T09:12:08Z</time>
      </trkpt>
      <trkpt lat="43.64825" lon="3.33183">
        <ele>143</ele>
        <time>2021-06-05T09:12:09Z</time>
      </trkpt>
      <trkpt lat="43.64823" lon="3.33176">
        <ele>143</ele>
        <time>2021-06-05T09:12:10Z</time>
      </trkpt>
      <trkpt lat="43.64821" lon="3.33169">
        <ele>143</ele>
        <time>2021-06-05T09:12:11Z</time>
      </trkpt>
      <trkpt lat="43.64819" lon="3.33162">
        <ele>143</ele>
        <time>2021-06-05T09:12:12Z</time>
      </trkpt>
      <trkpt lat="43.64817" lon="3.33154">
        <ele>143</ele>
        <time>2021-06-05T09:12:13Z</time>
      </trkpt>
      <trkpt lat="43.64815" lon="3.33147">
        <ele>143</ele>
        <time>2021-06-05T09:12:14Z</time>
      </trkpt>
      <trkpt lat="43.64815" lon="3.33139">
        <ele>143</ele>
        <time>2021-06-05T09:12:15Z</time>
      </trkpt>
      <trkpt lat="43.64813" lon="3.33132">
        <ele>143</ele>
        <time>2021-06-05T09:12:16Z</time>
      </trkpt>
      <trkpt lat="43.6481" lon="3.33126">
        <ele>143</ele>
        <time>2021-06-05T09:12:17Z</time>
      </trkpt>
      <trkpt lat="43.64807" lon="3.3312">
        <ele>143</ele>
        <time>2021-06-05T09:12:18Z</time>
      </trkpt>
      <trkpt lat="43.64804" lon="3.33115">
        <ele>143</ele>
        <time>2021-06-05T09:12:19Z</time>
      </trkpt>
      <trkpt lat="43.648" lon="3.33109">
        <ele>143</ele>
        <time>2021-06-05T09:12:20Z</time>
      </trkpt>
      <trkpt lat="43.64797" lon="3.33104">
        <ele>143</ele>
        <time>2021-06-05T09:12:21Z</time>
      </trkpt>
      <trkpt lat="43.64793" lon="3.33099">
        <ele>142</ele>
        <time>2021-06-05T09:12:22Z</time>
      </trkpt>
      <trkpt lat="43.64789" lon="3.33096">
        <ele>142</ele>
        <time>2021-06-05T09:12:23Z</time>
      </trkpt>
      <trkpt lat="43.64784" lon="3.33094">
        <ele>142</ele>
        <time>2021-06-05T09:12:24Z</time>
      </trkpt>
      <trkpt lat="43.64781" lon="3.33093">
        <ele>142</ele>
        <time>2021-06-05T09:12:25Z</time>
      </trkpt>
      <trkpt lat="43.64779" lon="3.3309">
        <ele>142</ele>
        <time>2021-06-05T09:12:26Z</time>
      </trkpt>
      <trkpt lat="43.64779" lon="3.33086">
        <ele>142</ele>
        <time>2021-06-05T09:12:27Z</time>
      </trkpt>
      <trkpt lat="43.64777" lon="3.33083">
        <ele>142</ele>
        <time>2021-06-05T09:12:28Z</time>
      </trkpt>
      <trkpt lat="43.64776" lon="3.33078">
        <ele>142</ele>
        <time>2021-06-05T09:12:29Z</time>
      </trkpt>
      <trkpt lat="43.64776" lon="3.33074">
        <ele>142</ele>
        <time>2021-06-05T09:12:30Z</time>
      </trkpt>
      <trkpt lat="43.64776" lon="3.33071">
        <ele>142</ele>
        <time>2021-06-05T09:12:31Z</time>
      </trkpt>
      <trkpt lat="43.64775" lon="3.33068">
        <ele>142</ele>
        <time>2021-06-05T09:12:32Z</time>
      </trkpt>
      <trkpt lat="43.64773" lon="3.33065">
        <ele>142</ele>
        <time>2021-06-05T09:12:34Z</time>
      </trkpt>
      <trkpt lat="43.64769" lon="3.33062">
        <ele>142</ele>
        <time>2021-06-05T09:12:36Z</time>
      </trkpt>
      <trkpt lat="43.64767" lon="3.33059">
        <ele>142</ele>
        <time>2021-06-05T09:12:37Z</time>
      </trkpt>
      <trkpt lat="43.64764" lon="3.33056">
        <ele>142</ele>
        <time>2021-06-05T09:12:38Z</time>
      </trkpt>
      <trkpt lat="43.64761" lon="3.33054">
        <ele>142</ele>
        <time>2021-06-05T09:12:39Z</time>
      </trkpt>
      <trkpt lat="43.64759" lon="3.3305">
        <ele>142</ele>
        <time>2021-06-05T09:12:40Z</time>
      </trkpt>
      <trkpt lat="43.64757" lon="3.33046">
        <ele>142</ele>
        <time>2021-06-05T09:12:41Z</time>
      </trkpt>
      <trkpt lat="43.64754" lon="3.33042">
        <ele>143</ele>
        <time>2021-06-05T09:12:42Z</time>
      </trkpt>
      <trkpt lat="43.64752" lon="3.3304">
        <ele>143</ele>
        <time>2021-06-05T09:12:43Z</time>
      </trkpt>
      <trkpt lat="43.64749" lon="3.33037">
        <ele>143</ele>
        <time>2021-06-05T09:12:44Z</time>
      </trkpt>
      <trkpt lat="43.64746" lon="3.33034">
        <ele>143</ele>
        <time>2021-06-05T09:12:45Z</time>
      </trkpt>
      <trkpt lat="43.64744" lon="3.3303">
        <ele>143</ele>
        <time>2021-06-05T09:12:46Z</time>
      </trkpt>
      <trkpt lat="43.64741" lon="3.33026">
        <ele>143</ele>
        <time>2021-06-05T09:12:47Z</time>
      </trkpt>
      <trkpt lat="43.64738" lon="3.33021">
        <ele>143</ele>
        <time>2021-06-05T09:12:48Z</time>
      </trkpt>
      <trkpt lat="43.64735" lon="3.33016">
        <ele>143</ele>
        <time>2021-06-05T09:12:49Z</time>
      </trkpt>
      <trkpt lat="43.64732" lon="3.33012">
        <ele>143</ele>
        <time>2021-06-05T09:12:50Z</time>
      </trkpt>
      <trkpt lat="43.64729" lon="3.33007">
        <ele>143</ele>
        <time>2021-06-05T09:12:51Z</time>
      </trkpt>
      <trkpt lat="43.64724" lon="3.33003">
        <ele>142</ele>
        <time>2021-06-05T09:12:52Z</time>
      </trkpt>
      <trkpt lat="43.64721" lon="3.32998">
        <ele>142</ele>
        <time>2021-06-05T09:12:53Z</time>
      </trkpt>
      <trkpt lat="43.64717" lon="3.32995">
        <ele>142</ele>
        <time>2021-06-05T09:12:54Z</time>
      </trkpt>
      <trkpt lat="43.64713" lon="3.32992">
        <ele>142</ele>
        <time>2021-06-05T09:12:55Z</time>
      </trkpt>
      <trkpt lat="43.64708" lon="3.32991">
        <ele>142</ele>
        <time>2021-06-05T09:12:56Z</time>
      </trkpt>
      <trkpt lat="43.64704" lon="3.3299">
        <ele>142</ele>
        <time>2021-06-05T09:12:57Z</time>
      </trkpt>
      <trkpt lat="43.64699" lon="3.32989">
        <ele>142</ele>
        <time>2021-06-05T09:12:58Z</time>
      </trkpt>
      <trkpt lat="43.64694" lon="3.32989">
        <ele>142</ele>
        <time>2021-06-05T09:12:59Z</time>
      </trkpt>
      <trkpt lat="43.64689" lon="3.3299">
        <ele>142</ele>
        <time>2021-06-05T09:13:00Z</time>
      </trkpt>
      <trkpt lat="43.64684" lon="3.32991">
        <ele>142</ele>
        <time>2021-06-05T09:13:01Z</time>
      </trkpt>
      <trkpt lat="43.6468" lon="3.32994">
        <ele>141</ele>
        <time>2021-06-05T09:13:02Z</time>
      </trkpt>
      <trkpt lat="43.64676" lon="3.32997">
        <ele>141</ele>
        <time>2021-06-05T09:13:03Z</time>
      </trkpt>
      <trkpt lat="43.64671" lon="3.32999">
        <ele>141</ele>
        <time>2021-06-05T09:13:04Z</time>
      </trkpt>
      <trkpt lat="43.64667" lon="3.33001">
        <ele>141</ele>
        <time>2021-06-05T09:13:05Z</time>
      </trkpt>
      <trkpt lat="43.64662" lon="3.33003">
        <ele>141</ele>
        <time>2021-06-05T09:13:06Z</time>
      </trkpt>
      <trkpt lat="43.64658" lon="3.33004">
        <ele>141</ele>
        <time>2021-06-05T09:13:07Z</time>
      </trkpt>
      <trkpt lat="43.64653" lon="3.33007">
        <ele>141</ele>
        <time>2021-06-05T09:13:08Z</time>
      </trkpt>
      <trkpt lat="43.64649" lon="3.33009">
        <ele>141</ele>
        <time>2021-06-05T09:13:09Z</time>
      </trkpt>
      <trkpt lat="43.64645" lon="3.3301">
        <ele>141</ele>
        <time>2021-06-05T09:13:10Z</time>
      </trkpt>
      <trkpt lat="43.6464" lon="3.33011">
        <ele>141</ele>
        <time>2021-06-05T09:13:11Z</time>
      </trkpt>
      <trkpt lat="43.64635" lon="3.3301">
        <ele>140</ele>
        <time>2021-06-05T09:13:12Z</time>
      </trkpt>
      <trkpt lat="43.64631" lon="3.33009">
        <ele>140</ele>
        <time>2021-06-05T09:13:13Z</time>
      </trkpt>
      <trkpt lat="43.64627" lon="3.3301">
        <ele>140</ele>
        <time>2021-06-05T09:13:14Z</time>
      </trkpt>
      <trkpt lat="43.64622" lon="3.33012">
        <ele>140</ele>
        <time>2021-06-05T09:13:15Z</time>
      </trkpt>
      <trkpt lat="43.64619" lon="3.33013">
        <ele>140</ele>
        <time>2021-06-05T09:13:16Z</time>
      </trkpt>
      <trkpt lat="43.64615" lon="3.33013">
        <ele>140</ele>
        <time>2021-06-05T09:13:17Z</time>
      </trkpt>
      <trkpt lat="43.64613" lon="3.3301">
        <ele>140</ele>
        <time>2021-06-05T09:13:18Z</time>
      </trkpt>
      <trkpt lat="43.64611" lon="3.33007">
        <ele>140</ele>
        <time>2021-06-05T09:13:19Z</time>
      </trkpt>
      <trkpt lat="43.64608" lon="3.33005">
        <ele>140</ele>
        <time>2021-06-05T09:13:20Z</time>
      </trkpt>
      <trkpt lat="43.64603" lon="3.33003">
        <ele>140</ele>
        <time>2021-06-05T09:13:21Z</time>
      </trkpt>
      <trkpt lat="43.646" lon="3.33">
        <ele>140</ele>
        <time>2021-06-05T09:13:22Z</time>
      </trkpt>
      <trkpt lat="43.64596" lon="3.32997">
        <ele>140</ele>
        <time>2021-06-05T09:13:23Z</time>
      </trkpt>
      <trkpt lat="43.64594" lon="3.32994">
        <ele>140</ele>
        <time>2021-06-05T09:13:24Z</time>
      </trkpt>
      <trkpt lat="43.64591" lon="3.32991">
        <ele>140</ele>
        <time>2021-06-05T09:13:25Z</time>
      </trkpt>
      <trkpt lat="43.64587" lon="3.32989">
        <ele>140</ele>
        <time>2021-06-05T09:13:26Z</time>
      </trkpt>
      <trkpt lat="43.64584" lon="3.32987">
        <ele>140</ele>
        <time>2021-06-05T09:13:27Z</time>
      </trkpt>
      <trkpt lat="43.64581" lon="3.32985">
        <ele>140</ele>
        <time>2021-06-05T09:13:28Z</time>
      </trkpt>
      <trkpt lat="43.6458" lon="3.32984">
        <ele>140</ele>
        <time>2021-06-05T09:13:29Z</time>
      </trkpt>
      <trkpt lat="43.64577" lon="3.32983">
        <ele>140</ele>
        <time>2021-06-05T09:13:30Z</time>
      </trkpt>
      <trkpt lat="43.64575" lon="3.32982">
        <ele>140</ele>
        <time>2021-06-05T09:13:31Z</time>
      </trkpt>
      <trkpt lat="43.64573" lon="3.32981">
        <ele>142</ele>
        <time>2021-06-05T09:13:32Z</time>
      </trkpt>
      <trkpt lat="43.64571" lon="3.32979">
        <ele>142</ele>
        <time>2021-06-05T09:13:33Z</time>
      </trkpt>
      <trkpt lat="43.64569" lon="3.32978">
        <ele>142</ele>
        <time>2021-06-05T09:13:34Z</time>
      </trkpt>
      <trkpt lat="43.64566" lon="3.32978">
        <ele>142</ele>
        <time>2021-06-05T09:13:35Z</time>
      </trkpt>
      <trkpt lat="43.64564" lon="3.32977">
        <ele>142</ele>
        <time>2021-06-05T09:13:36Z</time>
      </trkpt>
      <trkpt lat="43.64561" lon="3.32978">
        <ele>142</ele>
        <time>2021-06-05T09:13:37Z</time>
      </trkpt>
      <trkpt lat="43.64558" lon="3.32978">
        <ele>142</ele>
        <time>2021-06-05T09:13:38Z</time>
      </trkpt>
      <trkpt lat="43.64555" lon="3.32977">
        <ele>142</ele>
        <time>2021-06-05T09:13:39Z</time>
      </trkpt>
      <trkpt lat="43.64553" lon="3.32974">
        <ele>142</ele>
        <time>2021-06-05T09:13:40Z</time>
      </trkpt>
      <trkpt lat="43.64554" lon="3.32971">
        <ele>142</ele>
        <time>2021-06-05T09:13:41Z</time>
      </trkpt>
      <trkpt lat="43.64555" lon="3.32968">
        <ele>143</ele>
        <time>2021-06-05T09:13:42Z</time>
      </trkpt>
      <trkpt lat="43.64557" lon="3.32964">
        <ele>143</ele>
        <time>2021-06-05T09:13:43Z</time>
      </trkpt>
      <trkpt lat="43.64558" lon="3.32959">
        <ele>143</ele>
        <time>2021-06-05T09:13:44Z</time>
      </trkpt>
      <trkpt lat="43.64558" lon="3.32956">
        <ele>143</ele>
        <time>2021-06-05T09:13:45Z</time>
      </trkpt>
      <trkpt lat="43.64557" lon="3.32953">
        <ele>143</ele>
        <time>2021-06-05T09:13:46Z</time>
      </trkpt>
      <trkpt lat="43.64554" lon="3.3295">
        <ele>143</ele>
        <time>2021-06-05T09:13:47Z</time>
      </trkpt>
      <trkpt lat="43.64552" lon="3.32946">
        <ele>143</ele>
        <time>2021-06-05T09:13:48Z</time>
      </trkpt>
      <trkpt lat="43.64551" lon="3.32941">
        <ele>143</ele>
        <time>2021-06-05T09:13:49Z</time>
      </trkpt>
      <trkpt lat="43.64549" lon="3.32937">
        <ele>143</ele>
        <time>2021-06-05T09:13:50Z</time>
      </trkpt>
      <trkpt lat="43.64548" lon="3.32935">
        <ele>143</ele>
        <time>2021-06-05T09:13:51Z</time>
      </trkpt>
      <trkpt lat="43.64546" lon="3.32931">
        <ele>144</ele>
        <time>2021-06-05T09:13:52Z</time>
      </trkpt>
      <trkpt lat="43.64543" lon="3.32927">
        <ele>144</ele>
        <time>2021-06-05T09:13:53Z</time>
      </trkpt>
      <trkpt lat="43.64542" lon="3.32925">
        <ele>144</ele>
        <time>2021-06-05T09:13:54Z</time>
      </trkpt>
      <trkpt lat="43.64539" lon="3.32923">
        <ele>144</ele>
        <time>2021-06-05T09:13:55Z</time>
      </trkpt>
      <trkpt lat="43.64537" lon="3.32921">
        <ele>144</ele>
        <time>2021-06-05T09:13:56Z</time>
      </trkpt>
      <trkpt lat="43.64534" lon="3.32919">
        <ele>144</ele>
        <time>2021-06-05T09:13:57Z</time>
      </trkpt>
      <trkpt lat="43.6453" lon="3.32916">
        <ele>144</ele>
        <time>2021-06-05T09:13:58Z</time>
      </trkpt>
      <trkpt lat="43.64527" lon="3.32912">
        <ele>144</ele>
        <time>2021-06-05T09:13:59Z</time>
      </trkpt>
      <trkpt lat="43.64524" lon="3.32908">
        <ele>144</ele>
        <time>2021-06-05T09:14:00Z</time>
      </trkpt>
      <trkpt lat="43.6452" lon="3.32904">
        <ele>144</ele>
        <time>2021-06-05T09:14:01Z</time>
      </trkpt>
      <trkpt lat="43.64517" lon="3.329">
        <ele>143</ele>
        <time>2021-06-05T09:14:02Z</time>
      </trkpt>
      <trkpt lat="43.64513" lon="3.32895">
        <ele>143</ele>
        <time>2021-06-05T09:14:03Z</time>
      </trkpt>
      <trkpt lat="43.64511" lon="3.32889">
        <ele>143</ele>
        <time>2021-06-05T09:14:04Z</time>
      </trkpt>
      <trkpt lat="43.64507" lon="3.32884">
        <ele>143</ele>
        <time>2021-06-05T09:14:05Z</time>
      </trkpt>
      <trkpt lat="43.64504" lon="3.32878">
        <ele>143</ele>
        <time>2021-06-05T09:14:06Z</time>
      </trkpt>
      <trkpt lat="43.64499" lon="3.32873">
        <ele>143</ele>
        <time>2021-06-05T09:14:07Z</time>
      </trkpt>
      <trkpt lat="43.64495" lon="3.32866">
        <ele>143</ele>
        <time>2021-06-05T09:14:08Z</time>
      </trkpt>
      <trkpt lat="43.64491" lon="3.32859">
        <ele>143</ele>
        <time>2021-06-05T09:14:09Z</time>
      </trkpt>
      <trkpt lat="43.64486" lon="3.32853">
        <ele>143</ele>
        <time>2021-06-05T09:14:10Z</time>
      </trkpt>
      <trkpt lat="43.64482" lon="3.32847">
        <ele>143</ele>
        <time>2021-06-05T09:14:11Z</time>
      </trkpt>
      <trkpt lat="43.64477" lon="3.32842">
        <ele>142</ele>
        <time>2021-06-05T09:14:12Z</time>
      </trkpt>
      <trkpt lat="43.64473" lon="3.32838">
        <ele>142</ele>
        <time>2021-06-05T09:14:13Z</time>
      </trkpt>
      <trkpt lat="43.64467" lon="3.32835">
        <ele>142</ele>
        <time>2021-06-05T09:14:14Z</time>
      </trkpt>
      <trkpt lat="43.64462" lon="3.32833">
        <ele>142</ele>
        <time>2021-06-05T09:14:15Z</time>
      </trkpt>
      <trkpt lat="43.6446" lon="3.32829">
        <ele>142</ele>
        <time>2021-06-05T09:14:16Z</time>
      </trkpt>
      <trkpt lat="43.64459" lon="3.32824">
        <ele>142</ele>
        <time>2021-06-05T09:14:17Z</time>
      </trkpt>
      <trkpt lat="43.64458" lon="3.3282">
        <ele>142</ele>
        <time>2021-06-05T09:14:18Z</time>
      </trkpt>
      <trkpt lat="43.64456" lon="3.32815">
        <ele>142</ele>
        <time>2021-06-05T09:14:19Z</time>
      </trkpt>
      <trkpt lat="43.64455" lon="3.3281">
        <ele>142</ele>
        <time>2021-06-05T09:14:20Z</time>
      </trkpt>
      <trkpt lat="43.64453" lon="3.32806">
        <ele>142</ele>
        <time>2021-06-05T09:14:21Z</time>
      </trkpt>
      <trkpt lat="43.64451" lon="3.32805">
        <ele>142</ele>
        <time>2021-06-05T09:14:22Z</time>
      </trkpt>
      <trkpt lat="43.64449" lon="3.32802">
        <ele>142</ele>
        <time>2021-06-05T09:14:23Z</time>
      </trkpt>
      <trkpt lat="43.64449" lon="3.32797">
        <ele>142</ele>
        <time>2021-06-05T09:14:24Z</time>
      </trkpt>
      <trkpt lat="43.64447" lon="3.32794">
        <ele>142</ele>
        <time>2021-06-05T09:14:25Z</time>
      </trkpt>
      <trkpt lat="43.64445" lon="3.32791">
        <ele>142</ele>
        <time>2021-06-05T09:14:26Z</time>
      </trkpt>
      <trkpt lat="43.64443" lon="3.32789">
        <ele>142</ele>
        <time>2021-06-05T09:14:27Z</time>
      </trkpt>
      <trkpt lat="43.6444" lon="3.32788">
        <ele>142</ele>
        <time>2021-06-05T09:14:28Z</time>
      </trkpt>
      <trkpt lat="43.64437" lon="3.32787">
        <ele>142</ele>
        <time>2021-06-05T09:14:29Z</time>
      </trkpt>
      <trkpt lat="43.64435" lon="3.32787">
        <ele>142</ele>
        <time>2021-06-05T09:14:30Z</time>
      </trkpt>
      <trkpt lat="43.64432" lon="3.32787">
        <ele>142</ele>
        <time>2021-06-05T09:14:31Z</time>
      </trkpt>
      <trkpt lat="43.64429" lon="3.32788">
        <ele>142</ele>
        <time>2021-06-05T09:14:32Z</time>
      </trkpt>
      <trkpt lat="43.64427" lon="3.32789">
        <ele>142</ele>
        <time>2021-06-05T09:14:33Z</time>
      </trkpt>
      <trkpt lat="43.64424" lon="3.32789">
        <ele>142</ele>
        <time>2021-06-05T09:14:34Z</time>
      </trkpt>
      <trkpt lat="43.64421" lon="3.3279">
        <ele>142</ele>
        <time>2021-06-05T09:14:35Z</time>
      </trkpt>
      <trkpt lat="43.64418" lon="3.32791">
        <ele>142</ele>
        <time>2021-06-05T09:14:36Z</time>
      </trkpt>
      <trkpt lat="43.64415" lon="3.32791">
        <ele>142</ele>
        <time>2021-06-05T09:14:37Z</time>
      </trkpt>
      <trkpt lat="43.64411" lon="3.32791">
        <ele>142</ele>
        <time>2021-06-05T09:14:38Z</time>
      </trkpt>
      <trkpt lat="43.64409" lon="3.32791">
        <ele>142</ele>
        <time>2021-06-05T09:14:39Z</time>
      </trkpt>
      <trkpt lat="43.64406" lon="3.32791">
        <ele>142</ele>
        <time>2021-06-05T09:14:40Z</time>
      </trkpt>
      <trkpt lat="43.64402" lon="3.3279">
        <ele>142</ele>
        <time>2021-06-05T09:14:41Z</time>
      </trkpt>
      <trkpt lat="43.64399" lon="3.32789">
        <ele>142</ele>
        <time>2021-06-05T09:14:42Z</time>
      </trkpt>
      <trkpt lat="43.64396" lon="3.32787">
        <ele>142</ele>
        <time>2021-06-05T09:14:43Z</time>
      </trkpt>
      <trkpt lat="43.64393" lon="3.32786">
        <ele>142</ele>
        <time>2021-06-05T09:14:44Z</time>
      </trkpt>
      <trkpt lat="43.64391" lon="3.32783">
        <ele>142</ele>
        <time>2021-06-05T09:14:45Z</time>
      </trkpt>
      <trkpt lat="43.64388" lon="3.3278">
        <ele>142</ele>
        <time>2021-06-05T09:14:46Z</time>
      </trkpt>
      <trkpt lat="43.64385" lon="3.32777">
        <ele>142</ele>
        <time>2021-06-05T09:14:47Z</time>
      </trkpt>
      <trkpt lat="43.64382" lon="3.32775">
        <ele>142</ele>
        <time>2021-06-05T09:14:48Z</time>
      </trkpt>
      <trkpt lat="43.64378" lon="3.32773">
        <ele>142</ele>
        <time>2021-06-05T09:14:49Z</time>
      </trkpt>
      <trkpt lat="43.64375" lon="3.32772">
        <ele>142</ele>
        <time>2021-06-05T09:14:50Z</time>
      </trkpt>
      <trkpt lat="43.64372" lon="3.32771">
        <ele>142</ele>
        <time>2021-06-05T09:14:51Z</time>
      </trkpt>
      <trkpt lat="43.64368" lon="3.3277">
        <ele>143</ele>
        <time>2021-06-05T09:14:52Z</time>
      </trkpt>
      <trkpt lat="43.64364" lon="3.3277">
        <ele>143</ele>
        <time>2021-06-05T09:14:53Z</time>
      </trkpt>
      <trkpt lat="43.64361" lon="3.3277">
        <ele>143</ele>
        <time>2021-06-05T09:14:54Z</time>
      </trkpt>
      <trkpt lat="43.64358" lon="3.32769">
        <ele>143</ele>
        <time>2021-06-05T09:14:55Z</time>
      </trkpt>
      <trkpt lat="43.64354" lon="3.32768">
        <ele>143</ele>
        <time>2021-06-05T09:14:56Z</time>
      </trkpt>
      <trkpt lat="43.6435" lon="3.32767">
        <ele>143</ele>
        <time>2021-06-05T09:14:57Z</time>
      </trkpt>
      <trkpt lat="43.64346" lon="3.32765">
        <ele>143</ele>
        <time>2021-06-05T09:14:58Z</time>
      </trkpt>
      <trkpt lat="43.64342" lon="3.32764">
        <ele>143</ele>
        <time>2021-06-05T09:14:59Z</time>
      </trkpt>
      <trkpt lat="43.64338" lon="3.32762">
        <ele>143</ele>
        <time>2021-06-05T09:15:00Z</time>
      </trkpt>
      <trkpt lat="43.64334" lon="3.32763">
        <ele>143</ele>
        <time>2021-06-05T09:15:01Z</time>
      </trkpt>
      <trkpt lat="43.6433" lon="3.32765">
        <ele>144</ele>
        <time>2021-06-05T09:15:02Z</time>
      </trkpt>
      <trkpt lat="43.64327" lon="3.32768">
        <ele>144</ele>
        <time>2021-06-05T09:15:03Z</time>
      </trkpt>
      <trkpt lat="43.64324" lon="3.32773">
        <ele>144</ele>
        <time>2021-06-05T09:15:04Z</time>
      </trkpt>
      <trkpt lat="43.64321" lon="3.32777">
        <ele>144</ele>
        <time>2021-06-05T09:15:05Z</time>
      </trkpt>
      <trkpt lat="43.64317" lon="3.3278">
        <ele>144</ele>
        <time>2021-06-05T09:15:06Z</time>
      </trkpt>
      <trkpt lat="43.64313" lon="3.32781">
        <ele>144</ele>
        <time>2021-06-05T09:15:07Z</time>
      </trkpt>
      <trkpt lat="43.6431" lon="3.3278">
        <ele>144</ele>
        <time>2021-06-05T09:15:08Z</time>
      </trkpt>
      <trkpt lat="43.64307" lon="3.32778">
        <ele>144</ele>
        <time>2021-06-05T09:15:09Z</time>
      </trkpt>
      <trkpt lat="43.64306" lon="3.32773">
        <ele>144</ele>
        <time>2021-06-05T09:15:10Z</time>
      </trkpt>
      <trkpt lat="43.64303" lon="3.32768">
        <ele>144</ele>
        <time>2021-06-05T09:15:11Z</time>
      </trkpt>
      <trkpt lat="43.64302" lon="3.32762">
        <ele>143</ele>
        <time>2021-06-05T09:15:12Z</time>
      </trkpt>
      <trkpt lat="43.643" lon="3.32758">
        <ele>143</ele>
        <time>2021-06-05T09:15:13Z</time>
      </trkpt>
      <trkpt lat="43.64298" lon="3.32756">
        <ele>143</ele>
        <time>2021-06-05T09:15:14Z</time>
      </trkpt>
      <trkpt lat="43.64294" lon="3.32755">
        <ele>143</ele>
        <time>2021-06-05T09:15:15Z</time>
      </trkpt>
      <trkpt lat="43.64291" lon="3.32756">
        <ele>143</ele>
        <time>2021-06-05T09:15:16Z</time>
      </trkpt>
      <trkpt lat="43.64286" lon="3.32758">
        <ele>143</ele>
        <time>2021-06-05T09:15:17Z</time>
      </trkpt>
      <trkpt lat="43.64283" lon="3.32757">
        <ele>143</ele>
        <time>2021-06-05T09:15:18Z</time>
      </trkpt>
      <trkpt lat="43.64281" lon="3.32754">
        <ele>143</ele>
        <time>2021-06-05T09:15:19Z</time>
      </trkpt>
      <trkpt lat="43.64279" lon="3.32751">
        <ele>143</ele>
        <time>2021-06-05T09:15:20Z</time>
      </trkpt>
      <trkpt lat="43.64277" lon="3.32748">
        <ele>143</ele>
        <time>2021-06-05T09:15:21Z</time>
      </trkpt>
      <trkpt lat="43.64274" lon="3.32745">
        <ele>142</ele>
        <time>2021-06-05T09:15:22Z</time>
      </trkpt>
      <trkpt lat="43.64271" lon="3.32743">
        <ele>142</ele>
        <time>2021-06-05T09:15:23Z</time>
      </trkpt>
      <trkpt lat="43.64268" lon="3.32743">
        <ele>142</ele>
        <time>2021-06-05T09:15:24Z</time>
      </trkpt>
      <trkpt lat="43.64265" lon="3.32742">
        <ele>142</ele>
        <time>2021-06-05T09:15:25Z</time>
      </trkpt>
      <trkpt lat="43.64262" lon="3.32742">
        <ele>142</ele>
        <time>2021-06-05T09:15:26Z</time>
      </trkpt>
      <trkpt lat="43.64259" lon="3.32741">
        <ele>142</ele>
        <time>2021-06-05T09:15:27Z</time>
      </trkpt>
      <trkpt lat="43.64256" lon="3.32738">
        <ele>142</ele>
        <time>2021-06-05T09:15:28Z</time>
      </trkpt>
      <trkpt lat="43.64253" lon="3.32736">
        <ele>142</ele>
        <time>2021-06-05T09:15:29Z</time>
      </trkpt>
      <trkpt lat="43.6425" lon="3.32733">
        <ele>142</ele>
        <time>2021-06-05T09:15:30Z</time>
      </trkpt>
      <trkpt lat="43.64247" lon="3.3273">
        <ele>142</ele>
        <time>2021-06-05T09:15:31Z</time>
      </trkpt>
      <trkpt lat="43.64244" lon="3.32728">
        <ele>142</ele>
        <time>2021-06-05T09:15:32Z</time>
      </trkpt>
      <trkpt lat="43.6424" lon="3.32726">
        <ele>142</ele>
        <time>2021-06-05T09:15:33Z</time>
      </trkpt>
      <trkpt lat="43.64238" lon="3.32724">
        <ele>142</ele>
        <time>2021-06-05T09:15:34Z</time>
      </trkpt>
      <trkpt lat="43.64236" lon="3.32723">
        <ele>142</ele>
        <time>2021-06-05T09:15:35Z</time>
      </trkpt>
      <trkpt lat="43.64233" lon="3.32723">
        <ele>142</ele>
        <time>2021-06-05T09:15:37Z</time>
      </trkpt>
      <trkpt lat="43.6423" lon="3.32723">
        <ele>142</ele>
        <time>2021-06-05T09:15:39Z</time>
      </trkpt>
      <trkpt lat="43.64227" lon="3.32722">
        <ele>142</ele>
        <time>2021-06-05T09:15:40Z</time>
      </trkpt>
      <trkpt lat="43.64224" lon="3.32721">
        <ele>142</ele>
        <time>2021-06-05T09:15:41Z</time>
      </trkpt>
      <trkpt lat="43.64222" lon="3.32721">
        <ele>142</ele>
        <time>2021-06-05T09:15:42Z</time>
      </trkpt>
      <trkpt lat="43.64219" lon="3.32722">
        <ele>142</ele>
        <time>2021-06-05T09:15:43Z</time>
      </trkpt>
      <trkpt lat="43.64217" lon="3.32723">
        <ele>142</ele>
        <time>2021-06-05T09:15:44Z</time>
      </trkpt>
      <trkpt lat="43.64213" lon="3.32725">
        <ele>142</ele>
        <time>2021-06-05T09:15:46Z</time>
      </trkpt>
      <trkpt lat="43.64211" lon="3.32723">
        <ele>142</ele>
        <time>2021-06-05T09:15:47Z</time>
      </trkpt>
      <trkpt lat="43.64208" lon="3.3272">
        <ele>142</ele>
        <time>2021-06-05T09:15:48Z</time>
      </trkpt>
      <trkpt lat="43.64206" lon="3.32717">
        <ele>142</ele>
        <time>2021-06-05T09:15:49Z</time>
      </trkpt>
      <trkpt lat="43.64202" lon="3.32712">
        <ele>142</ele>
        <time>2021-06-05T09:15:50Z</time>
      </trkpt>
      <trkpt lat="43.642" lon="3.32707">
        <ele>142</ele>
        <time>2021-06-05T09:15:51Z</time>
      </trkpt>
      <trkpt lat="43.64196" lon="3.32702">
        <ele>143</ele>
        <time>2021-06-05T09:15:52Z</time>
      </trkpt>
      <trkpt lat="43.64192" lon="3.32697">
        <ele>143</ele>
        <time>2021-06-05T09:15:53Z</time>
      </trkpt>
      <trkpt lat="43.6419" lon="3.32693">
        <ele>143</ele>
        <time>2021-06-05T09:15:54Z</time>
      </trkpt>
      <trkpt lat="43.6419" lon="3.3269">
        <ele>143</ele>
        <time>2021-06-05T09:15:55Z</time>
      </trkpt>
      <trkpt lat="43.64191" lon="3.32686">
        <ele>143</ele>
        <time>2021-06-05T09:15:57Z</time>
      </trkpt>
      <trkpt lat="43.64192" lon="3.32682">
        <ele>143</ele>
        <time>2021-06-05T09:15:59Z</time>
      </trkpt>
      <trkpt lat="43.64192" lon="3.3268">
        <ele>143</ele>
        <time>2021-06-05T09:16:01Z</time>
      </trkpt>
      <trkpt lat="43.64192" lon="3.32677">
        <ele>143</ele>
        <time>2021-06-05T09:16:03Z</time>
      </trkpt>
      <trkpt lat="43.64192" lon="3.32673">
        <ele>143</ele>
        <time>2021-06-05T09:17:12Z</time>
      </trkpt>
      <trkpt lat="43.64192" lon="3.32672">
        <ele>144</ele>
        <time>2021-06-05T09:17:20Z</time>
      </trkpt>
      <trkpt lat="43.6419" lon="3.32665">
        <ele>144</ele>
        <time>2021-06-05T09:17:37Z</time>
      </trkpt>
      <trkpt lat="43.6419" lon="3.32663">
        <ele>144</ele>
        <time>2021-06-05T09:17:38Z</time>
      </trkpt>
      <trkpt lat="43.6419" lon="3.32661">
        <ele>144</ele>
        <time>2021-06-05T09:17:39Z</time>
      </trkpt>
      <trkpt lat="43.6419" lon="3.32655">
        <ele>144</ele>
        <time>2021-06-05T09:17:40Z</time>
      </trkpt>
      <trkpt lat="43.6419" lon="3.32653">
        <ele>144</ele>
        <time>2021-06-05T09:17:42Z</time>
      </trkpt>
      <trkpt lat="43.6419" lon="3.32649">
        <ele>144</ele>
        <time>2021-06-05T09:17:44Z</time>
      </trkpt>
      <trkpt lat="43.6419" lon="3.32646">
        <ele>144</ele>
        <time>2021-06-05T09:17:46Z</time>
      </trkpt>
      <trkpt lat="43.6419" lon="3.32644">
        <ele>145</ele>
        <time>2021-06-05T09:17:47Z</time>
      </trkpt>
      <trkpt lat="43.6419" lon="3.3264">
        <ele>145</ele>
        <time>2021-06-05T09:17:50Z</time>
      </trkpt>
      <trkpt lat="43.64189" lon="3.32637">
        <ele>145</ele>
        <time>2021-06-05T09:17:52Z</time>
      </trkpt>
      <trkpt lat="43.6419" lon="3.32634">
        <ele>145</ele>
        <time>2021-06-05T09:17:55Z</time>
      </trkpt>
      <trkpt lat="43.6419" lon="3.32631">
        <ele>144</ele>
        <time>2021-06-05T09:17:59Z</time>
      </trkpt>
      <trkpt lat="43.64191" lon="3.32629">
        <ele>145</ele>
        <time>2021-06-05T09:18:09Z</time>
      </trkpt>
      <trkpt lat="43.64204" lon="3.32569">
        <ele>146</ele>
        <time>2021-06-05T09:18:17Z</time>
      </trkpt>
      <trkpt lat="43.64205" lon="3.32566">
        <ele>146</ele>
        <time>2021-06-05T09:18:17Z</time>
      </trkpt>
      <trkpt lat="43.64206" lon="3.32563">
        <ele>146</ele>
        <time>2021-06-05T09:18:18Z</time>
      </trkpt>
      <trkpt lat="43.64207" lon="3.32559">
        <ele>146</ele>
        <time>2021-06-05T09:18:19Z</time>
      </trkpt>
      <trkpt lat="43.64208" lon="3.32555">
        <ele>146</ele>
        <time>2021-06-05T09:18:20Z</time>
      </trkpt>
      <trkpt lat="43.6419" lon="3.32621">
        <ele>146</ele>
        <time>2021-06-05T09:18:21Z</time>
      </trkpt>
      <trkpt lat="43.6419" lon="3.32619">
        <ele>146</ele>
        <time>2021-06-05T09:18:21Z</time>
      </trkpt>
      <trkpt lat="43.64209" lon="3.32552">
        <ele>146</ele>
        <time>2021-06-05T09:18:21Z</time>
      </trkpt>
      <trkpt lat="43.6419" lon="3.32616">
        <ele>146</ele>
        <time>2021-06-05T09:18:22Z</time>
      </trkpt>
      <trkpt lat="43.6421" lon="3.32548">
        <ele>146</ele>
        <time>2021-06-05T09:18:22Z</time>
      </trkpt>
      <trkpt lat="43.64191" lon="3.32613">
        <ele>146</ele>
        <time>2021-06-05T09:18:23Z</time>
      </trkpt>
      <trkpt lat="43.64211" lon="3.32545">
        <ele>146</ele>
        <time>2021-06-05T09:18:23Z</time>
      </trkpt>
      <trkpt lat="43.64191" lon="3.32609">
        <ele>146</ele>
        <time>2021-06-05T09:18:23Z</time>
      </trkpt>
      <trkpt lat="43.64212" lon="3.32541">
        <ele>146</ele>
        <time>2021-06-05T09:18:24Z</time>
      </trkpt>
      <trkpt lat="43.64192" lon="3.32606">
        <ele>146</ele>
        <time>2021-06-05T09:18:24Z</time>
      </trkpt>
      <trkpt lat="43.64213" lon="3.32537">
        <ele>146</ele>
        <time>2021-06-05T09:18:25Z</time>
      </trkpt>
      <trkpt lat="43.64193" lon="3.32603">
        <ele>146</ele>
        <time>2021-06-05T09:18:25Z</time>
      </trkpt>
      <trkpt lat="43.64214" lon="3.32534">
        <ele>146</ele>
        <time>2021-06-05T09:18:26Z</time>
      </trkpt>
      <trkpt lat="43.64194" lon="3.326">
        <ele>146</ele>
        <time>2021-06-05T09:18:26Z</time>
      </trkpt>
      <trkpt lat="43.64215" lon="3.3253">
        <ele>145</ele>
        <time>2021-06-05T09:18:27Z</time>
      </trkpt>
      <trkpt lat="43.64195" lon="3.32596">
        <ele>146</ele>
        <time>2021-06-05T09:18:27Z</time>
      </trkpt>
      <trkpt lat="43.64216" lon="3.32527">
        <ele>145</ele>
        <time>2021-06-05T09:18:28Z</time>
      </trkpt>
      <trkpt lat="43.64196" lon="3.32593">
        <ele>146</ele>
        <time>2021-06-05T09:18:28Z</time>
      </trkpt>
      <trkpt lat="43.64217" lon="3.32523">
        <ele>145</ele>
        <time>2021-06-05T09:18:29Z</time>
      </trkpt>
      <trkpt lat="43.64198" lon="3.3259">
        <ele>146</ele>
        <time>2021-06-05T09:18:30Z</time>
      </trkpt>
      <trkpt lat="43.64217" lon="3.32519">
        <ele>145</ele>
        <time>2021-06-05T09:18:30Z</time>
      </trkpt>
      <trkpt lat="43.64199" lon="3.32587">
        <ele>146</ele>
        <time>2021-06-05T09:18:31Z</time>
      </trkpt>
      <trkpt lat="43.64218" lon="3.32515">
        <ele>145</ele>
        <time>2021-06-05T09:18:31Z</time>
      </trkpt>
      <trkpt lat="43.642" lon="3.32583">
        <ele>146</ele>
        <time>2021-06-05T09:18:32Z</time>
      </trkpt>
      <trkpt lat="43.6422" lon="3.32511">
        <ele>145</ele>
        <time>2021-06-05T09:18:32Z</time>
      </trkpt>
      <trkpt lat="43.64202" lon="3.3258">
        <ele>146</ele>
        <time>2021-06-05T09:18:33Z</time>
      </trkpt>
      <trkpt lat="43.64221" lon="3.32507">
        <ele>145</ele>
        <time>2021-06-05T09:18:33Z</time>
      </trkpt>
      <trkpt lat="43.64203" lon="3.32578">
        <ele>146</ele>
        <time>2021-06-05T09:18:34Z</time>
      </trkpt>
      <trkpt lat="43.64222" lon="3.32503">
        <ele>145</ele>
        <time>2021-06-05T09:18:34Z</time>
      </trkpt>
      <trkpt lat="43.64222" lon="3.32499">
        <ele>145</ele>
        <time>2021-06-05T09:18:35Z</time>
      </trkpt>
      <trkpt lat="43.64223" lon="3.32495">
        <ele>145</ele>
        <time>2021-06-05T09:18:36Z</time>
      </trkpt>
      <trkpt lat="43.64224" lon="3.32493">
        <ele>144</ele>
        <time>2021-06-05T09:18:37Z</time>
      </trkpt>
      <trkpt lat="43.64225" lon="3.32492">
        <ele>144</ele>
        <time>2021-06-05T09:18:38Z</time>
      </trkpt>
      <trkpt lat="43.64227" lon="3.3249">
        <ele>144</ele>
        <time>2021-06-05T09:18:39Z</time>
      </trkpt>
      <trkpt lat="43.64229" lon="3.32489">
        <ele>144</ele>
        <time>2021-06-05T09:18:40Z</time>
      </trkpt>
      <trkpt lat="43.6423" lon="3.32486">
        <ele>144</ele>
        <time>2021-06-05T09:18:41Z</time>
      </trkpt>
      <trkpt lat="43.64203" lon="3.32577">
        <ele>146</ele>
        <time>2021-06-05T09:18:41Z</time>
      </trkpt>
      <trkpt lat="43.64231" lon="3.32484">
        <ele>144</ele>
        <time>2021-06-05T09:18:42Z</time>
      </trkpt>
      <trkpt lat="43.64232" lon="3.32481">
        <ele>144</ele>
        <time>2021-06-05T09:18:43Z</time>
      </trkpt>
      <trkpt lat="43.64233" lon="3.32477">
        <ele>144</ele>
        <time>2021-06-05T09:18:44Z</time>
      </trkpt>
      <trkpt lat="43.64234" lon="3.32474">
        <ele>144</ele>
        <time>2021-06-05T09:18:45Z</time>
      </trkpt>
      <trkpt lat="43.64236" lon="3.3247">
        <ele>144</ele>
        <time>2021-06-05T09:18:46Z</time>
      </trkpt>
      <trkpt lat="43.64237" lon="3.32465">
        <ele>144</ele>
        <time>2021-06-05T09:18:47Z</time>
      </trkpt>
      <trkpt lat="43.64239" lon="3.32461">
        <ele>144</ele>
        <time>2021-06-05T09:18:48Z</time>
      </trkpt>
      <trkpt lat="43.6424" lon="3.32457">
        <ele>144</ele>
        <time>2021-06-05T09:18:49Z</time>
      </trkpt>
      <trkpt lat="43.64242" lon="3.32453">
        <ele>144</ele>
        <time>2021-06-05T09:18:50Z</time>
      </trkpt>
      <trkpt lat="43.64243" lon="3.32449">
        <ele>144</ele>
        <time>2021-06-05T09:18:51Z</time>
      </trkpt>
      <trkpt lat="43.64245" lon="3.32445">
        <ele>144</ele>
        <time>2021-06-05T09:18:52Z</time>
      </trkpt>
      <trkpt lat="43.64247" lon="3.3244">
        <ele>144</ele>
        <time>2021-06-05T09:18:53Z</time>
      </trkpt>
      <trkpt lat="43.64248" lon="3.32436">
        <ele>144</ele>
        <time>2021-06-05T09:18:54Z</time>
      </trkpt>
      <trkpt lat="43.6425" lon="3.32431">
        <ele>144</ele>
        <time>2021-06-05T09:18:55Z</time>
      </trkpt>
      <trkpt lat="43.64251" lon="3.32427">
        <ele>144</ele>
        <time>2021-06-05T09:18:56Z</time>
      </trkpt>
      <trkpt lat="43.64253" lon="3.32422">
        <ele>144</ele>
        <time>2021-06-05T09:18:57Z</time>
      </trkpt>
      <trkpt lat="43.64254" lon="3.32418">
        <ele>144</ele>
        <time>2021-06-05T09:18:58Z</time>
      </trkpt>
      <trkpt lat="43.64256" lon="3.32413">
        <ele>144</ele>
        <time>2021-06-05T09:18:59Z</time>
      </trkpt>
      <trkpt lat="43.64257" lon="3.32409">
        <ele>144</ele>
        <time>2021-06-05T09:19:00Z</time>
      </trkpt>
      <trkpt lat="43.64258" lon="3.32405">
        <ele>144</ele>
        <time>2021-06-05T09:19:01Z</time>
      </trkpt>
      <trkpt lat="43.64259" lon="3.32401">
        <ele>144</ele>
        <time>2021-06-05T09:19:02Z</time>
      </trkpt>
      <trkpt lat="43.6426" lon="3.32397">
        <ele>144</ele>
        <time>2021-06-05T09:19:03Z</time>
      </trkpt>
      <trkpt lat="43.64261" lon="3.32393">
        <ele>144</ele>
        <time>2021-06-05T09:19:04Z</time>
      </trkpt>
      <trkpt lat="43.64262" lon="3.3239">
        <ele>144</ele>
        <time>2021-06-05T09:19:05Z</time>
      </trkpt>
      <trkpt lat="43.64264" lon="3.32386">
        <ele>144</ele>
        <time>2021-06-05T09:19:06Z</time>
      </trkpt>
      <trkpt lat="43.64265" lon="3.32382">
        <ele>145</ele>
        <time>2021-06-05T09:19:07Z</time>
      </trkpt>
      <trkpt lat="43.64267" lon="3.32378">
        <ele>145</ele>
        <time>2021-06-05T09:19:08Z</time>
      </trkpt>
      <trkpt lat="43.64269" lon="3.32375">
        <ele>145</ele>
        <time>2021-06-05T09:19:09Z</time>
      </trkpt>
      <trkpt lat="43.64271" lon="3.32372">
        <ele>145</ele>
        <time>2021-06-05T09:19:10Z</time>
      </trkpt>
      <trkpt lat="43.64274" lon="3.32369">
        <ele>145</ele>
        <time>2021-06-05T09:19:11Z</time>
      </trkpt>
      <trkpt lat="43.64276" lon="3.32366">
        <ele>145</ele>
        <time>2021-06-05T09:19:12Z</time>
      </trkpt>
      <trkpt lat="43.64278" lon="3.32363">
        <ele>145</ele>
        <time>2021-06-05T09:19:13Z</time>
      </trkpt>
      <trkpt lat="43.64281" lon="3.3236">
        <ele>145</ele>
        <time>2021-06-05T09:19:14Z</time>
      </trkpt>
      <trkpt lat="43.64283" lon="3.32358">
        <ele>145</ele>
        <time>2021-06-05T09:19:15Z</time>
      </trkpt>
      <trkpt lat="43.64286" lon="3.32355">
        <ele>145</ele>
        <time>2021-06-05T09:19:16Z</time>
      </trkpt>
      <trkpt lat="43.64289" lon="3.32352">
        <ele>146</ele>
        <time>2021-06-05T09:19:17Z</time>
      </trkpt>
      <trkpt lat="43.64291" lon="3.32349">
        <ele>146</ele>
        <time>2021-06-05T09:19:18Z</time>
      </trkpt>
      <trkpt lat="43.64293" lon="3.32345">
        <ele>146</ele>
        <time>2021-06-05T09:19:19Z</time>
      </trkpt>
      <trkpt lat="43.64295" lon="3.32342">
        <ele>146</ele>
        <time>2021-06-05T09:19:20Z</time>
      </trkpt>
      <trkpt lat="43.64298" lon="3.32339">
        <ele>146</ele>
        <time>2021-06-05T09:19:21Z</time>
      </trkpt>
      <trkpt lat="43.643" lon="3.32335">
        <ele>146</ele>
        <time>2021-06-05T09:19:22Z</time>
      </trkpt>
      <trkpt lat="43.64302" lon="3.32331">
        <ele>146</ele>
        <time>2021-06-05T09:19:23Z</time>
      </trkpt>
      <trkpt lat="43.64304" lon="3.32327">
        <ele>146</ele>
        <time>2021-06-05T09:19:24Z</time>
      </trkpt>
      <trkpt lat="43.64306" lon="3.32324">
        <ele>146</ele>
        <time>2021-06-05T09:19:25Z</time>
      </trkpt>
      <trkpt lat="43.64307" lon="3.3232">
        <ele>146</ele>
        <time>2021-06-05T09:19:26Z</time>
      </trkpt>
      <trkpt lat="43.64309" lon="3.32317">
        <ele>147</ele>
        <time>2021-06-05T09:19:27Z</time>
      </trkpt>
      <trkpt lat="43.6431" lon="3.32313">
        <ele>147</ele>
        <time>2021-06-05T09:19:28Z</time>
      </trkpt>
      <trkpt lat="43.64312" lon="3.32309">
        <ele>147</ele>
        <time>2021-06-05T09:19:29Z</time>
      </trkpt>
      <trkpt lat="43.64314" lon="3.32305">
        <ele>147</ele>
        <time>2021-06-05T09:19:30Z</time>
      </trkpt>
      <trkpt lat="43.64315" lon="3.32301">
        <ele>147</ele>
        <time>2021-06-05T09:19:31Z</time>
      </trkpt>
      <trkpt lat="43.64315" lon="3.32296">
        <ele>147</ele>
        <time>2021-06-05T09:19:32Z</time>
      </trkpt>
      <trkpt lat="43.64316" lon="3.32291">
        <ele>147</ele>
        <time>2021-06-05T09:19:33Z</time>
      </trkpt>
      <trkpt lat="43.64316" lon="3.32286">
        <ele>147</ele>
        <time>2021-06-05T09:19:34Z</time>
      </trkpt>
      <trkpt lat="43.64316" lon="3.32281">
        <ele>147</ele>
        <time>2021-06-05T09:19:35Z</time>
      </trkpt>
      <trkpt lat="43.64317" lon="3.32276">
        <ele>147</ele>
        <time>2021-06-05T09:19:36Z</time>
      </trkpt>
      <trkpt lat="43.64317" lon="3.32271">
        <ele>147</ele>
        <time>2021-06-05T09:19:37Z</time>
      </trkpt>
      <trkpt lat="43.64317" lon="3.32266">
        <ele>147</ele>
        <time>2021-06-05T09:19:38Z</time>
      </trkpt>
      <trkpt lat="43.64317" lon="3.32262">
        <ele>147</ele>
        <time>2021-06-05T09:19:39Z</time>
      </trkpt>
      <trkpt lat="43.64317" lon="3.32257">
        <ele>147</ele>
        <time>2021-06-05T09:19:40Z</time>
      </trkpt>
      <trkpt lat="43.64317" lon="3.32252">
        <ele>147</ele>
        <time>2021-06-05T09:19:41Z</time>
      </trkpt>
      <trkpt lat="43.64317" lon="3.32247">
        <ele>147</ele>
        <time>2021-06-05T09:19:42Z</time>
      </trkpt>
      <trkpt lat="43.64317" lon="3.32241">
        <ele>147</ele>
        <time>2021-06-05T09:19:43Z</time>
      </trkpt>
      <trkpt lat="43.64317" lon="3.32237">
        <ele>147</ele>
        <time>2021-06-05T09:19:44Z</time>
      </trkpt>
      <trkpt lat="43.64318" lon="3.32232">
        <ele>147</ele>
        <time>2021-06-05T09:19:45Z</time>
      </trkpt>
      <trkpt lat="43.64318" lon="3.32227">
        <ele>147</ele>
        <time>2021-06-05T09:19:46Z</time>
      </trkpt>
      <trkpt lat="43.64319" lon="3.32222">
        <ele>148</ele>
        <time>2021-06-05T09:19:47Z</time>
      </trkpt>
      <trkpt lat="43.6432" lon="3.32217">
        <ele>148</ele>
        <time>2021-06-05T09:19:48Z</time>
      </trkpt>
      <trkpt lat="43.6432" lon="3.32212">
        <ele>148</ele>
        <time>2021-06-05T09:19:49Z</time>
      </trkpt>
      <trkpt lat="43.64321" lon="3.32207">
        <ele>148</ele>
        <time>2021-06-05T09:19:50Z</time>
      </trkpt>
      <trkpt lat="43.64322" lon="3.32202">
        <ele>148</ele>
        <time>2021-06-05T09:19:51Z</time>
      </trkpt>
      <trkpt lat="43.64322" lon="3.32197">
        <ele>148</ele>
        <time>2021-06-05T09:19:52Z</time>
      </trkpt>
      <trkpt lat="43.64323" lon="3.32193">
        <ele>148</ele>
        <time>2021-06-05T09:19:53Z</time>
      </trkpt>
      <trkpt lat="43.64324" lon="3.32189">
        <ele>148</ele>
        <time>2021-06-05T09:19:54Z</time>
      </trkpt>
      <trkpt lat="43.64325" lon="3.32185">
        <ele>148</ele>
        <time>2021-06-05T09:19:55Z</time>
      </trkpt>
      <trkpt lat="43.64325" lon="3.32181">
        <ele>148</ele>
        <time>2021-06-05T09:19:56Z</time>
      </trkpt>
      <trkpt lat="43.64326" lon="3.32176">
        <ele>148</ele>
        <time>2021-06-05T09:19:57Z</time>
      </trkpt>
      <trkpt lat="43.64325" lon="3.32171">
        <ele>148</ele>
        <time>2021-06-05T09:19:58Z</time>
      </trkpt>
      <trkpt lat="43.64325" lon="3.32167">
        <ele>148</ele>
        <time>2021-06-05T09:19:59Z</time>
      </trkpt>
      <trkpt lat="43.64324" lon="3.32162">
        <ele>148</ele>
        <time>2021-06-05T09:20:00Z</time>
      </trkpt>
      <trkpt lat="43.64323" lon="3.32158">
        <ele>148</ele>
        <time>2021-06-05T09:20:01Z</time>
      </trkpt>
      <trkpt lat="43.64323" lon="3.32153">
        <ele>148</ele>
        <time>2021-06-05T09:20:02Z</time>
      </trkpt>
      <trkpt lat="43.64322" lon="3.32149">
        <ele>148</ele>
        <time>2021-06-05T09:20:03Z</time>
      </trkpt>
      <trkpt lat="43.64321" lon="3.32144">
        <ele>148</ele>
        <time>2021-06-05T09:20:04Z</time>
      </trkpt>
      <trkpt lat="43.6432" lon="3.3214">
        <ele>148</ele>
        <time>2021-06-05T09:20:05Z</time>
      </trkpt>
      <trkpt lat="43.64319" lon="3.32136">
        <ele>148</ele>
        <time>2021-06-05T09:20:06Z</time>
      </trkpt>
      <trkpt lat="43.64319" lon="3.32132">
        <ele>148</ele>
        <time>2021-06-05T09:20:07Z</time>
      </trkpt>
      <trkpt lat="43.64318" lon="3.32128">
        <ele>148</ele>
        <time>2021-06-05T09:20:08Z</time>
      </trkpt>
      <trkpt lat="43.64317" lon="3.32124">
        <ele>148</ele>
        <time>2021-06-05T09:20:09Z</time>
      </trkpt>
      <trkpt lat="43.64316" lon="3.3212">
        <ele>148</ele>
        <time>2021-06-05T09:20:10Z</time>
      </trkpt>
      <trkpt lat="43.64315" lon="3.32115">
        <ele>148</ele>
        <time>2021-06-05T09:20:11Z</time>
      </trkpt>
      <trkpt lat="43.64314" lon="3.32111">
        <ele>148</ele>
        <time>2021-06-05T09:20:12Z</time>
      </trkpt>
      <trkpt lat="43.64314" lon="3.32106">
        <ele>148</ele>
        <time>2021-06-05T09:20:13Z</time>
      </trkpt>
      <trkpt lat="43.64313" lon="3.32102">
        <ele>148</ele>
        <time>2021-06-05T09:20:14Z</time>
      </trkpt>
      <trkpt lat="43.64312" lon="3.32097">
        <ele>148</ele>
        <time>2021-06-05T09:20:15Z</time>
      </trkpt>
      <trkpt lat="43.64311" lon="3.32093">
        <ele>148</ele>
        <time>2021-06-05T09:20:16Z</time>
      </trkpt>
      <trkpt lat="43.64311" lon="3.32088">
        <ele>149</ele>
        <time>2021-06-05T09:20:17Z</time>
      </trkpt>
      <trkpt lat="43.64311" lon="3.32083">
        <ele>149</ele>
        <time>2021-06-05T09:20:18Z</time>
      </trkpt>
      <trkpt lat="43.64312" lon="3.32078">
        <ele>149</ele>
        <time>2021-06-05T09:20:19Z</time>
      </trkpt>
      <trkpt lat="43.64312" lon="3.32074">
        <ele>149</ele>
        <time>2021-06-05T09:20:20Z</time>
      </trkpt>
      <trkpt lat="43.64313" lon="3.32069">
        <ele>149</ele>
        <time>2021-06-05T09:20:21Z</time>
      </trkpt>
      <trkpt lat="43.64314" lon="3.32064">
        <ele>149</ele>
        <time>2021-06-05T09:20:22Z</time>
      </trkpt>
      <trkpt lat="43.64316" lon="3.32059">
        <ele>149</ele>
        <time>2021-06-05T09:20:23Z</time>
      </trkpt>
      <trkpt lat="43.64317" lon="3.32054">
        <ele>149</ele>
        <time>2021-06-05T09:20:24Z</time>
      </trkpt>
      <trkpt lat="43.64318" lon="3.3205">
        <ele>149</ele>
        <time>2021-06-05T09:20:25Z</time>
      </trkpt>
      <trkpt lat="43.6432" lon="3.32045">
        <ele>149</ele>
        <time>2021-06-05T09:20:26Z</time>
      </trkpt>
      <trkpt lat="43.64321" lon="3.3204">
        <ele>149</ele>
        <time>2021-06-05T09:20:27Z</time>
      </trkpt>
      <trkpt lat="43.64323" lon="3.32036">
        <ele>149</ele>
        <time>2021-06-05T09:20:28Z</time>
      </trkpt>
      <trkpt lat="43.64323" lon="3.32032">
        <ele>149</ele>
        <time>2021-06-05T09:20:29Z</time>
      </trkpt>
      <trkpt lat="43.64325" lon="3.32028">
        <ele>149</ele>
        <time>2021-06-05T09:20:30Z</time>
      </trkpt>
      <trkpt lat="43.64326" lon="3.32025">
        <ele>149</ele>
        <time>2021-06-05T09:20:31Z</time>
      </trkpt>
      <trkpt lat="43.64328" lon="3.32021">
        <ele>149</ele>
        <time>2021-06-05T09:20:32Z</time>
      </trkpt>
      <trkpt lat="43.6433" lon="3.32017">
        <ele>149</ele>
        <time>2021-06-05T09:20:33Z</time>
      </trkpt>
      <trkpt lat="43.64332" lon="3.32013">
        <ele>149</ele>
        <time>2021-06-05T09:20:34Z</time>
      </trkpt>
      <trkpt lat="43.64333" lon="3.32008">
        <ele>149</ele>
        <time>2021-06-05T09:20:35Z</time>
      </trkpt>
      <trkpt lat="43.64335" lon="3.32004">
        <ele>149</ele>
        <time>2021-06-05T09:20:36Z</time>
      </trkpt>
      <trkpt lat="43.64336" lon="3.32">
        <ele>149</ele>
        <time>2021-06-05T09:20:37Z</time>
      </trkpt>
      <trkpt lat="43.64337" lon="3.31995">
        <ele>149</ele>
        <time>2021-06-05T09:20:38Z</time>
      </trkpt>
      <trkpt lat="43.64338" lon="3.31991">
        <ele>149</ele>
        <time>2021-06-05T09:20:39Z</time>
      </trkpt>
      <trkpt lat="43.64339" lon="3.31987">
        <ele>149</ele>
        <time>2021-06-05T09:20:40Z</time>
      </trkpt>
      <trkpt lat="43.6434" lon="3.31982">
        <ele>149</ele>
        <time>2021-06-05T09:20:41Z</time>
      </trkpt>
      <trkpt lat="43.6434" lon="3.31979">
        <ele>149</ele>
        <time>2021-06-05T09:20:42Z</time>
      </trkpt>
      <trkpt lat="43.6434" lon="3.31975">
        <ele>149</ele>
        <time>2021-06-05T09:20:43Z</time>
      </trkpt>
      <trkpt lat="43.64339" lon="3.31972">
        <ele>149</ele>
        <time>2021-06-05T09:20:44Z</time>
      </trkpt>
      <trkpt lat="43.64338" lon="3.31969">
        <ele>149</ele>
        <time>2021-06-05T09:20:45Z</time>
      </trkpt>
      <trkpt lat="43.64338" lon="3.31966">
        <ele>149</ele>
        <time>2021-06-05T09:20:46Z</time>
      </trkpt>
      <trkpt lat="43.64337" lon="3.31963">
        <ele>151</ele>
        <time>2021-06-05T09:20:47Z</time>
      </trkpt>
      <trkpt lat="43.64337" lon="3.31959">
        <ele>151</ele>
        <time>2021-06-05T09:20:48Z</time>
      </trkpt>
      <trkpt lat="43.64336" lon="3.31956">
        <ele>151</ele>
        <time>2021-06-05T09:20:49Z</time>
      </trkpt>
      <trkpt lat="43.64336" lon="3.31953">
        <ele>151</ele>
        <time>2021-06-05T09:20:50Z</time>
      </trkpt>
      <trkpt lat="43.64336" lon="3.3195">
        <ele>151</ele>
        <time>2021-06-05T09:20:51Z</time>
      </trkpt>
      <trkpt lat="43.64336" lon="3.31946">
        <ele>151</ele>
        <time>2021-06-05T09:20:52Z</time>
      </trkpt>
      <trkpt lat="43.64336" lon="3.31943">
        <ele>151</ele>
        <time>2021-06-05T09:20:53Z</time>
      </trkpt>
      <trkpt lat="43.64337" lon="3.31939">
        <ele>151</ele>
        <time>2021-06-05T09:20:54Z</time>
      </trkpt>
      <trkpt lat="43.64337" lon="3.31936">
        <ele>151</ele>
        <time>2021-06-05T09:20:55Z</time>
      </trkpt>
      <trkpt lat="43.64337" lon="3.31931">
        <ele>151</ele>
        <time>2021-06-05T09:20:56Z</time>
      </trkpt>
      <trkpt lat="43.64337" lon="3.31927">
        <ele>152</ele>
        <time>2021-06-05T09:20:57Z</time>
      </trkpt>
      <trkpt lat="43.64338" lon="3.31923">
        <ele>152</ele>
        <time>2021-06-05T09:20:58Z</time>
      </trkpt>
      <trkpt lat="43.64338" lon="3.31919">
        <ele>152</ele>
        <time>2021-06-05T09:20:59Z</time>
      </trkpt>
      <trkpt lat="43.6434" lon="3.31915">
        <ele>152</ele>
        <time>2021-06-05T09:21:00Z</time>
      </trkpt>
      <trkpt lat="43.64341" lon="3.31911">
        <ele>152</ele>
        <time>2021-06-05T09:21:01Z</time>
      </trkpt>
      <trkpt lat="43.64342" lon="3.31908">
        <ele>152</ele>
        <time>2021-06-05T09:21:02Z</time>
      </trkpt>
      <trkpt lat="43.64343" lon="3.31904">
        <ele>152</ele>
        <time>2021-06-05T09:21:03Z</time>
      </trkpt>
      <trkpt lat="43.64345" lon="3.319">
        <ele>152</ele>
        <time>2021-06-05T09:21:04Z</time>
      </trkpt>
      <trkpt lat="43.64346" lon="3.31896">
        <ele>152</ele>
        <time>2021-06-05T09:21:05Z</time>
      </trkpt>
      <trkpt lat="43.64347" lon="3.31892">
        <ele>152</ele>
        <time>2021-06-05T09:21:06Z</time>
      </trkpt>
      <trkpt lat="43.64348" lon="3.31889">
        <ele>152</ele>
        <time>2021-06-05T09:21:07Z</time>
      </trkpt>
      <trkpt lat="43.64349" lon="3.31885">
        <ele>152</ele>
        <time>2021-06-05T09:21:08Z</time>
      </trkpt>
      <trkpt lat="43.6435" lon="3.31881">
        <ele>152</ele>
        <time>2021-06-05T09:21:09Z</time>
      </trkpt>
      <trkpt lat="43.64351" lon="3.31877">
        <ele>152</ele>
        <time>2021-06-05T09:21:10Z</time>
      </trkpt>
      <trkpt lat="43.64352" lon="3.31873">
        <ele>152</ele>
        <time>2021-06-05T09:21:11Z</time>
      </trkpt>
      <trkpt lat="43.64353" lon="3.31869">
        <ele>152</ele>
        <time>2021-06-05T09:21:12Z</time>
      </trkpt>
      <trkpt lat="43.64354" lon="3.31866">
        <ele>152</ele>
        <time>2021-06-05T09:21:13Z</time>
      </trkpt>
      <trkpt lat="43.64356" lon="3.31862">
        <ele>152</ele>
        <time>2021-06-05T09:21:14Z</time>
      </trkpt>
      <trkpt lat="43.64358" lon="3.31859">
        <ele>152</ele>
        <time>2021-06-05T09:21:15Z</time>
      </trkpt>
      <trkpt lat="43.64359" lon="3.31856">
        <ele>152</ele>
        <time>2021-06-05T09:21:16Z</time>
      </trkpt>
      <trkpt lat="43.64359" lon="3.31853">
        <ele>153</ele>
        <time>2021-06-05T09:21:17Z</time>
      </trkpt>
      <trkpt lat="43.6436" lon="3.31849">
        <ele>153</ele>
        <time>2021-06-05T09:21:18Z</time>
      </trkpt>
      <trkpt lat="43.64362" lon="3.31847">
        <ele>153</ele>
        <time>2021-06-05T09:21:19Z</time>
      </trkpt>
      <trkpt lat="43.64363" lon="3.31843">
        <ele>153</ele>
        <time>2021-06-05T09:21:20Z</time>
      </trkpt>
      <trkpt lat="43.64364" lon="3.3184">
        <ele>153</ele>
        <time>2021-06-05T09:21:21Z</time>
      </trkpt>
      <trkpt lat="43.64365" lon="3.31837">
        <ele>153</ele>
        <time>2021-06-05T09:21:22Z</time>
      </trkpt>
      <trkpt lat="43.64366" lon="3.31834">
        <ele>153</ele>
        <time>2021-06-05T09:21:23Z</time>
      </trkpt>
      <trkpt lat="43.64367" lon="3.31831">
        <ele>153</ele>
        <time>2021-06-05T09:21:24Z</time>
      </trkpt>
      <trkpt lat="43.64368" lon="3.31828">
        <ele>153</ele>
        <time>2021-06-05T09:21:25Z</time>
      </trkpt>
      <trkpt lat="43.6437" lon="3.31826">
        <ele>153</ele>
        <time>2021-06-05T09:21:26Z</time>
      </trkpt>
      <trkpt lat="43.6437" lon="3.31823">
        <ele>153</ele>
        <time>2021-06-05T09:21:27Z</time>
      </trkpt>
      <trkpt lat="43.64371" lon="3.31819">
        <ele>153</ele>
        <time>2021-06-05T09:21:28Z</time>
      </trkpt>
      <trkpt lat="43.64373" lon="3.31816">
        <ele>153</ele>
        <time>2021-06-05T09:21:29Z</time>
      </trkpt>
      <trkpt lat="43.64375" lon="3.31813">
        <ele>153</ele>
        <time>2021-06-05T09:21:30Z</time>
      </trkpt>
      <trkpt lat="43.64376" lon="3.31809">
        <ele>153</ele>
        <time>2021-06-05T09:21:31Z</time>
      </trkpt>
      <trkpt lat="43.64377" lon="3.31806">
        <ele>153</ele>
        <time>2021-06-05T09:21:32Z</time>
      </trkpt>
      <trkpt lat="43.64379" lon="3.31802">
        <ele>153</ele>
        <time>2021-06-05T09:21:33Z</time>
      </trkpt>
      <trkpt lat="43.6438" lon="3.31799">
        <ele>153</ele>
        <time>2021-06-05T09:21:34Z</time>
      </trkpt>
      <trkpt lat="43.64382" lon="3.31796">
        <ele>153</ele>
        <time>2021-06-05T09:21:35Z</time>
      </trkpt>
      <trkpt lat="43.64384" lon="3.31792">
        <ele>153</ele>
        <time>2021-06-05T09:21:36Z</time>
      </trkpt>
      <trkpt lat="43.64385" lon="3.31789">
        <ele>154</ele>
        <time>2021-06-05T09:21:37Z</time>
      </trkpt>
      <trkpt lat="43.64385" lon="3.31786">
        <ele>154</ele>
        <time>2021-06-05T09:21:38Z</time>
      </trkpt>
      <trkpt lat="43.64385" lon="3.31783">
        <ele>154</ele>
        <time>2021-06-05T09:21:39Z</time>
      </trkpt>
      <trkpt lat="43.64385" lon="3.3178">
        <ele>154</ele>
        <time>2021-06-05T09:21:40Z</time>
      </trkpt>
      <trkpt lat="43.64384" lon="3.31777">
        <ele>154</ele>
        <time>2021-06-05T09:21:41Z</time>
      </trkpt>
      <trkpt lat="43.64383" lon="3.31775">
        <ele>154</ele>
        <time>2021-06-05T09:21:42Z</time>
      </trkpt>
      <trkpt lat="43.64381" lon="3.31773">
        <ele>154</ele>
        <time>2021-06-05T09:21:43Z</time>
      </trkpt>
      <trkpt lat="43.64379" lon="3.31772">
        <ele>154</ele>
        <time>2021-06-05T09:21:44Z</time>
      </trkpt>
      <trkpt lat="43.64376" lon="3.31771">
        <ele>154</ele>
        <time>2021-06-05T09:21:46Z</time>
      </trkpt>
      <trkpt lat="43.64374" lon="3.3177">
        <ele>155</ele>
        <time>2021-06-05T09:21:47Z</time>
      </trkpt>
      <trkpt lat="43.64371" lon="3.3177">
        <ele>155</ele>
        <time>2021-06-05T09:21:48Z</time>
      </trkpt>
      <trkpt lat="43.64368" lon="3.31768">
        <ele>155</ele>
        <time>2021-06-05T09:21:49Z</time>
      </trkpt>
      <trkpt lat="43.64367" lon="3.31767">
        <ele>155</ele>
        <time>2021-06-05T09:21:50Z</time>
      </trkpt>
      <trkpt lat="43.64364" lon="3.31764">
        <ele>155</ele>
        <time>2021-06-05T09:21:52Z</time>
      </trkpt>
      <trkpt lat="43.64362" lon="3.31761">
        <ele>155</ele>
        <time>2021-06-05T09:21:54Z</time>
      </trkpt>
      <trkpt lat="43.6436" lon="3.31757">
        <ele>155</ele>
        <time>2021-06-05T09:21:56Z</time>
      </trkpt>
      <trkpt lat="43.6436" lon="3.31752">
        <ele>156</ele>
        <time>2021-06-05T09:21:58Z</time>
      </trkpt>
      <trkpt lat="43.6436" lon="3.31748">
        <ele>156</ele>
        <time>2021-06-05T09:22:00Z</time>
      </trkpt>
      <trkpt lat="43.6436" lon="3.31743">
        <ele>156</ele>
        <time>2021-06-05T09:22:02Z</time>
      </trkpt>
      <trkpt lat="43.6436" lon="3.31741">
        <ele>156</ele>
        <time>2021-06-05T09:22:03Z</time>
      </trkpt>
      <trkpt lat="43.64361" lon="3.31738">
        <ele>156</ele>
        <time>2021-06-05T09:22:04Z</time>
      </trkpt>
      <trkpt lat="43.64362" lon="3.31736">
        <ele>156</ele>
        <time>2021-06-05T09:22:05Z</time>
      </trkpt>
      <trkpt lat="43.64362" lon="3.31733">
        <ele>156</ele>
        <time>2021-06-05T09:22:06Z</time>
      </trkpt>
      <trkpt lat="43.64363" lon="3.3173">
        <ele>157</ele>
        <time>2021-06-05T09:22:07Z</time>
      </trkpt>
      <trkpt lat="43.64364" lon="3.31727">
        <ele>157</ele>
        <time>2021-06-05T09:22:08Z</time>
      </trkpt>
      <trkpt lat="43.64364" lon="3.31725">
        <ele>157</ele>
        <time>2021-06-05T09:22:09Z</time>
      </trkpt>
      <trkpt lat="43.64365" lon="3.31722">
        <ele>157</ele>
        <time>2021-06-05T09:22:10Z</time>
      </trkpt>
      <trkpt lat="43.64366" lon="3.3172">
        <ele>157</ele>
        <time>2021-06-05T09:22:11Z</time>
      </trkpt>
      <trkpt lat="43.64367" lon="3.31717">
        <ele>157</ele>
        <time>2021-06-05T09:22:12Z</time>
      </trkpt>
      <trkpt lat="43.64368" lon="3.31715">
        <ele>157</ele>
        <time>2021-06-05T09:22:13Z</time>
      </trkpt>
      <trkpt lat="43.64368" lon="3.31712">
        <ele>157</ele>
        <time>2021-06-05T09:22:14Z</time>
      </trkpt>
      <trkpt lat="43.64369" lon="3.3171">
        <ele>157</ele>
        <time>2021-06-05T09:22:15Z</time>
      </trkpt>
      <trkpt lat="43.6437" lon="3.31707">
        <ele>157</ele>
        <time>2021-06-05T09:22:16Z</time>
      </trkpt>
      <trkpt lat="43.64372" lon="3.31703">
        <ele>158</ele>
        <time>2021-06-05T09:22:17Z</time>
      </trkpt>
      <trkpt lat="43.64374" lon="3.317">
        <ele>158</ele>
        <time>2021-06-05T09:22:18Z</time>
      </trkpt>
      <trkpt lat="43.64375" lon="3.31696">
        <ele>158</ele>
        <time>2021-06-05T09:22:19Z</time>
      </trkpt>
      <trkpt lat="43.64376" lon="3.31693">
        <ele>158</ele>
        <time>2021-06-05T09:22:20Z</time>
      </trkpt>
      <trkpt lat="43.64377" lon="3.31688">
        <ele>158</ele>
        <time>2021-06-05T09:22:21Z</time>
      </trkpt>
      <trkpt lat="43.64378" lon="3.31685">
        <ele>158</ele>
        <time>2021-06-05T09:22:22Z</time>
      </trkpt>
      <trkpt lat="43.64379" lon="3.31681">
        <ele>158</ele>
        <time>2021-06-05T09:22:23Z</time>
      </trkpt>
      <trkpt lat="43.64379" lon="3.31676">
        <ele>158</ele>
        <time>2021-06-05T09:22:24Z</time>
      </trkpt>
      <trkpt lat="43.6438" lon="3.31673">
        <ele>158</ele>
        <time>2021-06-05T09:22:25Z</time>
      </trkpt>
      <trkpt lat="43.64381" lon="3.31669">
        <ele>158</ele>
        <time>2021-06-05T09:22:26Z</time>
      </trkpt>
      <trkpt lat="43.64381" lon="3.31665">
        <ele>158</ele>
        <time>2021-06-05T09:22:27Z</time>
      </trkpt>
      <trkpt lat="43.64381" lon="3.31661">
        <ele>158</ele>
        <time>2021-06-05T09:22:28Z</time>
      </trkpt>
      <trkpt lat="43.64381" lon="3.31656">
        <ele>158</ele>
        <time>2021-06-05T09:22:29Z</time>
      </trkpt>
      <trkpt lat="43.64381" lon="3.3165">
        <ele>158</ele>
        <time>2021-06-05T09:22:30Z</time>
      </trkpt>
      <trkpt lat="43.64382" lon="3.31646">
        <ele>158</ele>
        <time>2021-06-05T09:22:31Z</time>
      </trkpt>
      <trkpt lat="43.64382" lon="3.31641">
        <ele>158</ele>
        <time>2021-06-05T09:22:32Z</time>
      </trkpt>
      <trkpt lat="43.64383" lon="3.31636">
        <ele>158</ele>
        <time>2021-06-05T09:22:33Z</time>
      </trkpt>
      <trkpt lat="43.64383" lon="3.31631">
        <ele>158</ele>
        <time>2021-06-05T09:22:34Z</time>
      </trkpt>
      <trkpt lat="43.64384" lon="3.31626">
        <ele>158</ele>
        <time>2021-06-05T09:22:35Z</time>
      </trkpt>
      <trkpt lat="43.64384" lon="3.31622">
        <ele>158</ele>
        <time>2021-06-05T09:22:36Z</time>
      </trkpt>
      <trkpt lat="43.64385" lon="3.31617">
        <ele>158</ele>
        <time>2021-06-05T09:22:37Z</time>
      </trkpt>
      <trkpt lat="43.64386" lon="3.31612">
        <ele>158</ele>
        <time>2021-06-05T09:22:38Z</time>
      </trkpt>
      <trkpt lat="43.64386" lon="3.31607">
        <ele>158</ele>
        <time>2021-06-05T09:22:39Z</time>
      </trkpt>
      <trkpt lat="43.64387" lon="3.31602">
        <ele>158</ele>
        <time>2021-06-05T09:22:40Z</time>
      </trkpt>
      <trkpt lat="43.64389" lon="3.31597">
        <ele>158</ele>
        <time>2021-06-05T09:22:41Z</time>
      </trkpt>
      <trkpt lat="43.6439" lon="3.31592">
        <ele>158</ele>
        <time>2021-06-05T09:22:42Z</time>
      </trkpt>
      <trkpt lat="43.64391" lon="3.31587">
        <ele>158</ele>
        <time>2021-06-05T09:22:43Z</time>
      </trkpt>
      <trkpt lat="43.64392" lon="3.31582">
        <ele>158</ele>
        <time>2021-06-05T09:22:44Z</time>
      </trkpt>
      <trkpt lat="43.64394" lon="3.31577">
        <ele>158</ele>
        <time>2021-06-05T09:22:45Z</time>
      </trkpt>
      <trkpt lat="43.64395" lon="3.31572">
        <ele>158</ele>
        <time>2021-06-05T09:22:46Z</time>
      </trkpt>
      <trkpt lat="43.64396" lon="3.31567">
        <ele>159</ele>
        <time>2021-06-05T09:22:47Z</time>
      </trkpt>
      <trkpt lat="43.64398" lon="3.31562">
        <ele>159</ele>
        <time>2021-06-05T09:22:48Z</time>
      </trkpt>
      <trkpt lat="43.64399" lon="3.31558">
        <ele>159</ele>
        <time>2021-06-05T09:22:49Z</time>
      </trkpt>
      <trkpt lat="43.64399" lon="3.31553">
        <ele>159</ele>
        <time>2021-06-05T09:22:50Z</time>
      </trkpt>
      <trkpt lat="43.64401" lon="3.3155">
        <ele>159</ele>
        <time>2021-06-05T09:22:51Z</time>
      </trkpt>
      <trkpt lat="43.64402" lon="3.31546">
        <ele>159</ele>
        <time>2021-06-05T09:22:52Z</time>
      </trkpt>
      <trkpt lat="43.64404" lon="3.31542">
        <ele>159</ele>
        <time>2021-06-05T09:22:53Z</time>
      </trkpt>
      <trkpt lat="43.64405" lon="3.31539">
        <ele>159</ele>
        <time>2021-06-05T09:22:54Z</time>
      </trkpt>
      <trkpt lat="43.64405" lon="3.31534">
        <ele>159</ele>
        <time>2021-06-05T09:22:55Z</time>
      </trkpt>
      <trkpt lat="43.64406" lon="3.31531">
        <ele>159</ele>
        <time>2021-06-05T09:22:56Z</time>
      </trkpt>
      <trkpt lat="43.64406" lon="3.31526">
        <ele>160</ele>
        <time>2021-06-05T09:22:57Z</time>
      </trkpt>
      <trkpt lat="43.64407" lon="3.31522">
        <ele>160</ele>
        <time>2021-06-05T09:22:58Z</time>
      </trkpt>
      <trkpt lat="43.64408" lon="3.31518">
        <ele>160</ele>
        <time>2021-06-05T09:22:59Z</time>
      </trkpt>
      <trkpt lat="43.64408" lon="3.31514">
        <ele>160</ele>
        <time>2021-06-05T09:23:00Z</time>
      </trkpt>
      <trkpt lat="43.64408" lon="3.3151">
        <ele>160</ele>
        <time>2021-06-05T09:23:01Z</time>
      </trkpt>
      <trkpt lat="43.64409" lon="3.31506">
        <ele>160</ele>
        <time>2021-06-05T09:23:02Z</time>
      </trkpt>
      <trkpt lat="43.64409" lon="3.31503">
        <ele>160</ele>
        <time>2021-06-05T09:23:03Z</time>
      </trkpt>
      <trkpt lat="43.64409" lon="3.31499">
        <ele>160</ele>
        <time>2021-06-05T09:23:04Z</time>
      </trkpt>
      <trkpt lat="43.64409" lon="3.31495">
        <ele>160</ele>
        <time>2021-06-05T09:23:05Z</time>
      </trkpt>
      <trkpt lat="43.64409" lon="3.31491">
        <ele>160</ele>
        <time>2021-06-05T09:23:06Z</time>
      </trkpt>
      <trkpt lat="43.64409" lon="3.31488">
        <ele>160</ele>
        <time>2021-06-05T09:23:07Z</time>
      </trkpt>
      <trkpt lat="43.64409" lon="3.31484">
        <ele>160</ele>
        <time>2021-06-05T09:23:08Z</time>
      </trkpt>
      <trkpt lat="43.64409" lon="3.3148">
        <ele>160</ele>
        <time>2021-06-05T09:23:09Z</time>
      </trkpt>
      <trkpt lat="43.64408" lon="3.31477">
        <ele>160</ele>
        <time>2021-06-05T09:23:10Z</time>
      </trkpt>
      <trkpt lat="43.64408" lon="3.31473">
        <ele>160</ele>
        <time>2021-06-05T09:23:11Z</time>
      </trkpt>
      <trkpt lat="43.64408" lon="3.31469">
        <ele>160</ele>
        <time>2021-06-05T09:23:12Z</time>
      </trkpt>
      <trkpt lat="43.64407" lon="3.31465">
        <ele>160</ele>
        <time>2021-06-05T09:23:13Z</time>
      </trkpt>
      <trkpt lat="43.64407" lon="3.31461">
        <ele>160</ele>
        <time>2021-06-05T09:23:14Z</time>
      </trkpt>
      <trkpt lat="43.64407" lon="3.31457">
        <ele>160</ele>
        <time>2021-06-05T09:23:15Z</time>
      </trkpt>
      <trkpt lat="43.64406" lon="3.31453">
        <ele>160</ele>
        <time>2021-06-05T09:23:16Z</time>
      </trkpt>
      <trkpt lat="43.64406" lon="3.31449">
        <ele>161</ele>
        <time>2021-06-05T09:23:17Z</time>
      </trkpt>
      <trkpt lat="43.64406" lon="3.31444">
        <ele>161</ele>
        <time>2021-06-05T09:23:18Z</time>
      </trkpt>
      <trkpt lat="43.64406" lon="3.3144">
        <ele>161</ele>
        <time>2021-06-05T09:23:19Z</time>
      </trkpt>
      <trkpt lat="43.64406" lon="3.31435">
        <ele>161</ele>
        <time>2021-06-05T09:23:20Z</time>
      </trkpt>
      <trkpt lat="43.64405" lon="3.31431">
        <ele>161</ele>
        <time>2021-06-05T09:23:21Z</time>
      </trkpt>
      <trkpt lat="43.64405" lon="3.31426">
        <ele>161</ele>
        <time>2021-06-05T09:23:22Z</time>
      </trkpt>
      <trkpt lat="43.64404" lon="3.31423">
        <ele>161</ele>
        <time>2021-06-05T09:23:23Z</time>
      </trkpt>
      <trkpt lat="43.64404" lon="3.31418">
        <ele>161</ele>
        <time>2021-06-05T09:23:24Z</time>
      </trkpt>
      <trkpt lat="43.64403" lon="3.31414">
        <ele>161</ele>
        <time>2021-06-05T09:23:25Z</time>
      </trkpt>
      <trkpt lat="43.64402" lon="3.3141">
        <ele>161</ele>
        <time>2021-06-05T09:23:26Z</time>
      </trkpt>
      <trkpt lat="43.64402" lon="3.31405">
        <ele>162</ele>
        <time>2021-06-05T09:23:27Z</time>
      </trkpt>
      <trkpt lat="43.64401" lon="3.31401">
        <ele>162</ele>
        <time>2021-06-05T09:23:28Z</time>
      </trkpt>
      <trkpt lat="43.64401" lon="3.31397">
        <ele>162</ele>
        <time>2021-06-05T09:23:29Z</time>
      </trkpt>
      <trkpt lat="43.64401" lon="3.31393">
        <ele>162</ele>
        <time>2021-06-05T09:23:30Z</time>
      </trkpt>
      <trkpt lat="43.64401" lon="3.31389">
        <ele>162</ele>
        <time>2021-06-05T09:23:31Z</time>
      </trkpt>
      <trkpt lat="43.644" lon="3.31384">
        <ele>162</ele>
        <time>2021-06-05T09:23:32Z</time>
      </trkpt>
      <trkpt lat="43.644" lon="3.3138">
        <ele>162</ele>
        <time>2021-06-05T09:23:33Z</time>
      </trkpt>
      <trkpt lat="43.64399" lon="3.31375">
        <ele>162</ele>
        <time>2021-06-05T09:23:34Z</time>
      </trkpt>
      <trkpt lat="43.64399" lon="3.3137">
        <ele>162</ele>
        <time>2021-06-05T09:23:35Z</time>
      </trkpt>
      <trkpt lat="43.64398" lon="3.31365">
        <ele>162</ele>
        <time>2021-06-05T09:23:36Z</time>
      </trkpt>
      <trkpt lat="43.64398" lon="3.31361">
        <ele>161</ele>
        <time>2021-06-05T09:23:37Z</time>
      </trkpt>
      <trkpt lat="43.64397" lon="3.31356">
        <ele>161</ele>
        <time>2021-06-05T09:23:38Z</time>
      </trkpt>
      <trkpt lat="43.64396" lon="3.31352">
        <ele>161</ele>
        <time>2021-06-05T09:23:39Z</time>
      </trkpt>
      <trkpt lat="43.64396" lon="3.31347">
        <ele>161</ele>
        <time>2021-06-05T09:23:40Z</time>
      </trkpt>
      <trkpt lat="43.64395" lon="3.31343">
        <ele>161</ele>
        <time>2021-06-05T09:23:41Z</time>
      </trkpt>
      <trkpt lat="43.64394" lon="3.31338">
        <ele>161</ele>
        <time>2021-06-05T09:23:42Z</time>
      </trkpt>
      <trkpt lat="43.64393" lon="3.31334">
        <ele>161</ele>
        <time>2021-06-05T09:23:43Z</time>
      </trkpt>
      <trkpt lat="43.64392" lon="3.3133">
        <ele>161</ele>
        <time>2021-06-05T09:23:44Z</time>
      </trkpt>
      <trkpt lat="43.64392" lon="3.31326">
        <ele>161</ele>
        <time>2021-06-05T09:23:45Z</time>
      </trkpt>
      <trkpt lat="43.6439" lon="3.31323">
        <ele>161</ele>
        <time>2021-06-05T09:23:46Z</time>
      </trkpt>
      <trkpt lat="43.64389" lon="3.3132">
        <ele>161</ele>
        <time>2021-06-05T09:23:47Z</time>
      </trkpt>
      <trkpt lat="43.64387" lon="3.31317">
        <ele>161</ele>
        <time>2021-06-05T09:23:48Z</time>
      </trkpt>
      <trkpt lat="43.64385" lon="3.31315">
        <ele>161</ele>
        <time>2021-06-05T09:23:49Z</time>
      </trkpt>
      <trkpt lat="43.64384" lon="3.31312">
        <ele>161</ele>
        <time>2021-06-05T09:23:50Z</time>
      </trkpt>
      <trkpt lat="43.64383" lon="3.31309">
        <ele>161</ele>
        <time>2021-06-05T09:23:51Z</time>
      </trkpt>
      <trkpt lat="43.64381" lon="3.31306">
        <ele>161</ele>
        <time>2021-06-05T09:23:52Z</time>
      </trkpt>
      <trkpt lat="43.6438" lon="3.31303">
        <ele>161</ele>
        <time>2021-06-05T09:23:53Z</time>
      </trkpt>
      <trkpt lat="43.64378" lon="3.313">
        <ele>161</ele>
        <time>2021-06-05T09:23:54Z</time>
      </trkpt>
      <trkpt lat="43.64377" lon="3.31298">
        <ele>161</ele>
        <time>2021-06-05T09:23:55Z</time>
      </trkpt>
      <trkpt lat="43.64376" lon="3.31295">
        <ele>161</ele>
        <time>2021-06-05T09:23:56Z</time>
      </trkpt>
      <trkpt lat="43.64374" lon="3.31291">
        <ele>162</ele>
        <time>2021-06-05T09:23:57Z</time>
      </trkpt>
      <trkpt lat="43.64373" lon="3.31289">
        <ele>162</ele>
        <time>2021-06-05T09:23:58Z</time>
      </trkpt>
      <trkpt lat="43.64371" lon="3.31286">
        <ele>162</ele>
        <time>2021-06-05T09:23:59Z</time>
      </trkpt>
      <trkpt lat="43.6437" lon="3.31283">
        <ele>162</ele>
        <time>2021-06-05T09:24:00Z</time>
      </trkpt>
      <trkpt lat="43.64368" lon="3.31281">
        <ele>162</ele>
        <time>2021-06-05T09:24:01Z</time>
      </trkpt>
      <trkpt lat="43.64367" lon="3.31278">
        <ele>162</ele>
        <time>2021-06-05T09:24:02Z</time>
      </trkpt>
      <trkpt lat="43.64366" lon="3.31275">
        <ele>162</ele>
        <time>2021-06-05T09:24:03Z</time>
      </trkpt>
      <trkpt lat="43.64365" lon="3.31272">
        <ele>162</ele>
        <time>2021-06-05T09:24:04Z</time>
      </trkpt>
      <trkpt lat="43.64363" lon="3.3127">
        <ele>162</ele>
        <time>2021-06-05T09:24:05Z</time>
      </trkpt>
      <trkpt lat="43.64362" lon="3.31267">
        <ele>162</ele>
        <time>2021-06-05T09:24:06Z</time>
      </trkpt>
      <trkpt lat="43.64361" lon="3.31264">
        <ele>164</ele>
        <time>2021-06-05T09:24:07Z</time>
      </trkpt>
      <trkpt lat="43.64359" lon="3.31261">
        <ele>164</ele>
        <time>2021-06-05T09:24:08Z</time>
      </trkpt>
      <trkpt lat="43.64358" lon="3.31258">
        <ele>164</ele>
        <time>2021-06-05T09:24:09Z</time>
      </trkpt>
      <trkpt lat="43.64356" lon="3.31255">
        <ele>164</ele>
        <time>2021-06-05T09:24:10Z</time>
      </trkpt>
      <trkpt lat="43.64355" lon="3.31252">
        <ele>164</ele>
        <time>2021-06-05T09:24:11Z</time>
      </trkpt>
      <trkpt lat="43.64354" lon="3.31249">
        <ele>164</ele>
        <time>2021-06-05T09:24:12Z</time>
      </trkpt>
      <trkpt lat="43.64352" lon="3.31246">
        <ele>164</ele>
        <time>2021-06-05T09:24:13Z</time>
      </trkpt>
      <trkpt lat="43.64351" lon="3.31243">
        <ele>164</ele>
        <time>2021-06-05T09:24:14Z</time>
      </trkpt>
      <trkpt lat="43.64349" lon="3.3124">
        <ele>164</ele>
        <time>2021-06-05T09:24:15Z</time>
      </trkpt>
      <trkpt lat="43.64348" lon="3.31237">
        <ele>164</ele>
        <time>2021-06-05T09:24:16Z</time>
      </trkpt>
      <trkpt lat="43.64347" lon="3.31234">
        <ele>165</ele>
        <time>2021-06-05T09:24:17Z</time>
      </trkpt>
      <trkpt lat="43.64345" lon="3.31231">
        <ele>165</ele>
        <time>2021-06-05T09:24:18Z</time>
      </trkpt>
      <trkpt lat="43.64344" lon="3.31228">
        <ele>165</ele>
        <time>2021-06-05T09:24:19Z</time>
      </trkpt>
      <trkpt lat="43.64343" lon="3.31225">
        <ele>165</ele>
        <time>2021-06-05T09:24:20Z</time>
      </trkpt>
      <trkpt lat="43.64342" lon="3.31222">
        <ele>165</ele>
        <time>2021-06-05T09:24:21Z</time>
      </trkpt>
      <trkpt lat="43.64341" lon="3.3122">
        <ele>165</ele>
        <time>2021-06-05T09:24:22Z</time>
      </trkpt>
      <trkpt lat="43.6434" lon="3.31217">
        <ele>165</ele>
        <time>2021-06-05T09:24:23Z</time>
      </trkpt>
      <trkpt lat="43.64338" lon="3.31214">
        <ele>165</ele>
        <time>2021-06-05T09:24:24Z</time>
      </trkpt>
      <trkpt lat="43.64338" lon="3.31211">
        <ele>165</ele>
        <time>2021-06-05T09:24:25Z</time>
      </trkpt>
      <trkpt lat="43.64336" lon="3.31208">
        <ele>165</ele>
        <time>2021-06-05T09:24:26Z</time>
      </trkpt>
      <trkpt lat="43.64335" lon="3.31205">
        <ele>166</ele>
        <time>2021-06-05T09:24:27Z</time>
      </trkpt>
      <trkpt lat="43.64333" lon="3.31202">
        <ele>166</ele>
        <time>2021-06-05T09:24:28Z</time>
      </trkpt>
      <trkpt lat="43.64332" lon="3.31199">
        <ele>166</ele>
        <time>2021-06-05T09:24:29Z</time>
      </trkpt>
      <trkpt lat="43.64331" lon="3.31196">
        <ele>166</ele>
        <time>2021-06-05T09:24:30Z</time>
      </trkpt>
      <trkpt lat="43.6433" lon="3.31193">
        <ele>166</ele>
        <time>2021-06-05T09:24:31Z</time>
      </trkpt>
      <trkpt lat="43.64329" lon="3.31189">
        <ele>166</ele>
        <time>2021-06-05T09:24:32Z</time>
      </trkpt>
      <trkpt lat="43.64328" lon="3.31186">
        <ele>166</ele>
        <time>2021-06-05T09:24:33Z</time>
      </trkpt>
      <trkpt lat="43.64326" lon="3.31182">
        <ele>166</ele>
        <time>2021-06-05T09:24:34Z</time>
      </trkpt>
      <trkpt lat="43.64325" lon="3.31178">
        <ele>166</ele>
        <time>2021-06-05T09:24:35Z</time>
      </trkpt>
      <trkpt lat="43.64324" lon="3.31174">
        <ele>166</ele>
        <time>2021-06-05T09:24:36Z</time>
      </trkpt>
      <trkpt lat="43.64323" lon="3.31171">
        <ele>166</ele>
        <time>2021-06-05T09:24:37Z</time>
      </trkpt>
      <trkpt lat="43.64322" lon="3.31167">
        <ele>166</ele>
        <time>2021-06-05T09:24:38Z</time>
      </trkpt>
      <trkpt lat="43.64321" lon="3.31163">
        <ele>166</ele>
        <time>2021-06-05T09:24:39Z</time>
      </trkpt>
      <trkpt lat="43.6432" lon="3.31159">
        <ele>166</ele>
        <time>2021-06-05T09:24:40Z</time>
      </trkpt>
      <trkpt lat="43.64319" lon="3.31155">
        <ele>166</ele>
        <time>2021-06-05T09:24:41Z</time>
      </trkpt>
      <trkpt lat="43.64318" lon="3.31151">
        <ele>166</ele>
        <time>2021-06-05T09:24:42Z</time>
      </trkpt>
      <trkpt lat="43.64316" lon="3.31146">
        <ele>166</ele>
        <time>2021-06-05T09:24:43Z</time>
      </trkpt>
      <trkpt lat="43.64315" lon="3.31142">
        <ele>166</ele>
        <time>2021-06-05T09:24:44Z</time>
      </trkpt>
      <trkpt lat="43.64314" lon="3.31137">
        <ele>166</ele>
        <time>2021-06-05T09:24:45Z</time>
      </trkpt>
      <trkpt lat="43.64313" lon="3.31132">
        <ele>166</ele>
        <time>2021-06-05T09:24:46Z</time>
      </trkpt>
      <trkpt lat="43.64312" lon="3.31128">
        <ele>166</ele>
        <time>2021-06-05T09:24:47Z</time>
      </trkpt>
      <trkpt lat="43.64311" lon="3.31124">
        <ele>166</ele>
        <time>2021-06-05T09:24:48Z</time>
      </trkpt>
      <trkpt lat="43.6431" lon="3.31119">
        <ele>166</ele>
        <time>2021-06-05T09:24:49Z</time>
      </trkpt>
      <trkpt lat="43.64309" lon="3.31115">
        <ele>166</ele>
        <time>2021-06-05T09:24:50Z</time>
      </trkpt>
      <trkpt lat="43.64307" lon="3.31111">
        <ele>166</ele>
        <time>2021-06-05T09:24:51Z</time>
      </trkpt>
      <trkpt lat="43.64307" lon="3.31107">
        <ele>166</ele>
        <time>2021-06-05T09:24:52Z</time>
      </trkpt>
      <trkpt lat="43.64305" lon="3.31103">
        <ele>166</ele>
        <time>2021-06-05T09:24:53Z</time>
      </trkpt>
      <trkpt lat="43.64304" lon="3.31099">
        <ele>166</ele>
        <time>2021-06-05T09:24:54Z</time>
      </trkpt>
      <trkpt lat="43.64303" lon="3.31095">
        <ele>166</ele>
        <time>2021-06-05T09:24:55Z</time>
      </trkpt>
      <trkpt lat="43.64302" lon="3.31091">
        <ele>166</ele>
        <time>2021-06-05T09:24:56Z</time>
      </trkpt>
      <trkpt lat="43.643" lon="3.31087">
        <ele>166</ele>
        <time>2021-06-05T09:24:57Z</time>
      </trkpt>
      <trkpt lat="43.64299" lon="3.31083">
        <ele>166</ele>
        <time>2021-06-05T09:24:58Z</time>
      </trkpt>
      <trkpt lat="43.64298" lon="3.31078">
        <ele>166</ele>
        <time>2021-06-05T09:24:59Z</time>
      </trkpt>
      <trkpt lat="43.64296" lon="3.31074">
        <ele>166</ele>
        <time>2021-06-05T09:25:00Z</time>
      </trkpt>
      <trkpt lat="43.64295" lon="3.3107">
        <ele>166</ele>
        <time>2021-06-05T09:25:01Z</time>
      </trkpt>
      <trkpt lat="43.64294" lon="3.31066">
        <ele>166</ele>
        <time>2021-06-05T09:25:02Z</time>
      </trkpt>
      <trkpt lat="43.64293" lon="3.31062">
        <ele>166</ele>
        <time>2021-06-05T09:25:03Z</time>
      </trkpt>
      <trkpt lat="43.64292" lon="3.31058">
        <ele>166</ele>
        <time>2021-06-05T09:25:04Z</time>
      </trkpt>
      <trkpt lat="43.64291" lon="3.31054">
        <ele>166</ele>
        <time>2021-06-05T09:25:05Z</time>
      </trkpt>
      <trkpt lat="43.6429" lon="3.3105">
        <ele>166</ele>
        <time>2021-06-05T09:25:06Z</time>
      </trkpt>
      <trkpt lat="43.64289" lon="3.31046">
        <ele>166</ele>
        <time>2021-06-05T09:25:07Z</time>
      </trkpt>
      <trkpt lat="43.64288" lon="3.31042">
        <ele>166</ele>
        <time>2021-06-05T09:25:08Z</time>
      </trkpt>
      <trkpt lat="43.64287" lon="3.31038">
        <ele>166</ele>
        <time>2021-06-05T09:25:09Z</time>
      </trkpt>
      <trkpt lat="43.64285" lon="3.31034">
        <ele>166</ele>
        <time>2021-06-05T09:25:10Z</time>
      </trkpt>
      <trkpt lat="43.64285" lon="3.3103">
        <ele>166</ele>
        <time>2021-06-05T09:25:11Z</time>
      </trkpt>
      <trkpt lat="43.64284" lon="3.31027">
        <ele>166</ele>
        <time>2021-06-05T09:25:12Z</time>
      </trkpt>
      <trkpt lat="43.64283" lon="3.31023">
        <ele>166</ele>
        <time>2021-06-05T09:25:13Z</time>
      </trkpt>
      <trkpt lat="43.64282" lon="3.3102">
        <ele>166</ele>
        <time>2021-06-05T09:25:14Z</time>
      </trkpt>
      <trkpt lat="43.64281" lon="3.31016">
        <ele>166</ele>
        <time>2021-06-05T09:25:15Z</time>
      </trkpt>
      <trkpt lat="43.6428" lon="3.31013">
        <ele>166</ele>
        <time>2021-06-05T09:25:16Z</time>
      </trkpt>
      <trkpt lat="43.64279" lon="3.3101">
        <ele>167</ele>
        <time>2021-06-05T09:25:17Z</time>
      </trkpt>
      <trkpt lat="43.64278" lon="3.31007">
        <ele>167</ele>
        <time>2021-06-05T09:25:18Z</time>
      </trkpt>
      <trkpt lat="43.64277" lon="3.31003">
        <ele>167</ele>
        <time>2021-06-05T09:25:19Z</time>
      </trkpt>
      <trkpt lat="43.64277" lon="3.31">
        <ele>167</ele>
        <time>2021-06-05T09:25:20Z</time>
      </trkpt>
      <trkpt lat="43.64276" lon="3.30996">
        <ele>167</ele>
        <time>2021-06-05T09:25:21Z</time>
      </trkpt>
      <trkpt lat="43.64275" lon="3.30993">
        <ele>167</ele>
        <time>2021-06-05T09:25:22Z</time>
      </trkpt>
      <trkpt lat="43.64275" lon="3.30989">
        <ele>167</ele>
        <time>2021-06-05T09:25:23Z</time>
      </trkpt>
      <trkpt lat="43.64274" lon="3.30986">
        <ele>167</ele>
        <time>2021-06-05T09:25:24Z</time>
      </trkpt>
      <trkpt lat="43.64274" lon="3.30982">
        <ele>167</ele>
        <time>2021-06-05T09:25:25Z</time>
      </trkpt>
      <trkpt lat="43.64273" lon="3.30978">
        <ele>167</ele>
        <time>2021-06-05T09:25:26Z</time>
      </trkpt>
      <trkpt lat="43.64272" lon="3.30974">
        <ele>168</ele>
        <time>2021-06-05T09:25:27Z</time>
      </trkpt>
      <trkpt lat="43.64271" lon="3.3097">
        <ele>168</ele>
        <time>2021-06-05T09:25:28Z</time>
      </trkpt>
      <trkpt lat="43.64271" lon="3.30966">
        <ele>168</ele>
        <time>2021-06-05T09:25:29Z</time>
      </trkpt>
      <trkpt lat="43.64271" lon="3.30962">
        <ele>168</ele>
        <time>2021-06-05T09:25:30Z</time>
      </trkpt>
      <trkpt lat="43.64271" lon="3.30958">
        <ele>168</ele>
        <time>2021-06-05T09:25:31Z</time>
      </trkpt>
      <trkpt lat="43.64271" lon="3.30954">
        <ele>168</ele>
        <time>2021-06-05T09:25:32Z</time>
      </trkpt>
      <trkpt lat="43.64271" lon="3.3095">
        <ele>168</ele>
        <time>2021-06-05T09:25:33Z</time>
      </trkpt>
      <trkpt lat="43.64271" lon="3.30946">
        <ele>168</ele>
        <time>2021-06-05T09:25:34Z</time>
      </trkpt>
      <trkpt lat="43.64271" lon="3.30942">
        <ele>168</ele>
        <time>2021-06-05T09:25:35Z</time>
      </trkpt>
      <trkpt lat="43.64271" lon="3.30939">
        <ele>168</ele>
        <time>2021-06-05T09:25:36Z</time>
      </trkpt>
      <trkpt lat="43.64271" lon="3.30935">
        <ele>168</ele>
        <time>2021-06-05T09:25:37Z</time>
      </trkpt>
      <trkpt lat="43.64271" lon="3.30932">
        <ele>168</ele>
        <time>2021-06-05T09:25:38Z</time>
      </trkpt>
      <trkpt lat="43.64271" lon="3.30929">
        <ele>168</ele>
        <time>2021-06-05T09:25:39Z</time>
      </trkpt>
      <trkpt lat="43.64271" lon="3.30926">
        <ele>168</ele>
        <time>2021-06-05T09:25:40Z</time>
      </trkpt>
      <trkpt lat="43.64271" lon="3.30922">
        <ele>168</ele>
        <time>2021-06-05T09:25:41Z</time>
      </trkpt>
      <trkpt lat="43.64271" lon="3.30919">
        <ele>168</ele>
        <time>2021-06-05T09:25:42Z</time>
      </trkpt>
      <trkpt lat="43.64271" lon="3.30916">
        <ele>168</ele>
        <time>2021-06-05T09:25:43Z</time>
      </trkpt>
      <trkpt lat="43.64271" lon="3.30912">
        <ele>168</ele>
        <time>2021-06-05T09:25:44Z</time>
      </trkpt>
      <trkpt lat="43.64271" lon="3.30909">
        <ele>168</ele>
        <time>2021-06-05T09:25:45Z</time>
      </trkpt>
      <trkpt lat="43.64271" lon="3.30905">
        <ele>168</ele>
        <time>2021-06-05T09:25:46Z</time>
      </trkpt>
      <trkpt lat="43.64271" lon="3.30901">
        <ele>168</ele>
        <time>2021-06-05T09:25:47Z</time>
      </trkpt>
      <trkpt lat="43.64271" lon="3.30898">
        <ele>168</ele>
        <time>2021-06-05T09:25:48Z</time>
      </trkpt>
      <trkpt lat="43.64271" lon="3.30895">
        <ele>168</ele>
        <time>2021-06-05T09:25:49Z</time>
      </trkpt>
      <trkpt lat="43.64271" lon="3.30892">
        <ele>168</ele>
        <time>2021-06-05T09:25:50Z</time>
      </trkpt>
      <trkpt lat="43.64272" lon="3.30889">
        <ele>168</ele>
        <time>2021-06-05T09:25:51Z</time>
      </trkpt>
      <trkpt lat="43.64272" lon="3.30886">
        <ele>168</ele>
        <time>2021-06-05T09:25:52Z</time>
      </trkpt>
      <trkpt lat="43.64272" lon="3.30883">
        <ele>168</ele>
        <time>2021-06-05T09:25:53Z</time>
      </trkpt>
      <trkpt lat="43.64272" lon="3.30879">
        <ele>168</ele>
        <time>2021-06-05T09:25:54Z</time>
      </trkpt>
      <trkpt lat="43.64272" lon="3.30875">
        <ele>168</ele>
        <time>2021-06-05T09:25:55Z</time>
      </trkpt>
      <trkpt lat="43.64272" lon="3.30872">
        <ele>168</ele>
        <time>2021-06-05T09:25:56Z</time>
      </trkpt>
      <trkpt lat="43.64271" lon="3.30868">
        <ele>168</ele>
        <time>2021-06-05T09:25:57Z</time>
      </trkpt>
      <trkpt lat="43.64271" lon="3.30864">
        <ele>168</ele>
        <time>2021-06-05T09:25:58Z</time>
      </trkpt>
      <trkpt lat="43.64271" lon="3.30861">
        <ele>168</ele>
        <time>2021-06-05T09:25:59Z</time>
      </trkpt>
      <trkpt lat="43.64271" lon="3.30858">
        <ele>168</ele>
        <time>2021-06-05T09:26:00Z</time>
      </trkpt>
      <trkpt lat="43.64271" lon="3.30855">
        <ele>168</ele>
        <time>2021-06-05T09:26:01Z</time>
      </trkpt>
      <trkpt lat="43.64271" lon="3.30851">
        <ele>168</ele>
        <time>2021-06-05T09:26:02Z</time>
      </trkpt>
      <trkpt lat="43.64271" lon="3.30848">
        <ele>168</ele>
        <time>2021-06-05T09:26:03Z</time>
      </trkpt>
      <trkpt lat="43.64271" lon="3.30845">
        <ele>168</ele>
        <time>2021-06-05T09:26:04Z</time>
      </trkpt>
      <trkpt lat="43.64273" lon="3.30842">
        <ele>168</ele>
        <time>2021-06-05T09:26:05Z</time>
      </trkpt>
      <trkpt lat="43.64275" lon="3.3084">
        <ele>168</ele>
        <time>2021-06-05T09:26:06Z</time>
      </trkpt>
      <trkpt lat="43.64278" lon="3.3084">
        <ele>168</ele>
        <time>2021-06-05T09:26:07Z</time>
      </trkpt>
      <trkpt lat="43.64282" lon="3.3084">
        <ele>168</ele>
        <time>2021-06-05T09:26:08Z</time>
      </trkpt>
      <trkpt lat="43.64285" lon="3.30841">
        <ele>168</ele>
        <time>2021-06-05T09:26:09Z</time>
      </trkpt>
      <trkpt lat="43.6429" lon="3.30841">
        <ele>168</ele>
        <time>2021-06-05T09:26:10Z</time>
      </trkpt>
      <trkpt lat="43.64294" lon="3.30842">
        <ele>168</ele>
        <time>2021-06-05T09:26:11Z</time>
      </trkpt>
      <trkpt lat="43.64298" lon="3.30843">
        <ele>168</ele>
        <time>2021-06-05T09:26:12Z</time>
      </trkpt>
      <trkpt lat="43.64303" lon="3.30845">
        <ele>168</ele>
        <time>2021-06-05T09:26:13Z</time>
      </trkpt>
      <trkpt lat="43.64309" lon="3.30846">
        <ele>168</ele>
        <time>2021-06-05T09:26:14Z</time>
      </trkpt>
      <trkpt lat="43.64315" lon="3.30848">
        <ele>168</ele>
        <time>2021-06-05T09:26:15Z</time>
      </trkpt>
      <trkpt lat="43.64321" lon="3.30849">
        <ele>168</ele>
        <time>2021-06-05T09:26:16Z</time>
      </trkpt>
      <trkpt lat="43.64326" lon="3.30851">
        <ele>166</ele>
        <time>2021-06-05T09:26:17Z</time>
      </trkpt>
      <trkpt lat="43.64332" lon="3.30852">
        <ele>166</ele>
        <time>2021-06-05T09:26:18Z</time>
      </trkpt>
      <trkpt lat="43.64338" lon="3.30853">
        <ele>166</ele>
        <time>2021-06-05T09:26:19Z</time>
      </trkpt>
      <trkpt lat="43.64345" lon="3.30854">
        <ele>166</ele>
        <time>2021-06-05T09:26:20Z</time>
      </trkpt>
      <trkpt lat="43.64351" lon="3.30855">
        <ele>166</ele>
        <time>2021-06-05T09:26:21Z</time>
      </trkpt>
      <trkpt lat="43.64358" lon="3.30856">
        <ele>166</ele>
        <time>2021-06-05T09:26:22Z</time>
      </trkpt>
      <trkpt lat="43.64364" lon="3.30856">
        <ele>166</ele>
        <time>2021-06-05T09:26:23Z</time>
      </trkpt>
      <trkpt lat="43.6437" lon="3.30857">
        <ele>166</ele>
        <time>2021-06-05T09:26:24Z</time>
      </trkpt>
      <trkpt lat="43.64376" lon="3.30857">
        <ele>166</ele>
        <time>2021-06-05T09:26:25Z</time>
      </trkpt>
      <trkpt lat="43.64381" lon="3.30857">
        <ele>166</ele>
        <time>2021-06-05T09:26:26Z</time>
      </trkpt>
      <trkpt lat="43.64387" lon="3.30857">
        <ele>164</ele>
        <time>2021-06-05T09:26:27Z</time>
      </trkpt>
      <trkpt lat="43.64392" lon="3.30857">
        <ele>164</ele>
        <time>2021-06-05T09:26:28Z</time>
      </trkpt>
      <trkpt lat="43.64396" lon="3.30858">
        <ele>164</ele>
        <time>2021-06-05T09:26:29Z</time>
      </trkpt>
      <trkpt lat="43.644" lon="3.30859">
        <ele>164</ele>
        <time>2021-06-05T09:26:30Z</time>
      </trkpt>
      <trkpt lat="43.64405" lon="3.3086">
        <ele>164</ele>
        <time>2021-06-05T09:26:31Z</time>
      </trkpt>
      <trkpt lat="43.64409" lon="3.3086">
        <ele>164</ele>
        <time>2021-06-05T09:26:32Z</time>
      </trkpt>
      <trkpt lat="43.64412" lon="3.30859">
        <ele>164</ele>
        <time>2021-06-05T09:26:33Z</time>
      </trkpt>
      <trkpt lat="43.64416" lon="3.30858">
        <ele>164</ele>
        <time>2021-06-05T09:26:34Z</time>
      </trkpt>
      <trkpt lat="43.64419" lon="3.30858">
        <ele>164</ele>
        <time>2021-06-05T09:26:35Z</time>
      </trkpt>
      <trkpt lat="43.64423" lon="3.30858">
        <ele>164</ele>
        <time>2021-06-05T09:26:36Z</time>
      </trkpt>
      <trkpt lat="43.64427" lon="3.30857">
        <ele>163</ele>
        <time>2021-06-05T09:26:37Z</time>
      </trkpt>
      <trkpt lat="43.6443" lon="3.30857">
        <ele>163</ele>
        <time>2021-06-05T09:26:38Z</time>
      </trkpt>
      <trkpt lat="43.64434" lon="3.30857">
        <ele>163</ele>
        <time>2021-06-05T09:26:39Z</time>
      </trkpt>
      <trkpt lat="43.64437" lon="3.30857">
        <ele>163</ele>
        <time>2021-06-05T09:26:40Z</time>
      </trkpt>
      <trkpt lat="43.64442" lon="3.30857">
        <ele>163</ele>
        <time>2021-06-05T09:26:41Z</time>
      </trkpt>
      <trkpt lat="43.64445" lon="3.30856">
        <ele>163</ele>
        <time>2021-06-05T09:26:42Z</time>
      </trkpt>
      <trkpt lat="43.64449" lon="3.30856">
        <ele>163</ele>
        <time>2021-06-05T09:26:43Z</time>
      </trkpt>
      <trkpt lat="43.64453" lon="3.30855">
        <ele>163</ele>
        <time>2021-06-05T09:26:44Z</time>
      </trkpt>
      <trkpt lat="43.64457" lon="3.30854">
        <ele>163</ele>
        <time>2021-06-05T09:26:45Z</time>
      </trkpt>
      <trkpt lat="43.64461" lon="3.30853">
        <ele>163</ele>
        <time>2021-06-05T09:26:46Z</time>
      </trkpt>
      <trkpt lat="43.64465" lon="3.30851">
        <ele>163</ele>
        <time>2021-06-05T09:26:47Z</time>
      </trkpt>
      <trkpt lat="43.64469" lon="3.30849">
        <ele>163</ele>
        <time>2021-06-05T09:26:48Z</time>
      </trkpt>
      <trkpt lat="43.64474" lon="3.30848">
        <ele>163</ele>
        <time>2021-06-05T09:26:49Z</time>
      </trkpt>
      <trkpt lat="43.64478" lon="3.30846">
        <ele>163</ele>
        <time>2021-06-05T09:26:50Z</time>
      </trkpt>
      <trkpt lat="43.64481" lon="3.30845">
        <ele>163</ele>
        <time>2021-06-05T09:26:51Z</time>
      </trkpt>
      <trkpt lat="43.64485" lon="3.30845">
        <ele>163</ele>
        <time>2021-06-05T09:26:52Z</time>
      </trkpt>
      <trkpt lat="43.64489" lon="3.30844">
        <ele>163</ele>
        <time>2021-06-05T09:26:53Z</time>
      </trkpt>
      <trkpt lat="43.64493" lon="3.30844">
        <ele>163</ele>
        <time>2021-06-05T09:26:54Z</time>
      </trkpt>
      <trkpt lat="43.64496" lon="3.30844">
        <ele>163</ele>
        <time>2021-06-05T09:26:55Z</time>
      </trkpt>
      <trkpt lat="43.645" lon="3.30844">
        <ele>163</ele>
        <time>2021-06-05T09:26:56Z</time>
      </trkpt>
      <trkpt lat="43.64503" lon="3.30844">
        <ele>164</ele>
        <time>2021-06-05T09:26:57Z</time>
      </trkpt>
      <trkpt lat="43.64507" lon="3.30844">
        <ele>164</ele>
        <time>2021-06-05T09:26:58Z</time>
      </trkpt>
      <trkpt lat="43.64511" lon="3.30844">
        <ele>164</ele>
        <time>2021-06-05T09:26:59Z</time>
      </trkpt>
      <trkpt lat="43.64514" lon="3.30844">
        <ele>164</ele>
        <time>2021-06-05T09:27:00Z</time>
      </trkpt>
      <trkpt lat="43.64518" lon="3.30844">
        <ele>164</ele>
        <time>2021-06-05T09:27:01Z</time>
      </trkpt>
      <trkpt lat="43.64522" lon="3.30844">
        <ele>164</ele>
        <time>2021-06-05T09:27:02Z</time>
      </trkpt>
      <trkpt lat="43.64526" lon="3.30845">
        <ele>164</ele>
        <time>2021-06-05T09:27:03Z</time>
      </trkpt>
      <trkpt lat="43.64529" lon="3.30846">
        <ele>164</ele>
        <time>2021-06-05T09:27:04Z</time>
      </trkpt>
      <trkpt lat="43.64532" lon="3.30846">
        <ele>164</ele>
        <time>2021-06-05T09:27:05Z</time>
      </trkpt>
      <trkpt lat="43.64536" lon="3.30846">
        <ele>164</ele>
        <time>2021-06-05T09:27:06Z</time>
      </trkpt>
      <trkpt lat="43.64539" lon="3.30847">
        <ele>165</ele>
        <time>2021-06-05T09:27:07Z</time>
      </trkpt>
      <trkpt lat="43.64542" lon="3.30846">
        <ele>165</ele>
        <time>2021-06-05T09:27:08Z</time>
      </trkpt>
      <trkpt lat="43.64546" lon="3.30846">
        <ele>165</ele>
        <time>2021-06-05T09:27:09Z</time>
      </trkpt>
      <trkpt lat="43.64549" lon="3.30846">
        <ele>165</ele>
        <time>2021-06-05T09:27:10Z</time>
      </trkpt>
      <trkpt lat="43.64553" lon="3.30845">
        <ele>165</ele>
        <time>2021-06-05T09:27:11Z</time>
      </trkpt>
      <trkpt lat="43.64556" lon="3.30844">
        <ele>165</ele>
        <time>2021-06-05T09:27:12Z</time>
      </trkpt>
      <trkpt lat="43.6456" lon="3.30843">
        <ele>165</ele>
        <time>2021-06-05T09:27:13Z</time>
      </trkpt>
      <trkpt lat="43.64563" lon="3.30842">
        <ele>165</ele>
        <time>2021-06-05T09:27:14Z</time>
      </trkpt>
      <trkpt lat="43.64566" lon="3.30841">
        <ele>165</ele>
        <time>2021-06-05T09:27:15Z</time>
      </trkpt>
      <trkpt lat="43.64569" lon="3.3084">
        <ele>165</ele>
        <time>2021-06-05T09:27:16Z</time>
      </trkpt>
      <trkpt lat="43.64572" lon="3.30839">
        <ele>165</ele>
        <time>2021-06-05T09:27:17Z</time>
      </trkpt>
      <trkpt lat="43.64575" lon="3.30838">
        <ele>165</ele>
        <time>2021-06-05T09:27:18Z</time>
      </trkpt>
      <trkpt lat="43.64578" lon="3.30837">
        <ele>165</ele>
        <time>2021-06-05T09:27:19Z</time>
      </trkpt>
      <trkpt lat="43.64581" lon="3.30836">
        <ele>165</ele>
        <time>2021-06-05T09:27:20Z</time>
      </trkpt>
      <trkpt lat="43.64584" lon="3.30835">
        <ele>165</ele>
        <time>2021-06-05T09:27:21Z</time>
      </trkpt>
      <trkpt lat="43.64587" lon="3.30834">
        <ele>165</ele>
        <time>2021-06-05T09:27:22Z</time>
      </trkpt>
      <trkpt lat="43.6459" lon="3.30834">
        <ele>165</ele>
        <time>2021-06-05T09:27:23Z</time>
      </trkpt>
      <trkpt lat="43.64593" lon="3.30833">
        <ele>165</ele>
        <time>2021-06-05T09:27:24Z</time>
      </trkpt>
      <trkpt lat="43.64596" lon="3.30832">
        <ele>165</ele>
        <time>2021-06-05T09:27:25Z</time>
      </trkpt>
      <trkpt lat="43.64598" lon="3.30831">
        <ele>165</ele>
        <time>2021-06-05T09:27:26Z</time>
      </trkpt>
      <trkpt lat="43.64601" lon="3.30829">
        <ele>166</ele>
        <time>2021-06-05T09:27:27Z</time>
      </trkpt>
      <trkpt lat="43.64603" lon="3.30827">
        <ele>166</ele>
        <time>2021-06-05T09:27:28Z</time>
      </trkpt>
      <trkpt lat="43.64605" lon="3.30824">
        <ele>166</ele>
        <time>2021-06-05T09:27:29Z</time>
      </trkpt>
      <trkpt lat="43.64607" lon="3.30823">
        <ele>166</ele>
        <time>2021-06-05T09:27:30Z</time>
      </trkpt>
      <trkpt lat="43.64609" lon="3.30821">
        <ele>166</ele>
        <time>2021-06-05T09:27:31Z</time>
      </trkpt>
      <trkpt lat="43.64611" lon="3.30819">
        <ele>166</ele>
        <time>2021-06-05T09:27:32Z</time>
      </trkpt>
      <trkpt lat="43.64613" lon="3.30817">
        <ele>166</ele>
        <time>2021-06-05T09:27:33Z</time>
      </trkpt>
      <trkpt lat="43.64614" lon="3.30815">
        <ele>166</ele>
        <time>2021-06-05T09:27:34Z</time>
      </trkpt>
      <trkpt lat="43.64616" lon="3.30813">
        <ele>166</ele>
        <time>2021-06-05T09:27:35Z</time>
      </trkpt>
      <trkpt lat="43.64618" lon="3.3081">
        <ele>166</ele>
        <time>2021-06-05T09:27:36Z</time>
      </trkpt>
      <trkpt lat="43.6462" lon="3.30808">
        <ele>167</ele>
        <time>2021-06-05T09:27:37Z</time>
      </trkpt>
      <trkpt lat="43.64622" lon="3.30806">
        <ele>167</ele>
        <time>2021-06-05T09:27:38Z</time>
      </trkpt>
      <trkpt lat="43.64624" lon="3.30803">
        <ele>167</ele>
        <time>2021-06-05T09:27:39Z</time>
      </trkpt>
      <trkpt lat="43.64627" lon="3.30801">
        <ele>167</ele>
        <time>2021-06-05T09:27:40Z</time>
      </trkpt>
      <trkpt lat="43.64629" lon="3.30799">
        <ele>167</ele>
        <time>2021-06-05T09:27:41Z</time>
      </trkpt>
      <trkpt lat="43.64631" lon="3.30797">
        <ele>167</ele>
        <time>2021-06-05T09:27:42Z</time>
      </trkpt>
      <trkpt lat="43.64633" lon="3.30795">
        <ele>167</ele>
        <time>2021-06-05T09:27:43Z</time>
      </trkpt>
      <trkpt lat="43.64635" lon="3.30793">
        <ele>167</ele>
        <time>2021-06-05T09:27:44Z</time>
      </trkpt>
      <trkpt lat="43.64638" lon="3.30791">
        <ele>167</ele>
        <time>2021-06-05T09:27:45Z</time>
      </trkpt>
      <trkpt lat="43.6464" lon="3.30789">
        <ele>167</ele>
        <time>2021-06-05T09:27:46Z</time>
      </trkpt>
      <trkpt lat="43.64643" lon="3.30787">
        <ele>168</ele>
        <time>2021-06-05T09:27:47Z</time>
      </trkpt>
      <trkpt lat="43.64645" lon="3.30785">
        <ele>168</ele>
        <time>2021-06-05T09:27:48Z</time>
      </trkpt>
      <trkpt lat="43.64648" lon="3.30783">
        <ele>168</ele>
        <time>2021-06-05T09:27:49Z</time>
      </trkpt>
      <trkpt lat="43.6465" lon="3.30782">
        <ele>168</ele>
        <time>2021-06-05T09:27:50Z</time>
      </trkpt>
      <trkpt lat="43.64652" lon="3.3078">
        <ele>168</ele>
        <time>2021-06-05T09:27:51Z</time>
      </trkpt>
      <trkpt lat="43.64654" lon="3.30778">
        <ele>168</ele>
        <time>2021-06-05T09:27:52Z</time>
      </trkpt>
      <trkpt lat="43.64657" lon="3.30777">
        <ele>168</ele>
        <time>2021-06-05T09:27:53Z</time>
      </trkpt>
      <trkpt lat="43.6466" lon="3.30775">
        <ele>168</ele>
        <time>2021-06-05T09:27:54Z</time>
      </trkpt>
      <trkpt lat="43.64662" lon="3.30773">
        <ele>168</ele>
        <time>2021-06-05T09:27:55Z</time>
      </trkpt>
      <trkpt lat="43.64664" lon="3.30772">
        <ele>168</ele>
        <time>2021-06-05T09:27:56Z</time>
      </trkpt>
      <trkpt lat="43.64666" lon="3.3077">
        <ele>169</ele>
        <time>2021-06-05T09:27:57Z</time>
      </trkpt>
      <trkpt lat="43.64669" lon="3.30768">
        <ele>169</ele>
        <time>2021-06-05T09:27:58Z</time>
      </trkpt>
      <trkpt lat="43.64671" lon="3.30767">
        <ele>169</ele>
        <time>2021-06-05T09:27:59Z</time>
      </trkpt>
      <trkpt lat="43.64674" lon="3.30765">
        <ele>169</ele>
        <time>2021-06-05T09:28:00Z</time>
      </trkpt>
      <trkpt lat="43.64677" lon="3.30764">
        <ele>169</ele>
        <time>2021-06-05T09:28:01Z</time>
      </trkpt>
      <trkpt lat="43.64679" lon="3.30761">
        <ele>169</ele>
        <time>2021-06-05T09:28:02Z</time>
      </trkpt>
      <trkpt lat="43.64682" lon="3.3076">
        <ele>169</ele>
        <time>2021-06-05T09:28:03Z</time>
      </trkpt>
      <trkpt lat="43.64685" lon="3.30758">
        <ele>169</ele>
        <time>2021-06-05T09:28:04Z</time>
      </trkpt>
      <trkpt lat="43.64688" lon="3.30757">
        <ele>169</ele>
        <time>2021-06-05T09:28:05Z</time>
      </trkpt>
      <trkpt lat="43.64691" lon="3.30755">
        <ele>169</ele>
        <time>2021-06-05T09:28:06Z</time>
      </trkpt>
      <trkpt lat="43.64693" lon="3.30753">
        <ele>170</ele>
        <time>2021-06-05T09:28:07Z</time>
      </trkpt>
      <trkpt lat="43.64696" lon="3.30751">
        <ele>170</ele>
        <time>2021-06-05T09:28:08Z</time>
      </trkpt>
      <trkpt lat="43.64699" lon="3.3075">
        <ele>170</ele>
        <time>2021-06-05T09:28:09Z</time>
      </trkpt>
      <trkpt lat="43.64701" lon="3.30748">
        <ele>170</ele>
        <time>2021-06-05T09:28:10Z</time>
      </trkpt>
      <trkpt lat="43.64704" lon="3.30746">
        <ele>170</ele>
        <time>2021-06-05T09:28:11Z</time>
      </trkpt>
      <trkpt lat="43.64706" lon="3.30744">
        <ele>170</ele>
        <time>2021-06-05T09:28:12Z</time>
      </trkpt>
      <trkpt lat="43.64709" lon="3.30743">
        <ele>170</ele>
        <time>2021-06-05T09:28:13Z</time>
      </trkpt>
      <trkpt lat="43.64712" lon="3.30742">
        <ele>170</ele>
        <time>2021-06-05T09:28:14Z</time>
      </trkpt>
      <trkpt lat="43.64714" lon="3.3074">
        <ele>170</ele>
        <time>2021-06-05T09:28:15Z</time>
      </trkpt>
      <trkpt lat="43.64716" lon="3.30739">
        <ele>170</ele>
        <time>2021-06-05T09:28:16Z</time>
      </trkpt>
      <trkpt lat="43.64719" lon="3.30738">
        <ele>170</ele>
        <time>2021-06-05T09:28:17Z</time>
      </trkpt>
      <trkpt lat="43.64722" lon="3.30737">
        <ele>170</ele>
        <time>2021-06-05T09:28:18Z</time>
      </trkpt>
      <trkpt lat="43.64725" lon="3.30737">
        <ele>170</ele>
        <time>2021-06-05T09:28:19Z</time>
      </trkpt>
      <trkpt lat="43.64728" lon="3.30735">
        <ele>170</ele>
        <time>2021-06-05T09:28:20Z</time>
      </trkpt>
      <trkpt lat="43.64731" lon="3.30734">
        <ele>170</ele>
        <time>2021-06-05T09:28:21Z</time>
      </trkpt>
      <trkpt lat="43.64733" lon="3.30734">
        <ele>170</ele>
        <time>2021-06-05T09:28:22Z</time>
      </trkpt>
      <trkpt lat="43.64737" lon="3.30733">
        <ele>170</ele>
        <time>2021-06-05T09:28:23Z</time>
      </trkpt>
      <trkpt lat="43.64739" lon="3.30732">
        <ele>170</ele>
        <time>2021-06-05T09:28:24Z</time>
      </trkpt>
      <trkpt lat="43.64743" lon="3.30732">
        <ele>170</ele>
        <time>2021-06-05T09:28:25Z</time>
      </trkpt>
      <trkpt lat="43.64745" lon="3.30731">
        <ele>170</ele>
        <time>2021-06-05T09:28:26Z</time>
      </trkpt>
      <trkpt lat="43.64748" lon="3.3073">
        <ele>171</ele>
        <time>2021-06-05T09:28:27Z</time>
      </trkpt>
      <trkpt lat="43.64751" lon="3.30729">
        <ele>171</ele>
        <time>2021-06-05T09:28:28Z</time>
      </trkpt>
      <trkpt lat="43.64754" lon="3.30727">
        <ele>171</ele>
        <time>2021-06-05T09:28:29Z</time>
      </trkpt>
      <trkpt lat="43.64756" lon="3.30726">
        <ele>171</ele>
        <time>2021-06-05T09:28:30Z</time>
      </trkpt>
      <trkpt lat="43.64759" lon="3.30725">
        <ele>171</ele>
        <time>2021-06-05T09:28:31Z</time>
      </trkpt>
      <trkpt lat="43.64762" lon="3.30724">
        <ele>171</ele>
        <time>2021-06-05T09:28:32Z</time>
      </trkpt>
      <trkpt lat="43.64765" lon="3.30723">
        <ele>171</ele>
        <time>2021-06-05T09:28:33Z</time>
      </trkpt>
      <trkpt lat="43.64767" lon="3.30721">
        <ele>171</ele>
        <time>2021-06-05T09:28:34Z</time>
      </trkpt>
      <trkpt lat="43.64769" lon="3.30719">
        <ele>171</ele>
        <time>2021-06-05T09:28:35Z</time>
      </trkpt>
      <trkpt lat="43.64771" lon="3.30718">
        <ele>171</ele>
        <time>2021-06-05T09:28:36Z</time>
      </trkpt>
      <trkpt lat="43.64774" lon="3.30717">
        <ele>171</ele>
        <time>2021-06-05T09:28:37Z</time>
      </trkpt>
      <trkpt lat="43.64776" lon="3.30715">
        <ele>171</ele>
        <time>2021-06-05T09:28:38Z</time>
      </trkpt>
      <trkpt lat="43.64779" lon="3.30713">
        <ele>171</ele>
        <time>2021-06-05T09:28:39Z</time>
      </trkpt>
      <trkpt lat="43.64781" lon="3.30711">
        <ele>171</ele>
        <time>2021-06-05T09:28:40Z</time>
      </trkpt>
      <trkpt lat="43.64783" lon="3.30709">
        <ele>171</ele>
        <time>2021-06-05T09:28:41Z</time>
      </trkpt>
      <trkpt lat="43.64784" lon="3.30707">
        <ele>171</ele>
        <time>2021-06-05T09:28:42Z</time>
      </trkpt>
      <trkpt lat="43.64786" lon="3.30706">
        <ele>171</ele>
        <time>2021-06-05T09:28:43Z</time>
      </trkpt>
      <trkpt lat="43.64788" lon="3.30704">
        <ele>171</ele>
        <time>2021-06-05T09:28:44Z</time>
      </trkpt>
      <trkpt lat="43.6479" lon="3.30702">
        <ele>171</ele>
        <time>2021-06-05T09:28:45Z</time>
      </trkpt>
      <trkpt lat="43.64792" lon="3.307">
        <ele>171</ele>
        <time>2021-06-05T09:28:46Z</time>
      </trkpt>
      <trkpt lat="43.64795" lon="3.30698">
        <ele>172</ele>
        <time>2021-06-05T09:28:47Z</time>
      </trkpt>
      <trkpt lat="43.64797" lon="3.30696">
        <ele>172</ele>
        <time>2021-06-05T09:28:48Z</time>
      </trkpt>
      <trkpt lat="43.64799" lon="3.30693">
        <ele>172</ele>
        <time>2021-06-05T09:28:49Z</time>
      </trkpt>
      <trkpt lat="43.648" lon="3.30691">
        <ele>172</ele>
        <time>2021-06-05T09:28:50Z</time>
      </trkpt>
      <trkpt lat="43.64802" lon="3.30688">
        <ele>172</ele>
        <time>2021-06-05T09:28:51Z</time>
      </trkpt>
      <trkpt lat="43.64805" lon="3.30686">
        <ele>172</ele>
        <time>2021-06-05T09:28:52Z</time>
      </trkpt>
      <trkpt lat="43.64807" lon="3.30683">
        <ele>172</ele>
        <time>2021-06-05T09:28:53Z</time>
      </trkpt>
      <trkpt lat="43.64809" lon="3.30681">
        <ele>172</ele>
        <time>2021-06-05T09:28:54Z</time>
      </trkpt>
      <trkpt lat="43.64811" lon="3.30678">
        <ele>172</ele>
        <time>2021-06-05T09:28:55Z</time>
      </trkpt>
      <trkpt lat="43.64813" lon="3.30675">
        <ele>172</ele>
        <time>2021-06-05T09:28:56Z</time>
      </trkpt>
      <trkpt lat="43.64815" lon="3.30672">
        <ele>173</ele>
        <time>2021-06-05T09:28:57Z</time>
      </trkpt>
      <trkpt lat="43.64817" lon="3.3067">
        <ele>173</ele>
        <time>2021-06-05T09:28:58Z</time>
      </trkpt>
      <trkpt lat="43.64819" lon="3.30667">
        <ele>173</ele>
        <time>2021-06-05T09:28:59Z</time>
      </trkpt>
      <trkpt lat="43.64821" lon="3.30664">
        <ele>173</ele>
        <time>2021-06-05T09:29:00Z</time>
      </trkpt>
      <trkpt lat="43.64823" lon="3.30662">
        <ele>173</ele>
        <time>2021-06-05T09:29:01Z</time>
      </trkpt>
      <trkpt lat="43.64825" lon="3.30659">
        <ele>173</ele>
        <time>2021-06-05T09:29:02Z</time>
      </trkpt>
      <trkpt lat="43.64827" lon="3.30656">
        <ele>173</ele>
        <time>2021-06-05T09:29:03Z</time>
      </trkpt>
      <trkpt lat="43.64829" lon="3.30654">
        <ele>173</ele>
        <time>2021-06-05T09:29:04Z</time>
      </trkpt>
      <trkpt lat="43.6483" lon="3.30651">
        <ele>173</ele>
        <time>2021-06-05T09:29:05Z</time>
      </trkpt>
      <trkpt lat="43.64833" lon="3.30648">
        <ele>173</ele>
        <time>2021-06-05T09:29:06Z</time>
      </trkpt>
      <trkpt lat="43.64835" lon="3.30645">
        <ele>174</ele>
        <time>2021-06-05T09:29:07Z</time>
      </trkpt>
      <trkpt lat="43.64836" lon="3.30643">
        <ele>174</ele>
        <time>2021-06-05T09:29:08Z</time>
      </trkpt>
      <trkpt lat="43.64838" lon="3.3064">
        <ele>174</ele>
        <time>2021-06-05T09:29:09Z</time>
      </trkpt>
      <trkpt lat="43.64841" lon="3.30637">
        <ele>174</ele>
        <time>2021-06-05T09:29:10Z</time>
      </trkpt>
      <trkpt lat="43.64843" lon="3.30634">
        <ele>174</ele>
        <time>2021-06-05T09:29:11Z</time>
      </trkpt>
      <trkpt lat="43.64845" lon="3.30631">
        <ele>174</ele>
        <time>2021-06-05T09:29:12Z</time>
      </trkpt>
      <trkpt lat="43.64847" lon="3.30629">
        <ele>174</ele>
        <time>2021-06-05T09:29:13Z</time>
      </trkpt>
      <trkpt lat="43.64849" lon="3.30626">
        <ele>174</ele>
        <time>2021-06-05T09:29:14Z</time>
      </trkpt>
      <trkpt lat="43.64852" lon="3.30624">
        <ele>174</ele>
        <time>2021-06-05T09:29:15Z</time>
      </trkpt>
      <trkpt lat="43.64854" lon="3.30621">
        <ele>174</ele>
        <time>2021-06-05T09:29:16Z</time>
      </trkpt>
      <trkpt lat="43.64857" lon="3.30619">
        <ele>175</ele>
        <time>2021-06-05T09:29:17Z</time>
      </trkpt>
      <trkpt lat="43.64859" lon="3.30616">
        <ele>175</ele>
        <time>2021-06-05T09:29:18Z</time>
      </trkpt>
      <trkpt lat="43.64862" lon="3.30614">
        <ele>175</ele>
        <time>2021-06-05T09:29:19Z</time>
      </trkpt>
      <trkpt lat="43.64864" lon="3.30612">
        <ele>175</ele>
        <time>2021-06-05T09:29:20Z</time>
      </trkpt>
      <trkpt lat="43.64867" lon="3.3061">
        <ele>175</ele>
        <time>2021-06-05T09:29:21Z</time>
      </trkpt>
      <trkpt lat="43.64869" lon="3.30608">
        <ele>175</ele>
        <time>2021-06-05T09:29:22Z</time>
      </trkpt>
      <trkpt lat="43.64871" lon="3.30606">
        <ele>175</ele>
        <time>2021-06-05T09:29:23Z</time>
      </trkpt>
      <trkpt lat="43.64874" lon="3.30604">
        <ele>175</ele>
        <time>2021-06-05T09:29:24Z</time>
      </trkpt>
      <trkpt lat="43.64876" lon="3.30602">
        <ele>175</ele>
        <time>2021-06-05T09:29:25Z</time>
      </trkpt>
      <trkpt lat="43.64878" lon="3.306">
        <ele>175</ele>
        <time>2021-06-05T09:29:26Z</time>
      </trkpt>
      <trkpt lat="43.64881" lon="3.30598">
        <ele>176</ele>
        <time>2021-06-05T09:29:27Z</time>
      </trkpt>
      <trkpt lat="43.64883" lon="3.30595">
        <ele>176</ele>
        <time>2021-06-05T09:29:28Z</time>
      </trkpt>
      <trkpt lat="43.64886" lon="3.30593">
        <ele>176</ele>
        <time>2021-06-05T09:29:29Z</time>
      </trkpt>
      <trkpt lat="43.64887" lon="3.30591">
        <ele>176</ele>
        <time>2021-06-05T09:29:30Z</time>
      </trkpt>
      <trkpt lat="43.6489" lon="3.30589">
        <ele>176</ele>
        <time>2021-06-05T09:29:31Z</time>
      </trkpt>
      <trkpt lat="43.64892" lon="3.30587">
        <ele>176</ele>
        <time>2021-06-05T09:29:32Z</time>
      </trkpt>
      <trkpt lat="43.64895" lon="3.30585">
        <ele>176</ele>
        <time>2021-06-05T09:29:33Z</time>
      </trkpt>
      <trkpt lat="43.64897" lon="3.30583">
        <ele>176</ele>
        <time>2021-06-05T09:29:34Z</time>
      </trkpt>
      <trkpt lat="43.64899" lon="3.30581">
        <ele>176</ele>
        <time>2021-06-05T09:29:35Z</time>
      </trkpt>
      <trkpt lat="43.64902" lon="3.30579">
        <ele>176</ele>
        <time>2021-06-05T09:29:36Z</time>
      </trkpt>
      <trkpt lat="43.64904" lon="3.30577">
        <ele>176</ele>
        <time>2021-06-05T09:29:37Z</time>
      </trkpt>
      <trkpt lat="43.64907" lon="3.30575">
        <ele>176</ele>
        <time>2021-06-05T09:29:38Z</time>
      </trkpt>
      <trkpt lat="43.64909" lon="3.30573">
        <ele>176</ele>
        <time>2021-06-05T09:29:39Z</time>
      </trkpt>
      <trkpt lat="43.64911" lon="3.30572">
        <ele>176</ele>
        <time>2021-06-05T09:29:40Z</time>
      </trkpt>
      <trkpt lat="43.64913" lon="3.3057">
        <ele>176</ele>
        <time>2021-06-05T09:29:41Z</time>
      </trkpt>
      <trkpt lat="43.64916" lon="3.30568">
        <ele>176</ele>
        <time>2021-06-05T09:29:42Z</time>
      </trkpt>
      <trkpt lat="43.64919" lon="3.30566">
        <ele>176</ele>
        <time>2021-06-05T09:29:43Z</time>
      </trkpt>
      <trkpt lat="43.64921" lon="3.30565">
        <ele>176</ele>
        <time>2021-06-05T09:29:44Z</time>
      </trkpt>
      <trkpt lat="43.64923" lon="3.30563">
        <ele>176</ele>
        <time>2021-06-05T09:29:45Z</time>
      </trkpt>
      <trkpt lat="43.64926" lon="3.30561">
        <ele>176</ele>
        <time>2021-06-05T09:29:46Z</time>
      </trkpt>
      <trkpt lat="43.64928" lon="3.30559">
        <ele>177</ele>
        <time>2021-06-05T09:29:47Z</time>
      </trkpt>
      <trkpt lat="43.64931" lon="3.30557">
        <ele>177</ele>
        <time>2021-06-05T09:29:48Z</time>
      </trkpt>
      <trkpt lat="43.64934" lon="3.30555">
        <ele>177</ele>
        <time>2021-06-05T09:29:49Z</time>
      </trkpt>
      <trkpt lat="43.64936" lon="3.30553">
        <ele>177</ele>
        <time>2021-06-05T09:29:50Z</time>
      </trkpt>
      <trkpt lat="43.64938" lon="3.30551">
        <ele>177</ele>
        <time>2021-06-05T09:29:51Z</time>
      </trkpt>
      <trkpt lat="43.64941" lon="3.30549">
        <ele>177</ele>
        <time>2021-06-05T09:29:52Z</time>
      </trkpt>
      <trkpt lat="43.64943" lon="3.30548">
        <ele>177</ele>
        <time>2021-06-05T09:29:53Z</time>
      </trkpt>
      <trkpt lat="43.64946" lon="3.30546">
        <ele>177</ele>
        <time>2021-06-05T09:29:54Z</time>
      </trkpt>
      <trkpt lat="43.64949" lon="3.30545">
        <ele>177</ele>
        <time>2021-06-05T09:29:55Z</time>
      </trkpt>
      <trkpt lat="43.64951" lon="3.30543">
        <ele>177</ele>
        <time>2021-06-05T09:29:56Z</time>
      </trkpt>
      <trkpt lat="43.64954" lon="3.30542">
        <ele>178</ele>
        <time>2021-06-05T09:29:57Z</time>
      </trkpt>
      <trkpt lat="43.64957" lon="3.30541">
        <ele>178</ele>
        <time>2021-06-05T09:29:58Z</time>
      </trkpt>
      <trkpt lat="43.6496" lon="3.3054">
        <ele>178</ele>
        <time>2021-06-05T09:29:59Z</time>
      </trkpt>
      <trkpt lat="43.64963" lon="3.3054">
        <ele>178</ele>
        <time>2021-06-05T09:30:00Z</time>
      </trkpt>
      <trkpt lat="43.64966" lon="3.3054">
        <ele>178</ele>
        <time>2021-06-05T09:30:01Z</time>
      </trkpt>
      <trkpt lat="43.64969" lon="3.3054">
        <ele>178</ele>
        <time>2021-06-05T09:30:02Z</time>
      </trkpt>
      <trkpt lat="43.64972" lon="3.3054">
        <ele>178</ele>
        <time>2021-06-05T09:30:03Z</time>
      </trkpt>
      <trkpt lat="43.64975" lon="3.3054">
        <ele>178</ele>
        <time>2021-06-05T09:30:04Z</time>
      </trkpt>
      <trkpt lat="43.64978" lon="3.30541">
        <ele>178</ele>
        <time>2021-06-05T09:30:05Z</time>
      </trkpt>
      <trkpt lat="43.64981" lon="3.30541">
        <ele>178</ele>
        <time>2021-06-05T09:30:06Z</time>
      </trkpt>
      <trkpt lat="43.64984" lon="3.30541">
        <ele>178</ele>
        <time>2021-06-05T09:30:07Z</time>
      </trkpt>
      <trkpt lat="43.64987" lon="3.30541">
        <ele>178</ele>
        <time>2021-06-05T09:30:08Z</time>
      </trkpt>
      <trkpt lat="43.6499" lon="3.30541">
        <ele>178</ele>
        <time>2021-06-05T09:30:09Z</time>
      </trkpt>
      <trkpt lat="43.64993" lon="3.30541">
        <ele>178</ele>
        <time>2021-06-05T09:30:10Z</time>
      </trkpt>
      <trkpt lat="43.64996" lon="3.30541">
        <ele>178</ele>
        <time>2021-06-05T09:30:11Z</time>
      </trkpt>
      <trkpt lat="43.64999" lon="3.3054">
        <ele>178</ele>
        <time>2021-06-05T09:30:12Z</time>
      </trkpt>
      <trkpt lat="43.65002" lon="3.30539">
        <ele>178</ele>
        <time>2021-06-05T09:30:13Z</time>
      </trkpt>
      <trkpt lat="43.65005" lon="3.30539">
        <ele>178</ele>
        <time>2021-06-05T09:30:14Z</time>
      </trkpt>
      <trkpt lat="43.65008" lon="3.30539">
        <ele>178</ele>
        <time>2021-06-05T09:30:15Z</time>
      </trkpt>
      <trkpt lat="43.65011" lon="3.30538">
        <ele>178</ele>
        <time>2021-06-05T09:30:16Z</time>
      </trkpt>
      <trkpt lat="43.65014" lon="3.30538">
        <ele>179</ele>
        <time>2021-06-05T09:30:17Z</time>
      </trkpt>
      <trkpt lat="43.65017" lon="3.30538">
        <ele>179</ele>
        <time>2021-06-05T09:30:18Z</time>
      </trkpt>
      <trkpt lat="43.6502" lon="3.30537">
        <ele>179</ele>
        <time>2021-06-05T09:30:19Z</time>
      </trkpt>
      <trkpt lat="43.65023" lon="3.30537">
        <ele>179</ele>
        <time>2021-06-05T09:30:20Z</time>
      </trkpt>
      <trkpt lat="43.65027" lon="3.30537">
        <ele>179</ele>
        <time>2021-06-05T09:30:21Z</time>
      </trkpt>
      <trkpt lat="43.6503" lon="3.30536">
        <ele>179</ele>
        <time>2021-06-05T09:30:22Z</time>
      </trkpt>
      <trkpt lat="43.65034" lon="3.30536">
        <ele>179</ele>
        <time>2021-06-05T09:30:23Z</time>
      </trkpt>
      <trkpt lat="43.65037" lon="3.30536">
        <ele>179</ele>
        <time>2021-06-05T09:30:24Z</time>
      </trkpt>
      <trkpt lat="43.6504" lon="3.30536">
        <ele>179</ele>
        <time>2021-06-05T09:30:25Z</time>
      </trkpt>
      <trkpt lat="43.65042" lon="3.30535">
        <ele>179</ele>
        <time>2021-06-05T09:30:26Z</time>
      </trkpt>
      <trkpt lat="43.65046" lon="3.30535">
        <ele>180</ele>
        <time>2021-06-05T09:30:27Z</time>
      </trkpt>
      <trkpt lat="43.65049" lon="3.30534">
        <ele>180</ele>
        <time>2021-06-05T09:30:28Z</time>
      </trkpt>
      <trkpt lat="43.65052" lon="3.30533">
        <ele>180</ele>
        <time>2021-06-05T09:30:29Z</time>
      </trkpt>
      <trkpt lat="43.65055" lon="3.30532">
        <ele>180</ele>
        <time>2021-06-05T09:30:30Z</time>
      </trkpt>
      <trkpt lat="43.65057" lon="3.30531">
        <ele>180</ele>
        <time>2021-06-05T09:30:31Z</time>
      </trkpt>
      <trkpt lat="43.6506" lon="3.3053">
        <ele>180</ele>
        <time>2021-06-05T09:30:32Z</time>
      </trkpt>
      <trkpt lat="43.65063" lon="3.30529">
        <ele>180</ele>
        <time>2021-06-05T09:30:33Z</time>
      </trkpt>
      <trkpt lat="43.65065" lon="3.30528">
        <ele>180</ele>
        <time>2021-06-05T09:30:34Z</time>
      </trkpt>
      <trkpt lat="43.65068" lon="3.30526">
        <ele>180</ele>
        <time>2021-06-05T09:30:35Z</time>
      </trkpt>
      <trkpt lat="43.65071" lon="3.30525">
        <ele>180</ele>
        <time>2021-06-05T09:30:36Z</time>
      </trkpt>
      <trkpt lat="43.65073" lon="3.30524">
        <ele>180</ele>
        <time>2021-06-05T09:30:37Z</time>
      </trkpt>
      <trkpt lat="43.65075" lon="3.30522">
        <ele>180</ele>
        <time>2021-06-05T09:30:38Z</time>
      </trkpt>
      <trkpt lat="43.65078" lon="3.30522">
        <ele>180</ele>
        <time>2021-06-05T09:30:39Z</time>
      </trkpt>
      <trkpt lat="43.6508" lon="3.30521">
        <ele>180</ele>
        <time>2021-06-05T09:30:40Z</time>
      </trkpt>
      <trkpt lat="43.65084" lon="3.3052">
        <ele>180</ele>
        <time>2021-06-05T09:30:41Z</time>
      </trkpt>
      <trkpt lat="43.65088" lon="3.30519">
        <ele>180</ele>
        <time>2021-06-05T09:30:42Z</time>
      </trkpt>
      <trkpt lat="43.6509" lon="3.30519">
        <ele>180</ele>
        <time>2021-06-05T09:30:43Z</time>
      </trkpt>
      <trkpt lat="43.65094" lon="3.3052">
        <ele>180</ele>
        <time>2021-06-05T09:30:44Z</time>
      </trkpt>
      <trkpt lat="43.65097" lon="3.30521">
        <ele>180</ele>
        <time>2021-06-05T09:30:45Z</time>
      </trkpt>
      <trkpt lat="43.651" lon="3.30522">
        <ele>180</ele>
        <time>2021-06-05T09:30:46Z</time>
      </trkpt>
      <trkpt lat="43.65103" lon="3.30522">
        <ele>181</ele>
        <time>2021-06-05T09:30:47Z</time>
      </trkpt>
      <trkpt lat="43.65106" lon="3.30522">
        <ele>181</ele>
        <time>2021-06-05T09:30:48Z</time>
      </trkpt>
      <trkpt lat="43.65108" lon="3.30523">
        <ele>181</ele>
        <time>2021-06-05T09:30:49Z</time>
      </trkpt>
      <trkpt lat="43.65111" lon="3.30524">
        <ele>181</ele>
        <time>2021-06-05T09:30:50Z</time>
      </trkpt>
      <trkpt lat="43.65114" lon="3.30525">
        <ele>181</ele>
        <time>2021-06-05T09:30:51Z</time>
      </trkpt>
      <trkpt lat="43.65117" lon="3.30526">
        <ele>181</ele>
        <time>2021-06-05T09:30:52Z</time>
      </trkpt>
      <trkpt lat="43.65118" lon="3.30527">
        <ele>181</ele>
        <time>2021-06-05T09:30:53Z</time>
      </trkpt>
      <trkpt lat="43.65121" lon="3.30529">
        <ele>181</ele>
        <time>2021-06-05T09:30:55Z</time>
      </trkpt>
      <trkpt lat="43.65124" lon="3.30529">
        <ele>182</ele>
        <time>2021-06-05T09:32:04Z</time>
      </trkpt>
      <trkpt lat="43.65126" lon="3.30531">
        <ele>182</ele>
        <time>2021-06-05T09:32:05Z</time>
      </trkpt>
      <trkpt lat="43.65127" lon="3.30533">
        <ele>182</ele>
        <time>2021-06-05T09:32:06Z</time>
      </trkpt>
      <trkpt lat="43.65129" lon="3.30536">
        <ele>182</ele>
        <time>2021-06-05T09:32:06Z</time>
      </trkpt>
      <trkpt lat="43.6513" lon="3.30538">
        <ele>182</ele>
        <time>2021-06-05T09:32:08Z</time>
      </trkpt>
      <trkpt lat="43.65132" lon="3.30541">
        <ele>182</ele>
        <time>2021-06-05T09:32:08Z</time>
      </trkpt>
      <trkpt lat="43.65133" lon="3.30544">
        <ele>182</ele>
        <time>2021-06-05T09:32:09Z</time>
      </trkpt>
      <trkpt lat="43.65134" lon="3.30547">
        <ele>182</ele>
        <time>2021-06-05T09:32:10Z</time>
      </trkpt>
      <trkpt lat="43.65135" lon="3.3055">
        <ele>182</ele>
        <time>2021-06-05T09:32:11Z</time>
      </trkpt>
      <trkpt lat="43.65135" lon="3.30552">
        <ele>182</ele>
        <time>2021-06-05T09:32:12Z</time>
      </trkpt>
      <trkpt lat="43.65136" lon="3.30555">
        <ele>182</ele>
        <time>2021-06-05T09:32:13Z</time>
      </trkpt>
      <trkpt lat="43.65137" lon="3.30557">
        <ele>182</ele>
        <time>2021-06-05T09:32:14Z</time>
      </trkpt>
      <trkpt lat="43.65138" lon="3.3056">
        <ele>182</ele>
        <time>2021-06-05T09:32:16Z</time>
      </trkpt>
      <trkpt lat="43.65139" lon="3.30562">
        <ele>182</ele>
        <time>2021-06-05T09:32:17Z</time>
      </trkpt>
      <trkpt lat="43.6514" lon="3.30564">
        <ele>182</ele>
        <time>2021-06-05T09:32:18Z</time>
      </trkpt>
      <trkpt lat="43.65141" lon="3.30566">
        <ele>182</ele>
        <time>2021-06-05T09:32:19Z</time>
      </trkpt>
      <trkpt lat="43.65142" lon="3.30569">
        <ele>182</ele>
        <time>2021-06-05T09:32:19Z</time>
      </trkpt>
      <trkpt lat="43.65143" lon="3.30571">
        <ele>182</ele>
        <time>2021-06-05T09:32:20Z</time>
      </trkpt>
      <trkpt lat="43.65144" lon="3.30573">
        <ele>182</ele>
        <time>2021-06-05T09:32:22Z</time>
      </trkpt>
      <trkpt lat="43.65145" lon="3.30575">
        <ele>183</ele>
        <time>2021-06-05T09:32:23Z</time>
      </trkpt>
      <trkpt lat="43.65147" lon="3.30577">
        <ele>183</ele>
        <time>2021-06-05T09:32:23Z</time>
      </trkpt>
      <trkpt lat="43.65148" lon="3.30579">
        <ele>183</ele>
        <time>2021-06-05T09:32:24Z</time>
      </trkpt>
      <trkpt lat="43.65149" lon="3.3058">
        <ele>183</ele>
        <time>2021-06-05T09:32:26Z</time>
      </trkpt>
      <trkpt lat="43.65152" lon="3.3058">
        <ele>183</ele>
        <time>2021-06-05T09:32:26Z</time>
      </trkpt>
      <trkpt lat="43.65154" lon="3.30579">
        <ele>183</ele>
        <time>2021-06-05T09:32:27Z</time>
      </trkpt>
      <trkpt lat="43.65156" lon="3.30578">
        <ele>183</ele>
        <time>2021-06-05T09:32:28Z</time>
      </trkpt>
      <trkpt lat="43.65159" lon="3.30578">
        <ele>183</ele>
        <time>2021-06-05T09:32:29Z</time>
      </trkpt>
      <trkpt lat="43.65161" lon="3.30576">
        <ele>183</ele>
        <time>2021-06-05T09:32:30Z</time>
      </trkpt>
      <trkpt lat="43.65164" lon="3.30576">
        <ele>183</ele>
        <time>2021-06-05T09:32:31Z</time>
      </trkpt>
      <trkpt lat="43.65166" lon="3.30575">
        <ele>184</ele>
        <time>2021-06-05T09:32:32Z</time>
      </trkpt>
      <trkpt lat="43.65168" lon="3.30573">
        <ele>184</ele>
        <time>2021-06-05T09:32:33Z</time>
      </trkpt>
      <trkpt lat="43.65171" lon="3.30572">
        <ele>184</ele>
        <time>2021-06-05T09:32:34Z</time>
      </trkpt>
      <trkpt lat="43.65174" lon="3.3057">
        <ele>184</ele>
        <time>2021-06-05T09:32:35Z</time>
      </trkpt>
      <trkpt lat="43.65176" lon="3.30569">
        <ele>184</ele>
        <time>2021-06-05T09:32:37Z</time>
      </trkpt>
      <trkpt lat="43.65179" lon="3.30568">
        <ele>184</ele>
        <time>2021-06-05T09:32:38Z</time>
      </trkpt>
      <trkpt lat="43.65182" lon="3.30566">
        <ele>184</ele>
        <time>2021-06-05T09:32:39Z</time>
      </trkpt>
      <trkpt lat="43.65185" lon="3.30564">
        <ele>184</ele>
        <time>2021-06-05T09:32:40Z</time>
      </trkpt>
      <trkpt lat="43.65188" lon="3.30563">
        <ele>184</ele>
        <time>2021-06-05T09:32:41Z</time>
      </trkpt>
      <trkpt lat="43.65191" lon="3.30562">
        <ele>184</ele>
        <time>2021-06-05T09:32:42Z</time>
      </trkpt>
      <trkpt lat="43.65193" lon="3.30561">
        <ele>185</ele>
        <time>2021-06-05T09:32:42Z</time>
      </trkpt>
      <trkpt lat="43.65196" lon="3.30559">
        <ele>185</ele>
        <time>2021-06-05T09:32:44Z</time>
      </trkpt>
      <trkpt lat="43.65199" lon="3.30558">
        <ele>185</ele>
        <time>2021-06-05T09:32:44Z</time>
      </trkpt>
      <trkpt lat="43.65202" lon="3.30557">
        <ele>185</ele>
        <time>2021-06-05T09:32:45Z</time>
      </trkpt>
      <trkpt lat="43.65204" lon="3.30557">
        <ele>185</ele>
        <time>2021-06-05T09:32:46Z</time>
      </trkpt>
      <trkpt lat="43.65206" lon="3.30557">
        <ele>185</ele>
        <time>2021-06-05T09:32:47Z</time>
      </trkpt>
      <trkpt lat="43.65209" lon="3.30557">
        <ele>185</ele>
        <time>2021-06-05T09:32:49Z</time>
      </trkpt>
      <trkpt lat="43.65211" lon="3.30557">
        <ele>185</ele>
        <time>2021-06-05T09:32:50Z</time>
      </trkpt>
      <trkpt lat="43.65214" lon="3.30557">
        <ele>185</ele>
        <time>2021-06-05T09:32:52Z</time>
      </trkpt>
      <trkpt lat="43.65216" lon="3.30555">
        <ele>186</ele>
        <time>2021-06-05T09:32:53Z</time>
      </trkpt>
      <trkpt lat="43.65219" lon="3.30553">
        <ele>186</ele>
        <time>2021-06-05T09:32:54Z</time>
      </trkpt>
      <trkpt lat="43.65221" lon="3.3055">
        <ele>186</ele>
        <time>2021-06-05T09:32:55Z</time>
      </trkpt>
      <trkpt lat="43.65223" lon="3.30547">
        <ele>186</ele>
        <time>2021-06-05T09:32:55Z</time>
      </trkpt>
      <trkpt lat="43.65225" lon="3.30544">
        <ele>186</ele>
        <time>2021-06-05T09:32:57Z</time>
      </trkpt>
      <trkpt lat="43.65227" lon="3.30541">
        <ele>186</ele>
        <time>2021-06-05T09:32:57Z</time>
      </trkpt>
      <trkpt lat="43.65229" lon="3.30538">
        <ele>186</ele>
        <time>2021-06-05T09:32:59Z</time>
      </trkpt>
      <trkpt lat="43.6523" lon="3.30535">
        <ele>186</ele>
        <time>2021-06-05T09:33:00Z</time>
      </trkpt>
      <trkpt lat="43.65232" lon="3.30532">
        <ele>186</ele>
        <time>2021-06-05T09:33:01Z</time>
      </trkpt>
      <trkpt lat="43.65235" lon="3.30529">
        <ele>186</ele>
        <time>2021-06-05T09:33:02Z</time>
      </trkpt>
      <trkpt lat="43.65238" lon="3.30525">
        <ele>187</ele>
        <time>2021-06-05T09:33:02Z</time>
      </trkpt>
      <trkpt lat="43.6524" lon="3.30522">
        <ele>187</ele>
        <time>2021-06-05T09:33:03Z</time>
      </trkpt>
      <trkpt lat="43.65243" lon="3.30519">
        <ele>187</ele>
        <time>2021-06-05T09:33:05Z</time>
      </trkpt>
      <trkpt lat="43.65245" lon="3.30516">
        <ele>187</ele>
        <time>2021-06-05T09:33:05Z</time>
      </trkpt>
      <trkpt lat="43.65248" lon="3.30513">
        <ele>187</ele>
        <time>2021-06-05T09:33:07Z</time>
      </trkpt>
      <trkpt lat="43.65251" lon="3.3051">
        <ele>187</ele>
        <time>2021-06-05T09:33:08Z</time>
      </trkpt>
      <trkpt lat="43.65254" lon="3.30507">
        <ele>187</ele>
        <time>2021-06-05T09:33:09Z</time>
      </trkpt>
      <trkpt lat="43.65256" lon="3.30503">
        <ele>187</ele>
        <time>2021-06-05T09:33:10Z</time>
      </trkpt>
      <trkpt lat="43.65259" lon="3.30501">
        <ele>187</ele>
        <time>2021-06-05T09:33:11Z</time>
      </trkpt>
      <trkpt lat="43.65261" lon="3.30498">
        <ele>187</ele>
        <time>2021-06-05T09:33:12Z</time>
      </trkpt>
      <trkpt lat="43.65264" lon="3.30495">
        <ele>187</ele>
        <time>2021-06-05T09:33:13Z</time>
      </trkpt>
      <trkpt lat="43.65267" lon="3.30492">
        <ele>187</ele>
        <time>2021-06-05T09:33:14Z</time>
      </trkpt>
      <trkpt lat="43.6527" lon="3.30489">
        <ele>187</ele>
        <time>2021-06-05T09:33:15Z</time>
      </trkpt>
      <trkpt lat="43.65272" lon="3.30486">
        <ele>187</ele>
        <time>2021-06-05T09:33:16Z</time>
      </trkpt>
      <trkpt lat="43.65275" lon="3.30483">
        <ele>187</ele>
        <time>2021-06-05T09:33:17Z</time>
      </trkpt>
      <trkpt lat="43.65277" lon="3.3048">
        <ele>187</ele>
        <time>2021-06-05T09:33:17Z</time>
      </trkpt>
      <trkpt lat="43.6528" lon="3.30477">
        <ele>187</ele>
        <time>2021-06-05T09:33:18Z</time>
      </trkpt>
      <trkpt lat="43.65283" lon="3.30474">
        <ele>187</ele>
        <time>2021-06-05T09:33:20Z</time>
      </trkpt>
      <trkpt lat="43.65285" lon="3.30472">
        <ele>187</ele>
        <time>2021-06-05T09:33:20Z</time>
      </trkpt>
      <trkpt lat="43.65287" lon="3.30468">
        <ele>187</ele>
        <time>2021-06-05T09:33:21Z</time>
      </trkpt>
      <trkpt lat="43.6529" lon="3.30465">
        <ele>187</ele>
        <time>2021-06-05T09:33:23Z</time>
      </trkpt>
      <trkpt lat="43.65293" lon="3.30463">
        <ele>187</ele>
        <time>2021-06-05T09:33:24Z</time>
      </trkpt>
      <trkpt lat="43.65295" lon="3.3046">
        <ele>187</ele>
        <time>2021-06-05T09:33:25Z</time>
      </trkpt>
      <trkpt lat="43.65297" lon="3.30457">
        <ele>187</ele>
        <time>2021-06-05T09:33:26Z</time>
      </trkpt>
      <trkpt lat="43.653" lon="3.30455">
        <ele>187</ele>
        <time>2021-06-05T09:33:27Z</time>
      </trkpt>
      <trkpt lat="43.65303" lon="3.30453">
        <ele>187</ele>
        <time>2021-06-05T09:33:28Z</time>
      </trkpt>
      <trkpt lat="43.65306" lon="3.30449">
        <ele>187</ele>
        <time>2021-06-05T09:33:29Z</time>
      </trkpt>
      <trkpt lat="43.65308" lon="3.30447">
        <ele>187</ele>
        <time>2021-06-05T09:33:30Z</time>
      </trkpt>
      <trkpt lat="43.65311" lon="3.30444">
        <ele>187</ele>
        <time>2021-06-05T09:33:31Z</time>
      </trkpt>
      <trkpt lat="43.65314" lon="3.3044">
        <ele>187</ele>
        <time>2021-06-05T09:33:31Z</time>
      </trkpt>
      <trkpt lat="43.65317" lon="3.30437">
        <ele>187</ele>
        <time>2021-06-05T09:33:33Z</time>
      </trkpt>
      <trkpt lat="43.6532" lon="3.30434">
        <ele>187</ele>
        <time>2021-06-05T09:33:34Z</time>
      </trkpt>
      <trkpt lat="43.65323" lon="3.30431">
        <ele>187</ele>
        <time>2021-06-05T09:33:34Z</time>
      </trkpt>
      <trkpt lat="43.65326" lon="3.30428">
        <ele>187</ele>
        <time>2021-06-05T09:33:35Z</time>
      </trkpt>
      <trkpt lat="43.65328" lon="3.30425">
        <ele>187</ele>
        <time>2021-06-05T09:33:36Z</time>
      </trkpt>
      <trkpt lat="43.65331" lon="3.30422">
        <ele>187</ele>
        <time>2021-06-05T09:33:37Z</time>
      </trkpt>
      <trkpt lat="43.65334" lon="3.3042">
        <ele>187</ele>
        <time>2021-06-05T09:33:39Z</time>
      </trkpt>
      <trkpt lat="43.65336" lon="3.30417">
        <ele>187</ele>
        <time>2021-06-05T09:33:39Z</time>
      </trkpt>
      <trkpt lat="43.65339" lon="3.30414">
        <ele>187</ele>
        <time>2021-06-05T09:33:41Z</time>
      </trkpt>
      <trkpt lat="43.65341" lon="3.30411">
        <ele>187</ele>
        <time>2021-06-05T09:33:41Z</time>
      </trkpt>
      <trkpt lat="43.65343" lon="3.30408">
        <ele>188</ele>
        <time>2021-06-05T09:33:42Z</time>
      </trkpt>
      <trkpt lat="43.65345" lon="3.30406">
        <ele>188</ele>
        <time>2021-06-05T09:33:43Z</time>
      </trkpt>
      <trkpt lat="43.65347" lon="3.30403">
        <ele>188</ele>
        <time>2021-06-05T09:33:44Z</time>
      </trkpt>
      <trkpt lat="43.6535" lon="3.304">
        <ele>188</ele>
        <time>2021-06-05T09:33:46Z</time>
      </trkpt>
      <trkpt lat="43.65352" lon="3.30398">
        <ele>188</ele>
        <time>2021-06-05T09:33:47Z</time>
      </trkpt>
      <trkpt lat="43.65354" lon="3.30395">
        <ele>188</ele>
        <time>2021-06-05T09:33:47Z</time>
      </trkpt>
      <trkpt lat="43.65356" lon="3.30393">
        <ele>188</ele>
        <time>2021-06-05T09:33:48Z</time>
      </trkpt>
      <trkpt lat="43.65358" lon="3.3039">
        <ele>188</ele>
        <time>2021-06-05T09:33:49Z</time>
      </trkpt>
      <trkpt lat="43.65361" lon="3.30387">
        <ele>188</ele>
        <time>2021-06-05T09:33:51Z</time>
      </trkpt>
      <trkpt lat="43.65363" lon="3.30385">
        <ele>188</ele>
        <time>2021-06-05T09:33:52Z</time>
      </trkpt>
      <trkpt lat="43.65365" lon="3.30383">
        <ele>189</ele>
        <time>2021-06-05T09:33:52Z</time>
      </trkpt>
      <trkpt lat="43.65367" lon="3.3038">
        <ele>189</ele>
        <time>2021-06-05T09:33:53Z</time>
      </trkpt>
      <trkpt lat="43.6537" lon="3.30378">
        <ele>189</ele>
        <time>2021-06-05T09:33:54Z</time>
      </trkpt>
      <trkpt lat="43.65372" lon="3.30375">
        <ele>189</ele>
        <time>2021-06-05T09:33:55Z</time>
      </trkpt>
      <trkpt lat="43.65374" lon="3.30373">
        <ele>189</ele>
        <time>2021-06-05T09:33:56Z</time>
      </trkpt>
      <trkpt lat="43.65376" lon="3.30371">
        <ele>189</ele>
        <time>2021-06-05T09:33:58Z</time>
      </trkpt>
      <trkpt lat="43.65378" lon="3.30368">
        <ele>189</ele>
        <time>2021-06-05T09:33:59Z</time>
      </trkpt>
      <trkpt lat="43.6538" lon="3.30366">
        <ele>189</ele>
        <time>2021-06-05T09:34:00Z</time>
      </trkpt>
      <trkpt lat="43.65382" lon="3.30364">
        <ele>189</ele>
        <time>2021-06-05T09:34:01Z</time>
      </trkpt>
      <trkpt lat="43.65384" lon="3.30361">
        <ele>189</ele>
        <time>2021-06-05T09:34:01Z</time>
      </trkpt>
      <trkpt lat="43.65387" lon="3.30359">
        <ele>191</ele>
        <time>2021-06-05T09:34:03Z</time>
      </trkpt>
      <trkpt lat="43.65389" lon="3.30356">
        <ele>191</ele>
        <time>2021-06-05T09:34:04Z</time>
      </trkpt>
      <trkpt lat="43.65391" lon="3.30354">
        <ele>191</ele>
        <time>2021-06-05T09:34:04Z</time>
      </trkpt>
      <trkpt lat="43.65393" lon="3.30352">
        <ele>191</ele>
        <time>2021-06-05T09:34:06Z</time>
      </trkpt>
      <trkpt lat="43.65395" lon="3.30349">
        <ele>191</ele>
        <time>2021-06-05T09:34:06Z</time>
      </trkpt>
      <trkpt lat="43.65397" lon="3.30347">
        <ele>191</ele>
        <time>2021-06-05T09:34:08Z</time>
      </trkpt>
      <trkpt lat="43.65399" lon="3.30345">
        <ele>191</ele>
        <time>2021-06-05T09:34:08Z</time>
      </trkpt>
      <trkpt lat="43.65401" lon="3.30342">
        <ele>191</ele>
        <time>2021-06-05T09:34:09Z</time>
      </trkpt>
      <trkpt lat="43.65403" lon="3.3034">
        <ele>191</ele>
        <time>2021-06-05T09:34:10Z</time>
      </trkpt>
      <trkpt lat="43.65405" lon="3.30338">
        <ele>191</ele>
        <time>2021-06-05T09:34:11Z</time>
      </trkpt>
      <trkpt lat="43.65408" lon="3.30335">
        <ele>192</ele>
        <time>2021-06-05T09:34:12Z</time>
      </trkpt>
      <trkpt lat="43.6541" lon="3.30333">
        <ele>192</ele>
        <time>2021-06-05T09:34:14Z</time>
      </trkpt>
      <trkpt lat="43.65411" lon="3.30331">
        <ele>192</ele>
        <time>2021-06-05T09:34:15Z</time>
      </trkpt>
      <trkpt lat="43.65413" lon="3.30329">
        <ele>192</ele>
        <time>2021-06-05T09:34:16Z</time>
      </trkpt>
      <trkpt lat="43.65415" lon="3.30327">
        <ele>192</ele>
        <time>2021-06-05T09:34:17Z</time>
      </trkpt>
      <trkpt lat="43.65417" lon="3.30325">
        <ele>192</ele>
        <time>2021-06-05T09:34:17Z</time>
      </trkpt>
      <trkpt lat="43.65418" lon="3.30322">
        <ele>192</ele>
        <time>2021-06-05T09:34:18Z</time>
      </trkpt>
      <trkpt lat="43.6542" lon="3.30321">
        <ele>192</ele>
        <time>2021-06-05T09:34:19Z</time>
      </trkpt>
      <trkpt lat="43.65421" lon="3.3032">
        <ele>192</ele>
        <time>2021-06-05T09:34:21Z</time>
      </trkpt>
      <trkpt lat="43.65431" lon="3.30302">
        <ele>204</ele>
        <time>2021-06-05T09:34:21Z</time>
      </trkpt>
      <trkpt lat="43.65433" lon="3.30302">
        <ele>204</ele>
        <time>2021-06-05T09:34:21Z</time>
      </trkpt>
      <trkpt lat="43.65435" lon="3.30301">
        <ele>204</ele>
        <time>2021-06-05T09:34:22Z</time>
      </trkpt>
      <trkpt lat="43.65424" lon="3.30317">
        <ele>193</ele>
        <time>2021-06-05T09:34:23Z</time>
      </trkpt>
      <trkpt lat="43.65438" lon="3.303">
        <ele>204</ele>
        <time>2021-06-05T09:34:23Z</time>
      </trkpt>
      <trkpt lat="43.6544" lon="3.30299">
        <ele>204</ele>
        <time>2021-06-05T09:34:24Z</time>
      </trkpt>
      <trkpt lat="43.65427" lon="3.30315">
        <ele>193</ele>
        <time>2021-06-05T09:34:25Z</time>
      </trkpt>
      <trkpt lat="43.65443" lon="3.30299">
        <ele>204</ele>
        <time>2021-06-05T09:34:25Z</time>
      </trkpt>
      <trkpt lat="43.65446" lon="3.30298">
        <ele>204</ele>
        <time>2021-06-05T09:34:26Z</time>
      </trkpt>
      <trkpt lat="43.65429" lon="3.30314">
        <ele>193</ele>
        <time>2021-06-05T09:34:26Z</time>
      </trkpt>
      <trkpt lat="43.65448" lon="3.30297">
        <ele>204</ele>
        <time>2021-06-05T09:34:27Z</time>
      </trkpt>
      <trkpt lat="43.65451" lon="3.30296">
        <ele>204</ele>
        <time>2021-06-05T09:34:28Z</time>
      </trkpt>
      <trkpt lat="43.65453" lon="3.30295">
        <ele>204</ele>
        <time>2021-06-05T09:34:29Z</time>
      </trkpt>
      <trkpt lat="43.65456" lon="3.30295">
        <ele>205</ele>
        <time>2021-06-05T09:34:30Z</time>
      </trkpt>
      <trkpt lat="43.65458" lon="3.30294">
        <ele>205</ele>
        <time>2021-06-05T09:34:31Z</time>
      </trkpt>
      <trkpt lat="43.6546" lon="3.30293">
        <ele>205</ele>
        <time>2021-06-05T09:34:32Z</time>
      </trkpt>
      <trkpt lat="43.65463" lon="3.30292">
        <ele>205</ele>
        <time>2021-06-05T09:34:33Z</time>
      </trkpt>
      <trkpt lat="43.65465" lon="3.30291">
        <ele>205</ele>
        <time>2021-06-05T09:34:34Z</time>
      </trkpt>
      <trkpt lat="43.65466" lon="3.30289">
        <ele>205</ele>
        <time>2021-06-05T09:34:35Z</time>
      </trkpt>
      <trkpt lat="43.6543" lon="3.30313">
        <ele>196</ele>
        <time>2021-06-05T09:34:36Z</time>
      </trkpt>
      <trkpt lat="43.65468" lon="3.30287">
        <ele>205</ele>
        <time>2021-06-05T09:34:36Z</time>
      </trkpt>
      <trkpt lat="43.6547" lon="3.30285">
        <ele>205</ele>
        <time>2021-06-05T09:34:37Z</time>
      </trkpt>
      <trkpt lat="43.65471" lon="3.30282">
        <ele>205</ele>
        <time>2021-06-05T09:34:38Z</time>
      </trkpt>
      <trkpt lat="43.65473" lon="3.3028">
        <ele>205</ele>
        <time>2021-06-05T09:34:39Z</time>
      </trkpt>
      <trkpt lat="43.65474" lon="3.30278">
        <ele>204</ele>
        <time>2021-06-05T09:34:40Z</time>
      </trkpt>
      <trkpt lat="43.65476" lon="3.30277">
        <ele>204</ele>
        <time>2021-06-05T09:34:41Z</time>
      </trkpt>
      <trkpt lat="43.65479" lon="3.30273">
        <ele>204</ele>
        <time>2021-06-05T09:34:43Z</time>
      </trkpt>
      <trkpt lat="43.6548" lon="3.30271">
        <ele>204</ele>
        <time>2021-06-05T09:34:44Z</time>
      </trkpt>
      <trkpt lat="43.65481" lon="3.30269">
        <ele>204</ele>
        <time>2021-06-05T09:34:45Z</time>
      </trkpt>
      <trkpt lat="43.65482" lon="3.30267">
        <ele>204</ele>
        <time>2021-06-05T09:34:46Z</time>
      </trkpt>
      <trkpt lat="43.65483" lon="3.30265">
        <ele>204</ele>
        <time>2021-06-05T09:34:47Z</time>
      </trkpt>
      <trkpt lat="43.65485" lon="3.30263">
        <ele>204</ele>
        <time>2021-06-05T09:34:48Z</time>
      </trkpt>
      <trkpt lat="43.65486" lon="3.30261">
        <ele>204</ele>
        <time>2021-06-05T09:34:49Z</time>
      </trkpt>
      <trkpt lat="43.65488" lon="3.30259">
        <ele>204</ele>
        <time>2021-06-05T09:34:50Z</time>
      </trkpt>
      <trkpt lat="43.65489" lon="3.30258">
        <ele>204</ele>
        <time>2021-06-05T09:34:51Z</time>
      </trkpt>
      <trkpt lat="43.65491" lon="3.30256">
        <ele>204</ele>
        <time>2021-06-05T09:34:52Z</time>
      </trkpt>
      <trkpt lat="43.65493" lon="3.30255">
        <ele>204</ele>
        <time>2021-06-05T09:34:53Z</time>
      </trkpt>
      <trkpt lat="43.65494" lon="3.30253">
        <ele>204</ele>
        <time>2021-06-05T09:34:54Z</time>
      </trkpt>
      <trkpt lat="43.65497" lon="3.30251">
        <ele>204</ele>
        <time>2021-06-05T09:34:55Z</time>
      </trkpt>
      <trkpt lat="43.65498" lon="3.30249">
        <ele>204</ele>
        <time>2021-06-05T09:34:56Z</time>
      </trkpt>
      <trkpt lat="43.655" lon="3.30248">
        <ele>204</ele>
        <time>2021-06-05T09:34:57Z</time>
      </trkpt>
      <trkpt lat="43.65502" lon="3.30246">
        <ele>204</ele>
        <time>2021-06-05T09:34:58Z</time>
      </trkpt>
      <trkpt lat="43.65503" lon="3.30244">
        <ele>204</ele>
        <time>2021-06-05T09:34:59Z</time>
      </trkpt>
      <trkpt lat="43.65505" lon="3.30241">
        <ele>204</ele>
        <time>2021-06-05T09:35:00Z</time>
      </trkpt>
      <trkpt lat="43.65507" lon="3.3024">
        <ele>204</ele>
        <time>2021-06-05T09:35:01Z</time>
      </trkpt>
      <trkpt lat="43.65509" lon="3.30239">
        <ele>204</ele>
        <time>2021-06-05T09:35:02Z</time>
      </trkpt>
      <trkpt lat="43.65511" lon="3.30238">
        <ele>204</ele>
        <time>2021-06-05T09:35:03Z</time>
      </trkpt>
      <trkpt lat="43.65514" lon="3.30237">
        <ele>204</ele>
        <time>2021-06-05T09:35:04Z</time>
      </trkpt>
      <trkpt lat="43.65515" lon="3.30237">
        <ele>204</ele>
        <time>2021-06-05T09:35:05Z</time>
      </trkpt>
      <trkpt lat="43.65517" lon="3.30237">
        <ele>204</ele>
        <time>2021-06-05T09:35:06Z</time>
      </trkpt>
      <trkpt lat="43.65519" lon="3.30237">
        <ele>204</ele>
        <time>2021-06-05T09:35:07Z</time>
      </trkpt>
      <trkpt lat="43.65521" lon="3.30237">
        <ele>204</ele>
        <time>2021-06-05T09:35:08Z</time>
      </trkpt>
      <trkpt lat="43.65523" lon="3.30238">
        <ele>204</ele>
        <time>2021-06-05T09:35:09Z</time>
      </trkpt>
      <trkpt lat="43.65526" lon="3.30239">
        <ele>205</ele>
        <time>2021-06-05T09:35:11Z</time>
      </trkpt>
      <trkpt lat="43.65529" lon="3.30241">
        <ele>205</ele>
        <time>2021-06-05T09:35:13Z</time>
      </trkpt>
      <trkpt lat="43.65533" lon="3.30243">
        <ele>205</ele>
        <time>2021-06-05T09:35:15Z</time>
      </trkpt>
      <trkpt lat="43.65534" lon="3.30244">
        <ele>205</ele>
        <time>2021-06-05T09:35:16Z</time>
      </trkpt>
      <trkpt lat="43.65535" lon="3.30246">
        <ele>205</ele>
        <time>2021-06-05T09:35:17Z</time>
      </trkpt>
      <trkpt lat="43.65538" lon="3.30249">
        <ele>205</ele>
        <time>2021-06-05T09:35:19Z</time>
      </trkpt>
      <trkpt lat="43.65541" lon="3.30252">
        <ele>205</ele>
        <time>2021-06-05T09:35:21Z</time>
      </trkpt>
      <trkpt lat="43.65543" lon="3.30253">
        <ele>205</ele>
        <time>2021-06-05T09:35:22Z</time>
      </trkpt>
      <trkpt lat="43.65545" lon="3.30255">
        <ele>205</ele>
        <time>2021-06-05T09:35:23Z</time>
      </trkpt>
      <trkpt lat="43.65546" lon="3.30256">
        <ele>205</ele>
        <time>2021-06-05T09:35:24Z</time>
      </trkpt>
      <trkpt lat="43.65547" lon="3.30257">
        <ele>205</ele>
        <time>2021-06-05T09:35:25Z</time>
      </trkpt>
      <trkpt lat="43.65549" lon="3.30258">
        <ele>205</ele>
        <time>2021-06-05T09:35:26Z</time>
      </trkpt>
      <trkpt lat="43.6555" lon="3.30259">
        <ele>205</ele>
        <time>2021-06-05T09:35:27Z</time>
      </trkpt>
      <trkpt lat="43.65552" lon="3.3026">
        <ele>205</ele>
        <time>2021-06-05T09:35:28Z</time>
      </trkpt>
      <trkpt lat="43.65554" lon="3.30261">
        <ele>205</ele>
        <time>2021-06-05T09:35:29Z</time>
      </trkpt>
      <trkpt lat="43.65556" lon="3.30262">
        <ele>206</ele>
        <time>2021-06-05T09:35:30Z</time>
      </trkpt>
      <trkpt lat="43.65557" lon="3.30263">
        <ele>206</ele>
        <time>2021-06-05T09:35:31Z</time>
      </trkpt>
      <trkpt lat="43.6556" lon="3.30264">
        <ele>206</ele>
        <time>2021-06-05T09:35:32Z</time>
      </trkpt>
      <trkpt lat="43.65561" lon="3.30265">
        <ele>206</ele>
        <time>2021-06-05T09:35:33Z</time>
      </trkpt>
      <trkpt lat="43.65563" lon="3.30266">
        <ele>206</ele>
        <time>2021-06-05T09:35:34Z</time>
      </trkpt>
      <trkpt lat="43.65565" lon="3.30267">
        <ele>206</ele>
        <time>2021-06-05T09:35:35Z</time>
      </trkpt>
      <trkpt lat="43.65566" lon="3.30268">
        <ele>206</ele>
        <time>2021-06-05T09:35:36Z</time>
      </trkpt>
      <trkpt lat="43.65568" lon="3.30269">
        <ele>206</ele>
        <time>2021-06-05T09:35:37Z</time>
      </trkpt>
      <trkpt lat="43.6557" lon="3.3027">
        <ele>206</ele>
        <time>2021-06-05T09:35:38Z</time>
      </trkpt>
      <trkpt lat="43.65572" lon="3.30271">
        <ele>206</ele>
        <time>2021-06-05T09:35:39Z</time>
      </trkpt>
      <trkpt lat="43.65573" lon="3.30272">
        <ele>207</ele>
        <time>2021-06-05T09:35:40Z</time>
      </trkpt>
      <trkpt lat="43.65575" lon="3.30273">
        <ele>207</ele>
        <time>2021-06-05T09:35:41Z</time>
      </trkpt>
      <trkpt lat="43.65577" lon="3.30274">
        <ele>207</ele>
        <time>2021-06-05T09:35:42Z</time>
      </trkpt>
      <trkpt lat="43.65579" lon="3.30275">
        <ele>207</ele>
        <time>2021-06-05T09:35:43Z</time>
      </trkpt>
      <trkpt lat="43.65581" lon="3.30276">
        <ele>207</ele>
        <time>2021-06-05T09:35:44Z</time>
      </trkpt>
      <trkpt lat="43.65582" lon="3.30277">
        <ele>207</ele>
        <time>2021-06-05T09:35:45Z</time>
      </trkpt>
      <trkpt lat="43.65584" lon="3.30277">
        <ele>207</ele>
        <time>2021-06-05T09:35:46Z</time>
      </trkpt>
      <trkpt lat="43.65586" lon="3.30278">
        <ele>207</ele>
        <time>2021-06-05T09:35:47Z</time>
      </trkpt>
      <trkpt lat="43.65588" lon="3.30279">
        <ele>207</ele>
        <time>2021-06-05T09:35:48Z</time>
      </trkpt>
      <trkpt lat="43.6559" lon="3.30279">
        <ele>207</ele>
        <time>2021-06-05T09:35:49Z</time>
      </trkpt>
      <trkpt lat="43.65592" lon="3.3028">
        <ele>208</ele>
        <time>2021-06-05T09:35:50Z</time>
      </trkpt>
      <trkpt lat="43.65594" lon="3.30281">
        <ele>208</ele>
        <time>2021-06-05T09:35:51Z</time>
      </trkpt>
      <trkpt lat="43.65596" lon="3.30282">
        <ele>208</ele>
        <time>2021-06-05T09:35:52Z</time>
      </trkpt>
      <trkpt lat="43.65598" lon="3.30283">
        <ele>208</ele>
        <time>2021-06-05T09:35:53Z</time>
      </trkpt>
      <trkpt lat="43.656" lon="3.30284">
        <ele>208</ele>
        <time>2021-06-05T09:35:54Z</time>
      </trkpt>
      <trkpt lat="43.65602" lon="3.30285">
        <ele>208</ele>
        <time>2021-06-05T09:35:55Z</time>
      </trkpt>
      <trkpt lat="43.65604" lon="3.30286">
        <ele>208</ele>
        <time>2021-06-05T09:35:56Z</time>
      </trkpt>
      <trkpt lat="43.65606" lon="3.30286">
        <ele>208</ele>
        <time>2021-06-05T09:35:57Z</time>
      </trkpt>
      <trkpt lat="43.65608" lon="3.30287">
        <ele>208</ele>
        <time>2021-06-05T09:35:58Z</time>
      </trkpt>
      <trkpt lat="43.6561" lon="3.30289">
        <ele>208</ele>
        <time>2021-06-05T09:35:59Z</time>
      </trkpt>
      <trkpt lat="43.65612" lon="3.3029">
        <ele>208</ele>
        <time>2021-06-05T09:36:00Z</time>
      </trkpt>
      <trkpt lat="43.65615" lon="3.30291">
        <ele>208</ele>
        <time>2021-06-05T09:36:01Z</time>
      </trkpt>
      <trkpt lat="43.65616" lon="3.30293">
        <ele>208</ele>
        <time>2021-06-05T09:36:02Z</time>
      </trkpt>
      <trkpt lat="43.65618" lon="3.30295">
        <ele>208</ele>
        <time>2021-06-05T09:36:03Z</time>
      </trkpt>
      <trkpt lat="43.6562" lon="3.30297">
        <ele>208</ele>
        <time>2021-06-05T09:36:04Z</time>
      </trkpt>
      <trkpt lat="43.65622" lon="3.30299">
        <ele>208</ele>
        <time>2021-06-05T09:36:05Z</time>
      </trkpt>
      <trkpt lat="43.65624" lon="3.30302">
        <ele>208</ele>
        <time>2021-06-05T09:36:06Z</time>
      </trkpt>
      <trkpt lat="43.65626" lon="3.30305">
        <ele>208</ele>
        <time>2021-06-05T09:36:07Z</time>
      </trkpt>
      <trkpt lat="43.65628" lon="3.30307">
        <ele>208</ele>
        <time>2021-06-05T09:36:08Z</time>
      </trkpt>
      <trkpt lat="43.65629" lon="3.30311">
        <ele>208</ele>
        <time>2021-06-05T09:36:09Z</time>
      </trkpt>
      <trkpt lat="43.65631" lon="3.30314">
        <ele>208</ele>
        <time>2021-06-05T09:36:10Z</time>
      </trkpt>
      <trkpt lat="43.65632" lon="3.30317">
        <ele>208</ele>
        <time>2021-06-05T09:36:11Z</time>
      </trkpt>
      <trkpt lat="43.65633" lon="3.3032">
        <ele>208</ele>
        <time>2021-06-05T09:36:12Z</time>
      </trkpt>
      <trkpt lat="43.65634" lon="3.30324">
        <ele>208</ele>
        <time>2021-06-05T09:36:13Z</time>
      </trkpt>
      <trkpt lat="43.65635" lon="3.30327">
        <ele>208</ele>
        <time>2021-06-05T09:36:14Z</time>
      </trkpt>
      <trkpt lat="43.65636" lon="3.3033">
        <ele>208</ele>
        <time>2021-06-05T09:36:15Z</time>
      </trkpt>
      <trkpt lat="43.65637" lon="3.30333">
        <ele>208</ele>
        <time>2021-06-05T09:36:16Z</time>
      </trkpt>
      <trkpt lat="43.65638" lon="3.30337">
        <ele>208</ele>
        <time>2021-06-05T09:36:17Z</time>
      </trkpt>
      <trkpt lat="43.65638" lon="3.3034">
        <ele>208</ele>
        <time>2021-06-05T09:36:18Z</time>
      </trkpt>
      <trkpt lat="43.65639" lon="3.30344">
        <ele>208</ele>
        <time>2021-06-05T09:36:19Z</time>
      </trkpt>
      <trkpt lat="43.6564" lon="3.30347">
        <ele>209</ele>
        <time>2021-06-05T09:36:20Z</time>
      </trkpt>
      <trkpt lat="43.65641" lon="3.30349">
        <ele>209</ele>
        <time>2021-06-05T09:36:21Z</time>
      </trkpt>
      <trkpt lat="43.65642" lon="3.30353">
        <ele>209</ele>
        <time>2021-06-05T09:36:22Z</time>
      </trkpt>
      <trkpt lat="43.65643" lon="3.30355">
        <ele>209</ele>
        <time>2021-06-05T09:36:23Z</time>
      </trkpt>
      <trkpt lat="43.65645" lon="3.30358">
        <ele>209</ele>
        <time>2021-06-05T09:36:24Z</time>
      </trkpt>
      <trkpt lat="43.65646" lon="3.3036">
        <ele>209</ele>
        <time>2021-06-05T09:36:25Z</time>
      </trkpt>
      <trkpt lat="43.65648" lon="3.30362">
        <ele>209</ele>
        <time>2021-06-05T09:36:26Z</time>
      </trkpt>
      <trkpt lat="43.6565" lon="3.30364">
        <ele>209</ele>
        <time>2021-06-05T09:36:27Z</time>
      </trkpt>
      <trkpt lat="43.65651" lon="3.30366">
        <ele>209</ele>
        <time>2021-06-05T09:36:28Z</time>
      </trkpt>
      <trkpt lat="43.65652" lon="3.30368">
        <ele>209</ele>
        <time>2021-06-05T09:36:29Z</time>
      </trkpt>
      <trkpt lat="43.65654" lon="3.3037">
        <ele>210</ele>
        <time>2021-06-05T09:36:30Z</time>
      </trkpt>
      <trkpt lat="43.65655" lon="3.30372">
        <ele>210</ele>
        <time>2021-06-05T09:36:31Z</time>
      </trkpt>
      <trkpt lat="43.65657" lon="3.30374">
        <ele>210</ele>
        <time>2021-06-05T09:36:32Z</time>
      </trkpt>
      <trkpt lat="43.65658" lon="3.30376">
        <ele>210</ele>
        <time>2021-06-05T09:36:33Z</time>
      </trkpt>
      <trkpt lat="43.6566" lon="3.30378">
        <ele>210</ele>
        <time>2021-06-05T09:36:34Z</time>
      </trkpt>
      <trkpt lat="43.65661" lon="3.3038">
        <ele>210</ele>
        <time>2021-06-05T09:36:35Z</time>
      </trkpt>
      <trkpt lat="43.65662" lon="3.30382">
        <ele>210</ele>
        <time>2021-06-05T09:36:36Z</time>
      </trkpt>
      <trkpt lat="43.65664" lon="3.30383">
        <ele>210</ele>
        <time>2021-06-05T09:36:37Z</time>
      </trkpt>
      <trkpt lat="43.65665" lon="3.30385">
        <ele>210</ele>
        <time>2021-06-05T09:36:38Z</time>
      </trkpt>
      <trkpt lat="43.65667" lon="3.30388">
        <ele>211</ele>
        <time>2021-06-05T09:36:40Z</time>
      </trkpt>
      <trkpt lat="43.65669" lon="3.3039">
        <ele>211</ele>
        <time>2021-06-05T09:36:41Z</time>
      </trkpt>
      <trkpt lat="43.65671" lon="3.30391">
        <ele>211</ele>
        <time>2021-06-05T09:36:42Z</time>
      </trkpt>
      <trkpt lat="43.65672" lon="3.30393">
        <ele>211</ele>
        <time>2021-06-05T09:36:43Z</time>
      </trkpt>
      <trkpt lat="43.65674" lon="3.30394">
        <ele>211</ele>
        <time>2021-06-05T09:36:44Z</time>
      </trkpt>
      <trkpt lat="43.65675" lon="3.30396">
        <ele>211</ele>
        <time>2021-06-05T09:36:45Z</time>
      </trkpt>
      <trkpt lat="43.65677" lon="3.30397">
        <ele>211</ele>
        <time>2021-06-05T09:36:46Z</time>
      </trkpt>
      <trkpt lat="43.65678" lon="3.30398">
        <ele>211</ele>
        <time>2021-06-05T09:36:47Z</time>
      </trkpt>
      <trkpt lat="43.6568" lon="3.30399">
        <ele>211</ele>
        <time>2021-06-05T09:36:48Z</time>
      </trkpt>
      <trkpt lat="43.65681" lon="3.304">
        <ele>211</ele>
        <time>2021-06-05T09:36:49Z</time>
      </trkpt>
      <trkpt lat="43.65684" lon="3.30402">
        <ele>213</ele>
        <time>2021-06-05T09:36:50Z</time>
      </trkpt>
      <trkpt lat="43.65686" lon="3.30404">
        <ele>213</ele>
        <time>2021-06-05T09:36:52Z</time>
      </trkpt>
      <trkpt lat="43.6569" lon="3.30406">
        <ele>213</ele>
        <time>2021-06-05T09:36:54Z</time>
      </trkpt>
      <trkpt lat="43.65693" lon="3.30408">
        <ele>213</ele>
        <time>2021-06-05T09:36:56Z</time>
      </trkpt>
      <trkpt lat="43.65695" lon="3.30409">
        <ele>213</ele>
        <time>2021-06-05T09:36:57Z</time>
      </trkpt>
      <trkpt lat="43.65698" lon="3.30411">
        <ele>213</ele>
        <time>2021-06-05T09:36:59Z</time>
      </trkpt>
      <trkpt lat="43.657" lon="3.30412">
        <ele>214</ele>
        <time>2021-06-05T09:37:00Z</time>
      </trkpt>
      <trkpt lat="43.65701" lon="3.30413">
        <ele>214</ele>
        <time>2021-06-05T09:37:01Z</time>
      </trkpt>
      <trkpt lat="43.65705" lon="3.30414">
        <ele>214</ele>
        <time>2021-06-05T09:37:03Z</time>
      </trkpt>
      <trkpt lat="43.65708" lon="3.30415">
        <ele>214</ele>
        <time>2021-06-05T09:37:05Z</time>
      </trkpt>
      <trkpt lat="43.65711" lon="3.30417">
        <ele>214</ele>
        <time>2021-06-05T09:37:07Z</time>
      </trkpt>
      <trkpt lat="43.65714" lon="3.30418">
        <ele>214</ele>
        <time>2021-06-05T09:37:09Z</time>
      </trkpt>
      <trkpt lat="43.65717" lon="3.30419">
        <ele>216</ele>
        <time>2021-06-05T09:37:11Z</time>
      </trkpt>
      <trkpt lat="43.6572" lon="3.30419">
        <ele>216</ele>
        <time>2021-06-05T09:37:13Z</time>
      </trkpt>
      <trkpt lat="43.65724" lon="3.3042">
        <ele>216</ele>
        <time>2021-06-05T09:37:15Z</time>
      </trkpt>
      <trkpt lat="43.65728" lon="3.3042">
        <ele>216</ele>
        <time>2021-06-05T09:37:17Z</time>
      </trkpt>
      <trkpt lat="43.6573" lon="3.3042">
        <ele>216</ele>
        <time>2021-06-05T09:37:19Z</time>
      </trkpt>
      <trkpt lat="43.65733" lon="3.3042">
        <ele>217</ele>
        <time>2021-06-05T09:37:21Z</time>
      </trkpt>
      <trkpt lat="43.65736" lon="3.3042">
        <ele>217</ele>
        <time>2021-06-05T09:37:23Z</time>
      </trkpt>
      <trkpt lat="43.65739" lon="3.3042">
        <ele>217</ele>
        <time>2021-06-05T09:37:25Z</time>
      </trkpt>
      <trkpt lat="43.65741" lon="3.30419">
        <ele>217</ele>
        <time>2021-06-05T09:37:27Z</time>
      </trkpt>
      <trkpt lat="43.65745" lon="3.30419">
        <ele>217</ele>
        <time>2021-06-05T09:37:29Z</time>
      </trkpt>
      <trkpt lat="43.65747" lon="3.30418">
        <ele>219</ele>
        <time>2021-06-05T09:37:31Z</time>
      </trkpt>
      <trkpt lat="43.65751" lon="3.30418">
        <ele>219</ele>
        <time>2021-06-05T09:37:33Z</time>
      </trkpt>
      <trkpt lat="43.65753" lon="3.30417">
        <ele>219</ele>
        <time>2021-06-05T09:37:35Z</time>
      </trkpt>
      <trkpt lat="43.65756" lon="3.30416">
        <ele>219</ele>
        <time>2021-06-05T09:37:37Z</time>
      </trkpt>
      <trkpt lat="43.65759" lon="3.30415">
        <ele>219</ele>
        <time>2021-06-05T09:37:39Z</time>
      </trkpt>
      <trkpt lat="43.65761" lon="3.30414">
        <ele>220</ele>
        <time>2021-06-05T09:37:41Z</time>
      </trkpt>
      <trkpt lat="43.65764" lon="3.30414">
        <ele>220</ele>
        <time>2021-06-05T09:37:43Z</time>
      </trkpt>
      <trkpt lat="43.65766" lon="3.30413">
        <ele>220</ele>
        <time>2021-06-05T09:37:45Z</time>
      </trkpt>
      <trkpt lat="43.65769" lon="3.30413">
        <ele>220</ele>
        <time>2021-06-05T09:37:47Z</time>
      </trkpt>
      <trkpt lat="43.65771" lon="3.30413">
        <ele>220</ele>
        <time>2021-06-05T09:37:49Z</time>
      </trkpt>
      <trkpt lat="43.65774" lon="3.30414">
        <ele>222</ele>
        <time>2021-06-05T09:37:51Z</time>
      </trkpt>
      <trkpt lat="43.65777" lon="3.30414">
        <ele>222</ele>
        <time>2021-06-05T09:37:53Z</time>
      </trkpt>
      <trkpt lat="43.65779" lon="3.30415">
        <ele>222</ele>
        <time>2021-06-05T09:37:55Z</time>
      </trkpt>
      <trkpt lat="43.65782" lon="3.30416">
        <ele>222</ele>
        <time>2021-06-05T09:37:57Z</time>
      </trkpt>
      <trkpt lat="43.65784" lon="3.30417">
        <ele>222</ele>
        <time>2021-06-05T09:37:59Z</time>
      </trkpt>
      <trkpt lat="43.65787" lon="3.30418">
        <ele>224</ele>
        <time>2021-06-05T09:38:01Z</time>
      </trkpt>
      <trkpt lat="43.65789" lon="3.30418">
        <ele>224</ele>
        <time>2021-06-05T09:38:03Z</time>
      </trkpt>
      <trkpt lat="43.65792" lon="3.30419">
        <ele>224</ele>
        <time>2021-06-05T09:38:05Z</time>
      </trkpt>
      <trkpt lat="43.65794" lon="3.30419">
        <ele>224</ele>
        <time>2021-06-05T09:38:07Z</time>
      </trkpt>
      <trkpt lat="43.65797" lon="3.3042">
        <ele>224</ele>
        <time>2021-06-05T09:38:09Z</time>
      </trkpt>
      <trkpt lat="43.65799" lon="3.30421">
        <ele>225</ele>
        <time>2021-06-05T09:38:11Z</time>
      </trkpt>
      <trkpt lat="43.65802" lon="3.30421">
        <ele>225</ele>
        <time>2021-06-05T09:38:13Z</time>
      </trkpt>
      <trkpt lat="43.65804" lon="3.30422">
        <ele>225</ele>
        <time>2021-06-05T09:38:15Z</time>
      </trkpt>
      <trkpt lat="43.65807" lon="3.30423">
        <ele>225</ele>
        <time>2021-06-05T09:38:17Z</time>
      </trkpt>
      <trkpt lat="43.65809" lon="3.30425">
        <ele>225</ele>
        <time>2021-06-05T09:38:19Z</time>
      </trkpt>
      <trkpt lat="43.65812" lon="3.30426">
        <ele>227</ele>
        <time>2021-06-05T09:38:21Z</time>
      </trkpt>
      <trkpt lat="43.65814" lon="3.30427">
        <ele>227</ele>
        <time>2021-06-05T09:38:23Z</time>
      </trkpt>
      <trkpt lat="43.65817" lon="3.30427">
        <ele>227</ele>
        <time>2021-06-05T09:38:25Z</time>
      </trkpt>
      <trkpt lat="43.6582" lon="3.30427">
        <ele>227</ele>
        <time>2021-06-05T09:38:27Z</time>
      </trkpt>
      <trkpt lat="43.65823" lon="3.30427">
        <ele>227</ele>
        <time>2021-06-05T09:38:29Z</time>
      </trkpt>
      <trkpt lat="43.65826" lon="3.30428">
        <ele>228</ele>
        <time>2021-06-05T09:38:31Z</time>
      </trkpt>
      <trkpt lat="43.65829" lon="3.30428">
        <ele>228</ele>
        <time>2021-06-05T09:38:33Z</time>
      </trkpt>
      <trkpt lat="43.65831" lon="3.30429">
        <ele>228</ele>
        <time>2021-06-05T09:38:35Z</time>
      </trkpt>
      <trkpt lat="43.65835" lon="3.30429">
        <ele>228</ele>
        <time>2021-06-05T09:38:37Z</time>
      </trkpt>
      <trkpt lat="43.65837" lon="3.3043">
        <ele>228</ele>
        <time>2021-06-05T09:38:39Z</time>
      </trkpt>
      <trkpt lat="43.6584" lon="3.30431">
        <ele>229</ele>
        <time>2021-06-05T09:38:41Z</time>
      </trkpt>
      <trkpt lat="43.65843" lon="3.30433">
        <ele>229</ele>
        <time>2021-06-05T09:38:43Z</time>
      </trkpt>
      <trkpt lat="43.65845" lon="3.30434">
        <ele>229</ele>
        <time>2021-06-05T09:38:45Z</time>
      </trkpt>
      <trkpt lat="43.65848" lon="3.30435">
        <ele>229</ele>
        <time>2021-06-05T09:38:47Z</time>
      </trkpt>
      <trkpt lat="43.65851" lon="3.30435">
        <ele>229</ele>
        <time>2021-06-05T09:38:49Z</time>
      </trkpt>
      <trkpt lat="43.65854" lon="3.30436">
        <ele>230</ele>
        <time>2021-06-05T09:38:51Z</time>
      </trkpt>
      <trkpt lat="43.65856" lon="3.30437">
        <ele>230</ele>
        <time>2021-06-05T09:38:53Z</time>
      </trkpt>
      <trkpt lat="43.65859" lon="3.30437">
        <ele>230</ele>
        <time>2021-06-05T09:38:55Z</time>
      </trkpt>
      <trkpt lat="43.65861" lon="3.30438">
        <ele>230</ele>
        <time>2021-06-05T09:38:57Z</time>
      </trkpt>
      <trkpt lat="43.65864" lon="3.3044">
        <ele>230</ele>
        <time>2021-06-05T09:38:59Z</time>
      </trkpt>
      <trkpt lat="43.65866" lon="3.30441">
        <ele>231</ele>
        <time>2021-06-05T09:39:01Z</time>
      </trkpt>
      <trkpt lat="43.65868" lon="3.30441">
        <ele>231</ele>
        <time>2021-06-05T09:39:03Z</time>
      </trkpt>
      <trkpt lat="43.65871" lon="3.30442">
        <ele>231</ele>
        <time>2021-06-05T09:39:05Z</time>
      </trkpt>
      <trkpt lat="43.65874" lon="3.30442">
        <ele>231</ele>
        <time>2021-06-05T09:39:07Z</time>
      </trkpt>
      <trkpt lat="43.65877" lon="3.30442">
        <ele>231</ele>
        <time>2021-06-05T09:39:09Z</time>
      </trkpt>
      <trkpt lat="43.6588" lon="3.30442">
        <ele>232</ele>
        <time>2021-06-05T09:39:11Z</time>
      </trkpt>
      <trkpt lat="43.65883" lon="3.30442">
        <ele>232</ele>
        <time>2021-06-05T09:39:13Z</time>
      </trkpt>
      <trkpt lat="43.65885" lon="3.30441">
        <ele>232</ele>
        <time>2021-06-05T09:39:15Z</time>
      </trkpt>
      <trkpt lat="43.65888" lon="3.3044">
        <ele>232</ele>
        <time>2021-06-05T09:39:17Z</time>
      </trkpt>
      <trkpt lat="43.6589" lon="3.30439">
        <ele>232</ele>
        <time>2021-06-05T09:39:19Z</time>
      </trkpt>
      <trkpt lat="43.65892" lon="3.30438">
        <ele>234</ele>
        <time>2021-06-05T09:39:21Z</time>
      </trkpt>
      <trkpt lat="43.65895" lon="3.30436">
        <ele>234</ele>
        <time>2021-06-05T09:39:23Z</time>
      </trkpt>
      <trkpt lat="43.65897" lon="3.30434">
        <ele>234</ele>
        <time>2021-06-05T09:39:25Z</time>
      </trkpt>
      <trkpt lat="43.65899" lon="3.30433">
        <ele>234</ele>
        <time>2021-06-05T09:39:27Z</time>
      </trkpt>
      <trkpt lat="43.65902" lon="3.30432">
        <ele>234</ele>
        <time>2021-06-05T09:39:29Z</time>
      </trkpt>
      <trkpt lat="43.65904" lon="3.30431">
        <ele>235</ele>
        <time>2021-06-05T09:39:31Z</time>
      </trkpt>
      <trkpt lat="43.65906" lon="3.3043">
        <ele>235</ele>
        <time>2021-06-05T09:39:33Z</time>
      </trkpt>
      <trkpt lat="43.65909" lon="3.30429">
        <ele>235</ele>
        <time>2021-06-05T09:39:35Z</time>
      </trkpt>
      <trkpt lat="43.65911" lon="3.30428">
        <ele>235</ele>
        <time>2021-06-05T09:39:37Z</time>
      </trkpt>
      <trkpt lat="43.65913" lon="3.30427">
        <ele>235</ele>
        <time>2021-06-05T09:39:39Z</time>
      </trkpt>
      <trkpt lat="43.65915" lon="3.30426">
        <ele>237</ele>
        <time>2021-06-05T09:39:41Z</time>
      </trkpt>
      <trkpt lat="43.65917" lon="3.30425">
        <ele>237</ele>
        <time>2021-06-05T09:39:43Z</time>
      </trkpt>
      <trkpt lat="43.6592" lon="3.30425">
        <ele>237</ele>
        <time>2021-06-05T09:39:45Z</time>
      </trkpt>
      <trkpt lat="43.65922" lon="3.30424">
        <ele>237</ele>
        <time>2021-06-05T09:39:47Z</time>
      </trkpt>
      <trkpt lat="43.65924" lon="3.30422">
        <ele>237</ele>
        <time>2021-06-05T09:39:49Z</time>
      </trkpt>
      <trkpt lat="43.65926" lon="3.30421">
        <ele>239</ele>
        <time>2021-06-05T09:39:51Z</time>
      </trkpt>
      <trkpt lat="43.65929" lon="3.30422">
        <ele>239</ele>
        <time>2021-06-05T09:39:53Z</time>
      </trkpt>
      <trkpt lat="43.65931" lon="3.30422">
        <ele>239</ele>
        <time>2021-06-05T09:39:55Z</time>
      </trkpt>
      <trkpt lat="43.65934" lon="3.30422">
        <ele>239</ele>
        <time>2021-06-05T09:39:57Z</time>
      </trkpt>
      <trkpt lat="43.65935" lon="3.3042">
        <ele>239</ele>
        <time>2021-06-05T09:39:59Z</time>
      </trkpt>
      <trkpt lat="43.65937" lon="3.30418">
        <ele>241</ele>
        <time>2021-06-05T09:40:01Z</time>
      </trkpt>
      <trkpt lat="43.65939" lon="3.30416">
        <ele>241</ele>
        <time>2021-06-05T09:40:03Z</time>
      </trkpt>
      <trkpt lat="43.65941" lon="3.30414">
        <ele>241</ele>
        <time>2021-06-05T09:40:05Z</time>
      </trkpt>
      <trkpt lat="43.65943" lon="3.30412">
        <ele>241</ele>
        <time>2021-06-05T09:40:07Z</time>
      </trkpt>
      <trkpt lat="43.65945" lon="3.3041">
        <ele>241</ele>
        <time>2021-06-05T09:40:09Z</time>
      </trkpt>
      <trkpt lat="43.65947" lon="3.30409">
        <ele>243</ele>
        <time>2021-06-05T09:40:11Z</time>
      </trkpt>
      <trkpt lat="43.65949" lon="3.30407">
        <ele>243</ele>
        <time>2021-06-05T09:40:13Z</time>
      </trkpt>
      <trkpt lat="43.65951" lon="3.30406">
        <ele>243</ele>
        <time>2021-06-05T09:40:15Z</time>
      </trkpt>
      <trkpt lat="43.65952" lon="3.30405">
        <ele>243</ele>
        <time>2021-06-05T09:40:17Z</time>
      </trkpt>
      <trkpt lat="43.65955" lon="3.30403">
        <ele>243</ele>
        <time>2021-06-05T09:40:19Z</time>
      </trkpt>
      <trkpt lat="43.65957" lon="3.30402">
        <ele>245</ele>
        <time>2021-06-05T09:40:21Z</time>
      </trkpt>
      <trkpt lat="43.6596" lon="3.304">
        <ele>245</ele>
        <time>2021-06-05T09:40:23Z</time>
      </trkpt>
      <trkpt lat="43.65962" lon="3.30398">
        <ele>245</ele>
        <time>2021-06-05T09:40:25Z</time>
      </trkpt>
      <trkpt lat="43.65964" lon="3.30396">
        <ele>245</ele>
        <time>2021-06-05T09:40:27Z</time>
      </trkpt>
      <trkpt lat="43.65966" lon="3.30395">
        <ele>245</ele>
        <time>2021-06-05T09:40:29Z</time>
      </trkpt>
      <trkpt lat="43.65968" lon="3.30394">
        <ele>247</ele>
        <time>2021-06-05T09:40:31Z</time>
      </trkpt>
      <trkpt lat="43.65971" lon="3.30392">
        <ele>247</ele>
        <time>2021-06-05T09:40:33Z</time>
      </trkpt>
      <trkpt lat="43.65973" lon="3.30392">
        <ele>247</ele>
        <time>2021-06-05T09:40:35Z</time>
      </trkpt>
      <trkpt lat="43.65975" lon="3.30391">
        <ele>247</ele>
        <time>2021-06-05T09:40:37Z</time>
      </trkpt>
      <trkpt lat="43.65977" lon="3.3039">
        <ele>247</ele>
        <time>2021-06-05T09:40:39Z</time>
      </trkpt>
      <trkpt lat="43.65979" lon="3.30388">
        <ele>248</ele>
        <time>2021-06-05T09:40:41Z</time>
      </trkpt>
      <trkpt lat="43.65982" lon="3.30387">
        <ele>248</ele>
        <time>2021-06-05T09:40:43Z</time>
      </trkpt>
      <trkpt lat="43.65985" lon="3.30387">
        <ele>248</ele>
        <time>2021-06-05T09:40:45Z</time>
      </trkpt>
      <trkpt lat="43.65987" lon="3.30387">
        <ele>248</ele>
        <time>2021-06-05T09:40:47Z</time>
      </trkpt>
      <trkpt lat="43.6599" lon="3.30387">
        <ele>248</ele>
        <time>2021-06-05T09:40:49Z</time>
      </trkpt>
      <trkpt lat="43.65992" lon="3.30388">
        <ele>250</ele>
        <time>2021-06-05T09:40:51Z</time>
      </trkpt>
      <trkpt lat="43.65995" lon="3.30388">
        <ele>250</ele>
        <time>2021-06-05T09:40:53Z</time>
      </trkpt>
      <trkpt lat="43.65997" lon="3.30387">
        <ele>250</ele>
        <time>2021-06-05T09:40:55Z</time>
      </trkpt>
      <trkpt lat="43.66" lon="3.30387">
        <ele>250</ele>
        <time>2021-06-05T09:40:57Z</time>
      </trkpt>
      <trkpt lat="43.66003" lon="3.30387">
        <ele>250</ele>
        <time>2021-06-05T09:40:59Z</time>
      </trkpt>
      <trkpt lat="43.66005" lon="3.30387">
        <ele>251</ele>
        <time>2021-06-05T09:41:01Z</time>
      </trkpt>
      <trkpt lat="43.66008" lon="3.30386">
        <ele>251</ele>
        <time>2021-06-05T09:41:03Z</time>
      </trkpt>
      <trkpt lat="43.6601" lon="3.30385">
        <ele>251</ele>
        <time>2021-06-05T09:41:05Z</time>
      </trkpt>
      <trkpt lat="43.66013" lon="3.30384">
        <ele>251</ele>
        <time>2021-06-05T09:41:07Z</time>
      </trkpt>
      <trkpt lat="43.66015" lon="3.30382">
        <ele>251</ele>
        <time>2021-06-05T09:41:09Z</time>
      </trkpt>
      <trkpt lat="43.66017" lon="3.3038">
        <ele>253</ele>
        <time>2021-06-05T09:41:11Z</time>
      </trkpt>
      <trkpt lat="43.66019" lon="3.30378">
        <ele>253</ele>
        <time>2021-06-05T09:41:13Z</time>
      </trkpt>
      <trkpt lat="43.66021" lon="3.30376">
        <ele>253</ele>
        <time>2021-06-05T09:41:15Z</time>
      </trkpt>
      <trkpt lat="43.66024" lon="3.30375">
        <ele>253</ele>
        <time>2021-06-05T09:41:17Z</time>
      </trkpt>
      <trkpt lat="43.66027" lon="3.30374">
        <ele>253</ele>
        <time>2021-06-05T09:41:19Z</time>
      </trkpt>
      <trkpt lat="43.66029" lon="3.30372">
        <ele>254</ele>
        <time>2021-06-05T09:41:21Z</time>
      </trkpt>
      <trkpt lat="43.66032" lon="3.30371">
        <ele>254</ele>
        <time>2021-06-05T09:41:23Z</time>
      </trkpt>
      <trkpt lat="43.66034" lon="3.30369">
        <ele>254</ele>
        <time>2021-06-05T09:41:25Z</time>
      </trkpt>
      <trkpt lat="43.66036" lon="3.30368">
        <ele>254</ele>
        <time>2021-06-05T09:41:27Z</time>
      </trkpt>
      <trkpt lat="43.66038" lon="3.30366">
        <ele>254</ele>
        <time>2021-06-05T09:41:29Z</time>
      </trkpt>
      <trkpt lat="43.66041" lon="3.30364">
        <ele>255</ele>
        <time>2021-06-05T09:41:31Z</time>
      </trkpt>
      <trkpt lat="43.66042" lon="3.30363">
        <ele>255</ele>
        <time>2021-06-05T09:41:33Z</time>
      </trkpt>
      <trkpt lat="43.66045" lon="3.30361">
        <ele>255</ele>
        <time>2021-06-05T09:41:35Z</time>
      </trkpt>
      <trkpt lat="43.66047" lon="3.3036">
        <ele>255</ele>
        <time>2021-06-05T09:41:37Z</time>
      </trkpt>
      <trkpt lat="43.6605" lon="3.30358">
        <ele>255</ele>
        <time>2021-06-05T09:41:39Z</time>
      </trkpt>
      <trkpt lat="43.66051" lon="3.30357">
        <ele>256</ele>
        <time>2021-06-05T09:41:41Z</time>
      </trkpt>
      <trkpt lat="43.66053" lon="3.30354">
        <ele>256</ele>
        <time>2021-06-05T09:41:43Z</time>
      </trkpt>
      <trkpt lat="43.66056" lon="3.30352">
        <ele>256</ele>
        <time>2021-06-05T09:41:45Z</time>
      </trkpt>
      <trkpt lat="43.66058" lon="3.30349">
        <ele>256</ele>
        <time>2021-06-05T09:41:47Z</time>
      </trkpt>
      <trkpt lat="43.66058" lon="3.30346">
        <ele>256</ele>
        <time>2021-06-05T09:41:49Z</time>
      </trkpt>
      <trkpt lat="43.6606" lon="3.30342">
        <ele>257</ele>
        <time>2021-06-05T09:41:51Z</time>
      </trkpt>
      <trkpt lat="43.66062" lon="3.30339">
        <ele>257</ele>
        <time>2021-06-05T09:41:53Z</time>
      </trkpt>
      <trkpt lat="43.66063" lon="3.30337">
        <ele>257</ele>
        <time>2021-06-05T09:41:55Z</time>
      </trkpt>
      <trkpt lat="43.66065" lon="3.30335">
        <ele>257</ele>
        <time>2021-06-05T09:41:57Z</time>
      </trkpt>
      <trkpt lat="43.66067" lon="3.30333">
        <ele>257</ele>
        <time>2021-06-05T09:41:59Z</time>
      </trkpt>
      <trkpt lat="43.66069" lon="3.30331">
        <ele>258</ele>
        <time>2021-06-05T09:42:01Z</time>
      </trkpt>
      <trkpt lat="43.66071" lon="3.30329">
        <ele>258</ele>
        <time>2021-06-05T09:42:03Z</time>
      </trkpt>
      <trkpt lat="43.66073" lon="3.30326">
        <ele>258</ele>
        <time>2021-06-05T09:42:05Z</time>
      </trkpt>
      <trkpt lat="43.66075" lon="3.30324">
        <ele>258</ele>
        <time>2021-06-05T09:42:07Z</time>
      </trkpt>
      <trkpt lat="43.66077" lon="3.30322">
        <ele>258</ele>
        <time>2021-06-05T09:42:09Z</time>
      </trkpt>
      <trkpt lat="43.6608" lon="3.30322">
        <ele>260</ele>
        <time>2021-06-05T09:42:11Z</time>
      </trkpt>
      <trkpt lat="43.66084" lon="3.30321">
        <ele>260</ele>
        <time>2021-06-05T09:42:13Z</time>
      </trkpt>
      <trkpt lat="43.66087" lon="3.3032">
        <ele>260</ele>
        <time>2021-06-05T09:42:15Z</time>
      </trkpt>
      <trkpt lat="43.6609" lon="3.3032">
        <ele>260</ele>
        <time>2021-06-05T09:42:17Z</time>
      </trkpt>
      <trkpt lat="43.66092" lon="3.30318">
        <ele>260</ele>
        <time>2021-06-05T09:42:19Z</time>
      </trkpt>
      <trkpt lat="43.66095" lon="3.30317">
        <ele>261</ele>
        <time>2021-06-05T09:42:21Z</time>
      </trkpt>
      <trkpt lat="43.66098" lon="3.30315">
        <ele>261</ele>
        <time>2021-06-05T09:42:23Z</time>
      </trkpt>
      <trkpt lat="43.661" lon="3.30314">
        <ele>261</ele>
        <time>2021-06-05T09:42:25Z</time>
      </trkpt>
      <trkpt lat="43.661" lon="3.30314">
        <ele>261</ele>
        <time>2021-06-05T09:43:38Z</time>
      </trkpt>
      <trkpt lat="43.66099" lon="3.3032">
        <ele>261</ele>
        <time>2021-06-05T09:43:56Z</time>
      </trkpt>
      <trkpt lat="43.66098" lon="3.30321">
        <ele>261</ele>
        <time>2021-06-05T09:44:01Z</time>
      </trkpt>
      <trkpt lat="43.66096" lon="3.30314">
        <ele>262</ele>
        <time>2021-06-05T09:44:30Z</time>
      </trkpt>
      <trkpt lat="43.66099" lon="3.30311">
        <ele>262</ele>
        <time>2021-06-05T09:44:30Z</time>
      </trkpt>
      <trkpt lat="43.66101" lon="3.3031">
        <ele>262</ele>
        <time>2021-06-05T09:44:32Z</time>
      </trkpt>
      <trkpt lat="43.66103" lon="3.30308">
        <ele>262</ele>
        <time>2021-06-05T09:44:34Z</time>
      </trkpt>
      <trkpt lat="43.66107" lon="3.30306">
        <ele>262</ele>
        <time>2021-06-05T09:44:37Z</time>
      </trkpt>
      <trkpt lat="43.66109" lon="3.30304">
        <ele>262</ele>
        <time>2021-06-05T09:44:39Z</time>
      </trkpt>
      <trkpt lat="43.66113" lon="3.30303">
        <ele>263</ele>
        <time>2021-06-05T09:44:41Z</time>
      </trkpt>
      <trkpt lat="43.66116" lon="3.30302">
        <ele>263</ele>
        <time>2021-06-05T09:44:43Z</time>
      </trkpt>
      <trkpt lat="43.66119" lon="3.30301">
        <ele>263</ele>
        <time>2021-06-05T09:44:45Z</time>
      </trkpt>
      <trkpt lat="43.66122" lon="3.303">
        <ele>263</ele>
        <time>2021-06-05T09:44:47Z</time>
      </trkpt>
      <trkpt lat="43.66125" lon="3.30298">
        <ele>263</ele>
        <time>2021-06-05T09:44:49Z</time>
      </trkpt>
      <trkpt lat="43.66127" lon="3.30296">
        <ele>263</ele>
        <time>2021-06-05T09:44:50Z</time>
      </trkpt>
      <trkpt lat="43.66128" lon="3.30292">
        <ele>263</ele>
        <time>2021-06-05T09:44:52Z</time>
      </trkpt>
      <trkpt lat="43.66129" lon="3.30288">
        <ele>263</ele>
        <time>2021-06-05T09:44:54Z</time>
      </trkpt>
      <trkpt lat="43.66129" lon="3.30284">
        <ele>263</ele>
        <time>2021-06-05T09:44:56Z</time>
      </trkpt>
      <trkpt lat="43.66131" lon="3.3028">
        <ele>263</ele>
        <time>2021-06-05T09:44:58Z</time>
      </trkpt>
      <trkpt lat="43.66133" lon="3.30276">
        <ele>264</ele>
        <time>2021-06-05T09:45:00Z</time>
      </trkpt>
      <trkpt lat="43.66134" lon="3.30274">
        <ele>264</ele>
        <time>2021-06-05T09:45:01Z</time>
      </trkpt>
      <trkpt lat="43.66137" lon="3.30272">
        <ele>264</ele>
        <time>2021-06-05T09:45:03Z</time>
      </trkpt>
      <trkpt lat="43.66141" lon="3.3027">
        <ele>264</ele>
        <time>2021-06-05T09:45:05Z</time>
      </trkpt>
      <trkpt lat="43.66144" lon="3.30271">
        <ele>264</ele>
        <time>2021-06-05T09:45:07Z</time>
      </trkpt>
      <trkpt lat="43.66146" lon="3.30272">
        <ele>264</ele>
        <time>2021-06-05T09:45:08Z</time>
      </trkpt>
      <trkpt lat="43.66148" lon="3.30274">
        <ele>265</ele>
        <time>2021-06-05T09:45:11Z</time>
      </trkpt>
      <trkpt lat="43.66149" lon="3.30274">
        <ele>265</ele>
        <time>2021-06-05T09:45:17Z</time>
      </trkpt>
      <trkpt lat="43.66154" lon="3.30272">
        <ele>266</ele>
        <time>2021-06-05T09:45:31Z</time>
      </trkpt>
      <trkpt lat="43.66156" lon="3.30271">
        <ele>266</ele>
        <time>2021-06-05T09:45:32Z</time>
      </trkpt>
      <trkpt lat="43.66158" lon="3.3027">
        <ele>266</ele>
        <time>2021-06-05T09:45:34Z</time>
      </trkpt>
      <trkpt lat="43.6616" lon="3.30269">
        <ele>266</ele>
        <time>2021-06-05T09:45:35Z</time>
      </trkpt>
      <trkpt lat="43.6616" lon="3.30269">
        <ele>267</ele>
        <time>2021-06-05T09:45:43Z</time>
      </trkpt>
      <trkpt lat="43.66163" lon="3.3026">
        <ele>267</ele>
        <time>2021-06-05T09:48:46Z</time>
      </trkpt>
      <trkpt lat="43.66164" lon="3.30259">
        <ele>267</ele>
        <time>2021-06-05T09:48:46Z</time>
      </trkpt>
      <trkpt lat="43.66166" lon="3.30257">
        <ele>267</ele>
        <time>2021-06-05T09:48:47Z</time>
      </trkpt>
      <trkpt lat="43.66167" lon="3.30254">
        <ele>267</ele>
        <time>2021-06-05T09:48:48Z</time>
      </trkpt>
      <trkpt lat="43.66169" lon="3.30252">
        <ele>267</ele>
        <time>2021-06-05T09:48:49Z</time>
      </trkpt>
      <trkpt lat="43.66171" lon="3.30249">
        <ele>267</ele>
        <time>2021-06-05T09:48:50Z</time>
      </trkpt>
      <trkpt lat="43.66172" lon="3.30246">
        <ele>267</ele>
        <time>2021-06-05T09:48:51Z</time>
      </trkpt>
      <trkpt lat="43.66174" lon="3.30244">
        <ele>267</ele>
        <time>2021-06-05T09:48:52Z</time>
      </trkpt>
      <trkpt lat="43.66176" lon="3.30242">
        <ele>267</ele>
        <time>2021-06-05T09:48:53Z</time>
      </trkpt>
      <trkpt lat="43.66177" lon="3.30239">
        <ele>267</ele>
        <time>2021-06-05T09:48:54Z</time>
      </trkpt>
      <trkpt lat="43.66178" lon="3.30237">
        <ele>267</ele>
        <time>2021-06-05T09:48:55Z</time>
      </trkpt>
      <trkpt lat="43.66179" lon="3.30234">
        <ele>268</ele>
        <time>2021-06-05T09:48:56Z</time>
      </trkpt>
      <trkpt lat="43.66179" lon="3.30232">
        <ele>268</ele>
        <time>2021-06-05T09:48:57Z</time>
      </trkpt>
      <trkpt lat="43.66181" lon="3.30229">
        <ele>268</ele>
        <time>2021-06-05T09:48:58Z</time>
      </trkpt>
      <trkpt lat="43.66181" lon="3.30226">
        <ele>268</ele>
        <time>2021-06-05T09:48:59Z</time>
      </trkpt>
      <trkpt lat="43.66182" lon="3.30224">
        <ele>268</ele>
        <time>2021-06-05T09:49:00Z</time>
      </trkpt>
      <trkpt lat="43.66184" lon="3.3022">
        <ele>268</ele>
        <time>2021-06-05T09:49:02Z</time>
      </trkpt>
      <trkpt lat="43.66158" lon="3.30267">
        <ele>266</ele>
        <time>2021-06-05T09:49:03Z</time>
      </trkpt>
      <trkpt lat="43.66185" lon="3.30215">
        <ele>268</ele>
        <time>2021-06-05T09:49:04Z</time>
      </trkpt>
      <trkpt lat="43.66185" lon="3.30211">
        <ele>269</ele>
        <time>2021-06-05T09:49:06Z</time>
      </trkpt>
      <trkpt lat="43.66185" lon="3.30206">
        <ele>269</ele>
        <time>2021-06-05T09:49:08Z</time>
      </trkpt>
      <trkpt lat="43.66158" lon="3.30266">
        <ele>267</ele>
        <time>2021-06-05T09:49:09Z</time>
      </trkpt>
      <trkpt lat="43.66185" lon="3.30204">
        <ele>269</ele>
        <time>2021-06-05T09:49:09Z</time>
      </trkpt>
      <trkpt lat="43.66184" lon="3.30199">
        <ele>269</ele>
        <time>2021-06-05T09:49:11Z</time>
      </trkpt>
      <trkpt lat="43.66183" lon="3.30195">
        <ele>269</ele>
        <time>2021-06-05T09:49:13Z</time>
      </trkpt>
      <trkpt lat="43.66181" lon="3.3019">
        <ele>269</ele>
        <time>2021-06-05T09:49:15Z</time>
      </trkpt>
      <trkpt lat="43.6618" lon="3.30186">
        <ele>268</ele>
        <time>2021-06-05T09:49:17Z</time>
      </trkpt>
      <trkpt lat="43.66179" lon="3.30182">
        <ele>268</ele>
        <time>2021-06-05T09:49:19Z</time>
      </trkpt>
      <trkpt lat="43.66178" lon="3.30178">
        <ele>268</ele>
        <time>2021-06-05T09:49:21Z</time>
      </trkpt>
      <trkpt lat="43.66177" lon="3.30174">
        <ele>268</ele>
        <time>2021-06-05T09:49:23Z</time>
      </trkpt>
      <trkpt lat="43.66178" lon="3.3017">
        <ele>268</ele>
        <time>2021-06-05T09:49:25Z</time>
      </trkpt>
      <trkpt lat="43.66179" lon="3.30165">
        <ele>270</ele>
        <time>2021-06-05T09:49:27Z</time>
      </trkpt>
      <trkpt lat="43.66179" lon="3.30163">
        <ele>270</ele>
        <time>2021-06-05T09:49:28Z</time>
      </trkpt>
      <trkpt lat="43.66181" lon="3.30161">
        <ele>270</ele>
        <time>2021-06-05T09:49:29Z</time>
      </trkpt>
      <trkpt lat="43.66183" lon="3.30157">
        <ele>270</ele>
        <time>2021-06-05T09:49:31Z</time>
      </trkpt>
      <trkpt lat="43.66185" lon="3.30155">
        <ele>270</ele>
        <time>2021-06-05T09:49:33Z</time>
      </trkpt>
      <trkpt lat="43.66189" lon="3.30154">
        <ele>270</ele>
        <time>2021-06-05T09:49:35Z</time>
      </trkpt>
      <trkpt lat="43.66192" lon="3.30153">
        <ele>271</ele>
        <time>2021-06-05T09:49:37Z</time>
      </trkpt>
      <trkpt lat="43.66195" lon="3.30153">
        <ele>271</ele>
        <time>2021-06-05T09:49:39Z</time>
      </trkpt>
      <trkpt lat="43.66198" lon="3.30154">
        <ele>271</ele>
        <time>2021-06-05T09:49:41Z</time>
      </trkpt>
      <trkpt lat="43.66201" lon="3.30156">
        <ele>271</ele>
        <time>2021-06-05T09:49:43Z</time>
      </trkpt>
      <trkpt lat="43.66204" lon="3.30159">
        <ele>271</ele>
        <time>2021-06-05T09:49:45Z</time>
      </trkpt>
      <trkpt lat="43.66207" lon="3.30162">
        <ele>272</ele>
        <time>2021-06-05T09:49:47Z</time>
      </trkpt>
      <trkpt lat="43.6621" lon="3.30165">
        <ele>272</ele>
        <time>2021-06-05T09:49:49Z</time>
      </trkpt>
      <trkpt lat="43.66212" lon="3.30166">
        <ele>272</ele>
        <time>2021-06-05T09:49:51Z</time>
      </trkpt>
      <trkpt lat="43.66214" lon="3.30168">
        <ele>272</ele>
        <time>2021-06-05T09:49:53Z</time>
      </trkpt>
      <trkpt lat="43.66217" lon="3.3017">
        <ele>272</ele>
        <time>2021-06-05T09:49:55Z</time>
      </trkpt>
      <trkpt lat="43.66219" lon="3.30171">
        <ele>273</ele>
        <time>2021-06-05T09:49:56Z</time>
      </trkpt>
      <trkpt lat="43.6622" lon="3.30174">
        <ele>273</ele>
        <time>2021-06-05T09:49:57Z</time>
      </trkpt>
      <trkpt lat="43.66221" lon="3.30176">
        <ele>273</ele>
        <time>2021-06-05T09:49:58Z</time>
      </trkpt>
      <trkpt lat="43.66222" lon="3.30178">
        <ele>273</ele>
        <time>2021-06-05T09:49:59Z</time>
      </trkpt>
      <trkpt lat="43.66225" lon="3.30182">
        <ele>273</ele>
        <time>2021-06-05T09:50:01Z</time>
      </trkpt>
      <trkpt lat="43.66225" lon="3.30184">
        <ele>273</ele>
        <time>2021-06-05T09:50:02Z</time>
      </trkpt>
      <trkpt lat="43.66227" lon="3.30185">
        <ele>273</ele>
        <time>2021-06-05T09:50:03Z</time>
      </trkpt>
      <trkpt lat="43.66228" lon="3.3019">
        <ele>273</ele>
        <time>2021-06-05T09:50:05Z</time>
      </trkpt>
      <trkpt lat="43.6623" lon="3.30193">
        <ele>274</ele>
        <time>2021-06-05T09:50:07Z</time>
      </trkpt>
      <trkpt lat="43.66232" lon="3.30194">
        <ele>274</ele>
        <time>2021-06-05T09:50:08Z</time>
      </trkpt>
      <trkpt lat="43.66235" lon="3.30196">
        <ele>274</ele>
        <time>2021-06-05T09:50:10Z</time>
      </trkpt>
      <trkpt lat="43.66237" lon="3.30197">
        <ele>274</ele>
        <time>2021-06-05T09:50:11Z</time>
      </trkpt>
      <trkpt lat="43.66241" lon="3.30197">
        <ele>274</ele>
        <time>2021-06-05T09:50:13Z</time>
      </trkpt>
      <trkpt lat="43.66242" lon="3.30197">
        <ele>274</ele>
        <time>2021-06-05T09:50:14Z</time>
      </trkpt>
      <trkpt lat="43.66244" lon="3.30197">
        <ele>274</ele>
        <time>2021-06-05T09:50:15Z</time>
      </trkpt>
      <trkpt lat="43.66247" lon="3.30195">
        <ele>276</ele>
        <time>2021-06-05T09:50:17Z</time>
      </trkpt>
      <trkpt lat="43.66248" lon="3.30194">
        <ele>276</ele>
        <time>2021-06-05T09:50:18Z</time>
      </trkpt>
      <trkpt lat="43.66251" lon="3.30193">
        <ele>276</ele>
        <time>2021-06-05T09:50:19Z</time>
      </trkpt>
      <trkpt lat="43.66253" lon="3.30192">
        <ele>276</ele>
        <time>2021-06-05T09:50:20Z</time>
      </trkpt>
      <trkpt lat="43.66255" lon="3.30191">
        <ele>276</ele>
        <time>2021-06-05T09:50:21Z</time>
      </trkpt>
      <trkpt lat="43.66257" lon="3.3019">
        <ele>276</ele>
        <time>2021-06-05T09:50:22Z</time>
      </trkpt>
      <trkpt lat="43.66258" lon="3.30189">
        <ele>276</ele>
        <time>2021-06-05T09:50:23Z</time>
      </trkpt>
      <trkpt lat="43.6626" lon="3.30189">
        <ele>276</ele>
        <time>2021-06-05T09:50:24Z</time>
      </trkpt>
      <trkpt lat="43.66263" lon="3.30188">
        <ele>277</ele>
        <time>2021-06-05T09:50:26Z</time>
      </trkpt>
      <trkpt lat="43.66266" lon="3.30187">
        <ele>277</ele>
        <time>2021-06-05T09:50:28Z</time>
      </trkpt>
      <trkpt lat="43.66269" lon="3.30185">
        <ele>277</ele>
        <time>2021-06-05T09:50:30Z</time>
      </trkpt>
      <trkpt lat="43.66272" lon="3.30185">
        <ele>277</ele>
        <time>2021-06-05T09:50:32Z</time>
      </trkpt>
      <trkpt lat="43.66276" lon="3.30184">
        <ele>277</ele>
        <time>2021-06-05T09:50:34Z</time>
      </trkpt>
      <trkpt lat="43.66279" lon="3.30184">
        <ele>278</ele>
        <time>2021-06-05T09:50:36Z</time>
      </trkpt>
      <trkpt lat="43.66283" lon="3.30183">
        <ele>278</ele>
        <time>2021-06-05T09:50:38Z</time>
      </trkpt>
      <trkpt lat="43.66286" lon="3.30182">
        <ele>278</ele>
        <time>2021-06-05T09:50:40Z</time>
      </trkpt>
      <trkpt lat="43.66289" lon="3.30182">
        <ele>278</ele>
        <time>2021-06-05T09:50:42Z</time>
      </trkpt>
      <trkpt lat="43.66292" lon="3.30182">
        <ele>278</ele>
        <time>2021-06-05T09:50:44Z</time>
      </trkpt>
      <trkpt lat="43.66295" lon="3.30182">
        <ele>279</ele>
        <time>2021-06-05T09:50:46Z</time>
      </trkpt>
      <trkpt lat="43.66298" lon="3.30182">
        <ele>279</ele>
        <time>2021-06-05T09:50:48Z</time>
      </trkpt>
      <trkpt lat="43.66301" lon="3.30181">
        <ele>279</ele>
        <time>2021-06-05T09:50:50Z</time>
      </trkpt>
      <trkpt lat="43.66304" lon="3.30181">
        <ele>279</ele>
        <time>2021-06-05T09:50:52Z</time>
      </trkpt>
      <trkpt lat="43.66307" lon="3.3018">
        <ele>279</ele>
        <time>2021-06-05T09:50:54Z</time>
      </trkpt>
      <trkpt lat="43.6631" lon="3.30179">
        <ele>280</ele>
        <time>2021-06-05T09:50:56Z</time>
      </trkpt>
      <trkpt lat="43.66313" lon="3.30178">
        <ele>280</ele>
        <time>2021-06-05T09:50:58Z</time>
      </trkpt>
      <trkpt lat="43.66316" lon="3.30178">
        <ele>280</ele>
        <time>2021-06-05T09:51:00Z</time>
      </trkpt>
      <trkpt lat="43.66319" lon="3.30177">
        <ele>280</ele>
        <time>2021-06-05T09:51:02Z</time>
      </trkpt>
      <trkpt lat="43.66322" lon="3.30177">
        <ele>280</ele>
        <time>2021-06-05T09:51:04Z</time>
      </trkpt>
      <trkpt lat="43.66324" lon="3.30176">
        <ele>280</ele>
        <time>2021-06-05T09:51:06Z</time>
      </trkpt>
      <trkpt lat="43.66328" lon="3.30175">
        <ele>280</ele>
        <time>2021-06-05T09:51:08Z</time>
      </trkpt>
      <trkpt lat="43.66331" lon="3.30173">
        <ele>280</ele>
        <time>2021-06-05T09:51:10Z</time>
      </trkpt>
      <trkpt lat="43.66333" lon="3.30173">
        <ele>280</ele>
        <time>2021-06-05T09:51:11Z</time>
      </trkpt>
      <trkpt lat="43.66335" lon="3.30172">
        <ele>280</ele>
        <time>2021-06-05T09:51:12Z</time>
      </trkpt>
      <trkpt lat="43.66338" lon="3.3017">
        <ele>280</ele>
        <time>2021-06-05T09:51:14Z</time>
      </trkpt>
      <trkpt lat="43.66342" lon="3.30169">
        <ele>281</ele>
        <time>2021-06-05T09:51:16Z</time>
      </trkpt>
      <trkpt lat="43.66345" lon="3.30168">
        <ele>281</ele>
        <time>2021-06-05T09:51:18Z</time>
      </trkpt>
      <trkpt lat="43.66348" lon="3.30166">
        <ele>281</ele>
        <time>2021-06-05T09:51:20Z</time>
      </trkpt>
      <trkpt lat="43.66352" lon="3.30166">
        <ele>281</ele>
        <time>2021-06-05T09:51:22Z</time>
      </trkpt>
      <trkpt lat="43.66355" lon="3.30165">
        <ele>281</ele>
        <time>2021-06-05T09:51:24Z</time>
      </trkpt>
      <trkpt lat="43.66358" lon="3.30164">
        <ele>282</ele>
        <time>2021-06-05T09:51:26Z</time>
      </trkpt>
      <trkpt lat="43.66362" lon="3.30163">
        <ele>282</ele>
        <time>2021-06-05T09:51:28Z</time>
      </trkpt>
      <trkpt lat="43.66364" lon="3.30162">
        <ele>282</ele>
        <time>2021-06-05T09:51:30Z</time>
      </trkpt>
      <trkpt lat="43.66367" lon="3.30161">
        <ele>282</ele>
        <time>2021-06-05T09:51:32Z</time>
      </trkpt>
      <trkpt lat="43.66369" lon="3.30159">
        <ele>282</ele>
        <time>2021-06-05T09:51:34Z</time>
      </trkpt>
      <trkpt lat="43.66372" lon="3.30157">
        <ele>283</ele>
        <time>2021-06-05T09:51:36Z</time>
      </trkpt>
      <trkpt lat="43.66375" lon="3.30155">
        <ele>283</ele>
        <time>2021-06-05T09:51:38Z</time>
      </trkpt>
      <trkpt lat="43.66376" lon="3.30153">
        <ele>283</ele>
        <time>2021-06-05T09:51:40Z</time>
      </trkpt>
      <trkpt lat="43.66379" lon="3.30151">
        <ele>283</ele>
        <time>2021-06-05T09:51:42Z</time>
      </trkpt>
      <trkpt lat="43.66381" lon="3.30148">
        <ele>283</ele>
        <time>2021-06-05T09:51:44Z</time>
      </trkpt>
      <trkpt lat="43.66384" lon="3.30146">
        <ele>283</ele>
        <time>2021-06-05T09:51:46Z</time>
      </trkpt>
      <trkpt lat="43.66387" lon="3.30144">
        <ele>283</ele>
        <time>2021-06-05T09:51:48Z</time>
      </trkpt>
      <trkpt lat="43.66389" lon="3.30142">
        <ele>283</ele>
        <time>2021-06-05T09:51:50Z</time>
      </trkpt>
      <trkpt lat="43.66392" lon="3.3014">
        <ele>283</ele>
        <time>2021-06-05T09:51:52Z</time>
      </trkpt>
      <trkpt lat="43.66395" lon="3.30139">
        <ele>283</ele>
        <time>2021-06-05T09:51:54Z</time>
      </trkpt>
      <trkpt lat="43.66397" lon="3.30137">
        <ele>285</ele>
        <time>2021-06-05T09:51:56Z</time>
      </trkpt>
      <trkpt lat="43.664" lon="3.30136">
        <ele>285</ele>
        <time>2021-06-05T09:51:58Z</time>
      </trkpt>
      <trkpt lat="43.66402" lon="3.30134">
        <ele>285</ele>
        <time>2021-06-05T09:52:00Z</time>
      </trkpt>
      <trkpt lat="43.66405" lon="3.30133">
        <ele>285</ele>
        <time>2021-06-05T09:52:02Z</time>
      </trkpt>
      <trkpt lat="43.66407" lon="3.30132">
        <ele>285</ele>
        <time>2021-06-05T09:52:04Z</time>
      </trkpt>
      <trkpt lat="43.6641" lon="3.3013">
        <ele>286</ele>
        <time>2021-06-05T09:52:06Z</time>
      </trkpt>
      <trkpt lat="43.66413" lon="3.30128">
        <ele>286</ele>
        <time>2021-06-05T09:52:08Z</time>
      </trkpt>
      <trkpt lat="43.66415" lon="3.30125">
        <ele>286</ele>
        <time>2021-06-05T09:52:10Z</time>
      </trkpt>
      <trkpt lat="43.66418" lon="3.30124">
        <ele>286</ele>
        <time>2021-06-05T09:52:12Z</time>
      </trkpt>
      <trkpt lat="43.6642" lon="3.30122">
        <ele>286</ele>
        <time>2021-06-05T09:52:14Z</time>
      </trkpt>
      <trkpt lat="43.66423" lon="3.30119">
        <ele>288</ele>
        <time>2021-06-05T09:52:16Z</time>
      </trkpt>
      <trkpt lat="43.66426" lon="3.30116">
        <ele>288</ele>
        <time>2021-06-05T09:52:18Z</time>
      </trkpt>
      <trkpt lat="43.66428" lon="3.30113">
        <ele>288</ele>
        <time>2021-06-05T09:52:20Z</time>
      </trkpt>
      <trkpt lat="43.6643" lon="3.30109">
        <ele>288</ele>
        <time>2021-06-05T09:52:22Z</time>
      </trkpt>
      <trkpt lat="43.66432" lon="3.30106">
        <ele>288</ele>
        <time>2021-06-05T09:52:24Z</time>
      </trkpt>
      <trkpt lat="43.66434" lon="3.30103">
        <ele>289</ele>
        <time>2021-06-05T09:52:26Z</time>
      </trkpt>
      <trkpt lat="43.66436" lon="3.301">
        <ele>289</ele>
        <time>2021-06-05T09:52:28Z</time>
      </trkpt>
      <trkpt lat="43.66438" lon="3.30097">
        <ele>289</ele>
        <time>2021-06-05T09:52:30Z</time>
      </trkpt>
      <trkpt lat="43.6644" lon="3.30093">
        <ele>289</ele>
        <time>2021-06-05T09:52:32Z</time>
      </trkpt>
      <trkpt lat="43.66443" lon="3.3009">
        <ele>289</ele>
        <time>2021-06-05T09:52:34Z</time>
      </trkpt>
      <trkpt lat="43.66445" lon="3.30087">
        <ele>291</ele>
        <time>2021-06-05T09:52:36Z</time>
      </trkpt>
      <trkpt lat="43.66447" lon="3.30084">
        <ele>291</ele>
        <time>2021-06-05T09:52:38Z</time>
      </trkpt>
      <trkpt lat="43.66449" lon="3.30081">
        <ele>291</ele>
        <time>2021-06-05T09:52:40Z</time>
      </trkpt>
      <trkpt lat="43.6645" lon="3.30077">
        <ele>291</ele>
        <time>2021-06-05T09:52:42Z</time>
      </trkpt>
      <trkpt lat="43.66452" lon="3.30074">
        <ele>291</ele>
        <time>2021-06-05T09:52:44Z</time>
      </trkpt>
      <trkpt lat="43.66454" lon="3.30071">
        <ele>293</ele>
        <time>2021-06-05T09:52:46Z</time>
      </trkpt>
      <trkpt lat="43.66456" lon="3.30067">
        <ele>293</ele>
        <time>2021-06-05T09:52:48Z</time>
      </trkpt>
      <trkpt lat="43.66458" lon="3.30065">
        <ele>293</ele>
        <time>2021-06-05T09:52:50Z</time>
      </trkpt>
      <trkpt lat="43.6646" lon="3.30062">
        <ele>293</ele>
        <time>2021-06-05T09:52:52Z</time>
      </trkpt>
      <trkpt lat="43.66462" lon="3.30059">
        <ele>293</ele>
        <time>2021-06-05T09:52:54Z</time>
      </trkpt>
      <trkpt lat="43.66464" lon="3.30057">
        <ele>294</ele>
        <time>2021-06-05T09:52:56Z</time>
      </trkpt>
      <trkpt lat="43.66466" lon="3.30054">
        <ele>294</ele>
        <time>2021-06-05T09:52:58Z</time>
      </trkpt>
      <trkpt lat="43.66469" lon="3.30052">
        <ele>294</ele>
        <time>2021-06-05T09:53:00Z</time>
      </trkpt>
      <trkpt lat="43.66471" lon="3.3005">
        <ele>294</ele>
        <time>2021-06-05T09:53:02Z</time>
      </trkpt>
      <trkpt lat="43.66474" lon="3.30049">
        <ele>294</ele>
        <time>2021-06-05T09:53:04Z</time>
      </trkpt>
      <trkpt lat="43.66476" lon="3.30047">
        <ele>295</ele>
        <time>2021-06-05T09:53:06Z</time>
      </trkpt>
      <trkpt lat="43.66479" lon="3.30045">
        <ele>295</ele>
        <time>2021-06-05T09:53:08Z</time>
      </trkpt>
      <trkpt lat="43.66482" lon="3.30044">
        <ele>295</ele>
        <time>2021-06-05T09:53:10Z</time>
      </trkpt>
      <trkpt lat="43.66484" lon="3.30043">
        <ele>295</ele>
        <time>2021-06-05T09:53:12Z</time>
      </trkpt>
      <trkpt lat="43.66487" lon="3.30042">
        <ele>295</ele>
        <time>2021-06-05T09:53:14Z</time>
      </trkpt>
      <trkpt lat="43.6649" lon="3.3004">
        <ele>296</ele>
        <time>2021-06-05T09:53:16Z</time>
      </trkpt>
      <trkpt lat="43.66492" lon="3.30039">
        <ele>296</ele>
        <time>2021-06-05T09:53:18Z</time>
      </trkpt>
      <trkpt lat="43.66494" lon="3.30037">
        <ele>296</ele>
        <time>2021-06-05T09:53:20Z</time>
      </trkpt>
      <trkpt lat="43.66497" lon="3.30035">
        <ele>296</ele>
        <time>2021-06-05T09:53:22Z</time>
      </trkpt>
      <trkpt lat="43.66499" lon="3.30033">
        <ele>296</ele>
        <time>2021-06-05T09:53:24Z</time>
      </trkpt>
      <trkpt lat="43.665" lon="3.30031">
        <ele>298</ele>
        <time>2021-06-05T09:53:26Z</time>
      </trkpt>
      <trkpt lat="43.665" lon="3.30028">
        <ele>298</ele>
        <time>2021-06-05T09:53:28Z</time>
      </trkpt>
      <trkpt lat="43.66502" lon="3.30024">
        <ele>298</ele>
        <time>2021-06-05T09:53:30Z</time>
      </trkpt>
      <trkpt lat="43.66503" lon="3.30021">
        <ele>298</ele>
        <time>2021-06-05T09:53:32Z</time>
      </trkpt>
      <trkpt lat="43.66504" lon="3.30017">
        <ele>298</ele>
        <time>2021-06-05T09:53:34Z</time>
      </trkpt>
      <trkpt lat="43.66505" lon="3.30013">
        <ele>301</ele>
        <time>2021-06-05T09:53:36Z</time>
      </trkpt>
      <trkpt lat="43.66506" lon="3.30009">
        <ele>301</ele>
        <time>2021-06-05T09:53:38Z</time>
      </trkpt>
      <trkpt lat="43.66507" lon="3.30004">
        <ele>301</ele>
        <time>2021-06-05T09:53:40Z</time>
      </trkpt>
      <trkpt lat="43.66509" lon="3.30001">
        <ele>301</ele>
        <time>2021-06-05T09:53:42Z</time>
      </trkpt>
      <trkpt lat="43.66511" lon="3.29998">
        <ele>301</ele>
        <time>2021-06-05T09:53:44Z</time>
      </trkpt>
      <trkpt lat="43.66512" lon="3.29994">
        <ele>303</ele>
        <time>2021-06-05T09:53:46Z</time>
      </trkpt>
      <trkpt lat="43.66514" lon="3.2999">
        <ele>303</ele>
        <time>2021-06-05T09:53:48Z</time>
      </trkpt>
      <trkpt lat="43.66517" lon="3.29988">
        <ele>303</ele>
        <time>2021-06-05T09:53:50Z</time>
      </trkpt>
      <trkpt lat="43.66519" lon="3.29985">
        <ele>303</ele>
        <time>2021-06-05T09:53:52Z</time>
      </trkpt>
      <trkpt lat="43.66522" lon="3.29983">
        <ele>303</ele>
        <time>2021-06-05T09:53:54Z</time>
      </trkpt>
      <trkpt lat="43.66525" lon="3.29982">
        <ele>304</ele>
        <time>2021-06-05T09:53:56Z</time>
      </trkpt>
      <trkpt lat="43.66528" lon="3.29981">
        <ele>304</ele>
        <time>2021-06-05T09:53:58Z</time>
      </trkpt>
      <trkpt lat="43.66532" lon="3.2998">
        <ele>304</ele>
        <time>2021-06-05T09:54:00Z</time>
      </trkpt>
      <trkpt lat="43.66534" lon="3.29978">
        <ele>304</ele>
        <time>2021-06-05T09:54:02Z</time>
      </trkpt>
      <trkpt lat="43.66536" lon="3.29974">
        <ele>304</ele>
        <time>2021-06-05T09:54:04Z</time>
      </trkpt>
      <trkpt lat="43.6654" lon="3.29973">
        <ele>305</ele>
        <time>2021-06-05T09:54:06Z</time>
      </trkpt>
      <trkpt lat="43.66543" lon="3.2997">
        <ele>305</ele>
        <time>2021-06-05T09:54:08Z</time>
      </trkpt>
      <trkpt lat="43.66546" lon="3.29968">
        <ele>305</ele>
        <time>2021-06-05T09:54:10Z</time>
      </trkpt>
      <trkpt lat="43.66548" lon="3.29966">
        <ele>305</ele>
        <time>2021-06-05T09:54:12Z</time>
      </trkpt>
      <trkpt lat="43.6655" lon="3.29964">
        <ele>305</ele>
        <time>2021-06-05T09:54:14Z</time>
      </trkpt>
      <trkpt lat="43.66553" lon="3.29962">
        <ele>305</ele>
        <time>2021-06-05T09:54:16Z</time>
      </trkpt>
      <trkpt lat="43.66556" lon="3.2996">
        <ele>305</ele>
        <time>2021-06-05T09:54:18Z</time>
      </trkpt>
      <trkpt lat="43.66558" lon="3.29957">
        <ele>305</ele>
        <time>2021-06-05T09:54:20Z</time>
      </trkpt>
      <trkpt lat="43.66561" lon="3.29954">
        <ele>305</ele>
        <time>2021-06-05T09:54:22Z</time>
      </trkpt>
      <trkpt lat="43.66563" lon="3.29951">
        <ele>305</ele>
        <time>2021-06-05T09:54:24Z</time>
      </trkpt>
      <trkpt lat="43.66566" lon="3.29948">
        <ele>307</ele>
        <time>2021-06-05T09:54:26Z</time>
      </trkpt>
      <trkpt lat="43.66567" lon="3.29945">
        <ele>307</ele>
        <time>2021-06-05T09:54:28Z</time>
      </trkpt>
      <trkpt lat="43.66569" lon="3.29941">
        <ele>307</ele>
        <time>2021-06-05T09:54:30Z</time>
      </trkpt>
      <trkpt lat="43.66572" lon="3.29938">
        <ele>307</ele>
        <time>2021-06-05T09:54:32Z</time>
      </trkpt>
      <trkpt lat="43.66573" lon="3.29934">
        <ele>307</ele>
        <time>2021-06-05T09:54:34Z</time>
      </trkpt>
      <trkpt lat="43.66575" lon="3.2993">
        <ele>308</ele>
        <time>2021-06-05T09:54:36Z</time>
      </trkpt>
      <trkpt lat="43.66577" lon="3.29927">
        <ele>308</ele>
        <time>2021-06-05T09:54:38Z</time>
      </trkpt>
      <trkpt lat="43.66579" lon="3.29923">
        <ele>308</ele>
        <time>2021-06-05T09:54:40Z</time>
      </trkpt>
      <trkpt lat="43.66581" lon="3.2992">
        <ele>308</ele>
        <time>2021-06-05T09:54:42Z</time>
      </trkpt>
      <trkpt lat="43.66584" lon="3.29917">
        <ele>308</ele>
        <time>2021-06-05T09:54:44Z</time>
      </trkpt>
      <trkpt lat="43.66586" lon="3.29913">
        <ele>310</ele>
        <time>2021-06-05T09:54:46Z</time>
      </trkpt>
      <trkpt lat="43.66587" lon="3.29911">
        <ele>310</ele>
        <time>2021-06-05T09:54:47Z</time>
      </trkpt>
      <trkpt lat="43.66589" lon="3.29909">
        <ele>310</ele>
        <time>2021-06-05T09:54:48Z</time>
      </trkpt>
      <trkpt lat="43.66591" lon="3.29907">
        <ele>310</ele>
        <time>2021-06-05T09:54:50Z</time>
      </trkpt>
      <trkpt lat="43.66593" lon="3.29903">
        <ele>310</ele>
        <time>2021-06-05T09:54:52Z</time>
      </trkpt>
      <trkpt lat="43.66594" lon="3.299">
        <ele>310</ele>
        <time>2021-06-05T09:54:54Z</time>
      </trkpt>
      <trkpt lat="43.66595" lon="3.29896">
        <ele>312</ele>
        <time>2021-06-05T09:54:56Z</time>
      </trkpt>
      <trkpt lat="43.66596" lon="3.29892">
        <ele>312</ele>
        <time>2021-06-05T09:54:58Z</time>
      </trkpt>
      <trkpt lat="43.66597" lon="3.29888">
        <ele>312</ele>
        <time>2021-06-05T09:55:00Z</time>
      </trkpt>
      <trkpt lat="43.66599" lon="3.29884">
        <ele>312</ele>
        <time>2021-06-05T09:55:02Z</time>
      </trkpt>
      <trkpt lat="43.666" lon="3.2988">
        <ele>312</ele>
        <time>2021-06-05T09:55:04Z</time>
      </trkpt>
      <trkpt lat="43.66602" lon="3.29877">
        <ele>312</ele>
        <time>2021-06-05T09:55:06Z</time>
      </trkpt>
      <trkpt lat="43.66603" lon="3.29873">
        <ele>312</ele>
        <time>2021-06-05T09:55:08Z</time>
      </trkpt>
      <trkpt lat="43.66604" lon="3.29869">
        <ele>312</ele>
        <time>2021-06-05T09:55:10Z</time>
      </trkpt>
      <trkpt lat="43.66605" lon="3.29865">
        <ele>312</ele>
        <time>2021-06-05T09:55:12Z</time>
      </trkpt>
      <trkpt lat="43.66606" lon="3.29861">
        <ele>312</ele>
        <time>2021-06-05T09:55:14Z</time>
      </trkpt>
      <trkpt lat="43.66607" lon="3.29858">
        <ele>314</ele>
        <time>2021-06-05T09:55:16Z</time>
      </trkpt>
      <trkpt lat="43.66609" lon="3.29855">
        <ele>314</ele>
        <time>2021-06-05T09:55:18Z</time>
      </trkpt>
      <trkpt lat="43.66609" lon="3.29851">
        <ele>314</ele>
        <time>2021-06-05T09:55:20Z</time>
      </trkpt>
      <trkpt lat="43.6661" lon="3.29847">
        <ele>314</ele>
        <time>2021-06-05T09:55:22Z</time>
      </trkpt>
      <trkpt lat="43.66611" lon="3.29844">
        <ele>314</ele>
        <time>2021-06-05T09:55:24Z</time>
      </trkpt>
      <trkpt lat="43.66611" lon="3.2984">
        <ele>315</ele>
        <time>2021-06-05T09:55:26Z</time>
      </trkpt>
      <trkpt lat="43.66612" lon="3.29836">
        <ele>315</ele>
        <time>2021-06-05T09:55:28Z</time>
      </trkpt>
      <trkpt lat="43.66613" lon="3.29831">
        <ele>315</ele>
        <time>2021-06-05T09:55:30Z</time>
      </trkpt>
      <trkpt lat="43.66615" lon="3.29827">
        <ele>315</ele>
        <time>2021-06-05T09:55:32Z</time>
      </trkpt>
      <trkpt lat="43.66616" lon="3.29823">
        <ele>315</ele>
        <time>2021-06-05T09:55:34Z</time>
      </trkpt>
      <trkpt lat="43.66616" lon="3.29819">
        <ele>317</ele>
        <time>2021-06-05T09:55:36Z</time>
      </trkpt>
      <trkpt lat="43.66616" lon="3.29815">
        <ele>317</ele>
        <time>2021-06-05T09:55:38Z</time>
      </trkpt>
      <trkpt lat="43.66615" lon="3.2981">
        <ele>317</ele>
        <time>2021-06-05T09:55:40Z</time>
      </trkpt>
      <trkpt lat="43.66614" lon="3.29806">
        <ele>317</ele>
        <time>2021-06-05T09:55:42Z</time>
      </trkpt>
      <trkpt lat="43.66612" lon="3.29803">
        <ele>317</ele>
        <time>2021-06-05T09:55:44Z</time>
      </trkpt>
      <trkpt lat="43.66611" lon="3.29801">
        <ele>318</ele>
        <time>2021-06-05T09:55:45Z</time>
      </trkpt>
      <trkpt lat="43.66609" lon="3.29797">
        <ele>318</ele>
        <time>2021-06-05T09:55:47Z</time>
      </trkpt>
      <trkpt lat="43.66607" lon="3.29793">
        <ele>318</ele>
        <time>2021-06-05T09:55:49Z</time>
      </trkpt>
      <trkpt lat="43.66606" lon="3.2979">
        <ele>318</ele>
        <time>2021-06-05T09:55:51Z</time>
      </trkpt>
      <trkpt lat="43.66605" lon="3.29786">
        <ele>318</ele>
        <time>2021-06-05T09:55:53Z</time>
      </trkpt>
      <trkpt lat="43.66605" lon="3.29782">
        <ele>318</ele>
        <time>2021-06-05T09:55:55Z</time>
      </trkpt>
      <trkpt lat="43.66607" lon="3.29779">
        <ele>319</ele>
        <time>2021-06-05T09:55:57Z</time>
      </trkpt>
      <trkpt lat="43.66608" lon="3.29775">
        <ele>319</ele>
        <time>2021-06-05T09:55:59Z</time>
      </trkpt>
      <trkpt lat="43.6661" lon="3.29771">
        <ele>319</ele>
        <time>2021-06-05T09:56:01Z</time>
      </trkpt>
      <trkpt lat="43.66611" lon="3.29768">
        <ele>319</ele>
        <time>2021-06-05T09:56:03Z</time>
      </trkpt>
      <trkpt lat="43.66613" lon="3.29765">
        <ele>319</ele>
        <time>2021-06-05T09:56:05Z</time>
      </trkpt>
      <trkpt lat="43.66614" lon="3.29762">
        <ele>320</ele>
        <time>2021-06-05T09:56:07Z</time>
      </trkpt>
      <trkpt lat="43.66615" lon="3.29759">
        <ele>320</ele>
        <time>2021-06-05T09:56:09Z</time>
      </trkpt>
      <trkpt lat="43.66616" lon="3.29756">
        <ele>320</ele>
        <time>2021-06-05T09:56:11Z</time>
      </trkpt>
      <trkpt lat="43.66617" lon="3.29752">
        <ele>320</ele>
        <time>2021-06-05T09:56:13Z</time>
      </trkpt>
      <trkpt lat="43.66618" lon="3.29749">
        <ele>320</ele>
        <time>2021-06-05T09:56:15Z</time>
      </trkpt>
      <trkpt lat="43.66619" lon="3.29745">
        <ele>321</ele>
        <time>2021-06-05T09:56:17Z</time>
      </trkpt>
      <trkpt lat="43.66621" lon="3.29741">
        <ele>321</ele>
        <time>2021-06-05T09:56:19Z</time>
      </trkpt>
      <trkpt lat="43.66621" lon="3.29737">
        <ele>321</ele>
        <time>2021-06-05T09:56:21Z</time>
      </trkpt>
      <trkpt lat="43.66622" lon="3.29732">
        <ele>321</ele>
        <time>2021-06-05T09:56:23Z</time>
      </trkpt>
      <trkpt lat="43.66622" lon="3.29727">
        <ele>321</ele>
        <time>2021-06-05T09:56:25Z</time>
      </trkpt>
      <trkpt lat="43.66622" lon="3.29722">
        <ele>322</ele>
        <time>2021-06-05T09:56:27Z</time>
      </trkpt>
      <trkpt lat="43.66623" lon="3.29718">
        <ele>322</ele>
        <time>2021-06-05T09:56:29Z</time>
      </trkpt>
      <trkpt lat="43.66624" lon="3.29712">
        <ele>322</ele>
        <time>2021-06-05T09:56:31Z</time>
      </trkpt>
      <trkpt lat="43.66624" lon="3.29708">
        <ele>322</ele>
        <time>2021-06-05T09:56:33Z</time>
      </trkpt>
      <trkpt lat="43.66625" lon="3.29703">
        <ele>322</ele>
        <time>2021-06-05T09:56:35Z</time>
      </trkpt>
      <trkpt lat="43.66625" lon="3.29701">
        <ele>323</ele>
        <time>2021-06-05T09:56:36Z</time>
      </trkpt>
      <trkpt lat="43.66625" lon="3.29698">
        <ele>323</ele>
        <time>2021-06-05T09:56:37Z</time>
      </trkpt>
      <trkpt lat="43.66626" lon="3.29695">
        <ele>323</ele>
        <time>2021-06-05T09:56:38Z</time>
      </trkpt>
      <trkpt lat="43.66626" lon="3.29693">
        <ele>323</ele>
        <time>2021-06-05T09:56:39Z</time>
      </trkpt>
      <trkpt lat="43.66627" lon="3.2969">
        <ele>323</ele>
        <time>2021-06-05T09:56:40Z</time>
      </trkpt>
      <trkpt lat="43.66628" lon="3.29688">
        <ele>323</ele>
        <time>2021-06-05T09:56:41Z</time>
      </trkpt>
      <trkpt lat="43.66628" lon="3.29685">
        <ele>323</ele>
        <time>2021-06-05T09:56:42Z</time>
      </trkpt>
      <trkpt lat="43.66629" lon="3.29683">
        <ele>323</ele>
        <time>2021-06-05T09:56:43Z</time>
      </trkpt>
      <trkpt lat="43.6663" lon="3.2968">
        <ele>323</ele>
        <time>2021-06-05T09:56:44Z</time>
      </trkpt>
      <trkpt lat="43.66631" lon="3.29677">
        <ele>323</ele>
        <time>2021-06-05T09:56:45Z</time>
      </trkpt>
      <trkpt lat="43.66631" lon="3.29674">
        <ele>324</ele>
        <time>2021-06-05T09:56:46Z</time>
      </trkpt>
      <trkpt lat="43.66632" lon="3.29671">
        <ele>324</ele>
        <time>2021-06-05T09:56:47Z</time>
      </trkpt>
      <trkpt lat="43.66633" lon="3.29667">
        <ele>324</ele>
        <time>2021-06-05T09:56:48Z</time>
      </trkpt>
      <trkpt lat="43.66634" lon="3.29663">
        <ele>324</ele>
        <time>2021-06-05T09:56:49Z</time>
      </trkpt>
      <trkpt lat="43.66634" lon="3.2966">
        <ele>324</ele>
        <time>2021-06-05T09:56:50Z</time>
      </trkpt>
      <trkpt lat="43.66635" lon="3.29656">
        <ele>324</ele>
        <time>2021-06-05T09:56:51Z</time>
      </trkpt>
      <trkpt lat="43.66635" lon="3.29652">
        <ele>324</ele>
        <time>2021-06-05T09:56:52Z</time>
      </trkpt>
      <trkpt lat="43.66635" lon="3.29648">
        <ele>324</ele>
        <time>2021-06-05T09:56:53Z</time>
      </trkpt>
      <trkpt lat="43.66636" lon="3.29645">
        <ele>324</ele>
        <time>2021-06-05T09:56:54Z</time>
      </trkpt>
      <trkpt lat="43.66636" lon="3.29641">
        <ele>324</ele>
        <time>2021-06-05T09:56:55Z</time>
      </trkpt>
      <trkpt lat="43.66637" lon="3.29637">
        <ele>324</ele>
        <time>2021-06-05T09:56:56Z</time>
      </trkpt>
      <trkpt lat="43.66637" lon="3.29633">
        <ele>324</ele>
        <time>2021-06-05T09:56:57Z</time>
      </trkpt>
      <trkpt lat="43.66638" lon="3.29629">
        <ele>324</ele>
        <time>2021-06-05T09:56:58Z</time>
      </trkpt>
      <trkpt lat="43.66638" lon="3.29626">
        <ele>324</ele>
        <time>2021-06-05T09:56:59Z</time>
      </trkpt>
      <trkpt lat="43.66638" lon="3.29622">
        <ele>324</ele>
        <time>2021-06-05T09:57:00Z</time>
      </trkpt>
      <trkpt lat="43.66639" lon="3.29619">
        <ele>324</ele>
        <time>2021-06-05T09:57:01Z</time>
      </trkpt>
      <trkpt lat="43.6664" lon="3.29614">
        <ele>324</ele>
        <time>2021-06-05T09:57:02Z</time>
      </trkpt>
      <trkpt lat="43.66641" lon="3.2961">
        <ele>324</ele>
        <time>2021-06-05T09:57:03Z</time>
      </trkpt>
      <trkpt lat="43.66642" lon="3.29604">
        <ele>324</ele>
        <time>2021-06-05T09:57:04Z</time>
      </trkpt>
      <trkpt lat="43.66644" lon="3.29599">
        <ele>324</ele>
        <time>2021-06-05T09:57:05Z</time>
      </trkpt>
      <trkpt lat="43.66646" lon="3.29594">
        <ele>324</ele>
        <time>2021-06-05T09:57:06Z</time>
      </trkpt>
      <trkpt lat="43.66649" lon="3.2959">
        <ele>324</ele>
        <time>2021-06-05T09:57:07Z</time>
      </trkpt>
      <trkpt lat="43.66651" lon="3.29585">
        <ele>324</ele>
        <time>2021-06-05T09:57:08Z</time>
      </trkpt>
      <trkpt lat="43.66653" lon="3.29581">
        <ele>324</ele>
        <time>2021-06-05T09:57:09Z</time>
      </trkpt>
      <trkpt lat="43.66656" lon="3.29577">
        <ele>324</ele>
        <time>2021-06-05T09:57:10Z</time>
      </trkpt>
      <trkpt lat="43.66658" lon="3.29574">
        <ele>324</ele>
        <time>2021-06-05T09:57:11Z</time>
      </trkpt>
      <trkpt lat="43.66661" lon="3.29569">
        <ele>324</ele>
        <time>2021-06-05T09:57:12Z</time>
      </trkpt>
      <trkpt lat="43.66663" lon="3.29566">
        <ele>324</ele>
        <time>2021-06-05T09:57:13Z</time>
      </trkpt>
      <trkpt lat="43.66665" lon="3.29561">
        <ele>324</ele>
        <time>2021-06-05T09:57:14Z</time>
      </trkpt>
      <trkpt lat="43.66668" lon="3.29558">
        <ele>324</ele>
        <time>2021-06-05T09:57:15Z</time>
      </trkpt>
      <trkpt lat="43.66669" lon="3.29553">
        <ele>323</ele>
        <time>2021-06-05T09:57:16Z</time>
      </trkpt>
      <trkpt lat="43.6667" lon="3.29548">
        <ele>323</ele>
        <time>2021-06-05T09:57:17Z</time>
      </trkpt>
      <trkpt lat="43.66671" lon="3.29544">
        <ele>323</ele>
        <time>2021-06-05T09:57:18Z</time>
      </trkpt>
      <trkpt lat="43.66673" lon="3.29538">
        <ele>323</ele>
        <time>2021-06-05T09:57:19Z</time>
      </trkpt>
      <trkpt lat="43.66674" lon="3.29532">
        <ele>323</ele>
        <time>2021-06-05T09:57:20Z</time>
      </trkpt>
      <trkpt lat="43.66677" lon="3.29526">
        <ele>323</ele>
        <time>2021-06-05T09:57:21Z</time>
      </trkpt>
      <trkpt lat="43.66679" lon="3.29519">
        <ele>323</ele>
        <time>2021-06-05T09:57:22Z</time>
      </trkpt>
      <trkpt lat="43.6668" lon="3.29512">
        <ele>323</ele>
        <time>2021-06-05T09:57:23Z</time>
      </trkpt>
      <trkpt lat="43.66683" lon="3.29506">
        <ele>323</ele>
        <time>2021-06-05T09:57:24Z</time>
      </trkpt>
      <trkpt lat="43.66685" lon="3.29499">
        <ele>323</ele>
        <time>2021-06-05T09:57:25Z</time>
      </trkpt>
      <trkpt lat="43.66686" lon="3.29491">
        <ele>321</ele>
        <time>2021-06-05T09:57:26Z</time>
      </trkpt>
      <trkpt lat="43.66686" lon="3.29483">
        <ele>321</ele>
        <time>2021-06-05T09:57:27Z</time>
      </trkpt>
      <trkpt lat="43.66686" lon="3.29476">
        <ele>321</ele>
        <time>2021-06-05T09:57:28Z</time>
      </trkpt>
      <trkpt lat="43.66686" lon="3.29469">
        <ele>321</ele>
        <time>2021-06-05T09:57:29Z</time>
      </trkpt>
      <trkpt lat="43.66685" lon="3.29462">
        <ele>321</ele>
        <time>2021-06-05T09:57:30Z</time>
      </trkpt>
      <trkpt lat="43.66684" lon="3.29457">
        <ele>321</ele>
        <time>2021-06-05T09:57:31Z</time>
      </trkpt>
      <trkpt lat="43.66683" lon="3.29452">
        <ele>321</ele>
        <time>2021-06-05T09:57:32Z</time>
      </trkpt>
      <trkpt lat="43.66682" lon="3.29448">
        <ele>321</ele>
        <time>2021-06-05T09:57:33Z</time>
      </trkpt>
      <trkpt lat="43.6668" lon="3.29445">
        <ele>321</ele>
        <time>2021-06-05T09:57:34Z</time>
      </trkpt>
      <trkpt lat="43.66679" lon="3.29441">
        <ele>321</ele>
        <time>2021-06-05T09:57:35Z</time>
      </trkpt>
      <trkpt lat="43.66678" lon="3.29436">
        <ele>320</ele>
        <time>2021-06-05T09:57:36Z</time>
      </trkpt>
      <trkpt lat="43.66677" lon="3.29432">
        <ele>320</ele>
        <time>2021-06-05T09:57:37Z</time>
      </trkpt>
      <trkpt lat="43.66675" lon="3.29427">
        <ele>320</ele>
        <time>2021-06-05T09:57:38Z</time>
      </trkpt>
      <trkpt lat="43.66675" lon="3.29423">
        <ele>320</ele>
        <time>2021-06-05T09:57:39Z</time>
      </trkpt>
      <trkpt lat="43.66675" lon="3.29418">
        <ele>320</ele>
        <time>2021-06-05T09:57:40Z</time>
      </trkpt>
      <trkpt lat="43.66676" lon="3.29414">
        <ele>320</ele>
        <time>2021-06-05T09:57:41Z</time>
      </trkpt>
      <trkpt lat="43.66678" lon="3.2941">
        <ele>320</ele>
        <time>2021-06-05T09:57:42Z</time>
      </trkpt>
      <trkpt lat="43.66679" lon="3.29406">
        <ele>320</ele>
        <time>2021-06-05T09:57:43Z</time>
      </trkpt>
      <trkpt lat="43.6668" lon="3.29403">
        <ele>320</ele>
        <time>2021-06-05T09:57:44Z</time>
      </trkpt>
      <trkpt lat="43.66682" lon="3.29401">
        <ele>320</ele>
        <time>2021-06-05T09:57:45Z</time>
      </trkpt>
      <trkpt lat="43.66684" lon="3.29399">
        <ele>320</ele>
        <time>2021-06-05T09:57:46Z</time>
      </trkpt>
      <trkpt lat="43.66686" lon="3.29397">
        <ele>320</ele>
        <time>2021-06-05T09:57:47Z</time>
      </trkpt>
      <trkpt lat="43.66688" lon="3.29396">
        <ele>320</ele>
        <time>2021-06-05T09:57:48Z</time>
      </trkpt>
      <trkpt lat="43.66692" lon="3.29396">
        <ele>320</ele>
        <time>2021-06-05T09:57:49Z</time>
      </trkpt>
      <trkpt lat="43.66694" lon="3.29397">
        <ele>320</ele>
        <time>2021-06-05T09:57:50Z</time>
      </trkpt>
      <trkpt lat="43.66697" lon="3.29399">
        <ele>320</ele>
        <time>2021-06-05T09:57:51Z</time>
      </trkpt>
      <trkpt lat="43.66698" lon="3.29401">
        <ele>320</ele>
        <time>2021-06-05T09:57:52Z</time>
      </trkpt>
      <trkpt lat="43.667" lon="3.29404">
        <ele>320</ele>
        <time>2021-06-05T09:57:53Z</time>
      </trkpt>
      <trkpt lat="43.667" lon="3.29406">
        <ele>320</ele>
        <time>2021-06-05T09:57:54Z</time>
      </trkpt>
      <trkpt lat="43.66701" lon="3.29409">
        <ele>320</ele>
        <time>2021-06-05T09:57:55Z</time>
      </trkpt>
      <trkpt lat="43.66702" lon="3.29411">
        <ele>320</ele>
        <time>2021-06-05T09:57:56Z</time>
      </trkpt>
      <trkpt lat="43.66703" lon="3.29413">
        <ele>320</ele>
        <time>2021-06-05T09:57:57Z</time>
      </trkpt>
      <trkpt lat="43.66705" lon="3.29416">
        <ele>320</ele>
        <time>2021-06-05T09:57:58Z</time>
      </trkpt>
      <trkpt lat="43.66706" lon="3.29418">
        <ele>320</ele>
        <time>2021-06-05T09:57:59Z</time>
      </trkpt>
      <trkpt lat="43.66708" lon="3.2942">
        <ele>320</ele>
        <time>2021-06-05T09:58:00Z</time>
      </trkpt>
      <trkpt lat="43.6671" lon="3.29422">
        <ele>320</ele>
        <time>2021-06-05T09:58:01Z</time>
      </trkpt>
      <trkpt lat="43.66711" lon="3.29424">
        <ele>320</ele>
        <time>2021-06-05T09:58:02Z</time>
      </trkpt>
      <trkpt lat="43.66713" lon="3.29427">
        <ele>320</ele>
        <time>2021-06-05T09:58:04Z</time>
      </trkpt>
      <trkpt lat="43.66716" lon="3.2943">
        <ele>320</ele>
        <time>2021-06-05T09:58:06Z</time>
      </trkpt>
      <trkpt lat="43.66718" lon="3.29434">
        <ele>320</ele>
        <time>2021-06-05T09:58:08Z</time>
      </trkpt>
      <trkpt lat="43.6672" lon="3.29437">
        <ele>320</ele>
        <time>2021-06-05T09:58:10Z</time>
      </trkpt>
      <trkpt lat="43.66722" lon="3.2944">
        <ele>320</ele>
        <time>2021-06-05T09:58:12Z</time>
      </trkpt>
      <trkpt lat="43.66724" lon="3.29443">
        <ele>320</ele>
        <time>2021-06-05T09:58:14Z</time>
      </trkpt>
      <trkpt lat="43.66725" lon="3.29446">
        <ele>321</ele>
        <time>2021-06-05T09:58:16Z</time>
      </trkpt>
      <trkpt lat="43.66727" lon="3.2945">
        <ele>321</ele>
        <time>2021-06-05T09:58:18Z</time>
      </trkpt>
      <trkpt lat="43.66729" lon="3.29453">
        <ele>321</ele>
        <time>2021-06-05T09:58:20Z</time>
      </trkpt>
      <trkpt lat="43.66731" lon="3.29456">
        <ele>321</ele>
        <time>2021-06-05T09:58:22Z</time>
      </trkpt>
      <trkpt lat="43.66733" lon="3.29459">
        <ele>321</ele>
        <time>2021-06-05T09:58:24Z</time>
      </trkpt>
      <trkpt lat="43.66735" lon="3.29461">
        <ele>322</ele>
        <time>2021-06-05T09:58:26Z</time>
      </trkpt>
      <trkpt lat="43.66737" lon="3.29464">
        <ele>322</ele>
        <time>2021-06-05T09:58:28Z</time>
      </trkpt>
      <trkpt lat="43.66739" lon="3.29466">
        <ele>322</ele>
        <time>2021-06-05T09:58:30Z</time>
      </trkpt>
      <trkpt lat="43.66741" lon="3.29469">
        <ele>322</ele>
        <time>2021-06-05T09:58:32Z</time>
      </trkpt>
      <trkpt lat="43.66742" lon="3.29471">
        <ele>322</ele>
        <time>2021-06-05T09:58:34Z</time>
      </trkpt>
      <trkpt lat="43.66745" lon="3.29473">
        <ele>323</ele>
        <time>2021-06-05T09:58:36Z</time>
      </trkpt>
      <trkpt lat="43.66746" lon="3.29476">
        <ele>323</ele>
        <time>2021-06-05T09:58:38Z</time>
      </trkpt>
      <trkpt lat="43.66748" lon="3.29478">
        <ele>323</ele>
        <time>2021-06-05T09:58:40Z</time>
      </trkpt>
      <trkpt lat="43.6675" lon="3.29481">
        <ele>323</ele>
        <time>2021-06-05T09:58:42Z</time>
      </trkpt>
      <trkpt lat="43.66752" lon="3.29484">
        <ele>323</ele>
        <time>2021-06-05T09:58:44Z</time>
      </trkpt>
      <trkpt lat="43.66754" lon="3.29487">
        <ele>323</ele>
        <time>2021-06-05T09:58:46Z</time>
      </trkpt>
      <trkpt lat="43.66755" lon="3.29491">
        <ele>323</ele>
        <time>2021-06-05T09:58:48Z</time>
      </trkpt>
      <trkpt lat="43.66756" lon="3.29495">
        <ele>323</ele>
        <time>2021-06-05T09:58:50Z</time>
      </trkpt>
      <trkpt lat="43.66756" lon="3.29498">
        <ele>323</ele>
        <time>2021-06-05T09:58:51Z</time>
      </trkpt>
      <trkpt lat="43.66755" lon="3.29502">
        <ele>323</ele>
        <time>2021-06-05T09:58:53Z</time>
      </trkpt>
      <trkpt lat="43.66754" lon="3.29507">
        <ele>323</ele>
        <time>2021-06-05T09:58:55Z</time>
      </trkpt>
      <trkpt lat="43.66754" lon="3.29511">
        <ele>324</ele>
        <time>2021-06-05T09:58:57Z</time>
      </trkpt>
      <trkpt lat="43.66753" lon="3.29516">
        <ele>324</ele>
        <time>2021-06-05T09:58:59Z</time>
      </trkpt>
      <trkpt lat="43.66753" lon="3.29519">
        <ele>324</ele>
        <time>2021-06-05T09:59:00Z</time>
      </trkpt>
      <trkpt lat="43.66753" lon="3.29521">
        <ele>324</ele>
        <time>2021-06-05T09:59:01Z</time>
      </trkpt>
      <trkpt lat="43.66752" lon="3.29524">
        <ele>324</ele>
        <time>2021-06-05T09:59:02Z</time>
      </trkpt>
      <trkpt lat="43.66752" lon="3.29526">
        <ele>324</ele>
        <time>2021-06-05T09:59:03Z</time>
      </trkpt>
      <trkpt lat="43.66751" lon="3.29529">
        <ele>324</ele>
        <time>2021-06-05T09:59:04Z</time>
      </trkpt>
      <trkpt lat="43.66751" lon="3.29532">
        <ele>324</ele>
        <time>2021-06-05T09:59:05Z</time>
      </trkpt>
      <trkpt lat="43.66751" lon="3.29535">
        <ele>324</ele>
        <time>2021-06-05T09:59:06Z</time>
      </trkpt>
      <trkpt lat="43.66751" lon="3.29537">
        <ele>324</ele>
        <time>2021-06-05T09:59:07Z</time>
      </trkpt>
      <trkpt lat="43.66751" lon="3.2954">
        <ele>324</ele>
        <time>2021-06-05T09:59:08Z</time>
      </trkpt>
      <trkpt lat="43.6675" lon="3.29542">
        <ele>324</ele>
        <time>2021-06-05T09:59:09Z</time>
      </trkpt>
      <trkpt lat="43.6675" lon="3.29545">
        <ele>324</ele>
        <time>2021-06-05T09:59:10Z</time>
      </trkpt>
      <trkpt lat="43.66749" lon="3.29548">
        <ele>324</ele>
        <time>2021-06-05T09:59:11Z</time>
      </trkpt>
      <trkpt lat="43.66749" lon="3.29551">
        <ele>324</ele>
        <time>2021-06-05T09:59:12Z</time>
      </trkpt>
      <trkpt lat="43.66749" lon="3.29553">
        <ele>324</ele>
        <time>2021-06-05T09:59:13Z</time>
      </trkpt>
      <trkpt lat="43.66749" lon="3.29557">
        <ele>324</ele>
        <time>2021-06-05T09:59:14Z</time>
      </trkpt>
      <trkpt lat="43.66749" lon="3.2956">
        <ele>324</ele>
        <time>2021-06-05T09:59:15Z</time>
      </trkpt>
      <trkpt lat="43.66749" lon="3.29563">
        <ele>325</ele>
        <time>2021-06-05T09:59:16Z</time>
      </trkpt>
      <trkpt lat="43.66748" lon="3.29566">
        <ele>325</ele>
        <time>2021-06-05T09:59:17Z</time>
      </trkpt>
      <trkpt lat="43.66747" lon="3.29569">
        <ele>325</ele>
        <time>2021-06-05T09:59:18Z</time>
      </trkpt>
      <trkpt lat="43.66747" lon="3.29572">
        <ele>325</ele>
        <time>2021-06-05T09:59:19Z</time>
      </trkpt>
      <trkpt lat="43.66747" lon="3.29575">
        <ele>325</ele>
        <time>2021-06-05T09:59:20Z</time>
      </trkpt>
      <trkpt lat="43.66747" lon="3.29577">
        <ele>325</ele>
        <time>2021-06-05T09:59:21Z</time>
      </trkpt>
      <trkpt lat="43.66746" lon="3.2958">
        <ele>325</ele>
        <time>2021-06-05T09:59:22Z</time>
      </trkpt>
      <trkpt lat="43.66746" lon="3.29583">
        <ele>325</ele>
        <time>2021-06-05T09:59:23Z</time>
      </trkpt>
      <trkpt lat="43.66746" lon="3.29586">
        <ele>325</ele>
        <time>2021-06-05T09:59:24Z</time>
      </trkpt>
      <trkpt lat="43.66746" lon="3.29589">
        <ele>325</ele>
        <time>2021-06-05T09:59:25Z</time>
      </trkpt>
      <trkpt lat="43.66747" lon="3.29592">
        <ele>327</ele>
        <time>2021-06-05T09:59:26Z</time>
      </trkpt>
      <trkpt lat="43.66747" lon="3.29595">
        <ele>327</ele>
        <time>2021-06-05T09:59:27Z</time>
      </trkpt>
      <trkpt lat="43.66747" lon="3.29599">
        <ele>327</ele>
        <time>2021-06-05T09:59:28Z</time>
      </trkpt>
      <trkpt lat="43.66747" lon="3.29603">
        <ele>327</ele>
        <time>2021-06-05T09:59:29Z</time>
      </trkpt>
      <trkpt lat="43.66747" lon="3.29607">
        <ele>327</ele>
        <time>2021-06-05T09:59:30Z</time>
      </trkpt>
      <trkpt lat="43.66748" lon="3.29611">
        <ele>327</ele>
        <time>2021-06-05T09:59:31Z</time>
      </trkpt>
      <trkpt lat="43.66749" lon="3.29615">
        <ele>327</ele>
        <time>2021-06-05T09:59:32Z</time>
      </trkpt>
      <trkpt lat="43.66749" lon="3.2962">
        <ele>327</ele>
        <time>2021-06-05T09:59:33Z</time>
      </trkpt>
      <trkpt lat="43.6675" lon="3.29625">
        <ele>327</ele>
        <time>2021-06-05T09:59:34Z</time>
      </trkpt>
      <trkpt lat="43.66751" lon="3.2963">
        <ele>327</ele>
        <time>2021-06-05T09:59:35Z</time>
      </trkpt>
      <trkpt lat="43.66751" lon="3.29634">
        <ele>327</ele>
        <time>2021-06-05T09:59:36Z</time>
      </trkpt>
      <trkpt lat="43.66752" lon="3.2964">
        <ele>327</ele>
        <time>2021-06-05T09:59:37Z</time>
      </trkpt>
      <trkpt lat="43.66753" lon="3.29644">
        <ele>327</ele>
        <time>2021-06-05T09:59:38Z</time>
      </trkpt>
      <trkpt lat="43.66754" lon="3.29649">
        <ele>327</ele>
        <time>2021-06-05T09:59:39Z</time>
      </trkpt>
      <trkpt lat="43.66755" lon="3.29653">
        <ele>327</ele>
        <time>2021-06-05T09:59:40Z</time>
      </trkpt>
      <trkpt lat="43.66756" lon="3.29657">
        <ele>327</ele>
        <time>2021-06-05T09:59:41Z</time>
      </trkpt>
      <trkpt lat="43.66757" lon="3.2966">
        <ele>327</ele>
        <time>2021-06-05T09:59:42Z</time>
      </trkpt>
      <trkpt lat="43.66758" lon="3.29663">
        <ele>327</ele>
        <time>2021-06-05T09:59:43Z</time>
      </trkpt>
      <trkpt lat="43.66759" lon="3.29667">
        <ele>327</ele>
        <time>2021-06-05T09:59:44Z</time>
      </trkpt>
      <trkpt lat="43.66761" lon="3.2967">
        <ele>327</ele>
        <time>2021-06-05T09:59:45Z</time>
      </trkpt>
      <trkpt lat="43.66763" lon="3.29673">
        <ele>327</ele>
        <time>2021-06-05T09:59:46Z</time>
      </trkpt>
      <trkpt lat="43.66763" lon="3.29676">
        <ele>327</ele>
        <time>2021-06-05T09:59:47Z</time>
      </trkpt>
      <trkpt lat="43.66765" lon="3.29679">
        <ele>327</ele>
        <time>2021-06-05T09:59:48Z</time>
      </trkpt>
      <trkpt lat="43.66766" lon="3.29681">
        <ele>327</ele>
        <time>2021-06-05T09:59:49Z</time>
      </trkpt>
      <trkpt lat="43.66768" lon="3.29684">
        <ele>327</ele>
        <time>2021-06-05T09:59:50Z</time>
      </trkpt>
      <trkpt lat="43.66769" lon="3.29687">
        <ele>327</ele>
        <time>2021-06-05T09:59:51Z</time>
      </trkpt>
      <trkpt lat="43.6677" lon="3.2969">
        <ele>327</ele>
        <time>2021-06-05T09:59:52Z</time>
      </trkpt>
      <trkpt lat="43.66772" lon="3.29693">
        <ele>327</ele>
        <time>2021-06-05T09:59:53Z</time>
      </trkpt>
      <trkpt lat="43.66773" lon="3.29695">
        <ele>327</ele>
        <time>2021-06-05T09:59:54Z</time>
      </trkpt>
      <trkpt lat="43.66774" lon="3.29698">
        <ele>327</ele>
        <time>2021-06-05T09:59:55Z</time>
      </trkpt>
      <trkpt lat="43.66776" lon="3.29701">
        <ele>328</ele>
        <time>2021-06-05T09:59:56Z</time>
      </trkpt>
      <trkpt lat="43.66777" lon="3.29704">
        <ele>328</ele>
        <time>2021-06-05T09:59:57Z</time>
      </trkpt>
      <trkpt lat="43.66779" lon="3.29706">
        <ele>328</ele>
        <time>2021-06-05T09:59:58Z</time>
      </trkpt>
      <trkpt lat="43.6678" lon="3.29709">
        <ele>328</ele>
        <time>2021-06-05T09:59:59Z</time>
      </trkpt>
      <trkpt lat="43.66782" lon="3.29712">
        <ele>328</ele>
        <time>2021-06-05T10:00:00Z</time>
      </trkpt>
      <trkpt lat="43.66783" lon="3.29714">
        <ele>328</ele>
        <time>2021-06-05T10:00:01Z</time>
      </trkpt>
      <trkpt lat="43.66785" lon="3.29717">
        <ele>328</ele>
        <time>2021-06-05T10:00:02Z</time>
      </trkpt>
      <trkpt lat="43.66786" lon="3.2972">
        <ele>328</ele>
        <time>2021-06-05T10:00:03Z</time>
      </trkpt>
      <trkpt lat="43.66787" lon="3.29723">
        <ele>328</ele>
        <time>2021-06-05T10:00:04Z</time>
      </trkpt>
      <trkpt lat="43.66789" lon="3.29725">
        <ele>328</ele>
        <time>2021-06-05T10:00:05Z</time>
      </trkpt>
      <trkpt lat="43.66791" lon="3.29728">
        <ele>329</ele>
        <time>2021-06-05T10:00:06Z</time>
      </trkpt>
      <trkpt lat="43.66793" lon="3.2973">
        <ele>329</ele>
        <time>2021-06-05T10:00:07Z</time>
      </trkpt>
      <trkpt lat="43.66794" lon="3.29733">
        <ele>329</ele>
        <time>2021-06-05T10:00:08Z</time>
      </trkpt>
      <trkpt lat="43.66796" lon="3.29737">
        <ele>329</ele>
        <time>2021-06-05T10:00:09Z</time>
      </trkpt>
      <trkpt lat="43.66798" lon="3.2974">
        <ele>329</ele>
        <time>2021-06-05T10:00:10Z</time>
      </trkpt>
      <trkpt lat="43.668" lon="3.29743">
        <ele>329</ele>
        <time>2021-06-05T10:00:11Z</time>
      </trkpt>
      <trkpt lat="43.66801" lon="3.29746">
        <ele>329</ele>
        <time>2021-06-05T10:00:12Z</time>
      </trkpt>
      <trkpt lat="43.66804" lon="3.29749">
        <ele>329</ele>
        <time>2021-06-05T10:00:13Z</time>
      </trkpt>
      <trkpt lat="43.66805" lon="3.29751">
        <ele>329</ele>
        <time>2021-06-05T10:00:14Z</time>
      </trkpt>
      <trkpt lat="43.66807" lon="3.29754">
        <ele>329</ele>
        <time>2021-06-05T10:00:15Z</time>
      </trkpt>
      <trkpt lat="43.66808" lon="3.29757">
        <ele>330</ele>
        <time>2021-06-05T10:00:16Z</time>
      </trkpt>
      <trkpt lat="43.66811" lon="3.2976">
        <ele>330</ele>
        <time>2021-06-05T10:00:17Z</time>
      </trkpt>
      <trkpt lat="43.66812" lon="3.29763">
        <ele>330</ele>
        <time>2021-06-05T10:00:18Z</time>
      </trkpt>
      <trkpt lat="43.66814" lon="3.29766">
        <ele>330</ele>
        <time>2021-06-05T10:00:19Z</time>
      </trkpt>
      <trkpt lat="43.66816" lon="3.29769">
        <ele>330</ele>
        <time>2021-06-05T10:00:20Z</time>
      </trkpt>
      <trkpt lat="43.66816" lon="3.29772">
        <ele>330</ele>
        <time>2021-06-05T10:00:21Z</time>
      </trkpt>
      <trkpt lat="43.66818" lon="3.29774">
        <ele>330</ele>
        <time>2021-06-05T10:00:22Z</time>
      </trkpt>
      <trkpt lat="43.6682" lon="3.29777">
        <ele>330</ele>
        <time>2021-06-05T10:00:23Z</time>
      </trkpt>
      <trkpt lat="43.66822" lon="3.29779">
        <ele>330</ele>
        <time>2021-06-05T10:00:24Z</time>
      </trkpt>
      <trkpt lat="43.66822" lon="3.29781">
        <ele>330</ele>
        <time>2021-06-05T10:00:25Z</time>
      </trkpt>
      <trkpt lat="43.66824" lon="3.29783">
        <ele>332</ele>
        <time>2021-06-05T10:00:26Z</time>
      </trkpt>
      <trkpt lat="43.66826" lon="3.29784">
        <ele>332</ele>
        <time>2021-06-05T10:00:27Z</time>
      </trkpt>
      <trkpt lat="43.66827" lon="3.29786">
        <ele>332</ele>
        <time>2021-06-05T10:00:28Z</time>
      </trkpt>
      <trkpt lat="43.66829" lon="3.29788">
        <ele>332</ele>
        <time>2021-06-05T10:00:29Z</time>
      </trkpt>
      <trkpt lat="43.6683" lon="3.2979">
        <ele>332</ele>
        <time>2021-06-05T10:00:30Z</time>
      </trkpt>
      <trkpt lat="43.66832" lon="3.29791">
        <ele>332</ele>
        <time>2021-06-05T10:00:31Z</time>
      </trkpt>
      <trkpt lat="43.66833" lon="3.29793">
        <ele>332</ele>
        <time>2021-06-05T10:00:32Z</time>
      </trkpt>
      <trkpt lat="43.66835" lon="3.29796">
        <ele>332</ele>
        <time>2021-06-05T10:00:33Z</time>
      </trkpt>
      <trkpt lat="43.66837" lon="3.29798">
        <ele>332</ele>
        <time>2021-06-05T10:00:34Z</time>
      </trkpt>
      <trkpt lat="43.66839" lon="3.298">
        <ele>332</ele>
        <time>2021-06-05T10:00:35Z</time>
      </trkpt>
      <trkpt lat="43.6684" lon="3.29802">
        <ele>332</ele>
        <time>2021-06-05T10:00:36Z</time>
      </trkpt>
      <trkpt lat="43.66842" lon="3.29803">
        <ele>332</ele>
        <time>2021-06-05T10:00:37Z</time>
      </trkpt>
      <trkpt lat="43.66844" lon="3.29804">
        <ele>332</ele>
        <time>2021-06-05T10:00:38Z</time>
      </trkpt>
      <trkpt lat="43.66846" lon="3.29805">
        <ele>332</ele>
        <time>2021-06-05T10:00:39Z</time>
      </trkpt>
      <trkpt lat="43.66848" lon="3.29805">
        <ele>332</ele>
        <time>2021-06-05T10:00:40Z</time>
      </trkpt>
      <trkpt lat="43.66851" lon="3.29805">
        <ele>332</ele>
        <time>2021-06-05T10:00:41Z</time>
      </trkpt>
      <trkpt lat="43.66853" lon="3.29806">
        <ele>332</ele>
        <time>2021-06-05T10:00:42Z</time>
      </trkpt>
      <trkpt lat="43.66855" lon="3.29806">
        <ele>332</ele>
        <time>2021-06-05T10:00:43Z</time>
      </trkpt>
      <trkpt lat="43.66857" lon="3.29807">
        <ele>332</ele>
        <time>2021-06-05T10:00:44Z</time>
      </trkpt>
      <trkpt lat="43.6686" lon="3.29807">
        <ele>332</ele>
        <time>2021-06-05T10:00:45Z</time>
      </trkpt>
      <trkpt lat="43.66862" lon="3.29808">
        <ele>333</ele>
        <time>2021-06-05T10:00:46Z</time>
      </trkpt>
      <trkpt lat="43.66864" lon="3.2981">
        <ele>333</ele>
        <time>2021-06-05T10:00:47Z</time>
      </trkpt>
      <trkpt lat="43.66867" lon="3.29811">
        <ele>333</ele>
        <time>2021-06-05T10:00:48Z</time>
      </trkpt>
      <trkpt lat="43.66869" lon="3.29812">
        <ele>333</ele>
        <time>2021-06-05T10:00:49Z</time>
      </trkpt>
      <trkpt lat="43.66871" lon="3.29812">
        <ele>333</ele>
        <time>2021-06-05T10:00:50Z</time>
      </trkpt>
      <trkpt lat="43.66873" lon="3.29814">
        <ele>333</ele>
        <time>2021-06-05T10:00:51Z</time>
      </trkpt>
      <trkpt lat="43.66875" lon="3.29816">
        <ele>333</ele>
        <time>2021-06-05T10:00:52Z</time>
      </trkpt>
      <trkpt lat="43.66877" lon="3.29817">
        <ele>333</ele>
        <time>2021-06-05T10:00:53Z</time>
      </trkpt>
      <trkpt lat="43.6688" lon="3.29819">
        <ele>333</ele>
        <time>2021-06-05T10:00:54Z</time>
      </trkpt>
      <trkpt lat="43.66882" lon="3.29821">
        <ele>333</ele>
        <time>2021-06-05T10:00:55Z</time>
      </trkpt>
      <trkpt lat="43.66884" lon="3.29823">
        <ele>334</ele>
        <time>2021-06-05T10:00:56Z</time>
      </trkpt>
      <trkpt lat="43.66889" lon="3.29827">
        <ele>334</ele>
        <time>2021-06-05T10:00:58Z</time>
      </trkpt>
      <trkpt lat="43.6689" lon="3.2983">
        <ele>334</ele>
        <time>2021-06-05T10:00:59Z</time>
      </trkpt>
      <trkpt lat="43.66891" lon="3.29832">
        <ele>334</ele>
        <time>2021-06-05T10:01:00Z</time>
      </trkpt>
      <trkpt lat="43.66894" lon="3.29834">
        <ele>334</ele>
        <time>2021-06-05T10:01:01Z</time>
      </trkpt>
      <trkpt lat="43.66896" lon="3.29836">
        <ele>334</ele>
        <time>2021-06-05T10:01:02Z</time>
      </trkpt>
      <trkpt lat="43.66899" lon="3.29837">
        <ele>334</ele>
        <time>2021-06-05T10:01:03Z</time>
      </trkpt>
      <trkpt lat="43.66901" lon="3.29838">
        <ele>334</ele>
        <time>2021-06-05T10:01:04Z</time>
      </trkpt>
      <trkpt lat="43.66905" lon="3.29838">
        <ele>334</ele>
        <time>2021-06-05T10:01:05Z</time>
      </trkpt>
      <trkpt lat="43.66908" lon="3.29838">
        <ele>334</ele>
        <time>2021-06-05T10:01:06Z</time>
      </trkpt>
      <trkpt lat="43.6691" lon="3.29838">
        <ele>334</ele>
        <time>2021-06-05T10:01:07Z</time>
      </trkpt>
      <trkpt lat="43.66912" lon="3.29839">
        <ele>334</ele>
        <time>2021-06-05T10:01:08Z</time>
      </trkpt>
      <trkpt lat="43.66915" lon="3.2984">
        <ele>334</ele>
        <time>2021-06-05T10:01:09Z</time>
      </trkpt>
      <trkpt lat="43.66917" lon="3.29841">
        <ele>334</ele>
        <time>2021-06-05T10:01:10Z</time>
      </trkpt>
      <trkpt lat="43.66919" lon="3.29842">
        <ele>334</ele>
        <time>2021-06-05T10:01:11Z</time>
      </trkpt>
      <trkpt lat="43.66921" lon="3.29842">
        <ele>334</ele>
        <time>2021-06-05T10:01:12Z</time>
      </trkpt>
      <trkpt lat="43.66922" lon="3.29843">
        <ele>334</ele>
        <time>2021-06-05T10:01:13Z</time>
      </trkpt>
      <trkpt lat="43.66926" lon="3.29843">
        <ele>334</ele>
        <time>2021-06-05T10:01:15Z</time>
      </trkpt>
      <trkpt lat="43.66929" lon="3.29842">
        <ele>334</ele>
        <time>2021-06-05T10:01:17Z</time>
      </trkpt>
      <trkpt lat="43.66932" lon="3.29842">
        <ele>334</ele>
        <time>2021-06-05T10:01:19Z</time>
      </trkpt>
      <trkpt lat="43.66935" lon="3.29841">
        <ele>334</ele>
        <time>2021-06-05T10:01:21Z</time>
      </trkpt>
      <trkpt lat="43.66937" lon="3.29841">
        <ele>334</ele>
        <time>2021-06-05T10:01:23Z</time>
      </trkpt>
      <trkpt lat="43.66941" lon="3.29841">
        <ele>334</ele>
        <time>2021-06-05T10:01:25Z</time>
      </trkpt>
      <trkpt lat="43.66944" lon="3.29842">
        <ele>335</ele>
        <time>2021-06-05T10:01:27Z</time>
      </trkpt>
      <trkpt lat="43.66948" lon="3.29842">
        <ele>335</ele>
        <time>2021-06-05T10:01:29Z</time>
      </trkpt>
      <trkpt lat="43.66951" lon="3.29841">
        <ele>335</ele>
        <time>2021-06-05T10:01:31Z</time>
      </trkpt>
      <trkpt lat="43.66955" lon="3.2984">
        <ele>335</ele>
        <time>2021-06-05T10:01:33Z</time>
      </trkpt>
      <trkpt lat="43.66958" lon="3.2984">
        <ele>335</ele>
        <time>2021-06-05T10:01:35Z</time>
      </trkpt>
      <trkpt lat="43.6696" lon="3.29839">
        <ele>335</ele>
        <time>2021-06-05T10:01:37Z</time>
      </trkpt>
      <trkpt lat="43.66963" lon="3.29839">
        <ele>335</ele>
        <time>2021-06-05T10:01:39Z</time>
      </trkpt>
      <trkpt lat="43.66965" lon="3.29838">
        <ele>335</ele>
        <time>2021-06-05T10:01:41Z</time>
      </trkpt>
      <trkpt lat="43.66967" lon="3.29837">
        <ele>335</ele>
        <time>2021-06-05T10:01:43Z</time>
      </trkpt>
      <trkpt lat="43.6697" lon="3.29835">
        <ele>335</ele>
        <time>2021-06-05T10:01:45Z</time>
      </trkpt>
      <trkpt lat="43.66972" lon="3.29832">
        <ele>336</ele>
        <time>2021-06-05T10:01:47Z</time>
      </trkpt>
      <trkpt lat="43.66974" lon="3.2983">
        <ele>336</ele>
        <time>2021-06-05T10:01:49Z</time>
      </trkpt>
      <trkpt lat="43.66976" lon="3.29828">
        <ele>336</ele>
        <time>2021-06-05T10:01:51Z</time>
      </trkpt>
      <trkpt lat="43.66978" lon="3.29827">
        <ele>336</ele>
        <time>2021-06-05T10:01:53Z</time>
      </trkpt>
      <trkpt lat="43.66981" lon="3.29825">
        <ele>336</ele>
        <time>2021-06-05T10:01:55Z</time>
      </trkpt>
      <trkpt lat="43.66984" lon="3.29824">
        <ele>337</ele>
        <time>2021-06-05T10:01:57Z</time>
      </trkpt>
      <trkpt lat="43.66987" lon="3.29821">
        <ele>337</ele>
        <time>2021-06-05T10:01:59Z</time>
      </trkpt>
      <trkpt lat="43.66989" lon="3.2982">
        <ele>337</ele>
        <time>2021-06-05T10:02:01Z</time>
      </trkpt>
      <trkpt lat="43.66991" lon="3.29819">
        <ele>337</ele>
        <time>2021-06-05T10:02:03Z</time>
      </trkpt>
      <trkpt lat="43.66993" lon="3.29818">
        <ele>337</ele>
        <time>2021-06-05T10:02:05Z</time>
      </trkpt>
      <trkpt lat="43.66996" lon="3.29818">
        <ele>338</ele>
        <time>2021-06-05T10:02:07Z</time>
      </trkpt>
      <trkpt lat="43.66999" lon="3.29816">
        <ele>338</ele>
        <time>2021-06-05T10:02:09Z</time>
      </trkpt>
      <trkpt lat="43.67002" lon="3.29816">
        <ele>338</ele>
        <time>2021-06-05T10:02:11Z</time>
      </trkpt>
      <trkpt lat="43.67005" lon="3.29816">
        <ele>338</ele>
        <time>2021-06-05T10:02:13Z</time>
      </trkpt>
      <trkpt lat="43.67008" lon="3.29817">
        <ele>338</ele>
        <time>2021-06-05T10:02:15Z</time>
      </trkpt>
      <trkpt lat="43.6701" lon="3.29818">
        <ele>340</ele>
        <time>2021-06-05T10:02:17Z</time>
      </trkpt>
      <trkpt lat="43.67013" lon="3.29818">
        <ele>340</ele>
        <time>2021-06-05T10:02:19Z</time>
      </trkpt>
      <trkpt lat="43.67016" lon="3.29819">
        <ele>340</ele>
        <time>2021-06-05T10:02:20Z</time>
      </trkpt>
      <trkpt lat="43.67018" lon="3.29819">
        <ele>340</ele>
        <time>2021-06-05T10:02:21Z</time>
      </trkpt>
      <trkpt lat="43.6702" lon="3.2982">
        <ele>340</ele>
        <time>2021-06-05T10:02:22Z</time>
      </trkpt>
      <trkpt lat="43.67022" lon="3.2982">
        <ele>340</ele>
        <time>2021-06-05T10:02:23Z</time>
      </trkpt>
      <trkpt lat="43.67024" lon="3.2982">
        <ele>340</ele>
        <time>2021-06-05T10:02:24Z</time>
      </trkpt>
      <trkpt lat="43.67026" lon="3.29821">
        <ele>340</ele>
        <time>2021-06-05T10:02:25Z</time>
      </trkpt>
      <trkpt lat="43.67027" lon="3.29821">
        <ele>342</ele>
        <time>2021-06-05T10:02:26Z</time>
      </trkpt>
      <trkpt lat="43.67029" lon="3.29821">
        <ele>342</ele>
        <time>2021-06-05T10:02:27Z</time>
      </trkpt>
      <trkpt lat="43.67033" lon="3.29822">
        <ele>342</ele>
        <time>2021-06-05T10:02:29Z</time>
      </trkpt>
      <trkpt lat="43.67035" lon="3.29823">
        <ele>342</ele>
        <time>2021-06-05T10:02:30Z</time>
      </trkpt>
      <trkpt lat="43.67036" lon="3.29824">
        <ele>342</ele>
        <time>2021-06-05T10:02:31Z</time>
      </trkpt>
      <trkpt lat="43.67039" lon="3.29825">
        <ele>342</ele>
        <time>2021-06-05T10:02:32Z</time>
      </trkpt>
      <trkpt lat="43.67041" lon="3.29826">
        <ele>342</ele>
        <time>2021-06-05T10:02:33Z</time>
      </trkpt>
      <trkpt lat="43.67043" lon="3.29827">
        <ele>342</ele>
        <time>2021-06-05T10:02:34Z</time>
      </trkpt>
      <trkpt lat="43.67046" lon="3.29828">
        <ele>342</ele>
        <time>2021-06-05T10:02:35Z</time>
      </trkpt>
      <trkpt lat="43.67048" lon="3.29829">
        <ele>343</ele>
        <time>2021-06-05T10:02:36Z</time>
      </trkpt>
      <trkpt lat="43.67052" lon="3.2983">
        <ele>343</ele>
        <time>2021-06-05T10:02:37Z</time>
      </trkpt>
      <trkpt lat="43.67055" lon="3.29831">
        <ele>343</ele>
        <time>2021-06-05T10:02:38Z</time>
      </trkpt>
      <trkpt lat="43.67057" lon="3.29831">
        <ele>343</ele>
        <time>2021-06-05T10:02:39Z</time>
      </trkpt>
      <trkpt lat="43.6706" lon="3.29833">
        <ele>343</ele>
        <time>2021-06-05T10:02:40Z</time>
      </trkpt>
      <trkpt lat="43.67062" lon="3.29834">
        <ele>343</ele>
        <time>2021-06-05T10:02:41Z</time>
      </trkpt>
      <trkpt lat="43.67064" lon="3.29836">
        <ele>343</ele>
        <time>2021-06-05T10:02:42Z</time>
      </trkpt>
      <trkpt lat="43.67066" lon="3.29837">
        <ele>343</ele>
        <time>2021-06-05T10:02:43Z</time>
      </trkpt>
      <trkpt lat="43.67068" lon="3.29839">
        <ele>343</ele>
        <time>2021-06-05T10:02:44Z</time>
      </trkpt>
      <trkpt lat="43.67071" lon="3.2984">
        <ele>343</ele>
        <time>2021-06-05T10:02:45Z</time>
      </trkpt>
      <trkpt lat="43.67073" lon="3.2984">
        <ele>344</ele>
        <time>2021-06-05T10:02:46Z</time>
      </trkpt>
      <trkpt lat="43.67074" lon="3.29841">
        <ele>344</ele>
        <time>2021-06-05T10:02:47Z</time>
      </trkpt>
      <trkpt lat="43.67077" lon="3.29842">
        <ele>344</ele>
        <time>2021-06-05T10:02:48Z</time>
      </trkpt>
      <trkpt lat="43.67078" lon="3.29844">
        <ele>344</ele>
        <time>2021-06-05T10:02:49Z</time>
      </trkpt>
      <trkpt lat="43.6708" lon="3.29846">
        <ele>344</ele>
        <time>2021-06-05T10:02:50Z</time>
      </trkpt>
      <trkpt lat="43.67083" lon="3.29847">
        <ele>344</ele>
        <time>2021-06-05T10:02:51Z</time>
      </trkpt>
      <trkpt lat="43.67084" lon="3.29849">
        <ele>344</ele>
        <time>2021-06-05T10:02:52Z</time>
      </trkpt>
      <trkpt lat="43.67086" lon="3.2985">
        <ele>344</ele>
        <time>2021-06-05T10:02:53Z</time>
      </trkpt>
      <trkpt lat="43.67088" lon="3.29854">
        <ele>344</ele>
        <time>2021-06-05T10:02:55Z</time>
      </trkpt>
      <trkpt lat="43.67091" lon="3.29855">
        <ele>345</ele>
        <time>2021-06-05T10:02:56Z</time>
      </trkpt>
      <trkpt lat="43.67092" lon="3.29857">
        <ele>345</ele>
        <time>2021-06-05T10:02:57Z</time>
      </trkpt>
      <trkpt lat="43.67094" lon="3.29858">
        <ele>345</ele>
        <time>2021-06-05T10:02:58Z</time>
      </trkpt>
      <trkpt lat="43.67095" lon="3.2986">
        <ele>345</ele>
        <time>2021-06-05T10:02:59Z</time>
      </trkpt>
      <trkpt lat="43.67097" lon="3.29864">
        <ele>345</ele>
        <time>2021-06-05T10:03:01Z</time>
      </trkpt>
      <trkpt lat="43.67098" lon="3.29868">
        <ele>345</ele>
        <time>2021-06-05T10:03:03Z</time>
      </trkpt>
      <trkpt lat="43.67099" lon="3.29873">
        <ele>345</ele>
        <time>2021-06-05T10:03:05Z</time>
      </trkpt>
      <trkpt lat="43.671" lon="3.29878">
        <ele>347</ele>
        <time>2021-06-05T10:03:07Z</time>
      </trkpt>
      <trkpt lat="43.671" lon="3.29882">
        <ele>347</ele>
        <time>2021-06-05T10:03:09Z</time>
      </trkpt>
      <trkpt lat="43.671" lon="3.29885">
        <ele>347</ele>
        <time>2021-06-05T10:03:10Z</time>
      </trkpt>
      <trkpt lat="43.67101" lon="3.2989">
        <ele>347</ele>
        <time>2021-06-05T10:03:12Z</time>
      </trkpt>
      <trkpt lat="43.67101" lon="3.29892">
        <ele>347</ele>
        <time>2021-06-05T10:03:13Z</time>
      </trkpt>
      <trkpt lat="43.67101" lon="3.29895">
        <ele>347</ele>
        <time>2021-06-05T10:03:14Z</time>
      </trkpt>
      <trkpt lat="43.67102" lon="3.29898">
        <ele>347</ele>
        <time>2021-06-05T10:03:15Z</time>
      </trkpt>
      <trkpt lat="43.67101" lon="3.29903">
        <ele>349</ele>
        <time>2021-06-05T10:03:17Z</time>
      </trkpt>
      <trkpt lat="43.67101" lon="3.29906">
        <ele>349</ele>
        <time>2021-06-05T10:03:18Z</time>
      </trkpt>
      <trkpt lat="43.671" lon="3.29908">
        <ele>349</ele>
        <time>2021-06-05T10:03:19Z</time>
      </trkpt>
      <trkpt lat="43.671" lon="3.29912">
        <ele>349</ele>
        <time>2021-06-05T10:03:21Z</time>
      </trkpt>
      <trkpt lat="43.671" lon="3.29917">
        <ele>349</ele>
        <time>2021-06-05T10:03:23Z</time>
      </trkpt>
      <trkpt lat="43.671" lon="3.29922">
        <ele>349</ele>
        <time>2021-06-05T10:03:25Z</time>
      </trkpt>
      <trkpt lat="43.671" lon="3.29926">
        <ele>351</ele>
        <time>2021-06-05T10:03:27Z</time>
      </trkpt>
      <trkpt lat="43.67102" lon="3.2993">
        <ele>351</ele>
        <time>2021-06-05T10:03:29Z</time>
      </trkpt>
      <trkpt lat="43.67103" lon="3.29934">
        <ele>351</ele>
        <time>2021-06-05T10:03:31Z</time>
      </trkpt>
      <trkpt lat="43.67102" lon="3.29938">
        <ele>351</ele>
        <time>2021-06-05T10:03:33Z</time>
      </trkpt>
      <trkpt lat="43.67101" lon="3.29942">
        <ele>351</ele>
        <time>2021-06-05T10:03:35Z</time>
      </trkpt>
      <trkpt lat="43.671" lon="3.29946">
        <ele>351</ele>
        <time>2021-06-05T10:03:37Z</time>
      </trkpt>
      <trkpt lat="43.67099" lon="3.29951">
        <ele>351</ele>
        <time>2021-06-05T10:03:39Z</time>
      </trkpt>
      <trkpt lat="43.67099" lon="3.29954">
        <ele>351</ele>
        <time>2021-06-05T10:03:41Z</time>
      </trkpt>
      <trkpt lat="43.67099" lon="3.29958">
        <ele>351</ele>
        <time>2021-06-05T10:03:43Z</time>
      </trkpt>
      <trkpt lat="43.67097" lon="3.29962">
        <ele>351</ele>
        <time>2021-06-05T10:03:45Z</time>
      </trkpt>
      <trkpt lat="43.67095" lon="3.29965">
        <ele>353</ele>
        <time>2021-06-05T10:03:47Z</time>
      </trkpt>
      <trkpt lat="43.67094" lon="3.29969">
        <ele>353</ele>
        <time>2021-06-05T10:03:49Z</time>
      </trkpt>
      <trkpt lat="43.67092" lon="3.29972">
        <ele>353</ele>
        <time>2021-06-05T10:03:51Z</time>
      </trkpt>
      <trkpt lat="43.67088" lon="3.29975">
        <ele>353</ele>
        <time>2021-06-05T10:03:53Z</time>
      </trkpt>
      <trkpt lat="43.67087" lon="3.29977">
        <ele>353</ele>
        <time>2021-06-05T10:03:54Z</time>
      </trkpt>
      <trkpt lat="43.67086" lon="3.29978">
        <ele>353</ele>
        <time>2021-06-05T10:03:55Z</time>
      </trkpt>
      <trkpt lat="43.67083" lon="3.29981">
        <ele>353</ele>
        <time>2021-06-05T10:03:57Z</time>
      </trkpt>
      <trkpt lat="43.6708" lon="3.29984">
        <ele>353</ele>
        <time>2021-06-05T10:03:59Z</time>
      </trkpt>
      <trkpt lat="43.67079" lon="3.29988">
        <ele>353</ele>
        <time>2021-06-05T10:04:01Z</time>
      </trkpt>
      <trkpt lat="43.67078" lon="3.2999">
        <ele>353</ele>
        <time>2021-06-05T10:04:02Z</time>
      </trkpt>
      <trkpt lat="43.67077" lon="3.29993">
        <ele>353</ele>
        <time>2021-06-05T10:04:03Z</time>
      </trkpt>
      <trkpt lat="43.67076" lon="3.29997">
        <ele>353</ele>
        <time>2021-06-05T10:04:05Z</time>
      </trkpt>
      <trkpt lat="43.67074" lon="3.30001">
        <ele>353</ele>
        <time>2021-06-05T10:04:07Z</time>
      </trkpt>
      <trkpt lat="43.67074" lon="3.30006">
        <ele>353</ele>
        <time>2021-06-05T10:04:09Z</time>
      </trkpt>
      <trkpt lat="43.67072" lon="3.30011">
        <ele>353</ele>
        <time>2021-06-05T10:04:11Z</time>
      </trkpt>
      <trkpt lat="43.67072" lon="3.30014">
        <ele>353</ele>
        <time>2021-06-05T10:04:12Z</time>
      </trkpt>
      <trkpt lat="43.6707" lon="3.30017">
        <ele>353</ele>
        <time>2021-06-05T10:04:14Z</time>
      </trkpt>
      <trkpt lat="43.67069" lon="3.30022">
        <ele>355</ele>
        <time>2021-06-05T10:04:16Z</time>
      </trkpt>
      <trkpt lat="43.67069" lon="3.30025">
        <ele>355</ele>
        <time>2021-06-05T10:04:17Z</time>
      </trkpt>
      <trkpt lat="43.67068" lon="3.30027">
        <ele>355</ele>
        <time>2021-06-05T10:04:18Z</time>
      </trkpt>
      <trkpt lat="43.67067" lon="3.30031">
        <ele>355</ele>
        <time>2021-06-05T10:04:20Z</time>
      </trkpt>
      <trkpt lat="43.67066" lon="3.30034">
        <ele>355</ele>
        <time>2021-06-05T10:04:21Z</time>
      </trkpt>
      <trkpt lat="43.67066" lon="3.30036">
        <ele>355</ele>
        <time>2021-06-05T10:04:22Z</time>
      </trkpt>
      <trkpt lat="43.67065" lon="3.30041">
        <ele>355</ele>
        <time>2021-06-05T10:04:24Z</time>
      </trkpt>
      <trkpt lat="43.67065" lon="3.30046">
        <ele>356</ele>
        <time>2021-06-05T10:04:26Z</time>
      </trkpt>
      <trkpt lat="43.67065" lon="3.30048">
        <ele>356</ele>
        <time>2021-06-05T10:04:27Z</time>
      </trkpt>
      <trkpt lat="43.67064" lon="3.30051">
        <ele>356</ele>
        <time>2021-06-05T10:04:28Z</time>
      </trkpt>
      <trkpt lat="43.67064" lon="3.30054">
        <ele>356</ele>
        <time>2021-06-05T10:04:29Z</time>
      </trkpt>
      <trkpt lat="43.67064" lon="3.30056">
        <ele>356</ele>
        <time>2021-06-05T10:04:30Z</time>
      </trkpt>
      <trkpt lat="43.67064" lon="3.30059">
        <ele>356</ele>
        <time>2021-06-05T10:04:31Z</time>
      </trkpt>
      <trkpt lat="43.67064" lon="3.30062">
        <ele>356</ele>
        <time>2021-06-05T10:04:32Z</time>
      </trkpt>
      <trkpt lat="43.67065" lon="3.30065">
        <ele>356</ele>
        <time>2021-06-05T10:04:33Z</time>
      </trkpt>
      <trkpt lat="43.67065" lon="3.30068">
        <ele>356</ele>
        <time>2021-06-05T10:04:34Z</time>
      </trkpt>
      <trkpt lat="43.67066" lon="3.3007">
        <ele>356</ele>
        <time>2021-06-05T10:04:35Z</time>
      </trkpt>
      <trkpt lat="43.67066" lon="3.30073">
        <ele>357</ele>
        <time>2021-06-05T10:04:36Z</time>
      </trkpt>
      <trkpt lat="43.67068" lon="3.30077">
        <ele>357</ele>
        <time>2021-06-05T10:04:38Z</time>
      </trkpt>
      <trkpt lat="43.67069" lon="3.30082">
        <ele>357</ele>
        <time>2021-06-05T10:04:40Z</time>
      </trkpt>
      <trkpt lat="43.6707" lon="3.30086">
        <ele>357</ele>
        <time>2021-06-05T10:04:42Z</time>
      </trkpt>
      <trkpt lat="43.6707" lon="3.3009">
        <ele>357</ele>
        <time>2021-06-05T10:04:44Z</time>
      </trkpt>
      <trkpt lat="43.67069" lon="3.30094">
        <ele>358</ele>
        <time>2021-06-05T10:04:46Z</time>
      </trkpt>
      <trkpt lat="43.67068" lon="3.30098">
        <ele>358</ele>
        <time>2021-06-05T10:04:48Z</time>
      </trkpt>
      <trkpt lat="43.67066" lon="3.30101">
        <ele>358</ele>
        <time>2021-06-05T10:04:50Z</time>
      </trkpt>
      <trkpt lat="43.67065" lon="3.30105">
        <ele>358</ele>
        <time>2021-06-05T10:04:52Z</time>
      </trkpt>
      <trkpt lat="43.67063" lon="3.30108">
        <ele>358</ele>
        <time>2021-06-05T10:04:54Z</time>
      </trkpt>
      <trkpt lat="43.67062" lon="3.30109">
        <ele>359</ele>
        <time>2021-06-05T10:04:56Z</time>
      </trkpt>
      <trkpt lat="43.67061" lon="3.30112">
        <ele>359</ele>
        <time>2021-06-05T10:04:58Z</time>
      </trkpt>
      <trkpt lat="43.67062" lon="3.30115">
        <ele>359</ele>
        <time>2021-06-05T10:06:07Z</time>
      </trkpt>
      <trkpt lat="43.67064" lon="3.30116">
        <ele>359</ele>
        <time>2021-06-05T10:06:09Z</time>
      </trkpt>
      <trkpt lat="43.67066" lon="3.30115">
        <ele>359</ele>
        <time>2021-06-05T10:06:12Z</time>
      </trkpt>
      <trkpt lat="43.67068" lon="3.30113">
        <ele>359</ele>
        <time>2021-06-05T10:06:14Z</time>
      </trkpt>
      <trkpt lat="43.67071" lon="3.30112">
        <ele>359</ele>
        <time>2021-06-05T10:06:16Z</time>
      </trkpt>
      <trkpt lat="43.67073" lon="3.30111">
        <ele>359</ele>
        <time>2021-06-05T10:06:18Z</time>
      </trkpt>
      <trkpt lat="43.67076" lon="3.3011">
        <ele>359</ele>
        <time>2021-06-05T10:06:20Z</time>
      </trkpt>
      <trkpt lat="43.67078" lon="3.30108">
        <ele>361</ele>
        <time>2021-06-05T10:06:21Z</time>
      </trkpt>
      <trkpt lat="43.67081" lon="3.30106">
        <ele>361</ele>
        <time>2021-06-05T10:06:23Z</time>
      </trkpt>
      <trkpt lat="43.67084" lon="3.30104">
        <ele>361</ele>
        <time>2021-06-05T10:06:25Z</time>
      </trkpt>
      <trkpt lat="43.67087" lon="3.30102">
        <ele>361</ele>
        <time>2021-06-05T10:06:27Z</time>
      </trkpt>
      <trkpt lat="43.6709" lon="3.301">
        <ele>361</ele>
        <time>2021-06-05T10:06:29Z</time>
      </trkpt>
      <trkpt lat="43.67093" lon="3.30098">
        <ele>362</ele>
        <time>2021-06-05T10:06:31Z</time>
      </trkpt>
      <trkpt lat="43.67095" lon="3.30096">
        <ele>362</ele>
        <time>2021-06-05T10:06:33Z</time>
      </trkpt>
      <trkpt lat="43.67097" lon="3.30094">
        <ele>362</ele>
        <time>2021-06-05T10:06:36Z</time>
      </trkpt>
      <trkpt lat="43.67101" lon="3.30092">
        <ele>362</ele>
        <time>2021-06-05T10:06:37Z</time>
      </trkpt>
      <trkpt lat="43.67103" lon="3.30089">
        <ele>362</ele>
        <time>2021-06-05T10:06:39Z</time>
      </trkpt>
      <trkpt lat="43.67107" lon="3.30087">
        <ele>363</ele>
        <time>2021-06-05T10:06:42Z</time>
      </trkpt>
      <trkpt lat="43.67108" lon="3.30085">
        <ele>363</ele>
        <time>2021-06-05T10:06:42Z</time>
      </trkpt>
      <trkpt lat="43.6711" lon="3.30084">
        <ele>363</ele>
        <time>2021-06-05T10:06:43Z</time>
      </trkpt>
      <trkpt lat="43.67112" lon="3.30082">
        <ele>363</ele>
        <time>2021-06-05T10:06:44Z</time>
      </trkpt>
      <trkpt lat="43.67114" lon="3.3008">
        <ele>363</ele>
        <time>2021-06-05T10:06:45Z</time>
      </trkpt>
      <trkpt lat="43.67115" lon="3.30078">
        <ele>363</ele>
        <time>2021-06-05T10:06:46Z</time>
      </trkpt>
      <trkpt lat="43.67117" lon="3.30076">
        <ele>363</ele>
        <time>2021-06-05T10:06:47Z</time>
      </trkpt>
      <trkpt lat="43.67118" lon="3.30074">
        <ele>363</ele>
        <time>2021-06-05T10:06:48Z</time>
      </trkpt>
      <trkpt lat="43.6712" lon="3.30071">
        <ele>363</ele>
        <time>2021-06-05T10:06:49Z</time>
      </trkpt>
      <trkpt lat="43.67122" lon="3.30069">
        <ele>363</ele>
        <time>2021-06-05T10:06:50Z</time>
      </trkpt>
      <trkpt lat="43.67123" lon="3.30067">
        <ele>364</ele>
        <time>2021-06-05T10:06:52Z</time>
      </trkpt>
      <trkpt lat="43.67124" lon="3.30065">
        <ele>364</ele>
        <time>2021-06-05T10:06:53Z</time>
      </trkpt>
      <trkpt lat="43.67126" lon="3.30062">
        <ele>364</ele>
        <time>2021-06-05T10:06:54Z</time>
      </trkpt>
      <trkpt lat="43.67127" lon="3.3006">
        <ele>364</ele>
        <time>2021-06-05T10:06:55Z</time>
      </trkpt>
      <trkpt lat="43.67128" lon="3.30058">
        <ele>364</ele>
        <time>2021-06-05T10:06:56Z</time>
      </trkpt>
      <trkpt lat="43.67129" lon="3.30055">
        <ele>364</ele>
        <time>2021-06-05T10:06:57Z</time>
      </trkpt>
      <trkpt lat="43.67131" lon="3.30053">
        <ele>364</ele>
        <time>2021-06-05T10:06:58Z</time>
      </trkpt>
      <trkpt lat="43.67132" lon="3.30051">
        <ele>364</ele>
        <time>2021-06-05T10:06:59Z</time>
      </trkpt>
      <trkpt lat="43.67133" lon="3.30048">
        <ele>364</ele>
        <time>2021-06-05T10:07:00Z</time>
      </trkpt>
      <trkpt lat="43.67135" lon="3.30046">
        <ele>364</ele>
        <time>2021-06-05T10:07:01Z</time>
      </trkpt>
      <trkpt lat="43.67136" lon="3.30043">
        <ele>365</ele>
        <time>2021-06-05T10:07:02Z</time>
      </trkpt>
      <trkpt lat="43.67138" lon="3.30041">
        <ele>365</ele>
        <time>2021-06-05T10:07:03Z</time>
      </trkpt>
      <trkpt lat="43.67139" lon="3.30038">
        <ele>365</ele>
        <time>2021-06-05T10:07:04Z</time>
      </trkpt>
      <trkpt lat="43.67141" lon="3.30036">
        <ele>365</ele>
        <time>2021-06-05T10:07:05Z</time>
      </trkpt>
      <trkpt lat="43.67142" lon="3.30034">
        <ele>365</ele>
        <time>2021-06-05T10:07:06Z</time>
      </trkpt>
      <trkpt lat="43.67143" lon="3.30031">
        <ele>365</ele>
        <time>2021-06-05T10:07:07Z</time>
      </trkpt>
      <trkpt lat="43.67145" lon="3.30029">
        <ele>365</ele>
        <time>2021-06-05T10:07:08Z</time>
      </trkpt>
      <trkpt lat="43.67147" lon="3.30027">
        <ele>365</ele>
        <time>2021-06-05T10:07:09Z</time>
      </trkpt>
      <trkpt lat="43.67148" lon="3.30024">
        <ele>365</ele>
        <time>2021-06-05T10:07:10Z</time>
      </trkpt>
      <trkpt lat="43.6715" lon="3.30022">
        <ele>365</ele>
        <time>2021-06-05T10:07:11Z</time>
      </trkpt>
      <trkpt lat="43.67152" lon="3.30019">
        <ele>366</ele>
        <time>2021-06-05T10:07:12Z</time>
      </trkpt>
      <trkpt lat="43.67153" lon="3.30017">
        <ele>366</ele>
        <time>2021-06-05T10:07:13Z</time>
      </trkpt>
      <trkpt lat="43.67155" lon="3.30015">
        <ele>366</ele>
        <time>2021-06-05T10:07:14Z</time>
      </trkpt>
      <trkpt lat="43.67156" lon="3.30013">
        <ele>366</ele>
        <time>2021-06-05T10:07:15Z</time>
      </trkpt>
      <trkpt lat="43.67157" lon="3.3001">
        <ele>366</ele>
        <time>2021-06-05T10:07:16Z</time>
      </trkpt>
      <trkpt lat="43.67159" lon="3.30008">
        <ele>366</ele>
        <time>2021-06-05T10:07:17Z</time>
      </trkpt>
      <trkpt lat="43.67161" lon="3.30006">
        <ele>366</ele>
        <time>2021-06-05T10:07:18Z</time>
      </trkpt>
      <trkpt lat="43.67162" lon="3.30004">
        <ele>366</ele>
        <time>2021-06-05T10:07:19Z</time>
      </trkpt>
      <trkpt lat="43.67163" lon="3.30002">
        <ele>366</ele>
        <time>2021-06-05T10:07:20Z</time>
      </trkpt>
      <trkpt lat="43.67164" lon="3.3">
        <ele>366</ele>
        <time>2021-06-05T10:07:21Z</time>
      </trkpt>
      <trkpt lat="43.67165" lon="3.29998">
        <ele>367</ele>
        <time>2021-06-05T10:07:22Z</time>
      </trkpt>
      <trkpt lat="43.67166" lon="3.29995">
        <ele>367</ele>
        <time>2021-06-05T10:07:23Z</time>
      </trkpt>
      <trkpt lat="43.67167" lon="3.29993">
        <ele>367</ele>
        <time>2021-06-05T10:07:24Z</time>
      </trkpt>
      <trkpt lat="43.67169" lon="3.29991">
        <ele>367</ele>
        <time>2021-06-05T10:07:25Z</time>
      </trkpt>
      <trkpt lat="43.6717" lon="3.29987">
        <ele>367</ele>
        <time>2021-06-05T10:07:27Z</time>
      </trkpt>
      <trkpt lat="43.67171" lon="3.29984">
        <ele>367</ele>
        <time>2021-06-05T10:07:28Z</time>
      </trkpt>
      <trkpt lat="43.67172" lon="3.29982">
        <ele>367</ele>
        <time>2021-06-05T10:07:29Z</time>
      </trkpt>
      <trkpt lat="43.67172" lon="3.2998">
        <ele>367</ele>
        <time>2021-06-05T10:07:30Z</time>
      </trkpt>
      <trkpt lat="43.67174" lon="3.29977">
        <ele>367</ele>
        <time>2021-06-05T10:07:31Z</time>
      </trkpt>
      <trkpt lat="43.67175" lon="3.29975">
        <ele>369</ele>
        <time>2021-06-05T10:07:32Z</time>
      </trkpt>
      <trkpt lat="43.67176" lon="3.29973">
        <ele>369</ele>
        <time>2021-06-05T10:07:33Z</time>
      </trkpt>
      <trkpt lat="43.67177" lon="3.2997">
        <ele>369</ele>
        <time>2021-06-05T10:07:34Z</time>
      </trkpt>
      <trkpt lat="43.67178" lon="3.29968">
        <ele>369</ele>
        <time>2021-06-05T10:07:35Z</time>
      </trkpt>
      <trkpt lat="43.67179" lon="3.29965">
        <ele>369</ele>
        <time>2021-06-05T10:07:36Z</time>
      </trkpt>
      <trkpt lat="43.67179" lon="3.29963">
        <ele>369</ele>
        <time>2021-06-05T10:07:37Z</time>
      </trkpt>
      <trkpt lat="43.67181" lon="3.29961">
        <ele>369</ele>
        <time>2021-06-05T10:07:38Z</time>
      </trkpt>
      <trkpt lat="43.67182" lon="3.29959">
        <ele>369</ele>
        <time>2021-06-05T10:07:39Z</time>
      </trkpt>
      <trkpt lat="43.67183" lon="3.29957">
        <ele>369</ele>
        <time>2021-06-05T10:07:40Z</time>
      </trkpt>
      <trkpt lat="43.67186" lon="3.29955">
        <ele>369</ele>
        <time>2021-06-05T10:07:42Z</time>
      </trkpt>
      <trkpt lat="43.67189" lon="3.29955">
        <ele>369</ele>
        <time>2021-06-05T10:07:44Z</time>
      </trkpt>
      <trkpt lat="43.67191" lon="3.29957">
        <ele>369</ele>
        <time>2021-06-05T10:07:46Z</time>
      </trkpt>
      <trkpt lat="43.67193" lon="3.29958">
        <ele>369</ele>
        <time>2021-06-05T10:07:48Z</time>
      </trkpt>
      <trkpt lat="43.67195" lon="3.2996">
        <ele>369</ele>
        <time>2021-06-05T10:07:50Z</time>
      </trkpt>
      <trkpt lat="43.67197" lon="3.29961">
        <ele>369</ele>
        <time>2021-06-05T10:07:52Z</time>
      </trkpt>
      <trkpt lat="43.67197" lon="3.29961">
        <ele>369</ele>
        <time>2021-06-05T10:07:57Z</time>
      </trkpt>
      <trkpt lat="43.67193" lon="3.2996">
        <ele>368</ele>
        <time>2021-06-05T10:11:14Z</time>
      </trkpt>
      <trkpt lat="43.67193" lon="3.29959">
        <ele>368</ele>
        <time>2021-06-05T10:11:19Z</time>
      </trkpt>
      <trkpt lat="43.67192" lon="3.29958">
        <ele>368</ele>
        <time>2021-06-05T10:11:20Z</time>
      </trkpt>
      <trkpt lat="43.6719" lon="3.29955">
        <ele>367</ele>
        <time>2021-06-05T10:11:24Z</time>
      </trkpt>
      <trkpt lat="43.6719" lon="3.29955">
        <ele>367</ele>
        <time>2021-06-05T10:11:29Z</time>
      </trkpt>
      <trkpt lat="43.67192" lon="3.29965">
        <ele>366</ele>
        <time>2021-06-05T10:14:16Z</time>
      </trkpt>
      <trkpt lat="43.67189" lon="3.29966">
        <ele>366</ele>
        <time>2021-06-05T10:14:18Z</time>
      </trkpt>
      <trkpt lat="43.67186" lon="3.29967">
        <ele>366</ele>
        <time>2021-06-05T10:14:22Z</time>
      </trkpt>
      <trkpt lat="43.67184" lon="3.2997">
        <ele>366</ele>
        <time>2021-06-05T10:14:24Z</time>
      </trkpt>
      <trkpt lat="43.67182" lon="3.29973">
        <ele>366</ele>
        <time>2021-06-05T10:14:25Z</time>
      </trkpt>
      <trkpt lat="43.6718" lon="3.29976">
        <ele>366</ele>
        <time>2021-06-05T10:14:26Z</time>
      </trkpt>
      <trkpt lat="43.67178" lon="3.29979">
        <ele>366</ele>
        <time>2021-06-05T10:14:27Z</time>
      </trkpt>
      <trkpt lat="43.67176" lon="3.29982">
        <ele>366</ele>
        <time>2021-06-05T10:14:28Z</time>
      </trkpt>
      <trkpt lat="43.67174" lon="3.29986">
        <ele>366</ele>
        <time>2021-06-05T10:14:29Z</time>
      </trkpt>
      <trkpt lat="43.67172" lon="3.2999">
        <ele>366</ele>
        <time>2021-06-05T10:14:30Z</time>
      </trkpt>
      <trkpt lat="43.6717" lon="3.29993">
        <ele>366</ele>
        <time>2021-06-05T10:14:31Z</time>
      </trkpt>
      <trkpt lat="43.67168" lon="3.29997">
        <ele>366</ele>
        <time>2021-06-05T10:14:32Z</time>
      </trkpt>
      <trkpt lat="43.67166" lon="3.30002">
        <ele>366</ele>
        <time>2021-06-05T10:14:33Z</time>
      </trkpt>
      <trkpt lat="43.67163" lon="3.30007">
        <ele>366</ele>
        <time>2021-06-05T10:14:34Z</time>
      </trkpt>
      <trkpt lat="43.6716" lon="3.30012">
        <ele>366</ele>
        <time>2021-06-05T10:14:35Z</time>
      </trkpt>
      <trkpt lat="43.67156" lon="3.30017">
        <ele>366</ele>
        <time>2021-06-05T10:14:36Z</time>
      </trkpt>
      <trkpt lat="43.67153" lon="3.30023">
        <ele>366</ele>
        <time>2021-06-05T10:14:36Z</time>
      </trkpt>
      <trkpt lat="43.67149" lon="3.30029">
        <ele>366</ele>
        <time>2021-06-05T10:14:37Z</time>
      </trkpt>
      <trkpt lat="43.67145" lon="3.30034">
        <ele>366</ele>
        <time>2021-06-05T10:14:38Z</time>
      </trkpt>
      <trkpt lat="43.67142" lon="3.3004">
        <ele>366</ele>
        <time>2021-06-05T10:14:39Z</time>
      </trkpt>
      <trkpt lat="43.67138" lon="3.30046">
        <ele>366</ele>
        <time>2021-06-05T10:14:40Z</time>
      </trkpt>
      <trkpt lat="43.67134" lon="3.30052">
        <ele>366</ele>
        <time>2021-06-05T10:14:41Z</time>
      </trkpt>
      <trkpt lat="43.67131" lon="3.30058">
        <ele>366</ele>
        <time>2021-06-05T10:14:42Z</time>
      </trkpt>
      <trkpt lat="43.67128" lon="3.30063">
        <ele>366</ele>
        <time>2021-06-05T10:14:43Z</time>
      </trkpt>
      <trkpt lat="43.67124" lon="3.30069">
        <ele>366</ele>
        <time>2021-06-05T10:14:44Z</time>
      </trkpt>
      <trkpt lat="43.67121" lon="3.30075">
        <ele>366</ele>
        <time>2021-06-05T10:14:45Z</time>
      </trkpt>
      <trkpt lat="43.67117" lon="3.3008">
        <ele>365</ele>
        <time>2021-06-05T10:14:47Z</time>
      </trkpt>
      <trkpt lat="43.67113" lon="3.30084">
        <ele>365</ele>
        <time>2021-06-05T10:14:48Z</time>
      </trkpt>
      <trkpt lat="43.67109" lon="3.30089">
        <ele>365</ele>
        <time>2021-06-05T10:14:49Z</time>
      </trkpt>
      <trkpt lat="43.67105" lon="3.30092">
        <ele>365</ele>
        <time>2021-06-05T10:14:50Z</time>
      </trkpt>
      <trkpt lat="43.67101" lon="3.30095">
        <ele>365</ele>
        <time>2021-06-05T10:14:51Z</time>
      </trkpt>
      <trkpt lat="43.67096" lon="3.30098">
        <ele>365</ele>
        <time>2021-06-05T10:14:51Z</time>
      </trkpt>
      <trkpt lat="43.67091" lon="3.30101">
        <ele>365</ele>
        <time>2021-06-05T10:14:53Z</time>
      </trkpt>
      <trkpt lat="43.67086" lon="3.30104">
        <ele>365</ele>
        <time>2021-06-05T10:14:54Z</time>
      </trkpt>
      <trkpt lat="43.6708" lon="3.30108">
        <ele>365</ele>
        <time>2021-06-05T10:14:55Z</time>
      </trkpt>
      <trkpt lat="43.67075" lon="3.30111">
        <ele>365</ele>
        <time>2021-06-05T10:14:56Z</time>
      </trkpt>
      <trkpt lat="43.6707" lon="3.30114">
        <ele>364</ele>
        <time>2021-06-05T10:14:57Z</time>
      </trkpt>
      <trkpt lat="43.67064" lon="3.30117">
        <ele>364</ele>
        <time>2021-06-05T10:14:58Z</time>
      </trkpt>
      <trkpt lat="43.67058" lon="3.30121">
        <ele>364</ele>
        <time>2021-06-05T10:14:59Z</time>
      </trkpt>
      <trkpt lat="43.67054" lon="3.30125">
        <ele>364</ele>
        <time>2021-06-05T10:15:00Z</time>
      </trkpt>
      <trkpt lat="43.6705" lon="3.3013">
        <ele>364</ele>
        <time>2021-06-05T10:15:01Z</time>
      </trkpt>
      <trkpt lat="43.67046" lon="3.30135">
        <ele>364</ele>
        <time>2021-06-05T10:15:02Z</time>
      </trkpt>
      <trkpt lat="43.67043" lon="3.3014">
        <ele>364</ele>
        <time>2021-06-05T10:15:03Z</time>
      </trkpt>
      <trkpt lat="43.67039" lon="3.30145">
        <ele>364</ele>
        <time>2021-06-05T10:15:04Z</time>
      </trkpt>
      <trkpt lat="43.67035" lon="3.30149">
        <ele>364</ele>
        <time>2021-06-05T10:15:05Z</time>
      </trkpt>
      <trkpt lat="43.67032" lon="3.30153">
        <ele>364</ele>
        <time>2021-06-05T10:15:06Z</time>
      </trkpt>
      <trkpt lat="43.67028" lon="3.30157">
        <ele>363</ele>
        <time>2021-06-05T10:15:07Z</time>
      </trkpt>
      <trkpt lat="43.67026" lon="3.3016">
        <ele>363</ele>
        <time>2021-06-05T10:15:08Z</time>
      </trkpt>
      <trkpt lat="43.67023" lon="3.30163">
        <ele>363</ele>
        <time>2021-06-05T10:15:09Z</time>
      </trkpt>
      <trkpt lat="43.6702" lon="3.30167">
        <ele>363</ele>
        <time>2021-06-05T10:15:10Z</time>
      </trkpt>
      <trkpt lat="43.67017" lon="3.3017">
        <ele>363</ele>
        <time>2021-06-05T10:15:11Z</time>
      </trkpt>
      <trkpt lat="43.67014" lon="3.30172">
        <ele>363</ele>
        <time>2021-06-05T10:15:12Z</time>
      </trkpt>
      <trkpt lat="43.6701" lon="3.30176">
        <ele>363</ele>
        <time>2021-06-05T10:15:13Z</time>
      </trkpt>
      <trkpt lat="43.67008" lon="3.30179">
        <ele>363</ele>
        <time>2021-06-05T10:15:14Z</time>
      </trkpt>
      <trkpt lat="43.67005" lon="3.30183">
        <ele>363</ele>
        <time>2021-06-05T10:15:15Z</time>
      </trkpt>
      <trkpt lat="43.67002" lon="3.30186">
        <ele>363</ele>
        <time>2021-06-05T10:15:16Z</time>
      </trkpt>
      <trkpt lat="43.67" lon="3.30189">
        <ele>362</ele>
        <time>2021-06-05T10:15:17Z</time>
      </trkpt>
      <trkpt lat="43.66997" lon="3.30192">
        <ele>362</ele>
        <time>2021-06-05T10:15:18Z</time>
      </trkpt>
      <trkpt lat="43.66995" lon="3.30196">
        <ele>362</ele>
        <time>2021-06-05T10:15:19Z</time>
      </trkpt>
      <trkpt lat="43.66993" lon="3.30199">
        <ele>362</ele>
        <time>2021-06-05T10:15:20Z</time>
      </trkpt>
      <trkpt lat="43.66991" lon="3.30203">
        <ele>362</ele>
        <time>2021-06-05T10:15:21Z</time>
      </trkpt>
      <trkpt lat="43.66989" lon="3.30206">
        <ele>362</ele>
        <time>2021-06-05T10:15:22Z</time>
      </trkpt>
      <trkpt lat="43.66987" lon="3.30209">
        <ele>362</ele>
        <time>2021-06-05T10:15:23Z</time>
      </trkpt>
      <trkpt lat="43.66985" lon="3.30213">
        <ele>362</ele>
        <time>2021-06-05T10:15:24Z</time>
      </trkpt>
      <trkpt lat="43.66983" lon="3.30216">
        <ele>362</ele>
        <time>2021-06-05T10:15:25Z</time>
      </trkpt>
      <trkpt lat="43.66981" lon="3.3022">
        <ele>362</ele>
        <time>2021-06-05T10:15:26Z</time>
      </trkpt>
      <trkpt lat="43.66979" lon="3.30223">
        <ele>362</ele>
        <time>2021-06-05T10:15:27Z</time>
      </trkpt>
      <trkpt lat="43.66977" lon="3.30227">
        <ele>362</ele>
        <time>2021-06-05T10:15:28Z</time>
      </trkpt>
      <trkpt lat="43.66975" lon="3.3023">
        <ele>362</ele>
        <time>2021-06-05T10:15:29Z</time>
      </trkpt>
      <trkpt lat="43.66973" lon="3.30234">
        <ele>362</ele>
        <time>2021-06-05T10:15:30Z</time>
      </trkpt>
      <trkpt lat="43.66971" lon="3.30238">
        <ele>362</ele>
        <time>2021-06-05T10:15:31Z</time>
      </trkpt>
      <trkpt lat="43.66969" lon="3.30241">
        <ele>362</ele>
        <time>2021-06-05T10:15:32Z</time>
      </trkpt>
      <trkpt lat="43.66967" lon="3.30246">
        <ele>362</ele>
        <time>2021-06-05T10:15:33Z</time>
      </trkpt>
      <trkpt lat="43.66965" lon="3.30249">
        <ele>362</ele>
        <time>2021-06-05T10:15:34Z</time>
      </trkpt>
      <trkpt lat="43.66964" lon="3.30253">
        <ele>362</ele>
        <time>2021-06-05T10:15:35Z</time>
      </trkpt>
      <trkpt lat="43.66962" lon="3.30257">
        <ele>362</ele>
        <time>2021-06-05T10:15:36Z</time>
      </trkpt>
      <trkpt lat="43.6696" lon="3.3026">
        <ele>362</ele>
        <time>2021-06-05T10:15:37Z</time>
      </trkpt>
      <trkpt lat="43.66959" lon="3.30264">
        <ele>362</ele>
        <time>2021-06-05T10:15:38Z</time>
      </trkpt>
      <trkpt lat="43.66958" lon="3.30268">
        <ele>362</ele>
        <time>2021-06-05T10:15:39Z</time>
      </trkpt>
      <trkpt lat="43.66956" lon="3.30272">
        <ele>362</ele>
        <time>2021-06-05T10:15:40Z</time>
      </trkpt>
      <trkpt lat="43.66955" lon="3.30275">
        <ele>362</ele>
        <time>2021-06-05T10:15:41Z</time>
      </trkpt>
      <trkpt lat="43.66953" lon="3.30278">
        <ele>362</ele>
        <time>2021-06-05T10:15:42Z</time>
      </trkpt>
      <trkpt lat="43.66952" lon="3.30282">
        <ele>362</ele>
        <time>2021-06-05T10:15:43Z</time>
      </trkpt>
      <trkpt lat="43.6695" lon="3.30285">
        <ele>362</ele>
        <time>2021-06-05T10:15:44Z</time>
      </trkpt>
      <trkpt lat="43.66949" lon="3.30289">
        <ele>362</ele>
        <time>2021-06-05T10:15:45Z</time>
      </trkpt>
      <trkpt lat="43.66948" lon="3.30293">
        <ele>362</ele>
        <time>2021-06-05T10:15:46Z</time>
      </trkpt>
      <trkpt lat="43.66946" lon="3.30297">
        <ele>363</ele>
        <time>2021-06-05T10:15:47Z</time>
      </trkpt>
      <trkpt lat="43.66945" lon="3.303">
        <ele>363</ele>
        <time>2021-06-05T10:15:48Z</time>
      </trkpt>
      <trkpt lat="43.66944" lon="3.30304">
        <ele>363</ele>
        <time>2021-06-05T10:15:49Z</time>
      </trkpt>
      <trkpt lat="43.66944" lon="3.30309">
        <ele>363</ele>
        <time>2021-06-05T10:15:50Z</time>
      </trkpt>
      <trkpt lat="43.66943" lon="3.30313">
        <ele>363</ele>
        <time>2021-06-05T10:15:51Z</time>
      </trkpt>
      <trkpt lat="43.66943" lon="3.30317">
        <ele>363</ele>
        <time>2021-06-05T10:15:52Z</time>
      </trkpt>
      <trkpt lat="43.66942" lon="3.30322">
        <ele>363</ele>
        <time>2021-06-05T10:15:53Z</time>
      </trkpt>
      <trkpt lat="43.66942" lon="3.30326">
        <ele>363</ele>
        <time>2021-06-05T10:15:54Z</time>
      </trkpt>
      <trkpt lat="43.66942" lon="3.30331">
        <ele>363</ele>
        <time>2021-06-05T10:15:55Z</time>
      </trkpt>
      <trkpt lat="43.66942" lon="3.30336">
        <ele>363</ele>
        <time>2021-06-05T10:15:56Z</time>
      </trkpt>
      <trkpt lat="43.66941" lon="3.3034">
        <ele>363</ele>
        <time>2021-06-05T10:15:57Z</time>
      </trkpt>
      <trkpt lat="43.66941" lon="3.30345">
        <ele>363</ele>
        <time>2021-06-05T10:15:58Z</time>
      </trkpt>
      <trkpt lat="43.6694" lon="3.30349">
        <ele>363</ele>
        <time>2021-06-05T10:15:59Z</time>
      </trkpt>
      <trkpt lat="43.66939" lon="3.30354">
        <ele>363</ele>
        <time>2021-06-05T10:16:00Z</time>
      </trkpt>
      <trkpt lat="43.66938" lon="3.30358">
        <ele>363</ele>
        <time>2021-06-05T10:16:01Z</time>
      </trkpt>
      <trkpt lat="43.66937" lon="3.30362">
        <ele>363</ele>
        <time>2021-06-05T10:16:02Z</time>
      </trkpt>
      <trkpt lat="43.66935" lon="3.30366">
        <ele>363</ele>
        <time>2021-06-05T10:16:03Z</time>
      </trkpt>
      <trkpt lat="43.66933" lon="3.30369">
        <ele>363</ele>
        <time>2021-06-05T10:16:04Z</time>
      </trkpt>
      <trkpt lat="43.66931" lon="3.30372">
        <ele>363</ele>
        <time>2021-06-05T10:16:05Z</time>
      </trkpt>
      <trkpt lat="43.66929" lon="3.30375">
        <ele>363</ele>
        <time>2021-06-05T10:16:06Z</time>
      </trkpt>
      <trkpt lat="43.66926" lon="3.30378">
        <ele>363</ele>
        <time>2021-06-05T10:16:07Z</time>
      </trkpt>
      <trkpt lat="43.66924" lon="3.3038">
        <ele>363</ele>
        <time>2021-06-05T10:16:08Z</time>
      </trkpt>
      <trkpt lat="43.66922" lon="3.30383">
        <ele>363</ele>
        <time>2021-06-05T10:16:09Z</time>
      </trkpt>
      <trkpt lat="43.6692" lon="3.30385">
        <ele>363</ele>
        <time>2021-06-05T10:16:10Z</time>
      </trkpt>
      <trkpt lat="43.66917" lon="3.30388">
        <ele>363</ele>
        <time>2021-06-05T10:16:11Z</time>
      </trkpt>
      <trkpt lat="43.66915" lon="3.3039">
        <ele>363</ele>
        <time>2021-06-05T10:16:12Z</time>
      </trkpt>
      <trkpt lat="43.66912" lon="3.30393">
        <ele>363</ele>
        <time>2021-06-05T10:16:13Z</time>
      </trkpt>
      <trkpt lat="43.6691" lon="3.30395">
        <ele>363</ele>
        <time>2021-06-05T10:16:14Z</time>
      </trkpt>
      <trkpt lat="43.66909" lon="3.30397">
        <ele>363</ele>
        <time>2021-06-05T10:16:15Z</time>
      </trkpt>
      <trkpt lat="43.66907" lon="3.30399">
        <ele>363</ele>
        <time>2021-06-05T10:16:16Z</time>
      </trkpt>
      <trkpt lat="43.66906" lon="3.30401">
        <ele>364</ele>
        <time>2021-06-05T10:16:17Z</time>
      </trkpt>
      <trkpt lat="43.66904" lon="3.30403">
        <ele>364</ele>
        <time>2021-06-05T10:16:18Z</time>
      </trkpt>
      <trkpt lat="43.66904" lon="3.30406">
        <ele>364</ele>
        <time>2021-06-05T10:16:19Z</time>
      </trkpt>
      <trkpt lat="43.66903" lon="3.30409">
        <ele>364</ele>
        <time>2021-06-05T10:16:20Z</time>
      </trkpt>
      <trkpt lat="43.66902" lon="3.30413">
        <ele>364</ele>
        <time>2021-06-05T10:16:21Z</time>
      </trkpt>
      <trkpt lat="43.66901" lon="3.30417">
        <ele>364</ele>
        <time>2021-06-05T10:16:22Z</time>
      </trkpt>
      <trkpt lat="43.66901" lon="3.30421">
        <ele>364</ele>
        <time>2021-06-05T10:16:23Z</time>
      </trkpt>
      <trkpt lat="43.669" lon="3.30425">
        <ele>364</ele>
        <time>2021-06-05T10:16:24Z</time>
      </trkpt>
      <trkpt lat="43.66899" lon="3.3043">
        <ele>364</ele>
        <time>2021-06-05T10:16:25Z</time>
      </trkpt>
      <trkpt lat="43.66897" lon="3.30435">
        <ele>364</ele>
        <time>2021-06-05T10:16:26Z</time>
      </trkpt>
      <trkpt lat="43.66895" lon="3.30439">
        <ele>364</ele>
        <time>2021-06-05T10:16:27Z</time>
      </trkpt>
      <trkpt lat="43.66894" lon="3.30444">
        <ele>364</ele>
        <time>2021-06-05T10:16:28Z</time>
      </trkpt>
      <trkpt lat="43.66892" lon="3.30448">
        <ele>364</ele>
        <time>2021-06-05T10:16:29Z</time>
      </trkpt>
      <trkpt lat="43.66891" lon="3.30453">
        <ele>364</ele>
        <time>2021-06-05T10:16:30Z</time>
      </trkpt>
      <trkpt lat="43.6689" lon="3.30458">
        <ele>364</ele>
        <time>2021-06-05T10:16:31Z</time>
      </trkpt>
      <trkpt lat="43.66888" lon="3.30464">
        <ele>364</ele>
        <time>2021-06-05T10:16:32Z</time>
      </trkpt>
      <trkpt lat="43.66887" lon="3.30469">
        <ele>364</ele>
        <time>2021-06-05T10:16:33Z</time>
      </trkpt>
      <trkpt lat="43.66884" lon="3.30475">
        <ele>364</ele>
        <time>2021-06-05T10:16:34Z</time>
      </trkpt>
      <trkpt lat="43.66883" lon="3.30482">
        <ele>364</ele>
        <time>2021-06-05T10:16:35Z</time>
      </trkpt>
      <trkpt lat="43.66881" lon="3.30489">
        <ele>364</ele>
        <time>2021-06-05T10:16:36Z</time>
      </trkpt>
      <trkpt lat="43.66877" lon="3.30495">
        <ele>363</ele>
        <time>2021-06-05T10:16:37Z</time>
      </trkpt>
      <trkpt lat="43.66875" lon="3.30502">
        <ele>363</ele>
        <time>2021-06-05T10:16:38Z</time>
      </trkpt>
      <trkpt lat="43.66873" lon="3.30507">
        <ele>363</ele>
        <time>2021-06-05T10:16:39Z</time>
      </trkpt>
      <trkpt lat="43.6687" lon="3.30512">
        <ele>363</ele>
        <time>2021-06-05T10:16:40Z</time>
      </trkpt>
      <trkpt lat="43.66869" lon="3.30518">
        <ele>363</ele>
        <time>2021-06-05T10:16:41Z</time>
      </trkpt>
      <trkpt lat="43.66867" lon="3.30523">
        <ele>363</ele>
        <time>2021-06-05T10:16:42Z</time>
      </trkpt>
      <trkpt lat="43.66865" lon="3.30528">
        <ele>363</ele>
        <time>2021-06-05T10:16:43Z</time>
      </trkpt>
      <trkpt lat="43.66863" lon="3.30533">
        <ele>363</ele>
        <time>2021-06-05T10:16:44Z</time>
      </trkpt>
      <trkpt lat="43.66862" lon="3.30537">
        <ele>363</ele>
        <time>2021-06-05T10:16:45Z</time>
      </trkpt>
      <trkpt lat="43.6686" lon="3.30541">
        <ele>363</ele>
        <time>2021-06-05T10:16:46Z</time>
      </trkpt>
      <trkpt lat="43.66858" lon="3.30545">
        <ele>362</ele>
        <time>2021-06-05T10:16:47Z</time>
      </trkpt>
      <trkpt lat="43.66856" lon="3.30549">
        <ele>362</ele>
        <time>2021-06-05T10:16:48Z</time>
      </trkpt>
      <trkpt lat="43.66854" lon="3.30553">
        <ele>362</ele>
        <time>2021-06-05T10:16:49Z</time>
      </trkpt>
      <trkpt lat="43.66852" lon="3.30556">
        <ele>362</ele>
        <time>2021-06-05T10:16:50Z</time>
      </trkpt>
      <trkpt lat="43.66849" lon="3.3056">
        <ele>362</ele>
        <time>2021-06-05T10:16:51Z</time>
      </trkpt>
      <trkpt lat="43.66846" lon="3.30563">
        <ele>362</ele>
        <time>2021-06-05T10:16:52Z</time>
      </trkpt>
      <trkpt lat="43.66845" lon="3.30566">
        <ele>362</ele>
        <time>2021-06-05T10:16:53Z</time>
      </trkpt>
      <trkpt lat="43.66843" lon="3.30568">
        <ele>362</ele>
        <time>2021-06-05T10:16:54Z</time>
      </trkpt>
      <trkpt lat="43.66841" lon="3.30571">
        <ele>362</ele>
        <time>2021-06-05T10:16:55Z</time>
      </trkpt>
      <trkpt lat="43.66839" lon="3.30573">
        <ele>362</ele>
        <time>2021-06-05T10:16:56Z</time>
      </trkpt>
      <trkpt lat="43.66838" lon="3.30575">
        <ele>362</ele>
        <time>2021-06-05T10:16:57Z</time>
      </trkpt>
      <trkpt lat="43.66837" lon="3.30579">
        <ele>362</ele>
        <time>2021-06-05T10:16:58Z</time>
      </trkpt>
      <trkpt lat="43.66835" lon="3.30582">
        <ele>362</ele>
        <time>2021-06-05T10:16:59Z</time>
      </trkpt>
      <trkpt lat="43.66834" lon="3.30585">
        <ele>362</ele>
        <time>2021-06-05T10:17:00Z</time>
      </trkpt>
      <trkpt lat="43.66832" lon="3.30588">
        <ele>362</ele>
        <time>2021-06-05T10:17:01Z</time>
      </trkpt>
      <trkpt lat="43.66831" lon="3.30591">
        <ele>362</ele>
        <time>2021-06-05T10:17:02Z</time>
      </trkpt>
      <trkpt lat="43.6683" lon="3.30595">
        <ele>362</ele>
        <time>2021-06-05T10:17:03Z</time>
      </trkpt>
      <trkpt lat="43.6683" lon="3.30598">
        <ele>362</ele>
        <time>2021-06-05T10:17:04Z</time>
      </trkpt>
      <trkpt lat="43.66831" lon="3.30603">
        <ele>362</ele>
        <time>2021-06-05T10:17:05Z</time>
      </trkpt>
      <trkpt lat="43.66831" lon="3.30607">
        <ele>362</ele>
        <time>2021-06-05T10:17:06Z</time>
      </trkpt>
      <trkpt lat="43.66831" lon="3.30611">
        <ele>363</ele>
        <time>2021-06-05T10:17:07Z</time>
      </trkpt>
      <trkpt lat="43.6683" lon="3.30615">
        <ele>363</ele>
        <time>2021-06-05T10:17:08Z</time>
      </trkpt>
      <trkpt lat="43.6683" lon="3.30618">
        <ele>363</ele>
        <time>2021-06-05T10:17:09Z</time>
      </trkpt>
      <trkpt lat="43.66829" lon="3.30622">
        <ele>363</ele>
        <time>2021-06-05T10:17:10Z</time>
      </trkpt>
      <trkpt lat="43.66829" lon="3.30624">
        <ele>363</ele>
        <time>2021-06-05T10:17:11Z</time>
      </trkpt>
      <trkpt lat="43.66829" lon="3.30627">
        <ele>363</ele>
        <time>2021-06-05T10:17:12Z</time>
      </trkpt>
      <trkpt lat="43.66828" lon="3.30629">
        <ele>363</ele>
        <time>2021-06-05T10:17:13Z</time>
      </trkpt>
      <trkpt lat="43.66828" lon="3.30634">
        <ele>363</ele>
        <time>2021-06-05T10:17:15Z</time>
      </trkpt>
      <trkpt lat="43.66827" lon="3.30638">
        <ele>364</ele>
        <time>2021-06-05T10:17:17Z</time>
      </trkpt>
      <trkpt lat="43.66826" lon="3.30641">
        <ele>364</ele>
        <time>2021-06-05T10:17:19Z</time>
      </trkpt>
      <trkpt lat="43.66824" lon="3.30644">
        <ele>364</ele>
        <time>2021-06-05T10:17:21Z</time>
      </trkpt>
      <trkpt lat="43.66822" lon="3.30647">
        <ele>364</ele>
        <time>2021-06-05T10:17:23Z</time>
      </trkpt>
      <trkpt lat="43.66821" lon="3.3065">
        <ele>364</ele>
        <time>2021-06-05T10:17:25Z</time>
      </trkpt>
      <trkpt lat="43.66819" lon="3.30653">
        <ele>366</ele>
        <time>2021-06-05T10:17:27Z</time>
      </trkpt>
      <trkpt lat="43.66816" lon="3.30656">
        <ele>366</ele>
        <time>2021-06-05T10:17:29Z</time>
      </trkpt>
      <trkpt lat="43.66815" lon="3.30658">
        <ele>366</ele>
        <time>2021-06-05T10:17:31Z</time>
      </trkpt>
      <trkpt lat="43.66812" lon="3.3066">
        <ele>366</ele>
        <time>2021-06-05T10:17:33Z</time>
      </trkpt>
      <trkpt lat="43.6681" lon="3.30662">
        <ele>366</ele>
        <time>2021-06-05T10:17:35Z</time>
      </trkpt>
      <trkpt lat="43.66808" lon="3.30664">
        <ele>368</ele>
        <time>2021-06-05T10:17:37Z</time>
      </trkpt>
      <trkpt lat="43.66805" lon="3.30665">
        <ele>368</ele>
        <time>2021-06-05T10:17:39Z</time>
      </trkpt>
      <trkpt lat="43.66803" lon="3.30666">
        <ele>368</ele>
        <time>2021-06-05T10:17:41Z</time>
      </trkpt>
      <trkpt lat="43.668" lon="3.30668">
        <ele>368</ele>
        <time>2021-06-05T10:17:43Z</time>
      </trkpt>
      <trkpt lat="43.66797" lon="3.30669">
        <ele>368</ele>
        <time>2021-06-05T10:17:45Z</time>
      </trkpt>
      <trkpt lat="43.66794" lon="3.30669">
        <ele>369</ele>
        <time>2021-06-05T10:17:46Z</time>
      </trkpt>
      <trkpt lat="43.66792" lon="3.30669">
        <ele>369</ele>
        <time>2021-06-05T10:17:47Z</time>
      </trkpt>
      <trkpt lat="43.6679" lon="3.3067">
        <ele>369</ele>
        <time>2021-06-05T10:17:48Z</time>
      </trkpt>
      <trkpt lat="43.66788" lon="3.3067">
        <ele>369</ele>
        <time>2021-06-05T10:17:49Z</time>
      </trkpt>
      <trkpt lat="43.66787" lon="3.3067">
        <ele>369</ele>
        <time>2021-06-05T10:17:50Z</time>
      </trkpt>
      <trkpt lat="43.66785" lon="3.3067">
        <ele>369</ele>
        <time>2021-06-05T10:17:51Z</time>
      </trkpt>
      <trkpt lat="43.66781" lon="3.30669">
        <ele>369</ele>
        <time>2021-06-05T10:17:53Z</time>
      </trkpt>
      <trkpt lat="43.66778" lon="3.30668">
        <ele>369</ele>
        <time>2021-06-05T10:17:55Z</time>
      </trkpt>
      <trkpt lat="43.66776" lon="3.30668">
        <ele>370</ele>
        <time>2021-06-05T10:17:57Z</time>
      </trkpt>
      <trkpt lat="43.66774" lon="3.30668">
        <ele>370</ele>
        <time>2021-06-05T10:17:58Z</time>
      </trkpt>
      <trkpt lat="43.66772" lon="3.30668">
        <ele>370</ele>
        <time>2021-06-05T10:17:59Z</time>
      </trkpt>
      <trkpt lat="43.6677" lon="3.30668">
        <ele>370</ele>
        <time>2021-06-05T10:18:00Z</time>
      </trkpt>
      <trkpt lat="43.66769" lon="3.30668">
        <ele>370</ele>
        <time>2021-06-05T10:18:01Z</time>
      </trkpt>
      <trkpt lat="43.66766" lon="3.30668">
        <ele>370</ele>
        <time>2021-06-05T10:18:02Z</time>
      </trkpt>
      <trkpt lat="43.66765" lon="3.30668">
        <ele>370</ele>
        <time>2021-06-05T10:18:03Z</time>
      </trkpt>
      <trkpt lat="43.66763" lon="3.30668">
        <ele>370</ele>
        <time>2021-06-05T10:18:04Z</time>
      </trkpt>
      <trkpt lat="43.66761" lon="3.30668">
        <ele>370</ele>
        <time>2021-06-05T10:18:05Z</time>
      </trkpt>
      <trkpt lat="43.66759" lon="3.30668">
        <ele>370</ele>
        <time>2021-06-05T10:18:06Z</time>
      </trkpt>
      <trkpt lat="43.66757" lon="3.30668">
        <ele>371</ele>
        <time>2021-06-05T10:18:07Z</time>
      </trkpt>
      <trkpt lat="43.66755" lon="3.30668">
        <ele>371</ele>
        <time>2021-06-05T10:18:08Z</time>
      </trkpt>
      <trkpt lat="43.66754" lon="3.30668">
        <ele>371</ele>
        <time>2021-06-05T10:18:09Z</time>
      </trkpt>
      <trkpt lat="43.6675" lon="3.30669">
        <ele>371</ele>
        <time>2021-06-05T10:18:11Z</time>
      </trkpt>
      <trkpt lat="43.66746" lon="3.3067">
        <ele>371</ele>
        <time>2021-06-05T10:18:13Z</time>
      </trkpt>
      <trkpt lat="43.66744" lon="3.3067">
        <ele>371</ele>
        <time>2021-06-05T10:18:14Z</time>
      </trkpt>
      <trkpt lat="43.66742" lon="3.30671">
        <ele>371</ele>
        <time>2021-06-05T10:18:15Z</time>
      </trkpt>
      <trkpt lat="43.66741" lon="3.30672">
        <ele>371</ele>
        <time>2021-06-05T10:18:16Z</time>
      </trkpt>
      <trkpt lat="43.66739" lon="3.30672">
        <ele>372</ele>
        <time>2021-06-05T10:18:17Z</time>
      </trkpt>
      <trkpt lat="43.66736" lon="3.30673">
        <ele>372</ele>
        <time>2021-06-05T10:18:19Z</time>
      </trkpt>
      <trkpt lat="43.66734" lon="3.30673">
        <ele>372</ele>
        <time>2021-06-05T10:18:20Z</time>
      </trkpt>
      <trkpt lat="43.66732" lon="3.30673">
        <ele>372</ele>
        <time>2021-06-05T10:18:21Z</time>
      </trkpt>
      <trkpt lat="43.66729" lon="3.30673">
        <ele>372</ele>
        <time>2021-06-05T10:18:22Z</time>
      </trkpt>
      <trkpt lat="43.66727" lon="3.30673">
        <ele>372</ele>
        <time>2021-06-05T10:18:23Z</time>
      </trkpt>
      <trkpt lat="43.66725" lon="3.30673">
        <ele>372</ele>
        <time>2021-06-05T10:18:24Z</time>
      </trkpt>
      <trkpt lat="43.66724" lon="3.30673">
        <ele>372</ele>
        <time>2021-06-05T10:18:25Z</time>
      </trkpt>
      <trkpt lat="43.66722" lon="3.30673">
        <ele>372</ele>
        <time>2021-06-05T10:18:26Z</time>
      </trkpt>
      <trkpt lat="43.6672" lon="3.30674">
        <ele>374</ele>
        <time>2021-06-05T10:18:27Z</time>
      </trkpt>
      <trkpt lat="43.66718" lon="3.30674">
        <ele>374</ele>
        <time>2021-06-05T10:18:28Z</time>
      </trkpt>
      <trkpt lat="43.66716" lon="3.30674">
        <ele>374</ele>
        <time>2021-06-05T10:18:29Z</time>
      </trkpt>
      <trkpt lat="43.66714" lon="3.30675">
        <ele>374</ele>
        <time>2021-06-05T10:18:30Z</time>
      </trkpt>
      <trkpt lat="43.66712" lon="3.30675">
        <ele>374</ele>
        <time>2021-06-05T10:18:31Z</time>
      </trkpt>
      <trkpt lat="43.6671" lon="3.30676">
        <ele>374</ele>
        <time>2021-06-05T10:18:32Z</time>
      </trkpt>
      <trkpt lat="43.66709" lon="3.30676">
        <ele>374</ele>
        <time>2021-06-05T10:18:33Z</time>
      </trkpt>
      <trkpt lat="43.66706" lon="3.30677">
        <ele>374</ele>
        <time>2021-06-05T10:18:34Z</time>
      </trkpt>
      <trkpt lat="43.66705" lon="3.30677">
        <ele>374</ele>
        <time>2021-06-05T10:18:35Z</time>
      </trkpt>
      <trkpt lat="43.66703" lon="3.30678">
        <ele>374</ele>
        <time>2021-06-05T10:18:36Z</time>
      </trkpt>
      <trkpt lat="43.66701" lon="3.30679">
        <ele>375</ele>
        <time>2021-06-05T10:18:37Z</time>
      </trkpt>
      <trkpt lat="43.66698" lon="3.30681">
        <ele>375</ele>
        <time>2021-06-05T10:18:39Z</time>
      </trkpt>
      <trkpt lat="43.66694" lon="3.30683">
        <ele>375</ele>
        <time>2021-06-05T10:18:41Z</time>
      </trkpt>
      <trkpt lat="43.66693" lon="3.30685">
        <ele>375</ele>
        <time>2021-06-05T10:18:43Z</time>
      </trkpt>
      <trkpt lat="43.6669" lon="3.30688">
        <ele>375</ele>
        <time>2021-06-05T10:18:45Z</time>
      </trkpt>
      <trkpt lat="43.66688" lon="3.3069">
        <ele>376</ele>
        <time>2021-06-05T10:18:47Z</time>
      </trkpt>
      <trkpt lat="43.66686" lon="3.30692">
        <ele>376</ele>
        <time>2021-06-05T10:18:49Z</time>
      </trkpt>
      <trkpt lat="43.66683" lon="3.30694">
        <ele>376</ele>
        <time>2021-06-05T10:18:51Z</time>
      </trkpt>
      <trkpt lat="43.6668" lon="3.30696">
        <ele>376</ele>
        <time>2021-06-05T10:18:53Z</time>
      </trkpt>
      <trkpt lat="43.66678" lon="3.30698">
        <ele>376</ele>
        <time>2021-06-05T10:18:55Z</time>
      </trkpt>
      <trkpt lat="43.66676" lon="3.307">
        <ele>377</ele>
        <time>2021-06-05T10:18:57Z</time>
      </trkpt>
      <trkpt lat="43.66674" lon="3.30703">
        <ele>377</ele>
        <time>2021-06-05T10:18:59Z</time>
      </trkpt>
      <trkpt lat="43.66672" lon="3.30705">
        <ele>377</ele>
        <time>2021-06-05T10:19:01Z</time>
      </trkpt>
      <trkpt lat="43.66669" lon="3.30707">
        <ele>377</ele>
        <time>2021-06-05T10:19:03Z</time>
      </trkpt>
      <trkpt lat="43.66669" lon="3.3071">
        <ele>377</ele>
        <time>2021-06-05T10:19:05Z</time>
      </trkpt>
      <trkpt lat="43.66666" lon="3.30713">
        <ele>379</ele>
        <time>2021-06-05T10:19:06Z</time>
      </trkpt>
      <trkpt lat="43.66665" lon="3.30716">
        <ele>379</ele>
        <time>2021-06-05T10:19:08Z</time>
      </trkpt>
      <trkpt lat="43.66664" lon="3.30719">
        <ele>379</ele>
        <time>2021-06-05T10:19:10Z</time>
      </trkpt>
      <trkpt lat="43.66663" lon="3.30723">
        <ele>379</ele>
        <time>2021-06-05T10:19:12Z</time>
      </trkpt>
      <trkpt lat="43.66663" lon="3.30726">
        <ele>379</ele>
        <time>2021-06-05T10:19:14Z</time>
      </trkpt>
      <trkpt lat="43.66663" lon="3.30731">
        <ele>381</ele>
        <time>2021-06-05T10:19:17Z</time>
      </trkpt>
      <trkpt lat="43.66663" lon="3.30734">
        <ele>381</ele>
        <time>2021-06-05T10:19:19Z</time>
      </trkpt>
      <trkpt lat="43.66664" lon="3.30738">
        <ele>381</ele>
        <time>2021-06-05T10:19:21Z</time>
      </trkpt>
      <trkpt lat="43.66663" lon="3.30742">
        <ele>381</ele>
        <time>2021-06-05T10:19:23Z</time>
      </trkpt>
      <trkpt lat="43.66663" lon="3.30746">
        <ele>381</ele>
        <time>2021-06-05T10:19:25Z</time>
      </trkpt>
      <trkpt lat="43.66663" lon="3.30749">
        <ele>382</ele>
        <time>2021-06-05T10:19:27Z</time>
      </trkpt>
      <trkpt lat="43.66662" lon="3.30753">
        <ele>382</ele>
        <time>2021-06-05T10:19:29Z</time>
      </trkpt>
      <trkpt lat="43.66661" lon="3.30755">
        <ele>382</ele>
        <time>2021-06-05T10:19:31Z</time>
      </trkpt>
      <trkpt lat="43.66659" lon="3.30758">
        <ele>382</ele>
        <time>2021-06-05T10:19:34Z</time>
      </trkpt>
      <trkpt lat="43.66659" lon="3.30762">
        <ele>384</ele>
        <time>2021-06-05T10:19:36Z</time>
      </trkpt>
      <trkpt lat="43.6666" lon="3.30765">
        <ele>384</ele>
        <time>2021-06-05T10:19:38Z</time>
      </trkpt>
      <trkpt lat="43.6666" lon="3.30768">
        <ele>384</ele>
        <time>2021-06-05T10:19:41Z</time>
      </trkpt>
      <trkpt lat="43.6666" lon="3.30771">
        <ele>384</ele>
        <time>2021-06-05T10:19:43Z</time>
      </trkpt>
      <trkpt lat="43.66659" lon="3.30774">
        <ele>384</ele>
        <time>2021-06-05T10:19:45Z</time>
      </trkpt>
      <trkpt lat="43.66659" lon="3.30778">
        <ele>385</ele>
        <time>2021-06-05T10:19:46Z</time>
      </trkpt>
      <trkpt lat="43.66658" lon="3.30781">
        <ele>385</ele>
        <time>2021-06-05T10:19:48Z</time>
      </trkpt>
      <trkpt lat="43.66657" lon="3.30784">
        <ele>385</ele>
        <time>2021-06-05T10:19:50Z</time>
      </trkpt>
      <trkpt lat="43.66656" lon="3.30788">
        <ele>385</ele>
        <time>2021-06-05T10:19:52Z</time>
      </trkpt>
      <trkpt lat="43.66656" lon="3.30791">
        <ele>385</ele>
        <time>2021-06-05T10:19:54Z</time>
      </trkpt>
      <trkpt lat="43.66655" lon="3.30795">
        <ele>386</ele>
        <time>2021-06-05T10:19:57Z</time>
      </trkpt>
      <trkpt lat="43.66654" lon="3.30798">
        <ele>386</ele>
        <time>2021-06-05T10:19:59Z</time>
      </trkpt>
      <trkpt lat="43.66654" lon="3.30802">
        <ele>386</ele>
        <time>2021-06-05T10:20:01Z</time>
      </trkpt>
      <trkpt lat="43.66654" lon="3.30805">
        <ele>386</ele>
        <time>2021-06-05T10:20:03Z</time>
      </trkpt>
      <trkpt lat="43.66654" lon="3.30809">
        <ele>386</ele>
        <time>2021-06-05T10:20:05Z</time>
      </trkpt>
      <trkpt lat="43.66654" lon="3.30813">
        <ele>388</ele>
        <time>2021-06-05T10:20:07Z</time>
      </trkpt>
      <trkpt lat="43.66654" lon="3.30816">
        <ele>388</ele>
        <time>2021-06-05T10:20:09Z</time>
      </trkpt>
      <trkpt lat="43.66654" lon="3.3082">
        <ele>388</ele>
        <time>2021-06-05T10:20:11Z</time>
      </trkpt>
      <trkpt lat="43.66654" lon="3.30824">
        <ele>388</ele>
        <time>2021-06-05T10:20:13Z</time>
      </trkpt>
      <trkpt lat="43.66654" lon="3.30827">
        <ele>388</ele>
        <time>2021-06-05T10:20:15Z</time>
      </trkpt>
      <trkpt lat="43.66654" lon="3.30831">
        <ele>389</ele>
        <time>2021-06-05T10:20:17Z</time>
      </trkpt>
      <trkpt lat="43.66654" lon="3.30834">
        <ele>389</ele>
        <time>2021-06-05T10:20:19Z</time>
      </trkpt>
      <trkpt lat="43.66654" lon="3.30838">
        <ele>389</ele>
        <time>2021-06-05T10:20:21Z</time>
      </trkpt>
      <trkpt lat="43.66654" lon="3.30841">
        <ele>389</ele>
        <time>2021-06-05T10:20:23Z</time>
      </trkpt>
      <trkpt lat="43.66656" lon="3.30844">
        <ele>389</ele>
        <time>2021-06-05T10:20:25Z</time>
      </trkpt>
      <trkpt lat="43.66658" lon="3.30846">
        <ele>389</ele>
        <time>2021-06-05T10:20:27Z</time>
      </trkpt>
      <trkpt lat="43.6666" lon="3.30849">
        <ele>389</ele>
        <time>2021-06-05T10:20:28Z</time>
      </trkpt>
      <trkpt lat="43.66662" lon="3.30851">
        <ele>389</ele>
        <time>2021-06-05T10:20:30Z</time>
      </trkpt>
      <trkpt lat="43.66664" lon="3.30854">
        <ele>389</ele>
        <time>2021-06-05T10:20:32Z</time>
      </trkpt>
      <trkpt lat="43.66666" lon="3.30856">
        <ele>389</ele>
        <time>2021-06-05T10:20:34Z</time>
      </trkpt>
      <trkpt lat="43.66668" lon="3.30858">
        <ele>390</ele>
        <time>2021-06-05T10:20:37Z</time>
      </trkpt>
      <trkpt lat="43.6667" lon="3.3086">
        <ele>390</ele>
        <time>2021-06-05T10:20:39Z</time>
      </trkpt>
      <trkpt lat="43.66672" lon="3.30862">
        <ele>390</ele>
        <time>2021-06-05T10:20:41Z</time>
      </trkpt>
      <trkpt lat="43.66674" lon="3.30865">
        <ele>390</ele>
        <time>2021-06-05T10:20:43Z</time>
      </trkpt>
      <trkpt lat="43.66675" lon="3.30868">
        <ele>390</ele>
        <time>2021-06-05T10:20:45Z</time>
      </trkpt>
      <trkpt lat="43.66677" lon="3.30872">
        <ele>391</ele>
        <time>2021-06-05T10:20:47Z</time>
      </trkpt>
      <trkpt lat="43.66678" lon="3.30876">
        <ele>391</ele>
        <time>2021-06-05T10:20:49Z</time>
      </trkpt>
      <trkpt lat="43.66679" lon="3.30881">
        <ele>391</ele>
        <time>2021-06-05T10:20:51Z</time>
      </trkpt>
      <trkpt lat="43.6668" lon="3.30883">
        <ele>391</ele>
        <time>2021-06-05T10:20:52Z</time>
      </trkpt>
      <trkpt lat="43.6668" lon="3.30886">
        <ele>391</ele>
        <time>2021-06-05T10:20:53Z</time>
      </trkpt>
      <trkpt lat="43.66681" lon="3.30888">
        <ele>391</ele>
        <time>2021-06-05T10:20:54Z</time>
      </trkpt>
      <trkpt lat="43.66682" lon="3.30891">
        <ele>391</ele>
        <time>2021-06-05T10:20:55Z</time>
      </trkpt>
      <trkpt lat="43.66683" lon="3.30894">
        <ele>391</ele>
        <time>2021-06-05T10:20:56Z</time>
      </trkpt>
      <trkpt lat="43.66684" lon="3.30897">
        <ele>392</ele>
        <time>2021-06-05T10:20:56Z</time>
      </trkpt>
      <trkpt lat="43.66685" lon="3.30901">
        <ele>392</ele>
        <time>2021-06-05T10:20:57Z</time>
      </trkpt>
      <trkpt lat="43.66686" lon="3.30904">
        <ele>392</ele>
        <time>2021-06-05T10:20:58Z</time>
      </trkpt>
      <trkpt lat="43.66688" lon="3.30907">
        <ele>392</ele>
        <time>2021-06-05T10:20:59Z</time>
      </trkpt>
      <trkpt lat="43.6669" lon="3.3091">
        <ele>392</ele>
        <time>2021-06-05T10:21:00Z</time>
      </trkpt>
      <trkpt lat="43.66691" lon="3.30913">
        <ele>392</ele>
        <time>2021-06-05T10:21:01Z</time>
      </trkpt>
      <trkpt lat="43.66693" lon="3.30916">
        <ele>392</ele>
        <time>2021-06-05T10:21:02Z</time>
      </trkpt>
      <trkpt lat="43.66694" lon="3.30919">
        <ele>392</ele>
        <time>2021-06-05T10:21:03Z</time>
      </trkpt>
      <trkpt lat="43.66696" lon="3.30922">
        <ele>392</ele>
        <time>2021-06-05T10:21:04Z</time>
      </trkpt>
      <trkpt lat="43.66698" lon="3.30925">
        <ele>392</ele>
        <time>2021-06-05T10:21:05Z</time>
      </trkpt>
      <trkpt lat="43.667" lon="3.30928">
        <ele>392</ele>
        <time>2021-06-05T10:21:06Z</time>
      </trkpt>
      <trkpt lat="43.66701" lon="3.3093">
        <ele>392</ele>
        <time>2021-06-05T10:21:07Z</time>
      </trkpt>
      <trkpt lat="43.66703" lon="3.30933">
        <ele>392</ele>
        <time>2021-06-05T10:21:08Z</time>
      </trkpt>
      <trkpt lat="43.66704" lon="3.30936">
        <ele>392</ele>
        <time>2021-06-05T10:21:09Z</time>
      </trkpt>
      <trkpt lat="43.66706" lon="3.30938">
        <ele>392</ele>
        <time>2021-06-05T10:21:10Z</time>
      </trkpt>
      <trkpt lat="43.66708" lon="3.3094">
        <ele>392</ele>
        <time>2021-06-05T10:21:11Z</time>
      </trkpt>
      <trkpt lat="43.6671" lon="3.30943">
        <ele>392</ele>
        <time>2021-06-05T10:21:12Z</time>
      </trkpt>
      <trkpt lat="43.66711" lon="3.30945">
        <ele>392</ele>
        <time>2021-06-05T10:21:14Z</time>
      </trkpt>
      <trkpt lat="43.66713" lon="3.30947">
        <ele>392</ele>
        <time>2021-06-05T10:21:15Z</time>
      </trkpt>
      <trkpt lat="43.66714" lon="3.30949">
        <ele>392</ele>
        <time>2021-06-05T10:21:16Z</time>
      </trkpt>
      <trkpt lat="43.66716" lon="3.30952">
        <ele>393</ele>
        <time>2021-06-05T10:21:17Z</time>
      </trkpt>
      <trkpt lat="43.66718" lon="3.30954">
        <ele>393</ele>
        <time>2021-06-05T10:21:18Z</time>
      </trkpt>
      <trkpt lat="43.66719" lon="3.30957">
        <ele>393</ele>
        <time>2021-06-05T10:21:19Z</time>
      </trkpt>
      <trkpt lat="43.6672" lon="3.30959">
        <ele>393</ele>
        <time>2021-06-05T10:21:20Z</time>
      </trkpt>
      <trkpt lat="43.66721" lon="3.30962">
        <ele>393</ele>
        <time>2021-06-05T10:21:21Z</time>
      </trkpt>
      <trkpt lat="43.66723" lon="3.30965">
        <ele>393</ele>
        <time>2021-06-05T10:21:22Z</time>
      </trkpt>
      <trkpt lat="43.66724" lon="3.30968">
        <ele>393</ele>
        <time>2021-06-05T10:21:23Z</time>
      </trkpt>
      <trkpt lat="43.66725" lon="3.3097">
        <ele>393</ele>
        <time>2021-06-05T10:21:24Z</time>
      </trkpt>
      <trkpt lat="43.66726" lon="3.30973">
        <ele>393</ele>
        <time>2021-06-05T10:21:25Z</time>
      </trkpt>
      <trkpt lat="43.66727" lon="3.30976">
        <ele>393</ele>
        <time>2021-06-05T10:21:26Z</time>
      </trkpt>
      <trkpt lat="43.66729" lon="3.30978">
        <ele>394</ele>
        <time>2021-06-05T10:21:27Z</time>
      </trkpt>
      <trkpt lat="43.6673" lon="3.30981">
        <ele>394</ele>
        <time>2021-06-05T10:21:28Z</time>
      </trkpt>
      <trkpt lat="43.66731" lon="3.30983">
        <ele>394</ele>
        <time>2021-06-05T10:21:29Z</time>
      </trkpt>
      <trkpt lat="43.66732" lon="3.30986">
        <ele>394</ele>
        <time>2021-06-05T10:21:30Z</time>
      </trkpt>
      <trkpt lat="43.66733" lon="3.30988">
        <ele>394</ele>
        <time>2021-06-05T10:21:31Z</time>
      </trkpt>
      <trkpt lat="43.66735" lon="3.30991">
        <ele>394</ele>
        <time>2021-06-05T10:21:32Z</time>
      </trkpt>
      <trkpt lat="43.66736" lon="3.30994">
        <ele>394</ele>
        <time>2021-06-05T10:21:33Z</time>
      </trkpt>
      <trkpt lat="43.66737" lon="3.30996">
        <ele>394</ele>
        <time>2021-06-05T10:21:34Z</time>
      </trkpt>
      <trkpt lat="43.66738" lon="3.30999">
        <ele>394</ele>
        <time>2021-06-05T10:21:35Z</time>
      </trkpt>
      <trkpt lat="43.6674" lon="3.31002">
        <ele>394</ele>
        <time>2021-06-05T10:21:36Z</time>
      </trkpt>
      <trkpt lat="43.66741" lon="3.31004">
        <ele>396</ele>
        <time>2021-06-05T10:21:37Z</time>
      </trkpt>
      <trkpt lat="43.66742" lon="3.31008">
        <ele>396</ele>
        <time>2021-06-05T10:21:38Z</time>
      </trkpt>
      <trkpt lat="43.66743" lon="3.31011">
        <ele>396</ele>
        <time>2021-06-05T10:21:39Z</time>
      </trkpt>
      <trkpt lat="43.66743" lon="3.31014">
        <ele>396</ele>
        <time>2021-06-05T10:21:40Z</time>
      </trkpt>
      <trkpt lat="43.66743" lon="3.31017">
        <ele>396</ele>
        <time>2021-06-05T10:21:41Z</time>
      </trkpt>
      <trkpt lat="43.66743" lon="3.3102">
        <ele>396</ele>
        <time>2021-06-05T10:21:42Z</time>
      </trkpt>
      <trkpt lat="43.66742" lon="3.31023">
        <ele>396</ele>
        <time>2021-06-05T10:21:43Z</time>
      </trkpt>
      <trkpt lat="43.66741" lon="3.31025">
        <ele>396</ele>
        <time>2021-06-05T10:21:44Z</time>
      </trkpt>
      <trkpt lat="43.6674" lon="3.31028">
        <ele>396</ele>
        <time>2021-06-05T10:21:45Z</time>
      </trkpt>
      <trkpt lat="43.6674" lon="3.31031">
        <ele>396</ele>
        <time>2021-06-05T10:21:46Z</time>
      </trkpt>
      <trkpt lat="43.66739" lon="3.31034">
        <ele>396</ele>
        <time>2021-06-05T10:21:47Z</time>
      </trkpt>
      <trkpt lat="43.6674" lon="3.31038">
        <ele>396</ele>
        <time>2021-06-05T10:21:48Z</time>
      </trkpt>
      <trkpt lat="43.66741" lon="3.31041">
        <ele>396</ele>
        <time>2021-06-05T10:21:49Z</time>
      </trkpt>
      <trkpt lat="43.66742" lon="3.31044">
        <ele>396</ele>
        <time>2021-06-05T10:21:50Z</time>
      </trkpt>
      <trkpt lat="43.66744" lon="3.31047">
        <ele>396</ele>
        <time>2021-06-05T10:21:51Z</time>
      </trkpt>
      <trkpt lat="43.66747" lon="3.3105">
        <ele>396</ele>
        <time>2021-06-05T10:21:52Z</time>
      </trkpt>
      <trkpt lat="43.66749" lon="3.31053">
        <ele>396</ele>
        <time>2021-06-05T10:21:53Z</time>
      </trkpt>
      <trkpt lat="43.66751" lon="3.31056">
        <ele>396</ele>
        <time>2021-06-05T10:21:54Z</time>
      </trkpt>
      <trkpt lat="43.66753" lon="3.31058">
        <ele>396</ele>
        <time>2021-06-05T10:21:55Z</time>
      </trkpt>
      <trkpt lat="43.66755" lon="3.31061">
        <ele>396</ele>
        <time>2021-06-05T10:21:56Z</time>
      </trkpt>
      <trkpt lat="43.66756" lon="3.31064">
        <ele>396</ele>
        <time>2021-06-05T10:21:57Z</time>
      </trkpt>
      <trkpt lat="43.66758" lon="3.31067">
        <ele>396</ele>
        <time>2021-06-05T10:21:58Z</time>
      </trkpt>
      <trkpt lat="43.66759" lon="3.31071">
        <ele>396</ele>
        <time>2021-06-05T10:21:58Z</time>
      </trkpt>
      <trkpt lat="43.66761" lon="3.31074">
        <ele>396</ele>
        <time>2021-06-05T10:21:59Z</time>
      </trkpt>
      <trkpt lat="43.66762" lon="3.31077">
        <ele>396</ele>
        <time>2021-06-05T10:22:00Z</time>
      </trkpt>
      <trkpt lat="43.66764" lon="3.31081">
        <ele>396</ele>
        <time>2021-06-05T10:22:01Z</time>
      </trkpt>
      <trkpt lat="43.66766" lon="3.31084">
        <ele>396</ele>
        <time>2021-06-05T10:22:02Z</time>
      </trkpt>
      <trkpt lat="43.66768" lon="3.31086">
        <ele>396</ele>
        <time>2021-06-05T10:22:03Z</time>
      </trkpt>
      <trkpt lat="43.6677" lon="3.3109">
        <ele>396</ele>
        <time>2021-06-05T10:22:05Z</time>
      </trkpt>
      <trkpt lat="43.66771" lon="3.31093">
        <ele>396</ele>
        <time>2021-06-05T10:22:05Z</time>
      </trkpt>
      <trkpt lat="43.66773" lon="3.31095">
        <ele>396</ele>
        <time>2021-06-05T10:22:07Z</time>
      </trkpt>
      <trkpt lat="43.66775" lon="3.31098">
        <ele>396</ele>
        <time>2021-06-05T10:22:08Z</time>
      </trkpt>
      <trkpt lat="43.66777" lon="3.31101">
        <ele>396</ele>
        <time>2021-06-05T10:22:09Z</time>
      </trkpt>
      <trkpt lat="43.66779" lon="3.31104">
        <ele>396</ele>
        <time>2021-06-05T10:22:10Z</time>
      </trkpt>
      <trkpt lat="43.66781" lon="3.31106">
        <ele>396</ele>
        <time>2021-06-05T10:22:11Z</time>
      </trkpt>
      <trkpt lat="43.66784" lon="3.31109">
        <ele>396</ele>
        <time>2021-06-05T10:22:12Z</time>
      </trkpt>
      <trkpt lat="43.66785" lon="3.31112">
        <ele>396</ele>
        <time>2021-06-05T10:22:13Z</time>
      </trkpt>
      <trkpt lat="43.66788" lon="3.31115">
        <ele>396</ele>
        <time>2021-06-05T10:22:14Z</time>
      </trkpt>
      <trkpt lat="43.6679" lon="3.31118">
        <ele>396</ele>
        <time>2021-06-05T10:22:15Z</time>
      </trkpt>
      <trkpt lat="43.66792" lon="3.3112">
        <ele>396</ele>
        <time>2021-06-05T10:22:16Z</time>
      </trkpt>
      <trkpt lat="43.66794" lon="3.31123">
        <ele>396</ele>
        <time>2021-06-05T10:22:17Z</time>
      </trkpt>
      <trkpt lat="43.66795" lon="3.31126">
        <ele>396</ele>
        <time>2021-06-05T10:22:18Z</time>
      </trkpt>
      <trkpt lat="43.66797" lon="3.31129">
        <ele>396</ele>
        <time>2021-06-05T10:22:19Z</time>
      </trkpt>
      <trkpt lat="43.66799" lon="3.31132">
        <ele>396</ele>
        <time>2021-06-05T10:22:20Z</time>
      </trkpt>
      <trkpt lat="43.66801" lon="3.31134">
        <ele>396</ele>
        <time>2021-06-05T10:22:21Z</time>
      </trkpt>
      <trkpt lat="43.66804" lon="3.31136">
        <ele>396</ele>
        <time>2021-06-05T10:22:22Z</time>
      </trkpt>
      <trkpt lat="43.66806" lon="3.31139">
        <ele>396</ele>
        <time>2021-06-05T10:22:23Z</time>
      </trkpt>
      <trkpt lat="43.66808" lon="3.31141">
        <ele>396</ele>
        <time>2021-06-05T10:22:24Z</time>
      </trkpt>
      <trkpt lat="43.66811" lon="3.31145">
        <ele>396</ele>
        <time>2021-06-05T10:22:25Z</time>
      </trkpt>
      <trkpt lat="43.66812" lon="3.31149">
        <ele>396</ele>
        <time>2021-06-05T10:22:26Z</time>
      </trkpt>
      <trkpt lat="43.66813" lon="3.31154">
        <ele>395</ele>
        <time>2021-06-05T10:22:26Z</time>
      </trkpt>
      <trkpt lat="43.66814" lon="3.31159">
        <ele>395</ele>
        <time>2021-06-05T10:22:27Z</time>
      </trkpt>
      <trkpt lat="43.66815" lon="3.31163">
        <ele>395</ele>
        <time>2021-06-05T10:22:28Z</time>
      </trkpt>
      <trkpt lat="43.66817" lon="3.31166">
        <ele>395</ele>
        <time>2021-06-05T10:22:29Z</time>
      </trkpt>
      <trkpt lat="43.66819" lon="3.3117">
        <ele>395</ele>
        <time>2021-06-05T10:22:31Z</time>
      </trkpt>
      <trkpt lat="43.66821" lon="3.31174">
        <ele>395</ele>
        <time>2021-06-05T10:22:32Z</time>
      </trkpt>
      <trkpt lat="43.66822" lon="3.31178">
        <ele>395</ele>
        <time>2021-06-05T10:22:32Z</time>
      </trkpt>
      <trkpt lat="43.66824" lon="3.31181">
        <ele>395</ele>
        <time>2021-06-05T10:22:34Z</time>
      </trkpt>
      <trkpt lat="43.66826" lon="3.31186">
        <ele>395</ele>
        <time>2021-06-05T10:22:34Z</time>
      </trkpt>
      <trkpt lat="43.66827" lon="3.3119">
        <ele>395</ele>
        <time>2021-06-05T10:22:35Z</time>
      </trkpt>
      <trkpt lat="43.66828" lon="3.31194">
        <ele>396</ele>
        <time>2021-06-05T10:22:37Z</time>
      </trkpt>
      <trkpt lat="43.66829" lon="3.31198">
        <ele>396</ele>
        <time>2021-06-05T10:22:38Z</time>
      </trkpt>
      <trkpt lat="43.6683" lon="3.31202">
        <ele>396</ele>
        <time>2021-06-05T10:22:39Z</time>
      </trkpt>
      <trkpt lat="43.66831" lon="3.31207">
        <ele>396</ele>
        <time>2021-06-05T10:22:40Z</time>
      </trkpt>
      <trkpt lat="43.66832" lon="3.3121">
        <ele>396</ele>
        <time>2021-06-05T10:22:41Z</time>
      </trkpt>
      <trkpt lat="43.66834" lon="3.31215">
        <ele>396</ele>
        <time>2021-06-05T10:22:42Z</time>
      </trkpt>
      <trkpt lat="43.66836" lon="3.31218">
        <ele>396</ele>
        <time>2021-06-05T10:22:43Z</time>
      </trkpt>
      <trkpt lat="43.66837" lon="3.31221">
        <ele>396</ele>
        <time>2021-06-05T10:22:44Z</time>
      </trkpt>
      <trkpt lat="43.66839" lon="3.31224">
        <ele>396</ele>
        <time>2021-06-05T10:22:45Z</time>
      </trkpt>
      <trkpt lat="43.66841" lon="3.31227">
        <ele>396</ele>
        <time>2021-06-05T10:22:46Z</time>
      </trkpt>
      <trkpt lat="43.66843" lon="3.31229">
        <ele>396</ele>
        <time>2021-06-05T10:22:47Z</time>
      </trkpt>
      <trkpt lat="43.66845" lon="3.31233">
        <ele>396</ele>
        <time>2021-06-05T10:22:48Z</time>
      </trkpt>
      <trkpt lat="43.66846" lon="3.31237">
        <ele>396</ele>
        <time>2021-06-05T10:22:49Z</time>
      </trkpt>
      <trkpt lat="43.66848" lon="3.31241">
        <ele>396</ele>
        <time>2021-06-05T10:22:50Z</time>
      </trkpt>
      <trkpt lat="43.66848" lon="3.31246">
        <ele>396</ele>
        <time>2021-06-05T10:22:51Z</time>
      </trkpt>
      <trkpt lat="43.66848" lon="3.3125">
        <ele>396</ele>
        <time>2021-06-05T10:22:52Z</time>
      </trkpt>
      <trkpt lat="43.66848" lon="3.31254">
        <ele>396</ele>
        <time>2021-06-05T10:22:53Z</time>
      </trkpt>
      <trkpt lat="43.66848" lon="3.31258">
        <ele>396</ele>
        <time>2021-06-05T10:22:54Z</time>
      </trkpt>
      <trkpt lat="43.66848" lon="3.31262">
        <ele>396</ele>
        <time>2021-06-05T10:22:55Z</time>
      </trkpt>
      <trkpt lat="43.66847" lon="3.31266">
        <ele>396</ele>
        <time>2021-06-05T10:22:55Z</time>
      </trkpt>
      <trkpt lat="43.66846" lon="3.3127">
        <ele>396</ele>
        <time>2021-06-05T10:22:57Z</time>
      </trkpt>
      <trkpt lat="43.66846" lon="3.31274">
        <ele>396</ele>
        <time>2021-06-05T10:22:58Z</time>
      </trkpt>
      <trkpt lat="43.66846" lon="3.31278">
        <ele>396</ele>
        <time>2021-06-05T10:22:59Z</time>
      </trkpt>
      <trkpt lat="43.66846" lon="3.31282">
        <ele>396</ele>
        <time>2021-06-05T10:23:00Z</time>
      </trkpt>
      <trkpt lat="43.66846" lon="3.31286">
        <ele>396</ele>
        <time>2021-06-05T10:23:01Z</time>
      </trkpt>
      <trkpt lat="43.66845" lon="3.31289">
        <ele>396</ele>
        <time>2021-06-05T10:23:02Z</time>
      </trkpt>
      <trkpt lat="43.66844" lon="3.31293">
        <ele>396</ele>
        <time>2021-06-05T10:23:03Z</time>
      </trkpt>
      <trkpt lat="43.66843" lon="3.31297">
        <ele>396</ele>
        <time>2021-06-05T10:23:04Z</time>
      </trkpt>
      <trkpt lat="43.66842" lon="3.313">
        <ele>396</ele>
        <time>2021-06-05T10:23:05Z</time>
      </trkpt>
      <trkpt lat="43.66841" lon="3.31304">
        <ele>396</ele>
        <time>2021-06-05T10:23:06Z</time>
      </trkpt>
      <trkpt lat="43.6684" lon="3.31308">
        <ele>396</ele>
        <time>2021-06-05T10:23:07Z</time>
      </trkpt>
      <trkpt lat="43.6684" lon="3.31313">
        <ele>396</ele>
        <time>2021-06-05T10:23:08Z</time>
      </trkpt>
      <trkpt lat="43.66839" lon="3.31318">
        <ele>396</ele>
        <time>2021-06-05T10:23:09Z</time>
      </trkpt>
      <trkpt lat="43.66839" lon="3.31323">
        <ele>396</ele>
        <time>2021-06-05T10:23:10Z</time>
      </trkpt>
      <trkpt lat="43.66839" lon="3.31328">
        <ele>396</ele>
        <time>2021-06-05T10:23:11Z</time>
      </trkpt>
      <trkpt lat="43.66839" lon="3.31333">
        <ele>396</ele>
        <time>2021-06-05T10:23:12Z</time>
      </trkpt>
      <trkpt lat="43.66839" lon="3.31338">
        <ele>396</ele>
        <time>2021-06-05T10:23:13Z</time>
      </trkpt>
      <trkpt lat="43.66838" lon="3.31343">
        <ele>396</ele>
        <time>2021-06-05T10:23:14Z</time>
      </trkpt>
      <trkpt lat="43.66837" lon="3.31348">
        <ele>396</ele>
        <time>2021-06-05T10:23:15Z</time>
      </trkpt>
      <trkpt lat="43.66835" lon="3.31352">
        <ele>396</ele>
        <time>2021-06-05T10:23:16Z</time>
      </trkpt>
      <trkpt lat="43.66833" lon="3.31356">
        <ele>396</ele>
        <time>2021-06-05T10:23:17Z</time>
      </trkpt>
      <trkpt lat="43.66831" lon="3.31361">
        <ele>396</ele>
        <time>2021-06-05T10:23:18Z</time>
      </trkpt>
      <trkpt lat="43.66829" lon="3.31366">
        <ele>396</ele>
        <time>2021-06-05T10:23:19Z</time>
      </trkpt>
      <trkpt lat="43.66828" lon="3.31371">
        <ele>396</ele>
        <time>2021-06-05T10:23:20Z</time>
      </trkpt>
      <trkpt lat="43.66828" lon="3.31377">
        <ele>396</ele>
        <time>2021-06-05T10:23:21Z</time>
      </trkpt>
      <trkpt lat="43.66829" lon="3.31382">
        <ele>396</ele>
        <time>2021-06-05T10:23:22Z</time>
      </trkpt>
      <trkpt lat="43.66829" lon="3.31388">
        <ele>396</ele>
        <time>2021-06-05T10:23:23Z</time>
      </trkpt>
      <trkpt lat="43.6683" lon="3.31394">
        <ele>396</ele>
        <time>2021-06-05T10:23:24Z</time>
      </trkpt>
      <trkpt lat="43.66831" lon="3.31401">
        <ele>396</ele>
        <time>2021-06-05T10:23:25Z</time>
      </trkpt>
      <trkpt lat="43.66831" lon="3.31407">
        <ele>396</ele>
        <time>2021-06-05T10:23:26Z</time>
      </trkpt>
      <trkpt lat="43.66831" lon="3.31413">
        <ele>395</ele>
        <time>2021-06-05T10:23:27Z</time>
      </trkpt>
      <trkpt lat="43.66832" lon="3.31419">
        <ele>395</ele>
        <time>2021-06-05T10:23:28Z</time>
      </trkpt>
      <trkpt lat="43.66832" lon="3.31424">
        <ele>395</ele>
        <time>2021-06-05T10:23:29Z</time>
      </trkpt>
      <trkpt lat="43.66833" lon="3.31428">
        <ele>395</ele>
        <time>2021-06-05T10:23:30Z</time>
      </trkpt>
      <trkpt lat="43.66834" lon="3.31433">
        <ele>395</ele>
        <time>2021-06-05T10:23:31Z</time>
      </trkpt>
      <trkpt lat="43.66834" lon="3.31438">
        <ele>395</ele>
        <time>2021-06-05T10:23:32Z</time>
      </trkpt>
      <trkpt lat="43.66835" lon="3.31442">
        <ele>395</ele>
        <time>2021-06-05T10:23:33Z</time>
      </trkpt>
      <trkpt lat="43.66837" lon="3.31447">
        <ele>395</ele>
        <time>2021-06-05T10:23:34Z</time>
      </trkpt>
      <trkpt lat="43.66838" lon="3.31452">
        <ele>395</ele>
        <time>2021-06-05T10:23:35Z</time>
      </trkpt>
      <trkpt lat="43.66839" lon="3.31457">
        <ele>395</ele>
        <time>2021-06-05T10:23:36Z</time>
      </trkpt>
      <trkpt lat="43.66839" lon="3.31462">
        <ele>394</ele>
        <time>2021-06-05T10:23:37Z</time>
      </trkpt>
      <trkpt lat="43.66839" lon="3.31467">
        <ele>394</ele>
        <time>2021-06-05T10:23:38Z</time>
      </trkpt>
      <trkpt lat="43.66839" lon="3.31472">
        <ele>394</ele>
        <time>2021-06-05T10:23:39Z</time>
      </trkpt>
      <trkpt lat="43.66838" lon="3.31477">
        <ele>394</ele>
        <time>2021-06-05T10:23:40Z</time>
      </trkpt>
      <trkpt lat="43.66836" lon="3.31482">
        <ele>394</ele>
        <time>2021-06-05T10:23:41Z</time>
      </trkpt>
      <trkpt lat="43.66834" lon="3.31487">
        <ele>394</ele>
        <time>2021-06-05T10:23:42Z</time>
      </trkpt>
      <trkpt lat="43.66832" lon="3.31492">
        <ele>394</ele>
        <time>2021-06-05T10:23:43Z</time>
      </trkpt>
      <trkpt lat="43.66831" lon="3.31498">
        <ele>394</ele>
        <time>2021-06-05T10:23:44Z</time>
      </trkpt>
      <trkpt lat="43.66829" lon="3.31503">
        <ele>394</ele>
        <time>2021-06-05T10:23:45Z</time>
      </trkpt>
      <trkpt lat="43.66827" lon="3.31508">
        <ele>394</ele>
        <time>2021-06-05T10:23:46Z</time>
      </trkpt>
      <trkpt lat="43.66825" lon="3.31512">
        <ele>393</ele>
        <time>2021-06-05T10:23:47Z</time>
      </trkpt>
      <trkpt lat="43.66822" lon="3.31515">
        <ele>393</ele>
        <time>2021-06-05T10:23:48Z</time>
      </trkpt>
      <trkpt lat="43.6682" lon="3.31519">
        <ele>393</ele>
        <time>2021-06-05T10:23:49Z</time>
      </trkpt>
      <trkpt lat="43.66817" lon="3.31522">
        <ele>393</ele>
        <time>2021-06-05T10:23:50Z</time>
      </trkpt>
      <trkpt lat="43.66815" lon="3.31526">
        <ele>393</ele>
        <time>2021-06-05T10:23:51Z</time>
      </trkpt>
      <trkpt lat="43.66813" lon="3.3153">
        <ele>393</ele>
        <time>2021-06-05T10:23:52Z</time>
      </trkpt>
      <trkpt lat="43.66811" lon="3.31534">
        <ele>393</ele>
        <time>2021-06-05T10:23:53Z</time>
      </trkpt>
      <trkpt lat="43.6681" lon="3.31538">
        <ele>393</ele>
        <time>2021-06-05T10:23:54Z</time>
      </trkpt>
      <trkpt lat="43.66808" lon="3.31542">
        <ele>393</ele>
        <time>2021-06-05T10:23:55Z</time>
      </trkpt>
      <trkpt lat="43.66806" lon="3.31546">
        <ele>393</ele>
        <time>2021-06-05T10:23:56Z</time>
      </trkpt>
      <trkpt lat="43.66804" lon="3.31551">
        <ele>393</ele>
        <time>2021-06-05T10:23:57Z</time>
      </trkpt>
      <trkpt lat="43.66801" lon="3.31555">
        <ele>393</ele>
        <time>2021-06-05T10:23:58Z</time>
      </trkpt>
      <trkpt lat="43.66799" lon="3.31559">
        <ele>393</ele>
        <time>2021-06-05T10:23:59Z</time>
      </trkpt>
      <trkpt lat="43.66796" lon="3.31563">
        <ele>393</ele>
        <time>2021-06-05T10:24:00Z</time>
      </trkpt>
      <trkpt lat="43.66793" lon="3.31566">
        <ele>393</ele>
        <time>2021-06-05T10:24:01Z</time>
      </trkpt>
      <trkpt lat="43.6679" lon="3.31569">
        <ele>393</ele>
        <time>2021-06-05T10:24:02Z</time>
      </trkpt>
      <trkpt lat="43.66786" lon="3.31572">
        <ele>393</ele>
        <time>2021-06-05T10:24:03Z</time>
      </trkpt>
      <trkpt lat="43.66782" lon="3.31574">
        <ele>393</ele>
        <time>2021-06-05T10:24:04Z</time>
      </trkpt>
      <trkpt lat="43.66778" lon="3.31574">
        <ele>393</ele>
        <time>2021-06-05T10:24:05Z</time>
      </trkpt>
      <trkpt lat="43.66773" lon="3.31573">
        <ele>393</ele>
        <time>2021-06-05T10:24:06Z</time>
      </trkpt>
      <trkpt lat="43.6677" lon="3.31571">
        <ele>392</ele>
        <time>2021-06-05T10:24:06Z</time>
      </trkpt>
      <trkpt lat="43.66766" lon="3.31569">
        <ele>392</ele>
        <time>2021-06-05T10:24:07Z</time>
      </trkpt>
      <trkpt lat="43.66762" lon="3.31566">
        <ele>392</ele>
        <time>2021-06-05T10:24:08Z</time>
      </trkpt>
      <trkpt lat="43.66758" lon="3.31564">
        <ele>392</ele>
        <time>2021-06-05T10:24:09Z</time>
      </trkpt>
      <trkpt lat="43.66754" lon="3.31561">
        <ele>392</ele>
        <time>2021-06-05T10:24:10Z</time>
      </trkpt>
      <trkpt lat="43.6675" lon="3.31559">
        <ele>392</ele>
        <time>2021-06-05T10:24:11Z</time>
      </trkpt>
      <trkpt lat="43.66746" lon="3.31557">
        <ele>392</ele>
        <time>2021-06-05T10:24:12Z</time>
      </trkpt>
      <trkpt lat="43.66742" lon="3.31556">
        <ele>392</ele>
        <time>2021-06-05T10:24:13Z</time>
      </trkpt>
      <trkpt lat="43.66738" lon="3.31555">
        <ele>392</ele>
        <time>2021-06-05T10:24:14Z</time>
      </trkpt>
      <trkpt lat="43.66734" lon="3.31555">
        <ele>392</ele>
        <time>2021-06-05T10:24:15Z</time>
      </trkpt>
      <trkpt lat="43.6673" lon="3.31556">
        <ele>392</ele>
        <time>2021-06-05T10:24:16Z</time>
      </trkpt>
      <trkpt lat="43.66725" lon="3.31557">
        <ele>392</ele>
        <time>2021-06-05T10:24:17Z</time>
      </trkpt>
      <trkpt lat="43.66722" lon="3.3156">
        <ele>392</ele>
        <time>2021-06-05T10:24:18Z</time>
      </trkpt>
      <trkpt lat="43.66718" lon="3.31564">
        <ele>392</ele>
        <time>2021-06-05T10:24:19Z</time>
      </trkpt>
      <trkpt lat="43.66714" lon="3.31567">
        <ele>392</ele>
        <time>2021-06-05T10:24:20Z</time>
      </trkpt>
      <trkpt lat="43.66709" lon="3.3157">
        <ele>392</ele>
        <time>2021-06-05T10:24:21Z</time>
      </trkpt>
      <trkpt lat="43.66705" lon="3.31573">
        <ele>392</ele>
        <time>2021-06-05T10:24:22Z</time>
      </trkpt>
      <trkpt lat="43.66703" lon="3.31574">
        <ele>392</ele>
        <time>2021-06-05T10:24:23Z</time>
      </trkpt>
      <trkpt lat="43.66702" lon="3.31576">
        <ele>392</ele>
        <time>2021-06-05T10:24:25Z</time>
      </trkpt>
      <trkpt lat="43.66699" lon="3.31575">
        <ele>391</ele>
        <time>2021-06-05T10:24:30Z</time>
      </trkpt>
      <trkpt lat="43.66697" lon="3.31574">
        <ele>391</ele>
        <time>2021-06-05T10:24:31Z</time>
      </trkpt>
      <trkpt lat="43.66695" lon="3.31571">
        <ele>391</ele>
        <time>2021-06-05T10:24:32Z</time>
      </trkpt>
      <trkpt lat="43.66693" lon="3.31569">
        <ele>391</ele>
        <time>2021-06-05T10:24:33Z</time>
      </trkpt>
      <trkpt lat="43.66691" lon="3.31567">
        <ele>391</ele>
        <time>2021-06-05T10:24:34Z</time>
      </trkpt>
      <trkpt lat="43.66689" lon="3.31564">
        <ele>391</ele>
        <time>2021-06-05T10:24:35Z</time>
      </trkpt>
      <trkpt lat="43.66688" lon="3.31561">
        <ele>391</ele>
        <time>2021-06-05T10:24:36Z</time>
      </trkpt>
      <trkpt lat="43.66686" lon="3.31559">
        <ele>391</ele>
        <time>2021-06-05T10:24:37Z</time>
      </trkpt>
      <trkpt lat="43.66684" lon="3.31559">
        <ele>391</ele>
        <time>2021-06-05T10:24:38Z</time>
      </trkpt>
      <trkpt lat="43.66681" lon="3.31559">
        <ele>391</ele>
        <time>2021-06-05T10:24:39Z</time>
      </trkpt>
      <trkpt lat="43.66678" lon="3.3156">
        <ele>391</ele>
        <time>2021-06-05T10:24:40Z</time>
      </trkpt>
      <trkpt lat="43.66675" lon="3.3156">
        <ele>391</ele>
        <time>2021-06-05T10:24:41Z</time>
      </trkpt>
      <trkpt lat="43.66671" lon="3.3156">
        <ele>391</ele>
        <time>2021-06-05T10:24:42Z</time>
      </trkpt>
      <trkpt lat="43.66669" lon="3.31559">
        <ele>391</ele>
        <time>2021-06-05T10:24:43Z</time>
      </trkpt>
      <trkpt lat="43.66665" lon="3.31558">
        <ele>391</ele>
        <time>2021-06-05T10:24:44Z</time>
      </trkpt>
      <trkpt lat="43.66662" lon="3.31557">
        <ele>391</ele>
        <time>2021-06-05T10:24:45Z</time>
      </trkpt>
      <trkpt lat="43.66659" lon="3.31556">
        <ele>391</ele>
        <time>2021-06-05T10:24:46Z</time>
      </trkpt>
      <trkpt lat="43.66655" lon="3.31555">
        <ele>389</ele>
        <time>2021-06-05T10:24:47Z</time>
      </trkpt>
      <trkpt lat="43.66652" lon="3.31554">
        <ele>389</ele>
        <time>2021-06-05T10:24:48Z</time>
      </trkpt>
      <trkpt lat="43.66648" lon="3.31553">
        <ele>389</ele>
        <time>2021-06-05T10:24:49Z</time>
      </trkpt>
      <trkpt lat="43.66645" lon="3.31552">
        <ele>389</ele>
        <time>2021-06-05T10:24:50Z</time>
      </trkpt>
      <trkpt lat="43.66641" lon="3.3155">
        <ele>389</ele>
        <time>2021-06-05T10:24:51Z</time>
      </trkpt>
      <trkpt lat="43.66638" lon="3.31548">
        <ele>389</ele>
        <time>2021-06-05T10:24:52Z</time>
      </trkpt>
      <trkpt lat="43.66635" lon="3.31546">
        <ele>389</ele>
        <time>2021-06-05T10:24:53Z</time>
      </trkpt>
      <trkpt lat="43.66632" lon="3.31545">
        <ele>389</ele>
        <time>2021-06-05T10:24:54Z</time>
      </trkpt>
      <trkpt lat="43.66628" lon="3.31544">
        <ele>389</ele>
        <time>2021-06-05T10:24:55Z</time>
      </trkpt>
      <trkpt lat="43.66626" lon="3.31543">
        <ele>389</ele>
        <time>2021-06-05T10:24:56Z</time>
      </trkpt>
      <trkpt lat="43.66624" lon="3.31542">
        <ele>386</ele>
        <time>2021-06-05T10:24:57Z</time>
      </trkpt>
      <trkpt lat="43.66621" lon="3.31541">
        <ele>386</ele>
        <time>2021-06-05T10:24:58Z</time>
      </trkpt>
      <trkpt lat="43.66619" lon="3.3154">
        <ele>386</ele>
        <time>2021-06-05T10:24:59Z</time>
      </trkpt>
      <trkpt lat="43.66617" lon="3.31539">
        <ele>386</ele>
        <time>2021-06-05T10:25:00Z</time>
      </trkpt>
      <trkpt lat="43.66615" lon="3.31539">
        <ele>386</ele>
        <time>2021-06-05T10:25:01Z</time>
      </trkpt>
      <trkpt lat="43.66613" lon="3.31539">
        <ele>386</ele>
        <time>2021-06-05T10:25:02Z</time>
      </trkpt>
      <trkpt lat="43.66611" lon="3.31538">
        <ele>386</ele>
        <time>2021-06-05T10:25:03Z</time>
      </trkpt>
      <trkpt lat="43.66609" lon="3.31537">
        <ele>386</ele>
        <time>2021-06-05T10:25:04Z</time>
      </trkpt>
      <trkpt lat="43.66606" lon="3.31536">
        <ele>386</ele>
        <time>2021-06-05T10:25:05Z</time>
      </trkpt>
      <trkpt lat="43.66604" lon="3.31535">
        <ele>386</ele>
        <time>2021-06-05T10:25:06Z</time>
      </trkpt>
      <trkpt lat="43.66602" lon="3.31533">
        <ele>384</ele>
        <time>2021-06-05T10:25:08Z</time>
      </trkpt>
      <trkpt lat="43.66599" lon="3.31532">
        <ele>384</ele>
        <time>2021-06-05T10:25:10Z</time>
      </trkpt>
      <trkpt lat="43.66597" lon="3.3153">
        <ele>384</ele>
        <time>2021-06-05T10:25:12Z</time>
      </trkpt>
      <trkpt lat="43.66589" lon="3.31526">
        <ele>381</ele>
        <time>2021-06-05T10:25:15Z</time>
      </trkpt>
      <trkpt lat="43.66585" lon="3.31523">
        <ele>381</ele>
        <time>2021-06-05T10:25:15Z</time>
      </trkpt>
      <trkpt lat="43.66582" lon="3.31521">
        <ele>381</ele>
        <time>2021-06-05T10:25:16Z</time>
      </trkpt>
      <trkpt lat="43.66597" lon="3.3153">
        <ele>383</ele>
        <time>2021-06-05T10:25:17Z</time>
      </trkpt>
      <trkpt lat="43.66579" lon="3.31519">
        <ele>381</ele>
        <time>2021-06-05T10:25:17Z</time>
      </trkpt>
      <trkpt lat="43.66574" lon="3.31515">
        <ele>381</ele>
        <time>2021-06-05T10:25:18Z</time>
      </trkpt>
      <trkpt lat="43.66569" lon="3.31513">
        <ele>381</ele>
        <time>2021-06-05T10:25:19Z</time>
      </trkpt>
      <trkpt lat="43.66564" lon="3.3151">
        <ele>381</ele>
        <time>2021-06-05T10:25:20Z</time>
      </trkpt>
      <trkpt lat="43.66559" lon="3.31508">
        <ele>381</ele>
        <time>2021-06-05T10:25:21Z</time>
      </trkpt>
      <trkpt lat="43.66553" lon="3.31506">
        <ele>381</ele>
        <time>2021-06-05T10:25:22Z</time>
      </trkpt>
      <trkpt lat="43.66548" lon="3.31503">
        <ele>381</ele>
        <time>2021-06-05T10:25:23Z</time>
      </trkpt>
      <trkpt lat="43.66542" lon="3.31501">
        <ele>381</ele>
        <time>2021-06-05T10:25:24Z</time>
      </trkpt>
      <trkpt lat="43.66536" lon="3.31498">
        <ele>379</ele>
        <time>2021-06-05T10:25:25Z</time>
      </trkpt>
      <trkpt lat="43.66531" lon="3.31495">
        <ele>379</ele>
        <time>2021-06-05T10:25:26Z</time>
      </trkpt>
      <trkpt lat="43.66525" lon="3.31491">
        <ele>379</ele>
        <time>2021-06-05T10:25:27Z</time>
      </trkpt>
      <trkpt lat="43.66518" lon="3.31488">
        <ele>379</ele>
        <time>2021-06-05T10:25:28Z</time>
      </trkpt>
      <trkpt lat="43.66512" lon="3.31484">
        <ele>379</ele>
        <time>2021-06-05T10:25:29Z</time>
      </trkpt>
      <trkpt lat="43.66505" lon="3.3148">
        <ele>379</ele>
        <time>2021-06-05T10:25:30Z</time>
      </trkpt>
      <trkpt lat="43.66498" lon="3.31477">
        <ele>379</ele>
        <time>2021-06-05T10:25:31Z</time>
      </trkpt>
      <trkpt lat="43.66491" lon="3.31472">
        <ele>379</ele>
        <time>2021-06-05T10:25:32Z</time>
      </trkpt>
      <trkpt lat="43.66485" lon="3.31467">
        <ele>379</ele>
        <time>2021-06-05T10:25:33Z</time>
      </trkpt>
      <trkpt lat="43.66479" lon="3.31461">
        <ele>379</ele>
        <time>2021-06-05T10:25:34Z</time>
      </trkpt>
      <trkpt lat="43.66473" lon="3.31457">
        <ele>374</ele>
        <time>2021-06-05T10:25:35Z</time>
      </trkpt>
      <trkpt lat="43.66467" lon="3.31456">
        <ele>374</ele>
        <time>2021-06-05T10:25:36Z</time>
      </trkpt>
      <trkpt lat="43.6646" lon="3.31455">
        <ele>374</ele>
        <time>2021-06-05T10:25:37Z</time>
      </trkpt>
      <trkpt lat="43.66454" lon="3.31454">
        <ele>374</ele>
        <time>2021-06-05T10:25:38Z</time>
      </trkpt>
      <trkpt lat="43.66448" lon="3.31452">
        <ele>374</ele>
        <time>2021-06-05T10:25:39Z</time>
      </trkpt>
      <trkpt lat="43.66442" lon="3.31448">
        <ele>374</ele>
        <time>2021-06-05T10:25:40Z</time>
      </trkpt>
      <trkpt lat="43.66436" lon="3.31445">
        <ele>374</ele>
        <time>2021-06-05T10:25:41Z</time>
      </trkpt>
      <trkpt lat="43.66431" lon="3.31441">
        <ele>374</ele>
        <time>2021-06-05T10:25:42Z</time>
      </trkpt>
      <trkpt lat="43.66425" lon="3.31438">
        <ele>374</ele>
        <time>2021-06-05T10:25:43Z</time>
      </trkpt>
      <trkpt lat="43.66419" lon="3.31435">
        <ele>374</ele>
        <time>2021-06-05T10:25:44Z</time>
      </trkpt>
      <trkpt lat="43.66414" lon="3.31432">
        <ele>370</ele>
        <time>2021-06-05T10:25:45Z</time>
      </trkpt>
      <trkpt lat="43.66409" lon="3.31429">
        <ele>370</ele>
        <time>2021-06-05T10:25:46Z</time>
      </trkpt>
      <trkpt lat="43.66403" lon="3.31425">
        <ele>370</ele>
        <time>2021-06-05T10:25:47Z</time>
      </trkpt>
      <trkpt lat="43.66398" lon="3.31421">
        <ele>370</ele>
        <time>2021-06-05T10:25:48Z</time>
      </trkpt>
      <trkpt lat="43.66392" lon="3.31418">
        <ele>370</ele>
        <time>2021-06-05T10:25:49Z</time>
      </trkpt>
      <trkpt lat="43.66388" lon="3.31416">
        <ele>370</ele>
        <time>2021-06-05T10:25:50Z</time>
      </trkpt>
      <trkpt lat="43.66384" lon="3.31413">
        <ele>370</ele>
        <time>2021-06-05T10:25:51Z</time>
      </trkpt>
      <trkpt lat="43.66381" lon="3.3141">
        <ele>370</ele>
        <time>2021-06-05T10:25:52Z</time>
      </trkpt>
      <trkpt lat="43.66378" lon="3.31409">
        <ele>370</ele>
        <time>2021-06-05T10:25:53Z</time>
      </trkpt>
      <trkpt lat="43.66374" lon="3.31407">
        <ele>370</ele>
        <time>2021-06-05T10:25:54Z</time>
      </trkpt>
      <trkpt lat="43.66371" lon="3.31405">
        <ele>367</ele>
        <time>2021-06-05T10:25:55Z</time>
      </trkpt>
      <trkpt lat="43.66367" lon="3.31402">
        <ele>367</ele>
        <time>2021-06-05T10:25:56Z</time>
      </trkpt>
      <trkpt lat="43.66364" lon="3.314">
        <ele>367</ele>
        <time>2021-06-05T10:25:57Z</time>
      </trkpt>
      <trkpt lat="43.6636" lon="3.31398">
        <ele>367</ele>
        <time>2021-06-05T10:25:58Z</time>
      </trkpt>
      <trkpt lat="43.66356" lon="3.31396">
        <ele>367</ele>
        <time>2021-06-05T10:25:59Z</time>
      </trkpt>
      <trkpt lat="43.66352" lon="3.31393">
        <ele>367</ele>
        <time>2021-06-05T10:26:00Z</time>
      </trkpt>
      <trkpt lat="43.66347" lon="3.3139">
        <ele>367</ele>
        <time>2021-06-05T10:26:01Z</time>
      </trkpt>
      <trkpt lat="43.66343" lon="3.31389">
        <ele>367</ele>
        <time>2021-06-05T10:26:02Z</time>
      </trkpt>
      <trkpt lat="43.66338" lon="3.31386">
        <ele>367</ele>
        <time>2021-06-05T10:26:03Z</time>
      </trkpt>
      <trkpt lat="43.66332" lon="3.31383">
        <ele>367</ele>
        <time>2021-06-05T10:26:04Z</time>
      </trkpt>
      <trkpt lat="43.66327" lon="3.3138">
        <ele>362</ele>
        <time>2021-06-05T10:26:05Z</time>
      </trkpt>
      <trkpt lat="43.66321" lon="3.31377">
        <ele>362</ele>
        <time>2021-06-05T10:26:06Z</time>
      </trkpt>
      <trkpt lat="43.66315" lon="3.31374">
        <ele>362</ele>
        <time>2021-06-05T10:26:07Z</time>
      </trkpt>
      <trkpt lat="43.66308" lon="3.31372">
        <ele>362</ele>
        <time>2021-06-05T10:26:08Z</time>
      </trkpt>
      <trkpt lat="43.66302" lon="3.31369">
        <ele>362</ele>
        <time>2021-06-05T10:26:09Z</time>
      </trkpt>
      <trkpt lat="43.66297" lon="3.31364">
        <ele>362</ele>
        <time>2021-06-05T10:26:10Z</time>
      </trkpt>
      <trkpt lat="43.66293" lon="3.31358">
        <ele>362</ele>
        <time>2021-06-05T10:26:11Z</time>
      </trkpt>
      <trkpt lat="43.6629" lon="3.31351">
        <ele>362</ele>
        <time>2021-06-05T10:26:12Z</time>
      </trkpt>
      <trkpt lat="43.66288" lon="3.31344">
        <ele>362</ele>
        <time>2021-06-05T10:26:13Z</time>
      </trkpt>
      <trkpt lat="43.66285" lon="3.31339">
        <ele>362</ele>
        <time>2021-06-05T10:26:14Z</time>
      </trkpt>
      <trkpt lat="43.66283" lon="3.31333">
        <ele>358</ele>
        <time>2021-06-05T10:26:15Z</time>
      </trkpt>
      <trkpt lat="43.66281" lon="3.31328">
        <ele>358</ele>
        <time>2021-06-05T10:26:16Z</time>
      </trkpt>
      <trkpt lat="43.6628" lon="3.31324">
        <ele>358</ele>
        <time>2021-06-05T10:26:17Z</time>
      </trkpt>
      <trkpt lat="43.66279" lon="3.3132">
        <ele>358</ele>
        <time>2021-06-05T10:26:18Z</time>
      </trkpt>
      <trkpt lat="43.66278" lon="3.31317">
        <ele>358</ele>
        <time>2021-06-05T10:26:19Z</time>
      </trkpt>
      <trkpt lat="43.66277" lon="3.31313">
        <ele>358</ele>
        <time>2021-06-05T10:26:20Z</time>
      </trkpt>
      <trkpt lat="43.66276" lon="3.31309">
        <ele>358</ele>
        <time>2021-06-05T10:26:21Z</time>
      </trkpt>
      <trkpt lat="43.66276" lon="3.31306">
        <ele>358</ele>
        <time>2021-06-05T10:26:22Z</time>
      </trkpt>
      <trkpt lat="43.66276" lon="3.31303">
        <ele>358</ele>
        <time>2021-06-05T10:26:23Z</time>
      </trkpt>
      <trkpt lat="43.66275" lon="3.313">
        <ele>358</ele>
        <time>2021-06-05T10:26:24Z</time>
      </trkpt>
      <trkpt lat="43.66275" lon="3.31296">
        <ele>357</ele>
        <time>2021-06-05T10:26:26Z</time>
      </trkpt>
      <trkpt lat="43.66275" lon="3.31291">
        <ele>357</ele>
        <time>2021-06-05T10:26:28Z</time>
      </trkpt>
      <trkpt lat="43.66275" lon="3.31288">
        <ele>357</ele>
        <time>2021-06-05T10:26:29Z</time>
      </trkpt>
      <trkpt lat="43.66274" lon="3.31284">
        <ele>357</ele>
        <time>2021-06-05T10:26:30Z</time>
      </trkpt>
      <trkpt lat="43.66272" lon="3.31282">
        <ele>357</ele>
        <time>2021-06-05T10:26:31Z</time>
      </trkpt>
      <trkpt lat="43.6627" lon="3.3128">
        <ele>357</ele>
        <time>2021-06-05T10:26:32Z</time>
      </trkpt>
      <trkpt lat="43.66268" lon="3.31279">
        <ele>357</ele>
        <time>2021-06-05T10:26:33Z</time>
      </trkpt>
      <trkpt lat="43.66265" lon="3.31279">
        <ele>357</ele>
        <time>2021-06-05T10:26:34Z</time>
      </trkpt>
      <trkpt lat="43.66261" lon="3.3128">
        <ele>356</ele>
        <time>2021-06-05T10:26:35Z</time>
      </trkpt>
      <trkpt lat="43.66257" lon="3.31282">
        <ele>356</ele>
        <time>2021-06-05T10:26:36Z</time>
      </trkpt>
      <trkpt lat="43.66253" lon="3.31285">
        <ele>356</ele>
        <time>2021-06-05T10:26:37Z</time>
      </trkpt>
      <trkpt lat="43.6625" lon="3.31288">
        <ele>356</ele>
        <time>2021-06-05T10:26:38Z</time>
      </trkpt>
      <trkpt lat="43.66246" lon="3.31291">
        <ele>356</ele>
        <time>2021-06-05T10:26:39Z</time>
      </trkpt>
      <trkpt lat="43.66241" lon="3.31295">
        <ele>356</ele>
        <time>2021-06-05T10:26:40Z</time>
      </trkpt>
      <trkpt lat="43.66236" lon="3.31296">
        <ele>356</ele>
        <time>2021-06-05T10:26:41Z</time>
      </trkpt>
      <trkpt lat="43.66231" lon="3.31297">
        <ele>356</ele>
        <time>2021-06-05T10:26:42Z</time>
      </trkpt>
      <trkpt lat="43.66225" lon="3.31296">
        <ele>356</ele>
        <time>2021-06-05T10:26:43Z</time>
      </trkpt>
      <trkpt lat="43.66222" lon="3.31294">
        <ele>356</ele>
        <time>2021-06-05T10:26:44Z</time>
      </trkpt>
      <trkpt lat="43.66219" lon="3.31289">
        <ele>351</ele>
        <time>2021-06-05T10:26:45Z</time>
      </trkpt>
      <trkpt lat="43.66217" lon="3.31283">
        <ele>351</ele>
        <time>2021-06-05T10:26:46Z</time>
      </trkpt>
      <trkpt lat="43.66216" lon="3.31277">
        <ele>351</ele>
        <time>2021-06-05T10:26:47Z</time>
      </trkpt>
      <trkpt lat="43.66214" lon="3.3127">
        <ele>351</ele>
        <time>2021-06-05T10:26:48Z</time>
      </trkpt>
      <trkpt lat="43.66213" lon="3.31264">
        <ele>351</ele>
        <time>2021-06-05T10:26:49Z</time>
      </trkpt>
      <trkpt lat="43.66212" lon="3.31257">
        <ele>351</ele>
        <time>2021-06-05T10:26:50Z</time>
      </trkpt>
      <trkpt lat="43.66211" lon="3.31251">
        <ele>351</ele>
        <time>2021-06-05T10:26:51Z</time>
      </trkpt>
      <trkpt lat="43.6621" lon="3.31245">
        <ele>351</ele>
        <time>2021-06-05T10:26:52Z</time>
      </trkpt>
      <trkpt lat="43.6621" lon="3.31239">
        <ele>351</ele>
        <time>2021-06-05T10:26:53Z</time>
      </trkpt>
      <trkpt lat="43.66209" lon="3.31233">
        <ele>351</ele>
        <time>2021-06-05T10:26:54Z</time>
      </trkpt>
      <trkpt lat="43.66208" lon="3.31228">
        <ele>349</ele>
        <time>2021-06-05T10:26:55Z</time>
      </trkpt>
      <trkpt lat="43.66206" lon="3.31222">
        <ele>349</ele>
        <time>2021-06-05T10:26:56Z</time>
      </trkpt>
      <trkpt lat="43.66204" lon="3.31216">
        <ele>349</ele>
        <time>2021-06-05T10:26:57Z</time>
      </trkpt>
      <trkpt lat="43.66201" lon="3.31211">
        <ele>349</ele>
        <time>2021-06-05T10:26:58Z</time>
      </trkpt>
      <trkpt lat="43.66199" lon="3.31207">
        <ele>349</ele>
        <time>2021-06-05T10:26:59Z</time>
      </trkpt>
      <trkpt lat="43.66196" lon="3.31203">
        <ele>349</ele>
        <time>2021-06-05T10:27:00Z</time>
      </trkpt>
      <trkpt lat="43.66194" lon="3.31198">
        <ele>349</ele>
        <time>2021-06-05T10:27:01Z</time>
      </trkpt>
      <trkpt lat="43.66192" lon="3.31194">
        <ele>349</ele>
        <time>2021-06-05T10:27:02Z</time>
      </trkpt>
      <trkpt lat="43.66189" lon="3.31189">
        <ele>349</ele>
        <time>2021-06-05T10:27:03Z</time>
      </trkpt>
      <trkpt lat="43.66187" lon="3.31183">
        <ele>349</ele>
        <time>2021-06-05T10:27:04Z</time>
      </trkpt>
      <trkpt lat="43.66184" lon="3.31175">
        <ele>347</ele>
        <time>2021-06-05T10:27:05Z</time>
      </trkpt>
      <trkpt lat="43.66182" lon="3.31168">
        <ele>347</ele>
        <time>2021-06-05T10:27:06Z</time>
      </trkpt>
      <trkpt lat="43.66181" lon="3.31161">
        <ele>347</ele>
        <time>2021-06-05T10:27:07Z</time>
      </trkpt>
      <trkpt lat="43.66179" lon="3.31155">
        <ele>347</ele>
        <time>2021-06-05T10:27:08Z</time>
      </trkpt>
      <trkpt lat="43.66178" lon="3.3115">
        <ele>347</ele>
        <time>2021-06-05T10:27:09Z</time>
      </trkpt>
      <trkpt lat="43.66176" lon="3.31145">
        <ele>347</ele>
        <time>2021-06-05T10:27:10Z</time>
      </trkpt>
      <trkpt lat="43.66174" lon="3.31141">
        <ele>347</ele>
        <time>2021-06-05T10:27:11Z</time>
      </trkpt>
      <trkpt lat="43.6617" lon="3.31137">
        <ele>347</ele>
        <time>2021-06-05T10:27:12Z</time>
      </trkpt>
      <trkpt lat="43.66165" lon="3.31132">
        <ele>347</ele>
        <time>2021-06-05T10:27:13Z</time>
      </trkpt>
      <trkpt lat="43.66162" lon="3.31127">
        <ele>347</ele>
        <time>2021-06-05T10:27:14Z</time>
      </trkpt>
      <trkpt lat="43.6616" lon="3.31121">
        <ele>344</ele>
        <time>2021-06-05T10:27:15Z</time>
      </trkpt>
      <trkpt lat="43.66156" lon="3.31117">
        <ele>344</ele>
        <time>2021-06-05T10:27:16Z</time>
      </trkpt>
      <trkpt lat="43.66153" lon="3.31112">
        <ele>344</ele>
        <time>2021-06-05T10:27:17Z</time>
      </trkpt>
      <trkpt lat="43.66151" lon="3.31107">
        <ele>344</ele>
        <time>2021-06-05T10:27:18Z</time>
      </trkpt>
      <trkpt lat="43.66148" lon="3.311">
        <ele>344</ele>
        <time>2021-06-05T10:27:19Z</time>
      </trkpt>
      <trkpt lat="43.66146" lon="3.31096">
        <ele>344</ele>
        <time>2021-06-05T10:27:20Z</time>
      </trkpt>
      <trkpt lat="43.66144" lon="3.31092">
        <ele>344</ele>
        <time>2021-06-05T10:27:21Z</time>
      </trkpt>
      <trkpt lat="43.66142" lon="3.31089">
        <ele>344</ele>
        <time>2021-06-05T10:27:22Z</time>
      </trkpt>
      <trkpt lat="43.6614" lon="3.31087">
        <ele>344</ele>
        <time>2021-06-05T10:27:23Z</time>
      </trkpt>
      <trkpt lat="43.66138" lon="3.31083">
        <ele>344</ele>
        <time>2021-06-05T10:27:24Z</time>
      </trkpt>
      <trkpt lat="43.66136" lon="3.31078">
        <ele>342</ele>
        <time>2021-06-05T10:27:25Z</time>
      </trkpt>
      <trkpt lat="43.66136" lon="3.31073">
        <ele>342</ele>
        <time>2021-06-05T10:27:26Z</time>
      </trkpt>
      <trkpt lat="43.66136" lon="3.31067">
        <ele>342</ele>
        <time>2021-06-05T10:27:27Z</time>
      </trkpt>
      <trkpt lat="43.66136" lon="3.31062">
        <ele>342</ele>
        <time>2021-06-05T10:27:28Z</time>
      </trkpt>
      <trkpt lat="43.66135" lon="3.31056">
        <ele>342</ele>
        <time>2021-06-05T10:27:29Z</time>
      </trkpt>
      <trkpt lat="43.66134" lon="3.3105">
        <ele>342</ele>
        <time>2021-06-05T10:27:30Z</time>
      </trkpt>
      <trkpt lat="43.66133" lon="3.31043">
        <ele>342</ele>
        <time>2021-06-05T10:27:31Z</time>
      </trkpt>
      <trkpt lat="43.66133" lon="3.31036">
        <ele>342</ele>
        <time>2021-06-05T10:27:32Z</time>
      </trkpt>
      <trkpt lat="43.66133" lon="3.31029">
        <ele>342</ele>
        <time>2021-06-05T10:27:33Z</time>
      </trkpt>
      <trkpt lat="43.66133" lon="3.31021">
        <ele>342</ele>
        <time>2021-06-05T10:27:34Z</time>
      </trkpt>
      <trkpt lat="43.66133" lon="3.31014">
        <ele>337</ele>
        <time>2021-06-05T10:27:35Z</time>
      </trkpt>
      <trkpt lat="43.66132" lon="3.31008">
        <ele>337</ele>
        <time>2021-06-05T10:27:36Z</time>
      </trkpt>
      <trkpt lat="43.66132" lon="3.31001">
        <ele>337</ele>
        <time>2021-06-05T10:27:37Z</time>
      </trkpt>
      <trkpt lat="43.66133" lon="3.30994">
        <ele>337</ele>
        <time>2021-06-05T10:27:38Z</time>
      </trkpt>
      <trkpt lat="43.66133" lon="3.30989">
        <ele>337</ele>
        <time>2021-06-05T10:27:39Z</time>
      </trkpt>
      <trkpt lat="43.66133" lon="3.30985">
        <ele>337</ele>
        <time>2021-06-05T10:27:40Z</time>
      </trkpt>
      <trkpt lat="43.66133" lon="3.30982">
        <ele>337</ele>
        <time>2021-06-05T10:27:41Z</time>
      </trkpt>
      <trkpt lat="43.66134" lon="3.30998">
        <ele>329</ele>
        <time>2021-06-05T10:28:50Z</time>
      </trkpt>
      <trkpt lat="43.66134" lon="3.31002">
        <ele>329</ele>
        <time>2021-06-05T10:28:51Z</time>
      </trkpt>
      <trkpt lat="43.66134" lon="3.31006">
        <ele>329</ele>
        <time>2021-06-05T10:28:52Z</time>
      </trkpt>
      <trkpt lat="43.66134" lon="3.31013">
        <ele>329</ele>
        <time>2021-06-05T10:28:54Z</time>
      </trkpt>
      <trkpt lat="43.66134" lon="3.30982">
        <ele>333</ele>
        <time>2021-06-05T10:28:55Z</time>
      </trkpt>
      <trkpt lat="43.66134" lon="3.31017">
        <ele>329</ele>
        <time>2021-06-05T10:28:55Z</time>
      </trkpt>
      <trkpt lat="43.66134" lon="3.3102">
        <ele>329</ele>
        <time>2021-06-05T10:28:56Z</time>
      </trkpt>
      <trkpt lat="43.66134" lon="3.31024">
        <ele>329</ele>
        <time>2021-06-05T10:28:57Z</time>
      </trkpt>
      <trkpt lat="43.66134" lon="3.31027">
        <ele>329</ele>
        <time>2021-06-05T10:28:58Z</time>
      </trkpt>
      <trkpt lat="43.66134" lon="3.31031">
        <ele>329</ele>
        <time>2021-06-05T10:28:59Z</time>
      </trkpt>
      <trkpt lat="43.66134" lon="3.31034">
        <ele>330</ele>
        <time>2021-06-05T10:29:00Z</time>
      </trkpt>
      <trkpt lat="43.66134" lon="3.31037">
        <ele>330</ele>
        <time>2021-06-05T10:29:01Z</time>
      </trkpt>
      <trkpt lat="43.66134" lon="3.3104">
        <ele>330</ele>
        <time>2021-06-05T10:29:02Z</time>
      </trkpt>
      <trkpt lat="43.66134" lon="3.31043">
        <ele>330</ele>
        <time>2021-06-05T10:29:03Z</time>
      </trkpt>
      <trkpt lat="43.66135" lon="3.31046">
        <ele>330</ele>
        <time>2021-06-05T10:29:04Z</time>
      </trkpt>
      <trkpt lat="43.66136" lon="3.3105">
        <ele>330</ele>
        <time>2021-06-05T10:29:05Z</time>
      </trkpt>
      <trkpt lat="43.66136" lon="3.31053">
        <ele>330</ele>
        <time>2021-06-05T10:29:06Z</time>
      </trkpt>
      <trkpt lat="43.66136" lon="3.31056">
        <ele>330</ele>
        <time>2021-06-05T10:29:07Z</time>
      </trkpt>
      <trkpt lat="43.66136" lon="3.31059">
        <ele>330</ele>
        <time>2021-06-05T10:29:08Z</time>
      </trkpt>
      <trkpt lat="43.66136" lon="3.31062">
        <ele>330</ele>
        <time>2021-06-05T10:29:09Z</time>
      </trkpt>
      <trkpt lat="43.66137" lon="3.31064">
        <ele>330</ele>
        <time>2021-06-05T10:29:10Z</time>
      </trkpt>
      <trkpt lat="43.66137" lon="3.31067">
        <ele>330</ele>
        <time>2021-06-05T10:29:11Z</time>
      </trkpt>
      <trkpt lat="43.66138" lon="3.31069">
        <ele>330</ele>
        <time>2021-06-05T10:29:12Z</time>
      </trkpt>
      <trkpt lat="43.66139" lon="3.31072">
        <ele>330</ele>
        <time>2021-06-05T10:29:13Z</time>
      </trkpt>
      <trkpt lat="43.66139" lon="3.31074">
        <ele>330</ele>
        <time>2021-06-05T10:29:14Z</time>
      </trkpt>
      <trkpt lat="43.66139" lon="3.31077">
        <ele>330</ele>
        <time>2021-06-05T10:29:15Z</time>
      </trkpt>
      <trkpt lat="43.6614" lon="3.3108">
        <ele>330</ele>
        <time>2021-06-05T10:29:16Z</time>
      </trkpt>
      <trkpt lat="43.66141" lon="3.31082">
        <ele>330</ele>
        <time>2021-06-05T10:29:17Z</time>
      </trkpt>
      <trkpt lat="43.66143" lon="3.31086">
        <ele>330</ele>
        <time>2021-06-05T10:29:19Z</time>
      </trkpt>
      <trkpt lat="43.66145" lon="3.31089">
        <ele>331</ele>
        <time>2021-06-05T10:29:21Z</time>
      </trkpt>
      <trkpt lat="43.66148" lon="3.31091">
        <ele>331</ele>
        <time>2021-06-05T10:29:23Z</time>
      </trkpt>
      <trkpt lat="43.6615" lon="3.31094">
        <ele>331</ele>
        <time>2021-06-05T10:29:25Z</time>
      </trkpt>
      <trkpt lat="43.66152" lon="3.31098">
        <ele>331</ele>
        <time>2021-06-05T10:29:27Z</time>
      </trkpt>
      <trkpt lat="43.66153" lon="3.31101">
        <ele>331</ele>
        <time>2021-06-05T10:29:29Z</time>
      </trkpt>
      <trkpt lat="43.66154" lon="3.31104">
        <ele>332</ele>
        <time>2021-06-05T10:29:31Z</time>
      </trkpt>
      <trkpt lat="43.66156" lon="3.31107">
        <ele>332</ele>
        <time>2021-06-05T10:29:33Z</time>
      </trkpt>
      <trkpt lat="43.66158" lon="3.3111">
        <ele>332</ele>
        <time>2021-06-05T10:29:35Z</time>
      </trkpt>
      <trkpt lat="43.66158" lon="3.31112">
        <ele>332</ele>
        <time>2021-06-05T10:29:37Z</time>
      </trkpt>
      <trkpt lat="43.6616" lon="3.31115">
        <ele>332</ele>
        <time>2021-06-05T10:29:39Z</time>
      </trkpt>
      <trkpt lat="43.66161" lon="3.31118">
        <ele>334</ele>
        <time>2021-06-05T10:29:41Z</time>
      </trkpt>
      <trkpt lat="43.66162" lon="3.31121">
        <ele>334</ele>
        <time>2021-06-05T10:29:43Z</time>
      </trkpt>
      <trkpt lat="43.66164" lon="3.31124">
        <ele>334</ele>
        <time>2021-06-05T10:29:45Z</time>
      </trkpt>
      <trkpt lat="43.66165" lon="3.31127">
        <ele>334</ele>
        <time>2021-06-05T10:29:47Z</time>
      </trkpt>
      <trkpt lat="43.66167" lon="3.31129">
        <ele>334</ele>
        <time>2021-06-05T10:29:49Z</time>
      </trkpt>
      <trkpt lat="43.66169" lon="3.31131">
        <ele>336</ele>
        <time>2021-06-05T10:29:51Z</time>
      </trkpt>
      <trkpt lat="43.6617" lon="3.31133">
        <ele>336</ele>
        <time>2021-06-05T10:29:53Z</time>
      </trkpt>
      <trkpt lat="43.66172" lon="3.31135">
        <ele>336</ele>
        <time>2021-06-05T10:29:55Z</time>
      </trkpt>
      <trkpt lat="43.66174" lon="3.31137">
        <ele>336</ele>
        <time>2021-06-05T10:29:57Z</time>
      </trkpt>
      <trkpt lat="43.66176" lon="3.31139">
        <ele>336</ele>
        <time>2021-06-05T10:29:59Z</time>
      </trkpt>
      <trkpt lat="43.66177" lon="3.31141">
        <ele>338</ele>
        <time>2021-06-05T10:30:01Z</time>
      </trkpt>
      <trkpt lat="43.66178" lon="3.31144">
        <ele>338</ele>
        <time>2021-06-05T10:30:03Z</time>
      </trkpt>
      <trkpt lat="43.66179" lon="3.31146">
        <ele>338</ele>
        <time>2021-06-05T10:30:05Z</time>
      </trkpt>
      <trkpt lat="43.66181" lon="3.31149">
        <ele>338</ele>
        <time>2021-06-05T10:30:07Z</time>
      </trkpt>
      <trkpt lat="43.66182" lon="3.31152">
        <ele>338</ele>
        <time>2021-06-05T10:30:09Z</time>
      </trkpt>
      <trkpt lat="43.66183" lon="3.31156">
        <ele>339</ele>
        <time>2021-06-05T10:30:11Z</time>
      </trkpt>
      <trkpt lat="43.66183" lon="3.31159">
        <ele>339</ele>
        <time>2021-06-05T10:30:13Z</time>
      </trkpt>
      <trkpt lat="43.66183" lon="3.31162">
        <ele>339</ele>
        <time>2021-06-05T10:30:15Z</time>
      </trkpt>
      <trkpt lat="43.66183" lon="3.31165">
        <ele>339</ele>
        <time>2021-06-05T10:30:17Z</time>
      </trkpt>
      <trkpt lat="43.66185" lon="3.31168">
        <ele>342</ele>
        <time>2021-06-05T10:31:26Z</time>
      </trkpt>
      <trkpt lat="43.66185" lon="3.31172">
        <ele>342</ele>
        <time>2021-06-05T10:31:29Z</time>
      </trkpt>
      <trkpt lat="43.66185" lon="3.31173">
        <ele>342</ele>
        <time>2021-06-05T10:31:36Z</time>
      </trkpt>
      <trkpt lat="43.66185" lon="3.31164">
        <ele>341</ele>
        <time>2021-06-05T10:32:43Z</time>
      </trkpt>
      <trkpt lat="43.66184" lon="3.31162">
        <ele>341</ele>
        <time>2021-06-05T10:32:44Z</time>
      </trkpt>
      <trkpt lat="43.66183" lon="3.3116">
        <ele>341</ele>
        <time>2021-06-05T10:32:45Z</time>
      </trkpt>
      <trkpt lat="43.66182" lon="3.31158">
        <ele>341</ele>
        <time>2021-06-05T10:32:46Z</time>
      </trkpt>
      <trkpt lat="43.66182" lon="3.31154">
        <ele>341</ele>
        <time>2021-06-05T10:32:48Z</time>
      </trkpt>
      <trkpt lat="43.66179" lon="3.3115">
        <ele>341</ele>
        <time>2021-06-05T10:32:50Z</time>
      </trkpt>
      <trkpt lat="43.66178" lon="3.31147">
        <ele>341</ele>
        <time>2021-06-05T10:32:51Z</time>
      </trkpt>
      <trkpt lat="43.66177" lon="3.31145">
        <ele>341</ele>
        <time>2021-06-05T10:32:52Z</time>
      </trkpt>
      <trkpt lat="43.66176" lon="3.31143">
        <ele>341</ele>
        <time>2021-06-05T10:32:53Z</time>
      </trkpt>
      <trkpt lat="43.66174" lon="3.3114">
        <ele>340</ele>
        <time>2021-06-05T10:32:55Z</time>
      </trkpt>
      <trkpt lat="43.66171" lon="3.31137">
        <ele>340</ele>
        <time>2021-06-05T10:32:57Z</time>
      </trkpt>
      <trkpt lat="43.66169" lon="3.31134">
        <ele>340</ele>
        <time>2021-06-05T10:32:59Z</time>
      </trkpt>
      <trkpt lat="43.66167" lon="3.31132">
        <ele>340</ele>
        <time>2021-06-05T10:33:01Z</time>
      </trkpt>
      <trkpt lat="43.66165" lon="3.31132">
        <ele>339</ele>
        <time>2021-06-05T10:33:07Z</time>
      </trkpt>
      <trkpt lat="43.66164" lon="3.3113">
        <ele>338</ele>
        <time>2021-06-05T10:33:10Z</time>
      </trkpt>
      <trkpt lat="43.6616" lon="3.31124">
        <ele>338</ele>
        <time>2021-06-05T10:33:13Z</time>
      </trkpt>
      <trkpt lat="43.66159" lon="3.31121">
        <ele>338</ele>
        <time>2021-06-05T10:33:14Z</time>
      </trkpt>
      <trkpt lat="43.66158" lon="3.31119">
        <ele>338</ele>
        <time>2021-06-05T10:33:15Z</time>
      </trkpt>
      <trkpt lat="43.66156" lon="3.31115">
        <ele>338</ele>
        <time>2021-06-05T10:33:17Z</time>
      </trkpt>
      <trkpt lat="43.66155" lon="3.31112">
        <ele>338</ele>
        <time>2021-06-05T10:33:18Z</time>
      </trkpt>
      <trkpt lat="43.66154" lon="3.31109">
        <ele>338</ele>
        <time>2021-06-05T10:33:19Z</time>
      </trkpt>
      <trkpt lat="43.66152" lon="3.31105">
        <ele>338</ele>
        <time>2021-06-05T10:33:20Z</time>
      </trkpt>
      <trkpt lat="43.66151" lon="3.31101">
        <ele>338</ele>
        <time>2021-06-05T10:33:21Z</time>
      </trkpt>
      <trkpt lat="43.6615" lon="3.31098">
        <ele>338</ele>
        <time>2021-06-05T10:33:22Z</time>
      </trkpt>
      <trkpt lat="43.66148" lon="3.31095">
        <ele>338</ele>
        <time>2021-06-05T10:33:23Z</time>
      </trkpt>
      <trkpt lat="43.66147" lon="3.31093">
        <ele>337</ele>
        <time>2021-06-05T10:33:24Z</time>
      </trkpt>
      <trkpt lat="43.66146" lon="3.31092">
        <ele>337</ele>
        <time>2021-06-05T10:33:25Z</time>
      </trkpt>
      <trkpt lat="43.66145" lon="3.3109">
        <ele>337</ele>
        <time>2021-06-05T10:33:26Z</time>
      </trkpt>
      <trkpt lat="43.66143" lon="3.31088">
        <ele>337</ele>
        <time>2021-06-05T10:33:27Z</time>
      </trkpt>
      <trkpt lat="43.66141" lon="3.31086">
        <ele>337</ele>
        <time>2021-06-05T10:33:28Z</time>
      </trkpt>
      <trkpt lat="43.66141" lon="3.31084">
        <ele>337</ele>
        <time>2021-06-05T10:33:29Z</time>
      </trkpt>
      <trkpt lat="43.6614" lon="3.31083">
        <ele>334</ele>
        <time>2021-06-05T10:33:37Z</time>
      </trkpt>
      <trkpt lat="43.66138" lon="3.31073">
        <ele>333</ele>
        <time>2021-06-05T10:33:48Z</time>
      </trkpt>
      <trkpt lat="43.66137" lon="3.31069">
        <ele>333</ele>
        <time>2021-06-05T10:33:49Z</time>
      </trkpt>
      <trkpt lat="43.66137" lon="3.31065">
        <ele>333</ele>
        <time>2021-06-05T10:33:50Z</time>
      </trkpt>
      <trkpt lat="43.66137" lon="3.31061">
        <ele>333</ele>
        <time>2021-06-05T10:33:51Z</time>
      </trkpt>
      <trkpt lat="43.66136" lon="3.31058">
        <ele>333</ele>
        <time>2021-06-05T10:33:52Z</time>
      </trkpt>
      <trkpt lat="43.66137" lon="3.31057">
        <ele>332</ele>
        <time>2021-06-05T10:34:00Z</time>
      </trkpt>
      <trkpt lat="43.66135" lon="3.31051">
        <ele>332</ele>
        <time>2021-06-05T10:34:05Z</time>
      </trkpt>
      <trkpt lat="43.66134" lon="3.31046">
        <ele>332</ele>
        <time>2021-06-05T10:34:07Z</time>
      </trkpt>
      <trkpt lat="43.66134" lon="3.31042">
        <ele>332</ele>
        <time>2021-06-05T10:34:09Z</time>
      </trkpt>
      <trkpt lat="43.66134" lon="3.31038">
        <ele>332</ele>
        <time>2021-06-05T10:34:11Z</time>
      </trkpt>
      <trkpt lat="43.66134" lon="3.31034">
        <ele>332</ele>
        <time>2021-06-05T10:34:14Z</time>
      </trkpt>
      <trkpt lat="43.66134" lon="3.31031">
        <ele>330</ele>
        <time>2021-06-05T10:34:16Z</time>
      </trkpt>
      <trkpt lat="43.66134" lon="3.31027">
        <ele>330</ele>
        <time>2021-06-05T10:34:18Z</time>
      </trkpt>
      <trkpt lat="43.66134" lon="3.31023">
        <ele>330</ele>
        <time>2021-06-05T10:34:20Z</time>
      </trkpt>
      <trkpt lat="43.66134" lon="3.31019">
        <ele>330</ele>
        <time>2021-06-05T10:34:22Z</time>
      </trkpt>
      <trkpt lat="43.66133" lon="3.31015">
        <ele>330</ele>
        <time>2021-06-05T10:34:24Z</time>
      </trkpt>
      <trkpt lat="43.66133" lon="3.31011">
        <ele>330</ele>
        <time>2021-06-05T10:34:25Z</time>
      </trkpt>
      <trkpt lat="43.66133" lon="3.31007">
        <ele>330</ele>
        <time>2021-06-05T10:34:27Z</time>
      </trkpt>
      <trkpt lat="43.66133" lon="3.31004">
        <ele>330</ele>
        <time>2021-06-05T10:34:29Z</time>
      </trkpt>
      <trkpt lat="43.66133" lon="3.31">
        <ele>330</ele>
        <time>2021-06-05T10:34:31Z</time>
      </trkpt>
      <trkpt lat="43.66133" lon="3.30997">
        <ele>330</ele>
        <time>2021-06-05T10:34:34Z</time>
      </trkpt>
      <trkpt lat="43.66134" lon="3.30997">
        <ele>329</ele>
        <time>2021-06-05T10:34:41Z</time>
      </trkpt>
      <trkpt lat="43.66134" lon="3.30997">
        <ele>327</ele>
        <time>2021-06-05T10:44:04Z</time>
      </trkpt>
      <trkpt lat="43.66133" lon="3.30996">
        <ele>327</ele>
        <time>2021-06-05T10:44:09Z</time>
      </trkpt>
      <trkpt lat="43.66133" lon="3.30996">
        <ele>327</ele>
        <time>2021-06-05T10:44:10Z</time>
      </trkpt>
      <trkpt lat="43.66135" lon="3.30995">
        <ele>327</ele>
        <time>2021-06-05T11:03:08Z</time>
      </trkpt>
      <trkpt lat="43.66134" lon="3.30994">
        <ele>327</ele>
        <time>2021-06-05T11:03:13Z</time>
      </trkpt>
      <trkpt lat="43.66134" lon="3.30986">
        <ele>325</ele>
        <time>2021-06-05T11:05:37Z</time>
      </trkpt>
      <trkpt lat="43.66134" lon="3.30983">
        <ele>325</ele>
        <time>2021-06-05T11:05:38Z</time>
      </trkpt>
      <trkpt lat="43.66134" lon="3.3098">
        <ele>325</ele>
        <time>2021-06-05T11:05:39Z</time>
      </trkpt>
      <trkpt lat="43.66134" lon="3.30977">
        <ele>325</ele>
        <time>2021-06-05T11:05:40Z</time>
      </trkpt>
      <trkpt lat="43.66134" lon="3.30974">
        <ele>325</ele>
        <time>2021-06-05T11:05:41Z</time>
      </trkpt>
      <trkpt lat="43.66134" lon="3.3097">
        <ele>325</ele>
        <time>2021-06-05T11:05:42Z</time>
      </trkpt>
      <trkpt lat="43.66134" lon="3.30967">
        <ele>325</ele>
        <time>2021-06-05T11:05:43Z</time>
      </trkpt>
      <trkpt lat="43.66134" lon="3.30964">
        <ele>325</ele>
        <time>2021-06-05T11:05:44Z</time>
      </trkpt>
      <trkpt lat="43.66133" lon="3.30961">
        <ele>325</ele>
        <time>2021-06-05T11:05:45Z</time>
      </trkpt>
      <trkpt lat="43.66132" lon="3.30957">
        <ele>325</ele>
        <time>2021-06-05T11:05:46Z</time>
      </trkpt>
      <trkpt lat="43.66132" lon="3.30952">
        <ele>325</ele>
        <time>2021-06-05T11:05:47Z</time>
      </trkpt>
      <trkpt lat="43.66132" lon="3.30948">
        <ele>325</ele>
        <time>2021-06-05T11:05:48Z</time>
      </trkpt>
      <trkpt lat="43.66131" lon="3.30943">
        <ele>325</ele>
        <time>2021-06-05T11:05:49Z</time>
      </trkpt>
      <trkpt lat="43.6613" lon="3.30939">
        <ele>325</ele>
        <time>2021-06-05T11:05:50Z</time>
      </trkpt>
      <trkpt lat="43.6613" lon="3.30936">
        <ele>325</ele>
        <time>2021-06-05T11:05:51Z</time>
      </trkpt>
      <trkpt lat="43.6613" lon="3.30932">
        <ele>325</ele>
        <time>2021-06-05T11:05:52Z</time>
      </trkpt>
      <trkpt lat="43.6613" lon="3.30928">
        <ele>325</ele>
        <time>2021-06-05T11:05:53Z</time>
      </trkpt>
      <trkpt lat="43.6613" lon="3.30924">
        <ele>325</ele>
        <time>2021-06-05T11:05:54Z</time>
      </trkpt>
      <trkpt lat="43.6613" lon="3.30921">
        <ele>325</ele>
        <time>2021-06-05T11:05:55Z</time>
      </trkpt>
      <trkpt lat="43.66129" lon="3.30917">
        <ele>325</ele>
        <time>2021-06-05T11:05:56Z</time>
      </trkpt>
      <trkpt lat="43.66128" lon="3.30913">
        <ele>325</ele>
        <time>2021-06-05T11:05:57Z</time>
      </trkpt>
      <trkpt lat="43.66128" lon="3.3091">
        <ele>325</ele>
        <time>2021-06-05T11:05:57Z</time>
      </trkpt>
      <trkpt lat="43.66129" lon="3.30906">
        <ele>325</ele>
        <time>2021-06-05T11:05:58Z</time>
      </trkpt>
      <trkpt lat="43.66131" lon="3.30902">
        <ele>325</ele>
        <time>2021-06-05T11:05:59Z</time>
      </trkpt>
      <trkpt lat="43.66132" lon="3.30897">
        <ele>325</ele>
        <time>2021-06-05T11:06:00Z</time>
      </trkpt>
      <trkpt lat="43.66134" lon="3.30892">
        <ele>325</ele>
        <time>2021-06-05T11:06:01Z</time>
      </trkpt>
      <trkpt lat="43.66134" lon="3.30886">
        <ele>325</ele>
        <time>2021-06-05T11:06:02Z</time>
      </trkpt>
      <trkpt lat="43.66136" lon="3.30882">
        <ele>325</ele>
        <time>2021-06-05T11:06:04Z</time>
      </trkpt>
      <trkpt lat="43.66136" lon="3.30879">
        <ele>325</ele>
        <time>2021-06-05T11:06:04Z</time>
      </trkpt>
      <trkpt lat="43.66134" lon="3.30877">
        <ele>325</ele>
        <time>2021-06-05T11:06:05Z</time>
      </trkpt>
      <trkpt lat="43.66131" lon="3.30877">
        <ele>325</ele>
        <time>2021-06-05T11:06:06Z</time>
      </trkpt>
      <trkpt lat="43.66129" lon="3.30878">
        <ele>323</ele>
        <time>2021-06-05T11:06:08Z</time>
      </trkpt>
      <trkpt lat="43.66127" lon="3.30881">
        <ele>323</ele>
        <time>2021-06-05T11:06:09Z</time>
      </trkpt>
      <trkpt lat="43.66125" lon="3.30885">
        <ele>323</ele>
        <time>2021-06-05T11:06:10Z</time>
      </trkpt>
      <trkpt lat="43.66123" lon="3.3089">
        <ele>323</ele>
        <time>2021-06-05T11:06:11Z</time>
      </trkpt>
      <trkpt lat="43.6612" lon="3.30896">
        <ele>323</ele>
        <time>2021-06-05T11:06:12Z</time>
      </trkpt>
      <trkpt lat="43.66117" lon="3.30901">
        <ele>323</ele>
        <time>2021-06-05T11:06:13Z</time>
      </trkpt>
      <trkpt lat="43.66114" lon="3.30906">
        <ele>323</ele>
        <time>2021-06-05T11:06:14Z</time>
      </trkpt>
      <trkpt lat="43.66112" lon="3.30912">
        <ele>323</ele>
        <time>2021-06-05T11:06:15Z</time>
      </trkpt>
      <trkpt lat="43.6611" lon="3.30918">
        <ele>323</ele>
        <time>2021-06-05T11:06:16Z</time>
      </trkpt>
      <trkpt lat="43.66109" lon="3.30925">
        <ele>323</ele>
        <time>2021-06-05T11:06:17Z</time>
      </trkpt>
      <trkpt lat="43.66109" lon="3.30931">
        <ele>321</ele>
        <time>2021-06-05T11:06:18Z</time>
      </trkpt>
      <trkpt lat="43.66108" lon="3.30938">
        <ele>321</ele>
        <time>2021-06-05T11:06:19Z</time>
      </trkpt>
      <trkpt lat="43.66107" lon="3.30945">
        <ele>321</ele>
        <time>2021-06-05T11:06:20Z</time>
      </trkpt>
      <trkpt lat="43.66106" lon="3.30951">
        <ele>321</ele>
        <time>2021-06-05T11:06:21Z</time>
      </trkpt>
      <trkpt lat="43.66106" lon="3.30958">
        <ele>321</ele>
        <time>2021-06-05T11:06:22Z</time>
      </trkpt>
      <trkpt lat="43.66105" lon="3.30965">
        <ele>321</ele>
        <time>2021-06-05T11:06:23Z</time>
      </trkpt>
      <trkpt lat="43.66105" lon="3.30972">
        <ele>321</ele>
        <time>2021-06-05T11:06:24Z</time>
      </trkpt>
      <trkpt lat="43.66103" lon="3.3098">
        <ele>321</ele>
        <time>2021-06-05T11:06:25Z</time>
      </trkpt>
      <trkpt lat="43.66101" lon="3.30986">
        <ele>321</ele>
        <time>2021-06-05T11:06:26Z</time>
      </trkpt>
      <trkpt lat="43.66098" lon="3.30994">
        <ele>321</ele>
        <time>2021-06-05T11:06:27Z</time>
      </trkpt>
      <trkpt lat="43.66096" lon="3.31">
        <ele>319</ele>
        <time>2021-06-05T11:06:28Z</time>
      </trkpt>
      <trkpt lat="43.66094" lon="3.31008">
        <ele>319</ele>
        <time>2021-06-05T11:06:29Z</time>
      </trkpt>
      <trkpt lat="43.66093" lon="3.31016">
        <ele>319</ele>
        <time>2021-06-05T11:06:30Z</time>
      </trkpt>
      <trkpt lat="43.66091" lon="3.31023">
        <ele>319</ele>
        <time>2021-06-05T11:06:31Z</time>
      </trkpt>
      <trkpt lat="43.66086" lon="3.31036">
        <ele>319</ele>
        <time>2021-06-05T11:06:33Z</time>
      </trkpt>
      <trkpt lat="43.66081" lon="3.3105">
        <ele>319</ele>
        <time>2021-06-05T11:06:35Z</time>
      </trkpt>
      <trkpt lat="43.66074" lon="3.31064">
        <ele>319</ele>
        <time>2021-06-05T11:06:37Z</time>
      </trkpt>
      <trkpt lat="43.66072" lon="3.31069">
        <ele>317</ele>
        <time>2021-06-05T11:06:38Z</time>
      </trkpt>
      <trkpt lat="43.66069" lon="3.31074">
        <ele>317</ele>
        <time>2021-06-05T11:06:39Z</time>
      </trkpt>
      <trkpt lat="43.66068" lon="3.3108">
        <ele>317</ele>
        <time>2021-06-05T11:06:40Z</time>
      </trkpt>
      <trkpt lat="43.66065" lon="3.31084">
        <ele>317</ele>
        <time>2021-06-05T11:06:41Z</time>
      </trkpt>
      <trkpt lat="43.66065" lon="3.31086">
        <ele>317</ele>
        <time>2021-06-05T11:06:42Z</time>
      </trkpt>
      <trkpt lat="43.66067" lon="3.31088">
        <ele>314</ele>
        <time>2021-06-05T11:06:50Z</time>
      </trkpt>
      <trkpt lat="43.66067" lon="3.31089">
        <ele>314</ele>
        <time>2021-06-05T11:06:53Z</time>
      </trkpt>
      <trkpt lat="43.66062" lon="3.31101">
        <ele>313</ele>
        <time>2021-06-05T11:07:01Z</time>
      </trkpt>
      <trkpt lat="43.66062" lon="3.31105">
        <ele>313</ele>
        <time>2021-06-05T11:07:01Z</time>
      </trkpt>
      <trkpt lat="43.66061" lon="3.31109">
        <ele>313</ele>
        <time>2021-06-05T11:07:02Z</time>
      </trkpt>
      <trkpt lat="43.66059" lon="3.31114">
        <ele>313</ele>
        <time>2021-06-05T11:07:03Z</time>
      </trkpt>
      <trkpt lat="43.66058" lon="3.31119">
        <ele>313</ele>
        <time>2021-06-05T11:07:04Z</time>
      </trkpt>
      <trkpt lat="43.66056" lon="3.31124">
        <ele>313</ele>
        <time>2021-06-05T11:07:05Z</time>
      </trkpt>
      <trkpt lat="43.66052" lon="3.31128">
        <ele>313</ele>
        <time>2021-06-05T11:07:06Z</time>
      </trkpt>
      <trkpt lat="43.66049" lon="3.31132">
        <ele>313</ele>
        <time>2021-06-05T11:07:07Z</time>
      </trkpt>
      <trkpt lat="43.66046" lon="3.31137">
        <ele>313</ele>
        <time>2021-06-05T11:07:08Z</time>
      </trkpt>
      <trkpt lat="43.66043" lon="3.3114">
        <ele>313</ele>
        <time>2021-06-05T11:07:09Z</time>
      </trkpt>
      <trkpt lat="43.66039" lon="3.31144">
        <ele>313</ele>
        <time>2021-06-05T11:07:10Z</time>
      </trkpt>
      <trkpt lat="43.66036" lon="3.31147">
        <ele>311</ele>
        <time>2021-06-05T11:07:11Z</time>
      </trkpt>
      <trkpt lat="43.66033" lon="3.3115">
        <ele>311</ele>
        <time>2021-06-05T11:07:12Z</time>
      </trkpt>
      <trkpt lat="43.6603" lon="3.31153">
        <ele>311</ele>
        <time>2021-06-05T11:07:13Z</time>
      </trkpt>
      <trkpt lat="43.66027" lon="3.31156">
        <ele>311</ele>
        <time>2021-06-05T11:07:14Z</time>
      </trkpt>
      <trkpt lat="43.66025" lon="3.31159">
        <ele>311</ele>
        <time>2021-06-05T11:07:15Z</time>
      </trkpt>
      <trkpt lat="43.66023" lon="3.31163">
        <ele>311</ele>
        <time>2021-06-05T11:07:16Z</time>
      </trkpt>
      <trkpt lat="43.6602" lon="3.31169">
        <ele>311</ele>
        <time>2021-06-05T11:07:17Z</time>
      </trkpt>
      <trkpt lat="43.66019" lon="3.31175">
        <ele>311</ele>
        <time>2021-06-05T11:07:18Z</time>
      </trkpt>
      <trkpt lat="43.66018" lon="3.31183">
        <ele>311</ele>
        <time>2021-06-05T11:07:19Z</time>
      </trkpt>
      <trkpt lat="43.66016" lon="3.31191">
        <ele>311</ele>
        <time>2021-06-05T11:07:20Z</time>
      </trkpt>
      <trkpt lat="43.66015" lon="3.31199">
        <ele>306</ele>
        <time>2021-06-05T11:07:21Z</time>
      </trkpt>
      <trkpt lat="43.66014" lon="3.31205">
        <ele>306</ele>
        <time>2021-06-05T11:07:22Z</time>
      </trkpt>
      <trkpt lat="43.66012" lon="3.3121">
        <ele>306</ele>
        <time>2021-06-05T11:07:23Z</time>
      </trkpt>
      <trkpt lat="43.66008" lon="3.31213">
        <ele>306</ele>
        <time>2021-06-05T11:07:24Z</time>
      </trkpt>
      <trkpt lat="43.66005" lon="3.31215">
        <ele>306</ele>
        <time>2021-06-05T11:07:25Z</time>
      </trkpt>
      <trkpt lat="43.66001" lon="3.31216">
        <ele>306</ele>
        <time>2021-06-05T11:07:26Z</time>
      </trkpt>
      <trkpt lat="43.65997" lon="3.31216">
        <ele>306</ele>
        <time>2021-06-05T11:07:27Z</time>
      </trkpt>
      <trkpt lat="43.65992" lon="3.31215">
        <ele>306</ele>
        <time>2021-06-05T11:07:28Z</time>
      </trkpt>
      <trkpt lat="43.65988" lon="3.31213">
        <ele>306</ele>
        <time>2021-06-05T11:07:29Z</time>
      </trkpt>
      <trkpt lat="43.65983" lon="3.31209">
        <ele>306</ele>
        <time>2021-06-05T11:07:30Z</time>
      </trkpt>
      <trkpt lat="43.65979" lon="3.31204">
        <ele>299</ele>
        <time>2021-06-05T11:07:31Z</time>
      </trkpt>
      <trkpt lat="43.65976" lon="3.31198">
        <ele>299</ele>
        <time>2021-06-05T11:07:32Z</time>
      </trkpt>
      <trkpt lat="43.65973" lon="3.31192">
        <ele>299</ele>
        <time>2021-06-05T11:07:33Z</time>
      </trkpt>
      <trkpt lat="43.65969" lon="3.31185">
        <ele>299</ele>
        <time>2021-06-05T11:07:34Z</time>
      </trkpt>
      <trkpt lat="43.65966" lon="3.31178">
        <ele>299</ele>
        <time>2021-06-05T11:07:35Z</time>
      </trkpt>
      <trkpt lat="43.65963" lon="3.3117">
        <ele>299</ele>
        <time>2021-06-05T11:07:36Z</time>
      </trkpt>
      <trkpt lat="43.65961" lon="3.31163">
        <ele>299</ele>
        <time>2021-06-05T11:07:37Z</time>
      </trkpt>
      <trkpt lat="43.65959" lon="3.31156">
        <ele>299</ele>
        <time>2021-06-05T11:07:38Z</time>
      </trkpt>
      <trkpt lat="43.65957" lon="3.3115">
        <ele>299</ele>
        <time>2021-06-05T11:07:39Z</time>
      </trkpt>
      <trkpt lat="43.65956" lon="3.31144">
        <ele>299</ele>
        <time>2021-06-05T11:07:40Z</time>
      </trkpt>
      <trkpt lat="43.65954" lon="3.31139">
        <ele>290</ele>
        <time>2021-06-05T11:07:41Z</time>
      </trkpt>
      <trkpt lat="43.65953" lon="3.31134">
        <ele>290</ele>
        <time>2021-06-05T11:07:42Z</time>
      </trkpt>
      <trkpt lat="43.65952" lon="3.31128">
        <ele>290</ele>
        <time>2021-06-05T11:07:43Z</time>
      </trkpt>
      <trkpt lat="43.65951" lon="3.31121">
        <ele>290</ele>
        <time>2021-06-05T11:07:44Z</time>
      </trkpt>
      <trkpt lat="43.65952" lon="3.31115">
        <ele>290</ele>
        <time>2021-06-05T11:07:45Z</time>
      </trkpt>
      <trkpt lat="43.65952" lon="3.31109">
        <ele>290</ele>
        <time>2021-06-05T11:07:46Z</time>
      </trkpt>
      <trkpt lat="43.65953" lon="3.31102">
        <ele>290</ele>
        <time>2021-06-05T11:07:47Z</time>
      </trkpt>
      <trkpt lat="43.65952" lon="3.31096">
        <ele>290</ele>
        <time>2021-06-05T11:07:48Z</time>
      </trkpt>
      <trkpt lat="43.65951" lon="3.31091">
        <ele>290</ele>
        <time>2021-06-05T11:07:49Z</time>
      </trkpt>
      <trkpt lat="43.65949" lon="3.31086">
        <ele>290</ele>
        <time>2021-06-05T11:07:50Z</time>
      </trkpt>
      <trkpt lat="43.65946" lon="3.31082">
        <ele>284</ele>
        <time>2021-06-05T11:07:51Z</time>
      </trkpt>
      <trkpt lat="43.65941" lon="3.31078">
        <ele>284</ele>
        <time>2021-06-05T11:07:52Z</time>
      </trkpt>
      <trkpt lat="43.65936" lon="3.31073">
        <ele>284</ele>
        <time>2021-06-05T11:07:53Z</time>
      </trkpt>
      <trkpt lat="43.6593" lon="3.31068">
        <ele>284</ele>
        <time>2021-06-05T11:07:54Z</time>
      </trkpt>
      <trkpt lat="43.65924" lon="3.31063">
        <ele>284</ele>
        <time>2021-06-05T11:07:55Z</time>
      </trkpt>
      <trkpt lat="43.65919" lon="3.31057">
        <ele>284</ele>
        <time>2021-06-05T11:07:56Z</time>
      </trkpt>
      <trkpt lat="43.65914" lon="3.31051">
        <ele>284</ele>
        <time>2021-06-05T11:07:57Z</time>
      </trkpt>
      <trkpt lat="43.6591" lon="3.31047">
        <ele>284</ele>
        <time>2021-06-05T11:07:58Z</time>
      </trkpt>
      <trkpt lat="43.65908" lon="3.31044">
        <ele>284</ele>
        <time>2021-06-05T11:07:59Z</time>
      </trkpt>
      <trkpt lat="43.6591" lon="3.31043">
        <ele>278</ele>
        <time>2021-06-05T11:08:03Z</time>
      </trkpt>
      <trkpt lat="43.65911" lon="3.31046">
        <ele>278</ele>
        <time>2021-06-05T11:08:08Z</time>
      </trkpt>
      <trkpt lat="43.65912" lon="3.31047">
        <ele>274</ele>
        <time>2021-06-05T11:08:15Z</time>
      </trkpt>
      <trkpt lat="43.65921" lon="3.31054">
        <ele>270</ele>
        <time>2021-06-05T11:10:43Z</time>
      </trkpt>
      <trkpt lat="43.65922" lon="3.31056">
        <ele>270</ele>
        <time>2021-06-05T11:10:43Z</time>
      </trkpt>
      <trkpt lat="43.65924" lon="3.31058">
        <ele>270</ele>
        <time>2021-06-05T11:10:45Z</time>
      </trkpt>
      <trkpt lat="43.65927" lon="3.31062">
        <ele>270</ele>
        <time>2021-06-05T11:10:47Z</time>
      </trkpt>
      <trkpt lat="43.65928" lon="3.31063">
        <ele>270</ele>
        <time>2021-06-05T11:10:48Z</time>
      </trkpt>
      <trkpt lat="43.6593" lon="3.31065">
        <ele>270</ele>
        <time>2021-06-05T11:10:49Z</time>
      </trkpt>
      <trkpt lat="43.65932" lon="3.31066">
        <ele>270</ele>
        <time>2021-06-05T11:10:50Z</time>
      </trkpt>
      <trkpt lat="43.65935" lon="3.31068">
        <ele>270</ele>
        <time>2021-06-05T11:10:52Z</time>
      </trkpt>
      <trkpt lat="43.65937" lon="3.3107">
        <ele>270</ele>
        <time>2021-06-05T11:10:53Z</time>
      </trkpt>
      <trkpt lat="43.65939" lon="3.31072">
        <ele>270</ele>
        <time>2021-06-05T11:10:55Z</time>
      </trkpt>
      <trkpt lat="43.65942" lon="3.31074">
        <ele>270</ele>
        <time>2021-06-05T11:10:57Z</time>
      </trkpt>
      <trkpt lat="43.65944" lon="3.31075">
        <ele>270</ele>
        <time>2021-06-05T11:10:59Z</time>
      </trkpt>
      <trkpt lat="43.65947" lon="3.31078">
        <ele>270</ele>
        <time>2021-06-05T11:11:01Z</time>
      </trkpt>
      <trkpt lat="43.6595" lon="3.3108">
        <ele>270</ele>
        <time>2021-06-05T11:11:02Z</time>
      </trkpt>
      <trkpt lat="43.65952" lon="3.31082">
        <ele>270</ele>
        <time>2021-06-05T11:11:04Z</time>
      </trkpt>
      <trkpt lat="43.65954" lon="3.31085">
        <ele>270</ele>
        <time>2021-06-05T11:11:06Z</time>
      </trkpt>
      <trkpt lat="43.65956" lon="3.31087">
        <ele>270</ele>
        <time>2021-06-05T11:11:08Z</time>
      </trkpt>
      <trkpt lat="43.65958" lon="3.3109">
        <ele>270</ele>
        <time>2021-06-05T11:11:11Z</time>
      </trkpt>
      <trkpt lat="43.6596" lon="3.31093">
        <ele>271</ele>
        <time>2021-06-05T11:11:13Z</time>
      </trkpt>
      <trkpt lat="43.65961" lon="3.31096">
        <ele>271</ele>
        <time>2021-06-05T11:11:15Z</time>
      </trkpt>
      <trkpt lat="43.65962" lon="3.31099">
        <ele>271</ele>
        <time>2021-06-05T11:11:17Z</time>
      </trkpt>
      <trkpt lat="43.65962" lon="3.31102">
        <ele>271</ele>
        <time>2021-06-05T11:11:19Z</time>
      </trkpt>
      <trkpt lat="43.65962" lon="3.31106">
        <ele>271</ele>
        <time>2021-06-05T11:11:21Z</time>
      </trkpt>
      <trkpt lat="43.65962" lon="3.3111">
        <ele>271</ele>
        <time>2021-06-05T11:11:23Z</time>
      </trkpt>
      <trkpt lat="43.65962" lon="3.31114">
        <ele>271</ele>
        <time>2021-06-05T11:11:24Z</time>
      </trkpt>
      <trkpt lat="43.65961" lon="3.31118">
        <ele>271</ele>
        <time>2021-06-05T11:11:26Z</time>
      </trkpt>
      <trkpt lat="43.65961" lon="3.31121">
        <ele>271</ele>
        <time>2021-06-05T11:11:28Z</time>
      </trkpt>
      <trkpt lat="43.65961" lon="3.31125">
        <ele>271</ele>
        <time>2021-06-05T11:11:30Z</time>
      </trkpt>
      <trkpt lat="43.6596" lon="3.31129">
        <ele>272</ele>
        <time>2021-06-05T11:11:33Z</time>
      </trkpt>
      <trkpt lat="43.65961" lon="3.31132">
        <ele>272</ele>
        <time>2021-06-05T11:11:35Z</time>
      </trkpt>
      <trkpt lat="43.65961" lon="3.31136">
        <ele>272</ele>
        <time>2021-06-05T11:11:37Z</time>
      </trkpt>
      <trkpt lat="43.65962" lon="3.31139">
        <ele>272</ele>
        <time>2021-06-05T11:11:39Z</time>
      </trkpt>
      <trkpt lat="43.65962" lon="3.31142">
        <ele>272</ele>
        <time>2021-06-05T11:11:41Z</time>
      </trkpt>
      <trkpt lat="43.65964" lon="3.31145">
        <ele>274</ele>
        <time>2021-06-05T11:11:43Z</time>
      </trkpt>
      <trkpt lat="43.65965" lon="3.31148">
        <ele>274</ele>
        <time>2021-06-05T11:11:45Z</time>
      </trkpt>
      <trkpt lat="43.65966" lon="3.31151">
        <ele>274</ele>
        <time>2021-06-05T11:11:47Z</time>
      </trkpt>
      <trkpt lat="43.65967" lon="3.31154">
        <ele>274</ele>
        <time>2021-06-05T11:11:49Z</time>
      </trkpt>
      <trkpt lat="43.65968" lon="3.31156">
        <ele>274</ele>
        <time>2021-06-05T11:11:51Z</time>
      </trkpt>
      <trkpt lat="43.65968" lon="3.31159">
        <ele>275</ele>
        <time>2021-06-05T11:11:53Z</time>
      </trkpt>
      <trkpt lat="43.6597" lon="3.31161">
        <ele>275</ele>
        <time>2021-06-05T11:11:55Z</time>
      </trkpt>
      <trkpt lat="43.6597" lon="3.31164">
        <ele>275</ele>
        <time>2021-06-05T11:11:57Z</time>
      </trkpt>
      <trkpt lat="43.6597" lon="3.31166">
        <ele>275</ele>
        <time>2021-06-05T11:11:59Z</time>
      </trkpt>
      <trkpt lat="43.6597" lon="3.31169">
        <ele>275</ele>
        <time>2021-06-05T11:12:01Z</time>
      </trkpt>
      <trkpt lat="43.6597" lon="3.31172">
        <ele>276</ele>
        <time>2021-06-05T11:12:02Z</time>
      </trkpt>
      <trkpt lat="43.65971" lon="3.31175">
        <ele>276</ele>
        <time>2021-06-05T11:12:05Z</time>
      </trkpt>
      <trkpt lat="43.65971" lon="3.31178">
        <ele>276</ele>
        <time>2021-06-05T11:12:07Z</time>
      </trkpt>
      <trkpt lat="43.6597" lon="3.31182">
        <ele>276</ele>
        <time>2021-06-05T11:12:10Z</time>
      </trkpt>
      <trkpt lat="43.6597" lon="3.31182">
        <ele>277</ele>
        <time>2021-06-05T11:12:18Z</time>
      </trkpt>
      <trkpt lat="43.65972" lon="3.31191">
        <ele>278</ele>
        <time>2021-06-05T11:12:30Z</time>
      </trkpt>
      <trkpt lat="43.65972" lon="3.31194">
        <ele>278</ele>
        <time>2021-06-05T11:12:31Z</time>
      </trkpt>
      <trkpt lat="43.65972" lon="3.31197">
        <ele>278</ele>
        <time>2021-06-05T11:12:32Z</time>
      </trkpt>
      <trkpt lat="43.65972" lon="3.31201">
        <ele>278</ele>
        <time>2021-06-05T11:12:32Z</time>
      </trkpt>
      <trkpt lat="43.65973" lon="3.31204">
        <ele>278</ele>
        <time>2021-06-05T11:12:33Z</time>
      </trkpt>
      <trkpt lat="43.65973" lon="3.31207">
        <ele>278</ele>
        <time>2021-06-05T11:12:34Z</time>
      </trkpt>
      <trkpt lat="43.65973" lon="3.3121">
        <ele>278</ele>
        <time>2021-06-05T11:12:35Z</time>
      </trkpt>
      <trkpt lat="43.65973" lon="3.31214">
        <ele>278</ele>
        <time>2021-06-05T11:12:36Z</time>
      </trkpt>
      <trkpt lat="43.65973" lon="3.31217">
        <ele>278</ele>
        <time>2021-06-05T11:12:37Z</time>
      </trkpt>
      <trkpt lat="43.65973" lon="3.31219">
        <ele>278</ele>
        <time>2021-06-05T11:12:38Z</time>
      </trkpt>
      <trkpt lat="43.65974" lon="3.31222">
        <ele>278</ele>
        <time>2021-06-05T11:12:39Z</time>
      </trkpt>
      <trkpt lat="43.65975" lon="3.31225">
        <ele>278</ele>
        <time>2021-06-05T11:12:41Z</time>
      </trkpt>
      <trkpt lat="43.65975" lon="3.31227">
        <ele>278</ele>
        <time>2021-06-05T11:12:42Z</time>
      </trkpt>
      <trkpt lat="43.65976" lon="3.3123">
        <ele>278</ele>
        <time>2021-06-05T11:12:43Z</time>
      </trkpt>
      <trkpt lat="43.65977" lon="3.31233">
        <ele>278</ele>
        <time>2021-06-05T11:12:44Z</time>
      </trkpt>
      <trkpt lat="43.65978" lon="3.31236">
        <ele>278</ele>
        <time>2021-06-05T11:12:45Z</time>
      </trkpt>
      <trkpt lat="43.65979" lon="3.31239">
        <ele>278</ele>
        <time>2021-06-05T11:12:46Z</time>
      </trkpt>
      <trkpt lat="43.65981" lon="3.31241">
        <ele>278</ele>
        <time>2021-06-05T11:12:47Z</time>
      </trkpt>
      <trkpt lat="43.65982" lon="3.31243">
        <ele>278</ele>
        <time>2021-06-05T11:12:48Z</time>
      </trkpt>
      <trkpt lat="43.65982" lon="3.31245">
        <ele>278</ele>
        <time>2021-06-05T11:12:49Z</time>
      </trkpt>
      <trkpt lat="43.65984" lon="3.31247">
        <ele>278</ele>
        <time>2021-06-05T11:12:50Z</time>
      </trkpt>
      <trkpt lat="43.65986" lon="3.31251">
        <ele>277</ele>
        <time>2021-06-05T11:12:52Z</time>
      </trkpt>
      <trkpt lat="43.65988" lon="3.31253">
        <ele>277</ele>
        <time>2021-06-05T11:12:53Z</time>
      </trkpt>
      <trkpt lat="43.65989" lon="3.31255">
        <ele>277</ele>
        <time>2021-06-05T11:12:54Z</time>
      </trkpt>
      <trkpt lat="43.6599" lon="3.31258">
        <ele>277</ele>
        <time>2021-06-05T11:12:55Z</time>
      </trkpt>
      <trkpt lat="43.6599" lon="3.3126">
        <ele>277</ele>
        <time>2021-06-05T11:12:56Z</time>
      </trkpt>
      <trkpt lat="43.65991" lon="3.31262">
        <ele>277</ele>
        <time>2021-06-05T11:12:57Z</time>
      </trkpt>
      <trkpt lat="43.65992" lon="3.31264">
        <ele>277</ele>
        <time>2021-06-05T11:12:58Z</time>
      </trkpt>
      <trkpt lat="43.65993" lon="3.31267">
        <ele>277</ele>
        <time>2021-06-05T11:12:59Z</time>
      </trkpt>
      <trkpt lat="43.65995" lon="3.31268">
        <ele>277</ele>
        <time>2021-06-05T11:13:00Z</time>
      </trkpt>
      <trkpt lat="43.65996" lon="3.3127">
        <ele>278</ele>
        <time>2021-06-05T11:13:00Z</time>
      </trkpt>
      <trkpt lat="43.65998" lon="3.31272">
        <ele>278</ele>
        <time>2021-06-05T11:13:01Z</time>
      </trkpt>
      <trkpt lat="43.66" lon="3.31275">
        <ele>278</ele>
        <time>2021-06-05T11:13:03Z</time>
      </trkpt>
      <trkpt lat="43.66002" lon="3.31279">
        <ele>278</ele>
        <time>2021-06-05T11:13:06Z</time>
      </trkpt>
      <trkpt lat="43.66004" lon="3.31281">
        <ele>278</ele>
        <time>2021-06-05T11:13:07Z</time>
      </trkpt>
      <trkpt lat="43.66006" lon="3.31284">
        <ele>278</ele>
        <time>2021-06-05T11:13:09Z</time>
      </trkpt>
      <trkpt lat="43.66008" lon="3.31288">
        <ele>278</ele>
        <time>2021-06-05T11:13:12Z</time>
      </trkpt>
      <trkpt lat="43.6601" lon="3.3129">
        <ele>278</ele>
        <time>2021-06-05T11:13:14Z</time>
      </trkpt>
      <trkpt lat="43.66013" lon="3.31293">
        <ele>278</ele>
        <time>2021-06-05T11:13:16Z</time>
      </trkpt>
      <trkpt lat="43.66016" lon="3.31297">
        <ele>278</ele>
        <time>2021-06-05T11:13:18Z</time>
      </trkpt>
      <trkpt lat="43.66018" lon="3.31301">
        <ele>278</ele>
        <time>2021-06-05T11:13:20Z</time>
      </trkpt>
      <trkpt lat="43.6602" lon="3.31305">
        <ele>280</ele>
        <time>2021-06-05T11:13:22Z</time>
      </trkpt>
      <trkpt lat="43.66022" lon="3.31309">
        <ele>280</ele>
        <time>2021-06-05T11:13:24Z</time>
      </trkpt>
      <trkpt lat="43.66024" lon="3.31312">
        <ele>280</ele>
        <time>2021-06-05T11:13:26Z</time>
      </trkpt>
      <trkpt lat="43.66025" lon="3.31316">
        <ele>280</ele>
        <time>2021-06-05T11:13:28Z</time>
      </trkpt>
      <trkpt lat="43.66025" lon="3.31321">
        <ele>280</ele>
        <time>2021-06-05T11:13:30Z</time>
      </trkpt>
      <trkpt lat="43.66025" lon="3.31323">
        <ele>280</ele>
        <time>2021-06-05T11:13:31Z</time>
      </trkpt>
      <trkpt lat="43.66025" lon="3.31326">
        <ele>280</ele>
        <time>2021-06-05T11:13:32Z</time>
      </trkpt>
      <trkpt lat="43.66024" lon="3.31328">
        <ele>280</ele>
        <time>2021-06-05T11:13:33Z</time>
      </trkpt>
      <trkpt lat="43.66024" lon="3.31331">
        <ele>280</ele>
        <time>2021-06-05T11:13:34Z</time>
      </trkpt>
      <trkpt lat="43.66024" lon="3.31333">
        <ele>280</ele>
        <time>2021-06-05T11:13:35Z</time>
      </trkpt>
      <trkpt lat="43.66023" lon="3.31336">
        <ele>280</ele>
        <time>2021-06-05T11:13:36Z</time>
      </trkpt>
      <trkpt lat="43.66023" lon="3.31338">
        <ele>280</ele>
        <time>2021-06-05T11:13:37Z</time>
      </trkpt>
      <trkpt lat="43.66023" lon="3.31341">
        <ele>280</ele>
        <time>2021-06-05T11:13:38Z</time>
      </trkpt>
      <trkpt lat="43.66022" lon="3.31343">
        <ele>280</ele>
        <time>2021-06-05T11:13:39Z</time>
      </trkpt>
      <trkpt lat="43.66021" lon="3.31348">
        <ele>281</ele>
        <time>2021-06-05T11:13:41Z</time>
      </trkpt>
      <trkpt lat="43.6602" lon="3.31352">
        <ele>281</ele>
        <time>2021-06-05T11:13:43Z</time>
      </trkpt>
      <trkpt lat="43.66019" lon="3.31355">
        <ele>281</ele>
        <time>2021-06-05T11:13:45Z</time>
      </trkpt>
      <trkpt lat="43.66017" lon="3.31359">
        <ele>281</ele>
        <time>2021-06-05T11:13:47Z</time>
      </trkpt>
      <trkpt lat="43.66015" lon="3.31361">
        <ele>281</ele>
        <time>2021-06-05T11:13:49Z</time>
      </trkpt>
      <trkpt lat="43.66013" lon="3.31363">
        <ele>281</ele>
        <time>2021-06-05T11:13:50Z</time>
      </trkpt>
      <trkpt lat="43.66011" lon="3.31365">
        <ele>280</ele>
        <time>2021-06-05T11:13:51Z</time>
      </trkpt>
      <trkpt lat="43.66008" lon="3.31367">
        <ele>280</ele>
        <time>2021-06-05T11:13:52Z</time>
      </trkpt>
      <trkpt lat="43.66006" lon="3.3137">
        <ele>280</ele>
        <time>2021-06-05T11:13:53Z</time>
      </trkpt>
      <trkpt lat="43.66005" lon="3.31372">
        <ele>280</ele>
        <time>2021-06-05T11:13:54Z</time>
      </trkpt>
      <trkpt lat="43.66003" lon="3.31375">
        <ele>280</ele>
        <time>2021-06-05T11:13:55Z</time>
      </trkpt>
      <trkpt lat="43.66" lon="3.31377">
        <ele>280</ele>
        <time>2021-06-05T11:13:56Z</time>
      </trkpt>
      <trkpt lat="43.65998" lon="3.31379">
        <ele>280</ele>
        <time>2021-06-05T11:13:57Z</time>
      </trkpt>
      <trkpt lat="43.65995" lon="3.31382">
        <ele>280</ele>
        <time>2021-06-05T11:13:59Z</time>
      </trkpt>
      <trkpt lat="43.65993" lon="3.31384">
        <ele>280</ele>
        <time>2021-06-05T11:14:00Z</time>
      </trkpt>
      <trkpt lat="43.65992" lon="3.31386">
        <ele>279</ele>
        <time>2021-06-05T11:14:01Z</time>
      </trkpt>
      <trkpt lat="43.6599" lon="3.31389">
        <ele>279</ele>
        <time>2021-06-05T11:14:02Z</time>
      </trkpt>
      <trkpt lat="43.65989" lon="3.31391">
        <ele>279</ele>
        <time>2021-06-05T11:14:03Z</time>
      </trkpt>
      <trkpt lat="43.65987" lon="3.31394">
        <ele>279</ele>
        <time>2021-06-05T11:14:04Z</time>
      </trkpt>
      <trkpt lat="43.65986" lon="3.31397">
        <ele>279</ele>
        <time>2021-06-05T11:14:05Z</time>
      </trkpt>
      <trkpt lat="43.65984" lon="3.31398">
        <ele>279</ele>
        <time>2021-06-05T11:14:07Z</time>
      </trkpt>
      <trkpt lat="43.65982" lon="3.31401">
        <ele>279</ele>
        <time>2021-06-05T11:14:09Z</time>
      </trkpt>
      <trkpt lat="43.6598" lon="3.31404">
        <ele>277</ele>
        <time>2021-06-05T11:14:10Z</time>
      </trkpt>
      <trkpt lat="43.65978" lon="3.31405">
        <ele>277</ele>
        <time>2021-06-05T11:14:11Z</time>
      </trkpt>
      <trkpt lat="43.65977" lon="3.31409">
        <ele>277</ele>
        <time>2021-06-05T11:14:12Z</time>
      </trkpt>
      <trkpt lat="43.65975" lon="3.31412">
        <ele>277</ele>
        <time>2021-06-05T11:14:13Z</time>
      </trkpt>
      <trkpt lat="43.65973" lon="3.31416">
        <ele>277</ele>
        <time>2021-06-05T11:14:14Z</time>
      </trkpt>
      <trkpt lat="43.6597" lon="3.31421">
        <ele>277</ele>
        <time>2021-06-05T11:14:15Z</time>
      </trkpt>
      <trkpt lat="43.65967" lon="3.31425">
        <ele>277</ele>
        <time>2021-06-05T11:14:16Z</time>
      </trkpt>
      <trkpt lat="43.65963" lon="3.31431">
        <ele>277</ele>
        <time>2021-06-05T11:14:17Z</time>
      </trkpt>
      <trkpt lat="43.6596" lon="3.31437">
        <ele>277</ele>
        <time>2021-06-05T11:14:18Z</time>
      </trkpt>
      <trkpt lat="43.65955" lon="3.31443">
        <ele>277</ele>
        <time>2021-06-05T11:14:19Z</time>
      </trkpt>
      <trkpt lat="43.65952" lon="3.31448">
        <ele>274</ele>
        <time>2021-06-05T11:14:21Z</time>
      </trkpt>
      <trkpt lat="43.65949" lon="3.31452">
        <ele>274</ele>
        <time>2021-06-05T11:14:22Z</time>
      </trkpt>
      <trkpt lat="43.65947" lon="3.31456">
        <ele>274</ele>
        <time>2021-06-05T11:14:23Z</time>
      </trkpt>
      <trkpt lat="43.65944" lon="3.31458">
        <ele>274</ele>
        <time>2021-06-05T11:14:24Z</time>
      </trkpt>
      <trkpt lat="43.65943" lon="3.3146">
        <ele>274</ele>
        <time>2021-06-05T11:14:25Z</time>
      </trkpt>
      <trkpt lat="43.65941" lon="3.31462">
        <ele>274</ele>
        <time>2021-06-05T11:14:26Z</time>
      </trkpt>
      <trkpt lat="43.6594" lon="3.31464">
        <ele>274</ele>
        <time>2021-06-05T11:14:27Z</time>
      </trkpt>
      <trkpt lat="43.65938" lon="3.31467">
        <ele>274</ele>
        <time>2021-06-05T11:14:28Z</time>
      </trkpt>
      <trkpt lat="43.65935" lon="3.3147">
        <ele>274</ele>
        <time>2021-06-05T11:14:29Z</time>
      </trkpt>
      <trkpt lat="43.65932" lon="3.31473">
        <ele>274</ele>
        <time>2021-06-05T11:14:30Z</time>
      </trkpt>
      <trkpt lat="43.65929" lon="3.31478">
        <ele>269</ele>
        <time>2021-06-05T11:14:31Z</time>
      </trkpt>
      <trkpt lat="43.65925" lon="3.31482">
        <ele>269</ele>
        <time>2021-06-05T11:14:32Z</time>
      </trkpt>
      <trkpt lat="43.65923" lon="3.31486">
        <ele>269</ele>
        <time>2021-06-05T11:14:33Z</time>
      </trkpt>
      <trkpt lat="43.65922" lon="3.31488">
        <ele>269</ele>
        <time>2021-06-05T11:14:34Z</time>
      </trkpt>
      <trkpt lat="43.65922" lon="3.31492">
        <ele>269</ele>
        <time>2021-06-05T11:14:36Z</time>
      </trkpt>
      <trkpt lat="43.65923" lon="3.31494">
        <ele>269</ele>
        <time>2021-06-05T11:14:37Z</time>
      </trkpt>
      <trkpt lat="43.65924" lon="3.31499">
        <ele>269</ele>
        <time>2021-06-05T11:14:39Z</time>
      </trkpt>
      <trkpt lat="43.65924" lon="3.31503">
        <ele>269</ele>
        <time>2021-06-05T11:14:40Z</time>
      </trkpt>
      <trkpt lat="43.65925" lon="3.31506">
        <ele>259</ele>
        <time>2021-06-05T11:14:41Z</time>
      </trkpt>
      <trkpt lat="43.65926" lon="3.31509">
        <ele>259</ele>
        <time>2021-06-05T11:14:42Z</time>
      </trkpt>
      <trkpt lat="43.65928" lon="3.31513">
        <ele>259</ele>
        <time>2021-06-05T11:14:43Z</time>
      </trkpt>
      <trkpt lat="43.6593" lon="3.31516">
        <ele>259</ele>
        <time>2021-06-05T11:14:44Z</time>
      </trkpt>
      <trkpt lat="43.65933" lon="3.31519">
        <ele>259</ele>
        <time>2021-06-05T11:14:45Z</time>
      </trkpt>
      <trkpt lat="43.65937" lon="3.3152">
        <ele>259</ele>
        <time>2021-06-05T11:14:46Z</time>
      </trkpt>
      <trkpt lat="43.65939" lon="3.3152">
        <ele>259</ele>
        <time>2021-06-05T11:14:47Z</time>
      </trkpt>
      <trkpt lat="43.6594" lon="3.3152">
        <ele>254</ele>
        <time>2021-06-05T11:14:54Z</time>
      </trkpt>
      <trkpt lat="43.65947" lon="3.31519">
        <ele>251</ele>
        <time>2021-06-05T11:15:09Z</time>
      </trkpt>
      <trkpt lat="43.65949" lon="3.31519">
        <ele>251</ele>
        <time>2021-06-05T11:15:09Z</time>
      </trkpt>
      <trkpt lat="43.65952" lon="3.31519">
        <ele>251</ele>
        <time>2021-06-05T11:15:11Z</time>
      </trkpt>
      <trkpt lat="43.65955" lon="3.31521">
        <ele>251</ele>
        <time>2021-06-05T11:15:13Z</time>
      </trkpt>
      <trkpt lat="43.65956" lon="3.31525">
        <ele>251</ele>
        <time>2021-06-05T11:15:15Z</time>
      </trkpt>
      <trkpt lat="43.65954" lon="3.31526">
        <ele>251</ele>
        <time>2021-06-05T11:15:16Z</time>
      </trkpt>
      <trkpt lat="43.65951" lon="3.31527">
        <ele>251</ele>
        <time>2021-06-05T11:15:18Z</time>
      </trkpt>
      <trkpt lat="43.6595" lon="3.31529">
        <ele>248</ele>
        <time>2021-06-05T11:15:19Z</time>
      </trkpt>
      <trkpt lat="43.65948" lon="3.31531">
        <ele>248</ele>
        <time>2021-06-05T11:15:20Z</time>
      </trkpt>
      <trkpt lat="43.65946" lon="3.31532">
        <ele>248</ele>
        <time>2021-06-05T11:15:21Z</time>
      </trkpt>
      <trkpt lat="43.65943" lon="3.31534">
        <ele>248</ele>
        <time>2021-06-05T11:15:23Z</time>
      </trkpt>
      <trkpt lat="43.65941" lon="3.31537">
        <ele>248</ele>
        <time>2021-06-05T11:15:24Z</time>
      </trkpt>
      <trkpt lat="43.65938" lon="3.31539">
        <ele>248</ele>
        <time>2021-06-05T11:15:25Z</time>
      </trkpt>
      <trkpt lat="43.65936" lon="3.3154">
        <ele>248</ele>
        <time>2021-06-05T11:15:26Z</time>
      </trkpt>
      <trkpt lat="43.65933" lon="3.31541">
        <ele>248</ele>
        <time>2021-06-05T11:15:27Z</time>
      </trkpt>
      <trkpt lat="43.65931" lon="3.31542">
        <ele>248</ele>
        <time>2021-06-05T11:15:28Z</time>
      </trkpt>
      <trkpt lat="43.65929" lon="3.31542">
        <ele>245</ele>
        <time>2021-06-05T11:15:28Z</time>
      </trkpt>
      <trkpt lat="43.65926" lon="3.31544">
        <ele>245</ele>
        <time>2021-06-05T11:15:29Z</time>
      </trkpt>
      <trkpt lat="43.65924" lon="3.31545">
        <ele>245</ele>
        <time>2021-06-05T11:15:30Z</time>
      </trkpt>
      <trkpt lat="43.65923" lon="3.31546">
        <ele>245</ele>
        <time>2021-06-05T11:15:31Z</time>
      </trkpt>
      <trkpt lat="43.65921" lon="3.31548">
        <ele>245</ele>
        <time>2021-06-05T11:15:32Z</time>
      </trkpt>
      <trkpt lat="43.65918" lon="3.3155">
        <ele>245</ele>
        <time>2021-06-05T11:15:33Z</time>
      </trkpt>
      <trkpt lat="43.65915" lon="3.31553">
        <ele>245</ele>
        <time>2021-06-05T11:15:34Z</time>
      </trkpt>
      <trkpt lat="43.65912" lon="3.31556">
        <ele>245</ele>
        <time>2021-06-05T11:15:35Z</time>
      </trkpt>
      <trkpt lat="43.65909" lon="3.31558">
        <ele>245</ele>
        <time>2021-06-05T11:15:36Z</time>
      </trkpt>
      <trkpt lat="43.65907" lon="3.31561">
        <ele>245</ele>
        <time>2021-06-05T11:15:37Z</time>
      </trkpt>
      <trkpt lat="43.65905" lon="3.31564">
        <ele>237</ele>
        <time>2021-06-05T11:15:39Z</time>
      </trkpt>
      <trkpt lat="43.65902" lon="3.31567">
        <ele>237</ele>
        <time>2021-06-05T11:15:40Z</time>
      </trkpt>
      <trkpt lat="43.65899" lon="3.31569">
        <ele>237</ele>
        <time>2021-06-05T11:15:41Z</time>
      </trkpt>
      <trkpt lat="43.65897" lon="3.31571">
        <ele>237</ele>
        <time>2021-06-05T11:15:42Z</time>
      </trkpt>
      <trkpt lat="43.65895" lon="3.31573">
        <ele>237</ele>
        <time>2021-06-05T11:15:43Z</time>
      </trkpt>
      <trkpt lat="43.65893" lon="3.31576">
        <ele>237</ele>
        <time>2021-06-05T11:15:44Z</time>
      </trkpt>
      <trkpt lat="43.65892" lon="3.31579">
        <ele>237</ele>
        <time>2021-06-05T11:15:45Z</time>
      </trkpt>
      <trkpt lat="43.65889" lon="3.31582">
        <ele>237</ele>
        <time>2021-06-05T11:15:46Z</time>
      </trkpt>
      <trkpt lat="43.65887" lon="3.31585">
        <ele>237</ele>
        <time>2021-06-05T11:15:47Z</time>
      </trkpt>
      <trkpt lat="43.65885" lon="3.31586">
        <ele>237</ele>
        <time>2021-06-05T11:15:48Z</time>
      </trkpt>
      <trkpt lat="43.65882" lon="3.31587">
        <ele>227</ele>
        <time>2021-06-05T11:15:49Z</time>
      </trkpt>
      <trkpt lat="43.65878" lon="3.31589">
        <ele>227</ele>
        <time>2021-06-05T11:15:50Z</time>
      </trkpt>
      <trkpt lat="43.65874" lon="3.31592">
        <ele>227</ele>
        <time>2021-06-05T11:15:51Z</time>
      </trkpt>
      <trkpt lat="43.65871" lon="3.31595">
        <ele>227</ele>
        <time>2021-06-05T11:15:52Z</time>
      </trkpt>
      <trkpt lat="43.65868" lon="3.31598">
        <ele>227</ele>
        <time>2021-06-05T11:15:53Z</time>
      </trkpt>
      <trkpt lat="43.65866" lon="3.31601">
        <ele>227</ele>
        <time>2021-06-05T11:15:54Z</time>
      </trkpt>
      <trkpt lat="43.65862" lon="3.31604">
        <ele>227</ele>
        <time>2021-06-05T11:15:55Z</time>
      </trkpt>
      <trkpt lat="43.6586" lon="3.31607">
        <ele>227</ele>
        <time>2021-06-05T11:15:56Z</time>
      </trkpt>
      <trkpt lat="43.65856" lon="3.31612">
        <ele>227</ele>
        <time>2021-06-05T11:15:57Z</time>
      </trkpt>
      <trkpt lat="43.65853" lon="3.31616">
        <ele>227</ele>
        <time>2021-06-05T11:15:58Z</time>
      </trkpt>
      <trkpt lat="43.65849" lon="3.31619">
        <ele>218</ele>
        <time>2021-06-05T11:15:59Z</time>
      </trkpt>
      <trkpt lat="43.65846" lon="3.31621">
        <ele>218</ele>
        <time>2021-06-05T11:16:00Z</time>
      </trkpt>
      <trkpt lat="43.65843" lon="3.31622">
        <ele>218</ele>
        <time>2021-06-05T11:16:01Z</time>
      </trkpt>
      <trkpt lat="43.65841" lon="3.31624">
        <ele>218</ele>
        <time>2021-06-05T11:16:02Z</time>
      </trkpt>
      <trkpt lat="43.6584" lon="3.31626">
        <ele>218</ele>
        <time>2021-06-05T11:16:03Z</time>
      </trkpt>
      <trkpt lat="43.6584" lon="3.31629">
        <ele>218</ele>
        <time>2021-06-05T11:16:04Z</time>
      </trkpt>
      <trkpt lat="43.6584" lon="3.31631">
        <ele>218</ele>
        <time>2021-06-05T11:16:05Z</time>
      </trkpt>
      <trkpt lat="43.6584" lon="3.31634">
        <ele>218</ele>
        <time>2021-06-05T11:16:06Z</time>
      </trkpt>
      <trkpt lat="43.65841" lon="3.31637">
        <ele>218</ele>
        <time>2021-06-05T11:16:07Z</time>
      </trkpt>
      <trkpt lat="43.65841" lon="3.31639">
        <ele>218</ele>
        <time>2021-06-05T11:16:08Z</time>
      </trkpt>
      <trkpt lat="43.65841" lon="3.31644">
        <ele>212</ele>
        <time>2021-06-05T11:16:10Z</time>
      </trkpt>
      <trkpt lat="43.65841" lon="3.31647">
        <ele>212</ele>
        <time>2021-06-05T11:16:11Z</time>
      </trkpt>
      <trkpt lat="43.65841" lon="3.31649">
        <ele>212</ele>
        <time>2021-06-05T11:16:12Z</time>
      </trkpt>
      <trkpt lat="43.65841" lon="3.31652">
        <ele>212</ele>
        <time>2021-06-05T11:16:13Z</time>
      </trkpt>
      <trkpt lat="43.6584" lon="3.31655">
        <ele>212</ele>
        <time>2021-06-05T11:16:14Z</time>
      </trkpt>
      <trkpt lat="43.6584" lon="3.31658">
        <ele>212</ele>
        <time>2021-06-05T11:16:15Z</time>
      </trkpt>
      <trkpt lat="43.6584" lon="3.31664">
        <ele>212</ele>
        <time>2021-06-05T11:16:16Z</time>
      </trkpt>
      <trkpt lat="43.65839" lon="3.31669">
        <ele>212</ele>
        <time>2021-06-05T11:16:17Z</time>
      </trkpt>
      <trkpt lat="43.65839" lon="3.31673">
        <ele>212</ele>
        <time>2021-06-05T11:16:18Z</time>
      </trkpt>
      <trkpt lat="43.65839" lon="3.31672">
        <ele>204</ele>
        <time>2021-06-05T11:16:24Z</time>
      </trkpt>
      <trkpt lat="43.65837" lon="3.31681">
        <ele>201</ele>
        <time>2021-06-05T11:16:47Z</time>
      </trkpt>
      <trkpt lat="43.65836" lon="3.31685">
        <ele>201</ele>
        <time>2021-06-05T11:16:47Z</time>
      </trkpt>
      <trkpt lat="43.65833" lon="3.31696">
        <ele>201</ele>
        <time>2021-06-05T11:16:49Z</time>
      </trkpt>
      <trkpt lat="43.65832" lon="3.317">
        <ele>201</ele>
        <time>2021-06-05T11:16:50Z</time>
      </trkpt>
      <trkpt lat="43.6583" lon="3.31704">
        <ele>201</ele>
        <time>2021-06-05T11:16:51Z</time>
      </trkpt>
      <trkpt lat="43.65829" lon="3.31707">
        <ele>201</ele>
        <time>2021-06-05T11:16:52Z</time>
      </trkpt>
      <trkpt lat="43.65828" lon="3.31709">
        <ele>201</ele>
        <time>2021-06-05T11:16:53Z</time>
      </trkpt>
      <trkpt lat="43.65826" lon="3.31712">
        <ele>201</ele>
        <time>2021-06-05T11:16:54Z</time>
      </trkpt>
      <trkpt lat="43.65824" lon="3.31714">
        <ele>201</ele>
        <time>2021-06-05T11:16:55Z</time>
      </trkpt>
      <trkpt lat="43.65822" lon="3.31715">
        <ele>201</ele>
        <time>2021-06-05T11:16:56Z</time>
      </trkpt>
      <trkpt lat="43.6582" lon="3.31718">
        <ele>198</ele>
        <time>2021-06-05T11:16:57Z</time>
      </trkpt>
      <trkpt lat="43.65818" lon="3.3172">
        <ele>198</ele>
        <time>2021-06-05T11:16:58Z</time>
      </trkpt>
      <trkpt lat="43.65816" lon="3.31722">
        <ele>198</ele>
        <time>2021-06-05T11:16:59Z</time>
      </trkpt>
      <trkpt lat="43.65813" lon="3.31725">
        <ele>198</ele>
        <time>2021-06-05T11:17:00Z</time>
      </trkpt>
      <trkpt lat="43.65811" lon="3.31728">
        <ele>198</ele>
        <time>2021-06-05T11:17:01Z</time>
      </trkpt>
      <trkpt lat="43.65807" lon="3.31733">
        <ele>198</ele>
        <time>2021-06-05T11:17:02Z</time>
      </trkpt>
      <trkpt lat="43.65803" lon="3.31738">
        <ele>198</ele>
        <time>2021-06-05T11:17:03Z</time>
      </trkpt>
      <trkpt lat="43.658" lon="3.31743">
        <ele>198</ele>
        <time>2021-06-05T11:17:04Z</time>
      </trkpt>
      <trkpt lat="43.65795" lon="3.31749">
        <ele>198</ele>
        <time>2021-06-05T11:17:05Z</time>
      </trkpt>
      <trkpt lat="43.65791" lon="3.31754">
        <ele>198</ele>
        <time>2021-06-05T11:17:06Z</time>
      </trkpt>
      <trkpt lat="43.65787" lon="3.31759">
        <ele>188</ele>
        <time>2021-06-05T11:17:07Z</time>
      </trkpt>
      <trkpt lat="43.65783" lon="3.31763">
        <ele>188</ele>
        <time>2021-06-05T11:17:07Z</time>
      </trkpt>
      <trkpt lat="43.6578" lon="3.31766">
        <ele>188</ele>
        <time>2021-06-05T11:17:08Z</time>
      </trkpt>
      <trkpt lat="43.65777" lon="3.3177">
        <ele>188</ele>
        <time>2021-06-05T11:17:09Z</time>
      </trkpt>
      <trkpt lat="43.65775" lon="3.31773">
        <ele>188</ele>
        <time>2021-06-05T11:17:10Z</time>
      </trkpt>
      <trkpt lat="43.65772" lon="3.31775">
        <ele>188</ele>
        <time>2021-06-05T11:17:12Z</time>
      </trkpt>
      <trkpt lat="43.6577" lon="3.31778">
        <ele>188</ele>
        <time>2021-06-05T11:17:12Z</time>
      </trkpt>
      <trkpt lat="43.65768" lon="3.31781">
        <ele>188</ele>
        <time>2021-06-05T11:17:13Z</time>
      </trkpt>
      <trkpt lat="43.65766" lon="3.31784">
        <ele>188</ele>
        <time>2021-06-05T11:17:14Z</time>
      </trkpt>
      <trkpt lat="43.65762" lon="3.31787">
        <ele>188</ele>
        <time>2021-06-05T11:17:15Z</time>
      </trkpt>
      <trkpt lat="43.65759" lon="3.3179">
        <ele>180</ele>
        <time>2021-06-05T11:17:17Z</time>
      </trkpt>
      <trkpt lat="43.65755" lon="3.31793">
        <ele>180</ele>
        <time>2021-06-05T11:17:18Z</time>
      </trkpt>
      <trkpt lat="43.65752" lon="3.31796">
        <ele>180</ele>
        <time>2021-06-05T11:17:19Z</time>
      </trkpt>
      <trkpt lat="43.65747" lon="3.31798">
        <ele>180</ele>
        <time>2021-06-05T11:17:20Z</time>
      </trkpt>
      <trkpt lat="43.65744" lon="3.318">
        <ele>180</ele>
        <time>2021-06-05T11:17:21Z</time>
      </trkpt>
      <trkpt lat="43.6574" lon="3.31802">
        <ele>180</ele>
        <time>2021-06-05T11:17:22Z</time>
      </trkpt>
      <trkpt lat="43.65737" lon="3.31805">
        <ele>180</ele>
        <time>2021-06-05T11:17:23Z</time>
      </trkpt>
      <trkpt lat="43.65735" lon="3.31808">
        <ele>180</ele>
        <time>2021-06-05T11:17:24Z</time>
      </trkpt>
      <trkpt lat="43.65733" lon="3.3181">
        <ele>180</ele>
        <time>2021-06-05T11:17:25Z</time>
      </trkpt>
      <trkpt lat="43.65732" lon="3.31813">
        <ele>180</ele>
        <time>2021-06-05T11:17:26Z</time>
      </trkpt>
      <trkpt lat="43.65731" lon="3.31816">
        <ele>176</ele>
        <time>2021-06-05T11:17:27Z</time>
      </trkpt>
      <trkpt lat="43.65729" lon="3.31819">
        <ele>176</ele>
        <time>2021-06-05T11:17:28Z</time>
      </trkpt>
      <trkpt lat="43.65726" lon="3.31819">
        <ele>176</ele>
        <time>2021-06-05T11:17:29Z</time>
      </trkpt>
      <trkpt lat="43.65725" lon="3.31819">
        <ele>176</ele>
        <time>2021-06-05T11:17:30Z</time>
      </trkpt>
      <trkpt lat="43.65723" lon="3.31819">
        <ele>176</ele>
        <time>2021-06-05T11:17:32Z</time>
      </trkpt>
      <trkpt lat="43.65722" lon="3.31817">
        <ele>176</ele>
        <time>2021-06-05T11:17:35Z</time>
      </trkpt>
      <trkpt lat="43.65719" lon="3.31814">
        <ele>175</ele>
        <time>2021-06-05T11:17:37Z</time>
      </trkpt>
      <trkpt lat="43.65717" lon="3.31813">
        <ele>175</ele>
        <time>2021-06-05T11:17:38Z</time>
      </trkpt>
      <trkpt lat="43.65715" lon="3.31813">
        <ele>175</ele>
        <time>2021-06-05T11:17:39Z</time>
      </trkpt>
      <trkpt lat="43.65712" lon="3.31813">
        <ele>175</ele>
        <time>2021-06-05T11:17:40Z</time>
      </trkpt>
      <trkpt lat="43.65709" lon="3.31813">
        <ele>175</ele>
        <time>2021-06-05T11:17:41Z</time>
      </trkpt>
      <trkpt lat="43.65706" lon="3.31813">
        <ele>175</ele>
        <time>2021-06-05T11:17:42Z</time>
      </trkpt>
      <trkpt lat="43.65703" lon="3.31813">
        <ele>175</ele>
        <time>2021-06-05T11:17:43Z</time>
      </trkpt>
      <trkpt lat="43.657" lon="3.31813">
        <ele>175</ele>
        <time>2021-06-05T11:17:44Z</time>
      </trkpt>
      <trkpt lat="43.65697" lon="3.31813">
        <ele>175</ele>
        <time>2021-06-05T11:17:45Z</time>
      </trkpt>
      <trkpt lat="43.65694" lon="3.31815">
        <ele>173</ele>
        <time>2021-06-05T11:17:47Z</time>
      </trkpt>
      <trkpt lat="43.65693" lon="3.31818">
        <ele>173</ele>
        <time>2021-06-05T11:17:48Z</time>
      </trkpt>
      <trkpt lat="43.65692" lon="3.31821">
        <ele>173</ele>
        <time>2021-06-05T11:17:49Z</time>
      </trkpt>
      <trkpt lat="43.6569" lon="3.31823">
        <ele>173</ele>
        <time>2021-06-05T11:17:50Z</time>
      </trkpt>
      <trkpt lat="43.65688" lon="3.31825">
        <ele>173</ele>
        <time>2021-06-05T11:17:51Z</time>
      </trkpt>
      <trkpt lat="43.65686" lon="3.31826">
        <ele>173</ele>
        <time>2021-06-05T11:17:52Z</time>
      </trkpt>
      <trkpt lat="43.65684" lon="3.31827">
        <ele>173</ele>
        <time>2021-06-05T11:17:53Z</time>
      </trkpt>
      <trkpt lat="43.65681" lon="3.31827">
        <ele>173</ele>
        <time>2021-06-05T11:17:54Z</time>
      </trkpt>
      <trkpt lat="43.65677" lon="3.31827">
        <ele>173</ele>
        <time>2021-06-05T11:17:55Z</time>
      </trkpt>
      <trkpt lat="43.65673" lon="3.31826">
        <ele>173</ele>
        <time>2021-06-05T11:17:56Z</time>
      </trkpt>
      <trkpt lat="43.65669" lon="3.31824">
        <ele>172</ele>
        <time>2021-06-05T11:17:57Z</time>
      </trkpt>
      <trkpt lat="43.65665" lon="3.31822">
        <ele>172</ele>
        <time>2021-06-05T11:17:58Z</time>
      </trkpt>
      <trkpt lat="43.65661" lon="3.3182">
        <ele>172</ele>
        <time>2021-06-05T11:17:59Z</time>
      </trkpt>
      <trkpt lat="43.65656" lon="3.31818">
        <ele>172</ele>
        <time>2021-06-05T11:18:00Z</time>
      </trkpt>
      <trkpt lat="43.65651" lon="3.31815">
        <ele>172</ele>
        <time>2021-06-05T11:18:01Z</time>
      </trkpt>
      <trkpt lat="43.65647" lon="3.31811">
        <ele>172</ele>
        <time>2021-06-05T11:18:02Z</time>
      </trkpt>
      <trkpt lat="43.65643" lon="3.31806">
        <ele>172</ele>
        <time>2021-06-05T11:18:03Z</time>
      </trkpt>
      <trkpt lat="43.6564" lon="3.31799">
        <ele>172</ele>
        <time>2021-06-05T11:18:04Z</time>
      </trkpt>
      <trkpt lat="43.65636" lon="3.31793">
        <ele>172</ele>
        <time>2021-06-05T11:18:05Z</time>
      </trkpt>
      <trkpt lat="43.65633" lon="3.31789">
        <ele>172</ele>
        <time>2021-06-05T11:18:06Z</time>
      </trkpt>
      <trkpt lat="43.6563" lon="3.31784">
        <ele>170</ele>
        <time>2021-06-05T11:18:07Z</time>
      </trkpt>
      <trkpt lat="43.65626" lon="3.31781">
        <ele>170</ele>
        <time>2021-06-05T11:18:08Z</time>
      </trkpt>
      <trkpt lat="43.65623" lon="3.31779">
        <ele>170</ele>
        <time>2021-06-05T11:18:09Z</time>
      </trkpt>
      <trkpt lat="43.65619" lon="3.31777">
        <ele>170</ele>
        <time>2021-06-05T11:18:10Z</time>
      </trkpt>
      <trkpt lat="43.65615" lon="3.31776">
        <ele>170</ele>
        <time>2021-06-05T11:18:11Z</time>
      </trkpt>
      <trkpt lat="43.65612" lon="3.31776">
        <ele>170</ele>
        <time>2021-06-05T11:18:12Z</time>
      </trkpt>
      <trkpt lat="43.65608" lon="3.31777">
        <ele>170</ele>
        <time>2021-06-05T11:18:13Z</time>
      </trkpt>
      <trkpt lat="43.65604" lon="3.31778">
        <ele>170</ele>
        <time>2021-06-05T11:18:14Z</time>
      </trkpt>
      <trkpt lat="43.656" lon="3.31778">
        <ele>170</ele>
        <time>2021-06-05T11:18:15Z</time>
      </trkpt>
      <trkpt lat="43.65596" lon="3.31779">
        <ele>170</ele>
        <time>2021-06-05T11:18:16Z</time>
      </trkpt>
      <trkpt lat="43.65592" lon="3.31779">
        <ele>169</ele>
        <time>2021-06-05T11:18:17Z</time>
      </trkpt>
      <trkpt lat="43.65591" lon="3.31779">
        <ele>169</ele>
        <time>2021-06-05T11:18:18Z</time>
      </trkpt>
      <trkpt lat="43.65588" lon="3.31779">
        <ele>169</ele>
        <time>2021-06-05T11:18:19Z</time>
      </trkpt>
      <trkpt lat="43.65586" lon="3.31779">
        <ele>169</ele>
        <time>2021-06-05T11:18:20Z</time>
      </trkpt>
      <trkpt lat="43.65584" lon="3.31779">
        <ele>169</ele>
        <time>2021-06-05T11:18:21Z</time>
      </trkpt>
      <trkpt lat="43.65581" lon="3.3178">
        <ele>169</ele>
        <time>2021-06-05T11:18:22Z</time>
      </trkpt>
      <trkpt lat="43.65579" lon="3.31779">
        <ele>169</ele>
        <time>2021-06-05T11:18:23Z</time>
      </trkpt>
      <trkpt lat="43.65577" lon="3.31778">
        <ele>169</ele>
        <time>2021-06-05T11:18:24Z</time>
      </trkpt>
      <trkpt lat="43.65574" lon="3.31778">
        <ele>169</ele>
        <time>2021-06-05T11:18:25Z</time>
      </trkpt>
      <trkpt lat="43.65571" lon="3.31778">
        <ele>169</ele>
        <time>2021-06-05T11:18:26Z</time>
      </trkpt>
      <trkpt lat="43.65567" lon="3.31779">
        <ele>167</ele>
        <time>2021-06-05T11:18:27Z</time>
      </trkpt>
      <trkpt lat="43.65564" lon="3.31779">
        <ele>167</ele>
        <time>2021-06-05T11:18:28Z</time>
      </trkpt>
      <trkpt lat="43.6556" lon="3.31779">
        <ele>167</ele>
        <time>2021-06-05T11:18:29Z</time>
      </trkpt>
      <trkpt lat="43.65556" lon="3.3178">
        <ele>167</ele>
        <time>2021-06-05T11:18:30Z</time>
      </trkpt>
      <trkpt lat="43.65552" lon="3.3178">
        <ele>167</ele>
        <time>2021-06-05T11:18:31Z</time>
      </trkpt>
      <trkpt lat="43.65548" lon="3.31781">
        <ele>167</ele>
        <time>2021-06-05T11:18:32Z</time>
      </trkpt>
      <trkpt lat="43.65543" lon="3.31782">
        <ele>167</ele>
        <time>2021-06-05T11:18:33Z</time>
      </trkpt>
      <trkpt lat="43.65538" lon="3.31782">
        <ele>167</ele>
        <time>2021-06-05T11:18:34Z</time>
      </trkpt>
      <trkpt lat="43.65533" lon="3.31782">
        <ele>167</ele>
        <time>2021-06-05T11:18:35Z</time>
      </trkpt>
      <trkpt lat="43.65528" lon="3.31782">
        <ele>167</ele>
        <time>2021-06-05T11:18:36Z</time>
      </trkpt>
      <trkpt lat="43.65524" lon="3.31782">
        <ele>164</ele>
        <time>2021-06-05T11:18:37Z</time>
      </trkpt>
      <trkpt lat="43.65519" lon="3.31782">
        <ele>164</ele>
        <time>2021-06-05T11:18:38Z</time>
      </trkpt>
      <trkpt lat="43.65514" lon="3.31782">
        <ele>164</ele>
        <time>2021-06-05T11:18:39Z</time>
      </trkpt>
      <trkpt lat="43.65509" lon="3.31781">
        <ele>164</ele>
        <time>2021-06-05T11:18:40Z</time>
      </trkpt>
      <trkpt lat="43.65503" lon="3.3178">
        <ele>164</ele>
        <time>2021-06-05T11:18:41Z</time>
      </trkpt>
      <trkpt lat="43.65497" lon="3.31779">
        <ele>164</ele>
        <time>2021-06-05T11:18:42Z</time>
      </trkpt>
      <trkpt lat="43.6549" lon="3.31778">
        <ele>164</ele>
        <time>2021-06-05T11:18:43Z</time>
      </trkpt>
      <trkpt lat="43.65483" lon="3.31778">
        <ele>164</ele>
        <time>2021-06-05T11:18:44Z</time>
      </trkpt>
      <trkpt lat="43.65477" lon="3.31777">
        <ele>164</ele>
        <time>2021-06-05T11:18:45Z</time>
      </trkpt>
      <trkpt lat="43.6547" lon="3.31777">
        <ele>164</ele>
        <time>2021-06-05T11:18:46Z</time>
      </trkpt>
      <trkpt lat="43.65464" lon="3.31776">
        <ele>160</ele>
        <time>2021-06-05T11:18:47Z</time>
      </trkpt>
      <trkpt lat="43.65458" lon="3.31776">
        <ele>160</ele>
        <time>2021-06-05T11:18:48Z</time>
      </trkpt>
      <trkpt lat="43.65451" lon="3.31776">
        <ele>160</ele>
        <time>2021-06-05T11:18:49Z</time>
      </trkpt>
      <trkpt lat="43.65446" lon="3.31778">
        <ele>160</ele>
        <time>2021-06-05T11:18:50Z</time>
      </trkpt>
      <trkpt lat="43.6544" lon="3.3178">
        <ele>160</ele>
        <time>2021-06-05T11:18:51Z</time>
      </trkpt>
      <trkpt lat="43.65434" lon="3.31784">
        <ele>160</ele>
        <time>2021-06-05T11:18:52Z</time>
      </trkpt>
      <trkpt lat="43.65429" lon="3.31788">
        <ele>160</ele>
        <time>2021-06-05T11:18:53Z</time>
      </trkpt>
      <trkpt lat="43.65425" lon="3.31794">
        <ele>160</ele>
        <time>2021-06-05T11:18:54Z</time>
      </trkpt>
      <trkpt lat="43.65422" lon="3.318">
        <ele>160</ele>
        <time>2021-06-05T11:18:55Z</time>
      </trkpt>
      <trkpt lat="43.65419" lon="3.31806">
        <ele>160</ele>
        <time>2021-06-05T11:18:56Z</time>
      </trkpt>
      <trkpt lat="43.65416" lon="3.31811">
        <ele>158</ele>
        <time>2021-06-05T11:18:57Z</time>
      </trkpt>
      <trkpt lat="43.65413" lon="3.31815">
        <ele>158</ele>
        <time>2021-06-05T11:18:58Z</time>
      </trkpt>
      <trkpt lat="43.6541" lon="3.3182">
        <ele>158</ele>
        <time>2021-06-05T11:18:59Z</time>
      </trkpt>
      <trkpt lat="43.65408" lon="3.31824">
        <ele>158</ele>
        <time>2021-06-05T11:19:00Z</time>
      </trkpt>
      <trkpt lat="43.65405" lon="3.31826">
        <ele>158</ele>
        <time>2021-06-05T11:19:01Z</time>
      </trkpt>
      <trkpt lat="43.65403" lon="3.31829">
        <ele>158</ele>
        <time>2021-06-05T11:19:02Z</time>
      </trkpt>
      <trkpt lat="43.65401" lon="3.31832">
        <ele>158</ele>
        <time>2021-06-05T11:19:03Z</time>
      </trkpt>
      <trkpt lat="43.65398" lon="3.31835">
        <ele>158</ele>
        <time>2021-06-05T11:19:04Z</time>
      </trkpt>
      <trkpt lat="43.65396" lon="3.31837">
        <ele>158</ele>
        <time>2021-06-05T11:19:05Z</time>
      </trkpt>
      <trkpt lat="43.65394" lon="3.31839">
        <ele>158</ele>
        <time>2021-06-05T11:19:06Z</time>
      </trkpt>
      <trkpt lat="43.65391" lon="3.31841">
        <ele>157</ele>
        <time>2021-06-05T11:19:07Z</time>
      </trkpt>
      <trkpt lat="43.6539" lon="3.31843">
        <ele>157</ele>
        <time>2021-06-05T11:19:08Z</time>
      </trkpt>
      <trkpt lat="43.65389" lon="3.31845">
        <ele>157</ele>
        <time>2021-06-05T11:19:09Z</time>
      </trkpt>
      <trkpt lat="43.65387" lon="3.31847">
        <ele>157</ele>
        <time>2021-06-05T11:19:11Z</time>
      </trkpt>
      <trkpt lat="43.65387" lon="3.31851">
        <ele>157</ele>
        <time>2021-06-05T11:19:13Z</time>
      </trkpt>
      <trkpt lat="43.65388" lon="3.31854">
        <ele>157</ele>
        <time>2021-06-05T11:19:15Z</time>
      </trkpt>
      <trkpt lat="43.65387" lon="3.31859">
        <ele>156</ele>
        <time>2021-06-05T11:19:16Z</time>
      </trkpt>
      <trkpt lat="43.65386" lon="3.31862">
        <ele>156</ele>
        <time>2021-06-05T11:19:17Z</time>
      </trkpt>
      <trkpt lat="43.65387" lon="3.31866">
        <ele>156</ele>
        <time>2021-06-05T11:19:18Z</time>
      </trkpt>
      <trkpt lat="43.65388" lon="3.3187">
        <ele>156</ele>
        <time>2021-06-05T11:19:19Z</time>
      </trkpt>
      <trkpt lat="43.65389" lon="3.31872">
        <ele>156</ele>
        <time>2021-06-05T11:19:20Z</time>
      </trkpt>
      <trkpt lat="43.65391" lon="3.31874">
        <ele>156</ele>
        <time>2021-06-05T11:19:22Z</time>
      </trkpt>
      <trkpt lat="43.65393" lon="3.31876">
        <ele>156</ele>
        <time>2021-06-05T11:19:23Z</time>
      </trkpt>
      <trkpt lat="43.65396" lon="3.31879">
        <ele>156</ele>
        <time>2021-06-05T11:19:27Z</time>
      </trkpt>
      <trkpt lat="43.65397" lon="3.3188">
        <ele>156</ele>
        <time>2021-06-05T11:19:28Z</time>
      </trkpt>
      <trkpt lat="43.654" lon="3.31882">
        <ele>156</ele>
        <time>2021-06-05T11:19:29Z</time>
      </trkpt>
      <trkpt lat="43.65402" lon="3.31884">
        <ele>156</ele>
        <time>2021-06-05T11:19:30Z</time>
      </trkpt>
      <trkpt lat="43.65405" lon="3.31887">
        <ele>156</ele>
        <time>2021-06-05T11:19:31Z</time>
      </trkpt>
      <trkpt lat="43.65407" lon="3.31889">
        <ele>156</ele>
        <time>2021-06-05T11:19:32Z</time>
      </trkpt>
      <trkpt lat="43.6541" lon="3.31892">
        <ele>156</ele>
        <time>2021-06-05T11:19:33Z</time>
      </trkpt>
      <trkpt lat="43.65412" lon="3.31895">
        <ele>156</ele>
        <time>2021-06-05T11:19:34Z</time>
      </trkpt>
      <trkpt lat="43.65414" lon="3.31898">
        <ele>156</ele>
        <time>2021-06-05T11:19:35Z</time>
      </trkpt>
      <trkpt lat="43.65417" lon="3.319">
        <ele>156</ele>
        <time>2021-06-05T11:19:36Z</time>
      </trkpt>
      <trkpt lat="43.65419" lon="3.31903">
        <ele>156</ele>
        <time>2021-06-05T11:19:37Z</time>
      </trkpt>
      <trkpt lat="43.65422" lon="3.31907">
        <ele>156</ele>
        <time>2021-06-05T11:19:38Z</time>
      </trkpt>
      <trkpt lat="43.65424" lon="3.31909">
        <ele>156</ele>
        <time>2021-06-05T11:19:39Z</time>
      </trkpt>
      <trkpt lat="43.65426" lon="3.31914">
        <ele>156</ele>
        <time>2021-06-05T11:19:40Z</time>
      </trkpt>
      <trkpt lat="43.65427" lon="3.31918">
        <ele>156</ele>
        <time>2021-06-05T11:19:41Z</time>
      </trkpt>
      <trkpt lat="43.65428" lon="3.31923">
        <ele>156</ele>
        <time>2021-06-05T11:19:42Z</time>
      </trkpt>
      <trkpt lat="43.65428" lon="3.31928">
        <ele>156</ele>
        <time>2021-06-05T11:19:43Z</time>
      </trkpt>
      <trkpt lat="43.65427" lon="3.31934">
        <ele>156</ele>
        <time>2021-06-05T11:19:44Z</time>
      </trkpt>
      <trkpt lat="43.65427" lon="3.31941">
        <ele>156</ele>
        <time>2021-06-05T11:19:45Z</time>
      </trkpt>
      <trkpt lat="43.65427" lon="3.31946">
        <ele>156</ele>
        <time>2021-06-05T11:19:46Z</time>
      </trkpt>
      <trkpt lat="43.65428" lon="3.31952">
        <ele>155</ele>
        <time>2021-06-05T11:19:47Z</time>
      </trkpt>
      <trkpt lat="43.65428" lon="3.31958">
        <ele>155</ele>
        <time>2021-06-05T11:19:48Z</time>
      </trkpt>
      <trkpt lat="43.65427" lon="3.31963">
        <ele>155</ele>
        <time>2021-06-05T11:19:49Z</time>
      </trkpt>
      <trkpt lat="43.65427" lon="3.31969">
        <ele>155</ele>
        <time>2021-06-05T11:19:50Z</time>
      </trkpt>
      <trkpt lat="43.65427" lon="3.31974">
        <ele>155</ele>
        <time>2021-06-05T11:19:51Z</time>
      </trkpt>
      <trkpt lat="43.65427" lon="3.3198">
        <ele>155</ele>
        <time>2021-06-05T11:19:52Z</time>
      </trkpt>
      <trkpt lat="43.65427" lon="3.31985">
        <ele>155</ele>
        <time>2021-06-05T11:19:53Z</time>
      </trkpt>
      <trkpt lat="43.65427" lon="3.3199">
        <ele>155</ele>
        <time>2021-06-05T11:19:54Z</time>
      </trkpt>
      <trkpt lat="43.65427" lon="3.31996">
        <ele>155</ele>
        <time>2021-06-05T11:19:55Z</time>
      </trkpt>
      <trkpt lat="43.65428" lon="3.32001">
        <ele>155</ele>
        <time>2021-06-05T11:19:56Z</time>
      </trkpt>
      <trkpt lat="43.65428" lon="3.32006">
        <ele>155</ele>
        <time>2021-06-05T11:19:56Z</time>
      </trkpt>
      <trkpt lat="43.65428" lon="3.32011">
        <ele>155</ele>
        <time>2021-06-05T11:19:57Z</time>
      </trkpt>
      <trkpt lat="43.65428" lon="3.32017">
        <ele>155</ele>
        <time>2021-06-05T11:19:58Z</time>
      </trkpt>
      <trkpt lat="43.65427" lon="3.32022">
        <ele>155</ele>
        <time>2021-06-05T11:19:59Z</time>
      </trkpt>
      <trkpt lat="43.65427" lon="3.32028">
        <ele>155</ele>
        <time>2021-06-05T11:20:00Z</time>
      </trkpt>
      <trkpt lat="43.65426" lon="3.32034">
        <ele>155</ele>
        <time>2021-06-05T11:20:01Z</time>
      </trkpt>
      <trkpt lat="43.65424" lon="3.3204">
        <ele>155</ele>
        <time>2021-06-05T11:20:02Z</time>
      </trkpt>
      <trkpt lat="43.65422" lon="3.32046">
        <ele>155</ele>
        <time>2021-06-05T11:20:03Z</time>
      </trkpt>
      <trkpt lat="43.65421" lon="3.32053">
        <ele>155</ele>
        <time>2021-06-05T11:20:04Z</time>
      </trkpt>
      <trkpt lat="43.65419" lon="3.32061">
        <ele>155</ele>
        <time>2021-06-05T11:20:05Z</time>
      </trkpt>
      <trkpt lat="43.65418" lon="3.32069">
        <ele>154</ele>
        <time>2021-06-05T11:20:07Z</time>
      </trkpt>
      <trkpt lat="43.65417" lon="3.32077">
        <ele>154</ele>
        <time>2021-06-05T11:20:08Z</time>
      </trkpt>
      <trkpt lat="43.65415" lon="3.32085">
        <ele>154</ele>
        <time>2021-06-05T11:20:09Z</time>
      </trkpt>
      <trkpt lat="43.65413" lon="3.32093">
        <ele>154</ele>
        <time>2021-06-05T11:20:10Z</time>
      </trkpt>
      <trkpt lat="43.6541" lon="3.32099">
        <ele>154</ele>
        <time>2021-06-05T11:20:11Z</time>
      </trkpt>
      <trkpt lat="43.65406" lon="3.32105">
        <ele>154</ele>
        <time>2021-06-05T11:20:12Z</time>
      </trkpt>
      <trkpt lat="43.65403" lon="3.3211">
        <ele>154</ele>
        <time>2021-06-05T11:20:13Z</time>
      </trkpt>
      <trkpt lat="43.65401" lon="3.32114">
        <ele>154</ele>
        <time>2021-06-05T11:20:14Z</time>
      </trkpt>
      <trkpt lat="43.65398" lon="3.32118">
        <ele>154</ele>
        <time>2021-06-05T11:20:15Z</time>
      </trkpt>
      <trkpt lat="43.65396" lon="3.32123">
        <ele>154</ele>
        <time>2021-06-05T11:20:16Z</time>
      </trkpt>
      <trkpt lat="43.65394" lon="3.32127">
        <ele>152</ele>
        <time>2021-06-05T11:20:17Z</time>
      </trkpt>
      <trkpt lat="43.65392" lon="3.3213">
        <ele>152</ele>
        <time>2021-06-05T11:20:17Z</time>
      </trkpt>
      <trkpt lat="43.65391" lon="3.32133">
        <ele>152</ele>
        <time>2021-06-05T11:20:18Z</time>
      </trkpt>
      <trkpt lat="43.6539" lon="3.32137">
        <ele>152</ele>
        <time>2021-06-05T11:20:20Z</time>
      </trkpt>
      <trkpt lat="43.65389" lon="3.32141">
        <ele>152</ele>
        <time>2021-06-05T11:20:22Z</time>
      </trkpt>
      <trkpt lat="43.65388" lon="3.32144">
        <ele>152</ele>
        <time>2021-06-05T11:20:23Z</time>
      </trkpt>
      <trkpt lat="43.65388" lon="3.32147">
        <ele>152</ele>
        <time>2021-06-05T11:20:24Z</time>
      </trkpt>
      <trkpt lat="43.65388" lon="3.3215">
        <ele>152</ele>
        <time>2021-06-05T11:20:26Z</time>
      </trkpt>
      <trkpt lat="43.65388" lon="3.32154">
        <ele>153</ele>
        <time>2021-06-05T11:20:27Z</time>
      </trkpt>
      <trkpt lat="43.65388" lon="3.32158">
        <ele>153</ele>
        <time>2021-06-05T11:20:28Z</time>
      </trkpt>
      <trkpt lat="43.65387" lon="3.32161">
        <ele>153</ele>
        <time>2021-06-05T11:20:29Z</time>
      </trkpt>
      <trkpt lat="43.65387" lon="3.32165">
        <ele>153</ele>
        <time>2021-06-05T11:20:30Z</time>
      </trkpt>
      <trkpt lat="43.65387" lon="3.32169">
        <ele>153</ele>
        <time>2021-06-05T11:20:31Z</time>
      </trkpt>
      <trkpt lat="43.65387" lon="3.32173">
        <ele>153</ele>
        <time>2021-06-05T11:20:32Z</time>
      </trkpt>
      <trkpt lat="43.65387" lon="3.32177">
        <ele>153</ele>
        <time>2021-06-05T11:20:33Z</time>
      </trkpt>
      <trkpt lat="43.65386" lon="3.3218">
        <ele>153</ele>
        <time>2021-06-05T11:20:34Z</time>
      </trkpt>
      <trkpt lat="43.65386" lon="3.32184">
        <ele>153</ele>
        <time>2021-06-05T11:20:35Z</time>
      </trkpt>
      <trkpt lat="43.65386" lon="3.32188">
        <ele>153</ele>
        <time>2021-06-05T11:20:36Z</time>
      </trkpt>
      <trkpt lat="43.65386" lon="3.32191">
        <ele>153</ele>
        <time>2021-06-05T11:20:37Z</time>
      </trkpt>
      <trkpt lat="43.65386" lon="3.32195">
        <ele>153</ele>
        <time>2021-06-05T11:20:38Z</time>
      </trkpt>
      <trkpt lat="43.65386" lon="3.32198">
        <ele>153</ele>
        <time>2021-06-05T11:20:39Z</time>
      </trkpt>
      <trkpt lat="43.65385" lon="3.32201">
        <ele>153</ele>
        <time>2021-06-05T11:20:40Z</time>
      </trkpt>
      <trkpt lat="43.65384" lon="3.32204">
        <ele>153</ele>
        <time>2021-06-05T11:20:41Z</time>
      </trkpt>
      <trkpt lat="43.65384" lon="3.32208">
        <ele>153</ele>
        <time>2021-06-05T11:20:43Z</time>
      </trkpt>
      <trkpt lat="43.65383" lon="3.3221">
        <ele>153</ele>
        <time>2021-06-05T11:20:45Z</time>
      </trkpt>
      <trkpt lat="43.65383" lon="3.3221">
        <ele>153</ele>
        <time>2021-06-05T11:20:51Z</time>
      </trkpt>
      <trkpt lat="43.65377" lon="3.32212">
        <ele>152</ele>
        <time>2021-06-05T11:21:03Z</time>
      </trkpt>
      <trkpt lat="43.65375" lon="3.32212">
        <ele>152</ele>
        <time>2021-06-05T11:21:03Z</time>
      </trkpt>
      <trkpt lat="43.65373" lon="3.32212">
        <ele>152</ele>
        <time>2021-06-05T11:21:04Z</time>
      </trkpt>
      <trkpt lat="43.6537" lon="3.32212">
        <ele>152</ele>
        <time>2021-06-05T11:21:05Z</time>
      </trkpt>
      <trkpt lat="43.65367" lon="3.32211">
        <ele>152</ele>
        <time>2021-06-05T11:21:06Z</time>
      </trkpt>
      <trkpt lat="43.65364" lon="3.32211">
        <ele>152</ele>
        <time>2021-06-05T11:21:07Z</time>
      </trkpt>
      <trkpt lat="43.65361" lon="3.32211">
        <ele>152</ele>
        <time>2021-06-05T11:21:08Z</time>
      </trkpt>
      <trkpt lat="43.65358" lon="3.3221">
        <ele>152</ele>
        <time>2021-06-05T11:21:09Z</time>
      </trkpt>
      <trkpt lat="43.65355" lon="3.32209">
        <ele>152</ele>
        <time>2021-06-05T11:21:10Z</time>
      </trkpt>
      <trkpt lat="43.65351" lon="3.32208">
        <ele>152</ele>
        <time>2021-06-05T11:21:11Z</time>
      </trkpt>
      <trkpt lat="43.65348" lon="3.32208">
        <ele>152</ele>
        <time>2021-06-05T11:21:12Z</time>
      </trkpt>
      <trkpt lat="43.65344" lon="3.32207">
        <ele>151</ele>
        <time>2021-06-05T11:21:13Z</time>
      </trkpt>
      <trkpt lat="43.65341" lon="3.32206">
        <ele>151</ele>
        <time>2021-06-05T11:21:14Z</time>
      </trkpt>
      <trkpt lat="43.65337" lon="3.32206">
        <ele>151</ele>
        <time>2021-06-05T11:21:15Z</time>
      </trkpt>
      <trkpt lat="43.65334" lon="3.32205">
        <ele>151</ele>
        <time>2021-06-05T11:21:16Z</time>
      </trkpt>
      <trkpt lat="43.65331" lon="3.32205">
        <ele>151</ele>
        <time>2021-06-05T11:21:17Z</time>
      </trkpt>
      <trkpt lat="43.65328" lon="3.32204">
        <ele>151</ele>
        <time>2021-06-05T11:21:18Z</time>
      </trkpt>
      <trkpt lat="43.65325" lon="3.32204">
        <ele>151</ele>
        <time>2021-06-05T11:21:19Z</time>
      </trkpt>
      <trkpt lat="43.65322" lon="3.32204">
        <ele>151</ele>
        <time>2021-06-05T11:21:20Z</time>
      </trkpt>
      <trkpt lat="43.65319" lon="3.32204">
        <ele>151</ele>
        <time>2021-06-05T11:21:21Z</time>
      </trkpt>
      <trkpt lat="43.65315" lon="3.32203">
        <ele>151</ele>
        <time>2021-06-05T11:21:22Z</time>
      </trkpt>
      <trkpt lat="43.65312" lon="3.32203">
        <ele>149</ele>
        <time>2021-06-05T11:21:23Z</time>
      </trkpt>
      <trkpt lat="43.6531" lon="3.32202">
        <ele>149</ele>
        <time>2021-06-05T11:21:23Z</time>
      </trkpt>
      <trkpt lat="43.65306" lon="3.32201">
        <ele>149</ele>
        <time>2021-06-05T11:21:24Z</time>
      </trkpt>
      <trkpt lat="43.65302" lon="3.32201">
        <ele>149</ele>
        <time>2021-06-05T11:21:25Z</time>
      </trkpt>
      <trkpt lat="43.65298" lon="3.322">
        <ele>149</ele>
        <time>2021-06-05T11:21:26Z</time>
      </trkpt>
      <trkpt lat="43.65294" lon="3.322">
        <ele>149</ele>
        <time>2021-06-05T11:21:27Z</time>
      </trkpt>
      <trkpt lat="43.65291" lon="3.322">
        <ele>149</ele>
        <time>2021-06-05T11:21:28Z</time>
      </trkpt>
      <trkpt lat="43.65287" lon="3.322">
        <ele>149</ele>
        <time>2021-06-05T11:21:29Z</time>
      </trkpt>
      <trkpt lat="43.65283" lon="3.322">
        <ele>149</ele>
        <time>2021-06-05T11:21:30Z</time>
      </trkpt>
      <trkpt lat="43.65279" lon="3.322">
        <ele>149</ele>
        <time>2021-06-05T11:21:31Z</time>
      </trkpt>
      <trkpt lat="43.65276" lon="3.32202">
        <ele>148</ele>
        <time>2021-06-05T11:21:33Z</time>
      </trkpt>
      <trkpt lat="43.65274" lon="3.32205">
        <ele>148</ele>
        <time>2021-06-05T11:21:34Z</time>
      </trkpt>
      <trkpt lat="43.65273" lon="3.32208">
        <ele>148</ele>
        <time>2021-06-05T11:21:35Z</time>
      </trkpt>
      <trkpt lat="43.65272" lon="3.32212">
        <ele>148</ele>
        <time>2021-06-05T11:21:36Z</time>
      </trkpt>
      <trkpt lat="43.65272" lon="3.32216">
        <ele>148</ele>
        <time>2021-06-05T11:21:37Z</time>
      </trkpt>
      <trkpt lat="43.65273" lon="3.3222">
        <ele>148</ele>
        <time>2021-06-05T11:21:38Z</time>
      </trkpt>
      <trkpt lat="43.65275" lon="3.32224">
        <ele>148</ele>
        <time>2021-06-05T11:21:39Z</time>
      </trkpt>
      <trkpt lat="43.65276" lon="3.32229">
        <ele>148</ele>
        <time>2021-06-05T11:21:40Z</time>
      </trkpt>
      <trkpt lat="43.65277" lon="3.32233">
        <ele>148</ele>
        <time>2021-06-05T11:21:41Z</time>
      </trkpt>
      <trkpt lat="43.65278" lon="3.32237">
        <ele>148</ele>
        <time>2021-06-05T11:21:42Z</time>
      </trkpt>
      <trkpt lat="43.6528" lon="3.32241">
        <ele>148</ele>
        <time>2021-06-05T11:21:43Z</time>
      </trkpt>
      <trkpt lat="43.65281" lon="3.32246">
        <ele>148</ele>
        <time>2021-06-05T11:21:44Z</time>
      </trkpt>
      <trkpt lat="43.65283" lon="3.3225">
        <ele>148</ele>
        <time>2021-06-05T11:21:45Z</time>
      </trkpt>
      <trkpt lat="43.65284" lon="3.32254">
        <ele>148</ele>
        <time>2021-06-05T11:21:46Z</time>
      </trkpt>
      <trkpt lat="43.65286" lon="3.32258">
        <ele>148</ele>
        <time>2021-06-05T11:21:47Z</time>
      </trkpt>
      <trkpt lat="43.65287" lon="3.32262">
        <ele>148</ele>
        <time>2021-06-05T11:21:48Z</time>
      </trkpt>
      <trkpt lat="43.65288" lon="3.32266">
        <ele>148</ele>
        <time>2021-06-05T11:21:49Z</time>
      </trkpt>
      <trkpt lat="43.65289" lon="3.3227">
        <ele>148</ele>
        <time>2021-06-05T11:21:50Z</time>
      </trkpt>
      <trkpt lat="43.65291" lon="3.32274">
        <ele>148</ele>
        <time>2021-06-05T11:21:51Z</time>
      </trkpt>
      <trkpt lat="43.65292" lon="3.32278">
        <ele>148</ele>
        <time>2021-06-05T11:21:52Z</time>
      </trkpt>
      <trkpt lat="43.65293" lon="3.32283">
        <ele>147</ele>
        <time>2021-06-05T11:21:53Z</time>
      </trkpt>
      <trkpt lat="43.65294" lon="3.32288">
        <ele>147</ele>
        <time>2021-06-05T11:21:54Z</time>
      </trkpt>
      <trkpt lat="43.65296" lon="3.32293">
        <ele>147</ele>
        <time>2021-06-05T11:21:55Z</time>
      </trkpt>
      <trkpt lat="43.65297" lon="3.32297">
        <ele>147</ele>
        <time>2021-06-05T11:21:56Z</time>
      </trkpt>
      <trkpt lat="43.65298" lon="3.32302">
        <ele>147</ele>
        <time>2021-06-05T11:21:57Z</time>
      </trkpt>
      <trkpt lat="43.65299" lon="3.32306">
        <ele>147</ele>
        <time>2021-06-05T11:21:58Z</time>
      </trkpt>
      <trkpt lat="43.653" lon="3.3231">
        <ele>147</ele>
        <time>2021-06-05T11:21:59Z</time>
      </trkpt>
      <trkpt lat="43.65301" lon="3.32314">
        <ele>147</ele>
        <time>2021-06-05T11:22:00Z</time>
      </trkpt>
      <trkpt lat="43.65302" lon="3.32319">
        <ele>147</ele>
        <time>2021-06-05T11:22:01Z</time>
      </trkpt>
      <trkpt lat="43.65301" lon="3.32322">
        <ele>147</ele>
        <time>2021-06-05T11:22:02Z</time>
      </trkpt>
      <trkpt lat="43.65298" lon="3.32326">
        <ele>147</ele>
        <time>2021-06-05T11:22:03Z</time>
      </trkpt>
      <trkpt lat="43.65295" lon="3.32329">
        <ele>147</ele>
        <time>2021-06-05T11:22:04Z</time>
      </trkpt>
      <trkpt lat="43.65292" lon="3.32331">
        <ele>147</ele>
        <time>2021-06-05T11:22:05Z</time>
      </trkpt>
      <trkpt lat="43.65287" lon="3.32333">
        <ele>147</ele>
        <time>2021-06-05T11:22:06Z</time>
      </trkpt>
      <trkpt lat="43.65284" lon="3.32336">
        <ele>147</ele>
        <time>2021-06-05T11:22:07Z</time>
      </trkpt>
      <trkpt lat="43.6528" lon="3.32339">
        <ele>147</ele>
        <time>2021-06-05T11:22:08Z</time>
      </trkpt>
      <trkpt lat="43.65276" lon="3.32341">
        <ele>147</ele>
        <time>2021-06-05T11:22:09Z</time>
      </trkpt>
      <trkpt lat="43.65272" lon="3.32345">
        <ele>147</ele>
        <time>2021-06-05T11:22:10Z</time>
      </trkpt>
      <trkpt lat="43.65268" lon="3.32347">
        <ele>147</ele>
        <time>2021-06-05T11:22:11Z</time>
      </trkpt>
      <trkpt lat="43.65263" lon="3.32349">
        <ele>147</ele>
        <time>2021-06-05T11:22:12Z</time>
      </trkpt>
      <trkpt lat="43.65259" lon="3.32352">
        <ele>146</ele>
        <time>2021-06-05T11:22:13Z</time>
      </trkpt>
      <trkpt lat="43.65255" lon="3.32355">
        <ele>146</ele>
        <time>2021-06-05T11:22:14Z</time>
      </trkpt>
      <trkpt lat="43.6525" lon="3.32358">
        <ele>146</ele>
        <time>2021-06-05T11:22:15Z</time>
      </trkpt>
      <trkpt lat="43.65245" lon="3.3236">
        <ele>146</ele>
        <time>2021-06-05T11:22:16Z</time>
      </trkpt>
      <trkpt lat="43.65239" lon="3.32361">
        <ele>146</ele>
        <time>2021-06-05T11:22:17Z</time>
      </trkpt>
      <trkpt lat="43.65235" lon="3.32363">
        <ele>146</ele>
        <time>2021-06-05T11:22:18Z</time>
      </trkpt>
      <trkpt lat="43.6523" lon="3.32364">
        <ele>146</ele>
        <time>2021-06-05T11:22:19Z</time>
      </trkpt>
      <trkpt lat="43.65227" lon="3.32364">
        <ele>146</ele>
        <time>2021-06-05T11:22:20Z</time>
      </trkpt>
      <trkpt lat="43.65225" lon="3.32365">
        <ele>146</ele>
        <time>2021-06-05T11:22:21Z</time>
      </trkpt>
      <trkpt lat="43.65223" lon="3.32365">
        <ele>145</ele>
        <time>2021-06-05T11:22:23Z</time>
      </trkpt>
      <trkpt lat="43.65221" lon="3.32364">
        <ele>145</ele>
        <time>2021-06-05T11:22:31Z</time>
      </trkpt>
      <trkpt lat="43.6523" lon="3.32362">
        <ele>144</ele>
        <time>2021-06-05T11:22:55Z</time>
      </trkpt>
      <trkpt lat="43.65232" lon="3.32362">
        <ele>144</ele>
        <time>2021-06-05T11:22:55Z</time>
      </trkpt>
      <trkpt lat="43.65235" lon="3.32362">
        <ele>144</ele>
        <time>2021-06-05T11:22:56Z</time>
      </trkpt>
      <trkpt lat="43.65237" lon="3.32363">
        <ele>144</ele>
        <time>2021-06-05T11:22:57Z</time>
      </trkpt>
      <trkpt lat="43.65239" lon="3.32364">
        <ele>144</ele>
        <time>2021-06-05T11:22:58Z</time>
      </trkpt>
      <trkpt lat="43.6524" lon="3.32367">
        <ele>144</ele>
        <time>2021-06-05T11:22:59Z</time>
      </trkpt>
      <trkpt lat="43.6524" lon="3.32371">
        <ele>144</ele>
        <time>2021-06-05T11:23:00Z</time>
      </trkpt>
      <trkpt lat="43.6524" lon="3.32375">
        <ele>144</ele>
        <time>2021-06-05T11:23:01Z</time>
      </trkpt>
      <trkpt lat="43.6524" lon="3.32379">
        <ele>144</ele>
        <time>2021-06-05T11:23:02Z</time>
      </trkpt>
      <trkpt lat="43.65241" lon="3.32383">
        <ele>144</ele>
        <time>2021-06-05T11:23:03Z</time>
      </trkpt>
      <trkpt lat="43.65242" lon="3.32387">
        <ele>144</ele>
        <time>2021-06-05T11:23:04Z</time>
      </trkpt>
      <trkpt lat="43.65243" lon="3.3239">
        <ele>144</ele>
        <time>2021-06-05T11:23:05Z</time>
      </trkpt>
      <trkpt lat="43.65244" lon="3.32394">
        <ele>144</ele>
        <time>2021-06-05T11:23:06Z</time>
      </trkpt>
      <trkpt lat="43.65245" lon="3.32397">
        <ele>144</ele>
        <time>2021-06-05T11:23:07Z</time>
      </trkpt>
      <trkpt lat="43.65245" lon="3.324">
        <ele>144</ele>
        <time>2021-06-05T11:23:08Z</time>
      </trkpt>
      <trkpt lat="43.65246" lon="3.32403">
        <ele>144</ele>
        <time>2021-06-05T11:23:09Z</time>
      </trkpt>
      <trkpt lat="43.65247" lon="3.32407">
        <ele>144</ele>
        <time>2021-06-05T11:23:10Z</time>
      </trkpt>
      <trkpt lat="43.65248" lon="3.3241">
        <ele>144</ele>
        <time>2021-06-05T11:23:11Z</time>
      </trkpt>
      <trkpt lat="43.65249" lon="3.32414">
        <ele>144</ele>
        <time>2021-06-05T11:23:12Z</time>
      </trkpt>
      <trkpt lat="43.6525" lon="3.32417">
        <ele>144</ele>
        <time>2021-06-05T11:23:13Z</time>
      </trkpt>
      <trkpt lat="43.65251" lon="3.3242">
        <ele>144</ele>
        <time>2021-06-05T11:23:14Z</time>
      </trkpt>
      <trkpt lat="43.65252" lon="3.32423">
        <ele>144</ele>
        <time>2021-06-05T11:23:15Z</time>
      </trkpt>
      <trkpt lat="43.65252" lon="3.32425">
        <ele>144</ele>
        <time>2021-06-05T11:23:15Z</time>
      </trkpt>
      <trkpt lat="43.65253" lon="3.32428">
        <ele>144</ele>
        <time>2021-06-05T11:23:17Z</time>
      </trkpt>
      <trkpt lat="43.65254" lon="3.32432">
        <ele>144</ele>
        <time>2021-06-05T11:23:23Z</time>
      </trkpt>
      <trkpt lat="43.65254" lon="3.32434">
        <ele>143</ele>
        <time>2021-06-05T11:23:25Z</time>
      </trkpt>
      <trkpt lat="43.65256" lon="3.32437">
        <ele>143</ele>
        <time>2021-06-05T11:23:26Z</time>
      </trkpt>
      <trkpt lat="43.65256" lon="3.32441">
        <ele>143</ele>
        <time>2021-06-05T11:23:27Z</time>
      </trkpt>
      <trkpt lat="43.65258" lon="3.32444">
        <ele>143</ele>
        <time>2021-06-05T11:23:28Z</time>
      </trkpt>
      <trkpt lat="43.65258" lon="3.32448">
        <ele>143</ele>
        <time>2021-06-05T11:23:29Z</time>
      </trkpt>
      <trkpt lat="43.6526" lon="3.32452">
        <ele>143</ele>
        <time>2021-06-05T11:23:30Z</time>
      </trkpt>
      <trkpt lat="43.6526" lon="3.32456">
        <ele>143</ele>
        <time>2021-06-05T11:23:31Z</time>
      </trkpt>
      <trkpt lat="43.65261" lon="3.3246">
        <ele>143</ele>
        <time>2021-06-05T11:23:32Z</time>
      </trkpt>
      <trkpt lat="43.65262" lon="3.32463">
        <ele>143</ele>
        <time>2021-06-05T11:23:33Z</time>
      </trkpt>
      <trkpt lat="43.65263" lon="3.32466">
        <ele>143</ele>
        <time>2021-06-05T11:23:34Z</time>
      </trkpt>
      <trkpt lat="43.65264" lon="3.32468">
        <ele>143</ele>
        <time>2021-06-05T11:23:35Z</time>
      </trkpt>
      <trkpt lat="43.65267" lon="3.32471">
        <ele>143</ele>
        <time>2021-06-05T11:23:37Z</time>
      </trkpt>
      <trkpt lat="43.6527" lon="3.32473">
        <ele>143</ele>
        <time>2021-06-05T11:23:39Z</time>
      </trkpt>
      <trkpt lat="43.65273" lon="3.32471">
        <ele>143</ele>
        <time>2021-06-05T11:23:41Z</time>
      </trkpt>
      <trkpt lat="43.65275" lon="3.32469">
        <ele>143</ele>
        <time>2021-06-05T11:23:42Z</time>
      </trkpt>
      <trkpt lat="43.65277" lon="3.32468">
        <ele>143</ele>
        <time>2021-06-05T11:23:43Z</time>
      </trkpt>
      <trkpt lat="43.65278" lon="3.32466">
        <ele>143</ele>
        <time>2021-06-05T11:23:44Z</time>
      </trkpt>
      <trkpt lat="43.65279" lon="3.32464">
        <ele>143</ele>
        <time>2021-06-05T11:23:45Z</time>
      </trkpt>
      <trkpt lat="43.6528" lon="3.32462">
        <ele>143</ele>
        <time>2021-06-05T11:23:46Z</time>
      </trkpt>
      <trkpt lat="43.65282" lon="3.32459">
        <ele>143</ele>
        <time>2021-06-05T11:23:47Z</time>
      </trkpt>
      <trkpt lat="43.65283" lon="3.32457">
        <ele>143</ele>
        <time>2021-06-05T11:23:48Z</time>
      </trkpt>
      <trkpt lat="43.65286" lon="3.32455">
        <ele>143</ele>
        <time>2021-06-05T11:23:49Z</time>
      </trkpt>
      <trkpt lat="43.65287" lon="3.32453">
        <ele>143</ele>
        <time>2021-06-05T11:23:50Z</time>
      </trkpt>
      <trkpt lat="43.65289" lon="3.32451">
        <ele>143</ele>
        <time>2021-06-05T11:23:51Z</time>
      </trkpt>
      <trkpt lat="43.65291" lon="3.32449">
        <ele>143</ele>
        <time>2021-06-05T11:23:52Z</time>
      </trkpt>
      <trkpt lat="43.65293" lon="3.32446">
        <ele>143</ele>
        <time>2021-06-05T11:23:53Z</time>
      </trkpt>
      <trkpt lat="43.65294" lon="3.32444">
        <ele>143</ele>
        <time>2021-06-05T11:23:54Z</time>
      </trkpt>
      <trkpt lat="43.65296" lon="3.32441">
        <ele>144</ele>
        <time>2021-06-05T11:23:54Z</time>
      </trkpt>
      <trkpt lat="43.65298" lon="3.3244">
        <ele>144</ele>
        <time>2021-06-05T11:23:55Z</time>
      </trkpt>
      <trkpt lat="43.65299" lon="3.32437">
        <ele>144</ele>
        <time>2021-06-05T11:23:56Z</time>
      </trkpt>
      <trkpt lat="43.65301" lon="3.32435">
        <ele>144</ele>
        <time>2021-06-05T11:23:57Z</time>
      </trkpt>
      <trkpt lat="43.65303" lon="3.32433">
        <ele>144</ele>
        <time>2021-06-05T11:23:58Z</time>
      </trkpt>
      <trkpt lat="43.65305" lon="3.3243">
        <ele>144</ele>
        <time>2021-06-05T11:24:00Z</time>
      </trkpt>
      <trkpt lat="43.65307" lon="3.32428">
        <ele>144</ele>
        <time>2021-06-05T11:24:00Z</time>
      </trkpt>
      <trkpt lat="43.65308" lon="3.32425">
        <ele>144</ele>
        <time>2021-06-05T11:24:01Z</time>
      </trkpt>
      <trkpt lat="43.65311" lon="3.32423">
        <ele>144</ele>
        <time>2021-06-05T11:24:02Z</time>
      </trkpt>
      <trkpt lat="43.65312" lon="3.32421">
        <ele>144</ele>
        <time>2021-06-05T11:24:03Z</time>
      </trkpt>
      <trkpt lat="43.65314" lon="3.32418">
        <ele>144</ele>
        <time>2021-06-05T11:24:05Z</time>
      </trkpt>
      <trkpt lat="43.65315" lon="3.32416">
        <ele>144</ele>
        <time>2021-06-05T11:24:06Z</time>
      </trkpt>
      <trkpt lat="43.65317" lon="3.32414">
        <ele>144</ele>
        <time>2021-06-05T11:24:07Z</time>
      </trkpt>
      <trkpt lat="43.65319" lon="3.32412">
        <ele>144</ele>
        <time>2021-06-05T11:24:08Z</time>
      </trkpt>
      <trkpt lat="43.6532" lon="3.3241">
        <ele>144</ele>
        <time>2021-06-05T11:24:09Z</time>
      </trkpt>
      <trkpt lat="43.65321" lon="3.32408">
        <ele>144</ele>
        <time>2021-06-05T11:24:10Z</time>
      </trkpt>
      <trkpt lat="43.65322" lon="3.32405">
        <ele>144</ele>
        <time>2021-06-05T11:24:11Z</time>
      </trkpt>
      <trkpt lat="43.65322" lon="3.32403">
        <ele>144</ele>
        <time>2021-06-05T11:24:12Z</time>
      </trkpt>
      <trkpt lat="43.65322" lon="3.324">
        <ele>144</ele>
        <time>2021-06-05T11:24:13Z</time>
      </trkpt>
      <trkpt lat="43.65321" lon="3.32397">
        <ele>144</ele>
        <time>2021-06-05T11:24:14Z</time>
      </trkpt>
      <trkpt lat="43.6532" lon="3.32394">
        <ele>145</ele>
        <time>2021-06-05T11:24:15Z</time>
      </trkpt>
      <trkpt lat="43.65319" lon="3.32391">
        <ele>145</ele>
        <time>2021-06-05T11:24:16Z</time>
      </trkpt>
      <trkpt lat="43.65318" lon="3.32388">
        <ele>145</ele>
        <time>2021-06-05T11:24:17Z</time>
      </trkpt>
      <trkpt lat="43.65317" lon="3.32386">
        <ele>145</ele>
        <time>2021-06-05T11:24:18Z</time>
      </trkpt>
      <trkpt lat="43.65315" lon="3.32383">
        <ele>145</ele>
        <time>2021-06-05T11:24:19Z</time>
      </trkpt>
      <trkpt lat="43.65314" lon="3.3238">
        <ele>145</ele>
        <time>2021-06-05T11:24:20Z</time>
      </trkpt>
      <trkpt lat="43.65314" lon="3.32378">
        <ele>145</ele>
        <time>2021-06-05T11:24:21Z</time>
      </trkpt>
      <trkpt lat="43.65313" lon="3.32375">
        <ele>145</ele>
        <time>2021-06-05T11:24:22Z</time>
      </trkpt>
      <trkpt lat="43.65312" lon="3.32371">
        <ele>145</ele>
        <time>2021-06-05T11:24:23Z</time>
      </trkpt>
      <trkpt lat="43.65311" lon="3.32367">
        <ele>145</ele>
        <time>2021-06-05T11:24:24Z</time>
      </trkpt>
      <trkpt lat="43.65311" lon="3.32364">
        <ele>145</ele>
        <time>2021-06-05T11:24:25Z</time>
      </trkpt>
      <trkpt lat="43.6531" lon="3.32361">
        <ele>145</ele>
        <time>2021-06-05T11:24:26Z</time>
      </trkpt>
      <trkpt lat="43.65308" lon="3.32358">
        <ele>145</ele>
        <time>2021-06-05T11:24:27Z</time>
      </trkpt>
      <trkpt lat="43.65308" lon="3.32355">
        <ele>145</ele>
        <time>2021-06-05T11:24:28Z</time>
      </trkpt>
      <trkpt lat="43.65308" lon="3.32352">
        <ele>145</ele>
        <time>2021-06-05T11:24:29Z</time>
      </trkpt>
      <trkpt lat="43.65307" lon="3.32349">
        <ele>145</ele>
        <time>2021-06-05T11:24:30Z</time>
      </trkpt>
      <trkpt lat="43.65306" lon="3.32347">
        <ele>145</ele>
        <time>2021-06-05T11:24:31Z</time>
      </trkpt>
      <trkpt lat="43.65305" lon="3.32345">
        <ele>145</ele>
        <time>2021-06-05T11:24:32Z</time>
      </trkpt>
      <trkpt lat="43.65304" lon="3.32342">
        <ele>145</ele>
        <time>2021-06-05T11:24:33Z</time>
      </trkpt>
      <trkpt lat="43.65303" lon="3.3234">
        <ele>145</ele>
        <time>2021-06-05T11:24:34Z</time>
      </trkpt>
      <trkpt lat="43.65302" lon="3.32337">
        <ele>147</ele>
        <time>2021-06-05T11:24:35Z</time>
      </trkpt>
      <trkpt lat="43.65301" lon="3.32334">
        <ele>147</ele>
        <time>2021-06-05T11:24:36Z</time>
      </trkpt>
      <trkpt lat="43.653" lon="3.32331">
        <ele>147</ele>
        <time>2021-06-05T11:24:37Z</time>
      </trkpt>
      <trkpt lat="43.65299" lon="3.32328">
        <ele>147</ele>
        <time>2021-06-05T11:24:38Z</time>
      </trkpt>
      <trkpt lat="43.65299" lon="3.32325">
        <ele>147</ele>
        <time>2021-06-05T11:24:39Z</time>
      </trkpt>
      <trkpt lat="43.653" lon="3.32322">
        <ele>147</ele>
        <time>2021-06-05T11:24:40Z</time>
      </trkpt>
      <trkpt lat="43.65304" lon="3.32325">
        <ele>147</ele>
        <time>2021-06-05T11:24:42Z</time>
      </trkpt>
      <trkpt lat="43.65305" lon="3.32327">
        <ele>147</ele>
        <time>2021-06-05T11:24:43Z</time>
      </trkpt>
      <trkpt lat="43.65306" lon="3.32331">
        <ele>147</ele>
        <time>2021-06-05T11:24:44Z</time>
      </trkpt>
      <trkpt lat="43.65307" lon="3.32335">
        <ele>148</ele>
        <time>2021-06-05T11:24:45Z</time>
      </trkpt>
      <trkpt lat="43.65308" lon="3.32338">
        <ele>148</ele>
        <time>2021-06-05T11:24:46Z</time>
      </trkpt>
      <trkpt lat="43.65308" lon="3.32343">
        <ele>148</ele>
        <time>2021-06-05T11:24:47Z</time>
      </trkpt>
      <trkpt lat="43.6531" lon="3.32347">
        <ele>148</ele>
        <time>2021-06-05T11:24:48Z</time>
      </trkpt>
      <trkpt lat="43.65311" lon="3.32352">
        <ele>148</ele>
        <time>2021-06-05T11:24:49Z</time>
      </trkpt>
      <trkpt lat="43.65313" lon="3.32357">
        <ele>148</ele>
        <time>2021-06-05T11:24:50Z</time>
      </trkpt>
      <trkpt lat="43.65314" lon="3.32362">
        <ele>148</ele>
        <time>2021-06-05T11:24:51Z</time>
      </trkpt>
      <trkpt lat="43.65316" lon="3.32368">
        <ele>148</ele>
        <time>2021-06-05T11:24:52Z</time>
      </trkpt>
      <trkpt lat="43.65318" lon="3.32374">
        <ele>148</ele>
        <time>2021-06-05T11:24:53Z</time>
      </trkpt>
      <trkpt lat="43.65319" lon="3.32379">
        <ele>148</ele>
        <time>2021-06-05T11:24:54Z</time>
      </trkpt>
      <trkpt lat="43.65321" lon="3.32384">
        <ele>148</ele>
        <time>2021-06-05T11:24:54Z</time>
      </trkpt>
      <trkpt lat="43.65323" lon="3.32389">
        <ele>148</ele>
        <time>2021-06-05T11:24:55Z</time>
      </trkpt>
      <trkpt lat="43.65325" lon="3.32394">
        <ele>148</ele>
        <time>2021-06-05T11:24:56Z</time>
      </trkpt>
      <trkpt lat="43.65326" lon="3.324">
        <ele>148</ele>
        <time>2021-06-05T11:24:57Z</time>
      </trkpt>
      <trkpt lat="43.65328" lon="3.32405">
        <ele>148</ele>
        <time>2021-06-05T11:24:58Z</time>
      </trkpt>
      <trkpt lat="43.65329" lon="3.3241">
        <ele>148</ele>
        <time>2021-06-05T11:24:59Z</time>
      </trkpt>
      <trkpt lat="43.6533" lon="3.32416">
        <ele>148</ele>
        <time>2021-06-05T11:25:00Z</time>
      </trkpt>
      <trkpt lat="43.65331" lon="3.32421">
        <ele>148</ele>
        <time>2021-06-05T11:25:01Z</time>
      </trkpt>
      <trkpt lat="43.65332" lon="3.32427">
        <ele>148</ele>
        <time>2021-06-05T11:25:02Z</time>
      </trkpt>
      <trkpt lat="43.65333" lon="3.32432">
        <ele>148</ele>
        <time>2021-06-05T11:25:03Z</time>
      </trkpt>
      <trkpt lat="43.65334" lon="3.32438">
        <ele>147</ele>
        <time>2021-06-05T11:25:05Z</time>
      </trkpt>
      <trkpt lat="43.65334" lon="3.32443">
        <ele>147</ele>
        <time>2021-06-05T11:25:06Z</time>
      </trkpt>
      <trkpt lat="43.65334" lon="3.32448">
        <ele>147</ele>
        <time>2021-06-05T11:25:07Z</time>
      </trkpt>
      <trkpt lat="43.65333" lon="3.32453">
        <ele>147</ele>
        <time>2021-06-05T11:25:08Z</time>
      </trkpt>
      <trkpt lat="43.65332" lon="3.32457">
        <ele>147</ele>
        <time>2021-06-05T11:25:09Z</time>
      </trkpt>
      <trkpt lat="43.65332" lon="3.32462">
        <ele>147</ele>
        <time>2021-06-05T11:25:10Z</time>
      </trkpt>
      <trkpt lat="43.65331" lon="3.32466">
        <ele>147</ele>
        <time>2021-06-05T11:25:11Z</time>
      </trkpt>
      <trkpt lat="43.6533" lon="3.3247">
        <ele>147</ele>
        <time>2021-06-05T11:25:12Z</time>
      </trkpt>
      <trkpt lat="43.65329" lon="3.32475">
        <ele>147</ele>
        <time>2021-06-05T11:25:13Z</time>
      </trkpt>
      <trkpt lat="43.65328" lon="3.32479">
        <ele>147</ele>
        <time>2021-06-05T11:25:14Z</time>
      </trkpt>
      <trkpt lat="43.65327" lon="3.32484">
        <ele>147</ele>
        <time>2021-06-05T11:25:15Z</time>
      </trkpt>
      <trkpt lat="43.65326" lon="3.32489">
        <ele>147</ele>
        <time>2021-06-05T11:25:16Z</time>
      </trkpt>
      <trkpt lat="43.65325" lon="3.32494">
        <ele>147</ele>
        <time>2021-06-05T11:25:17Z</time>
      </trkpt>
      <trkpt lat="43.65323" lon="3.325">
        <ele>147</ele>
        <time>2021-06-05T11:25:18Z</time>
      </trkpt>
      <trkpt lat="43.65321" lon="3.32505">
        <ele>147</ele>
        <time>2021-06-05T11:25:19Z</time>
      </trkpt>
      <trkpt lat="43.65319" lon="3.3251">
        <ele>147</ele>
        <time>2021-06-05T11:25:20Z</time>
      </trkpt>
      <trkpt lat="43.65318" lon="3.32515">
        <ele>147</ele>
        <time>2021-06-05T11:25:21Z</time>
      </trkpt>
      <trkpt lat="43.65317" lon="3.3252">
        <ele>147</ele>
        <time>2021-06-05T11:25:22Z</time>
      </trkpt>
      <trkpt lat="43.65315" lon="3.32525">
        <ele>147</ele>
        <time>2021-06-05T11:25:23Z</time>
      </trkpt>
      <trkpt lat="43.65314" lon="3.3253">
        <ele>147</ele>
        <time>2021-06-05T11:25:24Z</time>
      </trkpt>
      <trkpt lat="43.65312" lon="3.32535">
        <ele>146</ele>
        <time>2021-06-05T11:25:25Z</time>
      </trkpt>
      <trkpt lat="43.65311" lon="3.3254">
        <ele>146</ele>
        <time>2021-06-05T11:25:26Z</time>
      </trkpt>
      <trkpt lat="43.6531" lon="3.32545">
        <ele>146</ele>
        <time>2021-06-05T11:25:27Z</time>
      </trkpt>
      <trkpt lat="43.65308" lon="3.32551">
        <ele>146</ele>
        <time>2021-06-05T11:25:28Z</time>
      </trkpt>
      <trkpt lat="43.65308" lon="3.32556">
        <ele>146</ele>
        <time>2021-06-05T11:25:29Z</time>
      </trkpt>
      <trkpt lat="43.65308" lon="3.32562">
        <ele>146</ele>
        <time>2021-06-05T11:25:30Z</time>
      </trkpt>
      <trkpt lat="43.65307" lon="3.32567">
        <ele>146</ele>
        <time>2021-06-05T11:25:31Z</time>
      </trkpt>
      <trkpt lat="43.65307" lon="3.32573">
        <ele>146</ele>
        <time>2021-06-05T11:25:32Z</time>
      </trkpt>
      <trkpt lat="43.65307" lon="3.32579">
        <ele>146</ele>
        <time>2021-06-05T11:25:33Z</time>
      </trkpt>
      <trkpt lat="43.65307" lon="3.32584">
        <ele>146</ele>
        <time>2021-06-05T11:25:34Z</time>
      </trkpt>
      <trkpt lat="43.65307" lon="3.3259">
        <ele>145</ele>
        <time>2021-06-05T11:25:35Z</time>
      </trkpt>
      <trkpt lat="43.65308" lon="3.32595">
        <ele>145</ele>
        <time>2021-06-05T11:25:36Z</time>
      </trkpt>
      <trkpt lat="43.65308" lon="3.326">
        <ele>145</ele>
        <time>2021-06-05T11:25:37Z</time>
      </trkpt>
      <trkpt lat="43.65309" lon="3.32605">
        <ele>145</ele>
        <time>2021-06-05T11:25:38Z</time>
      </trkpt>
      <trkpt lat="43.6531" lon="3.3261">
        <ele>145</ele>
        <time>2021-06-05T11:25:39Z</time>
      </trkpt>
      <trkpt lat="43.65311" lon="3.32615">
        <ele>145</ele>
        <time>2021-06-05T11:25:40Z</time>
      </trkpt>
      <trkpt lat="43.65312" lon="3.3262">
        <ele>145</ele>
        <time>2021-06-05T11:25:41Z</time>
      </trkpt>
      <trkpt lat="43.65313" lon="3.32625">
        <ele>145</ele>
        <time>2021-06-05T11:25:42Z</time>
      </trkpt>
      <trkpt lat="43.65313" lon="3.32631">
        <ele>145</ele>
        <time>2021-06-05T11:25:43Z</time>
      </trkpt>
      <trkpt lat="43.65314" lon="3.32636">
        <ele>145</ele>
        <time>2021-06-05T11:25:44Z</time>
      </trkpt>
      <trkpt lat="43.65315" lon="3.32641">
        <ele>145</ele>
        <time>2021-06-05T11:25:45Z</time>
      </trkpt>
      <trkpt lat="43.65315" lon="3.32646">
        <ele>145</ele>
        <time>2021-06-05T11:25:46Z</time>
      </trkpt>
      <trkpt lat="43.65317" lon="3.32651">
        <ele>145</ele>
        <time>2021-06-05T11:25:47Z</time>
      </trkpt>
      <trkpt lat="43.65318" lon="3.32656">
        <ele>145</ele>
        <time>2021-06-05T11:25:48Z</time>
      </trkpt>
      <trkpt lat="43.65319" lon="3.32662">
        <ele>145</ele>
        <time>2021-06-05T11:25:49Z</time>
      </trkpt>
      <trkpt lat="43.6532" lon="3.32667">
        <ele>145</ele>
        <time>2021-06-05T11:25:50Z</time>
      </trkpt>
      <trkpt lat="43.65321" lon="3.32671">
        <ele>145</ele>
        <time>2021-06-05T11:25:51Z</time>
      </trkpt>
      <trkpt lat="43.65322" lon="3.32675">
        <ele>145</ele>
        <time>2021-06-05T11:25:52Z</time>
      </trkpt>
      <trkpt lat="43.65323" lon="3.3268">
        <ele>145</ele>
        <time>2021-06-05T11:25:53Z</time>
      </trkpt>
      <trkpt lat="43.65323" lon="3.32684">
        <ele>145</ele>
        <time>2021-06-05T11:25:54Z</time>
      </trkpt>
      <trkpt lat="43.65323" lon="3.32688">
        <ele>144</ele>
        <time>2021-06-05T11:25:55Z</time>
      </trkpt>
      <trkpt lat="43.65323" lon="3.32691">
        <ele>144</ele>
        <time>2021-06-05T11:25:57Z</time>
      </trkpt>
      <trkpt lat="43.65321" lon="3.32691">
        <ele>144</ele>
        <time>2021-06-05T11:25:59Z</time>
      </trkpt>
      <trkpt lat="43.65318" lon="3.32692">
        <ele>144</ele>
        <time>2021-06-05T11:26:00Z</time>
      </trkpt>
      <trkpt lat="43.65315" lon="3.32693">
        <ele>144</ele>
        <time>2021-06-05T11:26:01Z</time>
      </trkpt>
      <trkpt lat="43.65313" lon="3.32695">
        <ele>144</ele>
        <time>2021-06-05T11:26:02Z</time>
      </trkpt>
      <trkpt lat="43.65311" lon="3.32697">
        <ele>144</ele>
        <time>2021-06-05T11:26:03Z</time>
      </trkpt>
      <trkpt lat="43.65308" lon="3.32699">
        <ele>144</ele>
        <time>2021-06-05T11:26:04Z</time>
      </trkpt>
      <trkpt lat="43.65306" lon="3.32701">
        <ele>143</ele>
        <time>2021-06-05T11:26:05Z</time>
      </trkpt>
      <trkpt lat="43.65304" lon="3.32704">
        <ele>143</ele>
        <time>2021-06-05T11:26:06Z</time>
      </trkpt>
      <trkpt lat="43.65301" lon="3.32706">
        <ele>143</ele>
        <time>2021-06-05T11:26:07Z</time>
      </trkpt>
      <trkpt lat="43.65299" lon="3.32708">
        <ele>143</ele>
        <time>2021-06-05T11:26:08Z</time>
      </trkpt>
      <trkpt lat="43.65296" lon="3.3271">
        <ele>143</ele>
        <time>2021-06-05T11:26:09Z</time>
      </trkpt>
      <trkpt lat="43.65295" lon="3.32712">
        <ele>143</ele>
        <time>2021-06-05T11:26:10Z</time>
      </trkpt>
      <trkpt lat="43.65293" lon="3.32714">
        <ele>143</ele>
        <time>2021-06-05T11:26:11Z</time>
      </trkpt>
      <trkpt lat="43.6529" lon="3.32716">
        <ele>143</ele>
        <time>2021-06-05T11:26:12Z</time>
      </trkpt>
      <trkpt lat="43.65287" lon="3.32716">
        <ele>143</ele>
        <time>2021-06-05T11:26:13Z</time>
      </trkpt>
      <trkpt lat="43.65286" lon="3.32717">
        <ele>143</ele>
        <time>2021-06-05T11:26:14Z</time>
      </trkpt>
      <trkpt lat="43.65283" lon="3.32718">
        <ele>142</ele>
        <time>2021-06-05T11:26:16Z</time>
      </trkpt>
      <trkpt lat="43.65279" lon="3.32719">
        <ele>142</ele>
        <time>2021-06-05T11:26:18Z</time>
      </trkpt>
      <trkpt lat="43.65277" lon="3.32718">
        <ele>142</ele>
        <time>2021-06-05T11:26:19Z</time>
      </trkpt>
      <trkpt lat="43.65276" lon="3.32717">
        <ele>142</ele>
        <time>2021-06-05T11:26:20Z</time>
      </trkpt>
      <trkpt lat="43.65274" lon="3.32714">
        <ele>142</ele>
        <time>2021-06-05T11:26:21Z</time>
      </trkpt>
      <trkpt lat="43.65273" lon="3.32712">
        <ele>142</ele>
        <time>2021-06-05T11:26:22Z</time>
      </trkpt>
      <trkpt lat="43.65272" lon="3.32709">
        <ele>142</ele>
        <time>2021-06-05T11:26:23Z</time>
      </trkpt>
      <trkpt lat="43.6527" lon="3.32707">
        <ele>142</ele>
        <time>2021-06-05T11:26:24Z</time>
      </trkpt>
      <trkpt lat="43.6527" lon="3.32705">
        <ele>141</ele>
        <time>2021-06-05T11:26:25Z</time>
      </trkpt>
      <trkpt lat="43.65269" lon="3.32702">
        <ele>141</ele>
        <time>2021-06-05T11:26:25Z</time>
      </trkpt>
      <trkpt lat="43.65267" lon="3.32698">
        <ele>141</ele>
        <time>2021-06-05T11:26:27Z</time>
      </trkpt>
      <trkpt lat="43.65265" lon="3.32696">
        <ele>141</ele>
        <time>2021-06-05T11:26:28Z</time>
      </trkpt>
      <trkpt lat="43.65263" lon="3.32692">
        <ele>141</ele>
        <time>2021-06-05T11:26:30Z</time>
      </trkpt>
      <trkpt lat="43.65263" lon="3.3269">
        <ele>141</ele>
        <time>2021-06-05T11:26:32Z</time>
      </trkpt>
      <trkpt lat="43.65261" lon="3.32688">
        <ele>141</ele>
        <time>2021-06-05T11:26:35Z</time>
      </trkpt>
      <trkpt lat="43.6526" lon="3.32686">
        <ele>141</ele>
        <time>2021-06-05T11:26:43Z</time>
      </trkpt>
      <trkpt lat="43.65261" lon="3.32686">
        <ele>143</ele>
        <time>2021-06-05T11:29:21Z</time>
      </trkpt>
      <trkpt lat="43.6526" lon="3.32684">
        <ele>143</ele>
        <time>2021-06-05T11:29:24Z</time>
      </trkpt>
      <trkpt lat="43.65266" lon="3.32689">
        <ele>142</ele>
        <time>2021-06-05T11:29:31Z</time>
      </trkpt>
      <trkpt lat="43.65259" lon="3.32684">
        <ele>142</ele>
        <time>2021-06-05T11:29:32Z</time>
      </trkpt>
      <trkpt lat="43.65263" lon="3.32689">
        <ele>141</ele>
        <time>2021-06-05T11:29:41Z</time>
      </trkpt>
      <trkpt lat="43.65263" lon="3.32692">
        <ele>141</ele>
        <time>2021-06-05T11:29:44Z</time>
      </trkpt>
      <trkpt lat="43.65267" lon="3.32693">
        <ele>141</ele>
        <time>2021-06-05T11:29:47Z</time>
      </trkpt>
      <trkpt lat="43.65269" lon="3.32694">
        <ele>141</ele>
        <time>2021-06-05T11:29:49Z</time>
      </trkpt>
      <trkpt lat="43.65269" lon="3.32694">
        <ele>142</ele>
        <time>2021-06-05T11:29:56Z</time>
      </trkpt>
      <trkpt lat="43.65266" lon="3.32688">
        <ele>142</ele>
        <time>2021-06-05T11:30:41Z</time>
      </trkpt>
      <trkpt lat="43.65269" lon="3.32692">
        <ele>141</ele>
        <time>2021-06-05T11:30:53Z</time>
      </trkpt>
      <trkpt lat="43.65269" lon="3.32692">
        <ele>141</ele>
        <time>2021-06-05T11:30:53Z</time>
      </trkpt>
      <trkpt lat="43.65269" lon="3.32692">
        <ele>142</ele>
        <time>2021-06-05T11:30:59Z</time>
      </trkpt>
      <trkpt lat="43.65263" lon="3.32691">
        <ele>140</ele>
        <time>2021-06-05T11:33:27Z</time>
      </trkpt>
      <trkpt lat="43.65263" lon="3.32689">
        <ele>140</ele>
        <time>2021-06-05T11:33:27Z</time>
      </trkpt>
      <trkpt lat="43.65261" lon="3.32687">
        <ele>140</ele>
        <time>2021-06-05T11:33:29Z</time>
      </trkpt>
      <trkpt lat="43.65261" lon="3.32684">
        <ele>140</ele>
        <time>2021-06-05T11:33:31Z</time>
      </trkpt>
      <trkpt lat="43.6526" lon="3.3268">
        <ele>140</ele>
        <time>2021-06-05T11:33:34Z</time>
      </trkpt>
      <trkpt lat="43.6526" lon="3.32678">
        <ele>140</ele>
        <time>2021-06-05T11:33:36Z</time>
      </trkpt>
      <trkpt lat="43.65259" lon="3.32675">
        <ele>140</ele>
        <time>2021-06-05T11:33:38Z</time>
      </trkpt>
      <trkpt lat="43.65257" lon="3.32673">
        <ele>140</ele>
        <time>2021-06-05T11:33:41Z</time>
      </trkpt>
      <trkpt lat="43.65257" lon="3.32672">
        <ele>141</ele>
        <time>2021-06-05T11:33:49Z</time>
      </trkpt>
      <trkpt lat="43.65251" lon="3.3267">
        <ele>139</ele>
        <time>2021-06-05T11:39:53Z</time>
      </trkpt>
      <trkpt lat="43.6525" lon="3.3267">
        <ele>139</ele>
        <time>2021-06-05T11:39:54Z</time>
      </trkpt>
      <trkpt lat="43.65249" lon="3.3267">
        <ele>139</ele>
        <time>2021-06-05T11:39:56Z</time>
      </trkpt>
      <trkpt lat="43.65247" lon="3.32669">
        <ele>139</ele>
        <time>2021-06-05T11:39:58Z</time>
      </trkpt>
      <trkpt lat="43.65245" lon="3.3267">
        <ele>139</ele>
        <time>2021-06-05T11:40:02Z</time>
      </trkpt>
      <trkpt lat="43.65247" lon="3.3267">
        <ele>140</ele>
        <time>2021-06-05T11:40:07Z</time>
      </trkpt>
      <trkpt lat="43.65249" lon="3.32669">
        <ele>140</ele>
        <time>2021-06-05T11:40:10Z</time>
      </trkpt>
      <trkpt lat="43.65251" lon="3.32669">
        <ele>140</ele>
        <time>2021-06-05T11:40:12Z</time>
      </trkpt>
      <trkpt lat="43.65253" lon="3.32669">
        <ele>139</ele>
        <time>2021-06-05T11:40:15Z</time>
      </trkpt>
      <trkpt lat="43.65256" lon="3.32668">
        <ele>139</ele>
        <time>2021-06-05T11:40:18Z</time>
      </trkpt>
      <trkpt lat="43.65258" lon="3.32669">
        <ele>139</ele>
        <time>2021-06-05T11:40:21Z</time>
      </trkpt>
      <trkpt lat="43.6526" lon="3.32669">
        <ele>139</ele>
        <time>2021-06-05T11:40:29Z</time>
      </trkpt>
      <trkpt lat="43.6525" lon="3.32669">
        <ele>138</ele>
        <time>2021-06-05T11:48:33Z</time>
      </trkpt>
      <trkpt lat="43.65248" lon="3.32668">
        <ele>138</ele>
        <time>2021-06-05T11:48:35Z</time>
      </trkpt>
      <trkpt lat="43.65246" lon="3.32667">
        <ele>138</ele>
        <time>2021-06-05T11:48:38Z</time>
      </trkpt>
      <trkpt lat="43.65245" lon="3.32666">
        <ele>138</ele>
        <time>2021-06-05T11:48:45Z</time>
      </trkpt>
      <trkpt lat="43.6525" lon="3.32669">
        <ele>138</ele>
        <time>2021-06-05T11:48:53Z</time>
      </trkpt>
      <trkpt lat="43.65251" lon="3.32669">
        <ele>138</ele>
        <time>2021-06-05T11:48:54Z</time>
      </trkpt>
      <trkpt lat="43.65253" lon="3.3267">
        <ele>138</ele>
        <time>2021-06-05T11:48:57Z</time>
      </trkpt>
      <trkpt lat="43.65254" lon="3.32672">
        <ele>138</ele>
        <time>2021-06-05T11:48:59Z</time>
      </trkpt>
      <trkpt lat="43.65256" lon="3.32672">
        <ele>139</ele>
        <time>2021-06-05T11:49:03Z</time>
      </trkpt>
      <trkpt lat="43.65259" lon="3.32671">
        <ele>139</ele>
        <time>2021-06-05T11:49:06Z</time>
      </trkpt>
      <trkpt lat="43.65258" lon="3.32669">
        <ele>139</ele>
        <time>2021-06-05T11:49:15Z</time>
      </trkpt>
      <trkpt lat="43.6526" lon="3.32675">
        <ele>139</ele>
        <time>2021-06-05T11:50:45Z</time>
      </trkpt>
      <trkpt lat="43.65261" lon="3.32677">
        <ele>139</ele>
        <time>2021-06-05T11:50:47Z</time>
      </trkpt>
      <trkpt lat="43.65262" lon="3.32679">
        <ele>139</ele>
        <time>2021-06-05T11:50:49Z</time>
      </trkpt>
      <trkpt lat="43.65262" lon="3.3268">
        <ele>139</ele>
        <time>2021-06-05T11:50:55Z</time>
      </trkpt>
      <trkpt lat="43.65265" lon="3.32689">
        <ele>139</ele>
        <time>2021-06-05T11:52:12Z</time>
      </trkpt>
      <trkpt lat="43.65268" lon="3.32689">
        <ele>139</ele>
        <time>2021-06-05T11:52:14Z</time>
      </trkpt>
      <trkpt lat="43.65272" lon="3.32689">
        <ele>139</ele>
        <time>2021-06-05T11:52:16Z</time>
      </trkpt>
      <trkpt lat="43.65274" lon="3.32689">
        <ele>139</ele>
        <time>2021-06-05T11:52:17Z</time>
      </trkpt>
      <trkpt lat="43.65277" lon="3.32689">
        <ele>139</ele>
        <time>2021-06-05T11:52:18Z</time>
      </trkpt>
      <trkpt lat="43.6528" lon="3.32689">
        <ele>139</ele>
        <time>2021-06-05T11:52:19Z</time>
      </trkpt>
      <trkpt lat="43.65283" lon="3.3269">
        <ele>139</ele>
        <time>2021-06-05T11:52:20Z</time>
      </trkpt>
      <trkpt lat="43.65286" lon="3.3269">
        <ele>139</ele>
        <time>2021-06-05T11:52:21Z</time>
      </trkpt>
      <trkpt lat="43.65288" lon="3.32691">
        <ele>139</ele>
        <time>2021-06-05T11:52:22Z</time>
      </trkpt>
      <trkpt lat="43.65291" lon="3.32691">
        <ele>140</ele>
        <time>2021-06-05T11:52:23Z</time>
      </trkpt>
      <trkpt lat="43.65294" lon="3.32691">
        <ele>140</ele>
        <time>2021-06-05T11:52:24Z</time>
      </trkpt>
      <trkpt lat="43.65296" lon="3.32691">
        <ele>140</ele>
        <time>2021-06-05T11:52:25Z</time>
      </trkpt>
      <trkpt lat="43.65299" lon="3.32691">
        <ele>140</ele>
        <time>2021-06-05T11:52:26Z</time>
      </trkpt>
      <trkpt lat="43.65302" lon="3.32691">
        <ele>140</ele>
        <time>2021-06-05T11:52:27Z</time>
      </trkpt>
      <trkpt lat="43.65305" lon="3.32691">
        <ele>140</ele>
        <time>2021-06-05T11:52:28Z</time>
      </trkpt>
      <trkpt lat="43.65308" lon="3.32691">
        <ele>140</ele>
        <time>2021-06-05T11:52:29Z</time>
      </trkpt>
      <trkpt lat="43.6531" lon="3.3269">
        <ele>140</ele>
        <time>2021-06-05T11:52:30Z</time>
      </trkpt>
      <trkpt lat="43.65312" lon="3.32689">
        <ele>140</ele>
        <time>2021-06-05T11:52:31Z</time>
      </trkpt>
      <trkpt lat="43.65314" lon="3.32689">
        <ele>140</ele>
        <time>2021-06-05T11:52:32Z</time>
      </trkpt>
      <trkpt lat="43.65317" lon="3.32688">
        <ele>141</ele>
        <time>2021-06-05T11:52:33Z</time>
      </trkpt>
      <trkpt lat="43.65319" lon="3.32687">
        <ele>141</ele>
        <time>2021-06-05T11:52:33Z</time>
      </trkpt>
      <trkpt lat="43.65322" lon="3.32686">
        <ele>141</ele>
        <time>2021-06-05T11:52:34Z</time>
      </trkpt>
      <trkpt lat="43.65323" lon="3.32687">
        <ele>141</ele>
        <time>2021-06-05T11:52:35Z</time>
      </trkpt>
      <trkpt lat="43.65326" lon="3.32689">
        <ele>141</ele>
        <time>2021-06-05T11:52:36Z</time>
      </trkpt>
      <trkpt lat="43.65326" lon="3.32692">
        <ele>141</ele>
        <time>2021-06-05T11:52:37Z</time>
      </trkpt>
      <trkpt lat="43.65327" lon="3.32697">
        <ele>141</ele>
        <time>2021-06-05T11:52:38Z</time>
      </trkpt>
      <trkpt lat="43.65327" lon="3.327">
        <ele>141</ele>
        <time>2021-06-05T11:52:39Z</time>
      </trkpt>
      <trkpt lat="43.65328" lon="3.32705">
        <ele>141</ele>
        <time>2021-06-05T11:52:40Z</time>
      </trkpt>
      <trkpt lat="43.65329" lon="3.3271">
        <ele>141</ele>
        <time>2021-06-05T11:52:41Z</time>
      </trkpt>
      <trkpt lat="43.6533" lon="3.32714">
        <ele>141</ele>
        <time>2021-06-05T11:52:42Z</time>
      </trkpt>
      <trkpt lat="43.65331" lon="3.32719">
        <ele>141</ele>
        <time>2021-06-05T11:52:43Z</time>
      </trkpt>
      <trkpt lat="43.65332" lon="3.32724">
        <ele>141</ele>
        <time>2021-06-05T11:52:44Z</time>
      </trkpt>
      <trkpt lat="43.65333" lon="3.32729">
        <ele>141</ele>
        <time>2021-06-05T11:52:45Z</time>
      </trkpt>
      <trkpt lat="43.65334" lon="3.32734">
        <ele>141</ele>
        <time>2021-06-05T11:52:46Z</time>
      </trkpt>
      <trkpt lat="43.65335" lon="3.32739">
        <ele>141</ele>
        <time>2021-06-05T11:52:47Z</time>
      </trkpt>
      <trkpt lat="43.65336" lon="3.32744">
        <ele>141</ele>
        <time>2021-06-05T11:52:48Z</time>
      </trkpt>
      <trkpt lat="43.65337" lon="3.3275">
        <ele>141</ele>
        <time>2021-06-05T11:52:49Z</time>
      </trkpt>
      <trkpt lat="43.65338" lon="3.32756">
        <ele>141</ele>
        <time>2021-06-05T11:52:50Z</time>
      </trkpt>
      <trkpt lat="43.65339" lon="3.32761">
        <ele>141</ele>
        <time>2021-06-05T11:52:51Z</time>
      </trkpt>
      <trkpt lat="43.65339" lon="3.32766">
        <ele>140</ele>
        <time>2021-06-05T11:52:53Z</time>
      </trkpt>
      <trkpt lat="43.65341" lon="3.32772">
        <ele>140</ele>
        <time>2021-06-05T11:52:54Z</time>
      </trkpt>
      <trkpt lat="43.65342" lon="3.32777">
        <ele>140</ele>
        <time>2021-06-05T11:52:55Z</time>
      </trkpt>
      <trkpt lat="43.65343" lon="3.32782">
        <ele>140</ele>
        <time>2021-06-05T11:52:56Z</time>
      </trkpt>
      <trkpt lat="43.65345" lon="3.32787">
        <ele>140</ele>
        <time>2021-06-05T11:52:57Z</time>
      </trkpt>
      <trkpt lat="43.65346" lon="3.32791">
        <ele>140</ele>
        <time>2021-06-05T11:52:58Z</time>
      </trkpt>
      <trkpt lat="43.65348" lon="3.32794">
        <ele>140</ele>
        <time>2021-06-05T11:52:59Z</time>
      </trkpt>
      <trkpt lat="43.65351" lon="3.32796">
        <ele>140</ele>
        <time>2021-06-05T11:53:00Z</time>
      </trkpt>
      <trkpt lat="43.65353" lon="3.32798">
        <ele>140</ele>
        <time>2021-06-05T11:53:01Z</time>
      </trkpt>
      <trkpt lat="43.65355" lon="3.328">
        <ele>140</ele>
        <time>2021-06-05T11:53:02Z</time>
      </trkpt>
      <trkpt lat="43.65357" lon="3.32804">
        <ele>141</ele>
        <time>2021-06-05T11:53:04Z</time>
      </trkpt>
      <trkpt lat="43.65359" lon="3.32806">
        <ele>141</ele>
        <time>2021-06-05T11:53:05Z</time>
      </trkpt>
      <trkpt lat="43.6536" lon="3.32808">
        <ele>141</ele>
        <time>2021-06-05T11:53:06Z</time>
      </trkpt>
      <trkpt lat="43.65361" lon="3.3281">
        <ele>141</ele>
        <time>2021-06-05T11:53:07Z</time>
      </trkpt>
      <trkpt lat="43.65362" lon="3.32813">
        <ele>141</ele>
        <time>2021-06-05T11:53:08Z</time>
      </trkpt>
      <trkpt lat="43.65363" lon="3.32815">
        <ele>141</ele>
        <time>2021-06-05T11:53:09Z</time>
      </trkpt>
      <trkpt lat="43.65364" lon="3.32819">
        <ele>141</ele>
        <time>2021-06-05T11:53:10Z</time>
      </trkpt>
      <trkpt lat="43.65365" lon="3.32822">
        <ele>141</ele>
        <time>2021-06-05T11:53:11Z</time>
      </trkpt>
      <trkpt lat="43.65366" lon="3.32825">
        <ele>141</ele>
        <time>2021-06-05T11:53:12Z</time>
      </trkpt>
      <trkpt lat="43.65367" lon="3.32828">
        <ele>143</ele>
        <time>2021-06-05T11:53:13Z</time>
      </trkpt>
      <trkpt lat="43.65368" lon="3.32831">
        <ele>143</ele>
        <time>2021-06-05T11:53:14Z</time>
      </trkpt>
      <trkpt lat="43.6537" lon="3.32834">
        <ele>143</ele>
        <time>2021-06-05T11:53:15Z</time>
      </trkpt>
      <trkpt lat="43.65371" lon="3.32837">
        <ele>143</ele>
        <time>2021-06-05T11:53:16Z</time>
      </trkpt>
      <trkpt lat="43.65372" lon="3.3284">
        <ele>143</ele>
        <time>2021-06-05T11:53:17Z</time>
      </trkpt>
      <trkpt lat="43.65373" lon="3.32842">
        <ele>143</ele>
        <time>2021-06-05T11:53:18Z</time>
      </trkpt>
      <trkpt lat="43.65375" lon="3.32845">
        <ele>143</ele>
        <time>2021-06-05T11:53:19Z</time>
      </trkpt>
      <trkpt lat="43.65377" lon="3.32848">
        <ele>143</ele>
        <time>2021-06-05T11:53:20Z</time>
      </trkpt>
      <trkpt lat="43.65379" lon="3.3285">
        <ele>143</ele>
        <time>2021-06-05T11:53:21Z</time>
      </trkpt>
      <trkpt lat="43.65381" lon="3.32853">
        <ele>143</ele>
        <time>2021-06-05T11:53:22Z</time>
      </trkpt>
      <trkpt lat="43.65384" lon="3.32855">
        <ele>144</ele>
        <time>2021-06-05T11:53:23Z</time>
      </trkpt>
      <trkpt lat="43.65387" lon="3.32858">
        <ele>144</ele>
        <time>2021-06-05T11:53:24Z</time>
      </trkpt>
      <trkpt lat="43.65389" lon="3.3286">
        <ele>144</ele>
        <time>2021-06-05T11:53:25Z</time>
      </trkpt>
      <trkpt lat="43.65391" lon="3.32863">
        <ele>144</ele>
        <time>2021-06-05T11:53:26Z</time>
      </trkpt>
      <trkpt lat="43.65394" lon="3.32866">
        <ele>144</ele>
        <time>2021-06-05T11:53:27Z</time>
      </trkpt>
      <trkpt lat="43.65397" lon="3.32869">
        <ele>144</ele>
        <time>2021-06-05T11:53:28Z</time>
      </trkpt>
      <trkpt lat="43.65399" lon="3.32871">
        <ele>144</ele>
        <time>2021-06-05T11:53:29Z</time>
      </trkpt>
      <trkpt lat="43.65402" lon="3.32873">
        <ele>144</ele>
        <time>2021-06-05T11:53:30Z</time>
      </trkpt>
      <trkpt lat="43.65405" lon="3.32876">
        <ele>144</ele>
        <time>2021-06-05T11:53:31Z</time>
      </trkpt>
      <trkpt lat="43.65408" lon="3.32878">
        <ele>144</ele>
        <time>2021-06-05T11:53:32Z</time>
      </trkpt>
      <trkpt lat="43.6541" lon="3.32881">
        <ele>144</ele>
        <time>2021-06-05T11:53:33Z</time>
      </trkpt>
      <trkpt lat="43.65412" lon="3.32884">
        <ele>144</ele>
        <time>2021-06-05T11:53:34Z</time>
      </trkpt>
      <trkpt lat="43.65415" lon="3.32888">
        <ele>144</ele>
        <time>2021-06-05T11:53:35Z</time>
      </trkpt>
      <trkpt lat="43.65417" lon="3.32893">
        <ele>144</ele>
        <time>2021-06-05T11:53:36Z</time>
      </trkpt>
      <trkpt lat="43.65419" lon="3.32899">
        <ele>144</ele>
        <time>2021-06-05T11:53:37Z</time>
      </trkpt>
      <trkpt lat="43.65419" lon="3.32905">
        <ele>144</ele>
        <time>2021-06-05T11:53:38Z</time>
      </trkpt>
      <trkpt lat="43.65419" lon="3.3291">
        <ele>144</ele>
        <time>2021-06-05T11:53:39Z</time>
      </trkpt>
      <trkpt lat="43.6542" lon="3.32915">
        <ele>144</ele>
        <time>2021-06-05T11:53:40Z</time>
      </trkpt>
      <trkpt lat="43.65422" lon="3.32919">
        <ele>144</ele>
        <time>2021-06-05T11:53:41Z</time>
      </trkpt>
      <trkpt lat="43.65424" lon="3.32923">
        <ele>144</ele>
        <time>2021-06-05T11:53:42Z</time>
      </trkpt>
      <trkpt lat="43.65425" lon="3.32928">
        <ele>143</ele>
        <time>2021-06-05T11:53:43Z</time>
      </trkpt>
      <trkpt lat="43.65426" lon="3.32932">
        <ele>143</ele>
        <time>2021-06-05T11:53:44Z</time>
      </trkpt>
      <trkpt lat="43.65427" lon="3.32935">
        <ele>143</ele>
        <time>2021-06-05T11:53:45Z</time>
      </trkpt>
      <trkpt lat="43.65429" lon="3.32938">
        <ele>143</ele>
        <time>2021-06-05T11:53:46Z</time>
      </trkpt>
      <trkpt lat="43.6543" lon="3.32939">
        <ele>143</ele>
        <time>2021-06-05T11:53:47Z</time>
      </trkpt>
      <trkpt lat="43.65433" lon="3.3294">
        <ele>143</ele>
        <time>2021-06-05T11:53:48Z</time>
      </trkpt>
      <trkpt lat="43.65435" lon="3.32942">
        <ele>143</ele>
        <time>2021-06-05T11:53:49Z</time>
      </trkpt>
      <trkpt lat="43.65438" lon="3.32942">
        <ele>143</ele>
        <time>2021-06-05T11:53:50Z</time>
      </trkpt>
      <trkpt lat="43.6544" lon="3.32943">
        <ele>143</ele>
        <time>2021-06-05T11:53:51Z</time>
      </trkpt>
      <trkpt lat="43.65442" lon="3.32943">
        <ele>143</ele>
        <time>2021-06-05T11:53:52Z</time>
      </trkpt>
      <trkpt lat="43.65444" lon="3.32943">
        <ele>144</ele>
        <time>2021-06-05T11:53:53Z</time>
      </trkpt>
      <trkpt lat="43.65447" lon="3.32942">
        <ele>144</ele>
        <time>2021-06-05T11:53:54Z</time>
      </trkpt>
      <trkpt lat="43.65449" lon="3.32942">
        <ele>144</ele>
        <time>2021-06-05T11:53:55Z</time>
      </trkpt>
      <trkpt lat="43.65451" lon="3.32942">
        <ele>144</ele>
        <time>2021-06-05T11:53:56Z</time>
      </trkpt>
      <trkpt lat="43.65454" lon="3.32943">
        <ele>144</ele>
        <time>2021-06-05T11:53:57Z</time>
      </trkpt>
      <trkpt lat="43.65456" lon="3.32943">
        <ele>144</ele>
        <time>2021-06-05T11:53:58Z</time>
      </trkpt>
      <trkpt lat="43.65458" lon="3.32944">
        <ele>144</ele>
        <time>2021-06-05T11:53:59Z</time>
      </trkpt>
      <trkpt lat="43.6546" lon="3.32945">
        <ele>144</ele>
        <time>2021-06-05T11:54:00Z</time>
      </trkpt>
      <trkpt lat="43.65462" lon="3.32946">
        <ele>144</ele>
        <time>2021-06-05T11:54:01Z</time>
      </trkpt>
      <trkpt lat="43.65463" lon="3.32947">
        <ele>144</ele>
        <time>2021-06-05T11:54:02Z</time>
      </trkpt>
      <trkpt lat="43.65465" lon="3.32948">
        <ele>145</ele>
        <time>2021-06-05T11:54:03Z</time>
      </trkpt>
      <trkpt lat="43.65467" lon="3.32949">
        <ele>145</ele>
        <time>2021-06-05T11:54:04Z</time>
      </trkpt>
      <trkpt lat="43.65469" lon="3.3295">
        <ele>145</ele>
        <time>2021-06-05T11:54:05Z</time>
      </trkpt>
      <trkpt lat="43.65471" lon="3.32952">
        <ele>145</ele>
        <time>2021-06-05T11:54:06Z</time>
      </trkpt>
      <trkpt lat="43.65473" lon="3.32954">
        <ele>145</ele>
        <time>2021-06-05T11:54:08Z</time>
      </trkpt>
      <trkpt lat="43.65474" lon="3.32955">
        <ele>145</ele>
        <time>2021-06-05T11:54:10Z</time>
      </trkpt>
      <trkpt lat="43.65477" lon="3.32958">
        <ele>145</ele>
        <time>2021-06-05T11:54:12Z</time>
      </trkpt>
      <trkpt lat="43.65478" lon="3.32961">
        <ele>146</ele>
        <time>2021-06-05T11:54:14Z</time>
      </trkpt>
      <trkpt lat="43.65479" lon="3.32965">
        <ele>146</ele>
        <time>2021-06-05T11:54:15Z</time>
      </trkpt>
      <trkpt lat="43.65479" lon="3.32971">
        <ele>146</ele>
        <time>2021-06-05T11:54:16Z</time>
      </trkpt>
      <trkpt lat="43.6548" lon="3.32976">
        <ele>146</ele>
        <time>2021-06-05T11:54:17Z</time>
      </trkpt>
      <trkpt lat="43.65481" lon="3.32978">
        <ele>146</ele>
        <time>2021-06-05T11:54:18Z</time>
      </trkpt>
      <trkpt lat="43.65482" lon="3.32982">
        <ele>146</ele>
        <time>2021-06-05T11:54:20Z</time>
      </trkpt>
      <trkpt lat="43.65482" lon="3.32986">
        <ele>146</ele>
        <time>2021-06-05T11:54:22Z</time>
      </trkpt>
      <trkpt lat="43.65482" lon="3.3299">
        <ele>145</ele>
        <time>2021-06-05T11:54:22Z</time>
      </trkpt>
      <trkpt lat="43.65482" lon="3.32993">
        <ele>145</ele>
        <time>2021-06-05T11:54:23Z</time>
      </trkpt>
      <trkpt lat="43.65483" lon="3.32996">
        <ele>145</ele>
        <time>2021-06-05T11:54:24Z</time>
      </trkpt>
      <trkpt lat="43.65486" lon="3.32999">
        <ele>145</ele>
        <time>2021-06-05T11:54:26Z</time>
      </trkpt>
      <trkpt lat="43.65487" lon="3.33001">
        <ele>145</ele>
        <time>2021-06-05T11:54:27Z</time>
      </trkpt>
      <trkpt lat="43.65489" lon="3.33004">
        <ele>145</ele>
        <time>2021-06-05T11:54:28Z</time>
      </trkpt>
      <trkpt lat="43.6549" lon="3.33006">
        <ele>145</ele>
        <time>2021-06-05T11:54:29Z</time>
      </trkpt>
      <trkpt lat="43.65491" lon="3.33009">
        <ele>145</ele>
        <time>2021-06-05T11:54:30Z</time>
      </trkpt>
      <trkpt lat="43.65493" lon="3.33011">
        <ele>145</ele>
        <time>2021-06-05T11:54:31Z</time>
      </trkpt>
      <trkpt lat="43.65495" lon="3.33013">
        <ele>145</ele>
        <time>2021-06-05T11:54:33Z</time>
      </trkpt>
      <trkpt lat="43.65497" lon="3.33016">
        <ele>145</ele>
        <time>2021-06-05T11:54:34Z</time>
      </trkpt>
      <trkpt lat="43.65498" lon="3.33019">
        <ele>145</ele>
        <time>2021-06-05T11:54:35Z</time>
      </trkpt>
      <trkpt lat="43.655" lon="3.33021">
        <ele>145</ele>
        <time>2021-06-05T11:54:36Z</time>
      </trkpt>
      <trkpt lat="43.65502" lon="3.33023">
        <ele>145</ele>
        <time>2021-06-05T11:54:37Z</time>
      </trkpt>
      <trkpt lat="43.65504" lon="3.33025">
        <ele>145</ele>
        <time>2021-06-05T11:54:38Z</time>
      </trkpt>
      <trkpt lat="43.65505" lon="3.33028">
        <ele>145</ele>
        <time>2021-06-05T11:54:39Z</time>
      </trkpt>
      <trkpt lat="43.65507" lon="3.3303">
        <ele>145</ele>
        <time>2021-06-05T11:54:40Z</time>
      </trkpt>
      <trkpt lat="43.65509" lon="3.33032">
        <ele>145</ele>
        <time>2021-06-05T11:54:41Z</time>
      </trkpt>
      <trkpt lat="43.65511" lon="3.33034">
        <ele>145</ele>
        <time>2021-06-05T11:54:42Z</time>
      </trkpt>
      <trkpt lat="43.65512" lon="3.33036">
        <ele>145</ele>
        <time>2021-06-05T11:54:43Z</time>
      </trkpt>
      <trkpt lat="43.65514" lon="3.33037">
        <ele>145</ele>
        <time>2021-06-05T11:54:44Z</time>
      </trkpt>
      <trkpt lat="43.65514" lon="3.3304">
        <ele>145</ele>
        <time>2021-06-05T11:54:45Z</time>
      </trkpt>
      <trkpt lat="43.65516" lon="3.33042">
        <ele>145</ele>
        <time>2021-06-05T11:54:46Z</time>
      </trkpt>
      <trkpt lat="43.65516" lon="3.33046">
        <ele>145</ele>
        <time>2021-06-05T11:54:47Z</time>
      </trkpt>
      <trkpt lat="43.65517" lon="3.3305">
        <ele>145</ele>
        <time>2021-06-05T11:54:48Z</time>
      </trkpt>
      <trkpt lat="43.65518" lon="3.33052">
        <ele>145</ele>
        <time>2021-06-05T11:54:49Z</time>
      </trkpt>
      <trkpt lat="43.6552" lon="3.33056">
        <ele>145</ele>
        <time>2021-06-05T11:54:50Z</time>
      </trkpt>
      <trkpt lat="43.65522" lon="3.33059">
        <ele>145</ele>
        <time>2021-06-05T11:54:51Z</time>
      </trkpt>
      <trkpt lat="43.65524" lon="3.33063">
        <ele>145</ele>
        <time>2021-06-05T11:54:52Z</time>
      </trkpt>
      <trkpt lat="43.65525" lon="3.33067">
        <ele>145</ele>
        <time>2021-06-05T11:54:53Z</time>
      </trkpt>
      <trkpt lat="43.65525" lon="3.33071">
        <ele>145</ele>
        <time>2021-06-05T11:54:54Z</time>
      </trkpt>
      <trkpt lat="43.65525" lon="3.33074">
        <ele>145</ele>
        <time>2021-06-05T11:54:55Z</time>
      </trkpt>
      <trkpt lat="43.65525" lon="3.33077">
        <ele>145</ele>
        <time>2021-06-05T11:54:56Z</time>
      </trkpt>
      <trkpt lat="43.65526" lon="3.33079">
        <ele>145</ele>
        <time>2021-06-05T11:54:57Z</time>
      </trkpt>
      <trkpt lat="43.65528" lon="3.33082">
        <ele>145</ele>
        <time>2021-06-05T11:54:58Z</time>
      </trkpt>
      <trkpt lat="43.6553" lon="3.33083">
        <ele>145</ele>
        <time>2021-06-05T11:54:59Z</time>
      </trkpt>
      <trkpt lat="43.65532" lon="3.33085">
        <ele>145</ele>
        <time>2021-06-05T11:55:00Z</time>
      </trkpt>
      <trkpt lat="43.65533" lon="3.33087">
        <ele>145</ele>
        <time>2021-06-05T11:55:01Z</time>
      </trkpt>
      <trkpt lat="43.65536" lon="3.33091">
        <ele>146</ele>
        <time>2021-06-05T11:55:02Z</time>
      </trkpt>
      <trkpt lat="43.65537" lon="3.33092">
        <ele>146</ele>
        <time>2021-06-05T11:55:03Z</time>
      </trkpt>
      <trkpt lat="43.65539" lon="3.33094">
        <ele>146</ele>
        <time>2021-06-05T11:55:04Z</time>
      </trkpt>
      <trkpt lat="43.65541" lon="3.33094">
        <ele>146</ele>
        <time>2021-06-05T11:55:05Z</time>
      </trkpt>
      <trkpt lat="43.65543" lon="3.33094">
        <ele>146</ele>
        <time>2021-06-05T11:55:06Z</time>
      </trkpt>
      <trkpt lat="43.65546" lon="3.33092">
        <ele>146</ele>
        <time>2021-06-05T11:55:08Z</time>
      </trkpt>
      <trkpt lat="43.65546" lon="3.33093">
        <ele>146</ele>
        <time>2021-06-05T11:55:15Z</time>
      </trkpt>
      <trkpt lat="43.65553" lon="3.33102">
        <ele>146</ele>
        <time>2021-06-05T11:55:33Z</time>
      </trkpt>
      <trkpt lat="43.65554" lon="3.33104">
        <ele>146</ele>
        <time>2021-06-05T11:55:34Z</time>
      </trkpt>
      <trkpt lat="43.65555" lon="3.33108">
        <ele>146</ele>
        <time>2021-06-05T11:55:39Z</time>
      </trkpt>
      <trkpt lat="43.65556" lon="3.33108">
        <ele>146</ele>
        <time>2021-06-05T11:55:46Z</time>
      </trkpt>
      <trkpt lat="43.65559" lon="3.33116">
        <ele>146</ele>
        <time>2021-06-05T11:56:16Z</time>
      </trkpt>
      <trkpt lat="43.65561" lon="3.33119">
        <ele>146</ele>
        <time>2021-06-05T11:56:17Z</time>
      </trkpt>
      <trkpt lat="43.65562" lon="3.33121">
        <ele>146</ele>
        <time>2021-06-05T11:56:18Z</time>
      </trkpt>
      <trkpt lat="43.65565" lon="3.33123">
        <ele>146</ele>
        <time>2021-06-05T11:56:20Z</time>
      </trkpt>
      <trkpt lat="43.65567" lon="3.33124">
        <ele>146</ele>
        <time>2021-06-05T11:56:21Z</time>
      </trkpt>
      <trkpt lat="43.65569" lon="3.33126">
        <ele>146</ele>
        <time>2021-06-05T11:56:22Z</time>
      </trkpt>
      <trkpt lat="43.6557" lon="3.33127">
        <ele>146</ele>
        <time>2021-06-05T11:56:23Z</time>
      </trkpt>
      <trkpt lat="43.65572" lon="3.33129">
        <ele>146</ele>
        <time>2021-06-05T11:56:24Z</time>
      </trkpt>
      <trkpt lat="43.65574" lon="3.3313">
        <ele>146</ele>
        <time>2021-06-05T11:56:25Z</time>
      </trkpt>
      <trkpt lat="43.65576" lon="3.33131">
        <ele>146</ele>
        <time>2021-06-05T11:56:26Z</time>
      </trkpt>
      <trkpt lat="43.65578" lon="3.33131">
        <ele>146</ele>
        <time>2021-06-05T11:56:27Z</time>
      </trkpt>
      <trkpt lat="43.6558" lon="3.33132">
        <ele>146</ele>
        <time>2021-06-05T11:56:28Z</time>
      </trkpt>
      <trkpt lat="43.65581" lon="3.33133">
        <ele>146</ele>
        <time>2021-06-05T11:56:29Z</time>
      </trkpt>
      <trkpt lat="43.65583" lon="3.33135">
        <ele>146</ele>
        <time>2021-06-05T11:56:30Z</time>
      </trkpt>
      <trkpt lat="43.65585" lon="3.33137">
        <ele>146</ele>
        <time>2021-06-05T11:56:31Z</time>
      </trkpt>
      <trkpt lat="43.65586" lon="3.33141">
        <ele>146</ele>
        <time>2021-06-05T11:56:32Z</time>
      </trkpt>
      <trkpt lat="43.65586" lon="3.33145">
        <ele>146</ele>
        <time>2021-06-05T11:56:33Z</time>
      </trkpt>
      <trkpt lat="43.65587" lon="3.3315">
        <ele>146</ele>
        <time>2021-06-05T11:56:34Z</time>
      </trkpt>
      <trkpt lat="43.65588" lon="3.33155">
        <ele>146</ele>
        <time>2021-06-05T11:56:35Z</time>
      </trkpt>
      <trkpt lat="43.65591" lon="3.33161">
        <ele>146</ele>
        <time>2021-06-05T11:56:36Z</time>
      </trkpt>
      <trkpt lat="43.65593" lon="3.33166">
        <ele>145</ele>
        <time>2021-06-05T11:56:36Z</time>
      </trkpt>
      <trkpt lat="43.65596" lon="3.33172">
        <ele>145</ele>
        <time>2021-06-05T11:56:37Z</time>
      </trkpt>
      <trkpt lat="43.65598" lon="3.33175">
        <ele>145</ele>
        <time>2021-06-05T11:56:38Z</time>
      </trkpt>
      <trkpt lat="43.656" lon="3.33177">
        <ele>145</ele>
        <time>2021-06-05T11:56:39Z</time>
      </trkpt>
      <trkpt lat="43.65602" lon="3.33179">
        <ele>145</ele>
        <time>2021-06-05T11:56:40Z</time>
      </trkpt>
      <trkpt lat="43.65604" lon="3.33177">
        <ele>145</ele>
        <time>2021-06-05T11:56:42Z</time>
      </trkpt>
      <trkpt lat="43.65607" lon="3.33174">
        <ele>145</ele>
        <time>2021-06-05T11:56:44Z</time>
      </trkpt>
      <trkpt lat="43.65608" lon="3.33172">
        <ele>145</ele>
        <time>2021-06-05T11:56:45Z</time>
      </trkpt>
      <trkpt lat="43.6561" lon="3.33172">
        <ele>144</ele>
        <time>2021-06-05T11:56:47Z</time>
      </trkpt>
      <trkpt lat="43.65612" lon="3.33172">
        <ele>144</ele>
        <time>2021-06-05T11:56:48Z</time>
      </trkpt>
      <trkpt lat="43.65615" lon="3.33175">
        <ele>144</ele>
        <time>2021-06-05T11:56:49Z</time>
      </trkpt>
      <trkpt lat="43.65617" lon="3.3318">
        <ele>144</ele>
        <time>2021-06-05T11:56:50Z</time>
      </trkpt>
      <trkpt lat="43.65619" lon="3.33184">
        <ele>144</ele>
        <time>2021-06-05T11:56:51Z</time>
      </trkpt>
      <trkpt lat="43.65621" lon="3.33189">
        <ele>144</ele>
        <time>2021-06-05T11:56:52Z</time>
      </trkpt>
      <trkpt lat="43.65622" lon="3.33193">
        <ele>144</ele>
        <time>2021-06-05T11:56:53Z</time>
      </trkpt>
      <trkpt lat="43.65623" lon="3.33198">
        <ele>144</ele>
        <time>2021-06-05T11:56:54Z</time>
      </trkpt>
      <trkpt lat="43.65623" lon="3.33202">
        <ele>144</ele>
        <time>2021-06-05T11:56:55Z</time>
      </trkpt>
      <trkpt lat="43.65624" lon="3.33207">
        <ele>144</ele>
        <time>2021-06-05T11:56:56Z</time>
      </trkpt>
      <trkpt lat="43.65626" lon="3.33212">
        <ele>144</ele>
        <time>2021-06-05T11:56:57Z</time>
      </trkpt>
      <trkpt lat="43.6563" lon="3.33217">
        <ele>144</ele>
        <time>2021-06-05T11:56:58Z</time>
      </trkpt>
      <trkpt lat="43.65632" lon="3.33223">
        <ele>144</ele>
        <time>2021-06-05T11:56:59Z</time>
      </trkpt>
      <trkpt lat="43.65635" lon="3.33228">
        <ele>144</ele>
        <time>2021-06-05T11:57:00Z</time>
      </trkpt>
      <trkpt lat="43.6564" lon="3.33232">
        <ele>144</ele>
        <time>2021-06-05T11:57:01Z</time>
      </trkpt>
      <trkpt lat="43.65643" lon="3.33236">
        <ele>144</ele>
        <time>2021-06-05T11:57:02Z</time>
      </trkpt>
      <trkpt lat="43.65647" lon="3.33241">
        <ele>144</ele>
        <time>2021-06-05T11:57:03Z</time>
      </trkpt>
      <trkpt lat="43.65649" lon="3.33246">
        <ele>144</ele>
        <time>2021-06-05T11:57:04Z</time>
      </trkpt>
      <trkpt lat="43.6565" lon="3.33251">
        <ele>144</ele>
        <time>2021-06-05T11:57:05Z</time>
      </trkpt>
      <trkpt lat="43.65651" lon="3.33255">
        <ele>144</ele>
        <time>2021-06-05T11:57:06Z</time>
      </trkpt>
      <trkpt lat="43.65653" lon="3.33259">
        <ele>143</ele>
        <time>2021-06-05T11:57:07Z</time>
      </trkpt>
      <trkpt lat="43.65648" lon="3.33271">
        <ele>143</ele>
        <time>2021-06-05T11:57:11Z</time>
      </trkpt>
      <trkpt lat="43.65647" lon="3.33274">
        <ele>143</ele>
        <time>2021-06-05T11:57:12Z</time>
      </trkpt>
      <trkpt lat="43.65647" lon="3.33276">
        <ele>143</ele>
        <time>2021-06-05T11:57:13Z</time>
      </trkpt>
      <trkpt lat="43.65647" lon="3.33279">
        <ele>143</ele>
        <time>2021-06-05T11:57:14Z</time>
      </trkpt>
      <trkpt lat="43.65649" lon="3.33281">
        <ele>143</ele>
        <time>2021-06-05T11:57:15Z</time>
      </trkpt>
      <trkpt lat="43.6565" lon="3.33283">
        <ele>143</ele>
        <time>2021-06-05T11:57:16Z</time>
      </trkpt>
      <trkpt lat="43.65652" lon="3.33285">
        <ele>144</ele>
        <time>2021-06-05T11:57:17Z</time>
      </trkpt>
      <trkpt lat="43.65653" lon="3.33288">
        <ele>144</ele>
        <time>2021-06-05T11:57:18Z</time>
      </trkpt>
      <trkpt lat="43.65654" lon="3.33291">
        <ele>144</ele>
        <time>2021-06-05T11:57:19Z</time>
      </trkpt>
      <trkpt lat="43.65655" lon="3.33293">
        <ele>144</ele>
        <time>2021-06-05T11:57:20Z</time>
      </trkpt>
      <trkpt lat="43.65656" lon="3.33296">
        <ele>144</ele>
        <time>2021-06-05T11:57:21Z</time>
      </trkpt>
      <trkpt lat="43.65657" lon="3.33298">
        <ele>144</ele>
        <time>2021-06-05T11:57:22Z</time>
      </trkpt>
      <trkpt lat="43.65658" lon="3.333">
        <ele>144</ele>
        <time>2021-06-05T11:57:23Z</time>
      </trkpt>
      <trkpt lat="43.6566" lon="3.33302">
        <ele>144</ele>
        <time>2021-06-05T11:57:24Z</time>
      </trkpt>
      <trkpt lat="43.65661" lon="3.33304">
        <ele>144</ele>
        <time>2021-06-05T11:57:25Z</time>
      </trkpt>
      <trkpt lat="43.65664" lon="3.33308">
        <ele>145</ele>
        <time>2021-06-05T11:57:27Z</time>
      </trkpt>
      <trkpt lat="43.65664" lon="3.3331">
        <ele>145</ele>
        <time>2021-06-05T11:57:28Z</time>
      </trkpt>
      <trkpt lat="43.65666" lon="3.33313">
        <ele>145</ele>
        <time>2021-06-05T11:57:29Z</time>
      </trkpt>
      <trkpt lat="43.65667" lon="3.33318">
        <ele>145</ele>
        <time>2021-06-05T11:57:30Z</time>
      </trkpt>
      <trkpt lat="43.65669" lon="3.33322">
        <ele>145</ele>
        <time>2021-06-05T11:57:31Z</time>
      </trkpt>
      <trkpt lat="43.65672" lon="3.33326">
        <ele>145</ele>
        <time>2021-06-05T11:57:32Z</time>
      </trkpt>
      <trkpt lat="43.65676" lon="3.3333">
        <ele>145</ele>
        <time>2021-06-05T11:57:33Z</time>
      </trkpt>
      <trkpt lat="43.65677" lon="3.33335">
        <ele>145</ele>
        <time>2021-06-05T11:57:34Z</time>
      </trkpt>
      <trkpt lat="43.65678" lon="3.33338">
        <ele>145</ele>
        <time>2021-06-05T11:57:35Z</time>
      </trkpt>
      <trkpt lat="43.6568" lon="3.3334">
        <ele>145</ele>
        <time>2021-06-05T11:57:36Z</time>
      </trkpt>
      <trkpt lat="43.65683" lon="3.33341">
        <ele>144</ele>
        <time>2021-06-05T11:57:37Z</time>
      </trkpt>
      <trkpt lat="43.65685" lon="3.33342">
        <ele>144</ele>
        <time>2021-06-05T11:57:38Z</time>
      </trkpt>
      <trkpt lat="43.65688" lon="3.33343">
        <ele>144</ele>
        <time>2021-06-05T11:57:39Z</time>
      </trkpt>
      <trkpt lat="43.65691" lon="3.33345">
        <ele>144</ele>
        <time>2021-06-05T11:57:40Z</time>
      </trkpt>
      <trkpt lat="43.65694" lon="3.33347">
        <ele>144</ele>
        <time>2021-06-05T11:57:41Z</time>
      </trkpt>
      <trkpt lat="43.65697" lon="3.33348">
        <ele>144</ele>
        <time>2021-06-05T11:57:42Z</time>
      </trkpt>
      <trkpt lat="43.657" lon="3.33349">
        <ele>144</ele>
        <time>2021-06-05T11:57:43Z</time>
      </trkpt>
      <trkpt lat="43.65702" lon="3.3335">
        <ele>144</ele>
        <time>2021-06-05T11:57:44Z</time>
      </trkpt>
      <trkpt lat="43.65705" lon="3.33351">
        <ele>144</ele>
        <time>2021-06-05T11:57:45Z</time>
      </trkpt>
      <trkpt lat="43.65708" lon="3.33353">
        <ele>144</ele>
        <time>2021-06-05T11:57:46Z</time>
      </trkpt>
      <trkpt lat="43.6571" lon="3.33354">
        <ele>144</ele>
        <time>2021-06-05T11:57:47Z</time>
      </trkpt>
      <trkpt lat="43.65712" lon="3.33355">
        <ele>144</ele>
        <time>2021-06-05T11:57:48Z</time>
      </trkpt>
      <trkpt lat="43.65713" lon="3.33359">
        <ele>144</ele>
        <time>2021-06-05T11:57:50Z</time>
      </trkpt>
      <trkpt lat="43.65715" lon="3.33362">
        <ele>144</ele>
        <time>2021-06-05T11:57:52Z</time>
      </trkpt>
      <trkpt lat="43.65716" lon="3.33365">
        <ele>144</ele>
        <time>2021-06-05T11:57:54Z</time>
      </trkpt>
      <trkpt lat="43.65717" lon="3.33368">
        <ele>144</ele>
        <time>2021-06-05T11:57:56Z</time>
      </trkpt>
      <trkpt lat="43.65718" lon="3.3337">
        <ele>144</ele>
        <time>2021-06-05T11:57:57Z</time>
      </trkpt>
      <trkpt lat="43.6575" lon="3.33402">
        <ele>145</ele>
        <time>2021-06-05T11:57:57Z</time>
      </trkpt>
      <trkpt lat="43.65752" lon="3.33402">
        <ele>145</ele>
        <time>2021-06-05T11:57:57Z</time>
      </trkpt>
      <trkpt lat="43.6572" lon="3.33372">
        <ele>144</ele>
        <time>2021-06-05T11:57:58Z</time>
      </trkpt>
      <trkpt lat="43.65722" lon="3.33374">
        <ele>144</ele>
        <time>2021-06-05T11:57:59Z</time>
      </trkpt>
      <trkpt lat="43.65754" lon="3.33405">
        <ele>145</ele>
        <time>2021-06-05T11:57:59Z</time>
      </trkpt>
      <trkpt lat="43.65724" lon="3.33376">
        <ele>144</ele>
        <time>2021-06-05T11:58:00Z</time>
      </trkpt>
      <trkpt lat="43.65726" lon="3.33378">
        <ele>144</ele>
        <time>2021-06-05T11:58:01Z</time>
      </trkpt>
      <trkpt lat="43.65756" lon="3.33407">
        <ele>145</ele>
        <time>2021-06-05T11:58:01Z</time>
      </trkpt>
      <trkpt lat="43.65727" lon="3.33381">
        <ele>144</ele>
        <time>2021-06-05T11:58:02Z</time>
      </trkpt>
      <trkpt lat="43.65728" lon="3.33384">
        <ele>144</ele>
        <time>2021-06-05T11:58:03Z</time>
      </trkpt>
      <trkpt lat="43.65757" lon="3.33409">
        <ele>145</ele>
        <time>2021-06-05T11:58:03Z</time>
      </trkpt>
      <trkpt lat="43.65729" lon="3.33388">
        <ele>144</ele>
        <time>2021-06-05T11:58:04Z</time>
      </trkpt>
      <trkpt lat="43.6573" lon="3.3339">
        <ele>144</ele>
        <time>2021-06-05T11:58:05Z</time>
      </trkpt>
      <trkpt lat="43.65732" lon="3.33393">
        <ele>144</ele>
        <time>2021-06-05T11:58:06Z</time>
      </trkpt>
      <trkpt lat="43.65733" lon="3.33394">
        <ele>144</ele>
        <time>2021-06-05T11:58:07Z</time>
      </trkpt>
      <trkpt lat="43.65736" lon="3.33395">
        <ele>144</ele>
        <time>2021-06-05T11:58:08Z</time>
      </trkpt>
      <trkpt lat="43.65738" lon="3.33397">
        <ele>144</ele>
        <time>2021-06-05T11:58:09Z</time>
      </trkpt>
      <trkpt lat="43.6574" lon="3.33399">
        <ele>144</ele>
        <time>2021-06-05T11:58:10Z</time>
      </trkpt>
      <trkpt lat="43.65742" lon="3.33401">
        <ele>144</ele>
        <time>2021-06-05T11:58:12Z</time>
      </trkpt>
      <trkpt lat="43.65744" lon="3.33399">
        <ele>144</ele>
        <time>2021-06-05T11:58:14Z</time>
      </trkpt>
      <trkpt lat="43.65744" lon="3.33399">
        <ele>144</ele>
        <time>2021-06-05T11:58:24Z</time>
      </trkpt>
      <trkpt lat="43.65758" lon="3.33412">
        <ele>145</ele>
        <time>2021-06-05T11:59:13Z</time>
      </trkpt>
      <trkpt lat="43.65759" lon="3.33413">
        <ele>145</ele>
        <time>2021-06-05T11:59:14Z</time>
      </trkpt>
      <trkpt lat="43.65762" lon="3.33415">
        <ele>145</ele>
        <time>2021-06-05T11:59:16Z</time>
      </trkpt>
      <trkpt lat="43.65763" lon="3.33417">
        <ele>145</ele>
        <time>2021-06-05T11:59:18Z</time>
      </trkpt>
      <trkpt lat="43.65764" lon="3.3342">
        <ele>145</ele>
        <time>2021-06-05T11:59:20Z</time>
      </trkpt>
      <trkpt lat="43.65766" lon="3.33422">
        <ele>145</ele>
        <time>2021-06-05T11:59:22Z</time>
      </trkpt>
      <trkpt lat="43.65769" lon="3.33424">
        <ele>145</ele>
        <time>2021-06-05T11:59:24Z</time>
      </trkpt>
      <trkpt lat="43.65771" lon="3.33426">
        <ele>145</ele>
        <time>2021-06-05T11:59:26Z</time>
      </trkpt>
      <trkpt lat="43.65773" lon="3.33428">
        <ele>145</ele>
        <time>2021-06-05T11:59:27Z</time>
      </trkpt>
      <trkpt lat="43.65775" lon="3.33428">
        <ele>145</ele>
        <time>2021-06-05T11:59:28Z</time>
      </trkpt>
      <trkpt lat="43.65777" lon="3.33429">
        <ele>145</ele>
        <time>2021-06-05T11:59:29Z</time>
      </trkpt>
      <trkpt lat="43.6578" lon="3.33431">
        <ele>145</ele>
        <time>2021-06-05T11:59:30Z</time>
      </trkpt>
      <trkpt lat="43.65783" lon="3.33432">
        <ele>145</ele>
        <time>2021-06-05T11:59:31Z</time>
      </trkpt>
      <trkpt lat="43.65785" lon="3.33434">
        <ele>146</ele>
        <time>2021-06-05T11:59:33Z</time>
      </trkpt>
      <trkpt lat="43.65787" lon="3.33437">
        <ele>146</ele>
        <time>2021-06-05T11:59:34Z</time>
      </trkpt>
      <trkpt lat="43.6579" lon="3.33438">
        <ele>146</ele>
        <time>2021-06-05T11:59:35Z</time>
      </trkpt>
      <trkpt lat="43.65792" lon="3.33439">
        <ele>146</ele>
        <time>2021-06-05T11:59:36Z</time>
      </trkpt>
      <trkpt lat="43.65796" lon="3.33439">
        <ele>146</ele>
        <time>2021-06-05T11:59:37Z</time>
      </trkpt>
      <trkpt lat="43.658" lon="3.3344">
        <ele>146</ele>
        <time>2021-06-05T11:59:38Z</time>
      </trkpt>
      <trkpt lat="43.65803" lon="3.3344">
        <ele>146</ele>
        <time>2021-06-05T11:59:39Z</time>
      </trkpt>
      <trkpt lat="43.65806" lon="3.33441">
        <ele>146</ele>
        <time>2021-06-05T11:59:40Z</time>
      </trkpt>
      <trkpt lat="43.6581" lon="3.33442">
        <ele>146</ele>
        <time>2021-06-05T11:59:41Z</time>
      </trkpt>
      <trkpt lat="43.65814" lon="3.33443">
        <ele>146</ele>
        <time>2021-06-05T11:59:42Z</time>
      </trkpt>
      <trkpt lat="43.65817" lon="3.33443">
        <ele>145</ele>
        <time>2021-06-05T11:59:43Z</time>
      </trkpt>
      <trkpt lat="43.6582" lon="3.33444">
        <ele>145</ele>
        <time>2021-06-05T11:59:44Z</time>
      </trkpt>
      <trkpt lat="43.65824" lon="3.33445">
        <ele>145</ele>
        <time>2021-06-05T11:59:45Z</time>
      </trkpt>
      <trkpt lat="43.65828" lon="3.33447">
        <ele>145</ele>
        <time>2021-06-05T11:59:46Z</time>
      </trkpt>
      <trkpt lat="43.6583" lon="3.33449">
        <ele>145</ele>
        <time>2021-06-05T11:59:47Z</time>
      </trkpt>
      <trkpt lat="43.65832" lon="3.3345">
        <ele>145</ele>
        <time>2021-06-05T11:59:48Z</time>
      </trkpt>
      <trkpt lat="43.65835" lon="3.3345">
        <ele>145</ele>
        <time>2021-06-05T11:59:49Z</time>
      </trkpt>
      <trkpt lat="43.65837" lon="3.3345">
        <ele>145</ele>
        <time>2021-06-05T11:59:50Z</time>
      </trkpt>
      <trkpt lat="43.65839" lon="3.33449">
        <ele>145</ele>
        <time>2021-06-05T11:59:51Z</time>
      </trkpt>
      <trkpt lat="43.65841" lon="3.33449">
        <ele>145</ele>
        <time>2021-06-05T11:59:52Z</time>
      </trkpt>
      <trkpt lat="43.65844" lon="3.33451">
        <ele>144</ele>
        <time>2021-06-05T11:59:54Z</time>
      </trkpt>
      <trkpt lat="43.65847" lon="3.33452">
        <ele>144</ele>
        <time>2021-06-05T11:59:56Z</time>
      </trkpt>
      <trkpt lat="43.65849" lon="3.33454">
        <ele>144</ele>
        <time>2021-06-05T12:00:00Z</time>
      </trkpt>
      <trkpt lat="43.65851" lon="3.33455">
        <ele>143</ele>
        <time>2021-06-05T12:00:02Z</time>
      </trkpt>
      <trkpt lat="43.65864" lon="3.33437">
        <ele>144</ele>
        <time>2021-06-05T12:00:03Z</time>
      </trkpt>
      <trkpt lat="43.65866" lon="3.33435">
        <ele>144</ele>
        <time>2021-06-05T12:00:04Z</time>
      </trkpt>
      <trkpt lat="43.65853" lon="3.33457">
        <ele>143</ele>
        <time>2021-06-05T12:00:04Z</time>
      </trkpt>
      <trkpt lat="43.65855" lon="3.33457">
        <ele>143</ele>
        <time>2021-06-05T12:00:06Z</time>
      </trkpt>
      <trkpt lat="43.65857" lon="3.33458">
        <ele>143</ele>
        <time>2021-06-05T12:00:09Z</time>
      </trkpt>
      <trkpt lat="43.65858" lon="3.33458">
        <ele>143</ele>
        <time>2021-06-05T12:00:18Z</time>
      </trkpt>
      <trkpt lat="43.65868" lon="3.33436">
        <ele>144</ele>
        <time>2021-06-05T12:01:15Z</time>
      </trkpt>
      <trkpt lat="43.65871" lon="3.33437">
        <ele>144</ele>
        <time>2021-06-05T12:01:17Z</time>
      </trkpt>
      <trkpt lat="43.65873" lon="3.33439">
        <ele>145</ele>
        <time>2021-06-05T12:01:19Z</time>
      </trkpt>
      <trkpt lat="43.65876" lon="3.33438">
        <ele>145</ele>
        <time>2021-06-05T12:01:21Z</time>
      </trkpt>
      <trkpt lat="43.65878" lon="3.33437">
        <ele>145</ele>
        <time>2021-06-05T12:01:22Z</time>
      </trkpt>
      <trkpt lat="43.6588" lon="3.33437">
        <ele>145</ele>
        <time>2021-06-05T12:01:23Z</time>
      </trkpt>
      <trkpt lat="43.65881" lon="3.33437">
        <ele>145</ele>
        <time>2021-06-05T12:01:30Z</time>
      </trkpt>
      <trkpt lat="43.65884" lon="3.33437">
        <ele>145</ele>
        <time>2021-06-05T12:01:37Z</time>
      </trkpt>
      <trkpt lat="43.65885" lon="3.33437">
        <ele>145</ele>
        <time>2021-06-05T12:01:39Z</time>
      </trkpt>
      <trkpt lat="43.65887" lon="3.33437">
        <ele>147</ele>
        <time>2021-06-05T12:01:48Z</time>
      </trkpt>
      <trkpt lat="43.65888" lon="3.33447">
        <ele>146</ele>
        <time>2021-06-05T12:02:06Z</time>
      </trkpt>
      <trkpt lat="43.65887" lon="3.33449">
        <ele>146</ele>
        <time>2021-06-05T12:02:07Z</time>
      </trkpt>
      <trkpt lat="43.65885" lon="3.33451">
        <ele>146</ele>
        <time>2021-06-05T12:02:09Z</time>
      </trkpt>
      <trkpt lat="43.65883" lon="3.33453">
        <ele>146</ele>
        <time>2021-06-05T12:02:11Z</time>
      </trkpt>
      <trkpt lat="43.65883" lon="3.33459">
        <ele>146</ele>
        <time>2021-06-05T12:02:13Z</time>
      </trkpt>
      <trkpt lat="43.65884" lon="3.33462">
        <ele>146</ele>
        <time>2021-06-05T12:02:14Z</time>
      </trkpt>
      <trkpt lat="43.65885" lon="3.33464">
        <ele>146</ele>
        <time>2021-06-05T12:02:15Z</time>
      </trkpt>
      <trkpt lat="43.65888" lon="3.33466">
        <ele>144</ele>
        <time>2021-06-05T12:02:17Z</time>
      </trkpt>
      <trkpt lat="43.6589" lon="3.33466">
        <ele>144</ele>
        <time>2021-06-05T12:02:19Z</time>
      </trkpt>
      <trkpt lat="43.65889" lon="3.33466">
        <ele>144</ele>
        <time>2021-06-05T12:02:29Z</time>
      </trkpt>
      <trkpt lat="43.65893" lon="3.33465">
        <ele>143</ele>
        <time>2021-06-05T12:02:38Z</time>
      </trkpt>
      <trkpt lat="43.65894" lon="3.33466">
        <ele>143</ele>
        <time>2021-06-05T12:02:39Z</time>
      </trkpt>
      <trkpt lat="43.65898" lon="3.33468">
        <ele>143</ele>
        <time>2021-06-05T12:02:41Z</time>
      </trkpt>
      <trkpt lat="43.65901" lon="3.33471">
        <ele>143</ele>
        <time>2021-06-05T12:02:43Z</time>
      </trkpt>
      <trkpt lat="43.65903" lon="3.33472">
        <ele>143</ele>
        <time>2021-06-05T12:02:44Z</time>
      </trkpt>
      <trkpt lat="43.65904" lon="3.33474">
        <ele>143</ele>
        <time>2021-06-05T12:02:45Z</time>
      </trkpt>
      <trkpt lat="43.65905" lon="3.33475">
        <ele>143</ele>
        <time>2021-06-05T12:02:46Z</time>
      </trkpt>
      <trkpt lat="43.65907" lon="3.33477">
        <ele>143</ele>
        <time>2021-06-05T12:02:47Z</time>
      </trkpt>
      <trkpt lat="43.65909" lon="3.33479">
        <ele>143</ele>
        <time>2021-06-05T12:02:48Z</time>
      </trkpt>
      <trkpt lat="43.65911" lon="3.3348">
        <ele>142</ele>
        <time>2021-06-05T12:02:49Z</time>
      </trkpt>
      <trkpt lat="43.65913" lon="3.33482">
        <ele>142</ele>
        <time>2021-06-05T12:02:50Z</time>
      </trkpt>
      <trkpt lat="43.65914" lon="3.33484">
        <ele>142</ele>
        <time>2021-06-05T12:02:51Z</time>
      </trkpt>
      <trkpt lat="43.65916" lon="3.33487">
        <ele>142</ele>
        <time>2021-06-05T12:02:52Z</time>
      </trkpt>
      <trkpt lat="43.65917" lon="3.3349">
        <ele>142</ele>
        <time>2021-06-05T12:02:53Z</time>
      </trkpt>
      <trkpt lat="43.65919" lon="3.33493">
        <ele>142</ele>
        <time>2021-06-05T12:02:54Z</time>
      </trkpt>
      <trkpt lat="43.6592" lon="3.33496">
        <ele>142</ele>
        <time>2021-06-05T12:02:55Z</time>
      </trkpt>
      <trkpt lat="43.65921" lon="3.335">
        <ele>142</ele>
        <time>2021-06-05T12:02:56Z</time>
      </trkpt>
      <trkpt lat="43.65922" lon="3.33503">
        <ele>142</ele>
        <time>2021-06-05T12:02:57Z</time>
      </trkpt>
      <trkpt lat="43.65924" lon="3.33505">
        <ele>142</ele>
        <time>2021-06-05T12:02:58Z</time>
      </trkpt>
      <trkpt lat="43.65925" lon="3.33507">
        <ele>142</ele>
        <time>2021-06-05T12:02:58Z</time>
      </trkpt>
      <trkpt lat="43.65926" lon="3.3351">
        <ele>142</ele>
        <time>2021-06-05T12:02:59Z</time>
      </trkpt>
      <trkpt lat="43.65928" lon="3.33512">
        <ele>142</ele>
        <time>2021-06-05T12:03:00Z</time>
      </trkpt>
      <trkpt lat="43.6593" lon="3.33514">
        <ele>142</ele>
        <time>2021-06-05T12:03:01Z</time>
      </trkpt>
      <trkpt lat="43.65932" lon="3.33515">
        <ele>142</ele>
        <time>2021-06-05T12:03:02Z</time>
      </trkpt>
      <trkpt lat="43.65935" lon="3.33519">
        <ele>142</ele>
        <time>2021-06-05T12:03:04Z</time>
      </trkpt>
      <trkpt lat="43.65936" lon="3.33521">
        <ele>142</ele>
        <time>2021-06-05T12:03:05Z</time>
      </trkpt>
      <trkpt lat="43.65937" lon="3.33523">
        <ele>142</ele>
        <time>2021-06-05T12:03:06Z</time>
      </trkpt>
      <trkpt lat="43.65939" lon="3.33525">
        <ele>142</ele>
        <time>2021-06-05T12:03:07Z</time>
      </trkpt>
      <trkpt lat="43.65941" lon="3.33526">
        <ele>142</ele>
        <time>2021-06-05T12:03:09Z</time>
      </trkpt>
      <trkpt lat="43.65942" lon="3.33527">
        <ele>142</ele>
        <time>2021-06-05T12:03:10Z</time>
      </trkpt>
      <trkpt lat="43.65944" lon="3.33529">
        <ele>142</ele>
        <time>2021-06-05T12:03:11Z</time>
      </trkpt>
      <trkpt lat="43.65946" lon="3.3353">
        <ele>142</ele>
        <time>2021-06-05T12:03:12Z</time>
      </trkpt>
      <trkpt lat="43.65948" lon="3.3353">
        <ele>142</ele>
        <time>2021-06-05T12:03:13Z</time>
      </trkpt>
      <trkpt lat="43.6595" lon="3.3353">
        <ele>142</ele>
        <time>2021-06-05T12:03:14Z</time>
      </trkpt>
      <trkpt lat="43.65954" lon="3.3353">
        <ele>142</ele>
        <time>2021-06-05T12:03:16Z</time>
      </trkpt>
      <trkpt lat="43.65956" lon="3.33528">
        <ele>142</ele>
        <time>2021-06-05T12:03:18Z</time>
      </trkpt>
      <trkpt lat="43.65958" lon="3.33525">
        <ele>143</ele>
        <time>2021-06-05T12:03:20Z</time>
      </trkpt>
      <trkpt lat="43.65961" lon="3.33523">
        <ele>143</ele>
        <time>2021-06-05T12:03:22Z</time>
      </trkpt>
      <trkpt lat="43.65963" lon="3.33521">
        <ele>143</ele>
        <time>2021-06-05T12:03:24Z</time>
      </trkpt>
      <trkpt lat="43.65966" lon="3.3352">
        <ele>143</ele>
        <time>2021-06-05T12:03:26Z</time>
      </trkpt>
      <trkpt lat="43.65968" lon="3.3352">
        <ele>143</ele>
        <time>2021-06-05T12:03:28Z</time>
      </trkpt>
      <trkpt lat="43.65972" lon="3.33522">
        <ele>144</ele>
        <time>2021-06-05T12:03:30Z</time>
      </trkpt>
      <trkpt lat="43.65974" lon="3.33524">
        <ele>144</ele>
        <time>2021-06-05T12:03:32Z</time>
      </trkpt>
      <trkpt lat="43.65977" lon="3.33525">
        <ele>144</ele>
        <time>2021-06-05T12:03:34Z</time>
      </trkpt>
      <trkpt lat="43.6598" lon="3.33525">
        <ele>144</ele>
        <time>2021-06-05T12:03:36Z</time>
      </trkpt>
      <trkpt lat="43.65982" lon="3.33525">
        <ele>144</ele>
        <time>2021-06-05T12:03:38Z</time>
      </trkpt>
      <trkpt lat="43.65985" lon="3.33526">
        <ele>145</ele>
        <time>2021-06-05T12:03:40Z</time>
      </trkpt>
      <trkpt lat="43.65988" lon="3.33527">
        <ele>145</ele>
        <time>2021-06-05T12:03:42Z</time>
      </trkpt>
      <trkpt lat="43.6599" lon="3.33527">
        <ele>145</ele>
        <time>2021-06-05T12:03:44Z</time>
      </trkpt>
      <trkpt lat="43.65993" lon="3.33529">
        <ele>145</ele>
        <time>2021-06-05T12:03:46Z</time>
      </trkpt>
      <trkpt lat="43.65995" lon="3.33529">
        <ele>145</ele>
        <time>2021-06-05T12:03:48Z</time>
      </trkpt>
      <trkpt lat="43.65998" lon="3.3353">
        <ele>147</ele>
        <time>2021-06-05T12:03:50Z</time>
      </trkpt>
      <trkpt lat="43.66" lon="3.33532">
        <ele>147</ele>
        <time>2021-06-05T12:03:52Z</time>
      </trkpt>
      <trkpt lat="43.66003" lon="3.33533">
        <ele>147</ele>
        <time>2021-06-05T12:03:54Z</time>
      </trkpt>
      <trkpt lat="43.66006" lon="3.33534">
        <ele>147</ele>
        <time>2021-06-05T12:03:56Z</time>
      </trkpt>
      <trkpt lat="43.66008" lon="3.33535">
        <ele>147</ele>
        <time>2021-06-05T12:03:58Z</time>
      </trkpt>
      <trkpt lat="43.66012" lon="3.33536">
        <ele>148</ele>
        <time>2021-06-05T12:04:00Z</time>
      </trkpt>
      <trkpt lat="43.66014" lon="3.33537">
        <ele>148</ele>
        <time>2021-06-05T12:04:02Z</time>
      </trkpt>
      <trkpt lat="43.66017" lon="3.33537">
        <ele>148</ele>
        <time>2021-06-05T12:04:04Z</time>
      </trkpt>
      <trkpt lat="43.6602" lon="3.33537">
        <ele>148</ele>
        <time>2021-06-05T12:04:06Z</time>
      </trkpt>
      <trkpt lat="43.66023" lon="3.33536">
        <ele>148</ele>
        <time>2021-06-05T12:04:08Z</time>
      </trkpt>
      <trkpt lat="43.66026" lon="3.33535">
        <ele>149</ele>
        <time>2021-06-05T12:04:10Z</time>
      </trkpt>
      <trkpt lat="43.66028" lon="3.33534">
        <ele>149</ele>
        <time>2021-06-05T12:04:11Z</time>
      </trkpt>
      <trkpt lat="43.6603" lon="3.33533">
        <ele>149</ele>
        <time>2021-06-05T12:04:12Z</time>
      </trkpt>
      <trkpt lat="43.66032" lon="3.33533">
        <ele>149</ele>
        <time>2021-06-05T12:04:13Z</time>
      </trkpt>
      <trkpt lat="43.66034" lon="3.33534">
        <ele>149</ele>
        <time>2021-06-05T12:04:14Z</time>
      </trkpt>
      <trkpt lat="43.66037" lon="3.33535">
        <ele>149</ele>
        <time>2021-06-05T12:04:15Z</time>
      </trkpt>
      <trkpt lat="43.66039" lon="3.33536">
        <ele>149</ele>
        <time>2021-06-05T12:04:16Z</time>
      </trkpt>
      <trkpt lat="43.66041" lon="3.33537">
        <ele>149</ele>
        <time>2021-06-05T12:04:17Z</time>
      </trkpt>
      <trkpt lat="43.66042" lon="3.33539">
        <ele>149</ele>
        <time>2021-06-05T12:04:18Z</time>
      </trkpt>
      <trkpt lat="43.66043" lon="3.3354">
        <ele>150</ele>
        <time>2021-06-05T12:04:19Z</time>
      </trkpt>
      <trkpt lat="43.66045" lon="3.33541">
        <ele>150</ele>
        <time>2021-06-05T12:04:20Z</time>
      </trkpt>
      <trkpt lat="43.66048" lon="3.33544">
        <ele>150</ele>
        <time>2021-06-05T12:04:22Z</time>
      </trkpt>
      <trkpt lat="43.6605" lon="3.33545">
        <ele>150</ele>
        <time>2021-06-05T12:04:23Z</time>
      </trkpt>
      <trkpt lat="43.66051" lon="3.33546">
        <ele>150</ele>
        <time>2021-06-05T12:04:24Z</time>
      </trkpt>
      <trkpt lat="43.66054" lon="3.33548">
        <ele>150</ele>
        <time>2021-06-05T12:04:26Z</time>
      </trkpt>
      <trkpt lat="43.66058" lon="3.3355">
        <ele>150</ele>
        <time>2021-06-05T12:04:28Z</time>
      </trkpt>
      <trkpt lat="43.66061" lon="3.33551">
        <ele>151</ele>
        <time>2021-06-05T12:04:30Z</time>
      </trkpt>
      <trkpt lat="43.66065" lon="3.33552">
        <ele>151</ele>
        <time>2021-06-05T12:04:32Z</time>
      </trkpt>
      <trkpt lat="43.66068" lon="3.33553">
        <ele>151</ele>
        <time>2021-06-05T12:04:34Z</time>
      </trkpt>
      <trkpt lat="43.66071" lon="3.33554">
        <ele>151</ele>
        <time>2021-06-05T12:04:36Z</time>
      </trkpt>
      <trkpt lat="43.66074" lon="3.33554">
        <ele>151</ele>
        <time>2021-06-05T12:04:38Z</time>
      </trkpt>
      <trkpt lat="43.66077" lon="3.33554">
        <ele>152</ele>
        <time>2021-06-05T12:04:40Z</time>
      </trkpt>
      <trkpt lat="43.66081" lon="3.33555">
        <ele>152</ele>
        <time>2021-06-05T12:04:42Z</time>
      </trkpt>
      <trkpt lat="43.66084" lon="3.33556">
        <ele>152</ele>
        <time>2021-06-05T12:04:44Z</time>
      </trkpt>
      <trkpt lat="43.66086" lon="3.33556">
        <ele>152</ele>
        <time>2021-06-05T12:04:45Z</time>
      </trkpt>
      <trkpt lat="43.66089" lon="3.33557">
        <ele>152</ele>
        <time>2021-06-05T12:04:46Z</time>
      </trkpt>
      <trkpt lat="43.66091" lon="3.33558">
        <ele>152</ele>
        <time>2021-06-05T12:04:47Z</time>
      </trkpt>
      <trkpt lat="43.66093" lon="3.33558">
        <ele>152</ele>
        <time>2021-06-05T12:04:48Z</time>
      </trkpt>
      <trkpt lat="43.66095" lon="3.33559">
        <ele>153</ele>
        <time>2021-06-05T12:04:49Z</time>
      </trkpt>
      <trkpt lat="43.66098" lon="3.33559">
        <ele>153</ele>
        <time>2021-06-05T12:04:50Z</time>
      </trkpt>
      <trkpt lat="43.661" lon="3.33559">
        <ele>153</ele>
        <time>2021-06-05T12:04:51Z</time>
      </trkpt>
      <trkpt lat="43.66103" lon="3.3356">
        <ele>153</ele>
        <time>2021-06-05T12:04:52Z</time>
      </trkpt>
      <trkpt lat="43.66105" lon="3.3356">
        <ele>153</ele>
        <time>2021-06-05T12:04:53Z</time>
      </trkpt>
      <trkpt lat="43.66108" lon="3.3356">
        <ele>153</ele>
        <time>2021-06-05T12:04:54Z</time>
      </trkpt>
      <trkpt lat="43.6611" lon="3.3356">
        <ele>153</ele>
        <time>2021-06-05T12:04:55Z</time>
      </trkpt>
      <trkpt lat="43.66113" lon="3.33561">
        <ele>153</ele>
        <time>2021-06-05T12:04:56Z</time>
      </trkpt>
      <trkpt lat="43.66115" lon="3.33561">
        <ele>153</ele>
        <time>2021-06-05T12:04:57Z</time>
      </trkpt>
      <trkpt lat="43.66117" lon="3.33562">
        <ele>153</ele>
        <time>2021-06-05T12:04:58Z</time>
      </trkpt>
      <trkpt lat="43.66119" lon="3.33564">
        <ele>153</ele>
        <time>2021-06-05T12:04:59Z</time>
      </trkpt>
      <trkpt lat="43.6612" lon="3.33566">
        <ele>153</ele>
        <time>2021-06-05T12:05:00Z</time>
      </trkpt>
      <trkpt lat="43.66122" lon="3.33569">
        <ele>153</ele>
        <time>2021-06-05T12:05:01Z</time>
      </trkpt>
      <trkpt lat="43.66124" lon="3.33572">
        <ele>153</ele>
        <time>2021-06-05T12:05:02Z</time>
      </trkpt>
      <trkpt lat="43.66125" lon="3.33575">
        <ele>153</ele>
        <time>2021-06-05T12:05:03Z</time>
      </trkpt>
      <trkpt lat="43.66125" lon="3.33578">
        <ele>153</ele>
        <time>2021-06-05T12:05:04Z</time>
      </trkpt>
      <trkpt lat="43.66126" lon="3.33581">
        <ele>153</ele>
        <time>2021-06-05T12:05:05Z</time>
      </trkpt>
      <trkpt lat="43.66126" lon="3.33584">
        <ele>153</ele>
        <time>2021-06-05T12:05:06Z</time>
      </trkpt>
      <trkpt lat="43.66127" lon="3.33586">
        <ele>153</ele>
        <time>2021-06-05T12:05:07Z</time>
      </trkpt>
      <trkpt lat="43.66128" lon="3.33589">
        <ele>153</ele>
        <time>2021-06-05T12:05:08Z</time>
      </trkpt>
      <trkpt lat="43.66129" lon="3.33591">
        <ele>154</ele>
        <time>2021-06-05T12:05:09Z</time>
      </trkpt>
      <trkpt lat="43.6613" lon="3.33593">
        <ele>154</ele>
        <time>2021-06-05T12:05:10Z</time>
      </trkpt>
      <trkpt lat="43.66132" lon="3.33597">
        <ele>154</ele>
        <time>2021-06-05T12:05:12Z</time>
      </trkpt>
      <trkpt lat="43.66134" lon="3.33599">
        <ele>154</ele>
        <time>2021-06-05T12:05:13Z</time>
      </trkpt>
      <trkpt lat="43.66135" lon="3.33601">
        <ele>154</ele>
        <time>2021-06-05T12:05:14Z</time>
      </trkpt>
      <trkpt lat="43.66137" lon="3.33602">
        <ele>154</ele>
        <time>2021-06-05T12:05:15Z</time>
      </trkpt>
      <trkpt lat="43.6614" lon="3.33605">
        <ele>154</ele>
        <time>2021-06-05T12:05:17Z</time>
      </trkpt>
      <trkpt lat="43.66141" lon="3.33606">
        <ele>154</ele>
        <time>2021-06-05T12:05:18Z</time>
      </trkpt>
      <trkpt lat="43.66143" lon="3.33607">
        <ele>155</ele>
        <time>2021-06-05T12:05:19Z</time>
      </trkpt>
      <trkpt lat="43.66145" lon="3.33608">
        <ele>155</ele>
        <time>2021-06-05T12:05:20Z</time>
      </trkpt>
      <trkpt lat="43.66147" lon="3.33608">
        <ele>155</ele>
        <time>2021-06-05T12:05:21Z</time>
      </trkpt>
      <trkpt lat="43.66148" lon="3.33609">
        <ele>155</ele>
        <time>2021-06-05T12:05:22Z</time>
      </trkpt>
      <trkpt lat="43.66151" lon="3.33609">
        <ele>155</ele>
        <time>2021-06-05T12:05:23Z</time>
      </trkpt>
      <trkpt lat="43.66153" lon="3.33609">
        <ele>155</ele>
        <time>2021-06-05T12:05:24Z</time>
      </trkpt>
      <trkpt lat="43.66155" lon="3.33609">
        <ele>155</ele>
        <time>2021-06-05T12:05:25Z</time>
      </trkpt>
      <trkpt lat="43.66156" lon="3.33609">
        <ele>155</ele>
        <time>2021-06-05T12:05:26Z</time>
      </trkpt>
      <trkpt lat="43.66159" lon="3.33609">
        <ele>155</ele>
        <time>2021-06-05T12:05:27Z</time>
      </trkpt>
      <trkpt lat="43.66161" lon="3.33609">
        <ele>155</ele>
        <time>2021-06-05T12:05:28Z</time>
      </trkpt>
      <trkpt lat="43.66163" lon="3.33609">
        <ele>157</ele>
        <time>2021-06-05T12:05:29Z</time>
      </trkpt>
      <trkpt lat="43.66165" lon="3.33609">
        <ele>157</ele>
        <time>2021-06-05T12:05:30Z</time>
      </trkpt>
      <trkpt lat="43.66167" lon="3.3361">
        <ele>157</ele>
        <time>2021-06-05T12:05:31Z</time>
      </trkpt>
      <trkpt lat="43.66169" lon="3.3361">
        <ele>157</ele>
        <time>2021-06-05T12:05:32Z</time>
      </trkpt>
      <trkpt lat="43.66172" lon="3.3361">
        <ele>157</ele>
        <time>2021-06-05T12:05:33Z</time>
      </trkpt>
      <trkpt lat="43.66174" lon="3.3361">
        <ele>157</ele>
        <time>2021-06-05T12:05:34Z</time>
      </trkpt>
      <trkpt lat="43.66176" lon="3.3361">
        <ele>157</ele>
        <time>2021-06-05T12:05:35Z</time>
      </trkpt>
      <trkpt lat="43.66178" lon="3.3361">
        <ele>157</ele>
        <time>2021-06-05T12:05:36Z</time>
      </trkpt>
      <trkpt lat="43.66181" lon="3.3361">
        <ele>157</ele>
        <time>2021-06-05T12:05:37Z</time>
      </trkpt>
      <trkpt lat="43.66183" lon="3.3361">
        <ele>157</ele>
        <time>2021-06-05T12:05:38Z</time>
      </trkpt>
      <trkpt lat="43.66186" lon="3.33609">
        <ele>158</ele>
        <time>2021-06-05T12:05:39Z</time>
      </trkpt>
      <trkpt lat="43.66188" lon="3.33609">
        <ele>158</ele>
        <time>2021-06-05T12:05:40Z</time>
      </trkpt>
      <trkpt lat="43.66191" lon="3.33609">
        <ele>158</ele>
        <time>2021-06-05T12:05:41Z</time>
      </trkpt>
      <trkpt lat="43.66194" lon="3.33608">
        <ele>158</ele>
        <time>2021-06-05T12:05:42Z</time>
      </trkpt>
      <trkpt lat="43.66196" lon="3.33608">
        <ele>158</ele>
        <time>2021-06-05T12:05:43Z</time>
      </trkpt>
      <trkpt lat="43.662" lon="3.33609">
        <ele>158</ele>
        <time>2021-06-05T12:05:44Z</time>
      </trkpt>
      <trkpt lat="43.66205" lon="3.33611">
        <ele>158</ele>
        <time>2021-06-05T12:05:45Z</time>
      </trkpt>
      <trkpt lat="43.6621" lon="3.33613">
        <ele>158</ele>
        <time>2021-06-05T12:05:46Z</time>
      </trkpt>
      <trkpt lat="43.66215" lon="3.33615">
        <ele>158</ele>
        <time>2021-06-05T12:05:47Z</time>
      </trkpt>
      <trkpt lat="43.66221" lon="3.33618">
        <ele>158</ele>
        <time>2021-06-05T12:05:48Z</time>
      </trkpt>
      <trkpt lat="43.66225" lon="3.33619">
        <ele>157</ele>
        <time>2021-06-05T12:05:49Z</time>
      </trkpt>
      <trkpt lat="43.66229" lon="3.3362">
        <ele>157</ele>
        <time>2021-06-05T12:05:50Z</time>
      </trkpt>
      <trkpt lat="43.66232" lon="3.33621">
        <ele>157</ele>
        <time>2021-06-05T12:05:51Z</time>
      </trkpt>
      <trkpt lat="43.66236" lon="3.33622">
        <ele>157</ele>
        <time>2021-06-05T12:05:52Z</time>
      </trkpt>
      <trkpt lat="43.66239" lon="3.33622">
        <ele>157</ele>
        <time>2021-06-05T12:05:53Z</time>
      </trkpt>
      <trkpt lat="43.66241" lon="3.33622">
        <ele>157</ele>
        <time>2021-06-05T12:05:54Z</time>
      </trkpt>
      <trkpt lat="43.66244" lon="3.33622">
        <ele>157</ele>
        <time>2021-06-05T12:05:55Z</time>
      </trkpt>
      <trkpt lat="43.66247" lon="3.33621">
        <ele>157</ele>
        <time>2021-06-05T12:05:56Z</time>
      </trkpt>
      <trkpt lat="43.6625" lon="3.33621">
        <ele>157</ele>
        <time>2021-06-05T12:05:57Z</time>
      </trkpt>
      <trkpt lat="43.66253" lon="3.33621">
        <ele>157</ele>
        <time>2021-06-05T12:05:58Z</time>
      </trkpt>
      <trkpt lat="43.66255" lon="3.33621">
        <ele>158</ele>
        <time>2021-06-05T12:05:59Z</time>
      </trkpt>
      <trkpt lat="43.66258" lon="3.3362">
        <ele>158</ele>
        <time>2021-06-05T12:06:00Z</time>
      </trkpt>
      <trkpt lat="43.6626" lon="3.33621">
        <ele>158</ele>
        <time>2021-06-05T12:06:01Z</time>
      </trkpt>
      <trkpt lat="43.66263" lon="3.33621">
        <ele>158</ele>
        <time>2021-06-05T12:06:02Z</time>
      </trkpt>
      <trkpt lat="43.66265" lon="3.33621">
        <ele>158</ele>
        <time>2021-06-05T12:06:03Z</time>
      </trkpt>
      <trkpt lat="43.66268" lon="3.3362">
        <ele>158</ele>
        <time>2021-06-05T12:06:04Z</time>
      </trkpt>
      <trkpt lat="43.6627" lon="3.3362">
        <ele>158</ele>
        <time>2021-06-05T12:06:05Z</time>
      </trkpt>
      <trkpt lat="43.66272" lon="3.33621">
        <ele>158</ele>
        <time>2021-06-05T12:06:06Z</time>
      </trkpt>
      <trkpt lat="43.66276" lon="3.33621">
        <ele>158</ele>
        <time>2021-06-05T12:06:07Z</time>
      </trkpt>
      <trkpt lat="43.66278" lon="3.33621">
        <ele>158</ele>
        <time>2021-06-05T12:06:08Z</time>
      </trkpt>
      <trkpt lat="43.66281" lon="3.33621">
        <ele>160</ele>
        <time>2021-06-05T12:06:09Z</time>
      </trkpt>
      <trkpt lat="43.66283" lon="3.3362">
        <ele>160</ele>
        <time>2021-06-05T12:06:09Z</time>
      </trkpt>
      <trkpt lat="43.66286" lon="3.33621">
        <ele>160</ele>
        <time>2021-06-05T12:06:10Z</time>
      </trkpt>
      <trkpt lat="43.66289" lon="3.33621">
        <ele>160</ele>
        <time>2021-06-05T12:06:11Z</time>
      </trkpt>
      <trkpt lat="43.66292" lon="3.33621">
        <ele>160</ele>
        <time>2021-06-05T12:06:12Z</time>
      </trkpt>
      <trkpt lat="43.66295" lon="3.33621">
        <ele>160</ele>
        <time>2021-06-05T12:06:13Z</time>
      </trkpt>
      <trkpt lat="43.66297" lon="3.33621">
        <ele>160</ele>
        <time>2021-06-05T12:06:14Z</time>
      </trkpt>
      <trkpt lat="43.663" lon="3.33621">
        <ele>160</ele>
        <time>2021-06-05T12:06:15Z</time>
      </trkpt>
      <trkpt lat="43.66304" lon="3.33621">
        <ele>160</ele>
        <time>2021-06-05T12:06:16Z</time>
      </trkpt>
      <trkpt lat="43.66307" lon="3.33621">
        <ele>160</ele>
        <time>2021-06-05T12:06:17Z</time>
      </trkpt>
      <trkpt lat="43.6631" lon="3.33621">
        <ele>161</ele>
        <time>2021-06-05T12:06:19Z</time>
      </trkpt>
      <trkpt lat="43.66313" lon="3.33621">
        <ele>161</ele>
        <time>2021-06-05T12:06:20Z</time>
      </trkpt>
      <trkpt lat="43.66315" lon="3.33621">
        <ele>161</ele>
        <time>2021-06-05T12:06:21Z</time>
      </trkpt>
      <trkpt lat="43.66318" lon="3.33621">
        <ele>161</ele>
        <time>2021-06-05T12:06:22Z</time>
      </trkpt>
      <trkpt lat="43.66321" lon="3.3362">
        <ele>161</ele>
        <time>2021-06-05T12:06:23Z</time>
      </trkpt>
      <trkpt lat="43.66324" lon="3.3362">
        <ele>161</ele>
        <time>2021-06-05T12:06:24Z</time>
      </trkpt>
      <trkpt lat="43.66327" lon="3.3362">
        <ele>161</ele>
        <time>2021-06-05T12:06:25Z</time>
      </trkpt>
      <trkpt lat="43.6633" lon="3.33619">
        <ele>161</ele>
        <time>2021-06-05T12:06:26Z</time>
      </trkpt>
      <trkpt lat="43.66332" lon="3.33619">
        <ele>161</ele>
        <time>2021-06-05T12:06:27Z</time>
      </trkpt>
      <trkpt lat="43.66336" lon="3.33618">
        <ele>161</ele>
        <time>2021-06-05T12:06:28Z</time>
      </trkpt>
      <trkpt lat="43.66338" lon="3.33617">
        <ele>162</ele>
        <time>2021-06-05T12:06:29Z</time>
      </trkpt>
      <trkpt lat="43.66342" lon="3.33615">
        <ele>162</ele>
        <time>2021-06-05T12:06:30Z</time>
      </trkpt>
      <trkpt lat="43.66345" lon="3.33615">
        <ele>162</ele>
        <time>2021-06-05T12:06:31Z</time>
      </trkpt>
      <trkpt lat="43.66347" lon="3.33614">
        <ele>162</ele>
        <time>2021-06-05T12:06:32Z</time>
      </trkpt>
      <trkpt lat="43.66351" lon="3.33613">
        <ele>162</ele>
        <time>2021-06-05T12:06:33Z</time>
      </trkpt>
      <trkpt lat="43.66354" lon="3.33612">
        <ele>162</ele>
        <time>2021-06-05T12:06:34Z</time>
      </trkpt>
      <trkpt lat="43.66357" lon="3.33611">
        <ele>162</ele>
        <time>2021-06-05T12:06:35Z</time>
      </trkpt>
      <trkpt lat="43.6636" lon="3.3361">
        <ele>162</ele>
        <time>2021-06-05T12:06:36Z</time>
      </trkpt>
      <trkpt lat="43.66362" lon="3.3361">
        <ele>162</ele>
        <time>2021-06-05T12:06:37Z</time>
      </trkpt>
      <trkpt lat="43.66365" lon="3.33609">
        <ele>162</ele>
        <time>2021-06-05T12:06:38Z</time>
      </trkpt>
      <trkpt lat="43.66368" lon="3.33608">
        <ele>162</ele>
        <time>2021-06-05T12:06:39Z</time>
      </trkpt>
      <trkpt lat="43.66371" lon="3.33607">
        <ele>162</ele>
        <time>2021-06-05T12:06:40Z</time>
      </trkpt>
      <trkpt lat="43.66374" lon="3.33606">
        <ele>162</ele>
        <time>2021-06-05T12:06:41Z</time>
      </trkpt>
      <trkpt lat="43.66376" lon="3.33605">
        <ele>162</ele>
        <time>2021-06-05T12:06:42Z</time>
      </trkpt>
      <trkpt lat="43.66379" lon="3.33603">
        <ele>162</ele>
        <time>2021-06-05T12:06:43Z</time>
      </trkpt>
      <trkpt lat="43.66381" lon="3.33602">
        <ele>162</ele>
        <time>2021-06-05T12:06:44Z</time>
      </trkpt>
      <trkpt lat="43.66384" lon="3.33601">
        <ele>162</ele>
        <time>2021-06-05T12:06:45Z</time>
      </trkpt>
      <trkpt lat="43.66388" lon="3.33599">
        <ele>162</ele>
        <time>2021-06-05T12:06:46Z</time>
      </trkpt>
      <trkpt lat="43.66391" lon="3.33598">
        <ele>162</ele>
        <time>2021-06-05T12:06:47Z</time>
      </trkpt>
      <trkpt lat="43.66394" lon="3.33599">
        <ele>162</ele>
        <time>2021-06-05T12:06:48Z</time>
      </trkpt>
      <trkpt lat="43.66397" lon="3.336">
        <ele>162</ele>
        <time>2021-06-05T12:06:49Z</time>
      </trkpt>
      <trkpt lat="43.66399" lon="3.33601">
        <ele>162</ele>
        <time>2021-06-05T12:06:50Z</time>
      </trkpt>
      <trkpt lat="43.66401" lon="3.33602">
        <ele>162</ele>
        <time>2021-06-05T12:06:51Z</time>
      </trkpt>
      <trkpt lat="43.66404" lon="3.33603">
        <ele>162</ele>
        <time>2021-06-05T12:06:52Z</time>
      </trkpt>
      <trkpt lat="43.66407" lon="3.33603">
        <ele>162</ele>
        <time>2021-06-05T12:06:53Z</time>
      </trkpt>
      <trkpt lat="43.6641" lon="3.33602">
        <ele>162</ele>
        <time>2021-06-05T12:06:54Z</time>
      </trkpt>
      <trkpt lat="43.66413" lon="3.33601">
        <ele>162</ele>
        <time>2021-06-05T12:06:55Z</time>
      </trkpt>
      <trkpt lat="43.66415" lon="3.336">
        <ele>162</ele>
        <time>2021-06-05T12:06:56Z</time>
      </trkpt>
      <trkpt lat="43.66418" lon="3.33599">
        <ele>162</ele>
        <time>2021-06-05T12:06:57Z</time>
      </trkpt>
      <trkpt lat="43.6642" lon="3.33598">
        <ele>162</ele>
        <time>2021-06-05T12:06:58Z</time>
      </trkpt>
      <trkpt lat="43.66422" lon="3.33597">
        <ele>163</ele>
        <time>2021-06-05T12:06:59Z</time>
      </trkpt>
      <trkpt lat="43.66424" lon="3.33596">
        <ele>163</ele>
        <time>2021-06-05T12:07:00Z</time>
      </trkpt>
      <trkpt lat="43.66426" lon="3.33595">
        <ele>163</ele>
        <time>2021-06-05T12:07:01Z</time>
      </trkpt>
      <trkpt lat="43.66428" lon="3.33594">
        <ele>163</ele>
        <time>2021-06-05T12:07:02Z</time>
      </trkpt>
      <trkpt lat="43.6643" lon="3.33594">
        <ele>163</ele>
        <time>2021-06-05T12:07:03Z</time>
      </trkpt>
      <trkpt lat="43.66432" lon="3.33594">
        <ele>163</ele>
        <time>2021-06-05T12:07:04Z</time>
      </trkpt>
      <trkpt lat="43.66434" lon="3.33593">
        <ele>163</ele>
        <time>2021-06-05T12:07:05Z</time>
      </trkpt>
      <trkpt lat="43.66436" lon="3.33592">
        <ele>163</ele>
        <time>2021-06-05T12:07:06Z</time>
      </trkpt>
      <trkpt lat="43.66438" lon="3.33591">
        <ele>163</ele>
        <time>2021-06-05T12:07:07Z</time>
      </trkpt>
      <trkpt lat="43.6644" lon="3.33591">
        <ele>163</ele>
        <time>2021-06-05T12:07:08Z</time>
      </trkpt>
      <trkpt lat="43.66442" lon="3.3359">
        <ele>165</ele>
        <time>2021-06-05T12:07:09Z</time>
      </trkpt>
      <trkpt lat="43.66445" lon="3.33589">
        <ele>165</ele>
        <time>2021-06-05T12:07:10Z</time>
      </trkpt>
      <trkpt lat="43.66447" lon="3.33589">
        <ele>165</ele>
        <time>2021-06-05T12:07:11Z</time>
      </trkpt>
      <trkpt lat="43.66449" lon="3.33588">
        <ele>165</ele>
        <time>2021-06-05T12:07:12Z</time>
      </trkpt>
      <trkpt lat="43.66451" lon="3.33587">
        <ele>165</ele>
        <time>2021-06-05T12:07:13Z</time>
      </trkpt>
      <trkpt lat="43.66452" lon="3.33587">
        <ele>165</ele>
        <time>2021-06-05T12:07:14Z</time>
      </trkpt>
      <trkpt lat="43.66455" lon="3.33585">
        <ele>165</ele>
        <time>2021-06-05T12:07:15Z</time>
      </trkpt>
      <trkpt lat="43.66457" lon="3.33585">
        <ele>165</ele>
        <time>2021-06-05T12:07:16Z</time>
      </trkpt>
      <trkpt lat="43.66459" lon="3.33584">
        <ele>165</ele>
        <time>2021-06-05T12:07:17Z</time>
      </trkpt>
      <trkpt lat="43.6646" lon="3.33584">
        <ele>165</ele>
        <time>2021-06-05T12:07:18Z</time>
      </trkpt>
      <trkpt lat="43.66463" lon="3.33583">
        <ele>167</ele>
        <time>2021-06-05T12:07:19Z</time>
      </trkpt>
      <trkpt lat="43.66465" lon="3.33583">
        <ele>167</ele>
        <time>2021-06-05T12:07:20Z</time>
      </trkpt>
      <trkpt lat="43.66467" lon="3.33583">
        <ele>167</ele>
        <time>2021-06-05T12:07:21Z</time>
      </trkpt>
      <trkpt lat="43.66469" lon="3.33582">
        <ele>167</ele>
        <time>2021-06-05T12:07:22Z</time>
      </trkpt>
      <trkpt lat="43.66471" lon="3.33582">
        <ele>167</ele>
        <time>2021-06-05T12:07:23Z</time>
      </trkpt>
      <trkpt lat="43.66473" lon="3.33581">
        <ele>167</ele>
        <time>2021-06-05T12:07:24Z</time>
      </trkpt>
      <trkpt lat="43.66475" lon="3.33581">
        <ele>167</ele>
        <time>2021-06-05T12:07:25Z</time>
      </trkpt>
      <trkpt lat="43.66478" lon="3.33581">
        <ele>167</ele>
        <time>2021-06-05T12:07:26Z</time>
      </trkpt>
      <trkpt lat="43.6648" lon="3.33581">
        <ele>167</ele>
        <time>2021-06-05T12:07:27Z</time>
      </trkpt>
      <trkpt lat="43.66481" lon="3.33582">
        <ele>167</ele>
        <time>2021-06-05T12:07:28Z</time>
      </trkpt>
      <trkpt lat="43.66483" lon="3.33582">
        <ele>169</ele>
        <time>2021-06-05T12:07:29Z</time>
      </trkpt>
      <trkpt lat="43.66485" lon="3.33582">
        <ele>169</ele>
        <time>2021-06-05T12:07:30Z</time>
      </trkpt>
      <trkpt lat="43.66488" lon="3.33583">
        <ele>169</ele>
        <time>2021-06-05T12:07:32Z</time>
      </trkpt>
      <trkpt lat="43.6649" lon="3.33584">
        <ele>169</ele>
        <time>2021-06-05T12:07:33Z</time>
      </trkpt>
      <trkpt lat="43.66492" lon="3.33584">
        <ele>169</ele>
        <time>2021-06-05T12:07:34Z</time>
      </trkpt>
      <trkpt lat="43.66494" lon="3.33585">
        <ele>169</ele>
        <time>2021-06-05T12:07:35Z</time>
      </trkpt>
      <trkpt lat="43.66497" lon="3.33586">
        <ele>169</ele>
        <time>2021-06-05T12:07:37Z</time>
      </trkpt>
      <trkpt lat="43.665" lon="3.33586">
        <ele>169</ele>
        <time>2021-06-05T12:07:38Z</time>
      </trkpt>
      <trkpt lat="43.66503" lon="3.33585">
        <ele>170</ele>
        <time>2021-06-05T12:07:40Z</time>
      </trkpt>
      <trkpt lat="43.66505" lon="3.33583">
        <ele>170</ele>
        <time>2021-06-05T12:07:42Z</time>
      </trkpt>
      <trkpt lat="43.66508" lon="3.33581">
        <ele>170</ele>
        <time>2021-06-05T12:07:44Z</time>
      </trkpt>
      <trkpt lat="43.6651" lon="3.33579">
        <ele>170</ele>
        <time>2021-06-05T12:07:46Z</time>
      </trkpt>
      <trkpt lat="43.66512" lon="3.33575">
        <ele>170</ele>
        <time>2021-06-05T12:07:48Z</time>
      </trkpt>
      <trkpt lat="43.66512" lon="3.33572">
        <ele>172</ele>
        <time>2021-06-05T12:07:50Z</time>
      </trkpt>
      <trkpt lat="43.66511" lon="3.33568">
        <ele>172</ele>
        <time>2021-06-05T12:07:52Z</time>
      </trkpt>
      <trkpt lat="43.66508" lon="3.33566">
        <ele>172</ele>
        <time>2021-06-05T12:07:54Z</time>
      </trkpt>
      <trkpt lat="43.66506" lon="3.33564">
        <ele>172</ele>
        <time>2021-06-05T12:07:56Z</time>
      </trkpt>
      <trkpt lat="43.66503" lon="3.33561">
        <ele>172</ele>
        <time>2021-06-05T12:07:58Z</time>
      </trkpt>
      <trkpt lat="43.665" lon="3.33559">
        <ele>173</ele>
        <time>2021-06-05T12:08:00Z</time>
      </trkpt>
      <trkpt lat="43.66497" lon="3.33556">
        <ele>173</ele>
        <time>2021-06-05T12:08:02Z</time>
      </trkpt>
      <trkpt lat="43.66495" lon="3.33553">
        <ele>173</ele>
        <time>2021-06-05T12:08:04Z</time>
      </trkpt>
      <trkpt lat="43.66493" lon="3.3355">
        <ele>173</ele>
        <time>2021-06-05T12:08:06Z</time>
      </trkpt>
      <trkpt lat="43.6649" lon="3.33548">
        <ele>173</ele>
        <time>2021-06-05T12:08:08Z</time>
      </trkpt>
      <trkpt lat="43.66487" lon="3.33545">
        <ele>175</ele>
        <time>2021-06-05T12:08:10Z</time>
      </trkpt>
      <trkpt lat="43.66487" lon="3.33541">
        <ele>175</ele>
        <time>2021-06-05T12:08:12Z</time>
      </trkpt>
      <trkpt lat="43.66489" lon="3.33537">
        <ele>175</ele>
        <time>2021-06-05T12:08:14Z</time>
      </trkpt>
      <trkpt lat="43.66491" lon="3.33534">
        <ele>175</ele>
        <time>2021-06-05T12:08:16Z</time>
      </trkpt>
      <trkpt lat="43.66493" lon="3.33532">
        <ele>175</ele>
        <time>2021-06-05T12:08:17Z</time>
      </trkpt>
      <trkpt lat="43.66495" lon="3.33531">
        <ele>175</ele>
        <time>2021-06-05T12:08:18Z</time>
      </trkpt>
      <trkpt lat="43.66497" lon="3.33529">
        <ele>176</ele>
        <time>2021-06-05T12:08:19Z</time>
      </trkpt>
      <trkpt lat="43.66498" lon="3.33528">
        <ele>176</ele>
        <time>2021-06-05T12:08:20Z</time>
      </trkpt>
      <trkpt lat="43.665" lon="3.33526">
        <ele>176</ele>
        <time>2021-06-05T12:08:21Z</time>
      </trkpt>
      <trkpt lat="43.66502" lon="3.33525">
        <ele>176</ele>
        <time>2021-06-05T12:08:22Z</time>
      </trkpt>
      <trkpt lat="43.66504" lon="3.33524">
        <ele>176</ele>
        <time>2021-06-05T12:08:23Z</time>
      </trkpt>
      <trkpt lat="43.66506" lon="3.33523">
        <ele>176</ele>
        <time>2021-06-05T12:08:24Z</time>
      </trkpt>
      <trkpt lat="43.66509" lon="3.33522">
        <ele>176</ele>
        <time>2021-06-05T12:08:25Z</time>
      </trkpt>
      <trkpt lat="43.66511" lon="3.33521">
        <ele>176</ele>
        <time>2021-06-05T12:08:26Z</time>
      </trkpt>
      <trkpt lat="43.66513" lon="3.3352">
        <ele>176</ele>
        <time>2021-06-05T12:08:27Z</time>
      </trkpt>
      <trkpt lat="43.66516" lon="3.33519">
        <ele>176</ele>
        <time>2021-06-05T12:08:28Z</time>
      </trkpt>
      <trkpt lat="43.66518" lon="3.33519">
        <ele>178</ele>
        <time>2021-06-05T12:08:29Z</time>
      </trkpt>
      <trkpt lat="43.66521" lon="3.33518">
        <ele>178</ele>
        <time>2021-06-05T12:08:30Z</time>
      </trkpt>
      <trkpt lat="43.66524" lon="3.33517">
        <ele>178</ele>
        <time>2021-06-05T12:08:31Z</time>
      </trkpt>
      <trkpt lat="43.66527" lon="3.33517">
        <ele>178</ele>
        <time>2021-06-05T12:08:32Z</time>
      </trkpt>
      <trkpt lat="43.66529" lon="3.33517">
        <ele>178</ele>
        <time>2021-06-05T12:08:33Z</time>
      </trkpt>
      <trkpt lat="43.66532" lon="3.33516">
        <ele>178</ele>
        <time>2021-06-05T12:08:34Z</time>
      </trkpt>
      <trkpt lat="43.66535" lon="3.33516">
        <ele>178</ele>
        <time>2021-06-05T12:08:35Z</time>
      </trkpt>
      <trkpt lat="43.66537" lon="3.33516">
        <ele>178</ele>
        <time>2021-06-05T12:08:36Z</time>
      </trkpt>
      <trkpt lat="43.6654" lon="3.33516">
        <ele>178</ele>
        <time>2021-06-05T12:08:37Z</time>
      </trkpt>
      <trkpt lat="43.66543" lon="3.33516">
        <ele>178</ele>
        <time>2021-06-05T12:08:38Z</time>
      </trkpt>
      <trkpt lat="43.66546" lon="3.33517">
        <ele>178</ele>
        <time>2021-06-05T12:08:39Z</time>
      </trkpt>
      <trkpt lat="43.66548" lon="3.33517">
        <ele>178</ele>
        <time>2021-06-05T12:08:40Z</time>
      </trkpt>
      <trkpt lat="43.66551" lon="3.33518">
        <ele>178</ele>
        <time>2021-06-05T12:08:41Z</time>
      </trkpt>
      <trkpt lat="43.66553" lon="3.33518">
        <ele>178</ele>
        <time>2021-06-05T12:08:42Z</time>
      </trkpt>
      <trkpt lat="43.66556" lon="3.33519">
        <ele>178</ele>
        <time>2021-06-05T12:08:43Z</time>
      </trkpt>
      <trkpt lat="43.66559" lon="3.3352">
        <ele>178</ele>
        <time>2021-06-05T12:08:44Z</time>
      </trkpt>
      <trkpt lat="43.66561" lon="3.3352">
        <ele>178</ele>
        <time>2021-06-05T12:08:45Z</time>
      </trkpt>
      <trkpt lat="43.66564" lon="3.33521">
        <ele>178</ele>
        <time>2021-06-05T12:08:46Z</time>
      </trkpt>
      <trkpt lat="43.66566" lon="3.33523">
        <ele>178</ele>
        <time>2021-06-05T12:08:47Z</time>
      </trkpt>
      <trkpt lat="43.66568" lon="3.33524">
        <ele>178</ele>
        <time>2021-06-05T12:08:48Z</time>
      </trkpt>
      <trkpt lat="43.66571" lon="3.33526">
        <ele>179</ele>
        <time>2021-06-05T12:08:49Z</time>
      </trkpt>
      <trkpt lat="43.66573" lon="3.33527">
        <ele>179</ele>
        <time>2021-06-05T12:08:50Z</time>
      </trkpt>
      <trkpt lat="43.66576" lon="3.33529">
        <ele>179</ele>
        <time>2021-06-05T12:08:51Z</time>
      </trkpt>
      <trkpt lat="43.66578" lon="3.33531">
        <ele>179</ele>
        <time>2021-06-05T12:08:52Z</time>
      </trkpt>
      <trkpt lat="43.66581" lon="3.33533">
        <ele>179</ele>
        <time>2021-06-05T12:08:53Z</time>
      </trkpt>
      <trkpt lat="43.66584" lon="3.33534">
        <ele>179</ele>
        <time>2021-06-05T12:08:54Z</time>
      </trkpt>
      <trkpt lat="43.66585" lon="3.33536">
        <ele>179</ele>
        <time>2021-06-05T12:08:55Z</time>
      </trkpt>
      <trkpt lat="43.66588" lon="3.33538">
        <ele>179</ele>
        <time>2021-06-05T12:08:56Z</time>
      </trkpt>
      <trkpt lat="43.66591" lon="3.3354">
        <ele>179</ele>
        <time>2021-06-05T12:08:57Z</time>
      </trkpt>
      <trkpt lat="43.66594" lon="3.33542">
        <ele>179</ele>
        <time>2021-06-05T12:08:58Z</time>
      </trkpt>
      <trkpt lat="43.66596" lon="3.33544">
        <ele>179</ele>
        <time>2021-06-05T12:08:59Z</time>
      </trkpt>
      <trkpt lat="43.66599" lon="3.33545">
        <ele>179</ele>
        <time>2021-06-05T12:09:00Z</time>
      </trkpt>
      <trkpt lat="43.66602" lon="3.33547">
        <ele>179</ele>
        <time>2021-06-05T12:09:01Z</time>
      </trkpt>
      <trkpt lat="43.66604" lon="3.33549">
        <ele>179</ele>
        <time>2021-06-05T12:09:02Z</time>
      </trkpt>
      <trkpt lat="43.66607" lon="3.33551">
        <ele>179</ele>
        <time>2021-06-05T12:09:03Z</time>
      </trkpt>
      <trkpt lat="43.6661" lon="3.33552">
        <ele>179</ele>
        <time>2021-06-05T12:09:04Z</time>
      </trkpt>
      <trkpt lat="43.66613" lon="3.33553">
        <ele>179</ele>
        <time>2021-06-05T12:09:05Z</time>
      </trkpt>
      <trkpt lat="43.66616" lon="3.33555">
        <ele>179</ele>
        <time>2021-06-05T12:09:06Z</time>
      </trkpt>
      <trkpt lat="43.66618" lon="3.33557">
        <ele>179</ele>
        <time>2021-06-05T12:09:07Z</time>
      </trkpt>
      <trkpt lat="43.66621" lon="3.33559">
        <ele>179</ele>
        <time>2021-06-05T12:09:08Z</time>
      </trkpt>
      <trkpt lat="43.66624" lon="3.33561">
        <ele>179</ele>
        <time>2021-06-05T12:09:09Z</time>
      </trkpt>
      <trkpt lat="43.66627" lon="3.33563">
        <ele>179</ele>
        <time>2021-06-05T12:09:10Z</time>
      </trkpt>
      <trkpt lat="43.6663" lon="3.33564">
        <ele>179</ele>
        <time>2021-06-05T12:09:11Z</time>
      </trkpt>
      <trkpt lat="43.66633" lon="3.33566">
        <ele>179</ele>
        <time>2021-06-05T12:09:12Z</time>
      </trkpt>
      <trkpt lat="43.66635" lon="3.33568">
        <ele>179</ele>
        <time>2021-06-05T12:09:13Z</time>
      </trkpt>
      <trkpt lat="43.66638" lon="3.33569">
        <ele>179</ele>
        <time>2021-06-05T12:09:14Z</time>
      </trkpt>
      <trkpt lat="43.66641" lon="3.33571">
        <ele>179</ele>
        <time>2021-06-05T12:09:15Z</time>
      </trkpt>
      <trkpt lat="43.66644" lon="3.33572">
        <ele>179</ele>
        <time>2021-06-05T12:09:16Z</time>
      </trkpt>
      <trkpt lat="43.66648" lon="3.33574">
        <ele>179</ele>
        <time>2021-06-05T12:09:17Z</time>
      </trkpt>
      <trkpt lat="43.6665" lon="3.33575">
        <ele>179</ele>
        <time>2021-06-05T12:09:18Z</time>
      </trkpt>
      <trkpt lat="43.66653" lon="3.33576">
        <ele>181</ele>
        <time>2021-06-05T12:09:19Z</time>
      </trkpt>
      <trkpt lat="43.66656" lon="3.33577">
        <ele>181</ele>
        <time>2021-06-05T12:09:19Z</time>
      </trkpt>
      <trkpt lat="43.66659" lon="3.33578">
        <ele>181</ele>
        <time>2021-06-05T12:09:20Z</time>
      </trkpt>
      <trkpt lat="43.66662" lon="3.33578">
        <ele>181</ele>
        <time>2021-06-05T12:09:22Z</time>
      </trkpt>
      <trkpt lat="43.66665" lon="3.33579">
        <ele>181</ele>
        <time>2021-06-05T12:09:23Z</time>
      </trkpt>
      <trkpt lat="43.66668" lon="3.3358">
        <ele>181</ele>
        <time>2021-06-05T12:09:24Z</time>
      </trkpt>
      <trkpt lat="43.66671" lon="3.3358">
        <ele>181</ele>
        <time>2021-06-05T12:09:25Z</time>
      </trkpt>
      <trkpt lat="43.66674" lon="3.33581">
        <ele>181</ele>
        <time>2021-06-05T12:09:26Z</time>
      </trkpt>
      <trkpt lat="43.66677" lon="3.33582">
        <ele>181</ele>
        <time>2021-06-05T12:09:27Z</time>
      </trkpt>
      <trkpt lat="43.6668" lon="3.33582">
        <ele>181</ele>
        <time>2021-06-05T12:09:28Z</time>
      </trkpt>
      <trkpt lat="43.66684" lon="3.33582">
        <ele>182</ele>
        <time>2021-06-05T12:09:29Z</time>
      </trkpt>
      <trkpt lat="43.66687" lon="3.33582">
        <ele>182</ele>
        <time>2021-06-05T12:09:30Z</time>
      </trkpt>
      <trkpt lat="43.6669" lon="3.33582">
        <ele>182</ele>
        <time>2021-06-05T12:09:31Z</time>
      </trkpt>
      <trkpt lat="43.66694" lon="3.33582">
        <ele>182</ele>
        <time>2021-06-05T12:09:32Z</time>
      </trkpt>
      <trkpt lat="43.66697" lon="3.33582">
        <ele>182</ele>
        <time>2021-06-05T12:09:33Z</time>
      </trkpt>
      <trkpt lat="43.667" lon="3.33582">
        <ele>182</ele>
        <time>2021-06-05T12:09:34Z</time>
      </trkpt>
      <trkpt lat="43.66703" lon="3.33582">
        <ele>182</ele>
        <time>2021-06-05T12:09:35Z</time>
      </trkpt>
      <trkpt lat="43.66707" lon="3.33581">
        <ele>182</ele>
        <time>2021-06-05T12:09:36Z</time>
      </trkpt>
      <trkpt lat="43.6671" lon="3.33581">
        <ele>182</ele>
        <time>2021-06-05T12:09:37Z</time>
      </trkpt>
      <trkpt lat="43.66714" lon="3.3358">
        <ele>182</ele>
        <time>2021-06-05T12:09:38Z</time>
      </trkpt>
      <trkpt lat="43.66717" lon="3.3358">
        <ele>183</ele>
        <time>2021-06-05T12:09:39Z</time>
      </trkpt>
      <trkpt lat="43.6672" lon="3.3358">
        <ele>183</ele>
        <time>2021-06-05T12:09:40Z</time>
      </trkpt>
      <trkpt lat="43.66723" lon="3.33579">
        <ele>183</ele>
        <time>2021-06-05T12:09:41Z</time>
      </trkpt>
      <trkpt lat="43.66726" lon="3.33578">
        <ele>183</ele>
        <time>2021-06-05T12:09:42Z</time>
      </trkpt>
      <trkpt lat="43.66729" lon="3.33577">
        <ele>183</ele>
        <time>2021-06-05T12:09:43Z</time>
      </trkpt>
      <trkpt lat="43.66732" lon="3.33576">
        <ele>183</ele>
        <time>2021-06-05T12:09:44Z</time>
      </trkpt>
      <trkpt lat="43.66736" lon="3.33575">
        <ele>183</ele>
        <time>2021-06-05T12:09:45Z</time>
      </trkpt>
      <trkpt lat="43.66738" lon="3.33574">
        <ele>183</ele>
        <time>2021-06-05T12:09:46Z</time>
      </trkpt>
      <trkpt lat="43.66741" lon="3.33573">
        <ele>183</ele>
        <time>2021-06-05T12:09:47Z</time>
      </trkpt>
      <trkpt lat="43.66744" lon="3.33572">
        <ele>183</ele>
        <time>2021-06-05T12:09:48Z</time>
      </trkpt>
      <trkpt lat="43.66747" lon="3.33571">
        <ele>183</ele>
        <time>2021-06-05T12:09:49Z</time>
      </trkpt>
      <trkpt lat="43.66751" lon="3.33569">
        <ele>183</ele>
        <time>2021-06-05T12:09:50Z</time>
      </trkpt>
      <trkpt lat="43.66754" lon="3.33568">
        <ele>183</ele>
        <time>2021-06-05T12:09:51Z</time>
      </trkpt>
      <trkpt lat="43.66756" lon="3.33567">
        <ele>183</ele>
        <time>2021-06-05T12:09:52Z</time>
      </trkpt>
      <trkpt lat="43.66759" lon="3.33565">
        <ele>183</ele>
        <time>2021-06-05T12:09:53Z</time>
      </trkpt>
      <trkpt lat="43.66762" lon="3.33564">
        <ele>183</ele>
        <time>2021-06-05T12:09:54Z</time>
      </trkpt>
      <trkpt lat="43.66765" lon="3.33562">
        <ele>183</ele>
        <time>2021-06-05T12:09:55Z</time>
      </trkpt>
      <trkpt lat="43.66768" lon="3.3356">
        <ele>183</ele>
        <time>2021-06-05T12:09:56Z</time>
      </trkpt>
      <trkpt lat="43.6677" lon="3.33559">
        <ele>183</ele>
        <time>2021-06-05T12:09:57Z</time>
      </trkpt>
      <trkpt lat="43.66773" lon="3.33557">
        <ele>183</ele>
        <time>2021-06-05T12:09:58Z</time>
      </trkpt>
      <trkpt lat="43.66776" lon="3.33556">
        <ele>184</ele>
        <time>2021-06-05T12:09:59Z</time>
      </trkpt>
      <trkpt lat="43.66779" lon="3.33556">
        <ele>184</ele>
        <time>2021-06-05T12:10:00Z</time>
      </trkpt>
      <trkpt lat="43.66782" lon="3.33557">
        <ele>184</ele>
        <time>2021-06-05T12:10:01Z</time>
      </trkpt>
      <trkpt lat="43.66785" lon="3.33559">
        <ele>184</ele>
        <time>2021-06-05T12:10:02Z</time>
      </trkpt>
      <trkpt lat="43.66787" lon="3.33562">
        <ele>184</ele>
        <time>2021-06-05T12:10:03Z</time>
      </trkpt>
      <trkpt lat="43.6679" lon="3.33565">
        <ele>184</ele>
        <time>2021-06-05T12:10:04Z</time>
      </trkpt>
      <trkpt lat="43.66792" lon="3.33567">
        <ele>184</ele>
        <time>2021-06-05T12:10:05Z</time>
      </trkpt>
      <trkpt lat="43.66795" lon="3.33568">
        <ele>184</ele>
        <time>2021-06-05T12:10:06Z</time>
      </trkpt>
      <trkpt lat="43.66798" lon="3.33569">
        <ele>184</ele>
        <time>2021-06-05T12:10:07Z</time>
      </trkpt>
      <trkpt lat="43.66801" lon="3.33569">
        <ele>184</ele>
        <time>2021-06-05T12:10:08Z</time>
      </trkpt>
      <trkpt lat="43.66804" lon="3.33569">
        <ele>185</ele>
        <time>2021-06-05T12:10:09Z</time>
      </trkpt>
      <trkpt lat="43.66807" lon="3.33569">
        <ele>185</ele>
        <time>2021-06-05T12:10:10Z</time>
      </trkpt>
      <trkpt lat="43.6681" lon="3.33569">
        <ele>185</ele>
        <time>2021-06-05T12:10:11Z</time>
      </trkpt>
      <trkpt lat="43.66814" lon="3.33568">
        <ele>185</ele>
        <time>2021-06-05T12:10:12Z</time>
      </trkpt>
      <trkpt lat="43.66816" lon="3.33568">
        <ele>185</ele>
        <time>2021-06-05T12:10:13Z</time>
      </trkpt>
      <trkpt lat="43.66819" lon="3.33567">
        <ele>185</ele>
        <time>2021-06-05T12:10:14Z</time>
      </trkpt>
      <trkpt lat="43.66822" lon="3.33566">
        <ele>185</ele>
        <time>2021-06-05T12:10:15Z</time>
      </trkpt>
      <trkpt lat="43.66824" lon="3.33565">
        <ele>185</ele>
        <time>2021-06-05T12:10:16Z</time>
      </trkpt>
      <trkpt lat="43.66826" lon="3.33564">
        <ele>185</ele>
        <time>2021-06-05T12:10:17Z</time>
      </trkpt>
      <trkpt lat="43.66827" lon="3.33563">
        <ele>185</ele>
        <time>2021-06-05T12:10:18Z</time>
      </trkpt>
      <trkpt lat="43.66829" lon="3.33562">
        <ele>186</ele>
        <time>2021-06-05T12:10:19Z</time>
      </trkpt>
      <trkpt lat="43.66832" lon="3.33562">
        <ele>186</ele>
        <time>2021-06-05T12:10:20Z</time>
      </trkpt>
      <trkpt lat="43.66834" lon="3.33561">
        <ele>186</ele>
        <time>2021-06-05T12:10:21Z</time>
      </trkpt>
      <trkpt lat="43.66837" lon="3.33561">
        <ele>186</ele>
        <time>2021-06-05T12:10:22Z</time>
      </trkpt>
      <trkpt lat="43.66839" lon="3.33561">
        <ele>186</ele>
        <time>2021-06-05T12:10:23Z</time>
      </trkpt>
      <trkpt lat="43.66841" lon="3.3356">
        <ele>186</ele>
        <time>2021-06-05T12:10:24Z</time>
      </trkpt>
      <trkpt lat="43.66843" lon="3.3356">
        <ele>186</ele>
        <time>2021-06-05T12:10:25Z</time>
      </trkpt>
      <trkpt lat="43.66846" lon="3.3356">
        <ele>186</ele>
        <time>2021-06-05T12:10:26Z</time>
      </trkpt>
      <trkpt lat="43.66848" lon="3.3356">
        <ele>186</ele>
        <time>2021-06-05T12:10:27Z</time>
      </trkpt>
      <trkpt lat="43.66851" lon="3.3356">
        <ele>186</ele>
        <time>2021-06-05T12:10:28Z</time>
      </trkpt>
      <trkpt lat="43.66854" lon="3.3356">
        <ele>187</ele>
        <time>2021-06-05T12:10:29Z</time>
      </trkpt>
      <trkpt lat="43.66857" lon="3.3356">
        <ele>187</ele>
        <time>2021-06-05T12:10:30Z</time>
      </trkpt>
      <trkpt lat="43.6686" lon="3.3356">
        <ele>187</ele>
        <time>2021-06-05T12:10:31Z</time>
      </trkpt>
      <trkpt lat="43.66864" lon="3.3356">
        <ele>187</ele>
        <time>2021-06-05T12:10:32Z</time>
      </trkpt>
      <trkpt lat="43.66868" lon="3.3356">
        <ele>187</ele>
        <time>2021-06-05T12:10:33Z</time>
      </trkpt>
      <trkpt lat="43.66871" lon="3.3356">
        <ele>187</ele>
        <time>2021-06-05T12:10:34Z</time>
      </trkpt>
      <trkpt lat="43.66874" lon="3.3356">
        <ele>187</ele>
        <time>2021-06-05T12:10:35Z</time>
      </trkpt>
      <trkpt lat="43.66877" lon="3.3356">
        <ele>187</ele>
        <time>2021-06-05T12:10:36Z</time>
      </trkpt>
      <trkpt lat="43.6688" lon="3.33559">
        <ele>187</ele>
        <time>2021-06-05T12:10:37Z</time>
      </trkpt>
      <trkpt lat="43.66883" lon="3.33558">
        <ele>187</ele>
        <time>2021-06-05T12:10:38Z</time>
      </trkpt>
      <trkpt lat="43.66886" lon="3.33556">
        <ele>187</ele>
        <time>2021-06-05T12:10:39Z</time>
      </trkpt>
      <trkpt lat="43.6689" lon="3.33555">
        <ele>187</ele>
        <time>2021-06-05T12:10:40Z</time>
      </trkpt>
      <trkpt lat="43.66892" lon="3.33554">
        <ele>187</ele>
        <time>2021-06-05T12:10:41Z</time>
      </trkpt>
      <trkpt lat="43.66896" lon="3.33553">
        <ele>187</ele>
        <time>2021-06-05T12:10:42Z</time>
      </trkpt>
      <trkpt lat="43.66899" lon="3.33552">
        <ele>187</ele>
        <time>2021-06-05T12:10:43Z</time>
      </trkpt>
      <trkpt lat="43.66903" lon="3.33551">
        <ele>187</ele>
        <time>2021-06-05T12:10:44Z</time>
      </trkpt>
      <trkpt lat="43.66906" lon="3.3355">
        <ele>187</ele>
        <time>2021-06-05T12:10:45Z</time>
      </trkpt>
      <trkpt lat="43.66909" lon="3.3355">
        <ele>187</ele>
        <time>2021-06-05T12:10:46Z</time>
      </trkpt>
      <trkpt lat="43.66913" lon="3.3355">
        <ele>187</ele>
        <time>2021-06-05T12:10:47Z</time>
      </trkpt>
      <trkpt lat="43.66917" lon="3.3355">
        <ele>187</ele>
        <time>2021-06-05T12:10:48Z</time>
      </trkpt>
      <trkpt lat="43.6692" lon="3.33551">
        <ele>187</ele>
        <time>2021-06-05T12:10:49Z</time>
      </trkpt>
      <trkpt lat="43.66924" lon="3.33551">
        <ele>187</ele>
        <time>2021-06-05T12:10:50Z</time>
      </trkpt>
      <trkpt lat="43.66927" lon="3.33551">
        <ele>187</ele>
        <time>2021-06-05T12:10:51Z</time>
      </trkpt>
      <trkpt lat="43.66931" lon="3.3355">
        <ele>187</ele>
        <time>2021-06-05T12:10:52Z</time>
      </trkpt>
      <trkpt lat="43.66935" lon="3.3355">
        <ele>187</ele>
        <time>2021-06-05T12:10:53Z</time>
      </trkpt>
      <trkpt lat="43.66939" lon="3.3355">
        <ele>187</ele>
        <time>2021-06-05T12:10:54Z</time>
      </trkpt>
      <trkpt lat="43.66942" lon="3.3355">
        <ele>187</ele>
        <time>2021-06-05T12:10:55Z</time>
      </trkpt>
      <trkpt lat="43.66945" lon="3.33551">
        <ele>187</ele>
        <time>2021-06-05T12:10:56Z</time>
      </trkpt>
      <trkpt lat="43.66948" lon="3.33551">
        <ele>187</ele>
        <time>2021-06-05T12:10:57Z</time>
      </trkpt>
      <trkpt lat="43.66952" lon="3.33552">
        <ele>187</ele>
        <time>2021-06-05T12:10:58Z</time>
      </trkpt>
      <trkpt lat="43.66955" lon="3.33553">
        <ele>187</ele>
        <time>2021-06-05T12:10:59Z</time>
      </trkpt>
      <trkpt lat="43.66958" lon="3.33554">
        <ele>187</ele>
        <time>2021-06-05T12:11:00Z</time>
      </trkpt>
      <trkpt lat="43.6696" lon="3.33554">
        <ele>187</ele>
        <time>2021-06-05T12:11:01Z</time>
      </trkpt>
      <trkpt lat="43.66963" lon="3.33553">
        <ele>187</ele>
        <time>2021-06-05T12:11:02Z</time>
      </trkpt>
      <trkpt lat="43.66966" lon="3.33553">
        <ele>187</ele>
        <time>2021-06-05T12:11:03Z</time>
      </trkpt>
      <trkpt lat="43.6697" lon="3.33554">
        <ele>187</ele>
        <time>2021-06-05T12:11:04Z</time>
      </trkpt>
      <trkpt lat="43.66975" lon="3.33555">
        <ele>187</ele>
        <time>2021-06-05T12:11:05Z</time>
      </trkpt>
      <trkpt lat="43.66978" lon="3.33555">
        <ele>187</ele>
        <time>2021-06-05T12:11:06Z</time>
      </trkpt>
      <trkpt lat="43.66983" lon="3.33556">
        <ele>187</ele>
        <time>2021-06-05T12:11:07Z</time>
      </trkpt>
      <trkpt lat="43.66987" lon="3.33556">
        <ele>187</ele>
        <time>2021-06-05T12:11:08Z</time>
      </trkpt>
      <trkpt lat="43.66991" lon="3.33557">
        <ele>186</ele>
        <time>2021-06-05T12:11:09Z</time>
      </trkpt>
      <trkpt lat="43.66995" lon="3.33558">
        <ele>186</ele>
        <time>2021-06-05T12:11:10Z</time>
      </trkpt>
      <trkpt lat="43.66998" lon="3.3356">
        <ele>186</ele>
        <time>2021-06-05T12:11:11Z</time>
      </trkpt>
      <trkpt lat="43.67002" lon="3.33561">
        <ele>186</ele>
        <time>2021-06-05T12:11:12Z</time>
      </trkpt>
      <trkpt lat="43.67006" lon="3.33563">
        <ele>186</ele>
        <time>2021-06-05T12:11:13Z</time>
      </trkpt>
      <trkpt lat="43.67009" lon="3.33564">
        <ele>186</ele>
        <time>2021-06-05T12:11:14Z</time>
      </trkpt>
      <trkpt lat="43.67012" lon="3.33564">
        <ele>186</ele>
        <time>2021-06-05T12:11:15Z</time>
      </trkpt>
      <trkpt lat="43.67015" lon="3.33563">
        <ele>186</ele>
        <time>2021-06-05T12:11:16Z</time>
      </trkpt>
      <trkpt lat="43.67018" lon="3.3356">
        <ele>186</ele>
        <time>2021-06-05T12:11:17Z</time>
      </trkpt>
      <trkpt lat="43.6702" lon="3.33557">
        <ele>186</ele>
        <time>2021-06-05T12:11:18Z</time>
      </trkpt>
      <trkpt lat="43.67022" lon="3.33553">
        <ele>185</ele>
        <time>2021-06-05T12:11:19Z</time>
      </trkpt>
      <trkpt lat="43.67025" lon="3.33549">
        <ele>185</ele>
        <time>2021-06-05T12:11:20Z</time>
      </trkpt>
      <trkpt lat="43.67026" lon="3.33545">
        <ele>185</ele>
        <time>2021-06-05T12:11:21Z</time>
      </trkpt>
      <trkpt lat="43.67027" lon="3.33541">
        <ele>185</ele>
        <time>2021-06-05T12:11:22Z</time>
      </trkpt>
      <trkpt lat="43.6703" lon="3.33535">
        <ele>185</ele>
        <time>2021-06-05T12:11:23Z</time>
      </trkpt>
      <trkpt lat="43.67034" lon="3.33529">
        <ele>185</ele>
        <time>2021-06-05T12:11:24Z</time>
      </trkpt>
      <trkpt lat="43.67038" lon="3.33524">
        <ele>185</ele>
        <time>2021-06-05T12:11:25Z</time>
      </trkpt>
      <trkpt lat="43.67043" lon="3.33521">
        <ele>185</ele>
        <time>2021-06-05T12:11:26Z</time>
      </trkpt>
      <trkpt lat="43.67048" lon="3.33519">
        <ele>185</ele>
        <time>2021-06-05T12:11:27Z</time>
      </trkpt>
      <trkpt lat="43.67055" lon="3.33517">
        <ele>185</ele>
        <time>2021-06-05T12:11:28Z</time>
      </trkpt>
      <trkpt lat="43.67061" lon="3.33517">
        <ele>180</ele>
        <time>2021-06-05T12:11:29Z</time>
      </trkpt>
      <trkpt lat="43.67066" lon="3.33516">
        <ele>180</ele>
        <time>2021-06-05T12:11:30Z</time>
      </trkpt>
      <trkpt lat="43.67071" lon="3.33515">
        <ele>180</ele>
        <time>2021-06-05T12:11:31Z</time>
      </trkpt>
      <trkpt lat="43.67076" lon="3.33515">
        <ele>180</ele>
        <time>2021-06-05T12:11:32Z</time>
      </trkpt>
      <trkpt lat="43.67081" lon="3.33515">
        <ele>180</ele>
        <time>2021-06-05T12:11:33Z</time>
      </trkpt>
      <trkpt lat="43.67086" lon="3.33516">
        <ele>180</ele>
        <time>2021-06-05T12:11:34Z</time>
      </trkpt>
      <trkpt lat="43.67091" lon="3.33516">
        <ele>180</ele>
        <time>2021-06-05T12:11:35Z</time>
      </trkpt>
      <trkpt lat="43.67095" lon="3.33515">
        <ele>180</ele>
        <time>2021-06-05T12:11:36Z</time>
      </trkpt>
      <trkpt lat="43.671" lon="3.33514">
        <ele>180</ele>
        <time>2021-06-05T12:11:37Z</time>
      </trkpt>
      <trkpt lat="43.67105" lon="3.33513">
        <ele>180</ele>
        <time>2021-06-05T12:11:38Z</time>
      </trkpt>
      <trkpt lat="43.67109" lon="3.33512">
        <ele>177</ele>
        <time>2021-06-05T12:11:39Z</time>
      </trkpt>
      <trkpt lat="43.67113" lon="3.3351">
        <ele>177</ele>
        <time>2021-06-05T12:11:40Z</time>
      </trkpt>
      <trkpt lat="43.67117" lon="3.33507">
        <ele>177</ele>
        <time>2021-06-05T12:11:41Z</time>
      </trkpt>
      <trkpt lat="43.67123" lon="3.33505">
        <ele>177</ele>
        <time>2021-06-05T12:11:42Z</time>
      </trkpt>
      <trkpt lat="43.67128" lon="3.33503">
        <ele>177</ele>
        <time>2021-06-05T12:11:43Z</time>
      </trkpt>
      <trkpt lat="43.67134" lon="3.33502">
        <ele>177</ele>
        <time>2021-06-05T12:11:44Z</time>
      </trkpt>
      <trkpt lat="43.67141" lon="3.33501">
        <ele>177</ele>
        <time>2021-06-05T12:11:45Z</time>
      </trkpt>
      <trkpt lat="43.67148" lon="3.33501">
        <ele>177</ele>
        <time>2021-06-05T12:11:46Z</time>
      </trkpt>
      <trkpt lat="43.67155" lon="3.33498">
        <ele>177</ele>
        <time>2021-06-05T12:11:47Z</time>
      </trkpt>
      <trkpt lat="43.67161" lon="3.33495">
        <ele>177</ele>
        <time>2021-06-05T12:11:48Z</time>
      </trkpt>
      <trkpt lat="43.67167" lon="3.33491">
        <ele>174</ele>
        <time>2021-06-05T12:11:49Z</time>
      </trkpt>
      <trkpt lat="43.67172" lon="3.33488">
        <ele>174</ele>
        <time>2021-06-05T12:11:50Z</time>
      </trkpt>
      <trkpt lat="43.67177" lon="3.33486">
        <ele>174</ele>
        <time>2021-06-05T12:11:51Z</time>
      </trkpt>
      <trkpt lat="43.6718" lon="3.33484">
        <ele>174</ele>
        <time>2021-06-05T12:11:52Z</time>
      </trkpt>
      <trkpt lat="43.67184" lon="3.33484">
        <ele>174</ele>
        <time>2021-06-05T12:11:53Z</time>
      </trkpt>
      <trkpt lat="43.67188" lon="3.33487">
        <ele>174</ele>
        <time>2021-06-05T12:11:54Z</time>
      </trkpt>
      <trkpt lat="43.67191" lon="3.33491">
        <ele>174</ele>
        <time>2021-06-05T12:11:55Z</time>
      </trkpt>
      <trkpt lat="43.67194" lon="3.33495">
        <ele>174</ele>
        <time>2021-06-05T12:11:56Z</time>
      </trkpt>
      <trkpt lat="43.67197" lon="3.33498">
        <ele>174</ele>
        <time>2021-06-05T12:11:57Z</time>
      </trkpt>
      <trkpt lat="43.67199" lon="3.33499">
        <ele>172</ele>
        <time>2021-06-05T12:11:58Z</time>
      </trkpt>
      <trkpt lat="43.67201" lon="3.33501">
        <ele>172</ele>
        <time>2021-06-05T12:11:59Z</time>
      </trkpt>
      <trkpt lat="43.67204" lon="3.33503">
        <ele>172</ele>
        <time>2021-06-05T12:11:59Z</time>
      </trkpt>
      <trkpt lat="43.67206" lon="3.33506">
        <ele>172</ele>
        <time>2021-06-05T12:12:00Z</time>
      </trkpt>
      <trkpt lat="43.67209" lon="3.33509">
        <ele>172</ele>
        <time>2021-06-05T12:12:01Z</time>
      </trkpt>
      <trkpt lat="43.67212" lon="3.33511">
        <ele>172</ele>
        <time>2021-06-05T12:12:02Z</time>
      </trkpt>
      <trkpt lat="43.67214" lon="3.33513">
        <ele>172</ele>
        <time>2021-06-05T12:12:03Z</time>
      </trkpt>
      <trkpt lat="43.67216" lon="3.33512">
        <ele>172</ele>
        <time>2021-06-05T12:12:04Z</time>
      </trkpt>
      <trkpt lat="43.67219" lon="3.33512">
        <ele>172</ele>
        <time>2021-06-05T12:12:05Z</time>
      </trkpt>
      <trkpt lat="43.67223" lon="3.33513">
        <ele>172</ele>
        <time>2021-06-05T12:12:06Z</time>
      </trkpt>
      <trkpt lat="43.67225" lon="3.33515">
        <ele>172</ele>
        <time>2021-06-05T12:12:07Z</time>
      </trkpt>
      <trkpt lat="43.67228" lon="3.33519">
        <ele>170</ele>
        <time>2021-06-05T12:12:09Z</time>
      </trkpt>
      <trkpt lat="43.6723" lon="3.33519">
        <ele>170</ele>
        <time>2021-06-05T12:12:10Z</time>
      </trkpt>
      <trkpt lat="43.67233" lon="3.33517">
        <ele>170</ele>
        <time>2021-06-05T12:12:11Z</time>
      </trkpt>
      <trkpt lat="43.67237" lon="3.33515">
        <ele>170</ele>
        <time>2021-06-05T12:12:12Z</time>
      </trkpt>
      <trkpt lat="43.67241" lon="3.33514">
        <ele>170</ele>
        <time>2021-06-05T12:12:13Z</time>
      </trkpt>
      <trkpt lat="43.67246" lon="3.33511">
        <ele>170</ele>
        <time>2021-06-05T12:12:14Z</time>
      </trkpt>
      <trkpt lat="43.6725" lon="3.33507">
        <ele>170</ele>
        <time>2021-06-05T12:12:15Z</time>
      </trkpt>
      <trkpt lat="43.67254" lon="3.33504">
        <ele>170</ele>
        <time>2021-06-05T12:12:16Z</time>
      </trkpt>
      <trkpt lat="43.67259" lon="3.33501">
        <ele>170</ele>
        <time>2021-06-05T12:12:17Z</time>
      </trkpt>
      <trkpt lat="43.67263" lon="3.33499">
        <ele>170</ele>
        <time>2021-06-05T12:12:18Z</time>
      </trkpt>
      <trkpt lat="43.67268" lon="3.335">
        <ele>165</ele>
        <time>2021-06-05T12:12:19Z</time>
      </trkpt>
      <trkpt lat="43.67272" lon="3.33504">
        <ele>165</ele>
        <time>2021-06-05T12:12:20Z</time>
      </trkpt>
      <trkpt lat="43.67276" lon="3.3351">
        <ele>165</ele>
        <time>2021-06-05T12:12:21Z</time>
      </trkpt>
      <trkpt lat="43.6728" lon="3.33516">
        <ele>165</ele>
        <time>2021-06-05T12:12:22Z</time>
      </trkpt>
      <trkpt lat="43.67282" lon="3.33521">
        <ele>165</ele>
        <time>2021-06-05T12:12:23Z</time>
      </trkpt>
      <trkpt lat="43.67286" lon="3.33524">
        <ele>165</ele>
        <time>2021-06-05T12:12:24Z</time>
      </trkpt>
      <trkpt lat="43.67289" lon="3.33525">
        <ele>165</ele>
        <time>2021-06-05T12:12:25Z</time>
      </trkpt>
      <trkpt lat="43.67292" lon="3.33526">
        <ele>165</ele>
        <time>2021-06-05T12:12:26Z</time>
      </trkpt>
      <trkpt lat="43.67295" lon="3.33528">
        <ele>165</ele>
        <time>2021-06-05T12:12:27Z</time>
      </trkpt>
      <trkpt lat="43.67298" lon="3.3353">
        <ele>165</ele>
        <time>2021-06-05T12:12:28Z</time>
      </trkpt>
      <trkpt lat="43.673" lon="3.33532">
        <ele>162</ele>
        <time>2021-06-05T12:12:28Z</time>
      </trkpt>
      <trkpt lat="43.67303" lon="3.33533">
        <ele>162</ele>
        <time>2021-06-05T12:12:29Z</time>
      </trkpt>
      <trkpt lat="43.67306" lon="3.33536">
        <ele>162</ele>
        <time>2021-06-05T12:12:30Z</time>
      </trkpt>
      <trkpt lat="43.67309" lon="3.3354">
        <ele>162</ele>
        <time>2021-06-05T12:12:32Z</time>
      </trkpt>
      <trkpt lat="43.67311" lon="3.33546">
        <ele>162</ele>
        <time>2021-06-05T12:12:33Z</time>
      </trkpt>
      <trkpt lat="43.67313" lon="3.33551">
        <ele>162</ele>
        <time>2021-06-05T12:12:34Z</time>
      </trkpt>
      <trkpt lat="43.67315" lon="3.33555">
        <ele>162</ele>
        <time>2021-06-05T12:12:35Z</time>
      </trkpt>
      <trkpt lat="43.67318" lon="3.33556">
        <ele>162</ele>
        <time>2021-06-05T12:12:36Z</time>
      </trkpt>
      <trkpt lat="43.67322" lon="3.33557">
        <ele>162</ele>
        <time>2021-06-05T12:12:36Z</time>
      </trkpt>
      <trkpt lat="43.67325" lon="3.33558">
        <ele>162</ele>
        <time>2021-06-05T12:12:38Z</time>
      </trkpt>
      <trkpt lat="43.67328" lon="3.33558">
        <ele>159</ele>
        <time>2021-06-05T12:12:39Z</time>
      </trkpt>
      <trkpt lat="43.6733" lon="3.3356">
        <ele>159</ele>
        <time>2021-06-05T12:12:40Z</time>
      </trkpt>
      <trkpt lat="43.67332" lon="3.33561">
        <ele>159</ele>
        <time>2021-06-05T12:12:41Z</time>
      </trkpt>
      <trkpt lat="43.67334" lon="3.33564">
        <ele>159</ele>
        <time>2021-06-05T12:12:42Z</time>
      </trkpt>
      <trkpt lat="43.67336" lon="3.33567">
        <ele>159</ele>
        <time>2021-06-05T12:12:43Z</time>
      </trkpt>
      <trkpt lat="43.67338" lon="3.3357">
        <ele>159</ele>
        <time>2021-06-05T12:12:44Z</time>
      </trkpt>
      <trkpt lat="43.67339" lon="3.33574">
        <ele>159</ele>
        <time>2021-06-05T12:12:45Z</time>
      </trkpt>
      <trkpt lat="43.6734" lon="3.33577">
        <ele>159</ele>
        <time>2021-06-05T12:12:46Z</time>
      </trkpt>
      <trkpt lat="43.67341" lon="3.3358">
        <ele>159</ele>
        <time>2021-06-05T12:12:47Z</time>
      </trkpt>
      <trkpt lat="43.67344" lon="3.33582">
        <ele>159</ele>
        <time>2021-06-05T12:12:48Z</time>
      </trkpt>
      <trkpt lat="43.67346" lon="3.33585">
        <ele>158</ele>
        <time>2021-06-05T12:12:49Z</time>
      </trkpt>
      <trkpt lat="43.67349" lon="3.33588">
        <ele>158</ele>
        <time>2021-06-05T12:12:50Z</time>
      </trkpt>
      <trkpt lat="43.6735" lon="3.33592">
        <ele>158</ele>
        <time>2021-06-05T12:12:51Z</time>
      </trkpt>
      <trkpt lat="43.67351" lon="3.33595">
        <ele>158</ele>
        <time>2021-06-05T12:12:52Z</time>
      </trkpt>
      <trkpt lat="43.67353" lon="3.33599">
        <ele>158</ele>
        <time>2021-06-05T12:12:53Z</time>
      </trkpt>
      <trkpt lat="43.67354" lon="3.33602">
        <ele>158</ele>
        <time>2021-06-05T12:12:54Z</time>
      </trkpt>
      <trkpt lat="43.67356" lon="3.33606">
        <ele>158</ele>
        <time>2021-06-05T12:12:55Z</time>
      </trkpt>
      <trkpt lat="43.6736" lon="3.33608">
        <ele>158</ele>
        <time>2021-06-05T12:12:56Z</time>
      </trkpt>
      <trkpt lat="43.67362" lon="3.33611">
        <ele>158</ele>
        <time>2021-06-05T12:12:57Z</time>
      </trkpt>
      <trkpt lat="43.67364" lon="3.33613">
        <ele>158</ele>
        <time>2021-06-05T12:12:58Z</time>
      </trkpt>
      <trkpt lat="43.67366" lon="3.33614">
        <ele>159</ele>
        <time>2021-06-05T12:12:59Z</time>
      </trkpt>
      <trkpt lat="43.67367" lon="3.33616">
        <ele>159</ele>
        <time>2021-06-05T12:13:00Z</time>
      </trkpt>
      <trkpt lat="43.67369" lon="3.33619">
        <ele>159</ele>
        <time>2021-06-05T12:13:02Z</time>
      </trkpt>
      <trkpt lat="43.67371" lon="3.33623">
        <ele>159</ele>
        <time>2021-06-05T12:13:04Z</time>
      </trkpt>
      <trkpt lat="43.67372" lon="3.33627">
        <ele>159</ele>
        <time>2021-06-05T12:13:05Z</time>
      </trkpt>
      <trkpt lat="43.67373" lon="3.3363">
        <ele>159</ele>
        <time>2021-06-05T12:13:06Z</time>
      </trkpt>
      <trkpt lat="43.67374" lon="3.33633">
        <ele>159</ele>
        <time>2021-06-05T12:13:07Z</time>
      </trkpt>
      <trkpt lat="43.67375" lon="3.33637">
        <ele>159</ele>
        <time>2021-06-05T12:13:08Z</time>
      </trkpt>
      <trkpt lat="43.67376" lon="3.3364">
        <ele>159</ele>
        <time>2021-06-05T12:13:09Z</time>
      </trkpt>
      <trkpt lat="43.67376" lon="3.33643">
        <ele>159</ele>
        <time>2021-06-05T12:13:10Z</time>
      </trkpt>
      <trkpt lat="43.67377" lon="3.33645">
        <ele>159</ele>
        <time>2021-06-05T12:13:11Z</time>
      </trkpt>
      <trkpt lat="43.6738" lon="3.33648">
        <ele>159</ele>
        <time>2021-06-05T12:13:13Z</time>
      </trkpt>
      <trkpt lat="43.67383" lon="3.33646">
        <ele>159</ele>
        <time>2021-06-05T12:13:15Z</time>
      </trkpt>
      <trkpt lat="43.67387" lon="3.33642">
        <ele>159</ele>
        <time>2021-06-05T12:13:16Z</time>
      </trkpt>
      <trkpt lat="43.67392" lon="3.3364">
        <ele>159</ele>
        <time>2021-06-05T12:13:17Z</time>
      </trkpt>
      <trkpt lat="43.67397" lon="3.3364">
        <ele>159</ele>
        <time>2021-06-05T12:13:18Z</time>
      </trkpt>
      <trkpt lat="43.67402" lon="3.33641">
        <ele>159</ele>
        <time>2021-06-05T12:13:19Z</time>
      </trkpt>
      <trkpt lat="43.67406" lon="3.33641">
        <ele>159</ele>
        <time>2021-06-05T12:13:20Z</time>
      </trkpt>
      <trkpt lat="43.67411" lon="3.33638">
        <ele>159</ele>
        <time>2021-06-05T12:13:21Z</time>
      </trkpt>
      <trkpt lat="43.67416" lon="3.33635">
        <ele>159</ele>
        <time>2021-06-05T12:13:22Z</time>
      </trkpt>
      <trkpt lat="43.67422" lon="3.33632">
        <ele>159</ele>
        <time>2021-06-05T12:13:23Z</time>
      </trkpt>
      <trkpt lat="43.67427" lon="3.33629">
        <ele>159</ele>
        <time>2021-06-05T12:13:24Z</time>
      </trkpt>
      <trkpt lat="43.67432" lon="3.33628">
        <ele>159</ele>
        <time>2021-06-05T12:13:25Z</time>
      </trkpt>
      <trkpt lat="43.67436" lon="3.33628">
        <ele>159</ele>
        <time>2021-06-05T12:13:26Z</time>
      </trkpt>
      <trkpt lat="43.6744" lon="3.33626">
        <ele>159</ele>
        <time>2021-06-05T12:13:27Z</time>
      </trkpt>
      <trkpt lat="43.67444" lon="3.33623">
        <ele>159</ele>
        <time>2021-06-05T12:13:28Z</time>
      </trkpt>
      <trkpt lat="43.67449" lon="3.33622">
        <ele>156</ele>
        <time>2021-06-05T12:13:29Z</time>
      </trkpt>
      <trkpt lat="43.67453" lon="3.33621">
        <ele>156</ele>
        <time>2021-06-05T12:13:30Z</time>
      </trkpt>
      <trkpt lat="43.67459" lon="3.33621">
        <ele>156</ele>
        <time>2021-06-05T12:13:31Z</time>
      </trkpt>
      <trkpt lat="43.67464" lon="3.33621">
        <ele>156</ele>
        <time>2021-06-05T12:13:32Z</time>
      </trkpt>
      <trkpt lat="43.67468" lon="3.3362">
        <ele>156</ele>
        <time>2021-06-05T12:13:33Z</time>
      </trkpt>
      <trkpt lat="43.67472" lon="3.33619">
        <ele>156</ele>
        <time>2021-06-05T12:13:34Z</time>
      </trkpt>
      <trkpt lat="43.67476" lon="3.33618">
        <ele>156</ele>
        <time>2021-06-05T12:13:35Z</time>
      </trkpt>
      <trkpt lat="43.67481" lon="3.33619">
        <ele>156</ele>
        <time>2021-06-05T12:13:36Z</time>
      </trkpt>
      <trkpt lat="43.67485" lon="3.33622">
        <ele>156</ele>
        <time>2021-06-05T12:13:37Z</time>
      </trkpt>
      <trkpt lat="43.6749" lon="3.33625">
        <ele>156</ele>
        <time>2021-06-05T12:13:38Z</time>
      </trkpt>
      <trkpt lat="43.67493" lon="3.33627">
        <ele>152</ele>
        <time>2021-06-05T12:13:39Z</time>
      </trkpt>
      <trkpt lat="43.67496" lon="3.33627">
        <ele>152</ele>
        <time>2021-06-05T12:13:40Z</time>
      </trkpt>
      <trkpt lat="43.67498" lon="3.33628">
        <ele>152</ele>
        <time>2021-06-05T12:13:41Z</time>
      </trkpt>
      <trkpt lat="43.675" lon="3.3363">
        <ele>152</ele>
        <time>2021-06-05T12:13:42Z</time>
      </trkpt>
      <trkpt lat="43.67502" lon="3.33632">
        <ele>152</ele>
        <time>2021-06-05T12:13:43Z</time>
      </trkpt>
      <trkpt lat="43.67503" lon="3.33634">
        <ele>152</ele>
        <time>2021-06-05T12:13:44Z</time>
      </trkpt>
      <trkpt lat="43.67504" lon="3.33637">
        <ele>152</ele>
        <time>2021-06-05T12:13:45Z</time>
      </trkpt>
      <trkpt lat="43.67505" lon="3.3364">
        <ele>152</ele>
        <time>2021-06-05T12:13:46Z</time>
      </trkpt>
      <trkpt lat="43.67505" lon="3.33642">
        <ele>152</ele>
        <time>2021-06-05T12:13:47Z</time>
      </trkpt>
      <trkpt lat="43.67506" lon="3.33647">
        <ele>151</ele>
        <time>2021-06-05T12:13:49Z</time>
      </trkpt>
      <trkpt lat="43.67507" lon="3.3365">
        <ele>151</ele>
        <time>2021-06-05T12:13:50Z</time>
      </trkpt>
      <trkpt lat="43.67507" lon="3.33653">
        <ele>151</ele>
        <time>2021-06-05T12:13:51Z</time>
      </trkpt>
      <trkpt lat="43.67507" lon="3.33656">
        <ele>151</ele>
        <time>2021-06-05T12:13:52Z</time>
      </trkpt>
      <trkpt lat="43.67507" lon="3.33658">
        <ele>151</ele>
        <time>2021-06-05T12:13:53Z</time>
      </trkpt>
      <trkpt lat="43.67507" lon="3.33664">
        <ele>151</ele>
        <time>2021-06-05T12:13:55Z</time>
      </trkpt>
      <trkpt lat="43.67507" lon="3.33667">
        <ele>151</ele>
        <time>2021-06-05T12:13:56Z</time>
      </trkpt>
      <trkpt lat="43.67506" lon="3.3367">
        <ele>151</ele>
        <time>2021-06-05T12:13:57Z</time>
      </trkpt>
      <trkpt lat="43.67506" lon="3.33674">
        <ele>151</ele>
        <time>2021-06-05T12:13:58Z</time>
      </trkpt>
      <trkpt lat="43.67506" lon="3.33677">
        <ele>151</ele>
        <time>2021-06-05T12:13:59Z</time>
      </trkpt>
      <trkpt lat="43.67507" lon="3.33681">
        <ele>151</ele>
        <time>2021-06-05T12:14:00Z</time>
      </trkpt>
      <trkpt lat="43.67508" lon="3.33684">
        <ele>151</ele>
        <time>2021-06-05T12:14:01Z</time>
      </trkpt>
      <trkpt lat="43.67511" lon="3.33687">
        <ele>151</ele>
        <time>2021-06-05T12:14:02Z</time>
      </trkpt>
      <trkpt lat="43.67513" lon="3.3369">
        <ele>151</ele>
        <time>2021-06-05T12:14:03Z</time>
      </trkpt>
      <trkpt lat="43.67516" lon="3.33694">
        <ele>151</ele>
        <time>2021-06-05T12:14:04Z</time>
      </trkpt>
      <trkpt lat="43.67519" lon="3.33699">
        <ele>151</ele>
        <time>2021-06-05T12:14:05Z</time>
      </trkpt>
      <trkpt lat="43.67522" lon="3.33706">
        <ele>151</ele>
        <time>2021-06-05T12:14:06Z</time>
      </trkpt>
      <trkpt lat="43.67525" lon="3.33714">
        <ele>151</ele>
        <time>2021-06-05T12:14:07Z</time>
      </trkpt>
      <trkpt lat="43.67529" lon="3.3372">
        <ele>151</ele>
        <time>2021-06-05T12:14:08Z</time>
      </trkpt>
      <trkpt lat="43.67533" lon="3.33726">
        <ele>149</ele>
        <time>2021-06-05T12:14:09Z</time>
      </trkpt>
      <trkpt lat="43.67535" lon="3.3373">
        <ele>149</ele>
        <time>2021-06-05T12:14:10Z</time>
      </trkpt>
      <trkpt lat="43.67537" lon="3.33734">
        <ele>149</ele>
        <time>2021-06-05T12:14:11Z</time>
      </trkpt>
      <trkpt lat="43.67538" lon="3.33737">
        <ele>149</ele>
        <time>2021-06-05T12:14:12Z</time>
      </trkpt>
      <trkpt lat="43.67538" lon="3.3374">
        <ele>149</ele>
        <time>2021-06-05T12:14:13Z</time>
      </trkpt>
      <trkpt lat="43.67538" lon="3.33742">
        <ele>149</ele>
        <time>2021-06-05T12:14:14Z</time>
      </trkpt>
      <trkpt lat="43.67537" lon="3.33747">
        <ele>149</ele>
        <time>2021-06-05T12:14:16Z</time>
      </trkpt>
      <trkpt lat="43.67536" lon="3.33751">
        <ele>149</ele>
        <time>2021-06-05T12:14:18Z</time>
      </trkpt>
      <trkpt lat="43.67536" lon="3.33755">
        <ele>150</ele>
        <time>2021-06-05T12:14:20Z</time>
      </trkpt>
      <trkpt lat="43.67536" lon="3.33758">
        <ele>150</ele>
        <time>2021-06-05T12:14:21Z</time>
      </trkpt>
      <trkpt lat="43.67537" lon="3.33762">
        <ele>150</ele>
        <time>2021-06-05T12:14:23Z</time>
      </trkpt>
      <trkpt lat="43.67537" lon="3.33766">
        <ele>150</ele>
        <time>2021-06-05T12:14:25Z</time>
      </trkpt>
      <trkpt lat="43.67539" lon="3.3377">
        <ele>150</ele>
        <time>2021-06-05T12:14:27Z</time>
      </trkpt>
      <trkpt lat="43.6754" lon="3.33774">
        <ele>153</ele>
        <time>2021-06-05T12:14:29Z</time>
      </trkpt>
      <trkpt lat="43.67542" lon="3.33777">
        <ele>153</ele>
        <time>2021-06-05T12:14:31Z</time>
      </trkpt>
      <trkpt lat="43.67543" lon="3.33781">
        <ele>153</ele>
        <time>2021-06-05T12:14:33Z</time>
      </trkpt>
      <trkpt lat="43.67544" lon="3.33784">
        <ele>153</ele>
        <time>2021-06-05T12:14:35Z</time>
      </trkpt>
      <trkpt lat="43.67546" lon="3.33786">
        <ele>153</ele>
        <time>2021-06-05T12:14:37Z</time>
      </trkpt>
      <trkpt lat="43.67547" lon="3.33789">
        <ele>155</ele>
        <time>2021-06-05T12:14:39Z</time>
      </trkpt>
      <trkpt lat="43.67547" lon="3.33793">
        <ele>155</ele>
        <time>2021-06-05T12:14:41Z</time>
      </trkpt>
      <trkpt lat="43.67547" lon="3.33797">
        <ele>155</ele>
        <time>2021-06-05T12:14:43Z</time>
      </trkpt>
      <trkpt lat="43.67547" lon="3.33802">
        <ele>155</ele>
        <time>2021-06-05T12:14:44Z</time>
      </trkpt>
      <trkpt lat="43.67547" lon="3.33804">
        <ele>155</ele>
        <time>2021-06-05T12:14:45Z</time>
      </trkpt>
      <trkpt lat="43.67546" lon="3.33807">
        <ele>155</ele>
        <time>2021-06-05T12:14:46Z</time>
      </trkpt>
      <trkpt lat="43.67545" lon="3.3381">
        <ele>155</ele>
        <time>2021-06-05T12:14:47Z</time>
      </trkpt>
      <trkpt lat="43.67544" lon="3.33812">
        <ele>155</ele>
        <time>2021-06-05T12:14:49Z</time>
      </trkpt>
      <trkpt lat="43.67544" lon="3.33816">
        <ele>155</ele>
        <time>2021-06-05T12:14:50Z</time>
      </trkpt>
      <trkpt lat="43.67544" lon="3.33818">
        <ele>155</ele>
        <time>2021-06-05T12:14:51Z</time>
      </trkpt>
      <trkpt lat="43.67545" lon="3.33821">
        <ele>155</ele>
        <time>2021-06-05T12:14:52Z</time>
      </trkpt>
      <trkpt lat="43.67548" lon="3.33824">
        <ele>155</ele>
        <time>2021-06-05T12:14:53Z</time>
      </trkpt>
      <trkpt lat="43.6755" lon="3.33825">
        <ele>155</ele>
        <time>2021-06-05T12:14:54Z</time>
      </trkpt>
      <trkpt lat="43.67552" lon="3.33826">
        <ele>155</ele>
        <time>2021-06-05T12:14:55Z</time>
      </trkpt>
      <trkpt lat="43.67554" lon="3.33828">
        <ele>155</ele>
        <time>2021-06-05T12:14:57Z</time>
      </trkpt>
      <trkpt lat="43.67555" lon="3.33832">
        <ele>156</ele>
        <time>2021-06-05T12:14:59Z</time>
      </trkpt>
      <trkpt lat="43.67555" lon="3.33837">
        <ele>156</ele>
        <time>2021-06-05T12:15:01Z</time>
      </trkpt>
      <trkpt lat="43.67553" lon="3.33841">
        <ele>156</ele>
        <time>2021-06-05T12:15:03Z</time>
      </trkpt>
      <trkpt lat="43.67553" lon="3.33845">
        <ele>156</ele>
        <time>2021-06-05T12:15:05Z</time>
      </trkpt>
      <trkpt lat="43.67554" lon="3.33847">
        <ele>156</ele>
        <time>2021-06-05T12:15:06Z</time>
      </trkpt>
      <trkpt lat="43.67555" lon="3.3385">
        <ele>156</ele>
        <time>2021-06-05T12:15:07Z</time>
      </trkpt>
      <trkpt lat="43.67558" lon="3.33852">
        <ele>156</ele>
        <time>2021-06-05T12:15:08Z</time>
      </trkpt>
      <trkpt lat="43.67558" lon="3.33854">
        <ele>156</ele>
        <time>2021-06-05T12:15:15Z</time>
      </trkpt>
      <trkpt lat="43.67566" lon="3.33875">
        <ele>159</ele>
        <time>2021-06-05T12:15:18Z</time>
      </trkpt>
      <trkpt lat="43.67566" lon="3.3388">
        <ele>159</ele>
        <time>2021-06-05T12:15:19Z</time>
      </trkpt>
      <trkpt lat="43.67564" lon="3.33883">
        <ele>159</ele>
        <time>2021-06-05T12:15:21Z</time>
      </trkpt>
      <trkpt lat="43.67563" lon="3.33887">
        <ele>159</ele>
        <time>2021-06-05T12:15:23Z</time>
      </trkpt>
      <trkpt lat="43.67562" lon="3.33892">
        <ele>159</ele>
        <time>2021-06-05T12:15:25Z</time>
      </trkpt>
      <trkpt lat="43.67562" lon="3.33896">
        <ele>159</ele>
        <time>2021-06-05T12:15:27Z</time>
      </trkpt>
      <trkpt lat="43.67562" lon="3.33901">
        <ele>160</ele>
        <time>2021-06-05T12:15:29Z</time>
      </trkpt>
      <trkpt lat="43.67562" lon="3.33856">
        <ele>157</ele>
        <time>2021-06-05T12:15:30Z</time>
      </trkpt>
      <trkpt lat="43.67563" lon="3.33857">
        <ele>157</ele>
        <time>2021-06-05T12:15:30Z</time>
      </trkpt>
      <trkpt lat="43.67563" lon="3.33906">
        <ele>160</ele>
        <time>2021-06-05T12:15:31Z</time>
      </trkpt>
      <trkpt lat="43.67564" lon="3.33908">
        <ele>160</ele>
        <time>2021-06-05T12:15:32Z</time>
      </trkpt>
      <trkpt lat="43.67566" lon="3.33858">
        <ele>157</ele>
        <time>2021-06-05T12:15:33Z</time>
      </trkpt>
      <trkpt lat="43.67564" lon="3.33911">
        <ele>160</ele>
        <time>2021-06-05T12:15:34Z</time>
      </trkpt>
      <trkpt lat="43.67565" lon="3.33914">
        <ele>160</ele>
        <time>2021-06-05T12:15:34Z</time>
      </trkpt>
      <trkpt lat="43.67566" lon="3.33861">
        <ele>157</ele>
        <time>2021-06-05T12:15:35Z</time>
      </trkpt>
      <trkpt lat="43.67565" lon="3.33916">
        <ele>160</ele>
        <time>2021-06-05T12:15:35Z</time>
      </trkpt>
      <trkpt lat="43.67566" lon="3.33919">
        <ele>160</ele>
        <time>2021-06-05T12:15:36Z</time>
      </trkpt>
      <trkpt lat="43.67568" lon="3.33863">
        <ele>157</ele>
        <time>2021-06-05T12:15:37Z</time>
      </trkpt>
      <trkpt lat="43.67566" lon="3.33922">
        <ele>160</ele>
        <time>2021-06-05T12:15:37Z</time>
      </trkpt>
      <trkpt lat="43.67566" lon="3.33924">
        <ele>162</ele>
        <time>2021-06-05T12:15:38Z</time>
      </trkpt>
      <trkpt lat="43.67567" lon="3.33927">
        <ele>162</ele>
        <time>2021-06-05T12:15:39Z</time>
      </trkpt>
      <trkpt lat="43.67567" lon="3.3393">
        <ele>162</ele>
        <time>2021-06-05T12:15:40Z</time>
      </trkpt>
      <trkpt lat="43.67568" lon="3.33932">
        <ele>162</ele>
        <time>2021-06-05T12:15:41Z</time>
      </trkpt>
      <trkpt lat="43.67569" lon="3.33935">
        <ele>162</ele>
        <time>2021-06-05T12:15:42Z</time>
      </trkpt>
      <trkpt lat="43.6757" lon="3.33938">
        <ele>162</ele>
        <time>2021-06-05T12:15:43Z</time>
      </trkpt>
      <trkpt lat="43.67568" lon="3.33864">
        <ele>158</ele>
        <time>2021-06-05T12:15:43Z</time>
      </trkpt>
      <trkpt lat="43.6757" lon="3.33941">
        <ele>162</ele>
        <time>2021-06-05T12:15:44Z</time>
      </trkpt>
      <trkpt lat="43.6757" lon="3.33944">
        <ele>162</ele>
        <time>2021-06-05T12:15:45Z</time>
      </trkpt>
      <trkpt lat="43.67571" lon="3.33947">
        <ele>162</ele>
        <time>2021-06-05T12:15:46Z</time>
      </trkpt>
      <trkpt lat="43.67572" lon="3.33951">
        <ele>162</ele>
        <time>2021-06-05T12:15:47Z</time>
      </trkpt>
      <trkpt lat="43.67572" lon="3.33955">
        <ele>162</ele>
        <time>2021-06-05T12:15:48Z</time>
      </trkpt>
      <trkpt lat="43.67573" lon="3.33958">
        <ele>162</ele>
        <time>2021-06-05T12:15:49Z</time>
      </trkpt>
      <trkpt lat="43.67574" lon="3.33962">
        <ele>162</ele>
        <time>2021-06-05T12:15:50Z</time>
      </trkpt>
      <trkpt lat="43.67574" lon="3.33965">
        <ele>162</ele>
        <time>2021-06-05T12:15:51Z</time>
      </trkpt>
      <trkpt lat="43.67575" lon="3.33968">
        <ele>162</ele>
        <time>2021-06-05T12:15:52Z</time>
      </trkpt>
      <trkpt lat="43.67577" lon="3.33972">
        <ele>162</ele>
        <time>2021-06-05T12:15:53Z</time>
      </trkpt>
      <trkpt lat="43.67579" lon="3.33976">
        <ele>162</ele>
        <time>2021-06-05T12:15:54Z</time>
      </trkpt>
      <trkpt lat="43.67581" lon="3.33979">
        <ele>162</ele>
        <time>2021-06-05T12:15:55Z</time>
      </trkpt>
      <trkpt lat="43.67584" lon="3.33982">
        <ele>162</ele>
        <time>2021-06-05T12:15:57Z</time>
      </trkpt>
      <trkpt lat="43.67589" lon="3.33986">
        <ele>162</ele>
        <time>2021-06-05T12:15:58Z</time>
      </trkpt>
      <trkpt lat="43.67593" lon="3.33989">
        <ele>162</ele>
        <time>2021-06-05T12:15:58Z</time>
      </trkpt>
      <trkpt lat="43.67598" lon="3.33993">
        <ele>162</ele>
        <time>2021-06-05T12:15:59Z</time>
      </trkpt>
      <trkpt lat="43.67603" lon="3.33998">
        <ele>162</ele>
        <time>2021-06-05T12:16:00Z</time>
      </trkpt>
      <trkpt lat="43.67607" lon="3.34004">
        <ele>162</ele>
        <time>2021-06-05T12:16:01Z</time>
      </trkpt>
      <trkpt lat="43.67612" lon="3.3401">
        <ele>162</ele>
        <time>2021-06-05T12:16:02Z</time>
      </trkpt>
      <trkpt lat="43.67617" lon="3.34017">
        <ele>162</ele>
        <time>2021-06-05T12:16:03Z</time>
      </trkpt>
      <trkpt lat="43.67621" lon="3.34024">
        <ele>162</ele>
        <time>2021-06-05T12:16:04Z</time>
      </trkpt>
      <trkpt lat="43.67625" lon="3.3403">
        <ele>162</ele>
        <time>2021-06-05T12:16:05Z</time>
      </trkpt>
      <trkpt lat="43.67629" lon="3.34037">
        <ele>162</ele>
        <time>2021-06-05T12:16:06Z</time>
      </trkpt>
      <trkpt lat="43.67632" lon="3.34043">
        <ele>162</ele>
        <time>2021-06-05T12:16:07Z</time>
      </trkpt>
      <trkpt lat="43.67636" lon="3.34049">
        <ele>159</ele>
        <time>2021-06-05T12:16:08Z</time>
      </trkpt>
      <trkpt lat="43.67641" lon="3.34054">
        <ele>159</ele>
        <time>2021-06-05T12:16:09Z</time>
      </trkpt>
      <trkpt lat="43.67646" lon="3.34059">
        <ele>159</ele>
        <time>2021-06-05T12:16:10Z</time>
      </trkpt>
      <trkpt lat="43.6765" lon="3.34062">
        <ele>159</ele>
        <time>2021-06-05T12:16:11Z</time>
      </trkpt>
      <trkpt lat="43.67655" lon="3.34066">
        <ele>159</ele>
        <time>2021-06-05T12:16:12Z</time>
      </trkpt>
      <trkpt lat="43.67659" lon="3.34067">
        <ele>159</ele>
        <time>2021-06-05T12:16:13Z</time>
      </trkpt>
      <trkpt lat="43.67662" lon="3.34065">
        <ele>159</ele>
        <time>2021-06-05T12:16:14Z</time>
      </trkpt>
      <trkpt lat="43.67665" lon="3.34063">
        <ele>159</ele>
        <time>2021-06-05T12:16:15Z</time>
      </trkpt>
      <trkpt lat="43.6767" lon="3.34064">
        <ele>159</ele>
        <time>2021-06-05T12:16:16Z</time>
      </trkpt>
      <trkpt lat="43.67673" lon="3.34067">
        <ele>159</ele>
        <time>2021-06-05T12:16:17Z</time>
      </trkpt>
      <trkpt lat="43.67676" lon="3.34071">
        <ele>157</ele>
        <time>2021-06-05T12:16:18Z</time>
      </trkpt>
      <trkpt lat="43.67679" lon="3.34073">
        <ele>157</ele>
        <time>2021-06-05T12:16:19Z</time>
      </trkpt>
      <trkpt lat="43.67683" lon="3.34075">
        <ele>157</ele>
        <time>2021-06-05T12:16:20Z</time>
      </trkpt>
      <trkpt lat="43.67687" lon="3.34077">
        <ele>157</ele>
        <time>2021-06-05T12:16:21Z</time>
      </trkpt>
      <trkpt lat="43.67691" lon="3.34078">
        <ele>157</ele>
        <time>2021-06-05T12:16:22Z</time>
      </trkpt>
      <trkpt lat="43.67695" lon="3.3408">
        <ele>157</ele>
        <time>2021-06-05T12:16:23Z</time>
      </trkpt>
      <trkpt lat="43.67697" lon="3.34082">
        <ele>157</ele>
        <time>2021-06-05T12:16:24Z</time>
      </trkpt>
      <trkpt lat="43.67699" lon="3.34086">
        <ele>157</ele>
        <time>2021-06-05T12:16:25Z</time>
      </trkpt>
      <trkpt lat="43.67701" lon="3.34089">
        <ele>157</ele>
        <time>2021-06-05T12:16:26Z</time>
      </trkpt>
      <trkpt lat="43.67705" lon="3.34094">
        <ele>157</ele>
        <time>2021-06-05T12:16:27Z</time>
      </trkpt>
      <trkpt lat="43.67709" lon="3.34101">
        <ele>154</ele>
        <time>2021-06-05T12:16:28Z</time>
      </trkpt>
      <trkpt lat="43.67713" lon="3.34109">
        <ele>154</ele>
        <time>2021-06-05T12:16:29Z</time>
      </trkpt>
      <trkpt lat="43.67717" lon="3.34117">
        <ele>154</ele>
        <time>2021-06-05T12:16:30Z</time>
      </trkpt>
      <trkpt lat="43.67722" lon="3.34124">
        <ele>154</ele>
        <time>2021-06-05T12:16:31Z</time>
      </trkpt>
      <trkpt lat="43.67727" lon="3.34127">
        <ele>154</ele>
        <time>2021-06-05T12:16:32Z</time>
      </trkpt>
      <trkpt lat="43.67731" lon="3.34129">
        <ele>154</ele>
        <time>2021-06-05T12:16:33Z</time>
      </trkpt>
      <trkpt lat="43.67734" lon="3.34133">
        <ele>154</ele>
        <time>2021-06-05T12:16:35Z</time>
      </trkpt>
      <trkpt lat="43.67737" lon="3.34139">
        <ele>154</ele>
        <time>2021-06-05T12:16:35Z</time>
      </trkpt>
      <trkpt lat="43.67739" lon="3.34144">
        <ele>154</ele>
        <time>2021-06-05T12:16:36Z</time>
      </trkpt>
      <trkpt lat="43.67742" lon="3.34149">
        <ele>154</ele>
        <time>2021-06-05T12:16:37Z</time>
      </trkpt>
      <trkpt lat="43.67746" lon="3.34154">
        <ele>149</ele>
        <time>2021-06-05T12:16:38Z</time>
      </trkpt>
      <trkpt lat="43.6775" lon="3.34161">
        <ele>149</ele>
        <time>2021-06-05T12:16:39Z</time>
      </trkpt>
      <trkpt lat="43.67752" lon="3.34169">
        <ele>149</ele>
        <time>2021-06-05T12:16:41Z</time>
      </trkpt>
      <trkpt lat="43.67755" lon="3.34178">
        <ele>149</ele>
        <time>2021-06-05T12:16:41Z</time>
      </trkpt>
      <trkpt lat="43.67757" lon="3.34187">
        <ele>149</ele>
        <time>2021-06-05T12:16:42Z</time>
      </trkpt>
      <trkpt lat="43.6776" lon="3.34195">
        <ele>149</ele>
        <time>2021-06-05T12:16:43Z</time>
      </trkpt>
      <trkpt lat="43.67763" lon="3.34201">
        <ele>149</ele>
        <time>2021-06-05T12:16:44Z</time>
      </trkpt>
      <trkpt lat="43.67767" lon="3.34206">
        <ele>149</ele>
        <time>2021-06-05T12:16:45Z</time>
      </trkpt>
      <trkpt lat="43.67771" lon="3.34211">
        <ele>149</ele>
        <time>2021-06-05T12:16:46Z</time>
      </trkpt>
      <trkpt lat="43.67774" lon="3.34217">
        <ele>149</ele>
        <time>2021-06-05T12:16:47Z</time>
      </trkpt>
      <trkpt lat="43.67778" lon="3.34224">
        <ele>144</ele>
        <time>2021-06-05T12:16:48Z</time>
      </trkpt>
      <trkpt lat="43.67781" lon="3.34231">
        <ele>144</ele>
        <time>2021-06-05T12:16:49Z</time>
      </trkpt>
      <trkpt lat="43.67784" lon="3.34239">
        <ele>144</ele>
        <time>2021-06-05T12:16:50Z</time>
      </trkpt>
      <trkpt lat="43.67788" lon="3.34247">
        <ele>144</ele>
        <time>2021-06-05T12:16:51Z</time>
      </trkpt>
      <trkpt lat="43.6779" lon="3.34256">
        <ele>144</ele>
        <time>2021-06-05T12:16:52Z</time>
      </trkpt>
      <trkpt lat="43.67792" lon="3.34264">
        <ele>144</ele>
        <time>2021-06-05T12:16:53Z</time>
      </trkpt>
      <trkpt lat="43.67792" lon="3.34272">
        <ele>144</ele>
        <time>2021-06-05T12:16:54Z</time>
      </trkpt>
      <trkpt lat="43.67792" lon="3.34279">
        <ele>144</ele>
        <time>2021-06-05T12:16:55Z</time>
      </trkpt>
      <trkpt lat="43.67791" lon="3.34286">
        <ele>144</ele>
        <time>2021-06-05T12:16:56Z</time>
      </trkpt>
      <trkpt lat="43.67792" lon="3.34294">
        <ele>144</ele>
        <time>2021-06-05T12:16:58Z</time>
      </trkpt>
      <trkpt lat="43.67792" lon="3.34302">
        <ele>139</ele>
        <time>2021-06-05T12:16:58Z</time>
      </trkpt>
      <trkpt lat="43.67791" lon="3.34309">
        <ele>139</ele>
        <time>2021-06-05T12:16:59Z</time>
      </trkpt>
      <trkpt lat="43.67791" lon="3.34317">
        <ele>139</ele>
        <time>2021-06-05T12:17:00Z</time>
      </trkpt>
      <trkpt lat="43.67792" lon="3.34323">
        <ele>139</ele>
        <time>2021-06-05T12:17:01Z</time>
      </trkpt>
      <trkpt lat="43.67793" lon="3.3433">
        <ele>139</ele>
        <time>2021-06-05T12:17:02Z</time>
      </trkpt>
      <trkpt lat="43.67793" lon="3.34337">
        <ele>139</ele>
        <time>2021-06-05T12:17:03Z</time>
      </trkpt>
      <trkpt lat="43.67793" lon="3.34343">
        <ele>139</ele>
        <time>2021-06-05T12:17:04Z</time>
      </trkpt>
      <trkpt lat="43.67793" lon="3.34349">
        <ele>139</ele>
        <time>2021-06-05T12:17:05Z</time>
      </trkpt>
      <trkpt lat="43.67793" lon="3.34354">
        <ele>139</ele>
        <time>2021-06-05T12:17:06Z</time>
      </trkpt>
      <trkpt lat="43.67792" lon="3.34358">
        <ele>139</ele>
        <time>2021-06-05T12:17:07Z</time>
      </trkpt>
      <trkpt lat="43.67792" lon="3.34361">
        <ele>135</ele>
        <time>2021-06-05T12:17:09Z</time>
      </trkpt>
      <trkpt lat="43.67791" lon="3.34365">
        <ele>135</ele>
        <time>2021-06-05T12:17:09Z</time>
      </trkpt>
      <trkpt lat="43.6779" lon="3.34369">
        <ele>135</ele>
        <time>2021-06-05T12:17:10Z</time>
      </trkpt>
      <trkpt lat="43.6779" lon="3.34374">
        <ele>135</ele>
        <time>2021-06-05T12:17:11Z</time>
      </trkpt>
      <trkpt lat="43.67789" lon="3.34379">
        <ele>135</ele>
        <time>2021-06-05T12:17:12Z</time>
      </trkpt>
      <trkpt lat="43.67788" lon="3.34384">
        <ele>135</ele>
        <time>2021-06-05T12:17:13Z</time>
      </trkpt>
      <trkpt lat="43.67786" lon="3.34389">
        <ele>135</ele>
        <time>2021-06-05T12:17:14Z</time>
      </trkpt>
      <trkpt lat="43.67785" lon="3.34394">
        <ele>135</ele>
        <time>2021-06-05T12:17:15Z</time>
      </trkpt>
      <trkpt lat="43.67784" lon="3.34399">
        <ele>135</ele>
        <time>2021-06-05T12:17:16Z</time>
      </trkpt>
      <trkpt lat="43.67782" lon="3.34404">
        <ele>135</ele>
        <time>2021-06-05T12:17:17Z</time>
      </trkpt>
      <trkpt lat="43.67781" lon="3.3441">
        <ele>133</ele>
        <time>2021-06-05T12:17:18Z</time>
      </trkpt>
      <trkpt lat="43.6778" lon="3.34415">
        <ele>133</ele>
        <time>2021-06-05T12:17:19Z</time>
      </trkpt>
      <trkpt lat="43.67779" lon="3.34421">
        <ele>133</ele>
        <time>2021-06-05T12:17:20Z</time>
      </trkpt>
      <trkpt lat="43.67778" lon="3.34426">
        <ele>133</ele>
        <time>2021-06-05T12:17:21Z</time>
      </trkpt>
      <trkpt lat="43.67778" lon="3.34431">
        <ele>133</ele>
        <time>2021-06-05T12:17:22Z</time>
      </trkpt>
      <trkpt lat="43.67777" lon="3.34437">
        <ele>133</ele>
        <time>2021-06-05T12:17:23Z</time>
      </trkpt>
      <trkpt lat="43.67777" lon="3.34441">
        <ele>133</ele>
        <time>2021-06-05T12:17:24Z</time>
      </trkpt>
      <trkpt lat="43.67776" lon="3.34446">
        <ele>133</ele>
        <time>2021-06-05T12:17:25Z</time>
      </trkpt>
      <trkpt lat="43.67775" lon="3.34451">
        <ele>133</ele>
        <time>2021-06-05T12:17:26Z</time>
      </trkpt>
      <trkpt lat="43.67773" lon="3.34456">
        <ele>133</ele>
        <time>2021-06-05T12:17:27Z</time>
      </trkpt>
      <trkpt lat="43.67772" lon="3.34459">
        <ele>132</ele>
        <time>2021-06-05T12:17:28Z</time>
      </trkpt>
      <trkpt lat="43.6777" lon="3.34462">
        <ele>132</ele>
        <time>2021-06-05T12:17:29Z</time>
      </trkpt>
      <trkpt lat="43.67769" lon="3.34465">
        <ele>132</ele>
        <time>2021-06-05T12:17:31Z</time>
      </trkpt>
      <trkpt lat="43.67768" lon="3.34468">
        <ele>132</ele>
        <time>2021-06-05T12:17:32Z</time>
      </trkpt>
      <trkpt lat="43.67768" lon="3.34471">
        <ele>132</ele>
        <time>2021-06-05T12:17:32Z</time>
      </trkpt>
      <trkpt lat="43.67768" lon="3.34474">
        <ele>132</ele>
        <time>2021-06-05T12:17:33Z</time>
      </trkpt>
      <trkpt lat="43.67766" lon="3.34478">
        <ele>132</ele>
        <time>2021-06-05T12:17:34Z</time>
      </trkpt>
      <trkpt lat="43.67764" lon="3.3448">
        <ele>132</ele>
        <time>2021-06-05T12:17:35Z</time>
      </trkpt>
      <trkpt lat="43.67762" lon="3.34482">
        <ele>132</ele>
        <time>2021-06-05T12:17:36Z</time>
      </trkpt>
      <trkpt lat="43.67759" lon="3.34484">
        <ele>132</ele>
        <time>2021-06-05T12:17:37Z</time>
      </trkpt>
      <trkpt lat="43.67757" lon="3.34486">
        <ele>133</ele>
        <time>2021-06-05T12:17:38Z</time>
      </trkpt>
      <trkpt lat="43.67755" lon="3.34488">
        <ele>133</ele>
        <time>2021-06-05T12:17:39Z</time>
      </trkpt>
      <trkpt lat="43.67752" lon="3.34489">
        <ele>133</ele>
        <time>2021-06-05T12:17:40Z</time>
      </trkpt>
      <trkpt lat="43.67749" lon="3.3449">
        <ele>133</ele>
        <time>2021-06-05T12:17:41Z</time>
      </trkpt>
      <trkpt lat="43.67746" lon="3.34491">
        <ele>133</ele>
        <time>2021-06-05T12:17:42Z</time>
      </trkpt>
      <trkpt lat="43.67744" lon="3.34492">
        <ele>133</ele>
        <time>2021-06-05T12:17:43Z</time>
      </trkpt>
      <trkpt lat="43.67742" lon="3.34492">
        <ele>133</ele>
        <time>2021-06-05T12:17:44Z</time>
      </trkpt>
      <trkpt lat="43.67739" lon="3.34493">
        <ele>133</ele>
        <time>2021-06-05T12:17:45Z</time>
      </trkpt>
      <trkpt lat="43.67737" lon="3.34495">
        <ele>133</ele>
        <time>2021-06-05T12:17:46Z</time>
      </trkpt>
      <trkpt lat="43.67735" lon="3.34497">
        <ele>133</ele>
        <time>2021-06-05T12:17:47Z</time>
      </trkpt>
      <trkpt lat="43.67733" lon="3.34499">
        <ele>133</ele>
        <time>2021-06-05T12:17:48Z</time>
      </trkpt>
      <trkpt lat="43.6773" lon="3.345">
        <ele>133</ele>
        <time>2021-06-05T12:17:49Z</time>
      </trkpt>
      <trkpt lat="43.67728" lon="3.34501">
        <ele>133</ele>
        <time>2021-06-05T12:17:50Z</time>
      </trkpt>
      <trkpt lat="43.67725" lon="3.34501">
        <ele>133</ele>
        <time>2021-06-05T12:17:51Z</time>
      </trkpt>
      <trkpt lat="43.67723" lon="3.34502">
        <ele>133</ele>
        <time>2021-06-05T12:17:52Z</time>
      </trkpt>
      <trkpt lat="43.6772" lon="3.34503">
        <ele>133</ele>
        <time>2021-06-05T12:17:53Z</time>
      </trkpt>
      <trkpt lat="43.67717" lon="3.34504">
        <ele>133</ele>
        <time>2021-06-05T12:17:54Z</time>
      </trkpt>
      <trkpt lat="43.67715" lon="3.34505">
        <ele>133</ele>
        <time>2021-06-05T12:17:55Z</time>
      </trkpt>
      <trkpt lat="43.67713" lon="3.34507">
        <ele>133</ele>
        <time>2021-06-05T12:17:56Z</time>
      </trkpt>
      <trkpt lat="43.67711" lon="3.34508">
        <ele>133</ele>
        <time>2021-06-05T12:17:57Z</time>
      </trkpt>
      <trkpt lat="43.67709" lon="3.3451">
        <ele>134</ele>
        <time>2021-06-05T12:17:58Z</time>
      </trkpt>
      <trkpt lat="43.67707" lon="3.34511">
        <ele>134</ele>
        <time>2021-06-05T12:17:59Z</time>
      </trkpt>
      <trkpt lat="43.67706" lon="3.34513">
        <ele>134</ele>
        <time>2021-06-05T12:18:00Z</time>
      </trkpt>
      <trkpt lat="43.67703" lon="3.34515">
        <ele>134</ele>
        <time>2021-06-05T12:18:01Z</time>
      </trkpt>
      <trkpt lat="43.67702" lon="3.34516">
        <ele>134</ele>
        <time>2021-06-05T12:18:02Z</time>
      </trkpt>
      <trkpt lat="43.67699" lon="3.34516">
        <ele>134</ele>
        <time>2021-06-05T12:18:03Z</time>
      </trkpt>
      <trkpt lat="43.67696" lon="3.34517">
        <ele>134</ele>
        <time>2021-06-05T12:18:05Z</time>
      </trkpt>
      <trkpt lat="43.67694" lon="3.34518">
        <ele>134</ele>
        <time>2021-06-05T12:18:06Z</time>
      </trkpt>
      <trkpt lat="43.67692" lon="3.34519">
        <ele>134</ele>
        <time>2021-06-05T12:18:07Z</time>
      </trkpt>
      <trkpt lat="43.6769" lon="3.3452">
        <ele>134</ele>
        <time>2021-06-05T12:18:08Z</time>
      </trkpt>
      <trkpt lat="43.67689" lon="3.34521">
        <ele>134</ele>
        <time>2021-06-05T12:18:09Z</time>
      </trkpt>
      <trkpt lat="43.67687" lon="3.34523">
        <ele>134</ele>
        <time>2021-06-05T12:18:10Z</time>
      </trkpt>
      <trkpt lat="43.67686" lon="3.34526">
        <ele>134</ele>
        <time>2021-06-05T12:18:11Z</time>
      </trkpt>
      <trkpt lat="43.67683" lon="3.34529">
        <ele>134</ele>
        <time>2021-06-05T12:18:12Z</time>
      </trkpt>
      <trkpt lat="43.67681" lon="3.34531">
        <ele>134</ele>
        <time>2021-06-05T12:18:13Z</time>
      </trkpt>
      <trkpt lat="43.67679" lon="3.34534">
        <ele>134</ele>
        <time>2021-06-05T12:18:14Z</time>
      </trkpt>
      <trkpt lat="43.67677" lon="3.34536">
        <ele>134</ele>
        <time>2021-06-05T12:18:15Z</time>
      </trkpt>
      <trkpt lat="43.67676" lon="3.34539">
        <ele>134</ele>
        <time>2021-06-05T12:18:16Z</time>
      </trkpt>
      <trkpt lat="43.67675" lon="3.34542">
        <ele>134</ele>
        <time>2021-06-05T12:18:17Z</time>
      </trkpt>
      <trkpt lat="43.67673" lon="3.34545">
        <ele>134</ele>
        <time>2021-06-05T12:18:18Z</time>
      </trkpt>
      <trkpt lat="43.67672" lon="3.34548">
        <ele>134</ele>
        <time>2021-06-05T12:18:19Z</time>
      </trkpt>
      <trkpt lat="43.6767" lon="3.3455">
        <ele>134</ele>
        <time>2021-06-05T12:18:20Z</time>
      </trkpt>
      <trkpt lat="43.67668" lon="3.34552">
        <ele>134</ele>
        <time>2021-06-05T12:18:22Z</time>
      </trkpt>
      <trkpt lat="43.67665" lon="3.34553">
        <ele>134</ele>
        <time>2021-06-05T12:18:22Z</time>
      </trkpt>
      <trkpt lat="43.67663" lon="3.34554">
        <ele>134</ele>
        <time>2021-06-05T12:18:23Z</time>
      </trkpt>
      <trkpt lat="43.67661" lon="3.34555">
        <ele>134</ele>
        <time>2021-06-05T12:18:24Z</time>
      </trkpt>
      <trkpt lat="43.67658" lon="3.34556">
        <ele>134</ele>
        <time>2021-06-05T12:18:25Z</time>
      </trkpt>
      <trkpt lat="43.67656" lon="3.34557">
        <ele>134</ele>
        <time>2021-06-05T12:18:26Z</time>
      </trkpt>
      <trkpt lat="43.67654" lon="3.34559">
        <ele>134</ele>
        <time>2021-06-05T12:18:27Z</time>
      </trkpt>
      <trkpt lat="43.67651" lon="3.34561">
        <ele>135</ele>
        <time>2021-06-05T12:18:28Z</time>
      </trkpt>
      <trkpt lat="43.67649" lon="3.34564">
        <ele>135</ele>
        <time>2021-06-05T12:18:29Z</time>
      </trkpt>
      <trkpt lat="43.67648" lon="3.34568">
        <ele>135</ele>
        <time>2021-06-05T12:18:30Z</time>
      </trkpt>
      <trkpt lat="43.67646" lon="3.34572">
        <ele>135</ele>
        <time>2021-06-05T12:18:31Z</time>
      </trkpt>
      <trkpt lat="43.67645" lon="3.34576">
        <ele>135</ele>
        <time>2021-06-05T12:18:32Z</time>
      </trkpt>
      <trkpt lat="43.67644" lon="3.34579">
        <ele>135</ele>
        <time>2021-06-05T12:18:33Z</time>
      </trkpt>
      <trkpt lat="43.67642" lon="3.34582">
        <ele>135</ele>
        <time>2021-06-05T12:18:34Z</time>
      </trkpt>
      <trkpt lat="43.6764" lon="3.34584">
        <ele>135</ele>
        <time>2021-06-05T12:18:35Z</time>
      </trkpt>
      <trkpt lat="43.67639" lon="3.34587">
        <ele>135</ele>
        <time>2021-06-05T12:18:36Z</time>
      </trkpt>
      <trkpt lat="43.67638" lon="3.34589">
        <ele>135</ele>
        <time>2021-06-05T12:18:37Z</time>
      </trkpt>
      <trkpt lat="43.67636" lon="3.3459">
        <ele>137</ele>
        <time>2021-06-05T12:18:38Z</time>
      </trkpt>
      <trkpt lat="43.67634" lon="3.3459">
        <ele>137</ele>
        <time>2021-06-05T12:18:39Z</time>
      </trkpt>
      <trkpt lat="43.67631" lon="3.34589">
        <ele>137</ele>
        <time>2021-06-05T12:18:40Z</time>
      </trkpt>
      <trkpt lat="43.67629" lon="3.34589">
        <ele>137</ele>
        <time>2021-06-05T12:18:41Z</time>
      </trkpt>
      <trkpt lat="43.67627" lon="3.34588">
        <ele>137</ele>
        <time>2021-06-05T12:18:42Z</time>
      </trkpt>
      <trkpt lat="43.67624" lon="3.34588">
        <ele>137</ele>
        <time>2021-06-05T12:18:43Z</time>
      </trkpt>
      <trkpt lat="43.67622" lon="3.34589">
        <ele>137</ele>
        <time>2021-06-05T12:18:44Z</time>
      </trkpt>
      <trkpt lat="43.6762" lon="3.3459">
        <ele>137</ele>
        <time>2021-06-05T12:18:45Z</time>
      </trkpt>
      <trkpt lat="43.67618" lon="3.34591">
        <ele>137</ele>
        <time>2021-06-05T12:18:46Z</time>
      </trkpt>
      <trkpt lat="43.67615" lon="3.34592">
        <ele>137</ele>
        <time>2021-06-05T12:18:47Z</time>
      </trkpt>
      <trkpt lat="43.67614" lon="3.34594">
        <ele>137</ele>
        <time>2021-06-05T12:18:48Z</time>
      </trkpt>
      <trkpt lat="43.67612" lon="3.34595">
        <ele>137</ele>
        <time>2021-06-05T12:18:49Z</time>
      </trkpt>
      <trkpt lat="43.6761" lon="3.34598">
        <ele>137</ele>
        <time>2021-06-05T12:18:50Z</time>
      </trkpt>
      <trkpt lat="43.67608" lon="3.34599">
        <ele>137</ele>
        <time>2021-06-05T12:18:51Z</time>
      </trkpt>
      <trkpt lat="43.67606" lon="3.34601">
        <ele>137</ele>
        <time>2021-06-05T12:18:52Z</time>
      </trkpt>
      <trkpt lat="43.67605" lon="3.34603">
        <ele>137</ele>
        <time>2021-06-05T12:18:53Z</time>
      </trkpt>
      <trkpt lat="43.67603" lon="3.34605">
        <ele>137</ele>
        <time>2021-06-05T12:18:54Z</time>
      </trkpt>
      <trkpt lat="43.67602" lon="3.34607">
        <ele>137</ele>
        <time>2021-06-05T12:18:55Z</time>
      </trkpt>
      <trkpt lat="43.676" lon="3.34609">
        <ele>137</ele>
        <time>2021-06-05T12:18:56Z</time>
      </trkpt>
      <trkpt lat="43.67598" lon="3.3461">
        <ele>137</ele>
        <time>2021-06-05T12:18:57Z</time>
      </trkpt>
      <trkpt lat="43.67596" lon="3.34611">
        <ele>139</ele>
        <time>2021-06-05T12:18:58Z</time>
      </trkpt>
      <trkpt lat="43.67593" lon="3.34612">
        <ele>139</ele>
        <time>2021-06-05T12:18:59Z</time>
      </trkpt>
      <trkpt lat="43.67591" lon="3.34614">
        <ele>139</ele>
        <time>2021-06-05T12:19:00Z</time>
      </trkpt>
      <trkpt lat="43.67589" lon="3.34616">
        <ele>139</ele>
        <time>2021-06-05T12:19:02Z</time>
      </trkpt>
      <trkpt lat="43.67587" lon="3.34617">
        <ele>139</ele>
        <time>2021-06-05T12:19:02Z</time>
      </trkpt>
      <trkpt lat="43.67586" lon="3.34619">
        <ele>139</ele>
        <time>2021-06-05T12:19:03Z</time>
      </trkpt>
      <trkpt lat="43.67584" lon="3.34621">
        <ele>139</ele>
        <time>2021-06-05T12:19:04Z</time>
      </trkpt>
      <trkpt lat="43.67582" lon="3.34623">
        <ele>139</ele>
        <time>2021-06-05T12:19:05Z</time>
      </trkpt>
      <trkpt lat="43.6758" lon="3.34624">
        <ele>139</ele>
        <time>2021-06-05T12:19:06Z</time>
      </trkpt>
      <trkpt lat="43.67577" lon="3.34626">
        <ele>139</ele>
        <time>2021-06-05T12:19:07Z</time>
      </trkpt>
      <trkpt lat="43.67575" lon="3.34628">
        <ele>140</ele>
        <time>2021-06-05T12:19:08Z</time>
      </trkpt>
      <trkpt lat="43.67574" lon="3.3463">
        <ele>140</ele>
        <time>2021-06-05T12:19:09Z</time>
      </trkpt>
      <trkpt lat="43.67571" lon="3.34632">
        <ele>140</ele>
        <time>2021-06-05T12:19:10Z</time>
      </trkpt>
      <trkpt lat="43.6757" lon="3.34635">
        <ele>140</ele>
        <time>2021-06-05T12:19:11Z</time>
      </trkpt>
      <trkpt lat="43.67568" lon="3.34637">
        <ele>140</ele>
        <time>2021-06-05T12:19:12Z</time>
      </trkpt>
      <trkpt lat="43.67566" lon="3.34639">
        <ele>140</ele>
        <time>2021-06-05T12:19:13Z</time>
      </trkpt>
      <trkpt lat="43.67565" lon="3.34642">
        <ele>140</ele>
        <time>2021-06-05T12:19:14Z</time>
      </trkpt>
      <trkpt lat="43.67564" lon="3.34645">
        <ele>140</ele>
        <time>2021-06-05T12:19:15Z</time>
      </trkpt>
      <trkpt lat="43.67561" lon="3.34648">
        <ele>140</ele>
        <time>2021-06-05T12:19:16Z</time>
      </trkpt>
      <trkpt lat="43.6756" lon="3.34651">
        <ele>140</ele>
        <time>2021-06-05T12:19:17Z</time>
      </trkpt>
      <trkpt lat="43.67558" lon="3.34655">
        <ele>141</ele>
        <time>2021-06-05T12:19:18Z</time>
      </trkpt>
      <trkpt lat="43.67557" lon="3.34659">
        <ele>141</ele>
        <time>2021-06-05T12:19:19Z</time>
      </trkpt>
      <trkpt lat="43.67556" lon="3.34663">
        <ele>141</ele>
        <time>2021-06-05T12:19:20Z</time>
      </trkpt>
      <trkpt lat="43.67554" lon="3.34667">
        <ele>141</ele>
        <time>2021-06-05T12:19:21Z</time>
      </trkpt>
      <trkpt lat="43.67553" lon="3.3467">
        <ele>141</ele>
        <time>2021-06-05T12:19:22Z</time>
      </trkpt>
      <trkpt lat="43.67552" lon="3.34674">
        <ele>141</ele>
        <time>2021-06-05T12:19:23Z</time>
      </trkpt>
      <trkpt lat="43.67551" lon="3.34677">
        <ele>141</ele>
        <time>2021-06-05T12:19:24Z</time>
      </trkpt>
      <trkpt lat="43.6755" lon="3.34681">
        <ele>141</ele>
        <time>2021-06-05T12:19:25Z</time>
      </trkpt>
      <trkpt lat="43.67548" lon="3.34685">
        <ele>141</ele>
        <time>2021-06-05T12:19:26Z</time>
      </trkpt>
      <trkpt lat="43.67546" lon="3.3469">
        <ele>141</ele>
        <time>2021-06-05T12:19:27Z</time>
      </trkpt>
      <trkpt lat="43.67544" lon="3.34694">
        <ele>141</ele>
        <time>2021-06-05T12:19:28Z</time>
      </trkpt>
      <trkpt lat="43.67541" lon="3.34698">
        <ele>141</ele>
        <time>2021-06-05T12:19:29Z</time>
      </trkpt>
      <trkpt lat="43.67537" lon="3.34702">
        <ele>141</ele>
        <time>2021-06-05T12:19:30Z</time>
      </trkpt>
      <trkpt lat="43.67534" lon="3.34706">
        <ele>141</ele>
        <time>2021-06-05T12:19:31Z</time>
      </trkpt>
      <trkpt lat="43.67531" lon="3.34709">
        <ele>141</ele>
        <time>2021-06-05T12:19:32Z</time>
      </trkpt>
      <trkpt lat="43.67529" lon="3.34713">
        <ele>141</ele>
        <time>2021-06-05T12:19:33Z</time>
      </trkpt>
      <trkpt lat="43.67527" lon="3.34717">
        <ele>141</ele>
        <time>2021-06-05T12:19:34Z</time>
      </trkpt>
      <trkpt lat="43.67525" lon="3.34719">
        <ele>141</ele>
        <time>2021-06-05T12:19:35Z</time>
      </trkpt>
      <trkpt lat="43.67523" lon="3.34722">
        <ele>141</ele>
        <time>2021-06-05T12:19:36Z</time>
      </trkpt>
      <trkpt lat="43.67521" lon="3.34725">
        <ele>141</ele>
        <time>2021-06-05T12:19:37Z</time>
      </trkpt>
      <trkpt lat="43.67519" lon="3.34726">
        <ele>142</ele>
        <time>2021-06-05T12:19:38Z</time>
      </trkpt>
      <trkpt lat="43.67518" lon="3.34729">
        <ele>142</ele>
        <time>2021-06-05T12:19:39Z</time>
      </trkpt>
      <trkpt lat="43.67518" lon="3.34731">
        <ele>142</ele>
        <time>2021-06-05T12:19:40Z</time>
      </trkpt>
      <trkpt lat="43.67517" lon="3.34734">
        <ele>142</ele>
        <time>2021-06-05T12:19:42Z</time>
      </trkpt>
      <trkpt lat="43.67517" lon="3.34736">
        <ele>142</ele>
        <time>2021-06-05T12:19:42Z</time>
      </trkpt>
      <trkpt lat="43.67517" lon="3.34739">
        <ele>142</ele>
        <time>2021-06-05T12:19:43Z</time>
      </trkpt>
      <trkpt lat="43.67517" lon="3.34742">
        <ele>142</ele>
        <time>2021-06-05T12:19:44Z</time>
      </trkpt>
      <trkpt lat="43.67517" lon="3.34746">
        <ele>142</ele>
        <time>2021-06-05T12:19:45Z</time>
      </trkpt>
      <trkpt lat="43.67518" lon="3.3475">
        <ele>142</ele>
        <time>2021-06-05T12:19:46Z</time>
      </trkpt>
      <trkpt lat="43.67517" lon="3.34755">
        <ele>142</ele>
        <time>2021-06-05T12:19:47Z</time>
      </trkpt>
      <trkpt lat="43.67517" lon="3.34761">
        <ele>142</ele>
        <time>2021-06-05T12:19:48Z</time>
      </trkpt>
      <trkpt lat="43.67516" lon="3.34767">
        <ele>142</ele>
        <time>2021-06-05T12:19:49Z</time>
      </trkpt>
      <trkpt lat="43.67515" lon="3.34773">
        <ele>142</ele>
        <time>2021-06-05T12:19:50Z</time>
      </trkpt>
      <trkpt lat="43.67515" lon="3.3478">
        <ele>142</ele>
        <time>2021-06-05T12:19:51Z</time>
      </trkpt>
      <trkpt lat="43.67514" lon="3.34787">
        <ele>142</ele>
        <time>2021-06-05T12:19:52Z</time>
      </trkpt>
      <trkpt lat="43.67513" lon="3.34795">
        <ele>142</ele>
        <time>2021-06-05T12:19:53Z</time>
      </trkpt>
      <trkpt lat="43.67513" lon="3.34804">
        <ele>142</ele>
        <time>2021-06-05T12:19:54Z</time>
      </trkpt>
      <trkpt lat="43.67513" lon="3.34813">
        <ele>142</ele>
        <time>2021-06-05T12:19:55Z</time>
      </trkpt>
      <trkpt lat="43.67514" lon="3.3482">
        <ele>142</ele>
        <time>2021-06-05T12:19:56Z</time>
      </trkpt>
      <trkpt lat="43.67515" lon="3.34826">
        <ele>142</ele>
        <time>2021-06-05T12:19:57Z</time>
      </trkpt>
      <trkpt lat="43.67515" lon="3.34832">
        <ele>141</ele>
        <time>2021-06-05T12:19:58Z</time>
      </trkpt>
      <trkpt lat="43.67515" lon="3.34838">
        <ele>141</ele>
        <time>2021-06-05T12:19:59Z</time>
      </trkpt>
      <trkpt lat="43.67515" lon="3.34843">
        <ele>141</ele>
        <time>2021-06-05T12:20:00Z</time>
      </trkpt>
      <trkpt lat="43.67515" lon="3.34849">
        <ele>141</ele>
        <time>2021-06-05T12:20:01Z</time>
      </trkpt>
      <trkpt lat="43.67513" lon="3.34854">
        <ele>141</ele>
        <time>2021-06-05T12:20:02Z</time>
      </trkpt>
      <trkpt lat="43.67511" lon="3.3486">
        <ele>141</ele>
        <time>2021-06-05T12:20:03Z</time>
      </trkpt>
      <trkpt lat="43.67509" lon="3.34865">
        <ele>141</ele>
        <time>2021-06-05T12:20:04Z</time>
      </trkpt>
      <trkpt lat="43.67506" lon="3.34869">
        <ele>141</ele>
        <time>2021-06-05T12:20:05Z</time>
      </trkpt>
      <trkpt lat="43.67503" lon="3.34874">
        <ele>141</ele>
        <time>2021-06-05T12:20:06Z</time>
      </trkpt>
      <trkpt lat="43.675" lon="3.34878">
        <ele>141</ele>
        <time>2021-06-05T12:20:07Z</time>
      </trkpt>
      <trkpt lat="43.67498" lon="3.34882">
        <ele>141</ele>
        <time>2021-06-05T12:20:08Z</time>
      </trkpt>
      <trkpt lat="43.67495" lon="3.34885">
        <ele>141</ele>
        <time>2021-06-05T12:20:09Z</time>
      </trkpt>
      <trkpt lat="43.67493" lon="3.34888">
        <ele>141</ele>
        <time>2021-06-05T12:20:10Z</time>
      </trkpt>
      <trkpt lat="43.6749" lon="3.3489">
        <ele>141</ele>
        <time>2021-06-05T12:20:11Z</time>
      </trkpt>
      <trkpt lat="43.67487" lon="3.34892">
        <ele>141</ele>
        <time>2021-06-05T12:20:12Z</time>
      </trkpt>
      <trkpt lat="43.67485" lon="3.34893">
        <ele>141</ele>
        <time>2021-06-05T12:20:13Z</time>
      </trkpt>
      <trkpt lat="43.67482" lon="3.34894">
        <ele>141</ele>
        <time>2021-06-05T12:20:14Z</time>
      </trkpt>
      <trkpt lat="43.6748" lon="3.34895">
        <ele>141</ele>
        <time>2021-06-05T12:20:15Z</time>
      </trkpt>
      <trkpt lat="43.67477" lon="3.34896">
        <ele>141</ele>
        <time>2021-06-05T12:20:16Z</time>
      </trkpt>
      <trkpt lat="43.67475" lon="3.34898">
        <ele>141</ele>
        <time>2021-06-05T12:20:17Z</time>
      </trkpt>
      <trkpt lat="43.67473" lon="3.349">
        <ele>143</ele>
        <time>2021-06-05T12:20:18Z</time>
      </trkpt>
      <trkpt lat="43.67471" lon="3.34902">
        <ele>143</ele>
        <time>2021-06-05T12:20:19Z</time>
      </trkpt>
      <trkpt lat="43.67469" lon="3.34903">
        <ele>143</ele>
        <time>2021-06-05T12:20:20Z</time>
      </trkpt>
      <trkpt lat="43.67468" lon="3.34905">
        <ele>143</ele>
        <time>2021-06-05T12:20:21Z</time>
      </trkpt>
      <trkpt lat="43.67466" lon="3.34907">
        <ele>143</ele>
        <time>2021-06-05T12:20:22Z</time>
      </trkpt>
      <trkpt lat="43.67464" lon="3.34909">
        <ele>143</ele>
        <time>2021-06-05T12:20:23Z</time>
      </trkpt>
      <trkpt lat="43.67461" lon="3.34911">
        <ele>143</ele>
        <time>2021-06-05T12:20:24Z</time>
      </trkpt>
      <trkpt lat="43.6746" lon="3.34913">
        <ele>143</ele>
        <time>2021-06-05T12:20:25Z</time>
      </trkpt>
      <trkpt lat="43.67458" lon="3.34915">
        <ele>143</ele>
        <time>2021-06-05T12:20:27Z</time>
      </trkpt>
      <trkpt lat="43.67457" lon="3.34917">
        <ele>143</ele>
        <time>2021-06-05T12:20:27Z</time>
      </trkpt>
      <trkpt lat="43.67455" lon="3.34919">
        <ele>144</ele>
        <time>2021-06-05T12:20:28Z</time>
      </trkpt>
      <trkpt lat="43.67454" lon="3.34921">
        <ele>144</ele>
        <time>2021-06-05T12:20:29Z</time>
      </trkpt>
      <trkpt lat="43.67453" lon="3.34923">
        <ele>144</ele>
        <time>2021-06-05T12:20:30Z</time>
      </trkpt>
      <trkpt lat="43.67452" lon="3.34926">
        <ele>144</ele>
        <time>2021-06-05T12:20:31Z</time>
      </trkpt>
      <trkpt lat="43.67452" lon="3.34929">
        <ele>144</ele>
        <time>2021-06-05T12:20:32Z</time>
      </trkpt>
      <trkpt lat="43.67451" lon="3.34932">
        <ele>144</ele>
        <time>2021-06-05T12:20:33Z</time>
      </trkpt>
      <trkpt lat="43.67451" lon="3.34936">
        <ele>144</ele>
        <time>2021-06-05T12:20:34Z</time>
      </trkpt>
      <trkpt lat="43.6745" lon="3.3494">
        <ele>144</ele>
        <time>2021-06-05T12:20:35Z</time>
      </trkpt>
      <trkpt lat="43.67449" lon="3.34942">
        <ele>144</ele>
        <time>2021-06-05T12:20:36Z</time>
      </trkpt>
      <trkpt lat="43.6745" lon="3.34945">
        <ele>145</ele>
        <time>2021-06-05T12:21:47Z</time>
      </trkpt>
      <trkpt lat="43.6745" lon="3.34949">
        <ele>145</ele>
        <time>2021-06-05T12:21:48Z</time>
      </trkpt>
      <trkpt lat="43.67451" lon="3.34953">
        <ele>145</ele>
        <time>2021-06-05T12:21:49Z</time>
      </trkpt>
      <trkpt lat="43.67451" lon="3.34957">
        <ele>145</ele>
        <time>2021-06-05T12:21:50Z</time>
      </trkpt>
      <trkpt lat="43.67451" lon="3.34961">
        <ele>145</ele>
        <time>2021-06-05T12:21:51Z</time>
      </trkpt>
      <trkpt lat="43.6745" lon="3.34966">
        <ele>145</ele>
        <time>2021-06-05T12:21:52Z</time>
      </trkpt>
      <trkpt lat="43.67449" lon="3.34972">
        <ele>145</ele>
        <time>2021-06-05T12:21:53Z</time>
      </trkpt>
      <trkpt lat="43.67448" lon="3.34978">
        <ele>144</ele>
        <time>2021-06-05T12:21:54Z</time>
      </trkpt>
      <trkpt lat="43.67447" lon="3.34984">
        <ele>144</ele>
        <time>2021-06-05T12:21:55Z</time>
      </trkpt>
      <trkpt lat="43.67446" lon="3.34991">
        <ele>144</ele>
        <time>2021-06-05T12:21:56Z</time>
      </trkpt>
      <trkpt lat="43.67446" lon="3.34997">
        <ele>144</ele>
        <time>2021-06-05T12:21:57Z</time>
      </trkpt>
      <trkpt lat="43.67446" lon="3.35003">
        <ele>144</ele>
        <time>2021-06-05T12:21:58Z</time>
      </trkpt>
      <trkpt lat="43.67447" lon="3.35009">
        <ele>144</ele>
        <time>2021-06-05T12:21:59Z</time>
      </trkpt>
      <trkpt lat="43.67448" lon="3.35014">
        <ele>144</ele>
        <time>2021-06-05T12:22:00Z</time>
      </trkpt>
      <trkpt lat="43.67449" lon="3.3502">
        <ele>144</ele>
        <time>2021-06-05T12:22:01Z</time>
      </trkpt>
      <trkpt lat="43.67449" lon="3.35025">
        <ele>144</ele>
        <time>2021-06-05T12:22:02Z</time>
      </trkpt>
      <trkpt lat="43.67449" lon="3.35031">
        <ele>144</ele>
        <time>2021-06-05T12:22:03Z</time>
      </trkpt>
      <trkpt lat="43.6745" lon="3.35037">
        <ele>143</ele>
        <time>2021-06-05T12:22:04Z</time>
      </trkpt>
      <trkpt lat="43.6745" lon="3.35043">
        <ele>143</ele>
        <time>2021-06-05T12:22:05Z</time>
      </trkpt>
      <trkpt lat="43.67449" lon="3.3505">
        <ele>143</ele>
        <time>2021-06-05T12:22:06Z</time>
      </trkpt>
      <trkpt lat="43.67449" lon="3.35057">
        <ele>143</ele>
        <time>2021-06-05T12:22:07Z</time>
      </trkpt>
      <trkpt lat="43.67447" lon="3.35065">
        <ele>143</ele>
        <time>2021-06-05T12:22:08Z</time>
      </trkpt>
      <trkpt lat="43.67446" lon="3.35073">
        <ele>143</ele>
        <time>2021-06-05T12:22:09Z</time>
      </trkpt>
      <trkpt lat="43.67446" lon="3.35082">
        <ele>143</ele>
        <time>2021-06-05T12:22:10Z</time>
      </trkpt>
      <trkpt lat="43.67445" lon="3.35091">
        <ele>143</ele>
        <time>2021-06-05T12:22:11Z</time>
      </trkpt>
      <trkpt lat="43.67443" lon="3.35099">
        <ele>143</ele>
        <time>2021-06-05T12:22:12Z</time>
      </trkpt>
      <trkpt lat="43.67441" lon="3.35108">
        <ele>143</ele>
        <time>2021-06-05T12:22:13Z</time>
      </trkpt>
      <trkpt lat="43.67439" lon="3.35116">
        <ele>142</ele>
        <time>2021-06-05T12:22:14Z</time>
      </trkpt>
      <trkpt lat="43.67436" lon="3.35123">
        <ele>142</ele>
        <time>2021-06-05T12:22:15Z</time>
      </trkpt>
      <trkpt lat="43.67433" lon="3.3513">
        <ele>142</ele>
        <time>2021-06-05T12:22:16Z</time>
      </trkpt>
      <trkpt lat="43.67429" lon="3.35136">
        <ele>142</ele>
        <time>2021-06-05T12:22:17Z</time>
      </trkpt>
      <trkpt lat="43.67424" lon="3.35141">
        <ele>142</ele>
        <time>2021-06-05T12:22:18Z</time>
      </trkpt>
      <trkpt lat="43.67418" lon="3.35147">
        <ele>142</ele>
        <time>2021-06-05T12:22:19Z</time>
      </trkpt>
      <trkpt lat="43.67414" lon="3.35153">
        <ele>142</ele>
        <time>2021-06-05T12:22:20Z</time>
      </trkpt>
      <trkpt lat="43.67409" lon="3.3516">
        <ele>142</ele>
        <time>2021-06-05T12:22:21Z</time>
      </trkpt>
      <trkpt lat="43.67406" lon="3.35169">
        <ele>142</ele>
        <time>2021-06-05T12:22:22Z</time>
      </trkpt>
      <trkpt lat="43.67403" lon="3.35178">
        <ele>142</ele>
        <time>2021-06-05T12:22:23Z</time>
      </trkpt>
      <trkpt lat="43.67401" lon="3.35186">
        <ele>141</ele>
        <time>2021-06-05T12:22:24Z</time>
      </trkpt>
      <trkpt lat="43.67399" lon="3.35195">
        <ele>141</ele>
        <time>2021-06-05T12:22:25Z</time>
      </trkpt>
      <trkpt lat="43.67397" lon="3.35203">
        <ele>141</ele>
        <time>2021-06-05T12:22:26Z</time>
      </trkpt>
      <trkpt lat="43.67393" lon="3.35208">
        <ele>141</ele>
        <time>2021-06-05T12:22:27Z</time>
      </trkpt>
      <trkpt lat="43.67389" lon="3.35212">
        <ele>141</ele>
        <time>2021-06-05T12:22:28Z</time>
      </trkpt>
      <trkpt lat="43.67385" lon="3.35216">
        <ele>141</ele>
        <time>2021-06-05T12:22:29Z</time>
      </trkpt>
      <trkpt lat="43.67381" lon="3.35219">
        <ele>141</ele>
        <time>2021-06-05T12:22:30Z</time>
      </trkpt>
      <trkpt lat="43.67377" lon="3.35223">
        <ele>141</ele>
        <time>2021-06-05T12:22:31Z</time>
      </trkpt>
      <trkpt lat="43.67374" lon="3.35227">
        <ele>141</ele>
        <time>2021-06-05T12:22:32Z</time>
      </trkpt>
      <trkpt lat="43.6737" lon="3.35231">
        <ele>141</ele>
        <time>2021-06-05T12:22:33Z</time>
      </trkpt>
      <trkpt lat="43.67366" lon="3.35235">
        <ele>141</ele>
        <time>2021-06-05T12:22:34Z</time>
      </trkpt>
      <trkpt lat="43.67362" lon="3.35239">
        <ele>141</ele>
        <time>2021-06-05T12:22:35Z</time>
      </trkpt>
      <trkpt lat="43.67358" lon="3.35243">
        <ele>141</ele>
        <time>2021-06-05T12:22:36Z</time>
      </trkpt>
      <trkpt lat="43.67354" lon="3.35247">
        <ele>141</ele>
        <time>2021-06-05T12:22:37Z</time>
      </trkpt>
      <trkpt lat="43.67349" lon="3.35252">
        <ele>141</ele>
        <time>2021-06-05T12:22:38Z</time>
      </trkpt>
      <trkpt lat="43.67345" lon="3.35256">
        <ele>141</ele>
        <time>2021-06-05T12:22:39Z</time>
      </trkpt>
      <trkpt lat="43.6734" lon="3.3526">
        <ele>141</ele>
        <time>2021-06-05T12:22:40Z</time>
      </trkpt>
      <trkpt lat="43.67336" lon="3.35263">
        <ele>141</ele>
        <time>2021-06-05T12:22:41Z</time>
      </trkpt>
      <trkpt lat="43.67332" lon="3.35266">
        <ele>141</ele>
        <time>2021-06-05T12:22:42Z</time>
      </trkpt>
      <trkpt lat="43.67328" lon="3.3527">
        <ele>141</ele>
        <time>2021-06-05T12:22:43Z</time>
      </trkpt>
      <trkpt lat="43.67324" lon="3.35274">
        <ele>141</ele>
        <time>2021-06-05T12:22:44Z</time>
      </trkpt>
      <trkpt lat="43.67321" lon="3.35277">
        <ele>141</ele>
        <time>2021-06-05T12:22:45Z</time>
      </trkpt>
      <trkpt lat="43.67317" lon="3.35281">
        <ele>141</ele>
        <time>2021-06-05T12:22:46Z</time>
      </trkpt>
      <trkpt lat="43.67313" lon="3.35283">
        <ele>141</ele>
        <time>2021-06-05T12:22:47Z</time>
      </trkpt>
      <trkpt lat="43.67309" lon="3.35287">
        <ele>141</ele>
        <time>2021-06-05T12:22:48Z</time>
      </trkpt>
      <trkpt lat="43.67307" lon="3.35291">
        <ele>141</ele>
        <time>2021-06-05T12:22:49Z</time>
      </trkpt>
      <trkpt lat="43.67303" lon="3.35295">
        <ele>141</ele>
        <time>2021-06-05T12:22:50Z</time>
      </trkpt>
      <trkpt lat="43.67299" lon="3.35298">
        <ele>141</ele>
        <time>2021-06-05T12:22:51Z</time>
      </trkpt>
      <trkpt lat="43.67296" lon="3.35301">
        <ele>141</ele>
        <time>2021-06-05T12:22:52Z</time>
      </trkpt>
      <trkpt lat="43.67292" lon="3.35304">
        <ele>141</ele>
        <time>2021-06-05T12:22:53Z</time>
      </trkpt>
      <trkpt lat="43.67289" lon="3.35308">
        <ele>142</ele>
        <time>2021-06-05T12:22:54Z</time>
      </trkpt>
      <trkpt lat="43.67285" lon="3.35312">
        <ele>142</ele>
        <time>2021-06-05T12:22:55Z</time>
      </trkpt>
      <trkpt lat="43.67281" lon="3.35315">
        <ele>142</ele>
        <time>2021-06-05T12:22:56Z</time>
      </trkpt>
      <trkpt lat="43.67277" lon="3.35318">
        <ele>142</ele>
        <time>2021-06-05T12:22:57Z</time>
      </trkpt>
      <trkpt lat="43.67274" lon="3.3532">
        <ele>142</ele>
        <time>2021-06-05T12:22:58Z</time>
      </trkpt>
      <trkpt lat="43.67269" lon="3.35323">
        <ele>142</ele>
        <time>2021-06-05T12:22:59Z</time>
      </trkpt>
      <trkpt lat="43.67265" lon="3.35326">
        <ele>142</ele>
        <time>2021-06-05T12:23:00Z</time>
      </trkpt>
      <trkpt lat="43.67262" lon="3.3533">
        <ele>142</ele>
        <time>2021-06-05T12:23:01Z</time>
      </trkpt>
      <trkpt lat="43.67259" lon="3.35333">
        <ele>142</ele>
        <time>2021-06-05T12:23:02Z</time>
      </trkpt>
      <trkpt lat="43.67255" lon="3.35335">
        <ele>142</ele>
        <time>2021-06-05T12:23:03Z</time>
      </trkpt>
      <trkpt lat="43.6725" lon="3.35336">
        <ele>142</ele>
        <time>2021-06-05T12:23:03Z</time>
      </trkpt>
      <trkpt lat="43.67247" lon="3.35337">
        <ele>142</ele>
        <time>2021-06-05T12:23:05Z</time>
      </trkpt>
      <trkpt lat="43.67243" lon="3.35339">
        <ele>142</ele>
        <time>2021-06-05T12:23:05Z</time>
      </trkpt>
      <trkpt lat="43.6724" lon="3.3534">
        <ele>142</ele>
        <time>2021-06-05T12:23:06Z</time>
      </trkpt>
      <trkpt lat="43.67237" lon="3.35341">
        <ele>142</ele>
        <time>2021-06-05T12:23:07Z</time>
      </trkpt>
      <trkpt lat="43.67235" lon="3.35342">
        <ele>142</ele>
        <time>2021-06-05T12:23:08Z</time>
      </trkpt>
      <trkpt lat="43.67233" lon="3.35343">
        <ele>142</ele>
        <time>2021-06-05T12:23:09Z</time>
      </trkpt>
      <trkpt lat="43.67231" lon="3.35343">
        <ele>142</ele>
        <time>2021-06-05T12:23:11Z</time>
      </trkpt>
      <trkpt lat="43.67229" lon="3.35344">
        <ele>142</ele>
        <time>2021-06-05T12:23:11Z</time>
      </trkpt>
      <trkpt lat="43.67226" lon="3.35344">
        <ele>142</ele>
        <time>2021-06-05T12:23:12Z</time>
      </trkpt>
      <trkpt lat="43.67223" lon="3.35345">
        <ele>143</ele>
        <time>2021-06-05T12:23:14Z</time>
      </trkpt>
      <trkpt lat="43.67221" lon="3.35345">
        <ele>143</ele>
        <time>2021-06-05T12:23:15Z</time>
      </trkpt>
      <trkpt lat="43.67217" lon="3.35346">
        <ele>143</ele>
        <time>2021-06-05T12:23:16Z</time>
      </trkpt>
      <trkpt lat="43.67214" lon="3.35347">
        <ele>143</ele>
        <time>2021-06-05T12:23:17Z</time>
      </trkpt>
      <trkpt lat="43.6721" lon="3.35348">
        <ele>143</ele>
        <time>2021-06-05T12:23:18Z</time>
      </trkpt>
      <trkpt lat="43.67207" lon="3.35349">
        <ele>143</ele>
        <time>2021-06-05T12:23:19Z</time>
      </trkpt>
      <trkpt lat="43.67203" lon="3.3535">
        <ele>143</ele>
        <time>2021-06-05T12:23:20Z</time>
      </trkpt>
      <trkpt lat="43.672" lon="3.35351">
        <ele>143</ele>
        <time>2021-06-05T12:23:21Z</time>
      </trkpt>
      <trkpt lat="43.67196" lon="3.35352">
        <ele>143</ele>
        <time>2021-06-05T12:23:22Z</time>
      </trkpt>
      <trkpt lat="43.67193" lon="3.35353">
        <ele>143</ele>
        <time>2021-06-05T12:23:23Z</time>
      </trkpt>
      <trkpt lat="43.67189" lon="3.35354">
        <ele>143</ele>
        <time>2021-06-05T12:23:24Z</time>
      </trkpt>
      <trkpt lat="43.67185" lon="3.35355">
        <ele>143</ele>
        <time>2021-06-05T12:23:25Z</time>
      </trkpt>
      <trkpt lat="43.67182" lon="3.35356">
        <ele>143</ele>
        <time>2021-06-05T12:23:26Z</time>
      </trkpt>
      <trkpt lat="43.67179" lon="3.35357">
        <ele>143</ele>
        <time>2021-06-05T12:23:27Z</time>
      </trkpt>
      <trkpt lat="43.67175" lon="3.35359">
        <ele>143</ele>
        <time>2021-06-05T12:23:28Z</time>
      </trkpt>
      <trkpt lat="43.67172" lon="3.3536">
        <ele>143</ele>
        <time>2021-06-05T12:23:29Z</time>
      </trkpt>
      <trkpt lat="43.67168" lon="3.35361">
        <ele>143</ele>
        <time>2021-06-05T12:23:30Z</time>
      </trkpt>
      <trkpt lat="43.67164" lon="3.35362">
        <ele>143</ele>
        <time>2021-06-05T12:23:31Z</time>
      </trkpt>
      <trkpt lat="43.67161" lon="3.35363">
        <ele>143</ele>
        <time>2021-06-05T12:23:32Z</time>
      </trkpt>
      <trkpt lat="43.67157" lon="3.35364">
        <ele>143</ele>
        <time>2021-06-05T12:23:33Z</time>
      </trkpt>
      <trkpt lat="43.67154" lon="3.35365">
        <ele>144</ele>
        <time>2021-06-05T12:23:34Z</time>
      </trkpt>
      <trkpt lat="43.6715" lon="3.35367">
        <ele>144</ele>
        <time>2021-06-05T12:23:35Z</time>
      </trkpt>
      <trkpt lat="43.67147" lon="3.35368">
        <ele>144</ele>
        <time>2021-06-05T12:23:36Z</time>
      </trkpt>
      <trkpt lat="43.67145" lon="3.35368">
        <ele>144</ele>
        <time>2021-06-05T12:23:37Z</time>
      </trkpt>
      <trkpt lat="43.67145" lon="3.35369">
        <ele>144</ele>
        <time>2021-06-05T12:23:44Z</time>
      </trkpt>
      <trkpt lat="43.6714" lon="3.35378">
        <ele>144</ele>
        <time>2021-06-05T12:23:56Z</time>
      </trkpt>
      <trkpt lat="43.67137" lon="3.3538">
        <ele>144</ele>
        <time>2021-06-05T12:23:56Z</time>
      </trkpt>
      <trkpt lat="43.67134" lon="3.3538">
        <ele>144</ele>
        <time>2021-06-05T12:23:57Z</time>
      </trkpt>
      <trkpt lat="43.67132" lon="3.35381">
        <ele>144</ele>
        <time>2021-06-05T12:23:58Z</time>
      </trkpt>
      <trkpt lat="43.67128" lon="3.35381">
        <ele>144</ele>
        <time>2021-06-05T12:23:59Z</time>
      </trkpt>
      <trkpt lat="43.67125" lon="3.35381">
        <ele>144</ele>
        <time>2021-06-05T12:24:00Z</time>
      </trkpt>
      <trkpt lat="43.67123" lon="3.35382">
        <ele>144</ele>
        <time>2021-06-05T12:24:01Z</time>
      </trkpt>
      <trkpt lat="43.67119" lon="3.35382">
        <ele>144</ele>
        <time>2021-06-05T12:24:02Z</time>
      </trkpt>
      <trkpt lat="43.67117" lon="3.35383">
        <ele>144</ele>
        <time>2021-06-05T12:24:03Z</time>
      </trkpt>
      <trkpt lat="43.67114" lon="3.35383">
        <ele>144</ele>
        <time>2021-06-05T12:24:04Z</time>
      </trkpt>
      <trkpt lat="43.67111" lon="3.35384">
        <ele>144</ele>
        <time>2021-06-05T12:24:05Z</time>
      </trkpt>
      <trkpt lat="43.67109" lon="3.35385">
        <ele>144</ele>
        <time>2021-06-05T12:24:06Z</time>
      </trkpt>
      <trkpt lat="43.67105" lon="3.35387">
        <ele>144</ele>
        <time>2021-06-05T12:24:07Z</time>
      </trkpt>
      <trkpt lat="43.67103" lon="3.35389">
        <ele>144</ele>
        <time>2021-06-05T12:24:08Z</time>
      </trkpt>
      <trkpt lat="43.671" lon="3.3539">
        <ele>144</ele>
        <time>2021-06-05T12:24:09Z</time>
      </trkpt>
      <trkpt lat="43.67098" lon="3.35392">
        <ele>144</ele>
        <time>2021-06-05T12:24:10Z</time>
      </trkpt>
      <trkpt lat="43.67095" lon="3.35394">
        <ele>144</ele>
        <time>2021-06-05T12:24:11Z</time>
      </trkpt>
      <trkpt lat="43.67093" lon="3.35395">
        <ele>144</ele>
        <time>2021-06-05T12:24:12Z</time>
      </trkpt>
      <trkpt lat="43.6709" lon="3.35397">
        <ele>144</ele>
        <time>2021-06-05T12:24:13Z</time>
      </trkpt>
      <trkpt lat="43.67087" lon="3.35398">
        <ele>144</ele>
        <time>2021-06-05T12:24:14Z</time>
      </trkpt>
      <trkpt lat="43.67085" lon="3.35399">
        <ele>144</ele>
        <time>2021-06-05T12:24:15Z</time>
      </trkpt>
      <trkpt lat="43.67083" lon="3.35401">
        <ele>143</ele>
        <time>2021-06-05T12:24:16Z</time>
      </trkpt>
      <trkpt lat="43.6708" lon="3.35403">
        <ele>143</ele>
        <time>2021-06-05T12:24:17Z</time>
      </trkpt>
      <trkpt lat="43.67078" lon="3.35406">
        <ele>143</ele>
        <time>2021-06-05T12:24:17Z</time>
      </trkpt>
      <trkpt lat="43.67076" lon="3.35408">
        <ele>143</ele>
        <time>2021-06-05T12:24:18Z</time>
      </trkpt>
      <trkpt lat="43.67074" lon="3.3541">
        <ele>143</ele>
        <time>2021-06-05T12:24:19Z</time>
      </trkpt>
      <trkpt lat="43.67072" lon="3.35414">
        <ele>143</ele>
        <time>2021-06-05T12:24:21Z</time>
      </trkpt>
      <trkpt lat="43.6707" lon="3.35417">
        <ele>143</ele>
        <time>2021-06-05T12:24:22Z</time>
      </trkpt>
      <trkpt lat="43.67068" lon="3.35421">
        <ele>143</ele>
        <time>2021-06-05T12:24:23Z</time>
      </trkpt>
      <trkpt lat="43.67066" lon="3.35424">
        <ele>143</ele>
        <time>2021-06-05T12:24:24Z</time>
      </trkpt>
      <trkpt lat="43.67064" lon="3.35426">
        <ele>143</ele>
        <time>2021-06-05T12:24:25Z</time>
      </trkpt>
      <trkpt lat="43.67063" lon="3.35429">
        <ele>143</ele>
        <time>2021-06-05T12:24:26Z</time>
      </trkpt>
      <trkpt lat="43.67061" lon="3.35432">
        <ele>143</ele>
        <time>2021-06-05T12:24:27Z</time>
      </trkpt>
      <trkpt lat="43.6706" lon="3.35435">
        <ele>143</ele>
        <time>2021-06-05T12:24:28Z</time>
      </trkpt>
      <trkpt lat="43.67058" lon="3.35437">
        <ele>143</ele>
        <time>2021-06-05T12:24:29Z</time>
      </trkpt>
      <trkpt lat="43.67057" lon="3.3544">
        <ele>143</ele>
        <time>2021-06-05T12:24:30Z</time>
      </trkpt>
      <trkpt lat="43.67055" lon="3.35443">
        <ele>143</ele>
        <time>2021-06-05T12:24:31Z</time>
      </trkpt>
      <trkpt lat="43.67054" lon="3.35445">
        <ele>143</ele>
        <time>2021-06-05T12:24:32Z</time>
      </trkpt>
      <trkpt lat="43.67052" lon="3.35448">
        <ele>143</ele>
        <time>2021-06-05T12:24:33Z</time>
      </trkpt>
      <trkpt lat="43.67051" lon="3.35452">
        <ele>143</ele>
        <time>2021-06-05T12:24:34Z</time>
      </trkpt>
      <trkpt lat="43.6705" lon="3.35455">
        <ele>143</ele>
        <time>2021-06-05T12:24:35Z</time>
      </trkpt>
      <trkpt lat="43.67048" lon="3.35458">
        <ele>143</ele>
        <time>2021-06-05T12:24:36Z</time>
      </trkpt>
      <trkpt lat="43.67047" lon="3.35461">
        <ele>143</ele>
        <time>2021-06-05T12:24:37Z</time>
      </trkpt>
      <trkpt lat="43.67046" lon="3.35463">
        <ele>143</ele>
        <time>2021-06-05T12:24:38Z</time>
      </trkpt>
      <trkpt lat="43.67045" lon="3.35465">
        <ele>143</ele>
        <time>2021-06-05T12:24:39Z</time>
      </trkpt>
      <trkpt lat="43.67044" lon="3.35468">
        <ele>143</ele>
        <time>2021-06-05T12:24:40Z</time>
      </trkpt>
      <trkpt lat="43.67043" lon="3.35471">
        <ele>143</ele>
        <time>2021-06-05T12:24:41Z</time>
      </trkpt>
      <trkpt lat="43.67043" lon="3.35474">
        <ele>143</ele>
        <time>2021-06-05T12:24:42Z</time>
      </trkpt>
      <trkpt lat="43.67041" lon="3.35477">
        <ele>143</ele>
        <time>2021-06-05T12:24:43Z</time>
      </trkpt>
      <trkpt lat="43.6704" lon="3.3548">
        <ele>143</ele>
        <time>2021-06-05T12:24:44Z</time>
      </trkpt>
      <trkpt lat="43.67039" lon="3.35484">
        <ele>143</ele>
        <time>2021-06-05T12:24:45Z</time>
      </trkpt>
      <trkpt lat="43.67036" lon="3.35488">
        <ele>143</ele>
        <time>2021-06-05T12:24:46Z</time>
      </trkpt>
      <trkpt lat="43.67035" lon="3.35491">
        <ele>143</ele>
        <time>2021-06-05T12:24:47Z</time>
      </trkpt>
      <trkpt lat="43.67033" lon="3.35494">
        <ele>143</ele>
        <time>2021-06-05T12:24:48Z</time>
      </trkpt>
      <trkpt lat="43.6703" lon="3.35496">
        <ele>143</ele>
        <time>2021-06-05T12:24:49Z</time>
      </trkpt>
      <trkpt lat="43.67026" lon="3.35495">
        <ele>143</ele>
        <time>2021-06-05T12:24:50Z</time>
      </trkpt>
      <trkpt lat="43.67022" lon="3.35493">
        <ele>143</ele>
        <time>2021-06-05T12:24:51Z</time>
      </trkpt>
      <trkpt lat="43.67018" lon="3.35491">
        <ele>143</ele>
        <time>2021-06-05T12:24:52Z</time>
      </trkpt>
      <trkpt lat="43.67015" lon="3.35488">
        <ele>143</ele>
        <time>2021-06-05T12:24:53Z</time>
      </trkpt>
      <trkpt lat="43.67012" lon="3.35487">
        <ele>143</ele>
        <time>2021-06-05T12:24:55Z</time>
      </trkpt>
      <trkpt lat="43.67011" lon="3.35487">
        <ele>141</ele>
        <time>2021-06-05T12:24:57Z</time>
      </trkpt>
      <trkpt lat="43.6701" lon="3.35487">
        <ele>141</ele>
        <time>2021-06-05T12:25:03Z</time>
      </trkpt>
      <trkpt lat="43.67009" lon="3.35494">
        <ele>138</ele>
        <time>2021-06-05T12:37:31Z</time>
      </trkpt>
      <trkpt lat="43.67008" lon="3.35497">
        <ele>138</ele>
        <time>2021-06-05T12:37:32Z</time>
      </trkpt>
      <trkpt lat="43.67008" lon="3.35501">
        <ele>138</ele>
        <time>2021-06-05T12:37:33Z</time>
      </trkpt>
      <trkpt lat="43.67007" lon="3.35506">
        <ele>138</ele>
        <time>2021-06-05T12:37:34Z</time>
      </trkpt>
      <trkpt lat="43.67005" lon="3.3551">
        <ele>138</ele>
        <time>2021-06-05T12:37:35Z</time>
      </trkpt>
      <trkpt lat="43.67004" lon="3.35513">
        <ele>138</ele>
        <time>2021-06-05T12:37:36Z</time>
      </trkpt>
      <trkpt lat="43.67002" lon="3.35516">
        <ele>138</ele>
        <time>2021-06-05T12:37:37Z</time>
      </trkpt>
      <trkpt lat="43.67001" lon="3.35518">
        <ele>138</ele>
        <time>2021-06-05T12:37:38Z</time>
      </trkpt>
      <trkpt lat="43.66998" lon="3.3552">
        <ele>138</ele>
        <time>2021-06-05T12:37:40Z</time>
      </trkpt>
      <trkpt lat="43.66996" lon="3.3552">
        <ele>138</ele>
        <time>2021-06-05T12:37:42Z</time>
      </trkpt>
      <trkpt lat="43.66993" lon="3.35519">
        <ele>138</ele>
        <time>2021-06-05T12:37:44Z</time>
      </trkpt>
      <trkpt lat="43.66991" lon="3.35518">
        <ele>138</ele>
        <time>2021-06-05T12:37:45Z</time>
      </trkpt>
      <trkpt lat="43.66989" lon="3.35518">
        <ele>138</ele>
        <time>2021-06-05T12:37:46Z</time>
      </trkpt>
      <trkpt lat="43.66987" lon="3.35518">
        <ele>138</ele>
        <time>2021-06-05T12:37:47Z</time>
      </trkpt>
      <trkpt lat="43.66985" lon="3.35517">
        <ele>138</ele>
        <time>2021-06-05T12:37:48Z</time>
      </trkpt>
      <trkpt lat="43.66983" lon="3.35518">
        <ele>138</ele>
        <time>2021-06-05T12:37:49Z</time>
      </trkpt>
      <trkpt lat="43.66981" lon="3.35518">
        <ele>138</ele>
        <time>2021-06-05T12:37:50Z</time>
      </trkpt>
      <trkpt lat="43.66979" lon="3.35518">
        <ele>138</ele>
        <time>2021-06-05T12:37:51Z</time>
      </trkpt>
      <trkpt lat="43.66977" lon="3.35518">
        <ele>138</ele>
        <time>2021-06-05T12:37:52Z</time>
      </trkpt>
      <trkpt lat="43.66975" lon="3.35518">
        <ele>138</ele>
        <time>2021-06-05T12:37:53Z</time>
      </trkpt>
      <trkpt lat="43.66973" lon="3.35519">
        <ele>138</ele>
        <time>2021-06-05T12:37:54Z</time>
      </trkpt>
      <trkpt lat="43.6697" lon="3.35519">
        <ele>138</ele>
        <time>2021-06-05T12:37:54Z</time>
      </trkpt>
      <trkpt lat="43.66967" lon="3.3552">
        <ele>138</ele>
        <time>2021-06-05T12:37:55Z</time>
      </trkpt>
      <trkpt lat="43.66965" lon="3.35521">
        <ele>138</ele>
        <time>2021-06-05T12:37:56Z</time>
      </trkpt>
      <trkpt lat="43.66963" lon="3.35521">
        <ele>138</ele>
        <time>2021-06-05T12:37:57Z</time>
      </trkpt>
      <trkpt lat="43.6696" lon="3.35522">
        <ele>138</ele>
        <time>2021-06-05T12:37:58Z</time>
      </trkpt>
      <trkpt lat="43.66957" lon="3.35522">
        <ele>138</ele>
        <time>2021-06-05T12:37:59Z</time>
      </trkpt>
      <trkpt lat="43.66955" lon="3.35523">
        <ele>138</ele>
        <time>2021-06-05T12:38:00Z</time>
      </trkpt>
      <trkpt lat="43.66953" lon="3.35523">
        <ele>138</ele>
        <time>2021-06-05T12:38:02Z</time>
      </trkpt>
      <trkpt lat="43.6695" lon="3.35524">
        <ele>138</ele>
        <time>2021-06-05T12:38:03Z</time>
      </trkpt>
      <trkpt lat="43.66948" lon="3.35524">
        <ele>138</ele>
        <time>2021-06-05T12:38:04Z</time>
      </trkpt>
      <trkpt lat="43.66946" lon="3.35525">
        <ele>138</ele>
        <time>2021-06-05T12:38:05Z</time>
      </trkpt>
      <trkpt lat="43.66944" lon="3.35525">
        <ele>138</ele>
        <time>2021-06-05T12:38:06Z</time>
      </trkpt>
      <trkpt lat="43.66942" lon="3.35525">
        <ele>138</ele>
        <time>2021-06-05T12:38:07Z</time>
      </trkpt>
      <trkpt lat="43.6694" lon="3.35526">
        <ele>138</ele>
        <time>2021-06-05T12:38:08Z</time>
      </trkpt>
      <trkpt lat="43.66937" lon="3.35526">
        <ele>138</ele>
        <time>2021-06-05T12:38:09Z</time>
      </trkpt>
      <trkpt lat="43.66933" lon="3.35528">
        <ele>138</ele>
        <time>2021-06-05T12:38:10Z</time>
      </trkpt>
      <trkpt lat="43.66929" lon="3.35529">
        <ele>139</ele>
        <time>2021-06-05T12:38:11Z</time>
      </trkpt>
      <trkpt lat="43.66927" lon="3.3553">
        <ele>139</ele>
        <time>2021-06-05T12:38:12Z</time>
      </trkpt>
      <trkpt lat="43.66924" lon="3.35532">
        <ele>139</ele>
        <time>2021-06-05T12:38:13Z</time>
      </trkpt>
      <trkpt lat="43.66922" lon="3.35535">
        <ele>139</ele>
        <time>2021-06-05T12:38:14Z</time>
      </trkpt>
      <trkpt lat="43.6692" lon="3.35539">
        <ele>139</ele>
        <time>2021-06-05T12:38:15Z</time>
      </trkpt>
      <trkpt lat="43.66918" lon="3.35542">
        <ele>139</ele>
        <time>2021-06-05T12:38:16Z</time>
      </trkpt>
      <trkpt lat="43.66917" lon="3.35545">
        <ele>139</ele>
        <time>2021-06-05T12:38:17Z</time>
      </trkpt>
      <trkpt lat="43.66916" lon="3.35548">
        <ele>139</ele>
        <time>2021-06-05T12:38:18Z</time>
      </trkpt>
      <trkpt lat="43.66914" lon="3.35551">
        <ele>139</ele>
        <time>2021-06-05T12:38:19Z</time>
      </trkpt>
      <trkpt lat="43.66913" lon="3.35554">
        <ele>139</ele>
        <time>2021-06-05T12:38:20Z</time>
      </trkpt>
      <trkpt lat="43.66911" lon="3.35557">
        <ele>139</ele>
        <time>2021-06-05T12:38:21Z</time>
      </trkpt>
      <trkpt lat="43.6691" lon="3.3556">
        <ele>139</ele>
        <time>2021-06-05T12:38:22Z</time>
      </trkpt>
      <trkpt lat="43.66909" lon="3.35563">
        <ele>139</ele>
        <time>2021-06-05T12:38:23Z</time>
      </trkpt>
      <trkpt lat="43.66908" lon="3.35567">
        <ele>139</ele>
        <time>2021-06-05T12:38:24Z</time>
      </trkpt>
      <trkpt lat="43.66907" lon="3.35571">
        <ele>139</ele>
        <time>2021-06-05T12:38:25Z</time>
      </trkpt>
      <trkpt lat="43.66906" lon="3.35574">
        <ele>139</ele>
        <time>2021-06-05T12:38:26Z</time>
      </trkpt>
      <trkpt lat="43.66904" lon="3.35578">
        <ele>139</ele>
        <time>2021-06-05T12:38:27Z</time>
      </trkpt>
      <trkpt lat="43.66903" lon="3.35582">
        <ele>139</ele>
        <time>2021-06-05T12:38:28Z</time>
      </trkpt>
      <trkpt lat="43.66901" lon="3.35586">
        <ele>139</ele>
        <time>2021-06-05T12:38:29Z</time>
      </trkpt>
      <trkpt lat="43.669" lon="3.3559">
        <ele>139</ele>
        <time>2021-06-05T12:38:30Z</time>
      </trkpt>
      <trkpt lat="43.66899" lon="3.35594">
        <ele>139</ele>
        <time>2021-06-05T12:38:31Z</time>
      </trkpt>
      <trkpt lat="43.66897" lon="3.35599">
        <ele>140</ele>
        <time>2021-06-05T12:38:32Z</time>
      </trkpt>
      <trkpt lat="43.66895" lon="3.35604">
        <ele>140</ele>
        <time>2021-06-05T12:38:33Z</time>
      </trkpt>
      <trkpt lat="43.66893" lon="3.35609">
        <ele>140</ele>
        <time>2021-06-05T12:38:34Z</time>
      </trkpt>
      <trkpt lat="43.66891" lon="3.35614">
        <ele>140</ele>
        <time>2021-06-05T12:38:35Z</time>
      </trkpt>
      <trkpt lat="43.6689" lon="3.35619">
        <ele>140</ele>
        <time>2021-06-05T12:38:36Z</time>
      </trkpt>
      <trkpt lat="43.66887" lon="3.35624">
        <ele>140</ele>
        <time>2021-06-05T12:38:37Z</time>
      </trkpt>
      <trkpt lat="43.66884" lon="3.35629">
        <ele>140</ele>
        <time>2021-06-05T12:38:38Z</time>
      </trkpt>
      <trkpt lat="43.66882" lon="3.35634">
        <ele>140</ele>
        <time>2021-06-05T12:38:39Z</time>
      </trkpt>
      <trkpt lat="43.6688" lon="3.35638">
        <ele>140</ele>
        <time>2021-06-05T12:38:40Z</time>
      </trkpt>
      <trkpt lat="43.66877" lon="3.35642">
        <ele>140</ele>
        <time>2021-06-05T12:38:41Z</time>
      </trkpt>
      <trkpt lat="43.66874" lon="3.35647">
        <ele>140</ele>
        <time>2021-06-05T12:38:42Z</time>
      </trkpt>
      <trkpt lat="43.66872" lon="3.35651">
        <ele>140</ele>
        <time>2021-06-05T12:38:43Z</time>
      </trkpt>
      <trkpt lat="43.6687" lon="3.35655">
        <ele>140</ele>
        <time>2021-06-05T12:38:44Z</time>
      </trkpt>
      <trkpt lat="43.66867" lon="3.35658">
        <ele>140</ele>
        <time>2021-06-05T12:38:45Z</time>
      </trkpt>
      <trkpt lat="43.66865" lon="3.35662">
        <ele>140</ele>
        <time>2021-06-05T12:38:46Z</time>
      </trkpt>
      <trkpt lat="43.66862" lon="3.35665">
        <ele>140</ele>
        <time>2021-06-05T12:38:47Z</time>
      </trkpt>
      <trkpt lat="43.66859" lon="3.35668">
        <ele>140</ele>
        <time>2021-06-05T12:38:48Z</time>
      </trkpt>
      <trkpt lat="43.66857" lon="3.35671">
        <ele>140</ele>
        <time>2021-06-05T12:38:49Z</time>
      </trkpt>
      <trkpt lat="43.66855" lon="3.35674">
        <ele>140</ele>
        <time>2021-06-05T12:38:50Z</time>
      </trkpt>
      <trkpt lat="43.66853" lon="3.35677">
        <ele>140</ele>
        <time>2021-06-05T12:38:51Z</time>
      </trkpt>
      <trkpt lat="43.66849" lon="3.35681">
        <ele>140</ele>
        <time>2021-06-05T12:38:52Z</time>
      </trkpt>
      <trkpt lat="43.66846" lon="3.35685">
        <ele>140</ele>
        <time>2021-06-05T12:38:53Z</time>
      </trkpt>
      <trkpt lat="43.66842" lon="3.35689">
        <ele>140</ele>
        <time>2021-06-05T12:38:54Z</time>
      </trkpt>
      <trkpt lat="43.66839" lon="3.35694">
        <ele>140</ele>
        <time>2021-06-05T12:38:55Z</time>
      </trkpt>
      <trkpt lat="43.66836" lon="3.35698">
        <ele>140</ele>
        <time>2021-06-05T12:38:56Z</time>
      </trkpt>
      <trkpt lat="43.66834" lon="3.35702">
        <ele>140</ele>
        <time>2021-06-05T12:38:57Z</time>
      </trkpt>
      <trkpt lat="43.66833" lon="3.35706">
        <ele>140</ele>
        <time>2021-06-05T12:38:58Z</time>
      </trkpt>
      <trkpt lat="43.66832" lon="3.3571">
        <ele>140</ele>
        <time>2021-06-05T12:38:59Z</time>
      </trkpt>
      <trkpt lat="43.66832" lon="3.35713">
        <ele>140</ele>
        <time>2021-06-05T12:39:00Z</time>
      </trkpt>
      <trkpt lat="43.6683" lon="3.35716">
        <ele>140</ele>
        <time>2021-06-05T12:39:01Z</time>
      </trkpt>
      <trkpt lat="43.66828" lon="3.35719">
        <ele>140</ele>
        <time>2021-06-05T12:39:02Z</time>
      </trkpt>
      <trkpt lat="43.66826" lon="3.3572">
        <ele>140</ele>
        <time>2021-06-05T12:39:03Z</time>
      </trkpt>
      <trkpt lat="43.66824" lon="3.35722">
        <ele>140</ele>
        <time>2021-06-05T12:39:04Z</time>
      </trkpt>
      <trkpt lat="43.66822" lon="3.35725">
        <ele>140</ele>
        <time>2021-06-05T12:39:06Z</time>
      </trkpt>
      <trkpt lat="43.66821" lon="3.35726">
        <ele>140</ele>
        <time>2021-06-05T12:39:07Z</time>
      </trkpt>
      <trkpt lat="43.66818" lon="3.35729">
        <ele>140</ele>
        <time>2021-06-05T12:39:08Z</time>
      </trkpt>
      <trkpt lat="43.66813" lon="3.35731">
        <ele>140</ele>
        <time>2021-06-05T12:39:09Z</time>
      </trkpt>
      <trkpt lat="43.66808" lon="3.35734">
        <ele>140</ele>
        <time>2021-06-05T12:39:10Z</time>
      </trkpt>
      <trkpt lat="43.66804" lon="3.35737">
        <ele>140</ele>
        <time>2021-06-05T12:39:11Z</time>
      </trkpt>
      <trkpt lat="43.668" lon="3.35739">
        <ele>140</ele>
        <time>2021-06-05T12:39:12Z</time>
      </trkpt>
      <trkpt lat="43.66797" lon="3.35742">
        <ele>140</ele>
        <time>2021-06-05T12:39:13Z</time>
      </trkpt>
      <trkpt lat="43.66794" lon="3.35744">
        <ele>140</ele>
        <time>2021-06-05T12:39:14Z</time>
      </trkpt>
      <trkpt lat="43.66792" lon="3.35745">
        <ele>140</ele>
        <time>2021-06-05T12:39:15Z</time>
      </trkpt>
      <trkpt lat="43.6679" lon="3.35746">
        <ele>140</ele>
        <time>2021-06-05T12:39:16Z</time>
      </trkpt>
      <trkpt lat="43.66788" lon="3.35746">
        <ele>140</ele>
        <time>2021-06-05T12:39:17Z</time>
      </trkpt>
      <trkpt lat="43.66787" lon="3.35747">
        <ele>140</ele>
        <time>2021-06-05T12:39:18Z</time>
      </trkpt>
      <trkpt lat="43.66785" lon="3.35749">
        <ele>140</ele>
        <time>2021-06-05T12:39:19Z</time>
      </trkpt>
      <trkpt lat="43.66783" lon="3.3575">
        <ele>140</ele>
        <time>2021-06-05T12:39:20Z</time>
      </trkpt>
      <trkpt lat="43.66781" lon="3.35751">
        <ele>140</ele>
        <time>2021-06-05T12:39:21Z</time>
      </trkpt>
      <trkpt lat="43.66778" lon="3.35752">
        <ele>140</ele>
        <time>2021-06-05T12:39:23Z</time>
      </trkpt>
      <trkpt lat="43.66776" lon="3.35753">
        <ele>140</ele>
        <time>2021-06-05T12:39:24Z</time>
      </trkpt>
      <trkpt lat="43.66774" lon="3.35753">
        <ele>140</ele>
        <time>2021-06-05T12:39:25Z</time>
      </trkpt>
      <trkpt lat="43.66772" lon="3.35754">
        <ele>140</ele>
        <time>2021-06-05T12:39:26Z</time>
      </trkpt>
      <trkpt lat="43.6677" lon="3.35754">
        <ele>140</ele>
        <time>2021-06-05T12:39:27Z</time>
      </trkpt>
      <trkpt lat="43.66768" lon="3.35755">
        <ele>140</ele>
        <time>2021-06-05T12:39:28Z</time>
      </trkpt>
      <trkpt lat="43.66765" lon="3.35757">
        <ele>140</ele>
        <time>2021-06-05T12:39:30Z</time>
      </trkpt>
      <trkpt lat="43.66762" lon="3.35759">
        <ele>141</ele>
        <time>2021-06-05T12:39:32Z</time>
      </trkpt>
      <trkpt lat="43.6676" lon="3.35763">
        <ele>141</ele>
        <time>2021-06-05T12:39:34Z</time>
      </trkpt>
      <trkpt lat="43.66759" lon="3.35766">
        <ele>141</ele>
        <time>2021-06-05T12:39:35Z</time>
      </trkpt>
      <trkpt lat="43.66758" lon="3.35768">
        <ele>141</ele>
        <time>2021-06-05T12:39:36Z</time>
      </trkpt>
      <trkpt lat="43.66756" lon="3.3577">
        <ele>141</ele>
        <time>2021-06-05T12:39:37Z</time>
      </trkpt>
      <trkpt lat="43.66755" lon="3.35772">
        <ele>141</ele>
        <time>2021-06-05T12:39:38Z</time>
      </trkpt>
      <trkpt lat="43.66754" lon="3.35774">
        <ele>141</ele>
        <time>2021-06-05T12:39:39Z</time>
      </trkpt>
      <trkpt lat="43.66753" lon="3.35777">
        <ele>141</ele>
        <time>2021-06-05T12:39:40Z</time>
      </trkpt>
      <trkpt lat="43.66751" lon="3.35779">
        <ele>141</ele>
        <time>2021-06-05T12:39:41Z</time>
      </trkpt>
      <trkpt lat="43.66749" lon="3.35782">
        <ele>143</ele>
        <time>2021-06-05T12:39:42Z</time>
      </trkpt>
      <trkpt lat="43.66746" lon="3.35785">
        <ele>143</ele>
        <time>2021-06-05T12:39:43Z</time>
      </trkpt>
      <trkpt lat="43.66743" lon="3.3579">
        <ele>143</ele>
        <time>2021-06-05T12:39:44Z</time>
      </trkpt>
      <trkpt lat="43.6674" lon="3.35795">
        <ele>143</ele>
        <time>2021-06-05T12:39:45Z</time>
      </trkpt>
      <trkpt lat="43.66737" lon="3.35801">
        <ele>143</ele>
        <time>2021-06-05T12:39:46Z</time>
      </trkpt>
      <trkpt lat="43.66734" lon="3.35807">
        <ele>143</ele>
        <time>2021-06-05T12:39:47Z</time>
      </trkpt>
      <trkpt lat="43.66731" lon="3.35811">
        <ele>143</ele>
        <time>2021-06-05T12:39:48Z</time>
      </trkpt>
      <trkpt lat="43.66728" lon="3.35815">
        <ele>143</ele>
        <time>2021-06-05T12:39:49Z</time>
      </trkpt>
      <trkpt lat="43.66725" lon="3.35818">
        <ele>143</ele>
        <time>2021-06-05T12:39:50Z</time>
      </trkpt>
      <trkpt lat="43.66723" lon="3.3582">
        <ele>143</ele>
        <time>2021-06-05T12:39:51Z</time>
      </trkpt>
      <trkpt lat="43.66721" lon="3.35822">
        <ele>142</ele>
        <time>2021-06-05T12:39:52Z</time>
      </trkpt>
      <trkpt lat="43.66719" lon="3.35825">
        <ele>142</ele>
        <time>2021-06-05T12:39:53Z</time>
      </trkpt>
      <trkpt lat="43.66717" lon="3.35828">
        <ele>142</ele>
        <time>2021-06-05T12:39:54Z</time>
      </trkpt>
      <trkpt lat="43.66716" lon="3.3583">
        <ele>142</ele>
        <time>2021-06-05T12:39:55Z</time>
      </trkpt>
      <trkpt lat="43.66713" lon="3.35833">
        <ele>142</ele>
        <time>2021-06-05T12:39:56Z</time>
      </trkpt>
      <trkpt lat="43.66711" lon="3.35836">
        <ele>142</ele>
        <time>2021-06-05T12:39:57Z</time>
      </trkpt>
      <trkpt lat="43.66709" lon="3.35838">
        <ele>142</ele>
        <time>2021-06-05T12:39:58Z</time>
      </trkpt>
      <trkpt lat="43.66706" lon="3.35841">
        <ele>142</ele>
        <time>2021-06-05T12:39:59Z</time>
      </trkpt>
      <trkpt lat="43.66703" lon="3.35845">
        <ele>142</ele>
        <time>2021-06-05T12:40:00Z</time>
      </trkpt>
      <trkpt lat="43.66701" lon="3.35849">
        <ele>142</ele>
        <time>2021-06-05T12:40:01Z</time>
      </trkpt>
      <trkpt lat="43.66698" lon="3.35853">
        <ele>142</ele>
        <time>2021-06-05T12:40:02Z</time>
      </trkpt>
      <trkpt lat="43.66695" lon="3.35856">
        <ele>142</ele>
        <time>2021-06-05T12:40:03Z</time>
      </trkpt>
      <trkpt lat="43.66693" lon="3.35859">
        <ele>142</ele>
        <time>2021-06-05T12:40:04Z</time>
      </trkpt>
      <trkpt lat="43.6669" lon="3.35861">
        <ele>142</ele>
        <time>2021-06-05T12:40:05Z</time>
      </trkpt>
      <trkpt lat="43.66688" lon="3.35864">
        <ele>142</ele>
        <time>2021-06-05T12:40:06Z</time>
      </trkpt>
      <trkpt lat="43.66686" lon="3.35866">
        <ele>142</ele>
        <time>2021-06-05T12:40:07Z</time>
      </trkpt>
      <trkpt lat="43.66684" lon="3.35869">
        <ele>142</ele>
        <time>2021-06-05T12:40:08Z</time>
      </trkpt>
      <trkpt lat="43.66682" lon="3.35871">
        <ele>142</ele>
        <time>2021-06-05T12:40:09Z</time>
      </trkpt>
      <trkpt lat="43.6668" lon="3.35873">
        <ele>142</ele>
        <time>2021-06-05T12:40:10Z</time>
      </trkpt>
      <trkpt lat="43.66678" lon="3.35875">
        <ele>142</ele>
        <time>2021-06-05T12:40:11Z</time>
      </trkpt>
      <trkpt lat="43.66677" lon="3.35878">
        <ele>141</ele>
        <time>2021-06-05T12:40:12Z</time>
      </trkpt>
      <trkpt lat="43.66674" lon="3.35881">
        <ele>141</ele>
        <time>2021-06-05T12:40:13Z</time>
      </trkpt>
      <trkpt lat="43.66671" lon="3.35885">
        <ele>141</ele>
        <time>2021-06-05T12:40:14Z</time>
      </trkpt>
      <trkpt lat="43.66669" lon="3.35888">
        <ele>141</ele>
        <time>2021-06-05T12:40:15Z</time>
      </trkpt>
      <trkpt lat="43.66667" lon="3.35892">
        <ele>141</ele>
        <time>2021-06-05T12:40:16Z</time>
      </trkpt>
      <trkpt lat="43.66665" lon="3.35895">
        <ele>141</ele>
        <time>2021-06-05T12:40:17Z</time>
      </trkpt>
      <trkpt lat="43.66663" lon="3.35898">
        <ele>141</ele>
        <time>2021-06-05T12:40:18Z</time>
      </trkpt>
      <trkpt lat="43.66662" lon="3.359">
        <ele>141</ele>
        <time>2021-06-05T12:40:19Z</time>
      </trkpt>
      <trkpt lat="43.66659" lon="3.35902">
        <ele>141</ele>
        <time>2021-06-05T12:40:21Z</time>
      </trkpt>
      <trkpt lat="43.66658" lon="3.35906">
        <ele>141</ele>
        <time>2021-06-05T12:40:23Z</time>
      </trkpt>
      <trkpt lat="43.66656" lon="3.35907">
        <ele>141</ele>
        <time>2021-06-05T12:40:24Z</time>
      </trkpt>
      <trkpt lat="43.66653" lon="3.35909">
        <ele>141</ele>
        <time>2021-06-05T12:40:26Z</time>
      </trkpt>
      <trkpt lat="43.66651" lon="3.3591">
        <ele>141</ele>
        <time>2021-06-05T12:40:27Z</time>
      </trkpt>
      <trkpt lat="43.66649" lon="3.35911">
        <ele>141</ele>
        <time>2021-06-05T12:40:28Z</time>
      </trkpt>
      <trkpt lat="43.66647" lon="3.35912">
        <ele>141</ele>
        <time>2021-06-05T12:40:29Z</time>
      </trkpt>
      <trkpt lat="43.66645" lon="3.35915">
        <ele>141</ele>
        <time>2021-06-05T12:40:30Z</time>
      </trkpt>
      <trkpt lat="43.66644" lon="3.35918">
        <ele>141</ele>
        <time>2021-06-05T12:40:31Z</time>
      </trkpt>
      <trkpt lat="43.66643" lon="3.35922">
        <ele>140</ele>
        <time>2021-06-05T12:40:32Z</time>
      </trkpt>
      <trkpt lat="43.66641" lon="3.35925">
        <ele>140</ele>
        <time>2021-06-05T12:40:33Z</time>
      </trkpt>
      <trkpt lat="43.66639" lon="3.35928">
        <ele>140</ele>
        <time>2021-06-05T12:40:34Z</time>
      </trkpt>
      <trkpt lat="43.66637" lon="3.35932">
        <ele>140</ele>
        <time>2021-06-05T12:40:35Z</time>
      </trkpt>
      <trkpt lat="43.66635" lon="3.35935">
        <ele>140</ele>
        <time>2021-06-05T12:40:36Z</time>
      </trkpt>
      <trkpt lat="43.66634" lon="3.35939">
        <ele>140</ele>
        <time>2021-06-05T12:40:37Z</time>
      </trkpt>
      <trkpt lat="43.66632" lon="3.35942">
        <ele>140</ele>
        <time>2021-06-05T12:40:38Z</time>
      </trkpt>
      <trkpt lat="43.66631" lon="3.35946">
        <ele>140</ele>
        <time>2021-06-05T12:40:39Z</time>
      </trkpt>
      <trkpt lat="43.66629" lon="3.3595">
        <ele>140</ele>
        <time>2021-06-05T12:40:40Z</time>
      </trkpt>
      <trkpt lat="43.66628" lon="3.35954">
        <ele>140</ele>
        <time>2021-06-05T12:40:41Z</time>
      </trkpt>
      <trkpt lat="43.66628" lon="3.35957">
        <ele>141</ele>
        <time>2021-06-05T12:40:42Z</time>
      </trkpt>
      <trkpt lat="43.66627" lon="3.35961">
        <ele>141</ele>
        <time>2021-06-05T12:40:43Z</time>
      </trkpt>
      <trkpt lat="43.66626" lon="3.35965">
        <ele>141</ele>
        <time>2021-06-05T12:40:44Z</time>
      </trkpt>
      <trkpt lat="43.66624" lon="3.35969">
        <ele>141</ele>
        <time>2021-06-05T12:40:45Z</time>
      </trkpt>
      <trkpt lat="43.66621" lon="3.35973">
        <ele>141</ele>
        <time>2021-06-05T12:40:46Z</time>
      </trkpt>
      <trkpt lat="43.66618" lon="3.35977">
        <ele>141</ele>
        <time>2021-06-05T12:40:47Z</time>
      </trkpt>
      <trkpt lat="43.66616" lon="3.35981">
        <ele>141</ele>
        <time>2021-06-05T12:40:48Z</time>
      </trkpt>
      <trkpt lat="43.66614" lon="3.35985">
        <ele>141</ele>
        <time>2021-06-05T12:40:49Z</time>
      </trkpt>
      <trkpt lat="43.66611" lon="3.35989">
        <ele>141</ele>
        <time>2021-06-05T12:40:50Z</time>
      </trkpt>
      <trkpt lat="43.66609" lon="3.35993">
        <ele>141</ele>
        <time>2021-06-05T12:40:51Z</time>
      </trkpt>
      <trkpt lat="43.66607" lon="3.35998">
        <ele>140</ele>
        <time>2021-06-05T12:40:52Z</time>
      </trkpt>
      <trkpt lat="43.66604" lon="3.36001">
        <ele>140</ele>
        <time>2021-06-05T12:40:53Z</time>
      </trkpt>
      <trkpt lat="43.66601" lon="3.36005">
        <ele>140</ele>
        <time>2021-06-05T12:40:54Z</time>
      </trkpt>
      <trkpt lat="43.66598" lon="3.36007">
        <ele>140</ele>
        <time>2021-06-05T12:40:55Z</time>
      </trkpt>
      <trkpt lat="43.66595" lon="3.36009">
        <ele>140</ele>
        <time>2021-06-05T12:40:56Z</time>
      </trkpt>
      <trkpt lat="43.66593" lon="3.36012">
        <ele>140</ele>
        <time>2021-06-05T12:40:57Z</time>
      </trkpt>
      <trkpt lat="43.6659" lon="3.36013">
        <ele>140</ele>
        <time>2021-06-05T12:40:58Z</time>
      </trkpt>
      <trkpt lat="43.66588" lon="3.36015">
        <ele>140</ele>
        <time>2021-06-05T12:40:59Z</time>
      </trkpt>
      <trkpt lat="43.66586" lon="3.36018">
        <ele>140</ele>
        <time>2021-06-05T12:41:00Z</time>
      </trkpt>
      <trkpt lat="43.66584" lon="3.36021">
        <ele>140</ele>
        <time>2021-06-05T12:41:01Z</time>
      </trkpt>
      <trkpt lat="43.66583" lon="3.36025">
        <ele>140</ele>
        <time>2021-06-05T12:41:02Z</time>
      </trkpt>
      <trkpt lat="43.66583" lon="3.3603">
        <ele>140</ele>
        <time>2021-06-05T12:41:03Z</time>
      </trkpt>
      <trkpt lat="43.66583" lon="3.36034">
        <ele>140</ele>
        <time>2021-06-05T12:41:04Z</time>
      </trkpt>
      <trkpt lat="43.66584" lon="3.36039">
        <ele>140</ele>
        <time>2021-06-05T12:41:05Z</time>
      </trkpt>
      <trkpt lat="43.66584" lon="3.36043">
        <ele>140</ele>
        <time>2021-06-05T12:41:06Z</time>
      </trkpt>
      <trkpt lat="43.66584" lon="3.36048">
        <ele>140</ele>
        <time>2021-06-05T12:41:07Z</time>
      </trkpt>
      <trkpt lat="43.66586" lon="3.36052">
        <ele>140</ele>
        <time>2021-06-05T12:41:08Z</time>
      </trkpt>
      <trkpt lat="43.66587" lon="3.36056">
        <ele>140</ele>
        <time>2021-06-05T12:41:09Z</time>
      </trkpt>
      <trkpt lat="43.66589" lon="3.36059">
        <ele>140</ele>
        <time>2021-06-05T12:41:10Z</time>
      </trkpt>
      <trkpt lat="43.66591" lon="3.36062">
        <ele>140</ele>
        <time>2021-06-05T12:41:11Z</time>
      </trkpt>
      <trkpt lat="43.66593" lon="3.36064">
        <ele>140</ele>
        <time>2021-06-05T12:41:12Z</time>
      </trkpt>
      <trkpt lat="43.66595" lon="3.36066">
        <ele>140</ele>
        <time>2021-06-05T12:41:13Z</time>
      </trkpt>
      <trkpt lat="43.66597" lon="3.36067">
        <ele>140</ele>
        <time>2021-06-05T12:41:14Z</time>
      </trkpt>
      <trkpt lat="43.66599" lon="3.36069">
        <ele>140</ele>
        <time>2021-06-05T12:41:15Z</time>
      </trkpt>
      <trkpt lat="43.66601" lon="3.36071">
        <ele>140</ele>
        <time>2021-06-05T12:41:16Z</time>
      </trkpt>
      <trkpt lat="43.66603" lon="3.36073">
        <ele>140</ele>
        <time>2021-06-05T12:41:17Z</time>
      </trkpt>
      <trkpt lat="43.66604" lon="3.36074">
        <ele>140</ele>
        <time>2021-06-05T12:41:18Z</time>
      </trkpt>
      <trkpt lat="43.66606" lon="3.36076">
        <ele>140</ele>
        <time>2021-06-05T12:41:19Z</time>
      </trkpt>
      <trkpt lat="43.66608" lon="3.36076">
        <ele>140</ele>
        <time>2021-06-05T12:41:20Z</time>
      </trkpt>
      <trkpt lat="43.66611" lon="3.36077">
        <ele>140</ele>
        <time>2021-06-05T12:41:21Z</time>
      </trkpt>
      <trkpt lat="43.66613" lon="3.36078">
        <ele>140</ele>
        <time>2021-06-05T12:41:22Z</time>
      </trkpt>
      <trkpt lat="43.66616" lon="3.36079">
        <ele>140</ele>
        <time>2021-06-05T12:41:23Z</time>
      </trkpt>
      <trkpt lat="43.66618" lon="3.36081">
        <ele>140</ele>
        <time>2021-06-05T12:41:24Z</time>
      </trkpt>
      <trkpt lat="43.66619" lon="3.36084">
        <ele>140</ele>
        <time>2021-06-05T12:41:25Z</time>
      </trkpt>
      <trkpt lat="43.6662" lon="3.36086">
        <ele>140</ele>
        <time>2021-06-05T12:41:26Z</time>
      </trkpt>
      <trkpt lat="43.6662" lon="3.36091">
        <ele>140</ele>
        <time>2021-06-05T12:41:28Z</time>
      </trkpt>
      <trkpt lat="43.66619" lon="3.36094">
        <ele>140</ele>
        <time>2021-06-05T12:41:30Z</time>
      </trkpt>
      <trkpt lat="43.66619" lon="3.36098">
        <ele>139</ele>
        <time>2021-06-05T12:41:33Z</time>
      </trkpt>
      <trkpt lat="43.6662" lon="3.36102">
        <ele>139</ele>
        <time>2021-06-05T12:41:35Z</time>
      </trkpt>
      <trkpt lat="43.66621" lon="3.36105">
        <ele>139</ele>
        <time>2021-06-05T12:41:36Z</time>
      </trkpt>
      <trkpt lat="43.66621" lon="3.36107">
        <ele>139</ele>
        <time>2021-06-05T12:41:36Z</time>
      </trkpt>
      <trkpt lat="43.66622" lon="3.36109">
        <ele>139</ele>
        <time>2021-06-05T12:41:37Z</time>
      </trkpt>
      <trkpt lat="43.66623" lon="3.36113">
        <ele>139</ele>
        <time>2021-06-05T12:41:38Z</time>
      </trkpt>
      <trkpt lat="43.66625" lon="3.36116">
        <ele>139</ele>
        <time>2021-06-05T12:41:39Z</time>
      </trkpt>
      <trkpt lat="43.66627" lon="3.36121">
        <ele>139</ele>
        <time>2021-06-05T12:41:40Z</time>
      </trkpt>
      <trkpt lat="43.66628" lon="3.36125">
        <ele>139</ele>
        <time>2021-06-05T12:41:42Z</time>
      </trkpt>
      <trkpt lat="43.66628" lon="3.36131">
        <ele>139</ele>
        <time>2021-06-05T12:41:43Z</time>
      </trkpt>
      <trkpt lat="43.66628" lon="3.36137">
        <ele>139</ele>
        <time>2021-06-05T12:41:44Z</time>
      </trkpt>
      <trkpt lat="43.66627" lon="3.36142">
        <ele>139</ele>
        <time>2021-06-05T12:41:45Z</time>
      </trkpt>
      <trkpt lat="43.66625" lon="3.36146">
        <ele>139</ele>
        <time>2021-06-05T12:41:46Z</time>
      </trkpt>
      <trkpt lat="43.66623" lon="3.36148">
        <ele>139</ele>
        <time>2021-06-05T12:41:47Z</time>
      </trkpt>
      <trkpt lat="43.66621" lon="3.36151">
        <ele>139</ele>
        <time>2021-06-05T12:41:48Z</time>
      </trkpt>
      <trkpt lat="43.66619" lon="3.36154">
        <ele>139</ele>
        <time>2021-06-05T12:41:49Z</time>
      </trkpt>
      <trkpt lat="43.66619" lon="3.36157">
        <ele>139</ele>
        <time>2021-06-05T12:41:50Z</time>
      </trkpt>
      <trkpt lat="43.66618" lon="3.36161">
        <ele>139</ele>
        <time>2021-06-05T12:41:51Z</time>
      </trkpt>
      <trkpt lat="43.66618" lon="3.36167">
        <ele>139</ele>
        <time>2021-06-05T12:41:52Z</time>
      </trkpt>
      <trkpt lat="43.66618" lon="3.36172">
        <ele>139</ele>
        <time>2021-06-05T12:41:53Z</time>
      </trkpt>
      <trkpt lat="43.66619" lon="3.36179">
        <ele>139</ele>
        <time>2021-06-05T12:41:54Z</time>
      </trkpt>
      <trkpt lat="43.66619" lon="3.36185">
        <ele>139</ele>
        <time>2021-06-05T12:41:55Z</time>
      </trkpt>
      <trkpt lat="43.6662" lon="3.36191">
        <ele>139</ele>
        <time>2021-06-05T12:41:56Z</time>
      </trkpt>
      <trkpt lat="43.66621" lon="3.36196">
        <ele>139</ele>
        <time>2021-06-05T12:41:57Z</time>
      </trkpt>
      <trkpt lat="43.66623" lon="3.36201">
        <ele>139</ele>
        <time>2021-06-05T12:41:58Z</time>
      </trkpt>
      <trkpt lat="43.66626" lon="3.36206">
        <ele>139</ele>
        <time>2021-06-05T12:41:59Z</time>
      </trkpt>
      <trkpt lat="43.66628" lon="3.36209">
        <ele>139</ele>
        <time>2021-06-05T12:42:00Z</time>
      </trkpt>
      <trkpt lat="43.66631" lon="3.36213">
        <ele>139</ele>
        <time>2021-06-05T12:42:01Z</time>
      </trkpt>
      <trkpt lat="43.66633" lon="3.36217">
        <ele>139</ele>
        <time>2021-06-05T12:42:02Z</time>
      </trkpt>
      <trkpt lat="43.66634" lon="3.36222">
        <ele>139</ele>
        <time>2021-06-05T12:42:03Z</time>
      </trkpt>
      <trkpt lat="43.66634" lon="3.36227">
        <ele>139</ele>
        <time>2021-06-05T12:42:04Z</time>
      </trkpt>
      <trkpt lat="43.66634" lon="3.36232">
        <ele>139</ele>
        <time>2021-06-05T12:42:05Z</time>
      </trkpt>
      <trkpt lat="43.66634" lon="3.36237">
        <ele>139</ele>
        <time>2021-06-05T12:42:06Z</time>
      </trkpt>
      <trkpt lat="43.66634" lon="3.36242">
        <ele>139</ele>
        <time>2021-06-05T12:42:07Z</time>
      </trkpt>
      <trkpt lat="43.66635" lon="3.36246">
        <ele>139</ele>
        <time>2021-06-05T12:42:08Z</time>
      </trkpt>
      <trkpt lat="43.66636" lon="3.36248">
        <ele>139</ele>
        <time>2021-06-05T12:42:09Z</time>
      </trkpt>
      <trkpt lat="43.66635" lon="3.36252">
        <ele>139</ele>
        <time>2021-06-05T12:42:11Z</time>
      </trkpt>
      <trkpt lat="43.66634" lon="3.36254">
        <ele>139</ele>
        <time>2021-06-05T12:42:12Z</time>
      </trkpt>
      <trkpt lat="43.66634" lon="3.36257">
        <ele>139</ele>
        <time>2021-06-05T12:42:13Z</time>
      </trkpt>
      <trkpt lat="43.66633" lon="3.36262">
        <ele>139</ele>
        <time>2021-06-05T12:42:14Z</time>
      </trkpt>
      <trkpt lat="43.66631" lon="3.36266">
        <ele>139</ele>
        <time>2021-06-05T12:42:15Z</time>
      </trkpt>
      <trkpt lat="43.66629" lon="3.3627">
        <ele>139</ele>
        <time>2021-06-05T12:42:16Z</time>
      </trkpt>
      <trkpt lat="43.66628" lon="3.36272">
        <ele>139</ele>
        <time>2021-06-05T12:42:17Z</time>
      </trkpt>
      <trkpt lat="43.66627" lon="3.36276">
        <ele>139</ele>
        <time>2021-06-05T12:42:19Z</time>
      </trkpt>
      <trkpt lat="43.66626" lon="3.36279">
        <ele>139</ele>
        <time>2021-06-05T12:42:21Z</time>
      </trkpt>
      <trkpt lat="43.66624" lon="3.36282">
        <ele>140</ele>
        <time>2021-06-05T12:42:22Z</time>
      </trkpt>
      <trkpt lat="43.6662" lon="3.36282">
        <ele>140</ele>
        <time>2021-06-05T12:42:24Z</time>
      </trkpt>
      <trkpt lat="43.66618" lon="3.36279">
        <ele>140</ele>
        <time>2021-06-05T12:42:25Z</time>
      </trkpt>
      <trkpt lat="43.66616" lon="3.36277">
        <ele>140</ele>
        <time>2021-06-05T12:42:26Z</time>
      </trkpt>
      <trkpt lat="43.66615" lon="3.36275">
        <ele>140</ele>
        <time>2021-06-05T12:42:27Z</time>
      </trkpt>
      <trkpt lat="43.66613" lon="3.36275">
        <ele>140</ele>
        <time>2021-06-05T12:42:28Z</time>
      </trkpt>
      <trkpt lat="43.66609" lon="3.36274">
        <ele>140</ele>
        <time>2021-06-05T12:42:30Z</time>
      </trkpt>
      <trkpt lat="43.66606" lon="3.36274">
        <ele>141</ele>
        <time>2021-06-05T12:42:33Z</time>
      </trkpt>
      <trkpt lat="43.66604" lon="3.36274">
        <ele>141</ele>
        <time>2021-06-05T12:42:34Z</time>
      </trkpt>
      <trkpt lat="43.66602" lon="3.36274">
        <ele>141</ele>
        <time>2021-06-05T12:42:35Z</time>
      </trkpt>
      <trkpt lat="43.66599" lon="3.36274">
        <ele>141</ele>
        <time>2021-06-05T12:42:36Z</time>
      </trkpt>
      <trkpt lat="43.66596" lon="3.36274">
        <ele>141</ele>
        <time>2021-06-05T12:42:37Z</time>
      </trkpt>
      <trkpt lat="43.66594" lon="3.36274">
        <ele>141</ele>
        <time>2021-06-05T12:42:38Z</time>
      </trkpt>
      <trkpt lat="43.66591" lon="3.36275">
        <ele>141</ele>
        <time>2021-06-05T12:42:39Z</time>
      </trkpt>
      <trkpt lat="43.66587" lon="3.36275">
        <ele>141</ele>
        <time>2021-06-05T12:42:40Z</time>
      </trkpt>
      <trkpt lat="43.66584" lon="3.36276">
        <ele>141</ele>
        <time>2021-06-05T12:42:41Z</time>
      </trkpt>
      <trkpt lat="43.66581" lon="3.36278">
        <ele>142</ele>
        <time>2021-06-05T12:42:42Z</time>
      </trkpt>
      <trkpt lat="43.66578" lon="3.36279">
        <ele>142</ele>
        <time>2021-06-05T12:42:43Z</time>
      </trkpt>
      <trkpt lat="43.66576" lon="3.3628">
        <ele>142</ele>
        <time>2021-06-05T12:42:44Z</time>
      </trkpt>
      <trkpt lat="43.66573" lon="3.3628">
        <ele>142</ele>
        <time>2021-06-05T12:42:45Z</time>
      </trkpt>
      <trkpt lat="43.66571" lon="3.36281">
        <ele>142</ele>
        <time>2021-06-05T12:42:46Z</time>
      </trkpt>
      <trkpt lat="43.66568" lon="3.36281">
        <ele>142</ele>
        <time>2021-06-05T12:42:47Z</time>
      </trkpt>
      <trkpt lat="43.66566" lon="3.36282">
        <ele>142</ele>
        <time>2021-06-05T12:42:48Z</time>
      </trkpt>
      <trkpt lat="43.66565" lon="3.36284">
        <ele>142</ele>
        <time>2021-06-05T12:42:49Z</time>
      </trkpt>
      <trkpt lat="43.66563" lon="3.36286">
        <ele>142</ele>
        <time>2021-06-05T12:42:50Z</time>
      </trkpt>
      <trkpt lat="43.66561" lon="3.36289">
        <ele>142</ele>
        <time>2021-06-05T12:42:51Z</time>
      </trkpt>
      <trkpt lat="43.66558" lon="3.36291">
        <ele>142</ele>
        <time>2021-06-05T12:42:52Z</time>
      </trkpt>
      <trkpt lat="43.66556" lon="3.36294">
        <ele>142</ele>
        <time>2021-06-05T12:42:53Z</time>
      </trkpt>
      <trkpt lat="43.66554" lon="3.36298">
        <ele>142</ele>
        <time>2021-06-05T12:42:54Z</time>
      </trkpt>
      <trkpt lat="43.66552" lon="3.36302">
        <ele>142</ele>
        <time>2021-06-05T12:42:55Z</time>
      </trkpt>
      <trkpt lat="43.6655" lon="3.36306">
        <ele>142</ele>
        <time>2021-06-05T12:42:56Z</time>
      </trkpt>
      <trkpt lat="43.66549" lon="3.36311">
        <ele>142</ele>
        <time>2021-06-05T12:42:57Z</time>
      </trkpt>
      <trkpt lat="43.66547" lon="3.36317">
        <ele>142</ele>
        <time>2021-06-05T12:42:58Z</time>
      </trkpt>
      <trkpt lat="43.66546" lon="3.36323">
        <ele>142</ele>
        <time>2021-06-05T12:42:59Z</time>
      </trkpt>
      <trkpt lat="43.66544" lon="3.36329">
        <ele>142</ele>
        <time>2021-06-05T12:43:00Z</time>
      </trkpt>
      <trkpt lat="43.66543" lon="3.36335">
        <ele>142</ele>
        <time>2021-06-05T12:43:01Z</time>
      </trkpt>
      <trkpt lat="43.66543" lon="3.36341">
        <ele>142</ele>
        <time>2021-06-05T12:43:02Z</time>
      </trkpt>
      <trkpt lat="43.66543" lon="3.36347">
        <ele>142</ele>
        <time>2021-06-05T12:43:03Z</time>
      </trkpt>
      <trkpt lat="43.66543" lon="3.36352">
        <ele>142</ele>
        <time>2021-06-05T12:43:04Z</time>
      </trkpt>
      <trkpt lat="43.66543" lon="3.36358">
        <ele>142</ele>
        <time>2021-06-05T12:43:05Z</time>
      </trkpt>
      <trkpt lat="43.66543" lon="3.36364">
        <ele>142</ele>
        <time>2021-06-05T12:43:06Z</time>
      </trkpt>
      <trkpt lat="43.66544" lon="3.36369">
        <ele>142</ele>
        <time>2021-06-05T12:43:07Z</time>
      </trkpt>
      <trkpt lat="43.66545" lon="3.36374">
        <ele>142</ele>
        <time>2021-06-05T12:43:08Z</time>
      </trkpt>
      <trkpt lat="43.66546" lon="3.36378">
        <ele>142</ele>
        <time>2021-06-05T12:43:09Z</time>
      </trkpt>
      <trkpt lat="43.66547" lon="3.36383">
        <ele>142</ele>
        <time>2021-06-05T12:43:10Z</time>
      </trkpt>
      <trkpt lat="43.66548" lon="3.36388">
        <ele>142</ele>
        <time>2021-06-05T12:43:11Z</time>
      </trkpt>
      <trkpt lat="43.6655" lon="3.36393">
        <ele>141</ele>
        <time>2021-06-05T12:43:12Z</time>
      </trkpt>
      <trkpt lat="43.6655" lon="3.36398">
        <ele>141</ele>
        <time>2021-06-05T12:43:13Z</time>
      </trkpt>
      <trkpt lat="43.66551" lon="3.36403">
        <ele>141</ele>
        <time>2021-06-05T12:43:14Z</time>
      </trkpt>
      <trkpt lat="43.66551" lon="3.36406">
        <ele>141</ele>
        <time>2021-06-05T12:43:15Z</time>
      </trkpt>
      <trkpt lat="43.66552" lon="3.3641">
        <ele>141</ele>
        <time>2021-06-05T12:43:16Z</time>
      </trkpt>
      <trkpt lat="43.66552" lon="3.36413">
        <ele>141</ele>
        <time>2021-06-05T12:43:17Z</time>
      </trkpt>
      <trkpt lat="43.66552" lon="3.36418">
        <ele>141</ele>
        <time>2021-06-05T12:43:18Z</time>
      </trkpt>
      <trkpt lat="43.66553" lon="3.36422">
        <ele>141</ele>
        <time>2021-06-05T12:43:19Z</time>
      </trkpt>
      <trkpt lat="43.66552" lon="3.36427">
        <ele>141</ele>
        <time>2021-06-05T12:43:20Z</time>
      </trkpt>
      <trkpt lat="43.66551" lon="3.36432">
        <ele>141</ele>
        <time>2021-06-05T12:43:21Z</time>
      </trkpt>
      <trkpt lat="43.6655" lon="3.36436">
        <ele>141</ele>
        <time>2021-06-05T12:43:22Z</time>
      </trkpt>
      <trkpt lat="43.66549" lon="3.3644">
        <ele>141</ele>
        <time>2021-06-05T12:43:23Z</time>
      </trkpt>
      <trkpt lat="43.66548" lon="3.36445">
        <ele>141</ele>
        <time>2021-06-05T12:43:24Z</time>
      </trkpt>
      <trkpt lat="43.66546" lon="3.3645">
        <ele>141</ele>
        <time>2021-06-05T12:43:25Z</time>
      </trkpt>
      <trkpt lat="43.66543" lon="3.36455">
        <ele>141</ele>
        <time>2021-06-05T12:43:26Z</time>
      </trkpt>
      <trkpt lat="43.66541" lon="3.36459">
        <ele>141</ele>
        <time>2021-06-05T12:43:27Z</time>
      </trkpt>
      <trkpt lat="43.66538" lon="3.36464">
        <ele>141</ele>
        <time>2021-06-05T12:43:28Z</time>
      </trkpt>
      <trkpt lat="43.66535" lon="3.36467">
        <ele>141</ele>
        <time>2021-06-05T12:43:29Z</time>
      </trkpt>
      <trkpt lat="43.66533" lon="3.36471">
        <ele>141</ele>
        <time>2021-06-05T12:43:30Z</time>
      </trkpt>
      <trkpt lat="43.66531" lon="3.36476">
        <ele>141</ele>
        <time>2021-06-05T12:43:31Z</time>
      </trkpt>
      <trkpt lat="43.66529" lon="3.3648">
        <ele>141</ele>
        <time>2021-06-05T12:43:32Z</time>
      </trkpt>
      <trkpt lat="43.66528" lon="3.36484">
        <ele>141</ele>
        <time>2021-06-05T12:43:33Z</time>
      </trkpt>
      <trkpt lat="43.66527" lon="3.36489">
        <ele>141</ele>
        <time>2021-06-05T12:43:34Z</time>
      </trkpt>
      <trkpt lat="43.66525" lon="3.36493">
        <ele>141</ele>
        <time>2021-06-05T12:43:35Z</time>
      </trkpt>
      <trkpt lat="43.66523" lon="3.36496">
        <ele>141</ele>
        <time>2021-06-05T12:43:36Z</time>
      </trkpt>
      <trkpt lat="43.66521" lon="3.36499">
        <ele>141</ele>
        <time>2021-06-05T12:43:37Z</time>
      </trkpt>
      <trkpt lat="43.66519" lon="3.36502">
        <ele>141</ele>
        <time>2021-06-05T12:43:38Z</time>
      </trkpt>
      <trkpt lat="43.66516" lon="3.36505">
        <ele>141</ele>
        <time>2021-06-05T12:43:39Z</time>
      </trkpt>
      <trkpt lat="43.66514" lon="3.36508">
        <ele>141</ele>
        <time>2021-06-05T12:43:40Z</time>
      </trkpt>
      <trkpt lat="43.66511" lon="3.36511">
        <ele>141</ele>
        <time>2021-06-05T12:43:41Z</time>
      </trkpt>
      <trkpt lat="43.66509" lon="3.36514">
        <ele>142</ele>
        <time>2021-06-05T12:43:42Z</time>
      </trkpt>
      <trkpt lat="43.66506" lon="3.36517">
        <ele>142</ele>
        <time>2021-06-05T12:43:43Z</time>
      </trkpt>
      <trkpt lat="43.66503" lon="3.36521">
        <ele>142</ele>
        <time>2021-06-05T12:43:44Z</time>
      </trkpt>
      <trkpt lat="43.665" lon="3.36525">
        <ele>142</ele>
        <time>2021-06-05T12:43:45Z</time>
      </trkpt>
      <trkpt lat="43.66497" lon="3.3653">
        <ele>142</ele>
        <time>2021-06-05T12:43:46Z</time>
      </trkpt>
      <trkpt lat="43.66495" lon="3.36535">
        <ele>142</ele>
        <time>2021-06-05T12:43:47Z</time>
      </trkpt>
      <trkpt lat="43.66493" lon="3.3654">
        <ele>142</ele>
        <time>2021-06-05T12:43:48Z</time>
      </trkpt>
      <trkpt lat="43.66492" lon="3.36544">
        <ele>142</ele>
        <time>2021-06-05T12:43:49Z</time>
      </trkpt>
      <trkpt lat="43.66491" lon="3.36549">
        <ele>142</ele>
        <time>2021-06-05T12:43:50Z</time>
      </trkpt>
      <trkpt lat="43.6649" lon="3.36553">
        <ele>142</ele>
        <time>2021-06-05T12:43:51Z</time>
      </trkpt>
      <trkpt lat="43.6649" lon="3.36556">
        <ele>141</ele>
        <time>2021-06-05T12:43:52Z</time>
      </trkpt>
      <trkpt lat="43.6649" lon="3.3656">
        <ele>141</ele>
        <time>2021-06-05T12:43:53Z</time>
      </trkpt>
      <trkpt lat="43.6649" lon="3.36564">
        <ele>141</ele>
        <time>2021-06-05T12:43:54Z</time>
      </trkpt>
      <trkpt lat="43.66489" lon="3.36569">
        <ele>141</ele>
        <time>2021-06-05T12:43:55Z</time>
      </trkpt>
      <trkpt lat="43.66489" lon="3.36574">
        <ele>141</ele>
        <time>2021-06-05T12:43:56Z</time>
      </trkpt>
      <trkpt lat="43.66489" lon="3.36579">
        <ele>141</ele>
        <time>2021-06-05T12:43:57Z</time>
      </trkpt>
      <trkpt lat="43.66488" lon="3.36586">
        <ele>141</ele>
        <time>2021-06-05T12:43:58Z</time>
      </trkpt>
      <trkpt lat="43.66488" lon="3.36592">
        <ele>141</ele>
        <time>2021-06-05T12:43:59Z</time>
      </trkpt>
      <trkpt lat="43.66485" lon="3.36598">
        <ele>141</ele>
        <time>2021-06-05T12:44:00Z</time>
      </trkpt>
      <trkpt lat="43.66482" lon="3.36603">
        <ele>141</ele>
        <time>2021-06-05T12:44:01Z</time>
      </trkpt>
      <trkpt lat="43.66478" lon="3.36606">
        <ele>141</ele>
        <time>2021-06-05T12:44:02Z</time>
      </trkpt>
      <trkpt lat="43.66475" lon="3.36608">
        <ele>141</ele>
        <time>2021-06-05T12:44:03Z</time>
      </trkpt>
      <trkpt lat="43.66473" lon="3.36611">
        <ele>141</ele>
        <time>2021-06-05T12:44:04Z</time>
      </trkpt>
      <trkpt lat="43.66471" lon="3.36613">
        <ele>141</ele>
        <time>2021-06-05T12:44:05Z</time>
      </trkpt>
      <trkpt lat="43.6647" lon="3.36615">
        <ele>141</ele>
        <time>2021-06-05T12:44:06Z</time>
      </trkpt>
      <trkpt lat="43.66468" lon="3.36617">
        <ele>141</ele>
        <time>2021-06-05T12:44:07Z</time>
      </trkpt>
      <trkpt lat="43.66467" lon="3.3662">
        <ele>141</ele>
        <time>2021-06-05T12:44:08Z</time>
      </trkpt>
      <trkpt lat="43.66466" lon="3.36623">
        <ele>141</ele>
        <time>2021-06-05T12:44:09Z</time>
      </trkpt>
      <trkpt lat="43.66465" lon="3.36627">
        <ele>141</ele>
        <time>2021-06-05T12:44:10Z</time>
      </trkpt>
      <trkpt lat="43.66464" lon="3.3663">
        <ele>141</ele>
        <time>2021-06-05T12:44:11Z</time>
      </trkpt>
      <trkpt lat="43.66463" lon="3.36633">
        <ele>142</ele>
        <time>2021-06-05T12:44:12Z</time>
      </trkpt>
      <trkpt lat="43.66462" lon="3.36637">
        <ele>142</ele>
        <time>2021-06-05T12:44:13Z</time>
      </trkpt>
      <trkpt lat="43.6646" lon="3.3664">
        <ele>142</ele>
        <time>2021-06-05T12:44:14Z</time>
      </trkpt>
      <trkpt lat="43.66459" lon="3.36643">
        <ele>142</ele>
        <time>2021-06-05T12:44:15Z</time>
      </trkpt>
      <trkpt lat="43.66458" lon="3.36646">
        <ele>142</ele>
        <time>2021-06-05T12:44:15Z</time>
      </trkpt>
      <trkpt lat="43.66457" lon="3.3665">
        <ele>142</ele>
        <time>2021-06-05T12:44:16Z</time>
      </trkpt>
      <trkpt lat="43.66456" lon="3.36653">
        <ele>142</ele>
        <time>2021-06-05T12:44:17Z</time>
      </trkpt>
      <trkpt lat="43.66455" lon="3.36656">
        <ele>142</ele>
        <time>2021-06-05T12:44:18Z</time>
      </trkpt>
      <trkpt lat="43.66454" lon="3.3666">
        <ele>142</ele>
        <time>2021-06-05T12:44:19Z</time>
      </trkpt>
      <trkpt lat="43.66453" lon="3.36665">
        <ele>142</ele>
        <time>2021-06-05T12:44:21Z</time>
      </trkpt>
      <trkpt lat="43.66453" lon="3.36669">
        <ele>142</ele>
        <time>2021-06-05T12:44:22Z</time>
      </trkpt>
      <trkpt lat="43.66453" lon="3.36674">
        <ele>142</ele>
        <time>2021-06-05T12:44:23Z</time>
      </trkpt>
      <trkpt lat="43.66452" lon="3.36679">
        <ele>142</ele>
        <time>2021-06-05T12:44:24Z</time>
      </trkpt>
      <trkpt lat="43.66452" lon="3.36684">
        <ele>142</ele>
        <time>2021-06-05T12:44:25Z</time>
      </trkpt>
      <trkpt lat="43.66451" lon="3.36689">
        <ele>142</ele>
        <time>2021-06-05T12:44:26Z</time>
      </trkpt>
      <trkpt lat="43.6645" lon="3.36692">
        <ele>142</ele>
        <time>2021-06-05T12:44:27Z</time>
      </trkpt>
      <trkpt lat="43.66449" lon="3.36696">
        <ele>142</ele>
        <time>2021-06-05T12:44:28Z</time>
      </trkpt>
      <trkpt lat="43.66447" lon="3.36698">
        <ele>142</ele>
        <time>2021-06-05T12:44:29Z</time>
      </trkpt>
      <trkpt lat="43.66444" lon="3.367">
        <ele>142</ele>
        <time>2021-06-05T12:44:30Z</time>
      </trkpt>
      <trkpt lat="43.66443" lon="3.36704">
        <ele>142</ele>
        <time>2021-06-05T12:44:31Z</time>
      </trkpt>
      <trkpt lat="43.66441" lon="3.36707">
        <ele>143</ele>
        <time>2021-06-05T12:44:32Z</time>
      </trkpt>
      <trkpt lat="43.6644" lon="3.36711">
        <ele>143</ele>
        <time>2021-06-05T12:44:33Z</time>
      </trkpt>
      <trkpt lat="43.66438" lon="3.36715">
        <ele>143</ele>
        <time>2021-06-05T12:44:34Z</time>
      </trkpt>
      <trkpt lat="43.66437" lon="3.36719">
        <ele>143</ele>
        <time>2021-06-05T12:44:35Z</time>
      </trkpt>
      <trkpt lat="43.66437" lon="3.36724">
        <ele>143</ele>
        <time>2021-06-05T12:44:36Z</time>
      </trkpt>
      <trkpt lat="43.66436" lon="3.36728">
        <ele>143</ele>
        <time>2021-06-05T12:44:37Z</time>
      </trkpt>
      <trkpt lat="43.66435" lon="3.36732">
        <ele>143</ele>
        <time>2021-06-05T12:44:38Z</time>
      </trkpt>
      <trkpt lat="43.66435" lon="3.36737">
        <ele>143</ele>
        <time>2021-06-05T12:44:39Z</time>
      </trkpt>
      <trkpt lat="43.66434" lon="3.36741">
        <ele>143</ele>
        <time>2021-06-05T12:44:40Z</time>
      </trkpt>
      <trkpt lat="43.66432" lon="3.36745">
        <ele>143</ele>
        <time>2021-06-05T12:44:41Z</time>
      </trkpt>
      <trkpt lat="43.66431" lon="3.36749">
        <ele>143</ele>
        <time>2021-06-05T12:44:42Z</time>
      </trkpt>
      <trkpt lat="43.6643" lon="3.36753">
        <ele>143</ele>
        <time>2021-06-05T12:44:43Z</time>
      </trkpt>
      <trkpt lat="43.66429" lon="3.36757">
        <ele>143</ele>
        <time>2021-06-05T12:44:44Z</time>
      </trkpt>
      <trkpt lat="43.66428" lon="3.3676">
        <ele>143</ele>
        <time>2021-06-05T12:44:45Z</time>
      </trkpt>
      <trkpt lat="43.66427" lon="3.36764">
        <ele>143</ele>
        <time>2021-06-05T12:44:46Z</time>
      </trkpt>
      <trkpt lat="43.66427" lon="3.36767">
        <ele>143</ele>
        <time>2021-06-05T12:44:47Z</time>
      </trkpt>
      <trkpt lat="43.66426" lon="3.36771">
        <ele>143</ele>
        <time>2021-06-05T12:44:48Z</time>
      </trkpt>
      <trkpt lat="43.66425" lon="3.36774">
        <ele>143</ele>
        <time>2021-06-05T12:44:49Z</time>
      </trkpt>
      <trkpt lat="43.66424" lon="3.36778">
        <ele>143</ele>
        <time>2021-06-05T12:44:50Z</time>
      </trkpt>
      <trkpt lat="43.66423" lon="3.36782">
        <ele>143</ele>
        <time>2021-06-05T12:44:51Z</time>
      </trkpt>
      <trkpt lat="43.66423" lon="3.36786">
        <ele>144</ele>
        <time>2021-06-05T12:44:52Z</time>
      </trkpt>
      <trkpt lat="43.66422" lon="3.36791">
        <ele>144</ele>
        <time>2021-06-05T12:44:53Z</time>
      </trkpt>
      <trkpt lat="43.66423" lon="3.36797">
        <ele>144</ele>
        <time>2021-06-05T12:44:54Z</time>
      </trkpt>
      <trkpt lat="43.66423" lon="3.36803">
        <ele>144</ele>
        <time>2021-06-05T12:44:55Z</time>
      </trkpt>
      <trkpt lat="43.66424" lon="3.36811">
        <ele>144</ele>
        <time>2021-06-05T12:44:56Z</time>
      </trkpt>
      <trkpt lat="43.66424" lon="3.36818">
        <ele>144</ele>
        <time>2021-06-05T12:44:57Z</time>
      </trkpt>
      <trkpt lat="43.66423" lon="3.36825">
        <ele>144</ele>
        <time>2021-06-05T12:44:58Z</time>
      </trkpt>
      <trkpt lat="43.66423" lon="3.36832">
        <ele>144</ele>
        <time>2021-06-05T12:44:59Z</time>
      </trkpt>
      <trkpt lat="43.66423" lon="3.36838">
        <ele>144</ele>
        <time>2021-06-05T12:45:00Z</time>
      </trkpt>
      <trkpt lat="43.66421" lon="3.36843">
        <ele>143</ele>
        <time>2021-06-05T12:45:01Z</time>
      </trkpt>
      <trkpt lat="43.6642" lon="3.36847">
        <ele>143</ele>
        <time>2021-06-05T12:45:02Z</time>
      </trkpt>
      <trkpt lat="43.66418" lon="3.36851">
        <ele>143</ele>
        <time>2021-06-05T12:45:03Z</time>
      </trkpt>
      <trkpt lat="43.66416" lon="3.36854">
        <ele>143</ele>
        <time>2021-06-05T12:45:04Z</time>
      </trkpt>
      <trkpt lat="43.66414" lon="3.36857">
        <ele>143</ele>
        <time>2021-06-05T12:45:05Z</time>
      </trkpt>
      <trkpt lat="43.66412" lon="3.36859">
        <ele>143</ele>
        <time>2021-06-05T12:45:06Z</time>
      </trkpt>
      <trkpt lat="43.6641" lon="3.36862">
        <ele>143</ele>
        <time>2021-06-05T12:45:07Z</time>
      </trkpt>
      <trkpt lat="43.66408" lon="3.36866">
        <ele>143</ele>
        <time>2021-06-05T12:45:08Z</time>
      </trkpt>
      <trkpt lat="43.66406" lon="3.36869">
        <ele>143</ele>
        <time>2021-06-05T12:45:09Z</time>
      </trkpt>
      <trkpt lat="43.66404" lon="3.36872">
        <ele>143</ele>
        <time>2021-06-05T12:45:10Z</time>
      </trkpt>
      <trkpt lat="43.66402" lon="3.36875">
        <ele>143</ele>
        <time>2021-06-05T12:45:11Z</time>
      </trkpt>
      <trkpt lat="43.664" lon="3.36878">
        <ele>143</ele>
        <time>2021-06-05T12:45:12Z</time>
      </trkpt>
      <trkpt lat="43.66399" lon="3.36881">
        <ele>143</ele>
        <time>2021-06-05T12:45:13Z</time>
      </trkpt>
      <trkpt lat="43.66398" lon="3.36885">
        <ele>143</ele>
        <time>2021-06-05T12:45:14Z</time>
      </trkpt>
      <trkpt lat="43.66396" lon="3.36888">
        <ele>143</ele>
        <time>2021-06-05T12:45:15Z</time>
      </trkpt>
      <trkpt lat="43.66395" lon="3.36891">
        <ele>143</ele>
        <time>2021-06-05T12:45:16Z</time>
      </trkpt>
      <trkpt lat="43.66393" lon="3.36894">
        <ele>143</ele>
        <time>2021-06-05T12:45:17Z</time>
      </trkpt>
      <trkpt lat="43.66391" lon="3.36898">
        <ele>143</ele>
        <time>2021-06-05T12:45:18Z</time>
      </trkpt>
      <trkpt lat="43.66389" lon="3.36902">
        <ele>143</ele>
        <time>2021-06-05T12:45:19Z</time>
      </trkpt>
      <trkpt lat="43.66387" lon="3.36906">
        <ele>143</ele>
        <time>2021-06-05T12:45:20Z</time>
      </trkpt>
      <trkpt lat="43.66384" lon="3.36909">
        <ele>143</ele>
        <time>2021-06-05T12:45:21Z</time>
      </trkpt>
      <trkpt lat="43.66382" lon="3.36911">
        <ele>144</ele>
        <time>2021-06-05T12:45:22Z</time>
      </trkpt>
      <trkpt lat="43.6638" lon="3.36913">
        <ele>144</ele>
        <time>2021-06-05T12:45:23Z</time>
      </trkpt>
      <trkpt lat="43.66379" lon="3.36915">
        <ele>144</ele>
        <time>2021-06-05T12:45:24Z</time>
      </trkpt>
      <trkpt lat="43.66378" lon="3.36918">
        <ele>144</ele>
        <time>2021-06-05T12:45:25Z</time>
      </trkpt>
      <trkpt lat="43.66378" lon="3.36921">
        <ele>144</ele>
        <time>2021-06-05T12:45:26Z</time>
      </trkpt>
      <trkpt lat="43.66376" lon="3.36923">
        <ele>144</ele>
        <time>2021-06-05T12:45:27Z</time>
      </trkpt>
      <trkpt lat="43.66375" lon="3.36926">
        <ele>144</ele>
        <time>2021-06-05T12:45:28Z</time>
      </trkpt>
      <trkpt lat="43.66374" lon="3.36929">
        <ele>144</ele>
        <time>2021-06-05T12:45:29Z</time>
      </trkpt>
      <trkpt lat="43.66373" lon="3.36932">
        <ele>144</ele>
        <time>2021-06-05T12:45:30Z</time>
      </trkpt>
      <trkpt lat="43.66371" lon="3.36935">
        <ele>144</ele>
        <time>2021-06-05T12:45:31Z</time>
      </trkpt>
      <trkpt lat="43.66369" lon="3.36939">
        <ele>145</ele>
        <time>2021-06-05T12:45:32Z</time>
      </trkpt>
      <trkpt lat="43.66368" lon="3.36942">
        <ele>145</ele>
        <time>2021-06-05T12:45:33Z</time>
      </trkpt>
      <trkpt lat="43.66367" lon="3.36946">
        <ele>145</ele>
        <time>2021-06-05T12:45:34Z</time>
      </trkpt>
      <trkpt lat="43.66366" lon="3.3695">
        <ele>145</ele>
        <time>2021-06-05T12:45:35Z</time>
      </trkpt>
      <trkpt lat="43.66365" lon="3.36954">
        <ele>145</ele>
        <time>2021-06-05T12:45:36Z</time>
      </trkpt>
      <trkpt lat="43.66364" lon="3.36958">
        <ele>145</ele>
        <time>2021-06-05T12:45:37Z</time>
      </trkpt>
      <trkpt lat="43.66362" lon="3.36962">
        <ele>145</ele>
        <time>2021-06-05T12:45:38Z</time>
      </trkpt>
      <trkpt lat="43.66361" lon="3.36968">
        <ele>145</ele>
        <time>2021-06-05T12:45:39Z</time>
      </trkpt>
      <trkpt lat="43.6636" lon="3.36974">
        <ele>145</ele>
        <time>2021-06-05T12:45:40Z</time>
      </trkpt>
      <trkpt lat="43.66359" lon="3.3698">
        <ele>145</ele>
        <time>2021-06-05T12:45:41Z</time>
      </trkpt>
      <trkpt lat="43.66358" lon="3.36985">
        <ele>145</ele>
        <time>2021-06-05T12:45:42Z</time>
      </trkpt>
      <trkpt lat="43.66357" lon="3.36991">
        <ele>145</ele>
        <time>2021-06-05T12:45:43Z</time>
      </trkpt>
      <trkpt lat="43.66355" lon="3.36995">
        <ele>145</ele>
        <time>2021-06-05T12:45:44Z</time>
      </trkpt>
      <trkpt lat="43.66354" lon="3.37">
        <ele>145</ele>
        <time>2021-06-05T12:45:45Z</time>
      </trkpt>
      <trkpt lat="43.66352" lon="3.37003">
        <ele>145</ele>
        <time>2021-06-05T12:45:46Z</time>
      </trkpt>
      <trkpt lat="43.66349" lon="3.37006">
        <ele>145</ele>
        <time>2021-06-05T12:45:47Z</time>
      </trkpt>
      <trkpt lat="43.66346" lon="3.37009">
        <ele>145</ele>
        <time>2021-06-05T12:45:48Z</time>
      </trkpt>
      <trkpt lat="43.66342" lon="3.37012">
        <ele>145</ele>
        <time>2021-06-05T12:45:49Z</time>
      </trkpt>
      <trkpt lat="43.66338" lon="3.37016">
        <ele>145</ele>
        <time>2021-06-05T12:45:50Z</time>
      </trkpt>
      <trkpt lat="43.66336" lon="3.37021">
        <ele>145</ele>
        <time>2021-06-05T12:45:51Z</time>
      </trkpt>
      <trkpt lat="43.66333" lon="3.37024">
        <ele>144</ele>
        <time>2021-06-05T12:45:52Z</time>
      </trkpt>
      <trkpt lat="43.66331" lon="3.37028">
        <ele>144</ele>
        <time>2021-06-05T12:45:53Z</time>
      </trkpt>
      <trkpt lat="43.6633" lon="3.37031">
        <ele>144</ele>
        <time>2021-06-05T12:45:54Z</time>
      </trkpt>
      <trkpt lat="43.66328" lon="3.37035">
        <ele>144</ele>
        <time>2021-06-05T12:45:55Z</time>
      </trkpt>
      <trkpt lat="43.66326" lon="3.37037">
        <ele>144</ele>
        <time>2021-06-05T12:45:56Z</time>
      </trkpt>
      <trkpt lat="43.66324" lon="3.3704">
        <ele>144</ele>
        <time>2021-06-05T12:45:57Z</time>
      </trkpt>
      <trkpt lat="43.66322" lon="3.37042">
        <ele>144</ele>
        <time>2021-06-05T12:45:59Z</time>
      </trkpt>
      <trkpt lat="43.6632" lon="3.37045">
        <ele>144</ele>
        <time>2021-06-05T12:46:03Z</time>
      </trkpt>
      <trkpt lat="43.66318" lon="3.37047">
        <ele>144</ele>
        <time>2021-06-05T12:46:05Z</time>
      </trkpt>
      <trkpt lat="43.66316" lon="3.37048">
        <ele>144</ele>
        <time>2021-06-05T12:46:06Z</time>
      </trkpt>
      <trkpt lat="43.66314" lon="3.37049">
        <ele>144</ele>
        <time>2021-06-05T12:46:07Z</time>
      </trkpt>
      <trkpt lat="43.66312" lon="3.3705">
        <ele>144</ele>
        <time>2021-06-05T12:46:08Z</time>
      </trkpt>
      <trkpt lat="43.66309" lon="3.37053">
        <ele>144</ele>
        <time>2021-06-05T12:46:09Z</time>
      </trkpt>
      <trkpt lat="43.66307" lon="3.37055">
        <ele>144</ele>
        <time>2021-06-05T12:46:10Z</time>
      </trkpt>
      <trkpt lat="43.66305" lon="3.37058">
        <ele>144</ele>
        <time>2021-06-05T12:46:11Z</time>
      </trkpt>
      <trkpt lat="43.66303" lon="3.37061">
        <ele>143</ele>
        <time>2021-06-05T12:46:12Z</time>
      </trkpt>
      <trkpt lat="43.663" lon="3.37064">
        <ele>143</ele>
        <time>2021-06-05T12:46:13Z</time>
      </trkpt>
      <trkpt lat="43.66298" lon="3.37067">
        <ele>143</ele>
        <time>2021-06-05T12:46:14Z</time>
      </trkpt>
      <trkpt lat="43.66296" lon="3.37071">
        <ele>143</ele>
        <time>2021-06-05T12:46:15Z</time>
      </trkpt>
      <trkpt lat="43.66294" lon="3.37074">
        <ele>143</ele>
        <time>2021-06-05T12:46:16Z</time>
      </trkpt>
      <trkpt lat="43.66292" lon="3.37077">
        <ele>143</ele>
        <time>2021-06-05T12:46:17Z</time>
      </trkpt>
      <trkpt lat="43.6629" lon="3.37081">
        <ele>143</ele>
        <time>2021-06-05T12:46:18Z</time>
      </trkpt>
      <trkpt lat="43.66289" lon="3.37084">
        <ele>143</ele>
        <time>2021-06-05T12:46:19Z</time>
      </trkpt>
      <trkpt lat="43.66288" lon="3.37088">
        <ele>143</ele>
        <time>2021-06-05T12:46:20Z</time>
      </trkpt>
      <trkpt lat="43.66286" lon="3.37091">
        <ele>143</ele>
        <time>2021-06-05T12:46:21Z</time>
      </trkpt>
      <trkpt lat="43.66285" lon="3.37094">
        <ele>144</ele>
        <time>2021-06-05T12:46:22Z</time>
      </trkpt>
      <trkpt lat="43.66283" lon="3.37098">
        <ele>144</ele>
        <time>2021-06-05T12:46:23Z</time>
      </trkpt>
      <trkpt lat="43.66282" lon="3.37101">
        <ele>144</ele>
        <time>2021-06-05T12:46:24Z</time>
      </trkpt>
      <trkpt lat="43.66281" lon="3.37104">
        <ele>144</ele>
        <time>2021-06-05T12:46:25Z</time>
      </trkpt>
      <trkpt lat="43.66281" lon="3.37107">
        <ele>144</ele>
        <time>2021-06-05T12:46:26Z</time>
      </trkpt>
      <trkpt lat="43.66281" lon="3.37111">
        <ele>144</ele>
        <time>2021-06-05T12:46:27Z</time>
      </trkpt>
      <trkpt lat="43.66281" lon="3.37114">
        <ele>144</ele>
        <time>2021-06-05T12:46:28Z</time>
      </trkpt>
      <trkpt lat="43.66282" lon="3.37118">
        <ele>144</ele>
        <time>2021-06-05T12:46:29Z</time>
      </trkpt>
      <trkpt lat="43.66282" lon="3.37121">
        <ele>144</ele>
        <time>2021-06-05T12:46:30Z</time>
      </trkpt>
      <trkpt lat="43.66283" lon="3.37124">
        <ele>144</ele>
        <time>2021-06-05T12:46:31Z</time>
      </trkpt>
      <trkpt lat="43.66283" lon="3.37128">
        <ele>144</ele>
        <time>2021-06-05T12:46:32Z</time>
      </trkpt>
      <trkpt lat="43.66283" lon="3.37131">
        <ele>144</ele>
        <time>2021-06-05T12:46:33Z</time>
      </trkpt>
      <trkpt lat="43.66283" lon="3.37134">
        <ele>144</ele>
        <time>2021-06-05T12:46:34Z</time>
      </trkpt>
      <trkpt lat="43.66283" lon="3.37138">
        <ele>144</ele>
        <time>2021-06-05T12:46:35Z</time>
      </trkpt>
      <trkpt lat="43.66284" lon="3.37141">
        <ele>144</ele>
        <time>2021-06-05T12:46:36Z</time>
      </trkpt>
      <trkpt lat="43.66285" lon="3.37144">
        <ele>144</ele>
        <time>2021-06-05T12:46:37Z</time>
      </trkpt>
      <trkpt lat="43.66285" lon="3.37148">
        <ele>144</ele>
        <time>2021-06-05T12:46:38Z</time>
      </trkpt>
      <trkpt lat="43.66286" lon="3.37151">
        <ele>144</ele>
        <time>2021-06-05T12:46:39Z</time>
      </trkpt>
      <trkpt lat="43.66287" lon="3.37154">
        <ele>144</ele>
        <time>2021-06-05T12:46:40Z</time>
      </trkpt>
      <trkpt lat="43.66288" lon="3.37158">
        <ele>144</ele>
        <time>2021-06-05T12:46:41Z</time>
      </trkpt>
      <trkpt lat="43.66289" lon="3.37161">
        <ele>144</ele>
        <time>2021-06-05T12:46:42Z</time>
      </trkpt>
      <trkpt lat="43.66289" lon="3.37164">
        <ele>144</ele>
        <time>2021-06-05T12:46:43Z</time>
      </trkpt>
      <trkpt lat="43.66289" lon="3.37167">
        <ele>144</ele>
        <time>2021-06-05T12:46:44Z</time>
      </trkpt>
      <trkpt lat="43.66289" lon="3.3717">
        <ele>144</ele>
        <time>2021-06-05T12:46:45Z</time>
      </trkpt>
      <trkpt lat="43.66289" lon="3.37173">
        <ele>144</ele>
        <time>2021-06-05T12:46:46Z</time>
      </trkpt>
      <trkpt lat="43.66289" lon="3.37176">
        <ele>144</ele>
        <time>2021-06-05T12:46:47Z</time>
      </trkpt>
      <trkpt lat="43.66289" lon="3.3718">
        <ele>144</ele>
        <time>2021-06-05T12:46:48Z</time>
      </trkpt>
      <trkpt lat="43.66289" lon="3.37183">
        <ele>144</ele>
        <time>2021-06-05T12:46:49Z</time>
      </trkpt>
      <trkpt lat="43.66288" lon="3.37186">
        <ele>144</ele>
        <time>2021-06-05T12:46:50Z</time>
      </trkpt>
      <trkpt lat="43.66288" lon="3.37189">
        <ele>144</ele>
        <time>2021-06-05T12:46:51Z</time>
      </trkpt>
      <trkpt lat="43.66288" lon="3.37192">
        <ele>144</ele>
        <time>2021-06-05T12:46:52Z</time>
      </trkpt>
      <trkpt lat="43.66287" lon="3.37196">
        <ele>144</ele>
        <time>2021-06-05T12:46:53Z</time>
      </trkpt>
      <trkpt lat="43.66286" lon="3.372">
        <ele>144</ele>
        <time>2021-06-05T12:46:54Z</time>
      </trkpt>
      <trkpt lat="43.66285" lon="3.37204">
        <ele>144</ele>
        <time>2021-06-05T12:46:55Z</time>
      </trkpt>
      <trkpt lat="43.66285" lon="3.37208">
        <ele>144</ele>
        <time>2021-06-05T12:46:56Z</time>
      </trkpt>
      <trkpt lat="43.66283" lon="3.37213">
        <ele>144</ele>
        <time>2021-06-05T12:46:57Z</time>
      </trkpt>
      <trkpt lat="43.66282" lon="3.37218">
        <ele>144</ele>
        <time>2021-06-05T12:46:58Z</time>
      </trkpt>
      <trkpt lat="43.66282" lon="3.37224">
        <ele>144</ele>
        <time>2021-06-05T12:46:59Z</time>
      </trkpt>
      <trkpt lat="43.66281" lon="3.3723">
        <ele>144</ele>
        <time>2021-06-05T12:47:00Z</time>
      </trkpt>
      <trkpt lat="43.66281" lon="3.37237">
        <ele>144</ele>
        <time>2021-06-05T12:47:01Z</time>
      </trkpt>
      <trkpt lat="43.6628" lon="3.37242">
        <ele>144</ele>
        <time>2021-06-05T12:47:02Z</time>
      </trkpt>
      <trkpt lat="43.66279" lon="3.37248">
        <ele>144</ele>
        <time>2021-06-05T12:47:03Z</time>
      </trkpt>
      <trkpt lat="43.66278" lon="3.37255">
        <ele>144</ele>
        <time>2021-06-05T12:47:04Z</time>
      </trkpt>
      <trkpt lat="43.66275" lon="3.37261">
        <ele>144</ele>
        <time>2021-06-05T12:47:05Z</time>
      </trkpt>
      <trkpt lat="43.66272" lon="3.37265">
        <ele>144</ele>
        <time>2021-06-05T12:47:06Z</time>
      </trkpt>
      <trkpt lat="43.6627" lon="3.3727">
        <ele>144</ele>
        <time>2021-06-05T12:47:07Z</time>
      </trkpt>
      <trkpt lat="43.66268" lon="3.37274">
        <ele>144</ele>
        <time>2021-06-05T12:47:08Z</time>
      </trkpt>
      <trkpt lat="43.66266" lon="3.3728">
        <ele>144</ele>
        <time>2021-06-05T12:47:09Z</time>
      </trkpt>
      <trkpt lat="43.66265" lon="3.37285">
        <ele>144</ele>
        <time>2021-06-05T12:47:10Z</time>
      </trkpt>
      <trkpt lat="43.66264" lon="3.37291">
        <ele>144</ele>
        <time>2021-06-05T12:47:11Z</time>
      </trkpt>
      <trkpt lat="43.66263" lon="3.37296">
        <ele>143</ele>
        <time>2021-06-05T12:47:12Z</time>
      </trkpt>
      <trkpt lat="43.66263" lon="3.37301">
        <ele>143</ele>
        <time>2021-06-05T12:47:13Z</time>
      </trkpt>
      <trkpt lat="43.66263" lon="3.37306">
        <ele>143</ele>
        <time>2021-06-05T12:47:14Z</time>
      </trkpt>
      <trkpt lat="43.66263" lon="3.37311">
        <ele>143</ele>
        <time>2021-06-05T12:47:15Z</time>
      </trkpt>
      <trkpt lat="43.66264" lon="3.37316">
        <ele>143</ele>
        <time>2021-06-05T12:47:16Z</time>
      </trkpt>
      <trkpt lat="43.66265" lon="3.3732">
        <ele>143</ele>
        <time>2021-06-05T12:47:17Z</time>
      </trkpt>
      <trkpt lat="43.66267" lon="3.37325">
        <ele>143</ele>
        <time>2021-06-05T12:47:18Z</time>
      </trkpt>
      <trkpt lat="43.66268" lon="3.3733">
        <ele>143</ele>
        <time>2021-06-05T12:47:19Z</time>
      </trkpt>
      <trkpt lat="43.66268" lon="3.37336">
        <ele>143</ele>
        <time>2021-06-05T12:47:20Z</time>
      </trkpt>
      <trkpt lat="43.66267" lon="3.37342">
        <ele>143</ele>
        <time>2021-06-05T12:47:21Z</time>
      </trkpt>
      <trkpt lat="43.66266" lon="3.37346">
        <ele>142</ele>
        <time>2021-06-05T12:47:22Z</time>
      </trkpt>
      <trkpt lat="43.66265" lon="3.3735">
        <ele>142</ele>
        <time>2021-06-05T12:47:23Z</time>
      </trkpt>
      <trkpt lat="43.66264" lon="3.37353">
        <ele>142</ele>
        <time>2021-06-05T12:47:24Z</time>
      </trkpt>
      <trkpt lat="43.66263" lon="3.37355">
        <ele>142</ele>
        <time>2021-06-05T12:47:25Z</time>
      </trkpt>
      <trkpt lat="43.66262" lon="3.37358">
        <ele>142</ele>
        <time>2021-06-05T12:47:26Z</time>
      </trkpt>
      <trkpt lat="43.66262" lon="3.3736">
        <ele>142</ele>
        <time>2021-06-05T12:47:27Z</time>
      </trkpt>
      <trkpt lat="43.66261" lon="3.37363">
        <ele>142</ele>
        <time>2021-06-05T12:47:28Z</time>
      </trkpt>
      <trkpt lat="43.66259" lon="3.37366">
        <ele>142</ele>
        <time>2021-06-05T12:47:29Z</time>
      </trkpt>
      <trkpt lat="43.66258" lon="3.3737">
        <ele>142</ele>
        <time>2021-06-05T12:47:30Z</time>
      </trkpt>
      <trkpt lat="43.66257" lon="3.37373">
        <ele>142</ele>
        <time>2021-06-05T12:47:31Z</time>
      </trkpt>
      <trkpt lat="43.66255" lon="3.37377">
        <ele>142</ele>
        <time>2021-06-05T12:47:32Z</time>
      </trkpt>
      <trkpt lat="43.66254" lon="3.3738">
        <ele>142</ele>
        <time>2021-06-05T12:47:33Z</time>
      </trkpt>
      <trkpt lat="43.66254" lon="3.37384">
        <ele>142</ele>
        <time>2021-06-05T12:47:34Z</time>
      </trkpt>
      <trkpt lat="43.66253" lon="3.37388">
        <ele>142</ele>
        <time>2021-06-05T12:47:35Z</time>
      </trkpt>
      <trkpt lat="43.66253" lon="3.37392">
        <ele>142</ele>
        <time>2021-06-05T12:47:36Z</time>
      </trkpt>
      <trkpt lat="43.66254" lon="3.37396">
        <ele>142</ele>
        <time>2021-06-05T12:47:37Z</time>
      </trkpt>
      <trkpt lat="43.66254" lon="3.37401">
        <ele>142</ele>
        <time>2021-06-05T12:47:38Z</time>
      </trkpt>
      <trkpt lat="43.66255" lon="3.37405">
        <ele>142</ele>
        <time>2021-06-05T12:47:39Z</time>
      </trkpt>
      <trkpt lat="43.66255" lon="3.37409">
        <ele>142</ele>
        <time>2021-06-05T12:47:40Z</time>
      </trkpt>
      <trkpt lat="43.66257" lon="3.37413">
        <ele>142</ele>
        <time>2021-06-05T12:47:41Z</time>
      </trkpt>
      <trkpt lat="43.66257" lon="3.37418">
        <ele>142</ele>
        <time>2021-06-05T12:47:42Z</time>
      </trkpt>
      <trkpt lat="43.66258" lon="3.37422">
        <ele>142</ele>
        <time>2021-06-05T12:47:43Z</time>
      </trkpt>
      <trkpt lat="43.66258" lon="3.37426">
        <ele>142</ele>
        <time>2021-06-05T12:47:44Z</time>
      </trkpt>
      <trkpt lat="43.66259" lon="3.37431">
        <ele>142</ele>
        <time>2021-06-05T12:47:45Z</time>
      </trkpt>
      <trkpt lat="43.6626" lon="3.37436">
        <ele>142</ele>
        <time>2021-06-05T12:47:46Z</time>
      </trkpt>
      <trkpt lat="43.66261" lon="3.3744">
        <ele>142</ele>
        <time>2021-06-05T12:47:47Z</time>
      </trkpt>
      <trkpt lat="43.66262" lon="3.37444">
        <ele>142</ele>
        <time>2021-06-05T12:47:48Z</time>
      </trkpt>
      <trkpt lat="43.66265" lon="3.37448">
        <ele>142</ele>
        <time>2021-06-05T12:47:49Z</time>
      </trkpt>
      <trkpt lat="43.66267" lon="3.37451">
        <ele>142</ele>
        <time>2021-06-05T12:47:50Z</time>
      </trkpt>
      <trkpt lat="43.66268" lon="3.37453">
        <ele>142</ele>
        <time>2021-06-05T12:47:51Z</time>
      </trkpt>
      <trkpt lat="43.6627" lon="3.37455">
        <ele>141</ele>
        <time>2021-06-05T12:47:52Z</time>
      </trkpt>
      <trkpt lat="43.66272" lon="3.37458">
        <ele>141</ele>
        <time>2021-06-05T12:47:53Z</time>
      </trkpt>
      <trkpt lat="43.66273" lon="3.37461">
        <ele>141</ele>
        <time>2021-06-05T12:47:54Z</time>
      </trkpt>
      <trkpt lat="43.66274" lon="3.37464">
        <ele>141</ele>
        <time>2021-06-05T12:47:55Z</time>
      </trkpt>
      <trkpt lat="43.66275" lon="3.37468">
        <ele>141</ele>
        <time>2021-06-05T12:47:56Z</time>
      </trkpt>
      <trkpt lat="43.66275" lon="3.37472">
        <ele>141</ele>
        <time>2021-06-05T12:47:57Z</time>
      </trkpt>
      <trkpt lat="43.66275" lon="3.37477">
        <ele>141</ele>
        <time>2021-06-05T12:47:58Z</time>
      </trkpt>
      <trkpt lat="43.66275" lon="3.37482">
        <ele>141</ele>
        <time>2021-06-05T12:47:59Z</time>
      </trkpt>
      <trkpt lat="43.66274" lon="3.37486">
        <ele>141</ele>
        <time>2021-06-05T12:48:00Z</time>
      </trkpt>
      <trkpt lat="43.66272" lon="3.3749">
        <ele>141</ele>
        <time>2021-06-05T12:48:01Z</time>
      </trkpt>
      <trkpt lat="43.66272" lon="3.37495">
        <ele>140</ele>
        <time>2021-06-05T12:48:02Z</time>
      </trkpt>
      <trkpt lat="43.66272" lon="3.37499">
        <ele>140</ele>
        <time>2021-06-05T12:48:03Z</time>
      </trkpt>
      <trkpt lat="43.66272" lon="3.37503">
        <ele>140</ele>
        <time>2021-06-05T12:48:04Z</time>
      </trkpt>
      <trkpt lat="43.66272" lon="3.37507">
        <ele>140</ele>
        <time>2021-06-05T12:48:05Z</time>
      </trkpt>
      <trkpt lat="43.66271" lon="3.37512">
        <ele>140</ele>
        <time>2021-06-05T12:48:06Z</time>
      </trkpt>
      <trkpt lat="43.66271" lon="3.37517">
        <ele>140</ele>
        <time>2021-06-05T12:48:07Z</time>
      </trkpt>
      <trkpt lat="43.66271" lon="3.37522">
        <ele>140</ele>
        <time>2021-06-05T12:48:08Z</time>
      </trkpt>
      <trkpt lat="43.66272" lon="3.37527">
        <ele>140</ele>
        <time>2021-06-05T12:48:09Z</time>
      </trkpt>
      <trkpt lat="43.66272" lon="3.37532">
        <ele>140</ele>
        <time>2021-06-05T12:48:10Z</time>
      </trkpt>
      <trkpt lat="43.66274" lon="3.37536">
        <ele>140</ele>
        <time>2021-06-05T12:48:11Z</time>
      </trkpt>
      <trkpt lat="43.66276" lon="3.3754">
        <ele>140</ele>
        <time>2021-06-05T12:48:12Z</time>
      </trkpt>
      <trkpt lat="43.66279" lon="3.37542">
        <ele>140</ele>
        <time>2021-06-05T12:48:13Z</time>
      </trkpt>
      <trkpt lat="43.6628" lon="3.37545">
        <ele>140</ele>
        <time>2021-06-05T12:48:14Z</time>
      </trkpt>
      <trkpt lat="43.66282" lon="3.37549">
        <ele>140</ele>
        <time>2021-06-05T12:48:15Z</time>
      </trkpt>
      <trkpt lat="43.66283" lon="3.37552">
        <ele>140</ele>
        <time>2021-06-05T12:48:16Z</time>
      </trkpt>
      <trkpt lat="43.66284" lon="3.37556">
        <ele>140</ele>
        <time>2021-06-05T12:48:17Z</time>
      </trkpt>
      <trkpt lat="43.66285" lon="3.37561">
        <ele>140</ele>
        <time>2021-06-05T12:48:18Z</time>
      </trkpt>
      <trkpt lat="43.66286" lon="3.37566">
        <ele>140</ele>
        <time>2021-06-05T12:48:19Z</time>
      </trkpt>
      <trkpt lat="43.66286" lon="3.3757">
        <ele>140</ele>
        <time>2021-06-05T12:48:20Z</time>
      </trkpt>
      <trkpt lat="43.66286" lon="3.37574">
        <ele>140</ele>
        <time>2021-06-05T12:48:21Z</time>
      </trkpt>
      <trkpt lat="43.66286" lon="3.37578">
        <ele>140</ele>
        <time>2021-06-05T12:48:22Z</time>
      </trkpt>
      <trkpt lat="43.66285" lon="3.37582">
        <ele>140</ele>
        <time>2021-06-05T12:48:23Z</time>
      </trkpt>
      <trkpt lat="43.66278" lon="3.37673">
        <ele>140</ele>
        <time>2021-06-05T12:48:24Z</time>
      </trkpt>
      <trkpt lat="43.66285" lon="3.37586">
        <ele>140</ele>
        <time>2021-06-05T12:48:24Z</time>
      </trkpt>
      <trkpt lat="43.66284" lon="3.3759">
        <ele>140</ele>
        <time>2021-06-05T12:48:25Z</time>
      </trkpt>
      <trkpt lat="43.66279" lon="3.37677">
        <ele>140</ele>
        <time>2021-06-05T12:48:25Z</time>
      </trkpt>
      <trkpt lat="43.66284" lon="3.37594">
        <ele>140</ele>
        <time>2021-06-05T12:48:26Z</time>
      </trkpt>
      <trkpt lat="43.66283" lon="3.37598">
        <ele>140</ele>
        <time>2021-06-05T12:48:27Z</time>
      </trkpt>
      <trkpt lat="43.66279" lon="3.37681">
        <ele>140</ele>
        <time>2021-06-05T12:48:27Z</time>
      </trkpt>
      <trkpt lat="43.66282" lon="3.37602">
        <ele>140</ele>
        <time>2021-06-05T12:48:28Z</time>
      </trkpt>
      <trkpt lat="43.6628" lon="3.37684">
        <ele>140</ele>
        <time>2021-06-05T12:48:28Z</time>
      </trkpt>
      <trkpt lat="43.66281" lon="3.37606">
        <ele>140</ele>
        <time>2021-06-05T12:48:29Z</time>
      </trkpt>
      <trkpt lat="43.66281" lon="3.3761">
        <ele>140</ele>
        <time>2021-06-05T12:48:30Z</time>
      </trkpt>
      <trkpt lat="43.66279" lon="3.37687">
        <ele>140</ele>
        <time>2021-06-05T12:48:30Z</time>
      </trkpt>
      <trkpt lat="43.6628" lon="3.37614">
        <ele>140</ele>
        <time>2021-06-05T12:48:31Z</time>
      </trkpt>
      <trkpt lat="43.66277" lon="3.37688">
        <ele>140</ele>
        <time>2021-06-05T12:48:31Z</time>
      </trkpt>
      <trkpt lat="43.66279" lon="3.37618">
        <ele>140</ele>
        <time>2021-06-05T12:48:32Z</time>
      </trkpt>
      <trkpt lat="43.66275" lon="3.3769">
        <ele>140</ele>
        <time>2021-06-05T12:48:32Z</time>
      </trkpt>
      <trkpt lat="43.66278" lon="3.37622">
        <ele>140</ele>
        <time>2021-06-05T12:48:33Z</time>
      </trkpt>
      <trkpt lat="43.66274" lon="3.37693">
        <ele>140</ele>
        <time>2021-06-05T12:48:33Z</time>
      </trkpt>
      <trkpt lat="43.66276" lon="3.37626">
        <ele>140</ele>
        <time>2021-06-05T12:48:34Z</time>
      </trkpt>
      <trkpt lat="43.66272" lon="3.37695">
        <ele>141</ele>
        <time>2021-06-05T12:48:34Z</time>
      </trkpt>
      <trkpt lat="43.66274" lon="3.37631">
        <ele>140</ele>
        <time>2021-06-05T12:48:35Z</time>
      </trkpt>
      <trkpt lat="43.66272" lon="3.37699">
        <ele>141</ele>
        <time>2021-06-05T12:48:35Z</time>
      </trkpt>
      <trkpt lat="43.66272" lon="3.37635">
        <ele>140</ele>
        <time>2021-06-05T12:48:36Z</time>
      </trkpt>
      <trkpt lat="43.66272" lon="3.37701">
        <ele>141</ele>
        <time>2021-06-05T12:48:36Z</time>
      </trkpt>
      <trkpt lat="43.66272" lon="3.3764">
        <ele>140</ele>
        <time>2021-06-05T12:48:37Z</time>
      </trkpt>
      <trkpt lat="43.66272" lon="3.37704">
        <ele>141</ele>
        <time>2021-06-05T12:48:37Z</time>
      </trkpt>
      <trkpt lat="43.66272" lon="3.37644">
        <ele>140</ele>
        <time>2021-06-05T12:48:38Z</time>
      </trkpt>
      <trkpt lat="43.66272" lon="3.37708">
        <ele>141</ele>
        <time>2021-06-05T12:48:38Z</time>
      </trkpt>
      <trkpt lat="43.66272" lon="3.37647">
        <ele>140</ele>
        <time>2021-06-05T12:48:39Z</time>
      </trkpt>
      <trkpt lat="43.66271" lon="3.37711">
        <ele>141</ele>
        <time>2021-06-05T12:48:39Z</time>
      </trkpt>
      <trkpt lat="43.66272" lon="3.37651">
        <ele>140</ele>
        <time>2021-06-05T12:48:40Z</time>
      </trkpt>
      <trkpt lat="43.6627" lon="3.37714">
        <ele>141</ele>
        <time>2021-06-05T12:48:40Z</time>
      </trkpt>
      <trkpt lat="43.66272" lon="3.37655">
        <ele>140</ele>
        <time>2021-06-05T12:48:41Z</time>
      </trkpt>
      <trkpt lat="43.66268" lon="3.37716">
        <ele>141</ele>
        <time>2021-06-05T12:48:41Z</time>
      </trkpt>
      <trkpt lat="43.66273" lon="3.37659">
        <ele>140</ele>
        <time>2021-06-05T12:48:42Z</time>
      </trkpt>
      <trkpt lat="43.66267" lon="3.37719">
        <ele>141</ele>
        <time>2021-06-05T12:48:42Z</time>
      </trkpt>
      <trkpt lat="43.66274" lon="3.37662">
        <ele>140</ele>
        <time>2021-06-05T12:48:43Z</time>
      </trkpt>
      <trkpt lat="43.66265" lon="3.37721">
        <ele>141</ele>
        <time>2021-06-05T12:48:43Z</time>
      </trkpt>
      <trkpt lat="43.66262" lon="3.37723">
        <ele>141</ele>
        <time>2021-06-05T12:48:44Z</time>
      </trkpt>
      <trkpt lat="43.66275" lon="3.37665">
        <ele>140</ele>
        <time>2021-06-05T12:48:44Z</time>
      </trkpt>
      <trkpt lat="43.66261" lon="3.37727">
        <ele>141</ele>
        <time>2021-06-05T12:48:45Z</time>
      </trkpt>
      <trkpt lat="43.6626" lon="3.3773">
        <ele>141</ele>
        <time>2021-06-05T12:48:46Z</time>
      </trkpt>
      <trkpt lat="43.6626" lon="3.37733">
        <ele>141</ele>
        <time>2021-06-05T12:48:47Z</time>
      </trkpt>
      <trkpt lat="43.6626" lon="3.37736">
        <ele>141</ele>
        <time>2021-06-05T12:48:48Z</time>
      </trkpt>
      <trkpt lat="43.6626" lon="3.37739">
        <ele>141</ele>
        <time>2021-06-05T12:48:49Z</time>
      </trkpt>
      <trkpt lat="43.66259" lon="3.37742">
        <ele>141</ele>
        <time>2021-06-05T12:48:50Z</time>
      </trkpt>
      <trkpt lat="43.66258" lon="3.37745">
        <ele>141</ele>
        <time>2021-06-05T12:48:51Z</time>
      </trkpt>
      <trkpt lat="43.66257" lon="3.37749">
        <ele>141</ele>
        <time>2021-06-05T12:48:52Z</time>
      </trkpt>
      <trkpt lat="43.66275" lon="3.37666">
        <ele>140</ele>
        <time>2021-06-05T12:48:52Z</time>
      </trkpt>
      <trkpt lat="43.66255" lon="3.37753">
        <ele>141</ele>
        <time>2021-06-05T12:48:53Z</time>
      </trkpt>
      <trkpt lat="43.66255" lon="3.37758">
        <ele>141</ele>
        <time>2021-06-05T12:48:54Z</time>
      </trkpt>
      <trkpt lat="43.66256" lon="3.37763">
        <ele>141</ele>
        <time>2021-06-05T12:48:55Z</time>
      </trkpt>
      <trkpt lat="43.66257" lon="3.37767">
        <ele>141</ele>
        <time>2021-06-05T12:48:56Z</time>
      </trkpt>
      <trkpt lat="43.66257" lon="3.37771">
        <ele>141</ele>
        <time>2021-06-05T12:48:57Z</time>
      </trkpt>
      <trkpt lat="43.66257" lon="3.37774">
        <ele>141</ele>
        <time>2021-06-05T12:48:58Z</time>
      </trkpt>
      <trkpt lat="43.66255" lon="3.37776">
        <ele>141</ele>
        <time>2021-06-05T12:48:59Z</time>
      </trkpt>
      <trkpt lat="43.66253" lon="3.37777">
        <ele>142</ele>
        <time>2021-06-05T12:50:10Z</time>
      </trkpt>
      <trkpt lat="43.66251" lon="3.37779">
        <ele>142</ele>
        <time>2021-06-05T12:50:13Z</time>
      </trkpt>
      <trkpt lat="43.6625" lon="3.37781">
        <ele>142</ele>
        <time>2021-06-05T12:50:16Z</time>
      </trkpt>
      <trkpt lat="43.6625" lon="3.37782">
        <ele>142</ele>
        <time>2021-06-05T12:50:20Z</time>
      </trkpt>
      <trkpt lat="43.66246" lon="3.37786">
        <ele>142</ele>
        <time>2021-06-05T12:50:25Z</time>
      </trkpt>
      <trkpt lat="43.66245" lon="3.37788">
        <ele>142</ele>
        <time>2021-06-05T12:50:29Z</time>
      </trkpt>
      <trkpt lat="43.66245" lon="3.37791">
        <ele>142</ele>
        <time>2021-06-05T12:50:31Z</time>
      </trkpt>
      <trkpt lat="43.66244" lon="3.37793">
        <ele>142</ele>
        <time>2021-06-05T12:50:33Z</time>
      </trkpt>
      <trkpt lat="43.66242" lon="3.37795">
        <ele>142</ele>
        <time>2021-06-05T12:50:35Z</time>
      </trkpt>
      <trkpt lat="43.66241" lon="3.37797">
        <ele>143</ele>
        <time>2021-06-05T12:50:37Z</time>
      </trkpt>
      <trkpt lat="43.6624" lon="3.37799">
        <ele>143</ele>
        <time>2021-06-05T12:50:39Z</time>
      </trkpt>
      <trkpt lat="43.66238" lon="3.37802">
        <ele>143</ele>
        <time>2021-06-05T12:50:41Z</time>
      </trkpt>
      <trkpt lat="43.66237" lon="3.37802">
        <ele>143</ele>
        <time>2021-06-05T12:50:46Z</time>
      </trkpt>
      <trkpt lat="43.66231" lon="3.3781">
        <ele>142</ele>
        <time>2021-06-05T12:51:03Z</time>
      </trkpt>
      <trkpt lat="43.66231" lon="3.37812">
        <ele>142</ele>
        <time>2021-06-05T12:51:04Z</time>
      </trkpt>
      <trkpt lat="43.6623" lon="3.37815">
        <ele>142</ele>
        <time>2021-06-05T12:51:05Z</time>
      </trkpt>
      <trkpt lat="43.66229" lon="3.37817">
        <ele>142</ele>
        <time>2021-06-05T12:51:06Z</time>
      </trkpt>
      <trkpt lat="43.66228" lon="3.3782">
        <ele>142</ele>
        <time>2021-06-05T12:51:07Z</time>
      </trkpt>
      <trkpt lat="43.66227" lon="3.37823">
        <ele>142</ele>
        <time>2021-06-05T12:51:08Z</time>
      </trkpt>
      <trkpt lat="43.66225" lon="3.37826">
        <ele>142</ele>
        <time>2021-06-05T12:51:09Z</time>
      </trkpt>
      <trkpt lat="43.66224" lon="3.37828">
        <ele>142</ele>
        <time>2021-06-05T12:51:10Z</time>
      </trkpt>
      <trkpt lat="43.66223" lon="3.3783">
        <ele>142</ele>
        <time>2021-06-05T12:51:11Z</time>
      </trkpt>
      <trkpt lat="43.66221" lon="3.37832">
        <ele>142</ele>
        <time>2021-06-05T12:51:12Z</time>
      </trkpt>
      <trkpt lat="43.6622" lon="3.37834">
        <ele>142</ele>
        <time>2021-06-05T12:51:13Z</time>
      </trkpt>
      <trkpt lat="43.66217" lon="3.37836">
        <ele>143</ele>
        <time>2021-06-05T12:51:14Z</time>
      </trkpt>
      <trkpt lat="43.66215" lon="3.3784">
        <ele>143</ele>
        <time>2021-06-05T12:51:15Z</time>
      </trkpt>
      <trkpt lat="43.66213" lon="3.37844">
        <ele>143</ele>
        <time>2021-06-05T12:51:16Z</time>
      </trkpt>
      <trkpt lat="43.66213" lon="3.37848">
        <ele>143</ele>
        <time>2021-06-05T12:51:17Z</time>
      </trkpt>
      <trkpt lat="43.66212" lon="3.37851">
        <ele>143</ele>
        <time>2021-06-05T12:51:18Z</time>
      </trkpt>
      <trkpt lat="43.66211" lon="3.37854">
        <ele>143</ele>
        <time>2021-06-05T12:51:19Z</time>
      </trkpt>
      <trkpt lat="43.6621" lon="3.37856">
        <ele>143</ele>
        <time>2021-06-05T12:51:20Z</time>
      </trkpt>
      <trkpt lat="43.66209" lon="3.37859">
        <ele>143</ele>
        <time>2021-06-05T12:51:21Z</time>
      </trkpt>
      <trkpt lat="43.66209" lon="3.37862">
        <ele>143</ele>
        <time>2021-06-05T12:51:22Z</time>
      </trkpt>
      <trkpt lat="43.66208" lon="3.37865">
        <ele>143</ele>
        <time>2021-06-05T12:51:23Z</time>
      </trkpt>
      <trkpt lat="43.66208" lon="3.37869">
        <ele>142</ele>
        <time>2021-06-05T12:51:24Z</time>
      </trkpt>
      <trkpt lat="43.66208" lon="3.37874">
        <ele>142</ele>
        <time>2021-06-05T12:51:25Z</time>
      </trkpt>
      <trkpt lat="43.66208" lon="3.37878">
        <ele>142</ele>
        <time>2021-06-05T12:51:26Z</time>
      </trkpt>
      <trkpt lat="43.66209" lon="3.37882">
        <ele>142</ele>
        <time>2021-06-05T12:51:27Z</time>
      </trkpt>
      <trkpt lat="43.6621" lon="3.37885">
        <ele>142</ele>
        <time>2021-06-05T12:51:28Z</time>
      </trkpt>
      <trkpt lat="43.6621" lon="3.3789">
        <ele>142</ele>
        <time>2021-06-05T12:51:29Z</time>
      </trkpt>
      <trkpt lat="43.6621" lon="3.37894">
        <ele>142</ele>
        <time>2021-06-05T12:51:30Z</time>
      </trkpt>
      <trkpt lat="43.66209" lon="3.37901">
        <ele>142</ele>
        <time>2021-06-05T12:51:31Z</time>
      </trkpt>
      <trkpt lat="43.66207" lon="3.37908">
        <ele>142</ele>
        <time>2021-06-05T12:51:32Z</time>
      </trkpt>
      <trkpt lat="43.66206" lon="3.37915">
        <ele>142</ele>
        <time>2021-06-05T12:51:33Z</time>
      </trkpt>
      <trkpt lat="43.66205" lon="3.37921">
        <ele>141</ele>
        <time>2021-06-05T12:51:34Z</time>
      </trkpt>
      <trkpt lat="43.66205" lon="3.37926">
        <ele>141</ele>
        <time>2021-06-05T12:51:35Z</time>
      </trkpt>
      <trkpt lat="43.66206" lon="3.37929">
        <ele>141</ele>
        <time>2021-06-05T12:51:36Z</time>
      </trkpt>
      <trkpt lat="43.66208" lon="3.37931">
        <ele>141</ele>
        <time>2021-06-05T12:51:37Z</time>
      </trkpt>
      <trkpt lat="43.66209" lon="3.37934">
        <ele>141</ele>
        <time>2021-06-05T12:51:38Z</time>
      </trkpt>
      <trkpt lat="43.66207" lon="3.37938">
        <ele>141</ele>
        <time>2021-06-05T12:51:40Z</time>
      </trkpt>
      <trkpt lat="43.66204" lon="3.37938">
        <ele>141</ele>
        <time>2021-06-05T12:51:42Z</time>
      </trkpt>
      <trkpt lat="43.66202" lon="3.37938">
        <ele>141</ele>
        <time>2021-06-05T12:51:43Z</time>
      </trkpt>
      <trkpt lat="43.66199" lon="3.37937">
        <ele>141</ele>
        <time>2021-06-05T12:51:44Z</time>
      </trkpt>
      <trkpt lat="43.66197" lon="3.37936">
        <ele>141</ele>
        <time>2021-06-05T12:51:45Z</time>
      </trkpt>
      <trkpt lat="43.66195" lon="3.37935">
        <ele>141</ele>
        <time>2021-06-05T12:51:46Z</time>
      </trkpt>
      <trkpt lat="43.66193" lon="3.37934">
        <ele>141</ele>
        <time>2021-06-05T12:51:47Z</time>
      </trkpt>
      <trkpt lat="43.66191" lon="3.37934">
        <ele>141</ele>
        <time>2021-06-05T12:51:48Z</time>
      </trkpt>
      <trkpt lat="43.66189" lon="3.37934">
        <ele>141</ele>
        <time>2021-06-05T12:51:49Z</time>
      </trkpt>
      <trkpt lat="43.66187" lon="3.37935">
        <ele>141</ele>
        <time>2021-06-05T12:51:50Z</time>
      </trkpt>
      <trkpt lat="43.66184" lon="3.37938">
        <ele>141</ele>
        <time>2021-06-05T12:51:52Z</time>
      </trkpt>
      <trkpt lat="43.66183" lon="3.37939">
        <ele>141</ele>
        <time>2021-06-05T12:51:53Z</time>
      </trkpt>
      <trkpt lat="43.6618" lon="3.37942">
        <ele>142</ele>
        <time>2021-06-05T12:51:54Z</time>
      </trkpt>
      <trkpt lat="43.66179" lon="3.37945">
        <ele>142</ele>
        <time>2021-06-05T12:51:56Z</time>
      </trkpt>
      <trkpt lat="43.66178" lon="3.37948">
        <ele>142</ele>
        <time>2021-06-05T12:51:59Z</time>
      </trkpt>
      <trkpt lat="43.66177" lon="3.37951">
        <ele>142</ele>
        <time>2021-06-05T12:52:01Z</time>
      </trkpt>
      <trkpt lat="43.66168" lon="3.37991">
        <ele>146</ele>
        <time>2021-06-05T12:52:02Z</time>
      </trkpt>
      <trkpt lat="43.66176" lon="3.37955">
        <ele>142</ele>
        <time>2021-06-05T12:52:02Z</time>
      </trkpt>
      <trkpt lat="43.66167" lon="3.37995">
        <ele>146</ele>
        <time>2021-06-05T12:52:03Z</time>
      </trkpt>
      <trkpt lat="43.66175" lon="3.37958">
        <ele>143</ele>
        <time>2021-06-05T12:52:05Z</time>
      </trkpt>
      <trkpt lat="43.66166" lon="3.37999">
        <ele>146</ele>
        <time>2021-06-05T12:52:05Z</time>
      </trkpt>
      <trkpt lat="43.66165" lon="3.38002">
        <ele>146</ele>
        <time>2021-06-05T12:52:06Z</time>
      </trkpt>
      <trkpt lat="43.66175" lon="3.37961">
        <ele>143</ele>
        <time>2021-06-05T12:52:07Z</time>
      </trkpt>
      <trkpt lat="43.66165" lon="3.38004">
        <ele>146</ele>
        <time>2021-06-05T12:52:07Z</time>
      </trkpt>
      <trkpt lat="43.66164" lon="3.38007">
        <ele>146</ele>
        <time>2021-06-05T12:52:08Z</time>
      </trkpt>
      <trkpt lat="43.66174" lon="3.37965">
        <ele>143</ele>
        <time>2021-06-05T12:52:09Z</time>
      </trkpt>
      <trkpt lat="43.66164" lon="3.38009">
        <ele>146</ele>
        <time>2021-06-05T12:52:09Z</time>
      </trkpt>
      <trkpt lat="43.66164" lon="3.38012">
        <ele>146</ele>
        <time>2021-06-05T12:52:10Z</time>
      </trkpt>
      <trkpt lat="43.66172" lon="3.37968">
        <ele>143</ele>
        <time>2021-06-05T12:52:11Z</time>
      </trkpt>
      <trkpt lat="43.66165" lon="3.38015">
        <ele>146</ele>
        <time>2021-06-05T12:52:11Z</time>
      </trkpt>
      <trkpt lat="43.66165" lon="3.38018">
        <ele>147</ele>
        <time>2021-06-05T12:52:12Z</time>
      </trkpt>
      <trkpt lat="43.66172" lon="3.37972">
        <ele>143</ele>
        <time>2021-06-05T12:52:13Z</time>
      </trkpt>
      <trkpt lat="43.66166" lon="3.3802">
        <ele>147</ele>
        <time>2021-06-05T12:52:13Z</time>
      </trkpt>
      <trkpt lat="43.66165" lon="3.38025">
        <ele>147</ele>
        <time>2021-06-05T12:52:15Z</time>
      </trkpt>
      <trkpt lat="43.66165" lon="3.38028">
        <ele>147</ele>
        <time>2021-06-05T12:52:17Z</time>
      </trkpt>
      <trkpt lat="43.66166" lon="3.38033">
        <ele>147</ele>
        <time>2021-06-05T12:52:19Z</time>
      </trkpt>
      <trkpt lat="43.66172" lon="3.37973">
        <ele>144</ele>
        <time>2021-06-05T12:52:20Z</time>
      </trkpt>
      <trkpt lat="43.66166" lon="3.38038">
        <ele>147</ele>
        <time>2021-06-05T12:52:21Z</time>
      </trkpt>
      <trkpt lat="43.66167" lon="3.38041">
        <ele>148</ele>
        <time>2021-06-05T12:52:23Z</time>
      </trkpt>
      <trkpt lat="43.6617" lon="3.38045">
        <ele>148</ele>
        <time>2021-06-05T12:52:25Z</time>
      </trkpt>
      <trkpt lat="43.66172" lon="3.38049">
        <ele>148</ele>
        <time>2021-06-05T12:52:27Z</time>
      </trkpt>
      <trkpt lat="43.66173" lon="3.38053">
        <ele>148</ele>
        <time>2021-06-05T12:52:29Z</time>
      </trkpt>
      <trkpt lat="43.66175" lon="3.38057">
        <ele>148</ele>
        <time>2021-06-05T12:52:31Z</time>
      </trkpt>
      <trkpt lat="43.66177" lon="3.3806">
        <ele>149</ele>
        <time>2021-06-05T12:52:33Z</time>
      </trkpt>
      <trkpt lat="43.66177" lon="3.38063">
        <ele>149</ele>
        <time>2021-06-05T12:52:34Z</time>
      </trkpt>
      <trkpt lat="43.66178" lon="3.38066">
        <ele>149</ele>
        <time>2021-06-05T12:52:35Z</time>
      </trkpt>
      <trkpt lat="43.66178" lon="3.38071">
        <ele>149</ele>
        <time>2021-06-05T12:52:36Z</time>
      </trkpt>
      <trkpt lat="43.66178" lon="3.38076">
        <ele>149</ele>
        <time>2021-06-05T12:52:37Z</time>
      </trkpt>
      <trkpt lat="43.66177" lon="3.38081">
        <ele>149</ele>
        <time>2021-06-05T12:52:38Z</time>
      </trkpt>
      <trkpt lat="43.66177" lon="3.38085">
        <ele>149</ele>
        <time>2021-06-05T12:52:39Z</time>
      </trkpt>
      <trkpt lat="43.66177" lon="3.38088">
        <ele>149</ele>
        <time>2021-06-05T12:52:40Z</time>
      </trkpt>
      <trkpt lat="43.66177" lon="3.3809">
        <ele>149</ele>
        <time>2021-06-05T12:52:41Z</time>
      </trkpt>
      <trkpt lat="43.66178" lon="3.38093">
        <ele>149</ele>
        <time>2021-06-05T12:52:42Z</time>
      </trkpt>
      <trkpt lat="43.66179" lon="3.38096">
        <ele>149</ele>
        <time>2021-06-05T12:52:43Z</time>
      </trkpt>
      <trkpt lat="43.66179" lon="3.38098">
        <ele>149</ele>
        <time>2021-06-05T12:52:44Z</time>
      </trkpt>
      <trkpt lat="43.6618" lon="3.38101">
        <ele>149</ele>
        <time>2021-06-05T12:52:45Z</time>
      </trkpt>
      <trkpt lat="43.6618" lon="3.38104">
        <ele>149</ele>
        <time>2021-06-05T12:52:46Z</time>
      </trkpt>
      <trkpt lat="43.66181" lon="3.38107">
        <ele>149</ele>
        <time>2021-06-05T12:52:47Z</time>
      </trkpt>
      <trkpt lat="43.66182" lon="3.3811">
        <ele>149</ele>
        <time>2021-06-05T12:52:48Z</time>
      </trkpt>
      <trkpt lat="43.66183" lon="3.38113">
        <ele>149</ele>
        <time>2021-06-05T12:52:49Z</time>
      </trkpt>
      <trkpt lat="43.66184" lon="3.38117">
        <ele>149</ele>
        <time>2021-06-05T12:52:50Z</time>
      </trkpt>
      <trkpt lat="43.66183" lon="3.38122">
        <ele>149</ele>
        <time>2021-06-05T12:52:51Z</time>
      </trkpt>
      <trkpt lat="43.66182" lon="3.38124">
        <ele>149</ele>
        <time>2021-06-05T12:52:52Z</time>
      </trkpt>
      <trkpt lat="43.66181" lon="3.38127">
        <ele>149</ele>
        <time>2021-06-05T12:52:53Z</time>
      </trkpt>
      <trkpt lat="43.6618" lon="3.38128">
        <ele>149</ele>
        <time>2021-06-05T12:52:54Z</time>
      </trkpt>
      <trkpt lat="43.66179" lon="3.38131">
        <ele>149</ele>
        <time>2021-06-05T12:52:55Z</time>
      </trkpt>
      <trkpt lat="43.66178" lon="3.38132">
        <ele>150</ele>
        <time>2021-06-05T12:54:06Z</time>
      </trkpt>
      <trkpt lat="43.66175" lon="3.38139">
        <ele>151</ele>
        <time>2021-06-05T12:54:33Z</time>
      </trkpt>
      <trkpt lat="43.66175" lon="3.38138">
        <ele>151</ele>
        <time>2021-06-05T12:54:37Z</time>
      </trkpt>
      <trkpt lat="43.66173" lon="3.38143">
        <ele>152</ele>
        <time>2021-06-05T12:54:51Z</time>
      </trkpt>
      <trkpt lat="43.66172" lon="3.38148">
        <ele>152</ele>
        <time>2021-06-05T12:54:53Z</time>
      </trkpt>
      <trkpt lat="43.6617" lon="3.38151">
        <ele>152</ele>
        <time>2021-06-05T12:54:55Z</time>
      </trkpt>
      <trkpt lat="43.66168" lon="3.38154">
        <ele>152</ele>
        <time>2021-06-05T12:54:57Z</time>
      </trkpt>
      <trkpt lat="43.66167" lon="3.38157">
        <ele>152</ele>
        <time>2021-06-05T12:54:59Z</time>
      </trkpt>
      <trkpt lat="43.66164" lon="3.3816">
        <ele>152</ele>
        <time>2021-06-05T12:55:01Z</time>
      </trkpt>
      <trkpt lat="43.66162" lon="3.38162">
        <ele>152</ele>
        <time>2021-06-05T12:55:02Z</time>
      </trkpt>
      <trkpt lat="43.66161" lon="3.38165">
        <ele>152</ele>
        <time>2021-06-05T12:55:04Z</time>
      </trkpt>
      <trkpt lat="43.6616" lon="3.38168">
        <ele>152</ele>
        <time>2021-06-05T12:55:05Z</time>
      </trkpt>
      <trkpt lat="43.6616" lon="3.3817">
        <ele>152</ele>
        <time>2021-06-05T12:55:06Z</time>
      </trkpt>
      <trkpt lat="43.66159" lon="3.38173">
        <ele>152</ele>
        <time>2021-06-05T12:55:07Z</time>
      </trkpt>
      <trkpt lat="43.66158" lon="3.38175">
        <ele>152</ele>
        <time>2021-06-05T12:55:07Z</time>
      </trkpt>
      <trkpt lat="43.66157" lon="3.38178">
        <ele>152</ele>
        <time>2021-06-05T12:55:08Z</time>
      </trkpt>
      <trkpt lat="43.66155" lon="3.38181">
        <ele>152</ele>
        <time>2021-06-05T12:55:09Z</time>
      </trkpt>
      <trkpt lat="43.66154" lon="3.38184">
        <ele>152</ele>
        <time>2021-06-05T12:55:10Z</time>
      </trkpt>
      <trkpt lat="43.66153" lon="3.38188">
        <ele>153</ele>
        <time>2021-06-05T12:55:12Z</time>
      </trkpt>
      <trkpt lat="43.66152" lon="3.38191">
        <ele>153</ele>
        <time>2021-06-05T12:55:13Z</time>
      </trkpt>
      <trkpt lat="43.66152" lon="3.38195">
        <ele>153</ele>
        <time>2021-06-05T12:55:14Z</time>
      </trkpt>
      <trkpt lat="43.66153" lon="3.38197">
        <ele>153</ele>
        <time>2021-06-05T12:55:15Z</time>
      </trkpt>
      <trkpt lat="43.66153" lon="3.382">
        <ele>153</ele>
        <time>2021-06-05T12:55:16Z</time>
      </trkpt>
      <trkpt lat="43.66153" lon="3.38203">
        <ele>153</ele>
        <time>2021-06-05T12:55:17Z</time>
      </trkpt>
      <trkpt lat="43.66153" lon="3.38206">
        <ele>153</ele>
        <time>2021-06-05T12:55:18Z</time>
      </trkpt>
      <trkpt lat="43.66154" lon="3.38209">
        <ele>153</ele>
        <time>2021-06-05T12:55:19Z</time>
      </trkpt>
      <trkpt lat="43.66154" lon="3.38212">
        <ele>153</ele>
        <time>2021-06-05T12:55:20Z</time>
      </trkpt>
      <trkpt lat="43.66154" lon="3.38216">
        <ele>153</ele>
        <time>2021-06-05T12:55:21Z</time>
      </trkpt>
      <trkpt lat="43.66154" lon="3.38219">
        <ele>153</ele>
        <time>2021-06-05T12:55:22Z</time>
      </trkpt>
      <trkpt lat="43.66155" lon="3.38222">
        <ele>153</ele>
        <time>2021-06-05T12:55:23Z</time>
      </trkpt>
      <trkpt lat="43.66156" lon="3.38224">
        <ele>153</ele>
        <time>2021-06-05T12:55:24Z</time>
      </trkpt>
      <trkpt lat="43.66156" lon="3.38227">
        <ele>153</ele>
        <time>2021-06-05T12:55:25Z</time>
      </trkpt>
      <trkpt lat="43.66156" lon="3.3823">
        <ele>153</ele>
        <time>2021-06-05T12:55:26Z</time>
      </trkpt>
      <trkpt lat="43.66156" lon="3.38233">
        <ele>153</ele>
        <time>2021-06-05T12:55:27Z</time>
      </trkpt>
      <trkpt lat="43.66156" lon="3.38236">
        <ele>153</ele>
        <time>2021-06-05T12:55:28Z</time>
      </trkpt>
      <trkpt lat="43.66156" lon="3.3824">
        <ele>153</ele>
        <time>2021-06-05T12:55:29Z</time>
      </trkpt>
      <trkpt lat="43.66156" lon="3.38246">
        <ele>153</ele>
        <time>2021-06-05T12:55:30Z</time>
      </trkpt>
      <trkpt lat="43.66156" lon="3.38252">
        <ele>153</ele>
        <time>2021-06-05T12:55:31Z</time>
      </trkpt>
      <trkpt lat="43.66156" lon="3.38258">
        <ele>153</ele>
        <time>2021-06-05T12:55:32Z</time>
      </trkpt>
      <trkpt lat="43.66154" lon="3.38262">
        <ele>153</ele>
        <time>2021-06-05T12:55:33Z</time>
      </trkpt>
      <trkpt lat="43.66154" lon="3.38267">
        <ele>153</ele>
        <time>2021-06-05T12:55:34Z</time>
      </trkpt>
      <trkpt lat="43.66152" lon="3.38271">
        <ele>153</ele>
        <time>2021-06-05T12:55:35Z</time>
      </trkpt>
      <trkpt lat="43.6615" lon="3.38274">
        <ele>153</ele>
        <time>2021-06-05T12:55:36Z</time>
      </trkpt>
      <trkpt lat="43.66148" lon="3.38278">
        <ele>153</ele>
        <time>2021-06-05T12:55:37Z</time>
      </trkpt>
      <trkpt lat="43.66147" lon="3.38282">
        <ele>153</ele>
        <time>2021-06-05T12:55:38Z</time>
      </trkpt>
      <trkpt lat="43.66146" lon="3.38286">
        <ele>153</ele>
        <time>2021-06-05T12:55:39Z</time>
      </trkpt>
      <trkpt lat="43.66145" lon="3.38291">
        <ele>153</ele>
        <time>2021-06-05T12:55:40Z</time>
      </trkpt>
      <trkpt lat="43.66144" lon="3.38295">
        <ele>153</ele>
        <time>2021-06-05T12:55:41Z</time>
      </trkpt>
      <trkpt lat="43.66145" lon="3.38299">
        <ele>151</ele>
        <time>2021-06-05T12:55:42Z</time>
      </trkpt>
      <trkpt lat="43.66145" lon="3.38302">
        <ele>151</ele>
        <time>2021-06-05T12:55:43Z</time>
      </trkpt>
      <trkpt lat="43.66146" lon="3.38307">
        <ele>151</ele>
        <time>2021-06-05T12:55:44Z</time>
      </trkpt>
      <trkpt lat="43.66145" lon="3.38313">
        <ele>151</ele>
        <time>2021-06-05T12:55:45Z</time>
      </trkpt>
      <trkpt lat="43.66143" lon="3.38318">
        <ele>151</ele>
        <time>2021-06-05T12:55:46Z</time>
      </trkpt>
      <trkpt lat="43.66141" lon="3.38324">
        <ele>151</ele>
        <time>2021-06-05T12:55:47Z</time>
      </trkpt>
      <trkpt lat="43.66141" lon="3.3833">
        <ele>151</ele>
        <time>2021-06-05T12:55:48Z</time>
      </trkpt>
      <trkpt lat="43.6614" lon="3.38338">
        <ele>151</ele>
        <time>2021-06-05T12:55:49Z</time>
      </trkpt>
      <trkpt lat="43.66139" lon="3.38345">
        <ele>151</ele>
        <time>2021-06-05T12:55:50Z</time>
      </trkpt>
      <trkpt lat="43.66139" lon="3.38352">
        <ele>151</ele>
        <time>2021-06-05T12:55:51Z</time>
      </trkpt>
      <trkpt lat="43.6614" lon="3.38358">
        <ele>150</ele>
        <time>2021-06-05T12:55:52Z</time>
      </trkpt>
      <trkpt lat="43.66139" lon="3.38363">
        <ele>150</ele>
        <time>2021-06-05T12:55:53Z</time>
      </trkpt>
      <trkpt lat="43.66138" lon="3.38368">
        <ele>150</ele>
        <time>2021-06-05T12:55:54Z</time>
      </trkpt>
      <trkpt lat="43.66136" lon="3.38371">
        <ele>150</ele>
        <time>2021-06-05T12:55:55Z</time>
      </trkpt>
      <trkpt lat="43.66133" lon="3.38374">
        <ele>150</ele>
        <time>2021-06-05T12:55:56Z</time>
      </trkpt>
      <trkpt lat="43.6613" lon="3.38376">
        <ele>150</ele>
        <time>2021-06-05T12:55:57Z</time>
      </trkpt>
      <trkpt lat="43.66128" lon="3.38378">
        <ele>150</ele>
        <time>2021-06-05T12:55:58Z</time>
      </trkpt>
      <trkpt lat="43.66126" lon="3.3838">
        <ele>150</ele>
        <time>2021-06-05T12:55:59Z</time>
      </trkpt>
      <trkpt lat="43.66125" lon="3.38381">
        <ele>148</ele>
        <time>2021-06-05T12:56:06Z</time>
      </trkpt>
      <trkpt lat="43.6612" lon="3.38383">
        <ele>147</ele>
        <time>2021-06-05T12:56:13Z</time>
      </trkpt>
      <trkpt lat="43.66119" lon="3.38383">
        <ele>147</ele>
        <time>2021-06-05T12:56:14Z</time>
      </trkpt>
      <trkpt lat="43.66116" lon="3.38384">
        <ele>147</ele>
        <time>2021-06-05T12:56:16Z</time>
      </trkpt>
      <trkpt lat="43.66116" lon="3.38387">
        <ele>147</ele>
        <time>2021-06-05T12:56:17Z</time>
      </trkpt>
      <trkpt lat="43.66115" lon="3.38392">
        <ele>147</ele>
        <time>2021-06-05T12:56:18Z</time>
      </trkpt>
      <trkpt lat="43.66114" lon="3.38396">
        <ele>147</ele>
        <time>2021-06-05T12:56:19Z</time>
      </trkpt>
      <trkpt lat="43.66113" lon="3.38399">
        <ele>147</ele>
        <time>2021-06-05T12:56:20Z</time>
      </trkpt>
      <trkpt lat="43.66113" lon="3.38401">
        <ele>147</ele>
        <time>2021-06-05T12:56:21Z</time>
      </trkpt>
      <trkpt lat="43.66112" lon="3.38404">
        <ele>147</ele>
        <time>2021-06-05T12:56:22Z</time>
      </trkpt>
      <trkpt lat="43.66112" lon="3.38407">
        <ele>147</ele>
        <time>2021-06-05T12:56:23Z</time>
      </trkpt>
      <trkpt lat="43.66111" lon="3.38411">
        <ele>145</ele>
        <time>2021-06-05T12:56:24Z</time>
      </trkpt>
      <trkpt lat="43.6611" lon="3.38414">
        <ele>145</ele>
        <time>2021-06-05T12:56:25Z</time>
      </trkpt>
      <trkpt lat="43.66109" lon="3.38417">
        <ele>145</ele>
        <time>2021-06-05T12:56:26Z</time>
      </trkpt>
      <trkpt lat="43.66107" lon="3.3842">
        <ele>145</ele>
        <time>2021-06-05T12:56:27Z</time>
      </trkpt>
      <trkpt lat="43.66106" lon="3.38422">
        <ele>145</ele>
        <time>2021-06-05T12:56:28Z</time>
      </trkpt>
      <trkpt lat="43.66104" lon="3.38426">
        <ele>145</ele>
        <time>2021-06-05T12:56:30Z</time>
      </trkpt>
      <trkpt lat="43.66103" lon="3.38428">
        <ele>145</ele>
        <time>2021-06-05T12:56:31Z</time>
      </trkpt>
      <trkpt lat="43.66102" lon="3.3843">
        <ele>145</ele>
        <time>2021-06-05T12:56:32Z</time>
      </trkpt>
      <trkpt lat="43.661" lon="3.38433">
        <ele>144</ele>
        <time>2021-06-05T12:56:34Z</time>
      </trkpt>
      <trkpt lat="43.66098" lon="3.38439">
        <ele>144</ele>
        <time>2021-06-05T12:56:36Z</time>
      </trkpt>
      <trkpt lat="43.66098" lon="3.38443">
        <ele>144</ele>
        <time>2021-06-05T12:56:37Z</time>
      </trkpt>
      <trkpt lat="43.66098" lon="3.38448">
        <ele>144</ele>
        <time>2021-06-05T12:56:38Z</time>
      </trkpt>
      <trkpt lat="43.66096" lon="3.38455">
        <ele>144</ele>
        <time>2021-06-05T12:56:39Z</time>
      </trkpt>
      <trkpt lat="43.66096" lon="3.38461">
        <ele>144</ele>
        <time>2021-06-05T12:56:39Z</time>
      </trkpt>
      <trkpt lat="43.66097" lon="3.38468">
        <ele>144</ele>
        <time>2021-06-05T12:56:40Z</time>
      </trkpt>
      <trkpt lat="43.66099" lon="3.38473">
        <ele>144</ele>
        <time>2021-06-05T12:56:41Z</time>
      </trkpt>
      <trkpt lat="43.66099" lon="3.38479">
        <ele>144</ele>
        <time>2021-06-05T12:56:42Z</time>
      </trkpt>
      <trkpt lat="43.661" lon="3.38484">
        <ele>142</ele>
        <time>2021-06-05T12:56:44Z</time>
      </trkpt>
      <trkpt lat="43.661" lon="3.38489">
        <ele>142</ele>
        <time>2021-06-05T12:56:45Z</time>
      </trkpt>
      <trkpt lat="43.661" lon="3.38494">
        <ele>142</ele>
        <time>2021-06-05T12:56:46Z</time>
      </trkpt>
      <trkpt lat="43.66101" lon="3.38498">
        <ele>142</ele>
        <time>2021-06-05T12:56:47Z</time>
      </trkpt>
      <trkpt lat="43.66102" lon="3.38501">
        <ele>142</ele>
        <time>2021-06-05T12:56:48Z</time>
      </trkpt>
      <trkpt lat="43.66103" lon="3.38504">
        <ele>142</ele>
        <time>2021-06-05T12:56:49Z</time>
      </trkpt>
      <trkpt lat="43.66105" lon="3.38508">
        <ele>142</ele>
        <time>2021-06-05T12:56:50Z</time>
      </trkpt>
      <trkpt lat="43.66104" lon="3.38512">
        <ele>142</ele>
        <time>2021-06-05T12:56:51Z</time>
      </trkpt>
      <trkpt lat="43.66103" lon="3.38515">
        <ele>142</ele>
        <time>2021-06-05T12:56:52Z</time>
      </trkpt>
      <trkpt lat="43.66101" lon="3.38519">
        <ele>141</ele>
        <time>2021-06-05T12:56:53Z</time>
      </trkpt>
      <trkpt lat="43.661" lon="3.38522">
        <ele>141</ele>
        <time>2021-06-05T12:56:56Z</time>
      </trkpt>
      <trkpt lat="43.66098" lon="3.38527">
        <ele>141</ele>
        <time>2021-06-05T12:56:58Z</time>
      </trkpt>
      <trkpt lat="43.66097" lon="3.3853">
        <ele>141</ele>
        <time>2021-06-05T12:56:59Z</time>
      </trkpt>
      <trkpt lat="43.66096" lon="3.38534">
        <ele>141</ele>
        <time>2021-06-05T12:57:00Z</time>
      </trkpt>
      <trkpt lat="43.66095" lon="3.38537">
        <ele>141</ele>
        <time>2021-06-05T12:57:01Z</time>
      </trkpt>
      <trkpt lat="43.66095" lon="3.38541">
        <ele>141</ele>
        <time>2021-06-05T12:57:02Z</time>
      </trkpt>
      <trkpt lat="43.66094" lon="3.38544">
        <ele>141</ele>
        <time>2021-06-05T12:57:03Z</time>
      </trkpt>
      <trkpt lat="43.66094" lon="3.38548">
        <ele>142</ele>
        <time>2021-06-05T12:57:04Z</time>
      </trkpt>
      <trkpt lat="43.66093" lon="3.38551">
        <ele>142</ele>
        <time>2021-06-05T12:57:05Z</time>
      </trkpt>
      <trkpt lat="43.66093" lon="3.38555">
        <ele>142</ele>
        <time>2021-06-05T12:57:06Z</time>
      </trkpt>
      <trkpt lat="43.66092" lon="3.38558">
        <ele>142</ele>
        <time>2021-06-05T12:57:07Z</time>
      </trkpt>
      <trkpt lat="43.66092" lon="3.38562">
        <ele>142</ele>
        <time>2021-06-05T12:57:08Z</time>
      </trkpt>
      <trkpt lat="43.66091" lon="3.38565">
        <ele>142</ele>
        <time>2021-06-05T12:57:09Z</time>
      </trkpt>
      <trkpt lat="43.66091" lon="3.38569">
        <ele>142</ele>
        <time>2021-06-05T12:57:10Z</time>
      </trkpt>
      <trkpt lat="43.6609" lon="3.38573">
        <ele>142</ele>
        <time>2021-06-05T12:57:11Z</time>
      </trkpt>
      <trkpt lat="43.66089" lon="3.38576">
        <ele>142</ele>
        <time>2021-06-05T12:57:12Z</time>
      </trkpt>
      <trkpt lat="43.66089" lon="3.3858">
        <ele>142</ele>
        <time>2021-06-05T12:57:13Z</time>
      </trkpt>
      <trkpt lat="43.66088" lon="3.38584">
        <ele>141</ele>
        <time>2021-06-05T12:57:14Z</time>
      </trkpt>
      <trkpt lat="43.66086" lon="3.38589">
        <ele>141</ele>
        <time>2021-06-05T12:57:15Z</time>
      </trkpt>
      <trkpt lat="43.66086" lon="3.38594">
        <ele>141</ele>
        <time>2021-06-05T12:57:16Z</time>
      </trkpt>
      <trkpt lat="43.66085" lon="3.38598">
        <ele>141</ele>
        <time>2021-06-05T12:57:17Z</time>
      </trkpt>
      <trkpt lat="43.66084" lon="3.38602">
        <ele>141</ele>
        <time>2021-06-05T12:57:18Z</time>
      </trkpt>
      <trkpt lat="43.66083" lon="3.38607">
        <ele>141</ele>
        <time>2021-06-05T12:57:19Z</time>
      </trkpt>
      <trkpt lat="43.66082" lon="3.38611">
        <ele>141</ele>
        <time>2021-06-05T12:57:20Z</time>
      </trkpt>
      <trkpt lat="43.66081" lon="3.38615">
        <ele>141</ele>
        <time>2021-06-05T12:57:21Z</time>
      </trkpt>
      <trkpt lat="43.66081" lon="3.38619">
        <ele>141</ele>
        <time>2021-06-05T12:57:22Z</time>
      </trkpt>
      <trkpt lat="43.6608" lon="3.38624">
        <ele>141</ele>
        <time>2021-06-05T12:57:23Z</time>
      </trkpt>
      <trkpt lat="43.66079" lon="3.38629">
        <ele>141</ele>
        <time>2021-06-05T12:57:24Z</time>
      </trkpt>
      <trkpt lat="43.66079" lon="3.38633">
        <ele>141</ele>
        <time>2021-06-05T12:57:25Z</time>
      </trkpt>
      <trkpt lat="43.66078" lon="3.38638">
        <ele>141</ele>
        <time>2021-06-05T12:57:26Z</time>
      </trkpt>
      <trkpt lat="43.66078" lon="3.38643">
        <ele>141</ele>
        <time>2021-06-05T12:57:27Z</time>
      </trkpt>
      <trkpt lat="43.66078" lon="3.38648">
        <ele>141</ele>
        <time>2021-06-05T12:57:28Z</time>
      </trkpt>
      <trkpt lat="43.66078" lon="3.38652">
        <ele>141</ele>
        <time>2021-06-05T12:57:29Z</time>
      </trkpt>
      <trkpt lat="43.66078" lon="3.38657">
        <ele>141</ele>
        <time>2021-06-05T12:57:30Z</time>
      </trkpt>
      <trkpt lat="43.66078" lon="3.38662">
        <ele>141</ele>
        <time>2021-06-05T12:57:31Z</time>
      </trkpt>
      <trkpt lat="43.66079" lon="3.38665">
        <ele>141</ele>
        <time>2021-06-05T12:57:32Z</time>
      </trkpt>
      <trkpt lat="43.66079" lon="3.38669">
        <ele>141</ele>
        <time>2021-06-05T12:57:33Z</time>
      </trkpt>
      <trkpt lat="43.66078" lon="3.38672">
        <ele>141</ele>
        <time>2021-06-05T12:57:34Z</time>
      </trkpt>
      <trkpt lat="43.66078" lon="3.38676">
        <ele>141</ele>
        <time>2021-06-05T12:57:35Z</time>
      </trkpt>
      <trkpt lat="43.66077" lon="3.38679">
        <ele>141</ele>
        <time>2021-06-05T12:57:36Z</time>
      </trkpt>
      <trkpt lat="43.66076" lon="3.38683">
        <ele>141</ele>
        <time>2021-06-05T12:57:37Z</time>
      </trkpt>
      <trkpt lat="43.66076" lon="3.38686">
        <ele>141</ele>
        <time>2021-06-05T12:57:38Z</time>
      </trkpt>
      <trkpt lat="43.66075" lon="3.3869">
        <ele>141</ele>
        <time>2021-06-05T12:57:39Z</time>
      </trkpt>
      <trkpt lat="43.66074" lon="3.38694">
        <ele>141</ele>
        <time>2021-06-05T12:57:40Z</time>
      </trkpt>
      <trkpt lat="43.66073" lon="3.38697">
        <ele>141</ele>
        <time>2021-06-05T12:57:41Z</time>
      </trkpt>
      <trkpt lat="43.66073" lon="3.387">
        <ele>141</ele>
        <time>2021-06-05T12:57:42Z</time>
      </trkpt>
      <trkpt lat="43.66072" lon="3.38704">
        <ele>141</ele>
        <time>2021-06-05T12:57:43Z</time>
      </trkpt>
      <trkpt lat="43.66071" lon="3.38708">
        <ele>142</ele>
        <time>2021-06-05T12:57:44Z</time>
      </trkpt>
      <trkpt lat="43.6607" lon="3.38711">
        <ele>142</ele>
        <time>2021-06-05T12:57:45Z</time>
      </trkpt>
      <trkpt lat="43.66069" lon="3.38715">
        <ele>142</ele>
        <time>2021-06-05T12:57:46Z</time>
      </trkpt>
      <trkpt lat="43.66068" lon="3.38718">
        <ele>142</ele>
        <time>2021-06-05T12:57:47Z</time>
      </trkpt>
      <trkpt lat="43.66067" lon="3.38722">
        <ele>142</ele>
        <time>2021-06-05T12:57:48Z</time>
      </trkpt>
      <trkpt lat="43.66065" lon="3.38725">
        <ele>142</ele>
        <time>2021-06-05T12:57:49Z</time>
      </trkpt>
      <trkpt lat="43.66065" lon="3.38728">
        <ele>142</ele>
        <time>2021-06-05T12:57:50Z</time>
      </trkpt>
      <trkpt lat="43.66064" lon="3.38732">
        <ele>142</ele>
        <time>2021-06-05T12:57:51Z</time>
      </trkpt>
      <trkpt lat="43.66063" lon="3.38735">
        <ele>142</ele>
        <time>2021-06-05T12:57:52Z</time>
      </trkpt>
      <trkpt lat="43.66063" lon="3.38738">
        <ele>142</ele>
        <time>2021-06-05T12:57:53Z</time>
      </trkpt>
      <trkpt lat="43.66063" lon="3.38741">
        <ele>142</ele>
        <time>2021-06-05T12:57:54Z</time>
      </trkpt>
      <trkpt lat="43.66063" lon="3.38745">
        <ele>142</ele>
        <time>2021-06-05T12:57:56Z</time>
      </trkpt>
      <trkpt lat="43.66063" lon="3.38749">
        <ele>142</ele>
        <time>2021-06-05T12:57:58Z</time>
      </trkpt>
      <trkpt lat="43.66063" lon="3.38753">
        <ele>142</ele>
        <time>2021-06-05T12:58:00Z</time>
      </trkpt>
      <trkpt lat="43.66065" lon="3.38756">
        <ele>142</ele>
        <time>2021-06-05T12:58:02Z</time>
      </trkpt>
      <trkpt lat="43.66066" lon="3.38759">
        <ele>144</ele>
        <time>2021-06-05T12:58:04Z</time>
      </trkpt>
      <trkpt lat="43.66066" lon="3.38783">
        <ele>147</ele>
        <time>2021-06-05T12:58:04Z</time>
      </trkpt>
      <trkpt lat="43.66065" lon="3.38785">
        <ele>147</ele>
        <time>2021-06-05T12:58:04Z</time>
      </trkpt>
      <trkpt lat="43.66067" lon="3.38762">
        <ele>144</ele>
        <time>2021-06-05T12:58:06Z</time>
      </trkpt>
      <trkpt lat="43.66064" lon="3.38788">
        <ele>147</ele>
        <time>2021-06-05T12:58:06Z</time>
      </trkpt>
      <trkpt lat="43.66068" lon="3.38765">
        <ele>144</ele>
        <time>2021-06-05T12:58:08Z</time>
      </trkpt>
      <trkpt lat="43.66063" lon="3.38792">
        <ele>147</ele>
        <time>2021-06-05T12:58:08Z</time>
      </trkpt>
      <trkpt lat="43.66069" lon="3.38769">
        <ele>144</ele>
        <time>2021-06-05T12:58:10Z</time>
      </trkpt>
      <trkpt lat="43.66064" lon="3.38795">
        <ele>147</ele>
        <time>2021-06-05T12:58:10Z</time>
      </trkpt>
      <trkpt lat="43.6607" lon="3.38773">
        <ele>144</ele>
        <time>2021-06-05T12:58:12Z</time>
      </trkpt>
      <trkpt lat="43.66067" lon="3.38797">
        <ele>147</ele>
        <time>2021-06-05T12:58:12Z</time>
      </trkpt>
      <trkpt lat="43.6607" lon="3.38776">
        <ele>146</ele>
        <time>2021-06-05T12:58:14Z</time>
      </trkpt>
      <trkpt lat="43.66069" lon="3.38795">
        <ele>147</ele>
        <time>2021-06-05T12:58:14Z</time>
      </trkpt>
      <trkpt lat="43.66072" lon="3.38792">
        <ele>147</ele>
        <time>2021-06-05T12:58:16Z</time>
      </trkpt>
      <trkpt lat="43.66071" lon="3.38775">
        <ele>146</ele>
        <time>2021-06-05T12:58:18Z</time>
      </trkpt>
      <trkpt lat="43.66073" lon="3.38789">
        <ele>147</ele>
        <time>2021-06-05T12:58:18Z</time>
      </trkpt>
      <trkpt lat="43.66076" lon="3.38786">
        <ele>147</ele>
        <time>2021-06-05T12:58:20Z</time>
      </trkpt>
      <trkpt lat="43.66077" lon="3.38783">
        <ele>147</ele>
        <time>2021-06-05T12:58:22Z</time>
      </trkpt>
      <trkpt lat="43.66079" lon="3.3878">
        <ele>148</ele>
        <time>2021-06-05T12:58:24Z</time>
      </trkpt>
      <trkpt lat="43.66082" lon="3.38777">
        <ele>148</ele>
        <time>2021-06-05T12:58:26Z</time>
      </trkpt>
      <trkpt lat="43.66084" lon="3.38775">
        <ele>148</ele>
        <time>2021-06-05T12:58:28Z</time>
      </trkpt>
      <trkpt lat="43.66087" lon="3.38772">
        <ele>148</ele>
        <time>2021-06-05T12:58:30Z</time>
      </trkpt>
      <trkpt lat="43.66089" lon="3.3877">
        <ele>148</ele>
        <time>2021-06-05T12:58:32Z</time>
      </trkpt>
      <trkpt lat="43.66092" lon="3.38768">
        <ele>149</ele>
        <time>2021-06-05T12:58:34Z</time>
      </trkpt>
      <trkpt lat="43.66094" lon="3.38765">
        <ele>149</ele>
        <time>2021-06-05T12:58:36Z</time>
      </trkpt>
      <trkpt lat="43.66096" lon="3.38763">
        <ele>149</ele>
        <time>2021-06-05T12:58:38Z</time>
      </trkpt>
      <trkpt lat="43.66098" lon="3.38761">
        <ele>149</ele>
        <time>2021-06-05T12:58:40Z</time>
      </trkpt>
      <trkpt lat="43.66101" lon="3.38759">
        <ele>149</ele>
        <time>2021-06-05T12:58:42Z</time>
      </trkpt>
      <trkpt lat="43.66103" lon="3.38757">
        <ele>150</ele>
        <time>2021-06-05T12:58:44Z</time>
      </trkpt>
      <trkpt lat="43.66106" lon="3.38755">
        <ele>150</ele>
        <time>2021-06-05T12:58:46Z</time>
      </trkpt>
      <trkpt lat="43.66109" lon="3.38753">
        <ele>150</ele>
        <time>2021-06-05T12:58:48Z</time>
      </trkpt>
      <trkpt lat="43.6611" lon="3.38751">
        <ele>150</ele>
        <time>2021-06-05T12:58:50Z</time>
      </trkpt>
      <trkpt lat="43.66112" lon="3.38749">
        <ele>150</ele>
        <time>2021-06-05T12:58:52Z</time>
      </trkpt>
      <trkpt lat="43.66115" lon="3.38747">
        <ele>152</ele>
        <time>2021-06-05T12:58:54Z</time>
      </trkpt>
      <trkpt lat="43.66117" lon="3.38745">
        <ele>152</ele>
        <time>2021-06-05T12:58:56Z</time>
      </trkpt>
      <trkpt lat="43.66119" lon="3.38743">
        <ele>152</ele>
        <time>2021-06-05T12:58:58Z</time>
      </trkpt>
      <trkpt lat="43.6612" lon="3.38742">
        <ele>153</ele>
        <time>2021-06-05T13:00:11Z</time>
      </trkpt>
      <trkpt lat="43.66123" lon="3.38737">
        <ele>153</ele>
        <time>2021-06-05T13:00:23Z</time>
      </trkpt>
      <trkpt lat="43.66124" lon="3.38737">
        <ele>153</ele>
        <time>2021-06-05T13:00:24Z</time>
      </trkpt>
      <trkpt lat="43.66126" lon="3.38736">
        <ele>153</ele>
        <time>2021-06-05T13:00:26Z</time>
      </trkpt>
      <trkpt lat="43.66128" lon="3.38738">
        <ele>153</ele>
        <time>2021-06-05T13:00:29Z</time>
      </trkpt>
      <trkpt lat="43.66129" lon="3.3874">
        <ele>153</ele>
        <time>2021-06-05T13:00:33Z</time>
      </trkpt>
      <trkpt lat="43.6613" lon="3.38743">
        <ele>155</ele>
        <time>2021-06-05T13:00:37Z</time>
      </trkpt>
      <trkpt lat="43.66131" lon="3.38746">
        <ele>155</ele>
        <time>2021-06-05T13:00:40Z</time>
      </trkpt>
      <trkpt lat="43.66131" lon="3.38749">
        <ele>155</ele>
        <time>2021-06-05T13:00:42Z</time>
      </trkpt>
      <trkpt lat="43.6613" lon="3.38751">
        <ele>156</ele>
        <time>2021-06-05T13:00:44Z</time>
      </trkpt>
      <trkpt lat="43.6613" lon="3.38754">
        <ele>156</ele>
        <time>2021-06-05T13:00:47Z</time>
      </trkpt>
      <trkpt lat="43.6613" lon="3.38755">
        <ele>157</ele>
        <time>2021-06-05T13:00:52Z</time>
      </trkpt>
      <trkpt lat="43.66129" lon="3.38762">
        <ele>157</ele>
        <time>2021-06-05T13:01:07Z</time>
      </trkpt>
      <trkpt lat="43.66128" lon="3.38764">
        <ele>157</ele>
        <time>2021-06-05T13:01:08Z</time>
      </trkpt>
      <trkpt lat="43.66128" lon="3.38768">
        <ele>157</ele>
        <time>2021-06-05T13:01:10Z</time>
      </trkpt>
      <trkpt lat="43.66127" lon="3.38771">
        <ele>157</ele>
        <time>2021-06-05T13:01:12Z</time>
      </trkpt>
      <trkpt lat="43.66126" lon="3.38775">
        <ele>157</ele>
        <time>2021-06-05T13:01:14Z</time>
      </trkpt>
      <trkpt lat="43.66126" lon="3.38779">
        <ele>157</ele>
        <time>2021-06-05T13:01:16Z</time>
      </trkpt>
      <trkpt lat="43.66125" lon="3.38783">
        <ele>158</ele>
        <time>2021-06-05T13:01:18Z</time>
      </trkpt>
      <trkpt lat="43.66124" lon="3.38787">
        <ele>158</ele>
        <time>2021-06-05T13:01:20Z</time>
      </trkpt>
      <trkpt lat="43.66123" lon="3.3879">
        <ele>158</ele>
        <time>2021-06-05T13:01:22Z</time>
      </trkpt>
      <trkpt lat="43.66122" lon="3.38794">
        <ele>158</ele>
        <time>2021-06-05T13:01:24Z</time>
      </trkpt>
      <trkpt lat="43.6612" lon="3.38797">
        <ele>158</ele>
        <time>2021-06-05T13:01:26Z</time>
      </trkpt>
      <trkpt lat="43.6612" lon="3.388">
        <ele>159</ele>
        <time>2021-06-05T13:01:27Z</time>
      </trkpt>
      <trkpt lat="43.66119" lon="3.38804">
        <ele>159</ele>
        <time>2021-06-05T13:01:30Z</time>
      </trkpt>
      <trkpt lat="43.66118" lon="3.38807">
        <ele>159</ele>
        <time>2021-06-05T13:01:32Z</time>
      </trkpt>
      <trkpt lat="43.66117" lon="3.3881">
        <ele>159</ele>
        <time>2021-06-05T13:01:34Z</time>
      </trkpt>
      <trkpt lat="43.66117" lon="3.38814">
        <ele>159</ele>
        <time>2021-06-05T13:01:36Z</time>
      </trkpt>
      <trkpt lat="43.66117" lon="3.38819">
        <ele>160</ele>
        <time>2021-06-05T13:01:38Z</time>
      </trkpt>
      <trkpt lat="43.66117" lon="3.38822">
        <ele>160</ele>
        <time>2021-06-05T13:01:40Z</time>
      </trkpt>
      <trkpt lat="43.66116" lon="3.38825">
        <ele>160</ele>
        <time>2021-06-05T13:01:42Z</time>
      </trkpt>
      <trkpt lat="43.66115" lon="3.38829">
        <ele>160</ele>
        <time>2021-06-05T13:01:44Z</time>
      </trkpt>
      <trkpt lat="43.66114" lon="3.38832">
        <ele>160</ele>
        <time>2021-06-05T13:01:46Z</time>
      </trkpt>
      <trkpt lat="43.66114" lon="3.38835">
        <ele>161</ele>
        <time>2021-06-05T13:01:48Z</time>
      </trkpt>
      <trkpt lat="43.66114" lon="3.38839">
        <ele>161</ele>
        <time>2021-06-05T13:01:50Z</time>
      </trkpt>
      <trkpt lat="43.66112" lon="3.38843">
        <ele>161</ele>
        <time>2021-06-05T13:01:52Z</time>
      </trkpt>
      <trkpt lat="43.66112" lon="3.38846">
        <ele>161</ele>
        <time>2021-06-05T13:01:54Z</time>
      </trkpt>
      <trkpt lat="43.6611" lon="3.3885">
        <ele>161</ele>
        <time>2021-06-05T13:01:56Z</time>
      </trkpt>
      <trkpt lat="43.6611" lon="3.38854">
        <ele>162</ele>
        <time>2021-06-05T13:01:58Z</time>
      </trkpt>
      <trkpt lat="43.6611" lon="3.38859">
        <ele>162</ele>
        <time>2021-06-05T13:02:00Z</time>
      </trkpt>
      <trkpt lat="43.6611" lon="3.38862">
        <ele>162</ele>
        <time>2021-06-05T13:02:02Z</time>
      </trkpt>
      <trkpt lat="43.6611" lon="3.38866">
        <ele>162</ele>
        <time>2021-06-05T13:02:04Z</time>
      </trkpt>
      <trkpt lat="43.6611" lon="3.3887">
        <ele>162</ele>
        <time>2021-06-05T13:02:06Z</time>
      </trkpt>
      <trkpt lat="43.6611" lon="3.38875">
        <ele>162</ele>
        <time>2021-06-05T13:02:08Z</time>
      </trkpt>
      <trkpt lat="43.66111" lon="3.38879">
        <ele>162</ele>
        <time>2021-06-05T13:02:10Z</time>
      </trkpt>
      <trkpt lat="43.66111" lon="3.38883">
        <ele>162</ele>
        <time>2021-06-05T13:02:12Z</time>
      </trkpt>
      <trkpt lat="43.66111" lon="3.38887">
        <ele>162</ele>
        <time>2021-06-05T13:02:14Z</time>
      </trkpt>
      <trkpt lat="43.66111" lon="3.3889">
        <ele>162</ele>
        <time>2021-06-05T13:02:16Z</time>
      </trkpt>
      <trkpt lat="43.66111" lon="3.38894">
        <ele>163</ele>
        <time>2021-06-05T13:02:18Z</time>
      </trkpt>
      <trkpt lat="43.66111" lon="3.38898">
        <ele>163</ele>
        <time>2021-06-05T13:02:20Z</time>
      </trkpt>
      <trkpt lat="43.66111" lon="3.38902">
        <ele>163</ele>
        <time>2021-06-05T13:02:22Z</time>
      </trkpt>
      <trkpt lat="43.6611" lon="3.38905">
        <ele>163</ele>
        <time>2021-06-05T13:02:24Z</time>
      </trkpt>
      <trkpt lat="43.6611" lon="3.38908">
        <ele>163</ele>
        <time>2021-06-05T13:02:26Z</time>
      </trkpt>
      <trkpt lat="43.6611" lon="3.38912">
        <ele>164</ele>
        <time>2021-06-05T13:02:28Z</time>
      </trkpt>
      <trkpt lat="43.66111" lon="3.38915">
        <ele>164</ele>
        <time>2021-06-05T13:02:30Z</time>
      </trkpt>
      <trkpt lat="43.6611" lon="3.38918">
        <ele>164</ele>
        <time>2021-06-05T13:02:32Z</time>
      </trkpt>
      <trkpt lat="43.66109" lon="3.38921">
        <ele>164</ele>
        <time>2021-06-05T13:02:34Z</time>
      </trkpt>
      <trkpt lat="43.66108" lon="3.38924">
        <ele>164</ele>
        <time>2021-06-05T13:02:36Z</time>
      </trkpt>
      <trkpt lat="43.66107" lon="3.38927">
        <ele>166</ele>
        <time>2021-06-05T13:02:38Z</time>
      </trkpt>
      <trkpt lat="43.66105" lon="3.3893">
        <ele>166</ele>
        <time>2021-06-05T13:02:40Z</time>
      </trkpt>
      <trkpt lat="43.66103" lon="3.38932">
        <ele>166</ele>
        <time>2021-06-05T13:02:42Z</time>
      </trkpt>
      <trkpt lat="43.66102" lon="3.38935">
        <ele>166</ele>
        <time>2021-06-05T13:02:44Z</time>
      </trkpt>
      <trkpt lat="43.661" lon="3.38938">
        <ele>166</ele>
        <time>2021-06-05T13:02:46Z</time>
      </trkpt>
      <trkpt lat="43.66098" lon="3.38939">
        <ele>167</ele>
        <time>2021-06-05T13:02:48Z</time>
      </trkpt>
      <trkpt lat="43.66096" lon="3.38942">
        <ele>167</ele>
        <time>2021-06-05T13:02:50Z</time>
      </trkpt>
      <trkpt lat="43.66095" lon="3.38944">
        <ele>167</ele>
        <time>2021-06-05T13:02:52Z</time>
      </trkpt>
      <trkpt lat="43.66093" lon="3.38947">
        <ele>167</ele>
        <time>2021-06-05T13:02:54Z</time>
      </trkpt>
      <trkpt lat="43.66092" lon="3.38949">
        <ele>167</ele>
        <time>2021-06-05T13:02:56Z</time>
      </trkpt>
      <trkpt lat="43.66091" lon="3.38952">
        <ele>168</ele>
        <time>2021-06-05T13:02:58Z</time>
      </trkpt>
      <trkpt lat="43.6609" lon="3.38955">
        <ele>168</ele>
        <time>2021-06-05T13:03:00Z</time>
      </trkpt>
      <trkpt lat="43.66089" lon="3.38957">
        <ele>168</ele>
        <time>2021-06-05T13:03:02Z</time>
      </trkpt>
      <trkpt lat="43.66089" lon="3.38961">
        <ele>168</ele>
        <time>2021-06-05T13:03:04Z</time>
      </trkpt>
      <trkpt lat="43.66089" lon="3.38964">
        <ele>168</ele>
        <time>2021-06-05T13:03:06Z</time>
      </trkpt>
      <trkpt lat="43.6609" lon="3.38965">
        <ele>170</ele>
        <time>2021-06-05T13:03:12Z</time>
      </trkpt>
      <trkpt lat="43.66091" lon="3.38995">
        <ele>172</ele>
        <time>2021-06-05T13:04:51Z</time>
      </trkpt>
      <trkpt lat="43.66091" lon="3.38996">
        <ele>172</ele>
        <time>2021-06-05T13:04:52Z</time>
      </trkpt>
      <trkpt lat="43.66091" lon="3.39">
        <ele>172</ele>
        <time>2021-06-05T13:04:54Z</time>
      </trkpt>
      <trkpt lat="43.6609" lon="3.39004">
        <ele>172</ele>
        <time>2021-06-05T13:04:56Z</time>
      </trkpt>
      <trkpt lat="43.66089" lon="3.39008">
        <ele>172</ele>
        <time>2021-06-05T13:04:58Z</time>
      </trkpt>
      <trkpt lat="43.66089" lon="3.39011">
        <ele>172</ele>
        <time>2021-06-05T13:05:00Z</time>
      </trkpt>
      <trkpt lat="43.66089" lon="3.39015">
        <ele>174</ele>
        <time>2021-06-05T13:05:02Z</time>
      </trkpt>
      <trkpt lat="43.66089" lon="3.39019">
        <ele>174</ele>
        <time>2021-06-05T13:05:04Z</time>
      </trkpt>
      <trkpt lat="43.6609" lon="3.39023">
        <ele>174</ele>
        <time>2021-06-05T13:05:06Z</time>
      </trkpt>
      <trkpt lat="43.66089" lon="3.39027">
        <ele>174</ele>
        <time>2021-06-05T13:05:08Z</time>
      </trkpt>
      <trkpt lat="43.66089" lon="3.39031">
        <ele>174</ele>
        <time>2021-06-05T13:05:10Z</time>
      </trkpt>
      <trkpt lat="43.66089" lon="3.39034">
        <ele>174</ele>
        <time>2021-06-05T13:05:11Z</time>
      </trkpt>
      <trkpt lat="43.66089" lon="3.39038">
        <ele>174</ele>
        <time>2021-06-05T13:05:13Z</time>
      </trkpt>
      <trkpt lat="43.66088" lon="3.39041">
        <ele>174</ele>
        <time>2021-06-05T13:05:15Z</time>
      </trkpt>
      <trkpt lat="43.66088" lon="3.39044">
        <ele>174</ele>
        <time>2021-06-05T13:05:17Z</time>
      </trkpt>
      <trkpt lat="43.66089" lon="3.39048">
        <ele>174</ele>
        <time>2021-06-05T13:05:19Z</time>
      </trkpt>
      <trkpt lat="43.66089" lon="3.39051">
        <ele>176</ele>
        <time>2021-06-05T13:05:22Z</time>
      </trkpt>
      <trkpt lat="43.66089" lon="3.39055">
        <ele>176</ele>
        <time>2021-06-05T13:05:24Z</time>
      </trkpt>
      <trkpt lat="43.66089" lon="3.39058">
        <ele>176</ele>
        <time>2021-06-05T13:05:26Z</time>
      </trkpt>
      <trkpt lat="43.6609" lon="3.39062">
        <ele>176</ele>
        <time>2021-06-05T13:05:28Z</time>
      </trkpt>
      <trkpt lat="43.6609" lon="3.39066">
        <ele>176</ele>
        <time>2021-06-05T13:05:30Z</time>
      </trkpt>
      <trkpt lat="43.6609" lon="3.39069">
        <ele>177</ele>
        <time>2021-06-05T13:05:31Z</time>
      </trkpt>
      <trkpt lat="43.6609" lon="3.3907">
        <ele>178</ele>
        <time>2021-06-05T13:05:36Z</time>
      </trkpt>
      <trkpt lat="43.661" lon="3.39154">
        <ele>192</ele>
        <time>2021-06-05T13:07:32Z</time>
      </trkpt>
      <trkpt lat="43.661" lon="3.39156">
        <ele>192</ele>
        <time>2021-06-05T13:07:33Z</time>
      </trkpt>
      <trkpt lat="43.661" lon="3.39159">
        <ele>192</ele>
        <time>2021-06-05T13:07:36Z</time>
      </trkpt>
      <trkpt lat="43.661" lon="3.39162">
        <ele>192</ele>
        <time>2021-06-05T13:07:38Z</time>
      </trkpt>
      <trkpt lat="43.66101" lon="3.39164">
        <ele>192</ele>
        <time>2021-06-05T13:07:40Z</time>
      </trkpt>
      <trkpt lat="43.66102" lon="3.39167">
        <ele>193</ele>
        <time>2021-06-05T13:07:43Z</time>
      </trkpt>
      <trkpt lat="43.66103" lon="3.3917">
        <ele>193</ele>
        <time>2021-06-05T13:07:46Z</time>
      </trkpt>
      <trkpt lat="43.66105" lon="3.39173">
        <ele>193</ele>
        <time>2021-06-05T13:07:49Z</time>
      </trkpt>
      <trkpt lat="43.66107" lon="3.39175">
        <ele>194</ele>
        <time>2021-06-05T13:07:51Z</time>
      </trkpt>
      <trkpt lat="43.66108" lon="3.39178">
        <ele>194</ele>
        <time>2021-06-05T13:07:53Z</time>
      </trkpt>
      <trkpt lat="43.66108" lon="3.3918">
        <ele>194</ele>
        <time>2021-06-05T13:07:55Z</time>
      </trkpt>
      <trkpt lat="43.66109" lon="3.39183">
        <ele>194</ele>
        <time>2021-06-05T13:07:57Z</time>
      </trkpt>
      <trkpt lat="43.66109" lon="3.39186">
        <ele>194</ele>
        <time>2021-06-05T13:08:01Z</time>
      </trkpt>
      <trkpt lat="43.66109" lon="3.39189">
        <ele>194</ele>
        <time>2021-06-05T13:08:04Z</time>
      </trkpt>
      <trkpt lat="43.6611" lon="3.39191">
        <ele>194</ele>
        <time>2021-06-05T13:08:07Z</time>
      </trkpt>
      <trkpt lat="43.66111" lon="3.39194">
        <ele>195</ele>
        <time>2021-06-05T13:08:11Z</time>
      </trkpt>
      <trkpt lat="43.66112" lon="3.39198">
        <ele>195</ele>
        <time>2021-06-05T13:08:13Z</time>
      </trkpt>
      <trkpt lat="43.66113" lon="3.39202">
        <ele>195</ele>
        <time>2021-06-05T13:08:17Z</time>
      </trkpt>
      <trkpt lat="43.66113" lon="3.39205">
        <ele>195</ele>
        <time>2021-06-05T13:08:20Z</time>
      </trkpt>
      <trkpt lat="43.66113" lon="3.39208">
        <ele>196</ele>
        <time>2021-06-05T13:08:23Z</time>
      </trkpt>
      <trkpt lat="43.66113" lon="3.39211">
        <ele>196</ele>
        <time>2021-06-05T13:08:25Z</time>
      </trkpt>
      <trkpt lat="43.66112" lon="3.39214">
        <ele>196</ele>
        <time>2021-06-05T13:08:27Z</time>
      </trkpt>
      <trkpt lat="43.66111" lon="3.39217">
        <ele>196</ele>
        <time>2021-06-05T13:08:30Z</time>
      </trkpt>
      <trkpt lat="43.66111" lon="3.3922">
        <ele>197</ele>
        <time>2021-06-05T13:08:33Z</time>
      </trkpt>
      <trkpt lat="43.66112" lon="3.39223">
        <ele>197</ele>
        <time>2021-06-05T13:08:36Z</time>
      </trkpt>
      <trkpt lat="43.66113" lon="3.39226">
        <ele>197</ele>
        <time>2021-06-05T13:08:39Z</time>
      </trkpt>
      <trkpt lat="43.66112" lon="3.39228">
        <ele>197</ele>
        <time>2021-06-05T13:08:43Z</time>
      </trkpt>
      <trkpt lat="43.66112" lon="3.39231">
        <ele>197</ele>
        <time>2021-06-05T13:08:46Z</time>
      </trkpt>
      <trkpt lat="43.66112" lon="3.39231">
        <ele>198</ele>
        <time>2021-06-05T13:08:50Z</time>
      </trkpt>
      <trkpt lat="43.6611" lon="3.39235">
        <ele>198</ele>
        <time>2021-06-05T13:09:05Z</time>
      </trkpt>
      <trkpt lat="43.6611" lon="3.39236">
        <ele>198</ele>
        <time>2021-06-05T13:09:06Z</time>
      </trkpt>
      <trkpt lat="43.66109" lon="3.39238">
        <ele>199</ele>
        <time>2021-06-05T13:09:12Z</time>
      </trkpt>
      <trkpt lat="43.66109" lon="3.39243">
        <ele>199</ele>
        <time>2021-06-05T13:09:18Z</time>
      </trkpt>
      <trkpt lat="43.66108" lon="3.39246">
        <ele>199</ele>
        <time>2021-06-05T13:09:19Z</time>
      </trkpt>
      <trkpt lat="43.66107" lon="3.39249">
        <ele>199</ele>
        <time>2021-06-05T13:09:22Z</time>
      </trkpt>
      <trkpt lat="43.66106" lon="3.39252">
        <ele>199</ele>
        <time>2021-06-05T13:09:25Z</time>
      </trkpt>
      <trkpt lat="43.66105" lon="3.39255">
        <ele>199</ele>
        <time>2021-06-05T13:09:27Z</time>
      </trkpt>
      <trkpt lat="43.66104" lon="3.39258">
        <ele>201</ele>
        <time>2021-06-05T13:09:30Z</time>
      </trkpt>
      <trkpt lat="43.66103" lon="3.39261">
        <ele>201</ele>
        <time>2021-06-05T13:09:33Z</time>
      </trkpt>
      <trkpt lat="43.66103" lon="3.39264">
        <ele>201</ele>
        <time>2021-06-05T13:09:36Z</time>
      </trkpt>
      <trkpt lat="43.66103" lon="3.39267">
        <ele>201</ele>
        <time>2021-06-05T13:09:39Z</time>
      </trkpt>
      <trkpt lat="43.66105" lon="3.39269">
        <ele>201</ele>
        <time>2021-06-05T13:09:42Z</time>
      </trkpt>
      <trkpt lat="43.66106" lon="3.39272">
        <ele>201</ele>
        <time>2021-06-05T13:09:45Z</time>
      </trkpt>
      <trkpt lat="43.66106" lon="3.39274">
        <ele>202</ele>
        <time>2021-06-05T13:09:48Z</time>
      </trkpt>
      <trkpt lat="43.66106" lon="3.39277">
        <ele>202</ele>
        <time>2021-06-05T13:09:52Z</time>
      </trkpt>
      <trkpt lat="43.66108" lon="3.39279">
        <ele>202</ele>
        <time>2021-06-05T13:09:57Z</time>
      </trkpt>
      <trkpt lat="43.66109" lon="3.3928">
        <ele>203</ele>
        <time>2021-06-05T13:10:00Z</time>
      </trkpt>
      <trkpt lat="43.66122" lon="3.39269">
        <ele>206</ele>
        <time>2021-06-05T13:10:02Z</time>
      </trkpt>
      <trkpt lat="43.66112" lon="3.3928">
        <ele>203</ele>
        <time>2021-06-05T13:10:03Z</time>
      </trkpt>
      <trkpt lat="43.66123" lon="3.39267">
        <ele>206</ele>
        <time>2021-06-05T13:10:03Z</time>
      </trkpt>
      <trkpt lat="43.66114" lon="3.39279">
        <ele>203</ele>
        <time>2021-06-05T13:10:05Z</time>
      </trkpt>
      <trkpt lat="43.66125" lon="3.39266">
        <ele>206</ele>
        <time>2021-06-05T13:10:05Z</time>
      </trkpt>
      <trkpt lat="43.66126" lon="3.39263">
        <ele>206</ele>
        <time>2021-06-05T13:10:07Z</time>
      </trkpt>
      <trkpt lat="43.66116" lon="3.39278">
        <ele>204</ele>
        <time>2021-06-05T13:10:07Z</time>
      </trkpt>
      <trkpt lat="43.66128" lon="3.39261">
        <ele>206</ele>
        <time>2021-06-05T13:10:08Z</time>
      </trkpt>
      <trkpt lat="43.66129" lon="3.39259">
        <ele>206</ele>
        <time>2021-06-05T13:10:09Z</time>
      </trkpt>
      <trkpt lat="43.66117" lon="3.39276">
        <ele>204</ele>
        <time>2021-06-05T13:10:09Z</time>
      </trkpt>
      <trkpt lat="43.66131" lon="3.39256">
        <ele>206</ele>
        <time>2021-06-05T13:10:10Z</time>
      </trkpt>
      <trkpt lat="43.66132" lon="3.39253">
        <ele>206</ele>
        <time>2021-06-05T13:10:11Z</time>
      </trkpt>
      <trkpt lat="43.66134" lon="3.39249">
        <ele>206</ele>
        <time>2021-06-05T13:10:12Z</time>
      </trkpt>
      <trkpt lat="43.66134" lon="3.39245">
        <ele>206</ele>
        <time>2021-06-05T13:10:13Z</time>
      </trkpt>
      <trkpt lat="43.66136" lon="3.39242">
        <ele>206</ele>
        <time>2021-06-05T13:10:14Z</time>
      </trkpt>
      <trkpt lat="43.66119" lon="3.39274">
        <ele>204</ele>
        <time>2021-06-05T13:10:15Z</time>
      </trkpt>
      <trkpt lat="43.66137" lon="3.39238">
        <ele>206</ele>
        <time>2021-06-05T13:10:15Z</time>
      </trkpt>
      <trkpt lat="43.66139" lon="3.39234">
        <ele>206</ele>
        <time>2021-06-05T13:10:16Z</time>
      </trkpt>
      <trkpt lat="43.66119" lon="3.39274">
        <ele>205</ele>
        <time>2021-06-05T13:10:17Z</time>
      </trkpt>
      <trkpt lat="43.6614" lon="3.39232">
        <ele>206</ele>
        <time>2021-06-05T13:10:17Z</time>
      </trkpt>
      <trkpt lat="43.66141" lon="3.39229">
        <ele>206</ele>
        <time>2021-06-05T13:10:18Z</time>
      </trkpt>
      <trkpt lat="43.66141" lon="3.39226">
        <ele>206</ele>
        <time>2021-06-05T13:10:19Z</time>
      </trkpt>
      <trkpt lat="43.66143" lon="3.39222">
        <ele>206</ele>
        <time>2021-06-05T13:10:20Z</time>
      </trkpt>
      <trkpt lat="43.66143" lon="3.39219">
        <ele>206</ele>
        <time>2021-06-05T13:10:21Z</time>
      </trkpt>
      <trkpt lat="43.66141" lon="3.39215">
        <ele>206</ele>
        <time>2021-06-05T13:10:22Z</time>
      </trkpt>
      <trkpt lat="43.66141" lon="3.39212">
        <ele>206</ele>
        <time>2021-06-05T13:10:23Z</time>
      </trkpt>
      <trkpt lat="43.66141" lon="3.39208">
        <ele>206</ele>
        <time>2021-06-05T13:10:24Z</time>
      </trkpt>
      <trkpt lat="43.66141" lon="3.39205">
        <ele>206</ele>
        <time>2021-06-05T13:10:25Z</time>
      </trkpt>
      <trkpt lat="43.6614" lon="3.39202">
        <ele>206</ele>
        <time>2021-06-05T13:10:26Z</time>
      </trkpt>
      <trkpt lat="43.66139" lon="3.39199">
        <ele>206</ele>
        <time>2021-06-05T13:10:27Z</time>
      </trkpt>
      <trkpt lat="43.66139" lon="3.39196">
        <ele>206</ele>
        <time>2021-06-05T13:10:28Z</time>
      </trkpt>
      <trkpt lat="43.66139" lon="3.39193">
        <ele>206</ele>
        <time>2021-06-05T13:10:29Z</time>
      </trkpt>
      <trkpt lat="43.66138" lon="3.3919">
        <ele>206</ele>
        <time>2021-06-05T13:10:30Z</time>
      </trkpt>
      <trkpt lat="43.66138" lon="3.39188">
        <ele>206</ele>
        <time>2021-06-05T13:10:31Z</time>
      </trkpt>
      <trkpt lat="43.66137" lon="3.39185">
        <ele>207</ele>
        <time>2021-06-05T13:10:32Z</time>
      </trkpt>
      <trkpt lat="43.66137" lon="3.3918">
        <ele>207</ele>
        <time>2021-06-05T13:10:34Z</time>
      </trkpt>
      <trkpt lat="43.66137" lon="3.39175">
        <ele>207</ele>
        <time>2021-06-05T13:10:36Z</time>
      </trkpt>
      <trkpt lat="43.66137" lon="3.39171">
        <ele>207</ele>
        <time>2021-06-05T13:10:38Z</time>
      </trkpt>
      <trkpt lat="43.66137" lon="3.39166">
        <ele>207</ele>
        <time>2021-06-05T13:10:40Z</time>
      </trkpt>
      <trkpt lat="43.66137" lon="3.39162">
        <ele>207</ele>
        <time>2021-06-05T13:10:42Z</time>
      </trkpt>
      <trkpt lat="43.66137" lon="3.39158">
        <ele>207</ele>
        <time>2021-06-05T13:10:44Z</time>
      </trkpt>
      <trkpt lat="43.66138" lon="3.39154">
        <ele>207</ele>
        <time>2021-06-05T13:10:46Z</time>
      </trkpt>
      <trkpt lat="43.66138" lon="3.3915">
        <ele>207</ele>
        <time>2021-06-05T13:10:48Z</time>
      </trkpt>
      <trkpt lat="43.66139" lon="3.39146">
        <ele>207</ele>
        <time>2021-06-05T13:10:50Z</time>
      </trkpt>
      <trkpt lat="43.66141" lon="3.39142">
        <ele>208</ele>
        <time>2021-06-05T13:10:52Z</time>
      </trkpt>
      <trkpt lat="43.66141" lon="3.39139">
        <ele>208</ele>
        <time>2021-06-05T13:10:54Z</time>
      </trkpt>
      <trkpt lat="43.66141" lon="3.39135">
        <ele>208</ele>
        <time>2021-06-05T13:10:56Z</time>
      </trkpt>
      <trkpt lat="43.66143" lon="3.39131">
        <ele>208</ele>
        <time>2021-06-05T13:10:58Z</time>
      </trkpt>
      <trkpt lat="43.66144" lon="3.39127">
        <ele>208</ele>
        <time>2021-06-05T13:11:00Z</time>
      </trkpt>
      <trkpt lat="43.66145" lon="3.39123">
        <ele>209</ele>
        <time>2021-06-05T13:11:02Z</time>
      </trkpt>
      <trkpt lat="43.66146" lon="3.39119">
        <ele>209</ele>
        <time>2021-06-05T13:11:04Z</time>
      </trkpt>
      <trkpt lat="43.66147" lon="3.39115">
        <ele>209</ele>
        <time>2021-06-05T13:11:06Z</time>
      </trkpt>
      <trkpt lat="43.66148" lon="3.39112">
        <ele>209</ele>
        <time>2021-06-05T13:11:08Z</time>
      </trkpt>
      <trkpt lat="43.66149" lon="3.39108">
        <ele>209</ele>
        <time>2021-06-05T13:11:10Z</time>
      </trkpt>
      <trkpt lat="43.6615" lon="3.39105">
        <ele>209</ele>
        <time>2021-06-05T13:11:12Z</time>
      </trkpt>
      <trkpt lat="43.66153" lon="3.39103">
        <ele>209</ele>
        <time>2021-06-05T13:11:14Z</time>
      </trkpt>
      <trkpt lat="43.66155" lon="3.39101">
        <ele>209</ele>
        <time>2021-06-05T13:11:16Z</time>
      </trkpt>
      <trkpt lat="43.66155" lon="3.39097">
        <ele>209</ele>
        <time>2021-06-05T13:11:18Z</time>
      </trkpt>
      <trkpt lat="43.66155" lon="3.39094">
        <ele>209</ele>
        <time>2021-06-05T13:11:20Z</time>
      </trkpt>
      <trkpt lat="43.66156" lon="3.3909">
        <ele>211</ele>
        <time>2021-06-05T13:11:22Z</time>
      </trkpt>
      <trkpt lat="43.66156" lon="3.39087">
        <ele>211</ele>
        <time>2021-06-05T13:11:24Z</time>
      </trkpt>
      <trkpt lat="43.66158" lon="3.39084">
        <ele>211</ele>
        <time>2021-06-05T13:11:26Z</time>
      </trkpt>
      <trkpt lat="43.66159" lon="3.39082">
        <ele>211</ele>
        <time>2021-06-05T13:11:28Z</time>
      </trkpt>
      <trkpt lat="43.6616" lon="3.39079">
        <ele>211</ele>
        <time>2021-06-05T13:11:30Z</time>
      </trkpt>
      <trkpt lat="43.66161" lon="3.39076">
        <ele>212</ele>
        <time>2021-06-05T13:11:32Z</time>
      </trkpt>
      <trkpt lat="43.66162" lon="3.39074">
        <ele>212</ele>
        <time>2021-06-05T13:11:34Z</time>
      </trkpt>
      <trkpt lat="43.66163" lon="3.39071">
        <ele>212</ele>
        <time>2021-06-05T13:11:36Z</time>
      </trkpt>
      <trkpt lat="43.66165" lon="3.39068">
        <ele>212</ele>
        <time>2021-06-05T13:11:38Z</time>
      </trkpt>
      <trkpt lat="43.66167" lon="3.39066">
        <ele>212</ele>
        <time>2021-06-05T13:11:40Z</time>
      </trkpt>
      <trkpt lat="43.66169" lon="3.39067">
        <ele>213</ele>
        <time>2021-06-05T13:11:42Z</time>
      </trkpt>
      <trkpt lat="43.6617" lon="3.39069">
        <ele>213</ele>
        <time>2021-06-05T13:11:45Z</time>
      </trkpt>
      <trkpt lat="43.66169" lon="3.39072">
        <ele>213</ele>
        <time>2021-06-05T13:11:46Z</time>
      </trkpt>
      <trkpt lat="43.66169" lon="3.39075">
        <ele>213</ele>
        <time>2021-06-05T13:11:48Z</time>
      </trkpt>
      <trkpt lat="43.66168" lon="3.39079">
        <ele>213</ele>
        <time>2021-06-05T13:11:50Z</time>
      </trkpt>
      <trkpt lat="43.66167" lon="3.39083">
        <ele>214</ele>
        <time>2021-06-05T13:11:52Z</time>
      </trkpt>
      <trkpt lat="43.66166" lon="3.39086">
        <ele>214</ele>
        <time>2021-06-05T13:11:54Z</time>
      </trkpt>
      <trkpt lat="43.66166" lon="3.3909">
        <ele>214</ele>
        <time>2021-06-05T13:11:56Z</time>
      </trkpt>
      <trkpt lat="43.66165" lon="3.39094">
        <ele>214</ele>
        <time>2021-06-05T13:11:58Z</time>
      </trkpt>
      <trkpt lat="43.66164" lon="3.39098">
        <ele>214</ele>
        <time>2021-06-05T13:12:00Z</time>
      </trkpt>
      <trkpt lat="43.66163" lon="3.39102">
        <ele>215</ele>
        <time>2021-06-05T13:12:02Z</time>
      </trkpt>
      <trkpt lat="43.66163" lon="3.39106">
        <ele>215</ele>
        <time>2021-06-05T13:12:04Z</time>
      </trkpt>
      <trkpt lat="43.66162" lon="3.3911">
        <ele>215</ele>
        <time>2021-06-05T13:12:06Z</time>
      </trkpt>
      <trkpt lat="43.66161" lon="3.39114">
        <ele>215</ele>
        <time>2021-06-05T13:12:08Z</time>
      </trkpt>
      <trkpt lat="43.66161" lon="3.39118">
        <ele>215</ele>
        <time>2021-06-05T13:12:10Z</time>
      </trkpt>
      <trkpt lat="43.6616" lon="3.39122">
        <ele>215</ele>
        <time>2021-06-05T13:12:12Z</time>
      </trkpt>
      <trkpt lat="43.6616" lon="3.39126">
        <ele>215</ele>
        <time>2021-06-05T13:12:14Z</time>
      </trkpt>
      <trkpt lat="43.66159" lon="3.39131">
        <ele>215</ele>
        <time>2021-06-05T13:12:16Z</time>
      </trkpt>
      <trkpt lat="43.66158" lon="3.39135">
        <ele>215</ele>
        <time>2021-06-05T13:12:18Z</time>
      </trkpt>
      <trkpt lat="43.66158" lon="3.39139">
        <ele>215</ele>
        <time>2021-06-05T13:12:20Z</time>
      </trkpt>
      <trkpt lat="43.66157" lon="3.39144">
        <ele>216</ele>
        <time>2021-06-05T13:12:22Z</time>
      </trkpt>
      <trkpt lat="43.66156" lon="3.39147">
        <ele>216</ele>
        <time>2021-06-05T13:12:24Z</time>
      </trkpt>
      <trkpt lat="43.66156" lon="3.39151">
        <ele>216</ele>
        <time>2021-06-05T13:12:26Z</time>
      </trkpt>
      <trkpt lat="43.66156" lon="3.39156">
        <ele>216</ele>
        <time>2021-06-05T13:12:28Z</time>
      </trkpt>
      <trkpt lat="43.66156" lon="3.3916">
        <ele>216</ele>
        <time>2021-06-05T13:12:30Z</time>
      </trkpt>
      <trkpt lat="43.66156" lon="3.39164">
        <ele>217</ele>
        <time>2021-06-05T13:12:32Z</time>
      </trkpt>
      <trkpt lat="43.66156" lon="3.39168">
        <ele>217</ele>
        <time>2021-06-05T13:12:34Z</time>
      </trkpt>
      <trkpt lat="43.66156" lon="3.39172">
        <ele>217</ele>
        <time>2021-06-05T13:12:36Z</time>
      </trkpt>
      <trkpt lat="43.66158" lon="3.39175">
        <ele>217</ele>
        <time>2021-06-05T13:12:38Z</time>
      </trkpt>
      <trkpt lat="43.66159" lon="3.39179">
        <ele>217</ele>
        <time>2021-06-05T13:12:40Z</time>
      </trkpt>
      <trkpt lat="43.6616" lon="3.39183">
        <ele>218</ele>
        <time>2021-06-05T13:12:42Z</time>
      </trkpt>
      <trkpt lat="43.6616" lon="3.39187">
        <ele>218</ele>
        <time>2021-06-05T13:12:44Z</time>
      </trkpt>
      <trkpt lat="43.66161" lon="3.3919">
        <ele>218</ele>
        <time>2021-06-05T13:12:46Z</time>
      </trkpt>
      <trkpt lat="43.66162" lon="3.39193">
        <ele>218</ele>
        <time>2021-06-05T13:12:48Z</time>
      </trkpt>
      <trkpt lat="43.66164" lon="3.39196">
        <ele>218</ele>
        <time>2021-06-05T13:12:50Z</time>
      </trkpt>
      <trkpt lat="43.66165" lon="3.392">
        <ele>219</ele>
        <time>2021-06-05T13:12:52Z</time>
      </trkpt>
      <trkpt lat="43.66166" lon="3.39203">
        <ele>219</ele>
        <time>2021-06-05T13:12:54Z</time>
      </trkpt>
      <trkpt lat="43.66167" lon="3.39207">
        <ele>219</ele>
        <time>2021-06-05T13:12:56Z</time>
      </trkpt>
      <trkpt lat="43.66168" lon="3.3921">
        <ele>219</ele>
        <time>2021-06-05T13:12:58Z</time>
      </trkpt>
      <trkpt lat="43.66169" lon="3.39213">
        <ele>219</ele>
        <time>2021-06-05T13:13:00Z</time>
      </trkpt>
      <trkpt lat="43.6617" lon="3.39217">
        <ele>220</ele>
        <time>2021-06-05T13:13:02Z</time>
      </trkpt>
      <trkpt lat="43.6617" lon="3.39221">
        <ele>220</ele>
        <time>2021-06-05T13:13:04Z</time>
      </trkpt>
      <trkpt lat="43.66171" lon="3.39224">
        <ele>220</ele>
        <time>2021-06-05T13:13:06Z</time>
      </trkpt>
      <trkpt lat="43.66172" lon="3.39228">
        <ele>220</ele>
        <time>2021-06-05T13:13:08Z</time>
      </trkpt>
      <trkpt lat="43.66172" lon="3.39231">
        <ele>220</ele>
        <time>2021-06-05T13:13:10Z</time>
      </trkpt>
      <trkpt lat="43.66172" lon="3.39235">
        <ele>221</ele>
        <time>2021-06-05T13:13:12Z</time>
      </trkpt>
      <trkpt lat="43.66172" lon="3.39238">
        <ele>221</ele>
        <time>2021-06-05T13:13:14Z</time>
      </trkpt>
      <trkpt lat="43.66172" lon="3.39242">
        <ele>221</ele>
        <time>2021-06-05T13:13:16Z</time>
      </trkpt>
      <trkpt lat="43.66172" lon="3.39246">
        <ele>221</ele>
        <time>2021-06-05T13:13:18Z</time>
      </trkpt>
      <trkpt lat="43.66174" lon="3.3925">
        <ele>221</ele>
        <time>2021-06-05T13:13:20Z</time>
      </trkpt>
      <trkpt lat="43.66172" lon="3.39253">
        <ele>222</ele>
        <time>2021-06-05T13:13:22Z</time>
      </trkpt>
      <trkpt lat="43.66172" lon="3.39257">
        <ele>222</ele>
        <time>2021-06-05T13:13:24Z</time>
      </trkpt>
      <trkpt lat="43.6617" lon="3.39261">
        <ele>222</ele>
        <time>2021-06-05T13:13:26Z</time>
      </trkpt>
      <trkpt lat="43.66169" lon="3.39265">
        <ele>222</ele>
        <time>2021-06-05T13:13:28Z</time>
      </trkpt>
      <trkpt lat="43.66168" lon="3.39268">
        <ele>222</ele>
        <time>2021-06-05T13:13:30Z</time>
      </trkpt>
      <trkpt lat="43.66166" lon="3.39271">
        <ele>221</ele>
        <time>2021-06-05T13:13:32Z</time>
      </trkpt>
      <trkpt lat="43.66165" lon="3.39274">
        <ele>221</ele>
        <time>2021-06-05T13:13:34Z</time>
      </trkpt>
      <trkpt lat="43.66164" lon="3.39278">
        <ele>221</ele>
        <time>2021-06-05T13:13:36Z</time>
      </trkpt>
      <trkpt lat="43.66162" lon="3.39281">
        <ele>221</ele>
        <time>2021-06-05T13:13:38Z</time>
      </trkpt>
      <trkpt lat="43.66161" lon="3.39284">
        <ele>221</ele>
        <time>2021-06-05T13:13:40Z</time>
      </trkpt>
      <trkpt lat="43.6616" lon="3.39288">
        <ele>222</ele>
        <time>2021-06-05T13:13:42Z</time>
      </trkpt>
      <trkpt lat="43.66158" lon="3.39291">
        <ele>222</ele>
        <time>2021-06-05T13:13:44Z</time>
      </trkpt>
      <trkpt lat="43.66157" lon="3.39294">
        <ele>222</ele>
        <time>2021-06-05T13:13:46Z</time>
      </trkpt>
      <trkpt lat="43.66156" lon="3.39297">
        <ele>222</ele>
        <time>2021-06-05T13:13:48Z</time>
      </trkpt>
      <trkpt lat="43.66154" lon="3.393">
        <ele>222</ele>
        <time>2021-06-05T13:13:50Z</time>
      </trkpt>
      <trkpt lat="43.66153" lon="3.39303">
        <ele>222</ele>
        <time>2021-06-05T13:13:52Z</time>
      </trkpt>
      <trkpt lat="43.66151" lon="3.39307">
        <ele>222</ele>
        <time>2021-06-05T13:13:54Z</time>
      </trkpt>
      <trkpt lat="43.6615" lon="3.39309">
        <ele>222</ele>
        <time>2021-06-05T13:13:56Z</time>
      </trkpt>
      <trkpt lat="43.66148" lon="3.39312">
        <ele>222</ele>
        <time>2021-06-05T13:13:58Z</time>
      </trkpt>
      <trkpt lat="43.66147" lon="3.39315">
        <ele>222</ele>
        <time>2021-06-05T13:14:00Z</time>
      </trkpt>
      <trkpt lat="43.66145" lon="3.39318">
        <ele>224</ele>
        <time>2021-06-05T13:14:02Z</time>
      </trkpt>
      <trkpt lat="43.66144" lon="3.39321">
        <ele>224</ele>
        <time>2021-06-05T13:14:04Z</time>
      </trkpt>
      <trkpt lat="43.66142" lon="3.39325">
        <ele>224</ele>
        <time>2021-06-05T13:14:06Z</time>
      </trkpt>
      <trkpt lat="43.6614" lon="3.39328">
        <ele>224</ele>
        <time>2021-06-05T13:14:08Z</time>
      </trkpt>
      <trkpt lat="43.66138" lon="3.39332">
        <ele>224</ele>
        <time>2021-06-05T13:14:10Z</time>
      </trkpt>
      <trkpt lat="43.66137" lon="3.39335">
        <ele>225</ele>
        <time>2021-06-05T13:14:12Z</time>
      </trkpt>
      <trkpt lat="43.66134" lon="3.39339">
        <ele>225</ele>
        <time>2021-06-05T13:14:14Z</time>
      </trkpt>
      <trkpt lat="43.66134" lon="3.39341">
        <ele>225</ele>
        <time>2021-06-05T13:14:15Z</time>
      </trkpt>
      <trkpt lat="43.66133" lon="3.39344">
        <ele>225</ele>
        <time>2021-06-05T13:14:16Z</time>
      </trkpt>
      <trkpt lat="43.66132" lon="3.39345">
        <ele>225</ele>
        <time>2021-06-05T13:14:17Z</time>
      </trkpt>
      <trkpt lat="43.66131" lon="3.39348">
        <ele>225</ele>
        <time>2021-06-05T13:14:18Z</time>
      </trkpt>
      <trkpt lat="43.6613" lon="3.39351">
        <ele>225</ele>
        <time>2021-06-05T13:14:19Z</time>
      </trkpt>
      <trkpt lat="43.66129" lon="3.39353">
        <ele>225</ele>
        <time>2021-06-05T13:14:20Z</time>
      </trkpt>
      <trkpt lat="43.66128" lon="3.39355">
        <ele>225</ele>
        <time>2021-06-05T13:14:21Z</time>
      </trkpt>
      <trkpt lat="43.66127" lon="3.39358">
        <ele>226</ele>
        <time>2021-06-05T13:14:22Z</time>
      </trkpt>
      <trkpt lat="43.66126" lon="3.3936">
        <ele>226</ele>
        <time>2021-06-05T13:14:23Z</time>
      </trkpt>
      <trkpt lat="43.66126" lon="3.39362">
        <ele>226</ele>
        <time>2021-06-05T13:14:24Z</time>
      </trkpt>
      <trkpt lat="43.66125" lon="3.39365">
        <ele>226</ele>
        <time>2021-06-05T13:14:25Z</time>
      </trkpt>
      <trkpt lat="43.66124" lon="3.39367">
        <ele>226</ele>
        <time>2021-06-05T13:14:26Z</time>
      </trkpt>
      <trkpt lat="43.66123" lon="3.39369">
        <ele>226</ele>
        <time>2021-06-05T13:14:27Z</time>
      </trkpt>
      <trkpt lat="43.66122" lon="3.39371">
        <ele>226</ele>
        <time>2021-06-05T13:14:28Z</time>
      </trkpt>
      <trkpt lat="43.6612" lon="3.39374">
        <ele>226</ele>
        <time>2021-06-05T13:14:29Z</time>
      </trkpt>
      <trkpt lat="43.6612" lon="3.39376">
        <ele>226</ele>
        <time>2021-06-05T13:14:30Z</time>
      </trkpt>
      <trkpt lat="43.66119" lon="3.39378">
        <ele>226</ele>
        <time>2021-06-05T13:14:31Z</time>
      </trkpt>
      <trkpt lat="43.66117" lon="3.3938">
        <ele>226</ele>
        <time>2021-06-05T13:14:32Z</time>
      </trkpt>
      <trkpt lat="43.66116" lon="3.39382">
        <ele>226</ele>
        <time>2021-06-05T13:14:33Z</time>
      </trkpt>
      <trkpt lat="43.66115" lon="3.39385">
        <ele>226</ele>
        <time>2021-06-05T13:14:34Z</time>
      </trkpt>
      <trkpt lat="43.66114" lon="3.39387">
        <ele>226</ele>
        <time>2021-06-05T13:14:35Z</time>
      </trkpt>
      <trkpt lat="43.66113" lon="3.39389">
        <ele>226</ele>
        <time>2021-06-05T13:14:36Z</time>
      </trkpt>
      <trkpt lat="43.66111" lon="3.3939">
        <ele>226</ele>
        <time>2021-06-05T13:14:37Z</time>
      </trkpt>
      <trkpt lat="43.6611" lon="3.39392">
        <ele>226</ele>
        <time>2021-06-05T13:14:38Z</time>
      </trkpt>
      <trkpt lat="43.66109" lon="3.39394">
        <ele>226</ele>
        <time>2021-06-05T13:14:39Z</time>
      </trkpt>
      <trkpt lat="43.66108" lon="3.39396">
        <ele>226</ele>
        <time>2021-06-05T13:14:40Z</time>
      </trkpt>
      <trkpt lat="43.66107" lon="3.39398">
        <ele>226</ele>
        <time>2021-06-05T13:14:41Z</time>
      </trkpt>
      <trkpt lat="43.66105" lon="3.394">
        <ele>227</ele>
        <time>2021-06-05T13:14:42Z</time>
      </trkpt>
      <trkpt lat="43.66104" lon="3.39402">
        <ele>227</ele>
        <time>2021-06-05T13:14:43Z</time>
      </trkpt>
      <trkpt lat="43.66103" lon="3.39404">
        <ele>227</ele>
        <time>2021-06-05T13:14:44Z</time>
      </trkpt>
      <trkpt lat="43.66101" lon="3.39406">
        <ele>227</ele>
        <time>2021-06-05T13:14:45Z</time>
      </trkpt>
      <trkpt lat="43.661" lon="3.39408">
        <ele>227</ele>
        <time>2021-06-05T13:14:46Z</time>
      </trkpt>
      <trkpt lat="43.66099" lon="3.3941">
        <ele>227</ele>
        <time>2021-06-05T13:14:47Z</time>
      </trkpt>
      <trkpt lat="43.66098" lon="3.39413">
        <ele>227</ele>
        <time>2021-06-05T13:14:48Z</time>
      </trkpt>
      <trkpt lat="43.66098" lon="3.39415">
        <ele>227</ele>
        <time>2021-06-05T13:14:49Z</time>
      </trkpt>
      <trkpt lat="43.66098" lon="3.39418">
        <ele>227</ele>
        <time>2021-06-05T13:14:50Z</time>
      </trkpt>
      <trkpt lat="43.66097" lon="3.3942">
        <ele>227</ele>
        <time>2021-06-05T13:14:51Z</time>
      </trkpt>
      <trkpt lat="43.66098" lon="3.39423">
        <ele>228</ele>
        <time>2021-06-05T13:14:52Z</time>
      </trkpt>
      <trkpt lat="43.66098" lon="3.39426">
        <ele>228</ele>
        <time>2021-06-05T13:14:53Z</time>
      </trkpt>
      <trkpt lat="43.66098" lon="3.39429">
        <ele>228</ele>
        <time>2021-06-05T13:14:54Z</time>
      </trkpt>
      <trkpt lat="43.66099" lon="3.39431">
        <ele>228</ele>
        <time>2021-06-05T13:14:55Z</time>
      </trkpt>
      <trkpt lat="43.661" lon="3.39434">
        <ele>228</ele>
        <time>2021-06-05T13:14:56Z</time>
      </trkpt>
      <trkpt lat="43.661" lon="3.39437">
        <ele>228</ele>
        <time>2021-06-05T13:14:57Z</time>
      </trkpt>
      <trkpt lat="43.66101" lon="3.39439">
        <ele>228</ele>
        <time>2021-06-05T13:14:58Z</time>
      </trkpt>
      <trkpt lat="43.66103" lon="3.39441">
        <ele>228</ele>
        <time>2021-06-05T13:14:59Z</time>
      </trkpt>
      <trkpt lat="43.66103" lon="3.39443">
        <ele>228</ele>
        <time>2021-06-05T13:15:00Z</time>
      </trkpt>
      <trkpt lat="43.66105" lon="3.39445">
        <ele>228</ele>
        <time>2021-06-05T13:15:01Z</time>
      </trkpt>
      <trkpt lat="43.66107" lon="3.39447">
        <ele>228</ele>
        <time>2021-06-05T13:15:02Z</time>
      </trkpt>
      <trkpt lat="43.66108" lon="3.39449">
        <ele>228</ele>
        <time>2021-06-05T13:15:03Z</time>
      </trkpt>
      <trkpt lat="43.66109" lon="3.39451">
        <ele>228</ele>
        <time>2021-06-05T13:15:04Z</time>
      </trkpt>
      <trkpt lat="43.6611" lon="3.39453">
        <ele>228</ele>
        <time>2021-06-05T13:15:06Z</time>
      </trkpt>
      <trkpt lat="43.66116" lon="3.39454">
        <ele>228</ele>
        <time>2021-06-05T13:16:08Z</time>
      </trkpt>
      <trkpt lat="43.66117" lon="3.39455">
        <ele>228</ele>
        <time>2021-06-05T13:16:08Z</time>
      </trkpt>
      <trkpt lat="43.6612" lon="3.39456">
        <ele>228</ele>
        <time>2021-06-05T13:16:10Z</time>
      </trkpt>
      <trkpt lat="43.66121" lon="3.39458">
        <ele>228</ele>
        <time>2021-06-05T13:16:10Z</time>
      </trkpt>
      <trkpt lat="43.66123" lon="3.3946">
        <ele>228</ele>
        <time>2021-06-05T13:16:11Z</time>
      </trkpt>
      <trkpt lat="43.66126" lon="3.39462">
        <ele>228</ele>
        <time>2021-06-05T13:16:12Z</time>
      </trkpt>
      <trkpt lat="43.66128" lon="3.39464">
        <ele>228</ele>
        <time>2021-06-05T13:16:13Z</time>
      </trkpt>
      <trkpt lat="43.6613" lon="3.39467">
        <ele>228</ele>
        <time>2021-06-05T13:16:14Z</time>
      </trkpt>
      <trkpt lat="43.66133" lon="3.39469">
        <ele>228</ele>
        <time>2021-06-05T13:16:15Z</time>
      </trkpt>
      <trkpt lat="43.6611" lon="3.39453">
        <ele>228</ele>
        <time>2021-06-05T13:16:16Z</time>
      </trkpt>
      <trkpt lat="43.66136" lon="3.39471">
        <ele>228</ele>
        <time>2021-06-05T13:16:17Z</time>
      </trkpt>
      <trkpt lat="43.66139" lon="3.39472">
        <ele>228</ele>
        <time>2021-06-05T13:16:17Z</time>
      </trkpt>
      <trkpt lat="43.66143" lon="3.39475">
        <ele>228</ele>
        <time>2021-06-05T13:16:18Z</time>
      </trkpt>
      <trkpt lat="43.66146" lon="3.39477">
        <ele>228</ele>
        <time>2021-06-05T13:16:19Z</time>
      </trkpt>
      <trkpt lat="43.6615" lon="3.39478">
        <ele>228</ele>
        <time>2021-06-05T13:16:20Z</time>
      </trkpt>
      <trkpt lat="43.66154" lon="3.39479">
        <ele>228</ele>
        <time>2021-06-05T13:16:21Z</time>
      </trkpt>
      <trkpt lat="43.66159" lon="3.3948">
        <ele>228</ele>
        <time>2021-06-05T13:16:22Z</time>
      </trkpt>
      <trkpt lat="43.66163" lon="3.39481">
        <ele>228</ele>
        <time>2021-06-05T13:16:23Z</time>
      </trkpt>
      <trkpt lat="43.66168" lon="3.39482">
        <ele>228</ele>
        <time>2021-06-05T13:16:24Z</time>
      </trkpt>
      <trkpt lat="43.66172" lon="3.39483">
        <ele>228</ele>
        <time>2021-06-05T13:16:25Z</time>
      </trkpt>
      <trkpt lat="43.66178" lon="3.39484">
        <ele>228</ele>
        <time>2021-06-05T13:16:26Z</time>
      </trkpt>
      <trkpt lat="43.66183" lon="3.39484">
        <ele>228</ele>
        <time>2021-06-05T13:16:27Z</time>
      </trkpt>
      <trkpt lat="43.66189" lon="3.39485">
        <ele>227</ele>
        <time>2021-06-05T13:16:28Z</time>
      </trkpt>
      <trkpt lat="43.66194" lon="3.39487">
        <ele>227</ele>
        <time>2021-06-05T13:16:29Z</time>
      </trkpt>
      <trkpt lat="43.662" lon="3.39488">
        <ele>227</ele>
        <time>2021-06-05T13:16:30Z</time>
      </trkpt>
      <trkpt lat="43.66206" lon="3.3949">
        <ele>227</ele>
        <time>2021-06-05T13:16:31Z</time>
      </trkpt>
      <trkpt lat="43.66212" lon="3.39491">
        <ele>227</ele>
        <time>2021-06-05T13:16:32Z</time>
      </trkpt>
      <trkpt lat="43.66219" lon="3.39492">
        <ele>227</ele>
        <time>2021-06-05T13:16:33Z</time>
      </trkpt>
      <trkpt lat="43.66225" lon="3.39494">
        <ele>227</ele>
        <time>2021-06-05T13:16:34Z</time>
      </trkpt>
      <trkpt lat="43.66231" lon="3.39495">
        <ele>227</ele>
        <time>2021-06-05T13:16:35Z</time>
      </trkpt>
      <trkpt lat="43.66238" lon="3.39497">
        <ele>227</ele>
        <time>2021-06-05T13:16:36Z</time>
      </trkpt>
      <trkpt lat="43.66245" lon="3.39499">
        <ele>227</ele>
        <time>2021-06-05T13:16:37Z</time>
      </trkpt>
      <trkpt lat="43.66252" lon="3.39501">
        <ele>225</ele>
        <time>2021-06-05T13:16:38Z</time>
      </trkpt>
      <trkpt lat="43.66259" lon="3.39504">
        <ele>225</ele>
        <time>2021-06-05T13:16:39Z</time>
      </trkpt>
      <trkpt lat="43.66266" lon="3.39507">
        <ele>225</ele>
        <time>2021-06-05T13:16:40Z</time>
      </trkpt>
      <trkpt lat="43.66272" lon="3.3951">
        <ele>225</ele>
        <time>2021-06-05T13:16:41Z</time>
      </trkpt>
      <trkpt lat="43.66279" lon="3.39513">
        <ele>225</ele>
        <time>2021-06-05T13:16:42Z</time>
      </trkpt>
      <trkpt lat="43.66286" lon="3.39517">
        <ele>225</ele>
        <time>2021-06-05T13:16:43Z</time>
      </trkpt>
      <trkpt lat="43.66293" lon="3.3952">
        <ele>225</ele>
        <time>2021-06-05T13:16:44Z</time>
      </trkpt>
      <trkpt lat="43.663" lon="3.39523">
        <ele>225</ele>
        <time>2021-06-05T13:16:45Z</time>
      </trkpt>
      <trkpt lat="43.66307" lon="3.39525">
        <ele>225</ele>
        <time>2021-06-05T13:16:46Z</time>
      </trkpt>
      <trkpt lat="43.66313" lon="3.39526">
        <ele>225</ele>
        <time>2021-06-05T13:16:47Z</time>
      </trkpt>
      <trkpt lat="43.6632" lon="3.39526">
        <ele>222</ele>
        <time>2021-06-05T13:16:48Z</time>
      </trkpt>
      <trkpt lat="43.66327" lon="3.39525">
        <ele>222</ele>
        <time>2021-06-05T13:16:49Z</time>
      </trkpt>
      <trkpt lat="43.66333" lon="3.39524">
        <ele>222</ele>
        <time>2021-06-05T13:16:50Z</time>
      </trkpt>
      <trkpt lat="43.6634" lon="3.39522">
        <ele>222</ele>
        <time>2021-06-05T13:16:51Z</time>
      </trkpt>
      <trkpt lat="43.66346" lon="3.3952">
        <ele>222</ele>
        <time>2021-06-05T13:16:52Z</time>
      </trkpt>
      <trkpt lat="43.66353" lon="3.39518">
        <ele>222</ele>
        <time>2021-06-05T13:16:53Z</time>
      </trkpt>
      <trkpt lat="43.6636" lon="3.39515">
        <ele>222</ele>
        <time>2021-06-05T13:16:54Z</time>
      </trkpt>
      <trkpt lat="43.66365" lon="3.39513">
        <ele>222</ele>
        <time>2021-06-05T13:16:55Z</time>
      </trkpt>
      <trkpt lat="43.66371" lon="3.39512">
        <ele>222</ele>
        <time>2021-06-05T13:16:56Z</time>
      </trkpt>
      <trkpt lat="43.66376" lon="3.39513">
        <ele>222</ele>
        <time>2021-06-05T13:16:57Z</time>
      </trkpt>
      <trkpt lat="43.6638" lon="3.39517">
        <ele>220</ele>
        <time>2021-06-05T13:16:58Z</time>
      </trkpt>
      <trkpt lat="43.66382" lon="3.39522">
        <ele>220</ele>
        <time>2021-06-05T13:16:59Z</time>
      </trkpt>
      <trkpt lat="43.66382" lon="3.39527">
        <ele>220</ele>
        <time>2021-06-05T13:17:00Z</time>
      </trkpt>
      <trkpt lat="43.6638" lon="3.39531">
        <ele>220</ele>
        <time>2021-06-05T13:17:01Z</time>
      </trkpt>
      <trkpt lat="43.66378" lon="3.39533">
        <ele>220</ele>
        <time>2021-06-05T13:17:02Z</time>
      </trkpt>
      <trkpt lat="43.66375" lon="3.39536">
        <ele>220</ele>
        <time>2021-06-05T13:17:03Z</time>
      </trkpt>
      <trkpt lat="43.66372" lon="3.39538">
        <ele>220</ele>
        <time>2021-06-05T13:17:04Z</time>
      </trkpt>
      <trkpt lat="43.66369" lon="3.39541">
        <ele>220</ele>
        <time>2021-06-05T13:17:05Z</time>
      </trkpt>
      <trkpt lat="43.66366" lon="3.39543">
        <ele>220</ele>
        <time>2021-06-05T13:17:06Z</time>
      </trkpt>
      <trkpt lat="43.66362" lon="3.39545">
        <ele>220</ele>
        <time>2021-06-05T13:17:07Z</time>
      </trkpt>
      <trkpt lat="43.6636" lon="3.39547">
        <ele>219</ele>
        <time>2021-06-05T13:17:08Z</time>
      </trkpt>
      <trkpt lat="43.66357" lon="3.39549">
        <ele>219</ele>
        <time>2021-06-05T13:17:09Z</time>
      </trkpt>
      <trkpt lat="43.66354" lon="3.39551">
        <ele>219</ele>
        <time>2021-06-05T13:17:10Z</time>
      </trkpt>
      <trkpt lat="43.66351" lon="3.39553">
        <ele>219</ele>
        <time>2021-06-05T13:17:11Z</time>
      </trkpt>
      <trkpt lat="43.66349" lon="3.39557">
        <ele>219</ele>
        <time>2021-06-05T13:17:12Z</time>
      </trkpt>
      <trkpt lat="43.66346" lon="3.3956">
        <ele>219</ele>
        <time>2021-06-05T13:17:13Z</time>
      </trkpt>
      <trkpt lat="43.66345" lon="3.39564">
        <ele>219</ele>
        <time>2021-06-05T13:17:14Z</time>
      </trkpt>
      <trkpt lat="43.66344" lon="3.39568">
        <ele>219</ele>
        <time>2021-06-05T13:17:15Z</time>
      </trkpt>
      <trkpt lat="43.66342" lon="3.39573">
        <ele>219</ele>
        <time>2021-06-05T13:17:16Z</time>
      </trkpt>
      <trkpt lat="43.66341" lon="3.39578">
        <ele>219</ele>
        <time>2021-06-05T13:17:17Z</time>
      </trkpt>
      <trkpt lat="43.6634" lon="3.39582">
        <ele>218</ele>
        <time>2021-06-05T13:17:18Z</time>
      </trkpt>
      <trkpt lat="43.66338" lon="3.39586">
        <ele>218</ele>
        <time>2021-06-05T13:17:19Z</time>
      </trkpt>
      <trkpt lat="43.66336" lon="3.3959">
        <ele>218</ele>
        <time>2021-06-05T13:17:20Z</time>
      </trkpt>
      <trkpt lat="43.66334" lon="3.39594">
        <ele>218</ele>
        <time>2021-06-05T13:17:21Z</time>
      </trkpt>
      <trkpt lat="43.66331" lon="3.39596">
        <ele>218</ele>
        <time>2021-06-05T13:17:22Z</time>
      </trkpt>
      <trkpt lat="43.66328" lon="3.39599">
        <ele>218</ele>
        <time>2021-06-05T13:17:23Z</time>
      </trkpt>
      <trkpt lat="43.66325" lon="3.396">
        <ele>218</ele>
        <time>2021-06-05T13:17:24Z</time>
      </trkpt>
      <trkpt lat="43.66322" lon="3.39601">
        <ele>218</ele>
        <time>2021-06-05T13:17:26Z</time>
      </trkpt>
      <trkpt lat="43.66319" lon="3.39602">
        <ele>218</ele>
        <time>2021-06-05T13:17:26Z</time>
      </trkpt>
      <trkpt lat="43.66316" lon="3.39602">
        <ele>218</ele>
        <time>2021-06-05T13:17:27Z</time>
      </trkpt>
      <trkpt lat="43.66314" lon="3.39603">
        <ele>217</ele>
        <time>2021-06-05T13:17:28Z</time>
      </trkpt>
      <trkpt lat="43.66312" lon="3.39603">
        <ele>217</ele>
        <time>2021-06-05T13:17:29Z</time>
      </trkpt>
      <trkpt lat="43.66309" lon="3.39604">
        <ele>217</ele>
        <time>2021-06-05T13:17:30Z</time>
      </trkpt>
      <trkpt lat="43.66307" lon="3.39604">
        <ele>217</ele>
        <time>2021-06-05T13:17:31Z</time>
      </trkpt>
      <trkpt lat="43.66304" lon="3.39605">
        <ele>217</ele>
        <time>2021-06-05T13:17:32Z</time>
      </trkpt>
      <trkpt lat="43.66302" lon="3.39605">
        <ele>217</ele>
        <time>2021-06-05T13:17:33Z</time>
      </trkpt>
      <trkpt lat="43.663" lon="3.39606">
        <ele>217</ele>
        <time>2021-06-05T13:17:34Z</time>
      </trkpt>
      <trkpt lat="43.66297" lon="3.39607">
        <ele>217</ele>
        <time>2021-06-05T13:17:35Z</time>
      </trkpt>
      <trkpt lat="43.66296" lon="3.39608">
        <ele>217</ele>
        <time>2021-06-05T13:17:36Z</time>
      </trkpt>
      <trkpt lat="43.66293" lon="3.3961">
        <ele>217</ele>
        <time>2021-06-05T13:17:37Z</time>
      </trkpt>
      <trkpt lat="43.66291" lon="3.39611">
        <ele>218</ele>
        <time>2021-06-05T13:17:38Z</time>
      </trkpt>
      <trkpt lat="43.66289" lon="3.39611">
        <ele>218</ele>
        <time>2021-06-05T13:17:39Z</time>
      </trkpt>
      <trkpt lat="43.66286" lon="3.39613">
        <ele>218</ele>
        <time>2021-06-05T13:17:40Z</time>
      </trkpt>
      <trkpt lat="43.66284" lon="3.39614">
        <ele>218</ele>
        <time>2021-06-05T13:17:41Z</time>
      </trkpt>
      <trkpt lat="43.66282" lon="3.39616">
        <ele>218</ele>
        <time>2021-06-05T13:17:42Z</time>
      </trkpt>
      <trkpt lat="43.6628" lon="3.39617">
        <ele>218</ele>
        <time>2021-06-05T13:17:43Z</time>
      </trkpt>
      <trkpt lat="43.66278" lon="3.39619">
        <ele>218</ele>
        <time>2021-06-05T13:17:44Z</time>
      </trkpt>
      <trkpt lat="43.66276" lon="3.39621">
        <ele>218</ele>
        <time>2021-06-05T13:17:45Z</time>
      </trkpt>
      <trkpt lat="43.66273" lon="3.39623">
        <ele>218</ele>
        <time>2021-06-05T13:17:46Z</time>
      </trkpt>
      <trkpt lat="43.66271" lon="3.39626">
        <ele>218</ele>
        <time>2021-06-05T13:17:47Z</time>
      </trkpt>
      <trkpt lat="43.66269" lon="3.39628">
        <ele>218</ele>
        <time>2021-06-05T13:17:48Z</time>
      </trkpt>
      <trkpt lat="43.66266" lon="3.39629">
        <ele>218</ele>
        <time>2021-06-05T13:17:49Z</time>
      </trkpt>
      <trkpt lat="43.66264" lon="3.39631">
        <ele>218</ele>
        <time>2021-06-05T13:17:50Z</time>
      </trkpt>
      <trkpt lat="43.66262" lon="3.39633">
        <ele>218</ele>
        <time>2021-06-05T13:17:51Z</time>
      </trkpt>
      <trkpt lat="43.6626" lon="3.39634">
        <ele>218</ele>
        <time>2021-06-05T13:17:52Z</time>
      </trkpt>
      <trkpt lat="43.66258" lon="3.39635">
        <ele>218</ele>
        <time>2021-06-05T13:17:53Z</time>
      </trkpt>
      <trkpt lat="43.66255" lon="3.39636">
        <ele>218</ele>
        <time>2021-06-05T13:17:54Z</time>
      </trkpt>
      <trkpt lat="43.66254" lon="3.39637">
        <ele>218</ele>
        <time>2021-06-05T13:17:55Z</time>
      </trkpt>
      <trkpt lat="43.66252" lon="3.39637">
        <ele>218</ele>
        <time>2021-06-05T13:17:56Z</time>
      </trkpt>
      <trkpt lat="43.6625" lon="3.39637">
        <ele>218</ele>
        <time>2021-06-05T13:17:57Z</time>
      </trkpt>
      <trkpt lat="43.66248" lon="3.39637">
        <ele>219</ele>
        <time>2021-06-05T13:17:58Z</time>
      </trkpt>
      <trkpt lat="43.66246" lon="3.39637">
        <ele>219</ele>
        <time>2021-06-05T13:17:59Z</time>
      </trkpt>
      <trkpt lat="43.66244" lon="3.39638">
        <ele>219</ele>
        <time>2021-06-05T13:18:01Z</time>
      </trkpt>
      <trkpt lat="43.66241" lon="3.39639">
        <ele>219</ele>
        <time>2021-06-05T13:18:01Z</time>
      </trkpt>
      <trkpt lat="43.6624" lon="3.3964">
        <ele>219</ele>
        <time>2021-06-05T13:18:02Z</time>
      </trkpt>
      <trkpt lat="43.66237" lon="3.39641">
        <ele>219</ele>
        <time>2021-06-05T13:18:03Z</time>
      </trkpt>
      <trkpt lat="43.66235" lon="3.39642">
        <ele>219</ele>
        <time>2021-06-05T13:18:04Z</time>
      </trkpt>
      <trkpt lat="43.66232" lon="3.39644">
        <ele>219</ele>
        <time>2021-06-05T13:18:05Z</time>
      </trkpt>
      <trkpt lat="43.6623" lon="3.39646">
        <ele>219</ele>
        <time>2021-06-05T13:18:06Z</time>
      </trkpt>
      <trkpt lat="43.66228" lon="3.3965">
        <ele>219</ele>
        <time>2021-06-05T13:18:07Z</time>
      </trkpt>
      <trkpt lat="43.66227" lon="3.39653">
        <ele>219</ele>
        <time>2021-06-05T13:18:08Z</time>
      </trkpt>
      <trkpt lat="43.66225" lon="3.39658">
        <ele>219</ele>
        <time>2021-06-05T13:18:09Z</time>
      </trkpt>
      <trkpt lat="43.66224" lon="3.39662">
        <ele>219</ele>
        <time>2021-06-05T13:18:10Z</time>
      </trkpt>
      <trkpt lat="43.66222" lon="3.39667">
        <ele>219</ele>
        <time>2021-06-05T13:18:11Z</time>
      </trkpt>
      <trkpt lat="43.6622" lon="3.39672">
        <ele>219</ele>
        <time>2021-06-05T13:18:12Z</time>
      </trkpt>
      <trkpt lat="43.66219" lon="3.39677">
        <ele>219</ele>
        <time>2021-06-05T13:18:13Z</time>
      </trkpt>
      <trkpt lat="43.66217" lon="3.3968">
        <ele>219</ele>
        <time>2021-06-05T13:18:14Z</time>
      </trkpt>
      <trkpt lat="43.66215" lon="3.39684">
        <ele>219</ele>
        <time>2021-06-05T13:18:15Z</time>
      </trkpt>
      <trkpt lat="43.66213" lon="3.39687">
        <ele>219</ele>
        <time>2021-06-05T13:18:16Z</time>
      </trkpt>
      <trkpt lat="43.6621" lon="3.3969">
        <ele>219</ele>
        <time>2021-06-05T13:18:18Z</time>
      </trkpt>
      <trkpt lat="43.66209" lon="3.39693">
        <ele>219</ele>
        <time>2021-06-05T13:18:18Z</time>
      </trkpt>
      <trkpt lat="43.66207" lon="3.39695">
        <ele>219</ele>
        <time>2021-06-05T13:18:19Z</time>
      </trkpt>
      <trkpt lat="43.66204" lon="3.39697">
        <ele>219</ele>
        <time>2021-06-05T13:18:20Z</time>
      </trkpt>
      <trkpt lat="43.66202" lon="3.39699">
        <ele>219</ele>
        <time>2021-06-05T13:18:21Z</time>
      </trkpt>
      <trkpt lat="43.66199" lon="3.39701">
        <ele>219</ele>
        <time>2021-06-05T13:18:22Z</time>
      </trkpt>
      <trkpt lat="43.66197" lon="3.39702">
        <ele>219</ele>
        <time>2021-06-05T13:18:23Z</time>
      </trkpt>
      <trkpt lat="43.66194" lon="3.39704">
        <ele>219</ele>
        <time>2021-06-05T13:18:24Z</time>
      </trkpt>
      <trkpt lat="43.66192" lon="3.39706">
        <ele>219</ele>
        <time>2021-06-05T13:18:25Z</time>
      </trkpt>
      <trkpt lat="43.6619" lon="3.39708">
        <ele>219</ele>
        <time>2021-06-05T13:18:26Z</time>
      </trkpt>
      <trkpt lat="43.66187" lon="3.3971">
        <ele>219</ele>
        <time>2021-06-05T13:18:27Z</time>
      </trkpt>
      <trkpt lat="43.66184" lon="3.39712">
        <ele>219</ele>
        <time>2021-06-05T13:18:28Z</time>
      </trkpt>
      <trkpt lat="43.66181" lon="3.39714">
        <ele>219</ele>
        <time>2021-06-05T13:18:29Z</time>
      </trkpt>
      <trkpt lat="43.66178" lon="3.39716">
        <ele>219</ele>
        <time>2021-06-05T13:18:30Z</time>
      </trkpt>
      <trkpt lat="43.66176" lon="3.39717">
        <ele>219</ele>
        <time>2021-06-05T13:18:31Z</time>
      </trkpt>
      <trkpt lat="43.66172" lon="3.39718">
        <ele>219</ele>
        <time>2021-06-05T13:18:32Z</time>
      </trkpt>
      <trkpt lat="43.66169" lon="3.39719">
        <ele>219</ele>
        <time>2021-06-05T13:18:33Z</time>
      </trkpt>
      <trkpt lat="43.66167" lon="3.39719">
        <ele>219</ele>
        <time>2021-06-05T13:18:35Z</time>
      </trkpt>
      <trkpt lat="43.66163" lon="3.39718">
        <ele>219</ele>
        <time>2021-06-05T13:18:35Z</time>
      </trkpt>
      <trkpt lat="43.66161" lon="3.39718">
        <ele>219</ele>
        <time>2021-06-05T13:18:36Z</time>
      </trkpt>
      <trkpt lat="43.66158" lon="3.39717">
        <ele>219</ele>
        <time>2021-06-05T13:18:37Z</time>
      </trkpt>
      <trkpt lat="43.66155" lon="3.39716">
        <ele>219</ele>
        <time>2021-06-05T13:18:38Z</time>
      </trkpt>
      <trkpt lat="43.66152" lon="3.39715">
        <ele>219</ele>
        <time>2021-06-05T13:18:39Z</time>
      </trkpt>
      <trkpt lat="43.66149" lon="3.39715">
        <ele>219</ele>
        <time>2021-06-05T13:18:40Z</time>
      </trkpt>
      <trkpt lat="43.66146" lon="3.39715">
        <ele>219</ele>
        <time>2021-06-05T13:18:41Z</time>
      </trkpt>
      <trkpt lat="43.66144" lon="3.39715">
        <ele>219</ele>
        <time>2021-06-05T13:18:42Z</time>
      </trkpt>
      <trkpt lat="43.66141" lon="3.39715">
        <ele>219</ele>
        <time>2021-06-05T13:18:43Z</time>
      </trkpt>
      <trkpt lat="43.66138" lon="3.39716">
        <ele>219</ele>
        <time>2021-06-05T13:18:44Z</time>
      </trkpt>
      <trkpt lat="43.66136" lon="3.39717">
        <ele>219</ele>
        <time>2021-06-05T13:18:45Z</time>
      </trkpt>
      <trkpt lat="43.66133" lon="3.39719">
        <ele>219</ele>
        <time>2021-06-05T13:18:47Z</time>
      </trkpt>
      <trkpt lat="43.6613" lon="3.39721">
        <ele>219</ele>
        <time>2021-06-05T13:18:47Z</time>
      </trkpt>
      <trkpt lat="43.66128" lon="3.39722">
        <ele>220</ele>
        <time>2021-06-05T13:18:48Z</time>
      </trkpt>
      <trkpt lat="43.66126" lon="3.39725">
        <ele>220</ele>
        <time>2021-06-05T13:18:49Z</time>
      </trkpt>
      <trkpt lat="43.66123" lon="3.39727">
        <ele>220</ele>
        <time>2021-06-05T13:18:50Z</time>
      </trkpt>
      <trkpt lat="43.66121" lon="3.39729">
        <ele>220</ele>
        <time>2021-06-05T13:18:51Z</time>
      </trkpt>
      <trkpt lat="43.66119" lon="3.39731">
        <ele>220</ele>
        <time>2021-06-05T13:18:52Z</time>
      </trkpt>
      <trkpt lat="43.66116" lon="3.39733">
        <ele>220</ele>
        <time>2021-06-05T13:18:53Z</time>
      </trkpt>
      <trkpt lat="43.66114" lon="3.39736">
        <ele>220</ele>
        <time>2021-06-05T13:18:54Z</time>
      </trkpt>
      <trkpt lat="43.66112" lon="3.39739">
        <ele>220</ele>
        <time>2021-06-05T13:18:55Z</time>
      </trkpt>
      <trkpt lat="43.66109" lon="3.39742">
        <ele>220</ele>
        <time>2021-06-05T13:18:56Z</time>
      </trkpt>
      <trkpt lat="43.66108" lon="3.39745">
        <ele>220</ele>
        <time>2021-06-05T13:18:57Z</time>
      </trkpt>
      <trkpt lat="43.66106" lon="3.39749">
        <ele>220</ele>
        <time>2021-06-05T13:18:58Z</time>
      </trkpt>
      <trkpt lat="43.66105" lon="3.39753">
        <ele>220</ele>
        <time>2021-06-05T13:18:59Z</time>
      </trkpt>
      <trkpt lat="43.66103" lon="3.39757">
        <ele>220</ele>
        <time>2021-06-05T13:19:00Z</time>
      </trkpt>
      <trkpt lat="43.66101" lon="3.39761">
        <ele>220</ele>
        <time>2021-06-05T13:19:01Z</time>
      </trkpt>
      <trkpt lat="43.66099" lon="3.39765">
        <ele>220</ele>
        <time>2021-06-05T13:19:02Z</time>
      </trkpt>
      <trkpt lat="43.66096" lon="3.39769">
        <ele>220</ele>
        <time>2021-06-05T13:19:04Z</time>
      </trkpt>
      <trkpt lat="43.66094" lon="3.39773">
        <ele>220</ele>
        <time>2021-06-05T13:19:04Z</time>
      </trkpt>
      <trkpt lat="43.66092" lon="3.39777">
        <ele>220</ele>
        <time>2021-06-05T13:19:05Z</time>
      </trkpt>
      <trkpt lat="43.66089" lon="3.3978">
        <ele>220</ele>
        <time>2021-06-05T13:19:06Z</time>
      </trkpt>
      <trkpt lat="43.66086" lon="3.39781">
        <ele>220</ele>
        <time>2021-06-05T13:19:07Z</time>
      </trkpt>
      <trkpt lat="43.66083" lon="3.39783">
        <ele>220</ele>
        <time>2021-06-05T13:19:08Z</time>
      </trkpt>
      <trkpt lat="43.66081" lon="3.39785">
        <ele>220</ele>
        <time>2021-06-05T13:19:09Z</time>
      </trkpt>
      <trkpt lat="43.66078" lon="3.39787">
        <ele>220</ele>
        <time>2021-06-05T13:19:10Z</time>
      </trkpt>
      <trkpt lat="43.66076" lon="3.39788">
        <ele>220</ele>
        <time>2021-06-05T13:19:11Z</time>
      </trkpt>
      <trkpt lat="43.66074" lon="3.3979">
        <ele>220</ele>
        <time>2021-06-05T13:19:12Z</time>
      </trkpt>
      <trkpt lat="43.66072" lon="3.39792">
        <ele>220</ele>
        <time>2021-06-05T13:19:13Z</time>
      </trkpt>
      <trkpt lat="43.66069" lon="3.39793">
        <ele>220</ele>
        <time>2021-06-05T13:19:14Z</time>
      </trkpt>
      <trkpt lat="43.66067" lon="3.39795">
        <ele>220</ele>
        <time>2021-06-05T13:19:15Z</time>
      </trkpt>
      <trkpt lat="43.66064" lon="3.39796">
        <ele>220</ele>
        <time>2021-06-05T13:19:16Z</time>
      </trkpt>
      <trkpt lat="43.66062" lon="3.39798">
        <ele>220</ele>
        <time>2021-06-05T13:19:17Z</time>
      </trkpt>
      <trkpt lat="43.66059" lon="3.398">
        <ele>220</ele>
        <time>2021-06-05T13:19:18Z</time>
      </trkpt>
      <trkpt lat="43.66057" lon="3.39803">
        <ele>220</ele>
        <time>2021-06-05T13:19:19Z</time>
      </trkpt>
      <trkpt lat="43.66054" lon="3.39804">
        <ele>220</ele>
        <time>2021-06-05T13:19:21Z</time>
      </trkpt>
      <trkpt lat="43.66051" lon="3.39807">
        <ele>220</ele>
        <time>2021-06-05T13:19:21Z</time>
      </trkpt>
      <trkpt lat="43.66049" lon="3.39809">
        <ele>220</ele>
        <time>2021-06-05T13:19:22Z</time>
      </trkpt>
      <trkpt lat="43.66047" lon="3.39812">
        <ele>220</ele>
        <time>2021-06-05T13:19:23Z</time>
      </trkpt>
      <trkpt lat="43.66045" lon="3.39814">
        <ele>220</ele>
        <time>2021-06-05T13:19:24Z</time>
      </trkpt>
      <trkpt lat="43.66042" lon="3.39817">
        <ele>220</ele>
        <time>2021-06-05T13:19:25Z</time>
      </trkpt>
      <trkpt lat="43.66041" lon="3.39819">
        <ele>220</ele>
        <time>2021-06-05T13:19:26Z</time>
      </trkpt>
      <trkpt lat="43.66038" lon="3.39822">
        <ele>220</ele>
        <time>2021-06-05T13:19:27Z</time>
      </trkpt>
      <trkpt lat="43.66035" lon="3.39825">
        <ele>220</ele>
        <time>2021-06-05T13:19:28Z</time>
      </trkpt>
      <trkpt lat="43.66034" lon="3.39828">
        <ele>220</ele>
        <time>2021-06-05T13:19:29Z</time>
      </trkpt>
      <trkpt lat="43.66031" lon="3.3983">
        <ele>220</ele>
        <time>2021-06-05T13:19:30Z</time>
      </trkpt>
      <trkpt lat="43.66029" lon="3.39833">
        <ele>220</ele>
        <time>2021-06-05T13:19:31Z</time>
      </trkpt>
      <trkpt lat="43.66026" lon="3.39835">
        <ele>220</ele>
        <time>2021-06-05T13:19:32Z</time>
      </trkpt>
      <trkpt lat="43.66024" lon="3.39838">
        <ele>220</ele>
        <time>2021-06-05T13:19:33Z</time>
      </trkpt>
      <trkpt lat="43.66021" lon="3.3984">
        <ele>220</ele>
        <time>2021-06-05T13:19:34Z</time>
      </trkpt>
      <trkpt lat="43.66019" lon="3.39842">
        <ele>220</ele>
        <time>2021-06-05T13:19:35Z</time>
      </trkpt>
      <trkpt lat="43.66016" lon="3.39844">
        <ele>220</ele>
        <time>2021-06-05T13:19:36Z</time>
      </trkpt>
      <trkpt lat="43.66013" lon="3.39845">
        <ele>220</ele>
        <time>2021-06-05T13:19:37Z</time>
      </trkpt>
      <trkpt lat="43.6601" lon="3.39846">
        <ele>221</ele>
        <time>2021-06-05T13:19:38Z</time>
      </trkpt>
      <trkpt lat="43.66008" lon="3.39847">
        <ele>221</ele>
        <time>2021-06-05T13:19:39Z</time>
      </trkpt>
      <trkpt lat="43.66006" lon="3.39848">
        <ele>221</ele>
        <time>2021-06-05T13:19:40Z</time>
      </trkpt>
      <trkpt lat="43.66004" lon="3.39849">
        <ele>221</ele>
        <time>2021-06-05T13:19:41Z</time>
      </trkpt>
      <trkpt lat="43.66001" lon="3.3985">
        <ele>221</ele>
        <time>2021-06-05T13:19:42Z</time>
      </trkpt>
      <trkpt lat="43.65999" lon="3.39851">
        <ele>221</ele>
        <time>2021-06-05T13:19:43Z</time>
      </trkpt>
      <trkpt lat="43.65996" lon="3.39853">
        <ele>221</ele>
        <time>2021-06-05T13:19:44Z</time>
      </trkpt>
      <trkpt lat="43.65994" lon="3.39855">
        <ele>221</ele>
        <time>2021-06-05T13:19:45Z</time>
      </trkpt>
      <trkpt lat="43.65992" lon="3.39857">
        <ele>221</ele>
        <time>2021-06-05T13:19:46Z</time>
      </trkpt>
      <trkpt lat="43.6599" lon="3.39858">
        <ele>221</ele>
        <time>2021-06-05T13:19:47Z</time>
      </trkpt>
      <trkpt lat="43.65987" lon="3.3986">
        <ele>221</ele>
        <time>2021-06-05T13:19:48Z</time>
      </trkpt>
      <trkpt lat="43.65985" lon="3.39861">
        <ele>221</ele>
        <time>2021-06-05T13:19:49Z</time>
      </trkpt>
      <trkpt lat="43.65982" lon="3.39863">
        <ele>221</ele>
        <time>2021-06-05T13:19:50Z</time>
      </trkpt>
      <trkpt lat="43.6598" lon="3.39865">
        <ele>221</ele>
        <time>2021-06-05T13:19:51Z</time>
      </trkpt>
      <trkpt lat="43.65978" lon="3.39868">
        <ele>221</ele>
        <time>2021-06-05T13:19:52Z</time>
      </trkpt>
      <trkpt lat="43.65975" lon="3.3987">
        <ele>221</ele>
        <time>2021-06-05T13:19:53Z</time>
      </trkpt>
      <trkpt lat="43.65973" lon="3.39872">
        <ele>221</ele>
        <time>2021-06-05T13:19:54Z</time>
      </trkpt>
      <trkpt lat="43.65971" lon="3.39874">
        <ele>221</ele>
        <time>2021-06-05T13:19:55Z</time>
      </trkpt>
      <trkpt lat="43.65968" lon="3.39876">
        <ele>221</ele>
        <time>2021-06-05T13:19:56Z</time>
      </trkpt>
      <trkpt lat="43.65966" lon="3.39877">
        <ele>221</ele>
        <time>2021-06-05T13:19:57Z</time>
      </trkpt>
      <trkpt lat="43.65962" lon="3.3988">
        <ele>222</ele>
        <time>2021-06-05T13:19:58Z</time>
      </trkpt>
      <trkpt lat="43.6596" lon="3.39881">
        <ele>222</ele>
        <time>2021-06-05T13:19:59Z</time>
      </trkpt>
      <trkpt lat="43.65957" lon="3.39883">
        <ele>222</ele>
        <time>2021-06-05T13:20:01Z</time>
      </trkpt>
      <trkpt lat="43.65954" lon="3.39885">
        <ele>222</ele>
        <time>2021-06-05T13:20:01Z</time>
      </trkpt>
      <trkpt lat="43.65952" lon="3.39886">
        <ele>222</ele>
        <time>2021-06-05T13:20:02Z</time>
      </trkpt>
      <trkpt lat="43.6595" lon="3.39887">
        <ele>222</ele>
        <time>2021-06-05T13:20:03Z</time>
      </trkpt>
      <trkpt lat="43.65947" lon="3.39889">
        <ele>222</ele>
        <time>2021-06-05T13:20:04Z</time>
      </trkpt>
      <trkpt lat="43.65944" lon="3.3989">
        <ele>222</ele>
        <time>2021-06-05T13:20:05Z</time>
      </trkpt>
      <trkpt lat="43.65942" lon="3.39892">
        <ele>222</ele>
        <time>2021-06-05T13:20:06Z</time>
      </trkpt>
      <trkpt lat="43.65939" lon="3.39893">
        <ele>222</ele>
        <time>2021-06-05T13:20:07Z</time>
      </trkpt>
      <trkpt lat="43.65937" lon="3.39894">
        <ele>222</ele>
        <time>2021-06-05T13:20:08Z</time>
      </trkpt>
      <trkpt lat="43.65935" lon="3.39896">
        <ele>222</ele>
        <time>2021-06-05T13:20:09Z</time>
      </trkpt>
      <trkpt lat="43.65932" lon="3.39898">
        <ele>222</ele>
        <time>2021-06-05T13:20:10Z</time>
      </trkpt>
      <trkpt lat="43.6593" lon="3.399">
        <ele>222</ele>
        <time>2021-06-05T13:20:11Z</time>
      </trkpt>
      <trkpt lat="43.65927" lon="3.39903">
        <ele>222</ele>
        <time>2021-06-05T13:20:12Z</time>
      </trkpt>
      <trkpt lat="43.65924" lon="3.39904">
        <ele>222</ele>
        <time>2021-06-05T13:20:13Z</time>
      </trkpt>
      <trkpt lat="43.65922" lon="3.39907">
        <ele>222</ele>
        <time>2021-06-05T13:20:14Z</time>
      </trkpt>
      <trkpt lat="43.6592" lon="3.39909">
        <ele>222</ele>
        <time>2021-06-05T13:20:15Z</time>
      </trkpt>
      <trkpt lat="43.65917" lon="3.39911">
        <ele>222</ele>
        <time>2021-06-05T13:20:16Z</time>
      </trkpt>
      <trkpt lat="43.65915" lon="3.39913">
        <ele>222</ele>
        <time>2021-06-05T13:20:17Z</time>
      </trkpt>
      <trkpt lat="43.65913" lon="3.39915">
        <ele>223</ele>
        <time>2021-06-05T13:20:18Z</time>
      </trkpt>
      <trkpt lat="43.6591" lon="3.39918">
        <ele>223</ele>
        <time>2021-06-05T13:20:19Z</time>
      </trkpt>
      <trkpt lat="43.65908" lon="3.39918">
        <ele>223</ele>
        <time>2021-06-05T13:20:20Z</time>
      </trkpt>
      <trkpt lat="43.65906" lon="3.39917">
        <ele>223</ele>
        <time>2021-06-05T13:20:21Z</time>
      </trkpt>
      <trkpt lat="43.65904" lon="3.39915">
        <ele>223</ele>
        <time>2021-06-05T13:20:22Z</time>
      </trkpt>
      <trkpt lat="43.65901" lon="3.39912">
        <ele>223</ele>
        <time>2021-06-05T13:20:24Z</time>
      </trkpt>
      <trkpt lat="43.65899" lon="3.39909">
        <ele>223</ele>
        <time>2021-06-05T13:20:24Z</time>
      </trkpt>
      <trkpt lat="43.65897" lon="3.39906">
        <ele>223</ele>
        <time>2021-06-05T13:20:25Z</time>
      </trkpt>
      <trkpt lat="43.65896" lon="3.39904">
        <ele>223</ele>
        <time>2021-06-05T13:20:26Z</time>
      </trkpt>
      <trkpt lat="43.65895" lon="3.39901">
        <ele>222</ele>
        <time>2021-06-05T13:20:28Z</time>
      </trkpt>
      <trkpt lat="43.65895" lon="3.39901">
        <ele>222</ele>
        <time>2021-06-05T13:21:38Z</time>
      </trkpt>
      <trkpt lat="43.65898" lon="3.39908">
        <ele>222</ele>
        <time>2021-06-05T13:23:31Z</time>
      </trkpt>
      <trkpt lat="43.65899" lon="3.39908">
        <ele>222</ele>
        <time>2021-06-05T13:23:32Z</time>
      </trkpt>
      <trkpt lat="43.65901" lon="3.3991">
        <ele>222</ele>
        <time>2021-06-05T13:23:33Z</time>
      </trkpt>
      <trkpt lat="43.65903" lon="3.39911">
        <ele>222</ele>
        <time>2021-06-05T13:23:34Z</time>
      </trkpt>
      <trkpt lat="43.65905" lon="3.39913">
        <ele>222</ele>
        <time>2021-06-05T13:23:35Z</time>
      </trkpt>
      <trkpt lat="43.65906" lon="3.39916">
        <ele>222</ele>
        <time>2021-06-05T13:23:36Z</time>
      </trkpt>
      <trkpt lat="43.65906" lon="3.39919">
        <ele>222</ele>
        <time>2021-06-05T13:23:37Z</time>
      </trkpt>
      <trkpt lat="43.65905" lon="3.39922">
        <ele>222</ele>
        <time>2021-06-05T13:23:38Z</time>
      </trkpt>
      <trkpt lat="43.65905" lon="3.39926">
        <ele>222</ele>
        <time>2021-06-05T13:23:39Z</time>
      </trkpt>
      <trkpt lat="43.65903" lon="3.39929">
        <ele>222</ele>
        <time>2021-06-05T13:23:40Z</time>
      </trkpt>
      <trkpt lat="43.65902" lon="3.39933">
        <ele>222</ele>
        <time>2021-06-05T13:23:41Z</time>
      </trkpt>
      <trkpt lat="43.659" lon="3.39936">
        <ele>222</ele>
        <time>2021-06-05T13:23:42Z</time>
      </trkpt>
      <trkpt lat="43.65899" lon="3.3994">
        <ele>222</ele>
        <time>2021-06-05T13:23:43Z</time>
      </trkpt>
      <trkpt lat="43.65898" lon="3.39943">
        <ele>222</ele>
        <time>2021-06-05T13:23:44Z</time>
      </trkpt>
      <trkpt lat="43.65896" lon="3.39947">
        <ele>222</ele>
        <time>2021-06-05T13:23:45Z</time>
      </trkpt>
      <trkpt lat="43.65894" lon="3.39951">
        <ele>222</ele>
        <time>2021-06-05T13:23:46Z</time>
      </trkpt>
      <trkpt lat="43.65893" lon="3.39955">
        <ele>222</ele>
        <time>2021-06-05T13:23:47Z</time>
      </trkpt>
      <trkpt lat="43.65892" lon="3.39959">
        <ele>222</ele>
        <time>2021-06-05T13:23:48Z</time>
      </trkpt>
      <trkpt lat="43.65892" lon="3.39964">
        <ele>222</ele>
        <time>2021-06-05T13:23:49Z</time>
      </trkpt>
      <trkpt lat="43.65891" lon="3.39969">
        <ele>222</ele>
        <time>2021-06-05T13:23:50Z</time>
      </trkpt>
      <trkpt lat="43.65891" lon="3.39973">
        <ele>222</ele>
        <time>2021-06-05T13:23:51Z</time>
      </trkpt>
      <trkpt lat="43.65892" lon="3.39979">
        <ele>222</ele>
        <time>2021-06-05T13:23:52Z</time>
      </trkpt>
      <trkpt lat="43.65892" lon="3.39985">
        <ele>222</ele>
        <time>2021-06-05T13:23:52Z</time>
      </trkpt>
      <trkpt lat="43.65893" lon="3.3999">
        <ele>222</ele>
        <time>2021-06-05T13:23:53Z</time>
      </trkpt>
      <trkpt lat="43.65894" lon="3.39996">
        <ele>222</ele>
        <time>2021-06-05T13:23:54Z</time>
      </trkpt>
      <trkpt lat="43.65895" lon="3.40001">
        <ele>222</ele>
        <time>2021-06-05T13:23:55Z</time>
      </trkpt>
      <trkpt lat="43.65897" lon="3.40007">
        <ele>222</ele>
        <time>2021-06-05T13:23:56Z</time>
      </trkpt>
      <trkpt lat="43.65898" lon="3.40013">
        <ele>222</ele>
        <time>2021-06-05T13:23:57Z</time>
      </trkpt>
      <trkpt lat="43.65899" lon="3.40019">
        <ele>222</ele>
        <time>2021-06-05T13:23:58Z</time>
      </trkpt>
      <trkpt lat="43.65901" lon="3.40024">
        <ele>222</ele>
        <time>2021-06-05T13:23:59Z</time>
      </trkpt>
      <trkpt lat="43.65902" lon="3.4003">
        <ele>222</ele>
        <time>2021-06-05T13:24:00Z</time>
      </trkpt>
      <trkpt lat="43.65904" lon="3.40036">
        <ele>222</ele>
        <time>2021-06-05T13:24:02Z</time>
      </trkpt>
      <trkpt lat="43.65905" lon="3.40041">
        <ele>222</ele>
        <time>2021-06-05T13:24:03Z</time>
      </trkpt>
      <trkpt lat="43.65906" lon="3.40047">
        <ele>222</ele>
        <time>2021-06-05T13:24:04Z</time>
      </trkpt>
      <trkpt lat="43.65909" lon="3.40052">
        <ele>222</ele>
        <time>2021-06-05T13:24:05Z</time>
      </trkpt>
      <trkpt lat="43.65911" lon="3.40058">
        <ele>222</ele>
        <time>2021-06-05T13:24:06Z</time>
      </trkpt>
      <trkpt lat="43.65914" lon="3.40063">
        <ele>222</ele>
        <time>2021-06-05T13:24:07Z</time>
      </trkpt>
      <trkpt lat="43.65917" lon="3.40068">
        <ele>222</ele>
        <time>2021-06-05T13:24:08Z</time>
      </trkpt>
      <trkpt lat="43.6592" lon="3.40073">
        <ele>222</ele>
        <time>2021-06-05T13:24:09Z</time>
      </trkpt>
      <trkpt lat="43.65922" lon="3.40077">
        <ele>222</ele>
        <time>2021-06-05T13:24:10Z</time>
      </trkpt>
      <trkpt lat="43.65925" lon="3.40082">
        <ele>222</ele>
        <time>2021-06-05T13:24:11Z</time>
      </trkpt>
      <trkpt lat="43.65929" lon="3.40086">
        <ele>221</ele>
        <time>2021-06-05T13:24:12Z</time>
      </trkpt>
      <trkpt lat="43.65931" lon="3.4009">
        <ele>221</ele>
        <time>2021-06-05T13:24:13Z</time>
      </trkpt>
      <trkpt lat="43.65934" lon="3.40095">
        <ele>221</ele>
        <time>2021-06-05T13:24:14Z</time>
      </trkpt>
      <trkpt lat="43.65937" lon="3.40099">
        <ele>221</ele>
        <time>2021-06-05T13:24:15Z</time>
      </trkpt>
      <trkpt lat="43.65939" lon="3.40103">
        <ele>221</ele>
        <time>2021-06-05T13:24:16Z</time>
      </trkpt>
      <trkpt lat="43.65942" lon="3.40107">
        <ele>221</ele>
        <time>2021-06-05T13:24:17Z</time>
      </trkpt>
      <trkpt lat="43.65946" lon="3.40109">
        <ele>221</ele>
        <time>2021-06-05T13:24:18Z</time>
      </trkpt>
      <trkpt lat="43.65948" lon="3.40113">
        <ele>221</ele>
        <time>2021-06-05T13:24:19Z</time>
      </trkpt>
      <trkpt lat="43.65951" lon="3.40117">
        <ele>221</ele>
        <time>2021-06-05T13:24:20Z</time>
      </trkpt>
      <trkpt lat="43.65954" lon="3.4012">
        <ele>221</ele>
        <time>2021-06-05T13:24:21Z</time>
      </trkpt>
      <trkpt lat="43.65956" lon="3.40124">
        <ele>222</ele>
        <time>2021-06-05T13:24:22Z</time>
      </trkpt>
      <trkpt lat="43.65959" lon="3.40127">
        <ele>222</ele>
        <time>2021-06-05T13:24:23Z</time>
      </trkpt>
      <trkpt lat="43.65961" lon="3.4013">
        <ele>222</ele>
        <time>2021-06-05T13:24:24Z</time>
      </trkpt>
      <trkpt lat="43.65964" lon="3.40133">
        <ele>222</ele>
        <time>2021-06-05T13:24:25Z</time>
      </trkpt>
      <trkpt lat="43.65967" lon="3.40136">
        <ele>222</ele>
        <time>2021-06-05T13:24:26Z</time>
      </trkpt>
      <trkpt lat="43.6597" lon="3.4014">
        <ele>222</ele>
        <time>2021-06-05T13:24:27Z</time>
      </trkpt>
      <trkpt lat="43.65973" lon="3.40143">
        <ele>222</ele>
        <time>2021-06-05T13:24:28Z</time>
      </trkpt>
      <trkpt lat="43.65975" lon="3.40147">
        <ele>222</ele>
        <time>2021-06-05T13:24:29Z</time>
      </trkpt>
      <trkpt lat="43.65978" lon="3.4015">
        <ele>222</ele>
        <time>2021-06-05T13:24:30Z</time>
      </trkpt>
      <trkpt lat="43.65981" lon="3.40154">
        <ele>222</ele>
        <time>2021-06-05T13:24:31Z</time>
      </trkpt>
      <trkpt lat="43.65982" lon="3.40158">
        <ele>222</ele>
        <time>2021-06-05T13:24:32Z</time>
      </trkpt>
      <trkpt lat="43.65986" lon="3.40162">
        <ele>222</ele>
        <time>2021-06-05T13:24:33Z</time>
      </trkpt>
      <trkpt lat="43.65988" lon="3.40166">
        <ele>222</ele>
        <time>2021-06-05T13:24:34Z</time>
      </trkpt>
      <trkpt lat="43.6599" lon="3.40171">
        <ele>222</ele>
        <time>2021-06-05T13:24:35Z</time>
      </trkpt>
      <trkpt lat="43.65991" lon="3.40176">
        <ele>222</ele>
        <time>2021-06-05T13:24:36Z</time>
      </trkpt>
      <trkpt lat="43.65993" lon="3.40181">
        <ele>222</ele>
        <time>2021-06-05T13:24:37Z</time>
      </trkpt>
      <trkpt lat="43.65994" lon="3.40186">
        <ele>222</ele>
        <time>2021-06-05T13:24:38Z</time>
      </trkpt>
      <trkpt lat="43.65995" lon="3.40191">
        <ele>222</ele>
        <time>2021-06-05T13:24:39Z</time>
      </trkpt>
      <trkpt lat="43.65996" lon="3.40196">
        <ele>222</ele>
        <time>2021-06-05T13:24:40Z</time>
      </trkpt>
      <trkpt lat="43.65997" lon="3.40201">
        <ele>222</ele>
        <time>2021-06-05T13:24:41Z</time>
      </trkpt>
      <trkpt lat="43.65998" lon="3.40206">
        <ele>221</ele>
        <time>2021-06-05T13:24:42Z</time>
      </trkpt>
      <trkpt lat="43.65999" lon="3.40212">
        <ele>221</ele>
        <time>2021-06-05T13:24:43Z</time>
      </trkpt>
      <trkpt lat="43.66" lon="3.40217">
        <ele>221</ele>
        <time>2021-06-05T13:24:44Z</time>
      </trkpt>
      <trkpt lat="43.66001" lon="3.40222">
        <ele>221</ele>
        <time>2021-06-05T13:24:45Z</time>
      </trkpt>
      <trkpt lat="43.66002" lon="3.40227">
        <ele>221</ele>
        <time>2021-06-05T13:24:46Z</time>
      </trkpt>
      <trkpt lat="43.66003" lon="3.40232">
        <ele>221</ele>
        <time>2021-06-05T13:24:47Z</time>
      </trkpt>
      <trkpt lat="43.66004" lon="3.40237">
        <ele>221</ele>
        <time>2021-06-05T13:24:48Z</time>
      </trkpt>
      <trkpt lat="43.66005" lon="3.40242">
        <ele>221</ele>
        <time>2021-06-05T13:24:49Z</time>
      </trkpt>
      <trkpt lat="43.66007" lon="3.40246">
        <ele>221</ele>
        <time>2021-06-05T13:24:50Z</time>
      </trkpt>
      <trkpt lat="43.66008" lon="3.40251">
        <ele>221</ele>
        <time>2021-06-05T13:24:51Z</time>
      </trkpt>
      <trkpt lat="43.66009" lon="3.40255">
        <ele>221</ele>
        <time>2021-06-05T13:24:52Z</time>
      </trkpt>
      <trkpt lat="43.66011" lon="3.40259">
        <ele>221</ele>
        <time>2021-06-05T13:24:53Z</time>
      </trkpt>
      <trkpt lat="43.66012" lon="3.40263">
        <ele>221</ele>
        <time>2021-06-05T13:24:54Z</time>
      </trkpt>
      <trkpt lat="43.66013" lon="3.40268">
        <ele>221</ele>
        <time>2021-06-05T13:24:55Z</time>
      </trkpt>
      <trkpt lat="43.66015" lon="3.40271">
        <ele>221</ele>
        <time>2021-06-05T13:24:56Z</time>
      </trkpt>
      <trkpt lat="43.66016" lon="3.40276">
        <ele>221</ele>
        <time>2021-06-05T13:24:57Z</time>
      </trkpt>
      <trkpt lat="43.66017" lon="3.4028">
        <ele>221</ele>
        <time>2021-06-05T13:24:58Z</time>
      </trkpt>
      <trkpt lat="43.66019" lon="3.40285">
        <ele>221</ele>
        <time>2021-06-05T13:24:59Z</time>
      </trkpt>
      <trkpt lat="43.6602" lon="3.4029">
        <ele>221</ele>
        <time>2021-06-05T13:25:00Z</time>
      </trkpt>
      <trkpt lat="43.6602" lon="3.40295">
        <ele>221</ele>
        <time>2021-06-05T13:25:01Z</time>
      </trkpt>
      <trkpt lat="43.66022" lon="3.403">
        <ele>221</ele>
        <time>2021-06-05T13:25:02Z</time>
      </trkpt>
      <trkpt lat="43.66022" lon="3.40305">
        <ele>221</ele>
        <time>2021-06-05T13:25:03Z</time>
      </trkpt>
      <trkpt lat="43.66023" lon="3.4031">
        <ele>221</ele>
        <time>2021-06-05T13:25:04Z</time>
      </trkpt>
      <trkpt lat="43.66023" lon="3.40316">
        <ele>221</ele>
        <time>2021-06-05T13:25:05Z</time>
      </trkpt>
      <trkpt lat="43.66024" lon="3.40321">
        <ele>221</ele>
        <time>2021-06-05T13:25:06Z</time>
      </trkpt>
      <trkpt lat="43.66024" lon="3.40326">
        <ele>221</ele>
        <time>2021-06-05T13:25:07Z</time>
      </trkpt>
      <trkpt lat="43.66024" lon="3.40332">
        <ele>221</ele>
        <time>2021-06-05T13:25:08Z</time>
      </trkpt>
      <trkpt lat="43.66024" lon="3.40337">
        <ele>221</ele>
        <time>2021-06-05T13:25:09Z</time>
      </trkpt>
      <trkpt lat="43.66024" lon="3.40342">
        <ele>221</ele>
        <time>2021-06-05T13:25:10Z</time>
      </trkpt>
      <trkpt lat="43.66024" lon="3.40348">
        <ele>221</ele>
        <time>2021-06-05T13:25:11Z</time>
      </trkpt>
      <trkpt lat="43.66024" lon="3.40353">
        <ele>220</ele>
        <time>2021-06-05T13:25:12Z</time>
      </trkpt>
      <trkpt lat="43.66024" lon="3.40359">
        <ele>220</ele>
        <time>2021-06-05T13:25:13Z</time>
      </trkpt>
      <trkpt lat="43.66024" lon="3.40364">
        <ele>220</ele>
        <time>2021-06-05T13:25:14Z</time>
      </trkpt>
      <trkpt lat="43.66024" lon="3.4037">
        <ele>220</ele>
        <time>2021-06-05T13:25:15Z</time>
      </trkpt>
      <trkpt lat="43.66024" lon="3.40375">
        <ele>220</ele>
        <time>2021-06-05T13:25:16Z</time>
      </trkpt>
      <trkpt lat="43.66025" lon="3.40381">
        <ele>220</ele>
        <time>2021-06-05T13:25:17Z</time>
      </trkpt>
      <trkpt lat="43.66026" lon="3.40386">
        <ele>220</ele>
        <time>2021-06-05T13:25:18Z</time>
      </trkpt>
      <trkpt lat="43.66026" lon="3.40391">
        <ele>220</ele>
        <time>2021-06-05T13:25:19Z</time>
      </trkpt>
      <trkpt lat="43.66027" lon="3.40396">
        <ele>220</ele>
        <time>2021-06-05T13:25:20Z</time>
      </trkpt>
      <trkpt lat="43.66028" lon="3.40401">
        <ele>220</ele>
        <time>2021-06-05T13:25:21Z</time>
      </trkpt>
      <trkpt lat="43.6603" lon="3.40406">
        <ele>220</ele>
        <time>2021-06-05T13:25:22Z</time>
      </trkpt>
      <trkpt lat="43.66031" lon="3.40411">
        <ele>220</ele>
        <time>2021-06-05T13:25:23Z</time>
      </trkpt>
      <trkpt lat="43.66032" lon="3.40416">
        <ele>220</ele>
        <time>2021-06-05T13:25:24Z</time>
      </trkpt>
      <trkpt lat="43.66033" lon="3.4042">
        <ele>220</ele>
        <time>2021-06-05T13:25:25Z</time>
      </trkpt>
      <trkpt lat="43.66035" lon="3.40425">
        <ele>220</ele>
        <time>2021-06-05T13:25:26Z</time>
      </trkpt>
      <trkpt lat="43.66035" lon="3.40429">
        <ele>220</ele>
        <time>2021-06-05T13:25:27Z</time>
      </trkpt>
      <trkpt lat="43.66037" lon="3.40433">
        <ele>220</ele>
        <time>2021-06-05T13:25:28Z</time>
      </trkpt>
      <trkpt lat="43.66039" lon="3.40438">
        <ele>220</ele>
        <time>2021-06-05T13:25:29Z</time>
      </trkpt>
      <trkpt lat="43.66041" lon="3.40443">
        <ele>220</ele>
        <time>2021-06-05T13:25:30Z</time>
      </trkpt>
      <trkpt lat="43.66042" lon="3.40447">
        <ele>220</ele>
        <time>2021-06-05T13:25:31Z</time>
      </trkpt>
      <trkpt lat="43.66045" lon="3.40452">
        <ele>219</ele>
        <time>2021-06-05T13:25:32Z</time>
      </trkpt>
      <trkpt lat="43.66047" lon="3.40456">
        <ele>219</ele>
        <time>2021-06-05T13:25:33Z</time>
      </trkpt>
      <trkpt lat="43.6605" lon="3.4046">
        <ele>219</ele>
        <time>2021-06-05T13:25:34Z</time>
      </trkpt>
      <trkpt lat="43.66052" lon="3.40465">
        <ele>219</ele>
        <time>2021-06-05T13:25:35Z</time>
      </trkpt>
      <trkpt lat="43.66056" lon="3.40468">
        <ele>219</ele>
        <time>2021-06-05T13:25:36Z</time>
      </trkpt>
      <trkpt lat="43.66058" lon="3.40471">
        <ele>219</ele>
        <time>2021-06-05T13:25:37Z</time>
      </trkpt>
      <trkpt lat="43.66061" lon="3.40474">
        <ele>219</ele>
        <time>2021-06-05T13:25:38Z</time>
      </trkpt>
      <trkpt lat="43.66065" lon="3.40476">
        <ele>219</ele>
        <time>2021-06-05T13:25:39Z</time>
      </trkpt>
      <trkpt lat="43.66068" lon="3.40478">
        <ele>219</ele>
        <time>2021-06-05T13:25:40Z</time>
      </trkpt>
      <trkpt lat="43.66071" lon="3.40479">
        <ele>219</ele>
        <time>2021-06-05T13:25:41Z</time>
      </trkpt>
      <trkpt lat="43.66074" lon="3.40479">
        <ele>219</ele>
        <time>2021-06-05T13:25:42Z</time>
      </trkpt>
      <trkpt lat="43.66077" lon="3.40479">
        <ele>219</ele>
        <time>2021-06-05T13:25:43Z</time>
      </trkpt>
      <trkpt lat="43.66079" lon="3.40478">
        <ele>219</ele>
        <time>2021-06-05T13:25:44Z</time>
      </trkpt>
      <trkpt lat="43.66082" lon="3.40478">
        <ele>219</ele>
        <time>2021-06-05T13:25:45Z</time>
      </trkpt>
      <trkpt lat="43.66084" lon="3.40476">
        <ele>219</ele>
        <time>2021-06-05T13:25:46Z</time>
      </trkpt>
      <trkpt lat="43.66086" lon="3.40475">
        <ele>219</ele>
        <time>2021-06-05T13:25:47Z</time>
      </trkpt>
      <trkpt lat="43.66089" lon="3.40474">
        <ele>219</ele>
        <time>2021-06-05T13:25:49Z</time>
      </trkpt>
      <trkpt lat="43.66091" lon="3.40474">
        <ele>219</ele>
        <time>2021-06-05T13:25:51Z</time>
      </trkpt>
      <trkpt lat="43.66091" lon="3.40474">
        <ele>219</ele>
        <time>2021-06-05T13:25:56Z</time>
      </trkpt>
      <trkpt lat="43.66093" lon="3.40481">
        <ele>219</ele>
        <time>2021-06-05T13:26:01Z</time>
      </trkpt>
      <trkpt lat="43.66093" lon="3.40487">
        <ele>219</ele>
        <time>2021-06-05T13:26:02Z</time>
      </trkpt>
      <trkpt lat="43.66093" lon="3.40492">
        <ele>219</ele>
        <time>2021-06-05T13:26:03Z</time>
      </trkpt>
      <trkpt lat="43.66093" lon="3.40496">
        <ele>219</ele>
        <time>2021-06-05T13:26:04Z</time>
      </trkpt>
      <trkpt lat="43.66092" lon="3.405">
        <ele>219</ele>
        <time>2021-06-05T13:26:05Z</time>
      </trkpt>
      <trkpt lat="43.66093" lon="3.40503">
        <ele>219</ele>
        <time>2021-06-05T13:26:06Z</time>
      </trkpt>
      <trkpt lat="43.66093" lon="3.40506">
        <ele>219</ele>
        <time>2021-06-05T13:26:07Z</time>
      </trkpt>
      <trkpt lat="43.66093" lon="3.40508">
        <ele>219</ele>
        <time>2021-06-05T13:26:08Z</time>
      </trkpt>
      <trkpt lat="43.66093" lon="3.40511">
        <ele>219</ele>
        <time>2021-06-05T13:26:09Z</time>
      </trkpt>
      <trkpt lat="43.66093" lon="3.40514">
        <ele>219</ele>
        <time>2021-06-05T13:26:10Z</time>
      </trkpt>
      <trkpt lat="43.66093" lon="3.40519">
        <ele>219</ele>
        <time>2021-06-05T13:26:11Z</time>
      </trkpt>
      <trkpt lat="43.66092" lon="3.40523">
        <ele>217</ele>
        <time>2021-06-05T13:26:12Z</time>
      </trkpt>
      <trkpt lat="43.66091" lon="3.40527">
        <ele>217</ele>
        <time>2021-06-05T13:26:13Z</time>
      </trkpt>
      <trkpt lat="43.66089" lon="3.4053">
        <ele>217</ele>
        <time>2021-06-05T13:26:14Z</time>
      </trkpt>
      <trkpt lat="43.66086" lon="3.40533">
        <ele>217</ele>
        <time>2021-06-05T13:26:15Z</time>
      </trkpt>
      <trkpt lat="43.66084" lon="3.40535">
        <ele>217</ele>
        <time>2021-06-05T13:26:16Z</time>
      </trkpt>
      <trkpt lat="43.66081" lon="3.40537">
        <ele>217</ele>
        <time>2021-06-05T13:26:17Z</time>
      </trkpt>
      <trkpt lat="43.66079" lon="3.40539">
        <ele>217</ele>
        <time>2021-06-05T13:26:18Z</time>
      </trkpt>
      <trkpt lat="43.66077" lon="3.40541">
        <ele>217</ele>
        <time>2021-06-05T13:26:19Z</time>
      </trkpt>
      <trkpt lat="43.66075" lon="3.40544">
        <ele>217</ele>
        <time>2021-06-05T13:26:20Z</time>
      </trkpt>
      <trkpt lat="43.66073" lon="3.40546">
        <ele>217</ele>
        <time>2021-06-05T13:26:21Z</time>
      </trkpt>
      <trkpt lat="43.6607" lon="3.40548">
        <ele>215</ele>
        <time>2021-06-05T13:26:22Z</time>
      </trkpt>
      <trkpt lat="43.66067" lon="3.40547">
        <ele>215</ele>
        <time>2021-06-05T13:26:23Z</time>
      </trkpt>
      <trkpt lat="43.66064" lon="3.40545">
        <ele>215</ele>
        <time>2021-06-05T13:26:24Z</time>
      </trkpt>
      <trkpt lat="43.66061" lon="3.40542">
        <ele>215</ele>
        <time>2021-06-05T13:26:25Z</time>
      </trkpt>
      <trkpt lat="43.66059" lon="3.4054">
        <ele>215</ele>
        <time>2021-06-05T13:26:26Z</time>
      </trkpt>
      <trkpt lat="43.66057" lon="3.40538">
        <ele>215</ele>
        <time>2021-06-05T13:26:27Z</time>
      </trkpt>
      <trkpt lat="43.66055" lon="3.40536">
        <ele>215</ele>
        <time>2021-06-05T13:26:28Z</time>
      </trkpt>
      <trkpt lat="43.66053" lon="3.40533">
        <ele>215</ele>
        <time>2021-06-05T13:26:29Z</time>
      </trkpt>
      <trkpt lat="43.66051" lon="3.40531">
        <ele>215</ele>
        <time>2021-06-05T13:26:30Z</time>
      </trkpt>
      <trkpt lat="43.6605" lon="3.4053">
        <ele>214</ele>
        <time>2021-06-05T13:26:32Z</time>
      </trkpt>
      <trkpt lat="43.66047" lon="3.40529">
        <ele>214</ele>
        <time>2021-06-05T13:26:34Z</time>
      </trkpt>
      <trkpt lat="43.66044" lon="3.40528">
        <ele>214</ele>
        <time>2021-06-05T13:26:36Z</time>
      </trkpt>
      <trkpt lat="43.66041" lon="3.40527">
        <ele>214</ele>
        <time>2021-06-05T13:26:38Z</time>
      </trkpt>
      <trkpt lat="43.66039" lon="3.40527">
        <ele>214</ele>
        <time>2021-06-05T13:26:39Z</time>
      </trkpt>
      <trkpt lat="43.66037" lon="3.40525">
        <ele>214</ele>
        <time>2021-06-05T13:26:40Z</time>
      </trkpt>
      <trkpt lat="43.66034" lon="3.40524">
        <ele>213</ele>
        <time>2021-06-05T13:26:42Z</time>
      </trkpt>
      <trkpt lat="43.66032" lon="3.40522">
        <ele>213</ele>
        <time>2021-06-05T13:26:43Z</time>
      </trkpt>
      <trkpt lat="43.6603" lon="3.40521">
        <ele>213</ele>
        <time>2021-06-05T13:26:43Z</time>
      </trkpt>
      <trkpt lat="43.66028" lon="3.40519">
        <ele>213</ele>
        <time>2021-06-05T13:26:45Z</time>
      </trkpt>
      <trkpt lat="43.66026" lon="3.40516">
        <ele>213</ele>
        <time>2021-06-05T13:26:46Z</time>
      </trkpt>
      <trkpt lat="43.66025" lon="3.40512">
        <ele>213</ele>
        <time>2021-06-05T13:26:47Z</time>
      </trkpt>
      <trkpt lat="43.66024" lon="3.40509">
        <ele>213</ele>
        <time>2021-06-05T13:26:48Z</time>
      </trkpt>
      <trkpt lat="43.66023" lon="3.40506">
        <ele>213</ele>
        <time>2021-06-05T13:26:49Z</time>
      </trkpt>
      <trkpt lat="43.66022" lon="3.40503">
        <ele>213</ele>
        <time>2021-06-05T13:26:50Z</time>
      </trkpt>
      <trkpt lat="43.6602" lon="3.40501">
        <ele>212</ele>
        <time>2021-06-05T13:26:52Z</time>
      </trkpt>
      <trkpt lat="43.66019" lon="3.40498">
        <ele>212</ele>
        <time>2021-06-05T13:26:53Z</time>
      </trkpt>
      <trkpt lat="43.66017" lon="3.40497">
        <ele>212</ele>
        <time>2021-06-05T13:26:54Z</time>
      </trkpt>
      <trkpt lat="43.66016" lon="3.40494">
        <ele>212</ele>
        <time>2021-06-05T13:26:55Z</time>
      </trkpt>
      <trkpt lat="43.66015" lon="3.40492">
        <ele>212</ele>
        <time>2021-06-05T13:26:56Z</time>
      </trkpt>
      <trkpt lat="43.66013" lon="3.4049">
        <ele>212</ele>
        <time>2021-06-05T13:26:57Z</time>
      </trkpt>
      <trkpt lat="43.66012" lon="3.40489">
        <ele>212</ele>
        <time>2021-06-05T13:26:58Z</time>
      </trkpt>
      <trkpt lat="43.6601" lon="3.40487">
        <ele>212</ele>
        <time>2021-06-05T13:26:59Z</time>
      </trkpt>
      <trkpt lat="43.66007" lon="3.40487">
        <ele>212</ele>
        <time>2021-06-05T13:27:01Z</time>
      </trkpt>
      <trkpt lat="43.66005" lon="3.40488">
        <ele>209</ele>
        <time>2021-06-05T13:27:03Z</time>
      </trkpt>
      <trkpt lat="43.66005" lon="3.40489">
        <ele>208</ele>
        <time>2021-06-05T13:27:10Z</time>
      </trkpt>
      <trkpt lat="43.66005" lon="3.40486">
        <ele>208</ele>
        <time>2021-06-05T13:27:18Z</time>
      </trkpt>
      <trkpt lat="43.66005" lon="3.40486">
        <ele>208</ele>
        <time>2021-06-05T13:27:22Z</time>
      </trkpt>
      <trkpt lat="43.66006" lon="3.40495">
        <ele>207</ele>
        <time>2021-06-05T13:27:41Z</time>
      </trkpt>
      <trkpt lat="43.66007" lon="3.40499">
        <ele>207</ele>
        <time>2021-06-05T13:27:42Z</time>
      </trkpt>
      <trkpt lat="43.66007" lon="3.40502">
        <ele>207</ele>
        <time>2021-06-05T13:27:43Z</time>
      </trkpt>
      <trkpt lat="43.66008" lon="3.40505">
        <ele>207</ele>
        <time>2021-06-05T13:27:44Z</time>
      </trkpt>
      <trkpt lat="43.66008" lon="3.40508">
        <ele>207</ele>
        <time>2021-06-05T13:27:45Z</time>
      </trkpt>
      <trkpt lat="43.66008" lon="3.40512">
        <ele>207</ele>
        <time>2021-06-05T13:27:46Z</time>
      </trkpt>
      <trkpt lat="43.66008" lon="3.40515">
        <ele>207</ele>
        <time>2021-06-05T13:27:47Z</time>
      </trkpt>
      <trkpt lat="43.66008" lon="3.40518">
        <ele>207</ele>
        <time>2021-06-05T13:27:48Z</time>
      </trkpt>
      <trkpt lat="43.66008" lon="3.40522">
        <ele>207</ele>
        <time>2021-06-05T13:27:50Z</time>
      </trkpt>
      <trkpt lat="43.66006" lon="3.40526">
        <ele>205</ele>
        <time>2021-06-05T13:27:52Z</time>
      </trkpt>
      <trkpt lat="43.66005" lon="3.40531">
        <ele>205</ele>
        <time>2021-06-05T13:27:54Z</time>
      </trkpt>
      <trkpt lat="43.66004" lon="3.40534">
        <ele>205</ele>
        <time>2021-06-05T13:27:55Z</time>
      </trkpt>
      <trkpt lat="43.66004" lon="3.40537">
        <ele>205</ele>
        <time>2021-06-05T13:27:57Z</time>
      </trkpt>
      <trkpt lat="43.66004" lon="3.4054">
        <ele>200</ele>
        <time>2021-06-05T13:28:02Z</time>
      </trkpt>
      <trkpt lat="43.66004" lon="3.4054">
        <ele>200</ele>
        <time>2021-06-05T13:28:06Z</time>
      </trkpt>
      <trkpt lat="43.66002" lon="3.40545">
        <ele>199</ele>
        <time>2021-06-05T13:28:11Z</time>
      </trkpt>
      <trkpt lat="43.66002" lon="3.40546">
        <ele>199</ele>
        <time>2021-06-05T13:28:12Z</time>
      </trkpt>
      <trkpt lat="43.66002" lon="3.40549">
        <ele>199</ele>
        <time>2021-06-05T13:28:15Z</time>
      </trkpt>
      <trkpt lat="43.66002" lon="3.40552">
        <ele>199</ele>
        <time>2021-06-05T13:28:17Z</time>
      </trkpt>
      <trkpt lat="43.66003" lon="3.40555">
        <ele>199</ele>
        <time>2021-06-05T13:28:21Z</time>
      </trkpt>
      <trkpt lat="43.66003" lon="3.40559">
        <ele>196</ele>
        <time>2021-06-05T13:28:26Z</time>
      </trkpt>
      <trkpt lat="43.66002" lon="3.40561">
        <ele>196</ele>
        <time>2021-06-05T13:28:30Z</time>
      </trkpt>
      <trkpt lat="43.65998" lon="3.40562">
        <ele>194</ele>
        <time>2021-06-05T13:28:32Z</time>
      </trkpt>
      <trkpt lat="43.65996" lon="3.40561">
        <ele>194</ele>
        <time>2021-06-05T13:28:33Z</time>
      </trkpt>
      <trkpt lat="43.65994" lon="3.40561">
        <ele>194</ele>
        <time>2021-06-05T13:28:35Z</time>
      </trkpt>
      <trkpt lat="43.65991" lon="3.40563">
        <ele>194</ele>
        <time>2021-06-05T13:28:37Z</time>
      </trkpt>
      <trkpt lat="43.6599" lon="3.40565">
        <ele>194</ele>
        <time>2021-06-05T13:28:39Z</time>
      </trkpt>
      <trkpt lat="43.65986" lon="3.40565">
        <ele>191</ele>
        <time>2021-06-05T13:28:42Z</time>
      </trkpt>
      <trkpt lat="43.65984" lon="3.40565">
        <ele>191</ele>
        <time>2021-06-05T13:28:43Z</time>
      </trkpt>
      <trkpt lat="43.65982" lon="3.40565">
        <ele>191</ele>
        <time>2021-06-05T13:28:45Z</time>
      </trkpt>
      <trkpt lat="43.65982" lon="3.40568">
        <ele>191</ele>
        <time>2021-06-05T13:28:47Z</time>
      </trkpt>
      <trkpt lat="43.65981" lon="3.40572">
        <ele>191</ele>
        <time>2021-06-05T13:28:49Z</time>
      </trkpt>
      <trkpt lat="43.65981" lon="3.40575">
        <ele>191</ele>
        <time>2021-06-05T13:28:50Z</time>
      </trkpt>
      <trkpt lat="43.65981" lon="3.40578">
        <ele>191</ele>
        <time>2021-06-05T13:28:51Z</time>
      </trkpt>
      <trkpt lat="43.65981" lon="3.40581">
        <ele>185</ele>
        <time>2021-06-05T13:28:52Z</time>
      </trkpt>
      <trkpt lat="43.65979" lon="3.40584">
        <ele>185</ele>
        <time>2021-06-05T13:28:53Z</time>
      </trkpt>
      <trkpt lat="43.65977" lon="3.40586">
        <ele>185</ele>
        <time>2021-06-05T13:28:54Z</time>
      </trkpt>
      <trkpt lat="43.65975" lon="3.40588">
        <ele>185</ele>
        <time>2021-06-05T13:28:55Z</time>
      </trkpt>
      <trkpt lat="43.65974" lon="3.4059">
        <ele>185</ele>
        <time>2021-06-05T13:28:56Z</time>
      </trkpt>
      <trkpt lat="43.65974" lon="3.40592">
        <ele>185</ele>
        <time>2021-06-05T13:28:57Z</time>
      </trkpt>
      <trkpt lat="43.65973" lon="3.40595">
        <ele>185</ele>
        <time>2021-06-05T13:28:58Z</time>
      </trkpt>
      <trkpt lat="43.65973" lon="3.40598">
        <ele>185</ele>
        <time>2021-06-05T13:28:59Z</time>
      </trkpt>
      <trkpt lat="43.65972" lon="3.40601">
        <ele>185</ele>
        <time>2021-06-05T13:29:00Z</time>
      </trkpt>
      <trkpt lat="43.65972" lon="3.40605">
        <ele>182</ele>
        <time>2021-06-05T13:29:01Z</time>
      </trkpt>
      <trkpt lat="43.65972" lon="3.40608">
        <ele>182</ele>
        <time>2021-06-05T13:29:02Z</time>
      </trkpt>
      <trkpt lat="43.65973" lon="3.4061">
        <ele>182</ele>
        <time>2021-06-05T13:29:03Z</time>
      </trkpt>
      <trkpt lat="43.65973" lon="3.40613">
        <ele>182</ele>
        <time>2021-06-05T13:29:04Z</time>
      </trkpt>
      <trkpt lat="43.65974" lon="3.40617">
        <ele>182</ele>
        <time>2021-06-05T13:29:06Z</time>
      </trkpt>
      <trkpt lat="43.65973" lon="3.40645">
        <ele>170</ele>
        <time>2021-06-05T13:29:06Z</time>
      </trkpt>
      <trkpt lat="43.65975" lon="3.40646">
        <ele>170</ele>
        <time>2021-06-05T13:29:06Z</time>
      </trkpt>
      <trkpt lat="43.65977" lon="3.40648">
        <ele>170</ele>
        <time>2021-06-05T13:29:08Z</time>
      </trkpt>
      <trkpt lat="43.65979" lon="3.4065">
        <ele>170</ele>
        <time>2021-06-05T13:29:08Z</time>
      </trkpt>
      <trkpt lat="43.65973" lon="3.4062">
        <ele>182</ele>
        <time>2021-06-05T13:29:08Z</time>
      </trkpt>
      <trkpt lat="43.6598" lon="3.40651">
        <ele>170</ele>
        <time>2021-06-05T13:29:09Z</time>
      </trkpt>
      <trkpt lat="43.65982" lon="3.40655">
        <ele>170</ele>
        <time>2021-06-05T13:29:11Z</time>
      </trkpt>
      <trkpt lat="43.65973" lon="3.40625">
        <ele>177</ele>
        <time>2021-06-05T13:29:11Z</time>
      </trkpt>
      <trkpt lat="43.65984" lon="3.40656">
        <ele>170</ele>
        <time>2021-06-05T13:29:12Z</time>
      </trkpt>
      <trkpt lat="43.65972" lon="3.40627">
        <ele>177</ele>
        <time>2021-06-05T13:29:13Z</time>
      </trkpt>
      <trkpt lat="43.65985" lon="3.40657">
        <ele>170</ele>
        <time>2021-06-05T13:29:13Z</time>
      </trkpt>
      <trkpt lat="43.65987" lon="3.40659">
        <ele>170</ele>
        <time>2021-06-05T13:29:14Z</time>
      </trkpt>
      <trkpt lat="43.65971" lon="3.4063">
        <ele>177</ele>
        <time>2021-06-05T13:29:15Z</time>
      </trkpt>
      <trkpt lat="43.65989" lon="3.40663">
        <ele>170</ele>
        <time>2021-06-05T13:29:15Z</time>
      </trkpt>
      <trkpt lat="43.65991" lon="3.40666">
        <ele>167</ele>
        <time>2021-06-05T13:29:16Z</time>
      </trkpt>
      <trkpt lat="43.65994" lon="3.40669">
        <ele>167</ele>
        <time>2021-06-05T13:29:17Z</time>
      </trkpt>
      <trkpt lat="43.65997" lon="3.40672">
        <ele>167</ele>
        <time>2021-06-05T13:29:18Z</time>
      </trkpt>
      <trkpt lat="43.66" lon="3.40675">
        <ele>167</ele>
        <time>2021-06-05T13:29:19Z</time>
      </trkpt>
      <trkpt lat="43.66004" lon="3.40677">
        <ele>167</ele>
        <time>2021-06-05T13:29:20Z</time>
      </trkpt>
      <trkpt lat="43.6597" lon="3.40633">
        <ele>174</ele>
        <time>2021-06-05T13:29:21Z</time>
      </trkpt>
      <trkpt lat="43.66005" lon="3.40678">
        <ele>167</ele>
        <time>2021-06-05T13:29:22Z</time>
      </trkpt>
      <trkpt lat="43.6597" lon="3.40633">
        <ele>174</ele>
        <time>2021-06-05T13:29:22Z</time>
      </trkpt>
      <trkpt lat="43.66006" lon="3.40678">
        <ele>164</ele>
        <time>2021-06-05T13:30:34Z</time>
      </trkpt>
      <trkpt lat="43.6601" lon="3.40681">
        <ele>164</ele>
        <time>2021-06-05T13:30:41Z</time>
      </trkpt>
      <trkpt lat="43.66012" lon="3.40682">
        <ele>164</ele>
        <time>2021-06-05T13:30:42Z</time>
      </trkpt>
      <trkpt lat="43.66013" lon="3.40683">
        <ele>164</ele>
        <time>2021-06-05T13:30:43Z</time>
      </trkpt>
      <trkpt lat="43.66015" lon="3.40685">
        <ele>164</ele>
        <time>2021-06-05T13:30:44Z</time>
      </trkpt>
      <trkpt lat="43.66017" lon="3.40688">
        <ele>164</ele>
        <time>2021-06-05T13:30:45Z</time>
      </trkpt>
      <trkpt lat="43.66018" lon="3.40692">
        <ele>164</ele>
        <time>2021-06-05T13:30:46Z</time>
      </trkpt>
      <trkpt lat="43.6602" lon="3.40696">
        <ele>164</ele>
        <time>2021-06-05T13:30:47Z</time>
      </trkpt>
      <trkpt lat="43.66023" lon="3.40699">
        <ele>164</ele>
        <time>2021-06-05T13:30:48Z</time>
      </trkpt>
      <trkpt lat="43.66026" lon="3.40701">
        <ele>164</ele>
        <time>2021-06-05T13:30:49Z</time>
      </trkpt>
      <trkpt lat="43.6603" lon="3.40704">
        <ele>164</ele>
        <time>2021-06-05T13:30:50Z</time>
      </trkpt>
      <trkpt lat="43.66033" lon="3.40706">
        <ele>164</ele>
        <time>2021-06-05T13:30:51Z</time>
      </trkpt>
      <trkpt lat="43.66035" lon="3.40709">
        <ele>161</ele>
        <time>2021-06-05T13:30:52Z</time>
      </trkpt>
      <trkpt lat="43.66037" lon="3.40712">
        <ele>161</ele>
        <time>2021-06-05T13:30:54Z</time>
      </trkpt>
      <trkpt lat="43.66037" lon="3.40716">
        <ele>161</ele>
        <time>2021-06-05T13:30:56Z</time>
      </trkpt>
      <trkpt lat="43.66037" lon="3.40718">
        <ele>161</ele>
        <time>2021-06-05T13:30:57Z</time>
      </trkpt>
      <trkpt lat="43.66037" lon="3.40721">
        <ele>161</ele>
        <time>2021-06-05T13:30:58Z</time>
      </trkpt>
      <trkpt lat="43.66036" lon="3.40725">
        <ele>161</ele>
        <time>2021-06-05T13:30:59Z</time>
      </trkpt>
      <trkpt lat="43.66035" lon="3.40729">
        <ele>161</ele>
        <time>2021-06-05T13:31:00Z</time>
      </trkpt>
      <trkpt lat="43.66035" lon="3.40732">
        <ele>161</ele>
        <time>2021-06-05T13:31:01Z</time>
      </trkpt>
      <trkpt lat="43.66035" lon="3.40735">
        <ele>156</ele>
        <time>2021-06-05T13:31:01Z</time>
      </trkpt>
      <trkpt lat="43.66037" lon="3.40738">
        <ele>156</ele>
        <time>2021-06-05T13:31:03Z</time>
      </trkpt>
      <trkpt lat="43.66038" lon="3.40741">
        <ele>156</ele>
        <time>2021-06-05T13:31:03Z</time>
      </trkpt>
      <trkpt lat="43.6604" lon="3.40744">
        <ele>156</ele>
        <time>2021-06-05T13:31:04Z</time>
      </trkpt>
      <trkpt lat="43.66042" lon="3.40747">
        <ele>156</ele>
        <time>2021-06-05T13:31:05Z</time>
      </trkpt>
      <trkpt lat="43.66044" lon="3.40751">
        <ele>156</ele>
        <time>2021-06-05T13:31:06Z</time>
      </trkpt>
      <trkpt lat="43.66046" lon="3.40754">
        <ele>156</ele>
        <time>2021-06-05T13:31:07Z</time>
      </trkpt>
      <trkpt lat="43.66047" lon="3.40757">
        <ele>156</ele>
        <time>2021-06-05T13:31:08Z</time>
      </trkpt>
      <trkpt lat="43.66048" lon="3.4076">
        <ele>156</ele>
        <time>2021-06-05T13:31:09Z</time>
      </trkpt>
      <trkpt lat="43.66049" lon="3.40763">
        <ele>156</ele>
        <time>2021-06-05T13:31:10Z</time>
      </trkpt>
      <trkpt lat="43.6605" lon="3.40767">
        <ele>152</ele>
        <time>2021-06-05T13:31:12Z</time>
      </trkpt>
      <trkpt lat="43.6605" lon="3.4077">
        <ele>152</ele>
        <time>2021-06-05T13:31:13Z</time>
      </trkpt>
      <trkpt lat="43.66051" lon="3.40773">
        <ele>152</ele>
        <time>2021-06-05T13:31:14Z</time>
      </trkpt>
      <trkpt lat="43.66052" lon="3.40777">
        <ele>152</ele>
        <time>2021-06-05T13:31:15Z</time>
      </trkpt>
      <trkpt lat="43.66053" lon="3.4078">
        <ele>152</ele>
        <time>2021-06-05T13:31:16Z</time>
      </trkpt>
      <trkpt lat="43.66051" lon="3.40783">
        <ele>149</ele>
        <time>2021-06-05T13:31:21Z</time>
      </trkpt>
      <trkpt lat="43.66051" lon="3.40785">
        <ele>149</ele>
        <time>2021-06-05T13:31:23Z</time>
      </trkpt>
      <trkpt lat="43.66049" lon="3.4079">
        <ele>147</ele>
        <time>2021-06-05T13:31:25Z</time>
      </trkpt>
      <trkpt lat="43.66048" lon="3.40795">
        <ele>147</ele>
        <time>2021-06-05T13:31:27Z</time>
      </trkpt>
      <trkpt lat="43.66047" lon="3.40799">
        <ele>147</ele>
        <time>2021-06-05T13:31:29Z</time>
      </trkpt>
      <trkpt lat="43.66047" lon="3.40802">
        <ele>147</ele>
        <time>2021-06-05T13:31:30Z</time>
      </trkpt>
      <trkpt lat="43.66047" lon="3.40805">
        <ele>147</ele>
        <time>2021-06-05T13:31:31Z</time>
      </trkpt>
      <trkpt lat="43.66046" lon="3.40808">
        <ele>147</ele>
        <time>2021-06-05T13:31:32Z</time>
      </trkpt>
      <trkpt lat="43.66046" lon="3.40812">
        <ele>147</ele>
        <time>2021-06-05T13:31:33Z</time>
      </trkpt>
      <trkpt lat="43.66046" lon="3.40815">
        <ele>147</ele>
        <time>2021-06-05T13:31:34Z</time>
      </trkpt>
      <trkpt lat="43.66045" lon="3.40818">
        <ele>147</ele>
        <time>2021-06-05T13:31:35Z</time>
      </trkpt>
      <trkpt lat="43.66045" lon="3.40822">
        <ele>143</ele>
        <time>2021-06-05T13:31:36Z</time>
      </trkpt>
      <trkpt lat="43.66044" lon="3.40824">
        <ele>143</ele>
        <time>2021-06-05T13:31:37Z</time>
      </trkpt>
      <trkpt lat="43.66042" lon="3.40826">
        <ele>143</ele>
        <time>2021-06-05T13:31:38Z</time>
      </trkpt>
      <trkpt lat="43.66041" lon="3.40827">
        <ele>143</ele>
        <time>2021-06-05T13:31:39Z</time>
      </trkpt>
      <trkpt lat="43.66039" lon="3.40829">
        <ele>143</ele>
        <time>2021-06-05T13:31:41Z</time>
      </trkpt>
      <trkpt lat="43.66037" lon="3.40832">
        <ele>143</ele>
        <time>2021-06-05T13:31:43Z</time>
      </trkpt>
      <trkpt lat="43.66037" lon="3.40836">
        <ele>143</ele>
        <time>2021-06-05T13:31:45Z</time>
      </trkpt>
      <trkpt lat="43.66037" lon="3.40839">
        <ele>140</ele>
        <time>2021-06-05T13:31:46Z</time>
      </trkpt>
      <trkpt lat="43.66037" lon="3.40843">
        <ele>140</ele>
        <time>2021-06-05T13:31:47Z</time>
      </trkpt>
      <trkpt lat="43.66037" lon="3.40847">
        <ele>140</ele>
        <time>2021-06-05T13:31:48Z</time>
      </trkpt>
      <trkpt lat="43.66037" lon="3.40851">
        <ele>140</ele>
        <time>2021-06-05T13:31:49Z</time>
      </trkpt>
      <trkpt lat="43.66034" lon="3.40853">
        <ele>140</ele>
        <time>2021-06-05T13:31:50Z</time>
      </trkpt>
      <trkpt lat="43.66031" lon="3.40854">
        <ele>140</ele>
        <time>2021-06-05T13:31:51Z</time>
      </trkpt>
      <trkpt lat="43.66029" lon="3.40855">
        <ele>140</ele>
        <time>2021-06-05T13:31:52Z</time>
      </trkpt>
      <trkpt lat="43.66027" lon="3.40857">
        <ele>140</ele>
        <time>2021-06-05T13:31:53Z</time>
      </trkpt>
      <trkpt lat="43.66026" lon="3.4086">
        <ele>140</ele>
        <time>2021-06-05T13:31:54Z</time>
      </trkpt>
      <trkpt lat="43.66025" lon="3.40863">
        <ele>140</ele>
        <time>2021-06-05T13:31:55Z</time>
      </trkpt>
      <trkpt lat="43.66024" lon="3.40867">
        <ele>135</ele>
        <time>2021-06-05T13:31:56Z</time>
      </trkpt>
      <trkpt lat="43.66023" lon="3.4087">
        <ele>135</ele>
        <time>2021-06-05T13:31:57Z</time>
      </trkpt>
      <trkpt lat="43.6602" lon="3.40871">
        <ele>135</ele>
        <time>2021-06-05T13:31:58Z</time>
      </trkpt>
      <trkpt lat="43.66018" lon="3.4087">
        <ele>135</ele>
        <time>2021-06-05T13:31:59Z</time>
      </trkpt>
      <trkpt lat="43.66016" lon="3.40868">
        <ele>135</ele>
        <time>2021-06-05T13:32:00Z</time>
      </trkpt>
      <trkpt lat="43.66015" lon="3.40866">
        <ele>135</ele>
        <time>2021-06-05T13:32:01Z</time>
      </trkpt>
      <trkpt lat="43.66013" lon="3.40864">
        <ele>135</ele>
        <time>2021-06-05T13:32:02Z</time>
      </trkpt>
      <trkpt lat="43.66011" lon="3.40863">
        <ele>135</ele>
        <time>2021-06-05T13:32:03Z</time>
      </trkpt>
      <trkpt lat="43.66009" lon="3.40864">
        <ele>135</ele>
        <time>2021-06-05T13:32:04Z</time>
      </trkpt>
      <trkpt lat="43.66006" lon="3.40864">
        <ele>135</ele>
        <time>2021-06-05T13:32:05Z</time>
      </trkpt>
      <trkpt lat="43.66005" lon="3.40863">
        <ele>132</ele>
        <time>2021-06-05T13:32:06Z</time>
      </trkpt>
      <trkpt lat="43.66003" lon="3.4086">
        <ele>132</ele>
        <time>2021-06-05T13:32:07Z</time>
      </trkpt>
      <trkpt lat="43.66003" lon="3.40857">
        <ele>132</ele>
        <time>2021-06-05T13:32:08Z</time>
      </trkpt>
      <trkpt lat="43.66003" lon="3.40853">
        <ele>132</ele>
        <time>2021-06-05T13:32:09Z</time>
      </trkpt>
      <trkpt lat="43.66003" lon="3.40848">
        <ele>132</ele>
        <time>2021-06-05T13:32:10Z</time>
      </trkpt>
      <trkpt lat="43.66003" lon="3.40844">
        <ele>132</ele>
        <time>2021-06-05T13:32:11Z</time>
      </trkpt>
      <trkpt lat="43.66004" lon="3.4084">
        <ele>132</ele>
        <time>2021-06-05T13:32:12Z</time>
      </trkpt>
      <trkpt lat="43.66004" lon="3.40836">
        <ele>132</ele>
        <time>2021-06-05T13:32:13Z</time>
      </trkpt>
      <trkpt lat="43.66004" lon="3.40832">
        <ele>132</ele>
        <time>2021-06-05T13:32:14Z</time>
      </trkpt>
      <trkpt lat="43.66004" lon="3.40829">
        <ele>132</ele>
        <time>2021-06-05T13:32:15Z</time>
      </trkpt>
      <trkpt lat="43.66003" lon="3.40826">
        <ele>129</ele>
        <time>2021-06-05T13:32:16Z</time>
      </trkpt>
      <trkpt lat="43.66003" lon="3.40823">
        <ele>129</ele>
        <time>2021-06-05T13:32:17Z</time>
      </trkpt>
      <trkpt lat="43.66002" lon="3.40821">
        <ele>129</ele>
        <time>2021-06-05T13:32:18Z</time>
      </trkpt>
      <trkpt lat="43.66" lon="3.40816">
        <ele>129</ele>
        <time>2021-06-05T13:32:20Z</time>
      </trkpt>
      <trkpt lat="43.65998" lon="3.40815">
        <ele>129</ele>
        <time>2021-06-05T13:32:21Z</time>
      </trkpt>
      <trkpt lat="43.65996" lon="3.40814">
        <ele>129</ele>
        <time>2021-06-05T13:32:22Z</time>
      </trkpt>
      <trkpt lat="43.65994" lon="3.40813">
        <ele>129</ele>
        <time>2021-06-05T13:32:23Z</time>
      </trkpt>
      <trkpt lat="43.65992" lon="3.40813">
        <ele>129</ele>
        <time>2021-06-05T13:32:24Z</time>
      </trkpt>
      <trkpt lat="43.6599" lon="3.40813">
        <ele>129</ele>
        <time>2021-06-05T13:32:25Z</time>
      </trkpt>
      <trkpt lat="43.65988" lon="3.40814">
        <ele>127</ele>
        <time>2021-06-05T13:32:26Z</time>
      </trkpt>
      <trkpt lat="43.65985" lon="3.40814">
        <ele>127</ele>
        <time>2021-06-05T13:32:27Z</time>
      </trkpt>
      <trkpt lat="43.65983" lon="3.40814">
        <ele>127</ele>
        <time>2021-06-05T13:32:28Z</time>
      </trkpt>
      <trkpt lat="43.65981" lon="3.40814">
        <ele>127</ele>
        <time>2021-06-05T13:32:29Z</time>
      </trkpt>
      <trkpt lat="43.65978" lon="3.40814">
        <ele>127</ele>
        <time>2021-06-05T13:32:30Z</time>
      </trkpt>
      <trkpt lat="43.65975" lon="3.40815">
        <ele>127</ele>
        <time>2021-06-05T13:32:31Z</time>
      </trkpt>
      <trkpt lat="43.65973" lon="3.40815">
        <ele>127</ele>
        <time>2021-06-05T13:32:32Z</time>
      </trkpt>
      <trkpt lat="43.6597" lon="3.40814">
        <ele>127</ele>
        <time>2021-06-05T13:32:33Z</time>
      </trkpt>
      <trkpt lat="43.65968" lon="3.40813">
        <ele>127</ele>
        <time>2021-06-05T13:32:34Z</time>
      </trkpt>
      <trkpt lat="43.65966" lon="3.40811">
        <ele>127</ele>
        <time>2021-06-05T13:32:35Z</time>
      </trkpt>
      <trkpt lat="43.65963" lon="3.40809">
        <ele>124</ele>
        <time>2021-06-05T13:32:36Z</time>
      </trkpt>
      <trkpt lat="43.65962" lon="3.40806">
        <ele>124</ele>
        <time>2021-06-05T13:32:37Z</time>
      </trkpt>
      <trkpt lat="43.65962" lon="3.40802">
        <ele>124</ele>
        <time>2021-06-05T13:32:38Z</time>
      </trkpt>
      <trkpt lat="43.65961" lon="3.40799">
        <ele>124</ele>
        <time>2021-06-05T13:32:39Z</time>
      </trkpt>
      <trkpt lat="43.6596" lon="3.40795">
        <ele>124</ele>
        <time>2021-06-05T13:32:40Z</time>
      </trkpt>
      <trkpt lat="43.65959" lon="3.40792">
        <ele>124</ele>
        <time>2021-06-05T13:32:41Z</time>
      </trkpt>
      <trkpt lat="43.65957" lon="3.40788">
        <ele>124</ele>
        <time>2021-06-05T13:32:42Z</time>
      </trkpt>
      <trkpt lat="43.65957" lon="3.40784">
        <ele>124</ele>
        <time>2021-06-05T13:32:43Z</time>
      </trkpt>
      <trkpt lat="43.65956" lon="3.4078">
        <ele>124</ele>
        <time>2021-06-05T13:32:44Z</time>
      </trkpt>
      <trkpt lat="43.65955" lon="3.40777">
        <ele>124</ele>
        <time>2021-06-05T13:32:45Z</time>
      </trkpt>
      <trkpt lat="43.65953" lon="3.40774">
        <ele>124</ele>
        <time>2021-06-05T13:32:46Z</time>
      </trkpt>
      <trkpt lat="43.65952" lon="3.40771">
        <ele>124</ele>
        <time>2021-06-05T13:32:47Z</time>
      </trkpt>
      <trkpt lat="43.65951" lon="3.40769">
        <ele>124</ele>
        <time>2021-06-05T13:32:48Z</time>
      </trkpt>
      <trkpt lat="43.65948" lon="3.40766">
        <ele>124</ele>
        <time>2021-06-05T13:32:49Z</time>
      </trkpt>
      <trkpt lat="43.65946" lon="3.40764">
        <ele>124</ele>
        <time>2021-06-05T13:32:50Z</time>
      </trkpt>
      <trkpt lat="43.65943" lon="3.40763">
        <ele>124</ele>
        <time>2021-06-05T13:32:51Z</time>
      </trkpt>
      <trkpt lat="43.65941" lon="3.40762">
        <ele>124</ele>
        <time>2021-06-05T13:32:52Z</time>
      </trkpt>
      <trkpt lat="43.65938" lon="3.40762">
        <ele>124</ele>
        <time>2021-06-05T13:32:54Z</time>
      </trkpt>
      <trkpt lat="43.65936" lon="3.40761">
        <ele>123</ele>
        <time>2021-06-05T13:32:56Z</time>
      </trkpt>
      <trkpt lat="43.65934" lon="3.40758">
        <ele>123</ele>
        <time>2021-06-05T13:32:58Z</time>
      </trkpt>
      <trkpt lat="43.65931" lon="3.40755">
        <ele>123</ele>
        <time>2021-06-05T13:33:00Z</time>
      </trkpt>
      <trkpt lat="43.65929" lon="3.40752">
        <ele>123</ele>
        <time>2021-06-05T13:33:02Z</time>
      </trkpt>
      <trkpt lat="43.65927" lon="3.40748">
        <ele>123</ele>
        <time>2021-06-05T13:33:04Z</time>
      </trkpt>
      <trkpt lat="43.65925" lon="3.40744">
        <ele>124</ele>
        <time>2021-06-05T13:33:06Z</time>
      </trkpt>
      <trkpt lat="43.65924" lon="3.4074">
        <ele>124</ele>
        <time>2021-06-05T13:33:08Z</time>
      </trkpt>
      <trkpt lat="43.65922" lon="3.40736">
        <ele>124</ele>
        <time>2021-06-05T13:33:10Z</time>
      </trkpt>
      <trkpt lat="43.65921" lon="3.40732">
        <ele>124</ele>
        <time>2021-06-05T13:33:12Z</time>
      </trkpt>
      <trkpt lat="43.6592" lon="3.40728">
        <ele>124</ele>
        <time>2021-06-05T13:33:14Z</time>
      </trkpt>
      <trkpt lat="43.65919" lon="3.40724">
        <ele>125</ele>
        <time>2021-06-05T13:33:16Z</time>
      </trkpt>
      <trkpt lat="43.65919" lon="3.40719">
        <ele>125</ele>
        <time>2021-06-05T13:33:18Z</time>
      </trkpt>
      <trkpt lat="43.65918" lon="3.40716">
        <ele>125</ele>
        <time>2021-06-05T13:33:20Z</time>
      </trkpt>
      <trkpt lat="43.65918" lon="3.40711">
        <ele>125</ele>
        <time>2021-06-05T13:33:22Z</time>
      </trkpt>
      <trkpt lat="43.65917" lon="3.40707">
        <ele>125</ele>
        <time>2021-06-05T13:33:24Z</time>
      </trkpt>
      <trkpt lat="43.65917" lon="3.40703">
        <ele>126</ele>
        <time>2021-06-05T13:33:26Z</time>
      </trkpt>
      <trkpt lat="43.65917" lon="3.40698">
        <ele>126</ele>
        <time>2021-06-05T13:33:28Z</time>
      </trkpt>
      <trkpt lat="43.65917" lon="3.40694">
        <ele>126</ele>
        <time>2021-06-05T13:33:30Z</time>
      </trkpt>
      <trkpt lat="43.65916" lon="3.4069">
        <ele>126</ele>
        <time>2021-06-05T13:33:32Z</time>
      </trkpt>
      <trkpt lat="43.65915" lon="3.40686">
        <ele>126</ele>
        <time>2021-06-05T13:33:34Z</time>
      </trkpt>
      <trkpt lat="43.65914" lon="3.40682">
        <ele>127</ele>
        <time>2021-06-05T13:33:36Z</time>
      </trkpt>
      <trkpt lat="43.65912" lon="3.40679">
        <ele>127</ele>
        <time>2021-06-05T13:33:38Z</time>
      </trkpt>
      <trkpt lat="43.6591" lon="3.40676">
        <ele>127</ele>
        <time>2021-06-05T13:33:40Z</time>
      </trkpt>
      <trkpt lat="43.65908" lon="3.40673">
        <ele>127</ele>
        <time>2021-06-05T13:33:42Z</time>
      </trkpt>
      <trkpt lat="43.65906" lon="3.4067">
        <ele>127</ele>
        <time>2021-06-05T13:33:44Z</time>
      </trkpt>
      <trkpt lat="43.65905" lon="3.40667">
        <ele>129</ele>
        <time>2021-06-05T13:33:46Z</time>
      </trkpt>
      <trkpt lat="43.65904" lon="3.40665">
        <ele>129</ele>
        <time>2021-06-05T13:33:48Z</time>
      </trkpt>
      <trkpt lat="43.65902" lon="3.40663">
        <ele>129</ele>
        <time>2021-06-05T13:33:50Z</time>
      </trkpt>
      <trkpt lat="43.659" lon="3.40661">
        <ele>129</ele>
        <time>2021-06-05T13:33:52Z</time>
      </trkpt>
      <trkpt lat="43.65899" lon="3.40658">
        <ele>129</ele>
        <time>2021-06-05T13:33:54Z</time>
      </trkpt>
      <trkpt lat="43.65897" lon="3.40656">
        <ele>130</ele>
        <time>2021-06-05T13:33:56Z</time>
      </trkpt>
      <trkpt lat="43.65895" lon="3.40654">
        <ele>130</ele>
        <time>2021-06-05T13:33:58Z</time>
      </trkpt>
      <trkpt lat="43.65893" lon="3.40651">
        <ele>130</ele>
        <time>2021-06-05T13:34:00Z</time>
      </trkpt>
      <trkpt lat="43.65891" lon="3.40649">
        <ele>130</ele>
        <time>2021-06-05T13:34:02Z</time>
      </trkpt>
      <trkpt lat="43.65889" lon="3.40646">
        <ele>130</ele>
        <time>2021-06-05T13:34:04Z</time>
      </trkpt>
      <trkpt lat="43.65888" lon="3.40645">
        <ele>131</ele>
        <time>2021-06-05T13:34:06Z</time>
      </trkpt>
      <trkpt lat="43.65885" lon="3.40642">
        <ele>131</ele>
        <time>2021-06-05T13:34:08Z</time>
      </trkpt>
      <trkpt lat="43.65884" lon="3.4064">
        <ele>131</ele>
        <time>2021-06-05T13:34:10Z</time>
      </trkpt>
      <trkpt lat="43.65882" lon="3.40638">
        <ele>131</ele>
        <time>2021-06-05T13:34:12Z</time>
      </trkpt>
      <trkpt lat="43.6588" lon="3.40636">
        <ele>131</ele>
        <time>2021-06-05T13:34:14Z</time>
      </trkpt>
      <trkpt lat="43.65878" lon="3.40635">
        <ele>132</ele>
        <time>2021-06-05T13:34:16Z</time>
      </trkpt>
      <trkpt lat="43.65875" lon="3.40633">
        <ele>132</ele>
        <time>2021-06-05T13:34:18Z</time>
      </trkpt>
      <trkpt lat="43.65873" lon="3.40631">
        <ele>132</ele>
        <time>2021-06-05T13:34:20Z</time>
      </trkpt>
      <trkpt lat="43.65871" lon="3.40629">
        <ele>132</ele>
        <time>2021-06-05T13:34:22Z</time>
      </trkpt>
      <trkpt lat="43.65869" lon="3.40627">
        <ele>132</ele>
        <time>2021-06-05T13:34:24Z</time>
      </trkpt>
      <trkpt lat="43.65867" lon="3.40624">
        <ele>133</ele>
        <time>2021-06-05T13:34:25Z</time>
      </trkpt>
      <trkpt lat="43.65866" lon="3.40621">
        <ele>133</ele>
        <time>2021-06-05T13:34:28Z</time>
      </trkpt>
      <trkpt lat="43.65865" lon="3.40617">
        <ele>133</ele>
        <time>2021-06-05T13:34:29Z</time>
      </trkpt>
      <trkpt lat="43.65865" lon="3.40613">
        <ele>133</ele>
        <time>2021-06-05T13:34:31Z</time>
      </trkpt>
      <trkpt lat="43.65865" lon="3.40609">
        <ele>133</ele>
        <time>2021-06-05T13:34:33Z</time>
      </trkpt>
      <trkpt lat="43.65866" lon="3.40605">
        <ele>134</ele>
        <time>2021-06-05T13:34:36Z</time>
      </trkpt>
      <trkpt lat="43.65867" lon="3.40601">
        <ele>134</ele>
        <time>2021-06-05T13:34:38Z</time>
      </trkpt>
      <trkpt lat="43.65867" lon="3.40597">
        <ele>134</ele>
        <time>2021-06-05T13:34:40Z</time>
      </trkpt>
      <trkpt lat="43.65867" lon="3.40594">
        <ele>134</ele>
        <time>2021-06-05T13:34:42Z</time>
      </trkpt>
      <trkpt lat="43.65867" lon="3.4059">
        <ele>134</ele>
        <time>2021-06-05T13:34:44Z</time>
      </trkpt>
      <trkpt lat="43.65867" lon="3.40586">
        <ele>135</ele>
        <time>2021-06-05T13:34:46Z</time>
      </trkpt>
      <trkpt lat="43.65867" lon="3.40581">
        <ele>135</ele>
        <time>2021-06-05T13:34:48Z</time>
      </trkpt>
      <trkpt lat="43.65867" lon="3.40577">
        <ele>135</ele>
        <time>2021-06-05T13:34:50Z</time>
      </trkpt>
      <trkpt lat="43.65868" lon="3.40573">
        <ele>135</ele>
        <time>2021-06-05T13:34:52Z</time>
      </trkpt>
      <trkpt lat="43.65867" lon="3.40569">
        <ele>135</ele>
        <time>2021-06-05T13:34:54Z</time>
      </trkpt>
      <trkpt lat="43.65866" lon="3.40565">
        <ele>136</ele>
        <time>2021-06-05T13:34:56Z</time>
      </trkpt>
      <trkpt lat="43.65866" lon="3.40562">
        <ele>136</ele>
        <time>2021-06-05T13:34:58Z</time>
      </trkpt>
      <trkpt lat="43.65866" lon="3.40559">
        <ele>136</ele>
        <time>2021-06-05T13:35:00Z</time>
      </trkpt>
      <trkpt lat="43.65866" lon="3.40555">
        <ele>136</ele>
        <time>2021-06-05T13:35:01Z</time>
      </trkpt>
      <trkpt lat="43.65866" lon="3.40552">
        <ele>136</ele>
        <time>2021-06-05T13:35:03Z</time>
      </trkpt>
      <trkpt lat="43.65865" lon="3.40548">
        <ele>138</ele>
        <time>2021-06-05T13:35:06Z</time>
      </trkpt>
      <trkpt lat="43.65864" lon="3.40545">
        <ele>138</ele>
        <time>2021-06-05T13:35:08Z</time>
      </trkpt>
      <trkpt lat="43.65864" lon="3.40541">
        <ele>138</ele>
        <time>2021-06-05T13:35:10Z</time>
      </trkpt>
      <trkpt lat="43.65863" lon="3.40538">
        <ele>138</ele>
        <time>2021-06-05T13:35:12Z</time>
      </trkpt>
      <trkpt lat="43.65863" lon="3.40534">
        <ele>138</ele>
        <time>2021-06-05T13:35:14Z</time>
      </trkpt>
      <trkpt lat="43.65863" lon="3.40531">
        <ele>139</ele>
        <time>2021-06-05T13:35:15Z</time>
      </trkpt>
      <trkpt lat="43.65863" lon="3.40527">
        <ele>139</ele>
        <time>2021-06-05T13:35:18Z</time>
      </trkpt>
      <trkpt lat="43.65863" lon="3.40524">
        <ele>139</ele>
        <time>2021-06-05T13:35:19Z</time>
      </trkpt>
      <trkpt lat="43.65862" lon="3.4052">
        <ele>139</ele>
        <time>2021-06-05T13:35:21Z</time>
      </trkpt>
      <trkpt lat="43.65862" lon="3.40516">
        <ele>139</ele>
        <time>2021-06-05T13:35:23Z</time>
      </trkpt>
      <trkpt lat="43.65861" lon="3.40513">
        <ele>140</ele>
        <time>2021-06-05T13:35:26Z</time>
      </trkpt>
      <trkpt lat="43.65861" lon="3.40509">
        <ele>140</ele>
        <time>2021-06-05T13:35:28Z</time>
      </trkpt>
      <trkpt lat="43.65861" lon="3.40506">
        <ele>140</ele>
        <time>2021-06-05T13:35:30Z</time>
      </trkpt>
      <trkpt lat="43.6586" lon="3.40502">
        <ele>140</ele>
        <time>2021-06-05T13:35:32Z</time>
      </trkpt>
      <trkpt lat="43.6586" lon="3.40498">
        <ele>140</ele>
        <time>2021-06-05T13:35:34Z</time>
      </trkpt>
      <trkpt lat="43.6586" lon="3.40495">
        <ele>142</ele>
        <time>2021-06-05T13:35:36Z</time>
      </trkpt>
      <trkpt lat="43.6586" lon="3.40491">
        <ele>142</ele>
        <time>2021-06-05T13:35:38Z</time>
      </trkpt>
      <trkpt lat="43.6586" lon="3.40487">
        <ele>142</ele>
        <time>2021-06-05T13:35:40Z</time>
      </trkpt>
      <trkpt lat="43.6586" lon="3.40484">
        <ele>142</ele>
        <time>2021-06-05T13:35:42Z</time>
      </trkpt>
      <trkpt lat="43.65859" lon="3.4048">
        <ele>142</ele>
        <time>2021-06-05T13:35:44Z</time>
      </trkpt>
      <trkpt lat="43.65859" lon="3.40476">
        <ele>143</ele>
        <time>2021-06-05T13:35:46Z</time>
      </trkpt>
      <trkpt lat="43.65859" lon="3.40473">
        <ele>143</ele>
        <time>2021-06-05T13:35:48Z</time>
      </trkpt>
      <trkpt lat="43.65859" lon="3.40469">
        <ele>143</ele>
        <time>2021-06-05T13:35:50Z</time>
      </trkpt>
      <trkpt lat="43.65859" lon="3.40465">
        <ele>143</ele>
        <time>2021-06-05T13:35:52Z</time>
      </trkpt>
      <trkpt lat="43.65859" lon="3.40461">
        <ele>143</ele>
        <time>2021-06-05T13:35:53Z</time>
      </trkpt>
      <trkpt lat="43.65858" lon="3.40457">
        <ele>144</ele>
        <time>2021-06-05T13:35:56Z</time>
      </trkpt>
      <trkpt lat="43.65857" lon="3.40453">
        <ele>144</ele>
        <time>2021-06-05T13:35:58Z</time>
      </trkpt>
      <trkpt lat="43.65856" lon="3.40449">
        <ele>144</ele>
        <time>2021-06-05T13:36:00Z</time>
      </trkpt>
      <trkpt lat="43.65856" lon="3.40444">
        <ele>144</ele>
        <time>2021-06-05T13:36:02Z</time>
      </trkpt>
      <trkpt lat="43.65856" lon="3.4044">
        <ele>144</ele>
        <time>2021-06-05T13:36:04Z</time>
      </trkpt>
      <trkpt lat="43.65856" lon="3.40435">
        <ele>145</ele>
        <time>2021-06-05T13:36:06Z</time>
      </trkpt>
      <trkpt lat="43.65856" lon="3.40431">
        <ele>145</ele>
        <time>2021-06-05T13:36:08Z</time>
      </trkpt>
      <trkpt lat="43.65856" lon="3.40426">
        <ele>145</ele>
        <time>2021-06-05T13:36:10Z</time>
      </trkpt>
      <trkpt lat="43.65856" lon="3.40422">
        <ele>145</ele>
        <time>2021-06-05T13:36:12Z</time>
      </trkpt>
      <trkpt lat="43.65856" lon="3.40417">
        <ele>145</ele>
        <time>2021-06-05T13:36:14Z</time>
      </trkpt>
      <trkpt lat="43.65855" lon="3.40413">
        <ele>145</ele>
        <time>2021-06-05T13:36:16Z</time>
      </trkpt>
      <trkpt lat="43.65854" lon="3.40409">
        <ele>145</ele>
        <time>2021-06-05T13:36:18Z</time>
      </trkpt>
      <trkpt lat="43.65854" lon="3.40404">
        <ele>145</ele>
        <time>2021-06-05T13:36:20Z</time>
      </trkpt>
      <trkpt lat="43.65854" lon="3.404">
        <ele>145</ele>
        <time>2021-06-05T13:36:22Z</time>
      </trkpt>
      <trkpt lat="43.65854" lon="3.40395">
        <ele>145</ele>
        <time>2021-06-05T13:36:24Z</time>
      </trkpt>
      <trkpt lat="43.65853" lon="3.40391">
        <ele>146</ele>
        <time>2021-06-05T13:36:25Z</time>
      </trkpt>
      <trkpt lat="43.65852" lon="3.40387">
        <ele>146</ele>
        <time>2021-06-05T13:36:27Z</time>
      </trkpt>
      <trkpt lat="43.65851" lon="3.40383">
        <ele>146</ele>
        <time>2021-06-05T13:36:29Z</time>
      </trkpt>
      <trkpt lat="43.6585" lon="3.40378">
        <ele>146</ele>
        <time>2021-06-05T13:36:32Z</time>
      </trkpt>
      <trkpt lat="43.65848" lon="3.40374">
        <ele>146</ele>
        <time>2021-06-05T13:36:34Z</time>
      </trkpt>
      <trkpt lat="43.65847" lon="3.40369">
        <ele>147</ele>
        <time>2021-06-05T13:36:36Z</time>
      </trkpt>
      <trkpt lat="43.65845" lon="3.40365">
        <ele>147</ele>
        <time>2021-06-05T13:36:38Z</time>
      </trkpt>
      <trkpt lat="43.65844" lon="3.40361">
        <ele>147</ele>
        <time>2021-06-05T13:36:40Z</time>
      </trkpt>
      <trkpt lat="43.65842" lon="3.40357">
        <ele>147</ele>
        <time>2021-06-05T13:36:42Z</time>
      </trkpt>
      <trkpt lat="43.65841" lon="3.40352">
        <ele>147</ele>
        <time>2021-06-05T13:36:44Z</time>
      </trkpt>
      <trkpt lat="43.6584" lon="3.40348">
        <ele>148</ele>
        <time>2021-06-05T13:36:46Z</time>
      </trkpt>
      <trkpt lat="43.65839" lon="3.40344">
        <ele>148</ele>
        <time>2021-06-05T13:36:48Z</time>
      </trkpt>
      <trkpt lat="43.65838" lon="3.40339">
        <ele>148</ele>
        <time>2021-06-05T13:36:50Z</time>
      </trkpt>
      <trkpt lat="43.65837" lon="3.40335">
        <ele>148</ele>
        <time>2021-06-05T13:36:52Z</time>
      </trkpt>
      <trkpt lat="43.65836" lon="3.40331">
        <ele>148</ele>
        <time>2021-06-05T13:36:54Z</time>
      </trkpt>
      <trkpt lat="43.65835" lon="3.40326">
        <ele>149</ele>
        <time>2021-06-05T13:36:56Z</time>
      </trkpt>
      <trkpt lat="43.65835" lon="3.40322">
        <ele>149</ele>
        <time>2021-06-05T13:36:58Z</time>
      </trkpt>
      <trkpt lat="43.65834" lon="3.40317">
        <ele>149</ele>
        <time>2021-06-05T13:37:00Z</time>
      </trkpt>
      <trkpt lat="43.65833" lon="3.40313">
        <ele>149</ele>
        <time>2021-06-05T13:37:02Z</time>
      </trkpt>
      <trkpt lat="43.65832" lon="3.40309">
        <ele>149</ele>
        <time>2021-06-05T13:37:04Z</time>
      </trkpt>
      <trkpt lat="43.65831" lon="3.40304">
        <ele>149</ele>
        <time>2021-06-05T13:37:06Z</time>
      </trkpt>
      <trkpt lat="43.65831" lon="3.403">
        <ele>149</ele>
        <time>2021-06-05T13:37:08Z</time>
      </trkpt>
      <trkpt lat="43.6583" lon="3.40296">
        <ele>149</ele>
        <time>2021-06-05T13:37:10Z</time>
      </trkpt>
      <trkpt lat="43.6583" lon="3.40292">
        <ele>149</ele>
        <time>2021-06-05T13:37:11Z</time>
      </trkpt>
      <trkpt lat="43.65829" lon="3.40288">
        <ele>149</ele>
        <time>2021-06-05T13:37:13Z</time>
      </trkpt>
      <trkpt lat="43.65828" lon="3.40284">
        <ele>150</ele>
        <time>2021-06-05T13:37:16Z</time>
      </trkpt>
      <trkpt lat="43.65826" lon="3.4028">
        <ele>150</ele>
        <time>2021-06-05T13:37:18Z</time>
      </trkpt>
      <trkpt lat="43.65825" lon="3.40277">
        <ele>150</ele>
        <time>2021-06-05T13:37:20Z</time>
      </trkpt>
      <trkpt lat="43.65823" lon="3.40273">
        <ele>150</ele>
        <time>2021-06-05T13:37:22Z</time>
      </trkpt>
      <trkpt lat="43.65823" lon="3.40269">
        <ele>150</ele>
        <time>2021-06-05T13:37:24Z</time>
      </trkpt>
      <trkpt lat="43.65822" lon="3.40265">
        <ele>151</ele>
        <time>2021-06-05T13:37:26Z</time>
      </trkpt>
      <trkpt lat="43.65821" lon="3.4026">
        <ele>151</ele>
        <time>2021-06-05T13:37:28Z</time>
      </trkpt>
      <trkpt lat="43.6582" lon="3.40257">
        <ele>151</ele>
        <time>2021-06-05T13:37:30Z</time>
      </trkpt>
      <trkpt lat="43.65819" lon="3.40253">
        <ele>151</ele>
        <time>2021-06-05T13:37:32Z</time>
      </trkpt>
      <trkpt lat="43.65817" lon="3.4025">
        <ele>151</ele>
        <time>2021-06-05T13:37:34Z</time>
      </trkpt>
      <trkpt lat="43.65816" lon="3.40246">
        <ele>152</ele>
        <time>2021-06-05T13:37:36Z</time>
      </trkpt>
      <trkpt lat="43.65815" lon="3.40242">
        <ele>152</ele>
        <time>2021-06-05T13:37:38Z</time>
      </trkpt>
      <trkpt lat="43.65813" lon="3.40238">
        <ele>152</ele>
        <time>2021-06-05T13:37:40Z</time>
      </trkpt>
      <trkpt lat="43.65812" lon="3.40234">
        <ele>152</ele>
        <time>2021-06-05T13:37:42Z</time>
      </trkpt>
      <trkpt lat="43.65811" lon="3.4023">
        <ele>152</ele>
        <time>2021-06-05T13:37:44Z</time>
      </trkpt>
      <trkpt lat="43.6581" lon="3.40226">
        <ele>153</ele>
        <time>2021-06-05T13:37:45Z</time>
      </trkpt>
      <trkpt lat="43.65808" lon="3.40222">
        <ele>153</ele>
        <time>2021-06-05T13:37:47Z</time>
      </trkpt>
      <trkpt lat="43.65807" lon="3.40218">
        <ele>153</ele>
        <time>2021-06-05T13:37:50Z</time>
      </trkpt>
      <trkpt lat="43.65806" lon="3.40214">
        <ele>153</ele>
        <time>2021-06-05T13:37:51Z</time>
      </trkpt>
      <trkpt lat="43.65804" lon="3.4021">
        <ele>153</ele>
        <time>2021-06-05T13:37:53Z</time>
      </trkpt>
      <trkpt lat="43.65803" lon="3.40206">
        <ele>154</ele>
        <time>2021-06-05T13:37:56Z</time>
      </trkpt>
      <trkpt lat="43.65803" lon="3.40202">
        <ele>154</ele>
        <time>2021-06-05T13:37:58Z</time>
      </trkpt>
      <trkpt lat="43.65802" lon="3.40198">
        <ele>154</ele>
        <time>2021-06-05T13:38:00Z</time>
      </trkpt>
      <trkpt lat="43.658" lon="3.40194">
        <ele>154</ele>
        <time>2021-06-05T13:38:02Z</time>
      </trkpt>
      <trkpt lat="43.65799" lon="3.4019">
        <ele>154</ele>
        <time>2021-06-05T13:38:04Z</time>
      </trkpt>
      <trkpt lat="43.65798" lon="3.40186">
        <ele>155</ele>
        <time>2021-06-05T13:38:05Z</time>
      </trkpt>
      <trkpt lat="43.65796" lon="3.40181">
        <ele>155</ele>
        <time>2021-06-05T13:38:08Z</time>
      </trkpt>
      <trkpt lat="43.65795" lon="3.40179">
        <ele>155</ele>
        <time>2021-06-05T13:38:09Z</time>
      </trkpt>
      <trkpt lat="43.65794" lon="3.40177">
        <ele>155</ele>
        <time>2021-06-05T13:38:10Z</time>
      </trkpt>
      <trkpt lat="43.65793" lon="3.40174">
        <ele>155</ele>
        <time>2021-06-05T13:38:11Z</time>
      </trkpt>
      <trkpt lat="43.65791" lon="3.40172">
        <ele>155</ele>
        <time>2021-06-05T13:38:12Z</time>
      </trkpt>
      <trkpt lat="43.65789" lon="3.4017">
        <ele>155</ele>
        <time>2021-06-05T13:38:13Z</time>
      </trkpt>
      <trkpt lat="43.65788" lon="3.40168">
        <ele>155</ele>
        <time>2021-06-05T13:38:13Z</time>
      </trkpt>
      <trkpt lat="43.65787" lon="3.40165">
        <ele>155</ele>
        <time>2021-06-05T13:38:14Z</time>
      </trkpt>
      <trkpt lat="43.65785" lon="3.40163">
        <ele>157</ele>
        <time>2021-06-05T13:38:16Z</time>
      </trkpt>
      <trkpt lat="43.65784" lon="3.4016">
        <ele>157</ele>
        <time>2021-06-05T13:38:17Z</time>
      </trkpt>
      <trkpt lat="43.65783" lon="3.40158">
        <ele>157</ele>
        <time>2021-06-05T13:38:18Z</time>
      </trkpt>
      <trkpt lat="43.65782" lon="3.40155">
        <ele>157</ele>
        <time>2021-06-05T13:38:19Z</time>
      </trkpt>
      <trkpt lat="43.6578" lon="3.40153">
        <ele>157</ele>
        <time>2021-06-05T13:38:20Z</time>
      </trkpt>
      <trkpt lat="43.65779" lon="3.4015">
        <ele>157</ele>
        <time>2021-06-05T13:38:21Z</time>
      </trkpt>
      <trkpt lat="43.65778" lon="3.40147">
        <ele>157</ele>
        <time>2021-06-05T13:38:22Z</time>
      </trkpt>
      <trkpt lat="43.65776" lon="3.40143">
        <ele>157</ele>
        <time>2021-06-05T13:38:23Z</time>
      </trkpt>
      <trkpt lat="43.65775" lon="3.4014">
        <ele>157</ele>
        <time>2021-06-05T13:38:24Z</time>
      </trkpt>
      <trkpt lat="43.65773" lon="3.40136">
        <ele>157</ele>
        <time>2021-06-05T13:38:25Z</time>
      </trkpt>
      <trkpt lat="43.65772" lon="3.40133">
        <ele>158</ele>
        <time>2021-06-05T13:38:26Z</time>
      </trkpt>
      <trkpt lat="43.65771" lon="3.40129">
        <ele>158</ele>
        <time>2021-06-05T13:38:27Z</time>
      </trkpt>
      <trkpt lat="43.65769" lon="3.40125">
        <ele>158</ele>
        <time>2021-06-05T13:38:28Z</time>
      </trkpt>
      <trkpt lat="43.65768" lon="3.40121">
        <ele>158</ele>
        <time>2021-06-05T13:38:29Z</time>
      </trkpt>
      <trkpt lat="43.65767" lon="3.40117">
        <ele>158</ele>
        <time>2021-06-05T13:38:30Z</time>
      </trkpt>
      <trkpt lat="43.65766" lon="3.40112">
        <ele>158</ele>
        <time>2021-06-05T13:38:31Z</time>
      </trkpt>
      <trkpt lat="43.65764" lon="3.40108">
        <ele>158</ele>
        <time>2021-06-05T13:38:32Z</time>
      </trkpt>
      <trkpt lat="43.65764" lon="3.40103">
        <ele>158</ele>
        <time>2021-06-05T13:38:33Z</time>
      </trkpt>
      <trkpt lat="43.65763" lon="3.40099">
        <ele>158</ele>
        <time>2021-06-05T13:38:34Z</time>
      </trkpt>
      <trkpt lat="43.65762" lon="3.40094">
        <ele>158</ele>
        <time>2021-06-05T13:38:35Z</time>
      </trkpt>
      <trkpt lat="43.65762" lon="3.4009">
        <ele>158</ele>
        <time>2021-06-05T13:38:35Z</time>
      </trkpt>
      <trkpt lat="43.65761" lon="3.40085">
        <ele>158</ele>
        <time>2021-06-05T13:38:36Z</time>
      </trkpt>
      <trkpt lat="43.6576" lon="3.40081">
        <ele>158</ele>
        <time>2021-06-05T13:38:37Z</time>
      </trkpt>
      <trkpt lat="43.65759" lon="3.40077">
        <ele>158</ele>
        <time>2021-06-05T13:38:38Z</time>
      </trkpt>
      <trkpt lat="43.65758" lon="3.40072">
        <ele>158</ele>
        <time>2021-06-05T13:38:39Z</time>
      </trkpt>
      <trkpt lat="43.65757" lon="3.40068">
        <ele>158</ele>
        <time>2021-06-05T13:38:40Z</time>
      </trkpt>
      <trkpt lat="43.65756" lon="3.40063">
        <ele>158</ele>
        <time>2021-06-05T13:38:42Z</time>
      </trkpt>
      <trkpt lat="43.65754" lon="3.4006">
        <ele>158</ele>
        <time>2021-06-05T13:38:43Z</time>
      </trkpt>
      <trkpt lat="43.65753" lon="3.40055">
        <ele>158</ele>
        <time>2021-06-05T13:38:44Z</time>
      </trkpt>
      <trkpt lat="43.65751" lon="3.40052">
        <ele>158</ele>
        <time>2021-06-05T13:38:45Z</time>
      </trkpt>
      <trkpt lat="43.6575" lon="3.40048">
        <ele>158</ele>
        <time>2021-06-05T13:38:46Z</time>
      </trkpt>
      <trkpt lat="43.65747" lon="3.40045">
        <ele>158</ele>
        <time>2021-06-05T13:38:47Z</time>
      </trkpt>
      <trkpt lat="43.65746" lon="3.40042">
        <ele>158</ele>
        <time>2021-06-05T13:38:48Z</time>
      </trkpt>
      <trkpt lat="43.65744" lon="3.40039">
        <ele>158</ele>
        <time>2021-06-05T13:38:49Z</time>
      </trkpt>
      <trkpt lat="43.65742" lon="3.40036">
        <ele>158</ele>
        <time>2021-06-05T13:38:50Z</time>
      </trkpt>
      <trkpt lat="43.6574" lon="3.40032">
        <ele>158</ele>
        <time>2021-06-05T13:38:51Z</time>
      </trkpt>
      <trkpt lat="43.65739" lon="3.40028">
        <ele>158</ele>
        <time>2021-06-05T13:38:52Z</time>
      </trkpt>
      <trkpt lat="43.65738" lon="3.40025">
        <ele>158</ele>
        <time>2021-06-05T13:38:53Z</time>
      </trkpt>
      <trkpt lat="43.65737" lon="3.40021">
        <ele>158</ele>
        <time>2021-06-05T13:38:54Z</time>
      </trkpt>
      <trkpt lat="43.65736" lon="3.40017">
        <ele>158</ele>
        <time>2021-06-05T13:38:55Z</time>
      </trkpt>
      <trkpt lat="43.65735" lon="3.40013">
        <ele>157</ele>
        <time>2021-06-05T13:38:56Z</time>
      </trkpt>
      <trkpt lat="43.65735" lon="3.4001">
        <ele>157</ele>
        <time>2021-06-05T13:38:57Z</time>
      </trkpt>
      <trkpt lat="43.65733" lon="3.40008">
        <ele>157</ele>
        <time>2021-06-05T13:38:58Z</time>
      </trkpt>
      <trkpt lat="43.65733" lon="3.40006">
        <ele>157</ele>
        <time>2021-06-05T13:38:59Z</time>
      </trkpt>
      <trkpt lat="43.65732" lon="3.40003">
        <ele>157</ele>
        <time>2021-06-05T13:39:00Z</time>
      </trkpt>
      <trkpt lat="43.65731" lon="3.40001">
        <ele>157</ele>
        <time>2021-06-05T13:39:01Z</time>
      </trkpt>
      <trkpt lat="43.6573" lon="3.39998">
        <ele>157</ele>
        <time>2021-06-05T13:39:02Z</time>
      </trkpt>
      <trkpt lat="43.65729" lon="3.39995">
        <ele>157</ele>
        <time>2021-06-05T13:39:03Z</time>
      </trkpt>
      <trkpt lat="43.65729" lon="3.39992">
        <ele>157</ele>
        <time>2021-06-05T13:39:04Z</time>
      </trkpt>
      <trkpt lat="43.65728" lon="3.39989">
        <ele>157</ele>
        <time>2021-06-05T13:39:05Z</time>
      </trkpt>
      <trkpt lat="43.65727" lon="3.39985">
        <ele>156</ele>
        <time>2021-06-05T13:39:06Z</time>
      </trkpt>
      <trkpt lat="43.65726" lon="3.3998">
        <ele>156</ele>
        <time>2021-06-05T13:39:07Z</time>
      </trkpt>
      <trkpt lat="43.65725" lon="3.39977">
        <ele>156</ele>
        <time>2021-06-05T13:39:08Z</time>
      </trkpt>
      <trkpt lat="43.65725" lon="3.39973">
        <ele>156</ele>
        <time>2021-06-05T13:39:09Z</time>
      </trkpt>
      <trkpt lat="43.65724" lon="3.39969">
        <ele>156</ele>
        <time>2021-06-05T13:39:10Z</time>
      </trkpt>
      <trkpt lat="43.65723" lon="3.39965">
        <ele>156</ele>
        <time>2021-06-05T13:39:11Z</time>
      </trkpt>
      <trkpt lat="43.65723" lon="3.39961">
        <ele>156</ele>
        <time>2021-06-05T13:39:12Z</time>
      </trkpt>
      <trkpt lat="43.65722" lon="3.39957">
        <ele>156</ele>
        <time>2021-06-05T13:39:13Z</time>
      </trkpt>
      <trkpt lat="43.6572" lon="3.39953">
        <ele>156</ele>
        <time>2021-06-05T13:39:14Z</time>
      </trkpt>
      <trkpt lat="43.65719" lon="3.39949">
        <ele>156</ele>
        <time>2021-06-05T13:39:15Z</time>
      </trkpt>
      <trkpt lat="43.65718" lon="3.39945">
        <ele>156</ele>
        <time>2021-06-05T13:39:16Z</time>
      </trkpt>
      <trkpt lat="43.65717" lon="3.39941">
        <ele>156</ele>
        <time>2021-06-05T13:39:17Z</time>
      </trkpt>
      <trkpt lat="43.65716" lon="3.39938">
        <ele>156</ele>
        <time>2021-06-05T13:39:18Z</time>
      </trkpt>
      <trkpt lat="43.65714" lon="3.39934">
        <ele>156</ele>
        <time>2021-06-05T13:39:19Z</time>
      </trkpt>
      <trkpt lat="43.65713" lon="3.3993">
        <ele>156</ele>
        <time>2021-06-05T13:39:20Z</time>
      </trkpt>
      <trkpt lat="43.65711" lon="3.39927">
        <ele>156</ele>
        <time>2021-06-05T13:39:21Z</time>
      </trkpt>
      <trkpt lat="43.6571" lon="3.39924">
        <ele>156</ele>
        <time>2021-06-05T13:39:22Z</time>
      </trkpt>
      <trkpt lat="43.65709" lon="3.3992">
        <ele>156</ele>
        <time>2021-06-05T13:39:23Z</time>
      </trkpt>
      <trkpt lat="43.65707" lon="3.39917">
        <ele>156</ele>
        <time>2021-06-05T13:39:24Z</time>
      </trkpt>
      <trkpt lat="43.65706" lon="3.39913">
        <ele>156</ele>
        <time>2021-06-05T13:39:25Z</time>
      </trkpt>
      <trkpt lat="43.65704" lon="3.39909">
        <ele>154</ele>
        <time>2021-06-05T13:39:26Z</time>
      </trkpt>
      <trkpt lat="43.65702" lon="3.39906">
        <ele>154</ele>
        <time>2021-06-05T13:39:27Z</time>
      </trkpt>
      <trkpt lat="43.65701" lon="3.39904">
        <ele>154</ele>
        <time>2021-06-05T13:39:28Z</time>
      </trkpt>
      <trkpt lat="43.65699" lon="3.39901">
        <ele>154</ele>
        <time>2021-06-05T13:39:30Z</time>
      </trkpt>
      <trkpt lat="43.65698" lon="3.39899">
        <ele>154</ele>
        <time>2021-06-05T13:39:31Z</time>
      </trkpt>
      <trkpt lat="43.65697" lon="3.39895">
        <ele>154</ele>
        <time>2021-06-05T13:39:32Z</time>
      </trkpt>
      <trkpt lat="43.65695" lon="3.39891">
        <ele>154</ele>
        <time>2021-06-05T13:39:33Z</time>
      </trkpt>
      <trkpt lat="43.65694" lon="3.39889">
        <ele>154</ele>
        <time>2021-06-05T13:39:34Z</time>
      </trkpt>
      <trkpt lat="43.65692" lon="3.39888">
        <ele>154</ele>
        <time>2021-06-05T13:39:35Z</time>
      </trkpt>
      <trkpt lat="43.6569" lon="3.3989">
        <ele>153</ele>
        <time>2021-06-05T13:39:36Z</time>
      </trkpt>
      <trkpt lat="43.65689" lon="3.39893">
        <ele>153</ele>
        <time>2021-06-05T13:39:37Z</time>
      </trkpt>
      <trkpt lat="43.65689" lon="3.39896">
        <ele>153</ele>
        <time>2021-06-05T13:39:38Z</time>
      </trkpt>
      <trkpt lat="43.6569" lon="3.399">
        <ele>153</ele>
        <time>2021-06-05T13:39:39Z</time>
      </trkpt>
      <trkpt lat="43.65692" lon="3.39904">
        <ele>153</ele>
        <time>2021-06-05T13:39:40Z</time>
      </trkpt>
      <trkpt lat="43.65693" lon="3.39908">
        <ele>153</ele>
        <time>2021-06-05T13:39:41Z</time>
      </trkpt>
      <trkpt lat="43.65694" lon="3.39911">
        <ele>153</ele>
        <time>2021-06-05T13:39:42Z</time>
      </trkpt>
      <trkpt lat="43.65695" lon="3.39916">
        <ele>153</ele>
        <time>2021-06-05T13:39:43Z</time>
      </trkpt>
      <trkpt lat="43.65697" lon="3.39919">
        <ele>153</ele>
        <time>2021-06-05T13:39:44Z</time>
      </trkpt>
      <trkpt lat="43.65698" lon="3.39923">
        <ele>151</ele>
        <time>2021-06-05T13:39:45Z</time>
      </trkpt>
      <trkpt lat="43.65699" lon="3.39926">
        <ele>151</ele>
        <time>2021-06-05T13:39:46Z</time>
      </trkpt>
      <trkpt lat="43.657" lon="3.3993">
        <ele>151</ele>
        <time>2021-06-05T13:39:47Z</time>
      </trkpt>
      <trkpt lat="43.65701" lon="3.39934">
        <ele>151</ele>
        <time>2021-06-05T13:39:48Z</time>
      </trkpt>
      <trkpt lat="43.65703" lon="3.39937">
        <ele>151</ele>
        <time>2021-06-05T13:39:49Z</time>
      </trkpt>
      <trkpt lat="43.65704" lon="3.39941">
        <ele>151</ele>
        <time>2021-06-05T13:39:50Z</time>
      </trkpt>
      <trkpt lat="43.65706" lon="3.39944">
        <ele>151</ele>
        <time>2021-06-05T13:39:51Z</time>
      </trkpt>
      <trkpt lat="43.65707" lon="3.39948">
        <ele>151</ele>
        <time>2021-06-05T13:39:52Z</time>
      </trkpt>
      <trkpt lat="43.65708" lon="3.39953">
        <ele>151</ele>
        <time>2021-06-05T13:39:53Z</time>
      </trkpt>
      <trkpt lat="43.65709" lon="3.39957">
        <ele>151</ele>
        <time>2021-06-05T13:39:54Z</time>
      </trkpt>
      <trkpt lat="43.6571" lon="3.39961">
        <ele>151</ele>
        <time>2021-06-05T13:39:55Z</time>
      </trkpt>
      <trkpt lat="43.65711" lon="3.39965">
        <ele>150</ele>
        <time>2021-06-05T13:39:56Z</time>
      </trkpt>
      <trkpt lat="43.65712" lon="3.39969">
        <ele>150</ele>
        <time>2021-06-05T13:39:57Z</time>
      </trkpt>
      <trkpt lat="43.65713" lon="3.39973">
        <ele>150</ele>
        <time>2021-06-05T13:39:58Z</time>
      </trkpt>
      <trkpt lat="43.65714" lon="3.39978">
        <ele>150</ele>
        <time>2021-06-05T13:39:59Z</time>
      </trkpt>
      <trkpt lat="43.65714" lon="3.39982">
        <ele>150</ele>
        <time>2021-06-05T13:40:00Z</time>
      </trkpt>
      <trkpt lat="43.65715" lon="3.39987">
        <ele>150</ele>
        <time>2021-06-05T13:40:01Z</time>
      </trkpt>
      <trkpt lat="43.65715" lon="3.39992">
        <ele>150</ele>
        <time>2021-06-05T13:40:02Z</time>
      </trkpt>
      <trkpt lat="43.65716" lon="3.39998">
        <ele>150</ele>
        <time>2021-06-05T13:40:03Z</time>
      </trkpt>
      <trkpt lat="43.65716" lon="3.40004">
        <ele>150</ele>
        <time>2021-06-05T13:40:04Z</time>
      </trkpt>
      <trkpt lat="43.65717" lon="3.40009">
        <ele>150</ele>
        <time>2021-06-05T13:40:05Z</time>
      </trkpt>
      <trkpt lat="43.65717" lon="3.40016">
        <ele>149</ele>
        <time>2021-06-05T13:40:06Z</time>
      </trkpt>
      <trkpt lat="43.65717" lon="3.40021">
        <ele>149</ele>
        <time>2021-06-05T13:40:07Z</time>
      </trkpt>
      <trkpt lat="43.65717" lon="3.40026">
        <ele>149</ele>
        <time>2021-06-05T13:40:08Z</time>
      </trkpt>
      <trkpt lat="43.65717" lon="3.4003">
        <ele>149</ele>
        <time>2021-06-05T13:40:09Z</time>
      </trkpt>
      <trkpt lat="43.65717" lon="3.40034">
        <ele>149</ele>
        <time>2021-06-05T13:40:10Z</time>
      </trkpt>
      <trkpt lat="43.65716" lon="3.40037">
        <ele>149</ele>
        <time>2021-06-05T13:40:11Z</time>
      </trkpt>
      <trkpt lat="43.65716" lon="3.40039">
        <ele>149</ele>
        <time>2021-06-05T13:40:12Z</time>
      </trkpt>
      <trkpt lat="43.65714" lon="3.40043">
        <ele>149</ele>
        <time>2021-06-05T13:40:14Z</time>
      </trkpt>
      <trkpt lat="43.65714" lon="3.40043">
        <ele>147</ele>
        <time>2021-06-05T13:40:20Z</time>
      </trkpt>
      <trkpt lat="43.65709" lon="3.40049">
        <ele>147</ele>
        <time>2021-06-05T13:40:43Z</time>
      </trkpt>
      <trkpt lat="43.65706" lon="3.40053">
        <ele>147</ele>
        <time>2021-06-05T13:40:45Z</time>
      </trkpt>
      <trkpt lat="43.65704" lon="3.40055">
        <ele>147</ele>
        <time>2021-06-05T13:40:46Z</time>
      </trkpt>
      <trkpt lat="43.65702" lon="3.40057">
        <ele>147</ele>
        <time>2021-06-05T13:40:47Z</time>
      </trkpt>
      <trkpt lat="43.65701" lon="3.40059">
        <ele>147</ele>
        <time>2021-06-05T13:40:48Z</time>
      </trkpt>
      <trkpt lat="43.65699" lon="3.40061">
        <ele>147</ele>
        <time>2021-06-05T13:40:49Z</time>
      </trkpt>
      <trkpt lat="43.65697" lon="3.40063">
        <ele>147</ele>
        <time>2021-06-05T13:40:50Z</time>
      </trkpt>
      <trkpt lat="43.65695" lon="3.40066">
        <ele>147</ele>
        <time>2021-06-05T13:40:51Z</time>
      </trkpt>
      <trkpt lat="43.65693" lon="3.40069">
        <ele>147</ele>
        <time>2021-06-05T13:40:52Z</time>
      </trkpt>
      <trkpt lat="43.65692" lon="3.40071">
        <ele>147</ele>
        <time>2021-06-05T13:40:53Z</time>
      </trkpt>
      <trkpt lat="43.6569" lon="3.40073">
        <ele>146</ele>
        <time>2021-06-05T13:40:54Z</time>
      </trkpt>
      <trkpt lat="43.65688" lon="3.40076">
        <ele>146</ele>
        <time>2021-06-05T13:40:55Z</time>
      </trkpt>
      <trkpt lat="43.65686" lon="3.40078">
        <ele>146</ele>
        <time>2021-06-05T13:40:56Z</time>
      </trkpt>
      <trkpt lat="43.65684" lon="3.40081">
        <ele>146</ele>
        <time>2021-06-05T13:40:57Z</time>
      </trkpt>
      <trkpt lat="43.65683" lon="3.40083">
        <ele>146</ele>
        <time>2021-06-05T13:40:58Z</time>
      </trkpt>
      <trkpt lat="43.65681" lon="3.40086">
        <ele>146</ele>
        <time>2021-06-05T13:40:59Z</time>
      </trkpt>
      <trkpt lat="43.65679" lon="3.40089">
        <ele>146</ele>
        <time>2021-06-05T13:41:00Z</time>
      </trkpt>
      <trkpt lat="43.65678" lon="3.40091">
        <ele>146</ele>
        <time>2021-06-05T13:41:01Z</time>
      </trkpt>
      <trkpt lat="43.65676" lon="3.40094">
        <ele>146</ele>
        <time>2021-06-05T13:41:02Z</time>
      </trkpt>
      <trkpt lat="43.65674" lon="3.40097">
        <ele>146</ele>
        <time>2021-06-05T13:41:03Z</time>
      </trkpt>
      <trkpt lat="43.65672" lon="3.40099">
        <ele>146</ele>
        <time>2021-06-05T13:41:03Z</time>
      </trkpt>
      <trkpt lat="43.6567" lon="3.40102">
        <ele>146</ele>
        <time>2021-06-05T13:41:04Z</time>
      </trkpt>
      <trkpt lat="43.65668" lon="3.40105">
        <ele>146</ele>
        <time>2021-06-05T13:41:05Z</time>
      </trkpt>
      <trkpt lat="43.65667" lon="3.40108">
        <ele>146</ele>
        <time>2021-06-05T13:41:06Z</time>
      </trkpt>
      <trkpt lat="43.65664" lon="3.40111">
        <ele>146</ele>
        <time>2021-06-05T13:41:07Z</time>
      </trkpt>
      <trkpt lat="43.65663" lon="3.40113">
        <ele>146</ele>
        <time>2021-06-05T13:41:08Z</time>
      </trkpt>
      <trkpt lat="43.65661" lon="3.40116">
        <ele>146</ele>
        <time>2021-06-05T13:41:09Z</time>
      </trkpt>
      <trkpt lat="43.65658" lon="3.40119">
        <ele>146</ele>
        <time>2021-06-05T13:41:10Z</time>
      </trkpt>
      <trkpt lat="43.65656" lon="3.40122">
        <ele>146</ele>
        <time>2021-06-05T13:41:11Z</time>
      </trkpt>
      <trkpt lat="43.65655" lon="3.40125">
        <ele>146</ele>
        <time>2021-06-05T13:41:12Z</time>
      </trkpt>
      <trkpt lat="43.65652" lon="3.40128">
        <ele>145</ele>
        <time>2021-06-05T13:41:14Z</time>
      </trkpt>
      <trkpt lat="43.6565" lon="3.40131">
        <ele>145</ele>
        <time>2021-06-05T13:41:15Z</time>
      </trkpt>
      <trkpt lat="43.65648" lon="3.40134">
        <ele>145</ele>
        <time>2021-06-05T13:41:16Z</time>
      </trkpt>
      <trkpt lat="43.65646" lon="3.40136">
        <ele>145</ele>
        <time>2021-06-05T13:41:17Z</time>
      </trkpt>
      <trkpt lat="43.65643" lon="3.4014">
        <ele>145</ele>
        <time>2021-06-05T13:41:18Z</time>
      </trkpt>
      <trkpt lat="43.65641" lon="3.40143">
        <ele>145</ele>
        <time>2021-06-05T13:41:19Z</time>
      </trkpt>
      <trkpt lat="43.65639" lon="3.40146">
        <ele>145</ele>
        <time>2021-06-05T13:41:20Z</time>
      </trkpt>
      <trkpt lat="43.65637" lon="3.40149">
        <ele>145</ele>
        <time>2021-06-05T13:41:21Z</time>
      </trkpt>
      <trkpt lat="43.65635" lon="3.40152">
        <ele>145</ele>
        <time>2021-06-05T13:41:22Z</time>
      </trkpt>
      <trkpt lat="43.65633" lon="3.40155">
        <ele>145</ele>
        <time>2021-06-05T13:41:23Z</time>
      </trkpt>
      <trkpt lat="43.65631" lon="3.40158">
        <ele>145</ele>
        <time>2021-06-05T13:41:24Z</time>
      </trkpt>
      <trkpt lat="43.65629" lon="3.40161">
        <ele>145</ele>
        <time>2021-06-05T13:41:25Z</time>
      </trkpt>
      <trkpt lat="43.65626" lon="3.40164">
        <ele>145</ele>
        <time>2021-06-05T13:41:26Z</time>
      </trkpt>
      <trkpt lat="43.65624" lon="3.40168">
        <ele>145</ele>
        <time>2021-06-05T13:41:27Z</time>
      </trkpt>
      <trkpt lat="43.65622" lon="3.4017">
        <ele>145</ele>
        <time>2021-06-05T13:41:28Z</time>
      </trkpt>
      <trkpt lat="43.65619" lon="3.40174">
        <ele>145</ele>
        <time>2021-06-05T13:41:29Z</time>
      </trkpt>
      <trkpt lat="43.65617" lon="3.40177">
        <ele>145</ele>
        <time>2021-06-05T13:41:30Z</time>
      </trkpt>
      <trkpt lat="43.65616" lon="3.40179">
        <ele>145</ele>
        <time>2021-06-05T13:41:31Z</time>
      </trkpt>
      <trkpt lat="43.65614" lon="3.40182">
        <ele>145</ele>
        <time>2021-06-05T13:41:32Z</time>
      </trkpt>
      <trkpt lat="43.65611" lon="3.40185">
        <ele>145</ele>
        <time>2021-06-05T13:41:33Z</time>
      </trkpt>
      <trkpt lat="43.65609" lon="3.40189">
        <ele>144</ele>
        <time>2021-06-05T13:41:34Z</time>
      </trkpt>
      <trkpt lat="43.65607" lon="3.40192">
        <ele>144</ele>
        <time>2021-06-05T13:41:35Z</time>
      </trkpt>
      <trkpt lat="43.65605" lon="3.40195">
        <ele>144</ele>
        <time>2021-06-05T13:41:36Z</time>
      </trkpt>
      <trkpt lat="43.65603" lon="3.40198">
        <ele>144</ele>
        <time>2021-06-05T13:41:37Z</time>
      </trkpt>
      <trkpt lat="43.656" lon="3.40202">
        <ele>144</ele>
        <time>2021-06-05T13:41:38Z</time>
      </trkpt>
      <trkpt lat="43.65599" lon="3.40205">
        <ele>144</ele>
        <time>2021-06-05T13:41:39Z</time>
      </trkpt>
      <trkpt lat="43.65596" lon="3.40208">
        <ele>144</ele>
        <time>2021-06-05T13:41:40Z</time>
      </trkpt>
      <trkpt lat="43.65594" lon="3.40212">
        <ele>144</ele>
        <time>2021-06-05T13:41:41Z</time>
      </trkpt>
      <trkpt lat="43.65592" lon="3.40216">
        <ele>144</ele>
        <time>2021-06-05T13:41:42Z</time>
      </trkpt>
      <trkpt lat="43.65589" lon="3.40219">
        <ele>144</ele>
        <time>2021-06-05T13:41:43Z</time>
      </trkpt>
      <trkpt lat="43.65588" lon="3.40222">
        <ele>144</ele>
        <time>2021-06-05T13:41:44Z</time>
      </trkpt>
      <trkpt lat="43.65585" lon="3.40226">
        <ele>144</ele>
        <time>2021-06-05T13:41:45Z</time>
      </trkpt>
      <trkpt lat="43.65583" lon="3.40229">
        <ele>144</ele>
        <time>2021-06-05T13:41:46Z</time>
      </trkpt>
      <trkpt lat="43.65581" lon="3.40232">
        <ele>144</ele>
        <time>2021-06-05T13:41:47Z</time>
      </trkpt>
      <trkpt lat="43.65579" lon="3.40235">
        <ele>144</ele>
        <time>2021-06-05T13:41:48Z</time>
      </trkpt>
      <trkpt lat="43.65577" lon="3.40239">
        <ele>144</ele>
        <time>2021-06-05T13:41:49Z</time>
      </trkpt>
      <trkpt lat="43.65574" lon="3.40242">
        <ele>144</ele>
        <time>2021-06-05T13:41:50Z</time>
      </trkpt>
      <trkpt lat="43.65572" lon="3.40245">
        <ele>144</ele>
        <time>2021-06-05T13:41:51Z</time>
      </trkpt>
      <trkpt lat="43.65569" lon="3.40249">
        <ele>144</ele>
        <time>2021-06-05T13:41:52Z</time>
      </trkpt>
      <trkpt lat="43.65567" lon="3.40252">
        <ele>144</ele>
        <time>2021-06-05T13:41:53Z</time>
      </trkpt>
      <trkpt lat="43.65565" lon="3.40256">
        <ele>144</ele>
        <time>2021-06-05T13:41:54Z</time>
      </trkpt>
      <trkpt lat="43.65562" lon="3.40259">
        <ele>144</ele>
        <time>2021-06-05T13:41:55Z</time>
      </trkpt>
      <trkpt lat="43.6556" lon="3.40263">
        <ele>144</ele>
        <time>2021-06-05T13:41:56Z</time>
      </trkpt>
      <trkpt lat="43.65557" lon="3.40266">
        <ele>144</ele>
        <time>2021-06-05T13:41:57Z</time>
      </trkpt>
      <trkpt lat="43.65555" lon="3.40269">
        <ele>144</ele>
        <time>2021-06-05T13:41:58Z</time>
      </trkpt>
      <trkpt lat="43.65552" lon="3.40272">
        <ele>144</ele>
        <time>2021-06-05T13:41:59Z</time>
      </trkpt>
      <trkpt lat="43.6555" lon="3.40275">
        <ele>144</ele>
        <time>2021-06-05T13:42:00Z</time>
      </trkpt>
      <trkpt lat="43.65547" lon="3.40279">
        <ele>144</ele>
        <time>2021-06-05T13:42:01Z</time>
      </trkpt>
      <trkpt lat="43.65545" lon="3.40282">
        <ele>144</ele>
        <time>2021-06-05T13:42:02Z</time>
      </trkpt>
      <trkpt lat="43.65542" lon="3.40285">
        <ele>144</ele>
        <time>2021-06-05T13:42:03Z</time>
      </trkpt>
      <trkpt lat="43.6554" lon="3.40289">
        <ele>144</ele>
        <time>2021-06-05T13:42:04Z</time>
      </trkpt>
      <trkpt lat="43.65538" lon="3.40292">
        <ele>144</ele>
        <time>2021-06-05T13:42:05Z</time>
      </trkpt>
      <trkpt lat="43.65536" lon="3.40295">
        <ele>144</ele>
        <time>2021-06-05T13:42:06Z</time>
      </trkpt>
      <trkpt lat="43.65534" lon="3.40298">
        <ele>144</ele>
        <time>2021-06-05T13:42:07Z</time>
      </trkpt>
      <trkpt lat="43.65532" lon="3.40301">
        <ele>144</ele>
        <time>2021-06-05T13:42:08Z</time>
      </trkpt>
      <trkpt lat="43.65529" lon="3.40304">
        <ele>144</ele>
        <time>2021-06-05T13:42:09Z</time>
      </trkpt>
      <trkpt lat="43.65527" lon="3.40307">
        <ele>144</ele>
        <time>2021-06-05T13:42:10Z</time>
      </trkpt>
      <trkpt lat="43.65526" lon="3.4031">
        <ele>144</ele>
        <time>2021-06-05T13:42:11Z</time>
      </trkpt>
      <trkpt lat="43.65524" lon="3.40312">
        <ele>144</ele>
        <time>2021-06-05T13:42:12Z</time>
      </trkpt>
      <trkpt lat="43.65522" lon="3.40315">
        <ele>144</ele>
        <time>2021-06-05T13:42:13Z</time>
      </trkpt>
      <trkpt lat="43.6552" lon="3.40317">
        <ele>145</ele>
        <time>2021-06-05T13:42:14Z</time>
      </trkpt>
      <trkpt lat="43.65519" lon="3.4032">
        <ele>145</ele>
        <time>2021-06-05T13:42:15Z</time>
      </trkpt>
      <trkpt lat="43.65517" lon="3.40323">
        <ele>145</ele>
        <time>2021-06-05T13:42:16Z</time>
      </trkpt>
      <trkpt lat="43.65515" lon="3.40325">
        <ele>145</ele>
        <time>2021-06-05T13:42:17Z</time>
      </trkpt>
      <trkpt lat="43.65514" lon="3.40328">
        <ele>145</ele>
        <time>2021-06-05T13:42:18Z</time>
      </trkpt>
      <trkpt lat="43.65511" lon="3.40331">
        <ele>145</ele>
        <time>2021-06-05T13:42:19Z</time>
      </trkpt>
      <trkpt lat="43.6551" lon="3.40333">
        <ele>145</ele>
        <time>2021-06-05T13:42:20Z</time>
      </trkpt>
      <trkpt lat="43.65508" lon="3.40336">
        <ele>145</ele>
        <time>2021-06-05T13:42:21Z</time>
      </trkpt>
      <trkpt lat="43.65507" lon="3.40337">
        <ele>145</ele>
        <time>2021-06-05T13:42:22Z</time>
      </trkpt>
      <trkpt lat="43.65504" lon="3.40339">
        <ele>144</ele>
        <time>2021-06-05T13:42:24Z</time>
      </trkpt>
      <trkpt lat="43.65502" lon="3.4034">
        <ele>144</ele>
        <time>2021-06-05T13:42:26Z</time>
      </trkpt>
      <trkpt lat="43.65501" lon="3.40342">
        <ele>144</ele>
        <time>2021-06-05T13:42:29Z</time>
      </trkpt>
      <trkpt lat="43.65499" lon="3.40344">
        <ele>144</ele>
        <time>2021-06-05T13:42:30Z</time>
      </trkpt>
      <trkpt lat="43.65497" lon="3.40346">
        <ele>144</ele>
        <time>2021-06-05T13:42:31Z</time>
      </trkpt>
      <trkpt lat="43.65496" lon="3.40346">
        <ele>144</ele>
        <time>2021-06-05T13:42:32Z</time>
      </trkpt>
      <trkpt lat="43.65494" lon="3.40344">
        <ele>144</ele>
        <time>2021-06-05T13:42:33Z</time>
      </trkpt>
      <trkpt lat="43.65491" lon="3.40343">
        <ele>144</ele>
        <time>2021-06-05T13:42:34Z</time>
      </trkpt>
      <trkpt lat="43.6549" lon="3.40341">
        <ele>144</ele>
        <time>2021-06-05T13:42:35Z</time>
      </trkpt>
      <trkpt lat="43.65488" lon="3.40338">
        <ele>144</ele>
        <time>2021-06-05T13:42:36Z</time>
      </trkpt>
      <trkpt lat="43.65487" lon="3.40336">
        <ele>144</ele>
        <time>2021-06-05T13:42:37Z</time>
      </trkpt>
      <trkpt lat="43.65485" lon="3.40333">
        <ele>144</ele>
        <time>2021-06-05T13:42:38Z</time>
      </trkpt>
      <trkpt lat="43.65484" lon="3.40331">
        <ele>144</ele>
        <time>2021-06-05T13:42:39Z</time>
      </trkpt>
      <trkpt lat="43.65482" lon="3.40329">
        <ele>144</ele>
        <time>2021-06-05T13:42:40Z</time>
      </trkpt>
      <trkpt lat="43.6548" lon="3.40327">
        <ele>144</ele>
        <time>2021-06-05T13:42:41Z</time>
      </trkpt>
      <trkpt lat="43.65479" lon="3.40324">
        <ele>144</ele>
        <time>2021-06-05T13:42:42Z</time>
      </trkpt>
      <trkpt lat="43.65477" lon="3.40322">
        <ele>144</ele>
        <time>2021-06-05T13:42:43Z</time>
      </trkpt>
      <trkpt lat="43.65475" lon="3.40319">
        <ele>145</ele>
        <time>2021-06-05T13:42:44Z</time>
      </trkpt>
      <trkpt lat="43.65474" lon="3.40317">
        <ele>145</ele>
        <time>2021-06-05T13:42:45Z</time>
      </trkpt>
      <trkpt lat="43.65472" lon="3.40314">
        <ele>145</ele>
        <time>2021-06-05T13:42:46Z</time>
      </trkpt>
      <trkpt lat="43.65471" lon="3.40312">
        <ele>145</ele>
        <time>2021-06-05T13:42:47Z</time>
      </trkpt>
      <trkpt lat="43.65469" lon="3.40309">
        <ele>145</ele>
        <time>2021-06-05T13:42:48Z</time>
      </trkpt>
      <trkpt lat="43.65467" lon="3.40307">
        <ele>145</ele>
        <time>2021-06-05T13:42:49Z</time>
      </trkpt>
      <trkpt lat="43.65466" lon="3.40305">
        <ele>145</ele>
        <time>2021-06-05T13:42:50Z</time>
      </trkpt>
      <trkpt lat="43.65464" lon="3.40302">
        <ele>145</ele>
        <time>2021-06-05T13:42:51Z</time>
      </trkpt>
      <trkpt lat="43.65463" lon="3.403">
        <ele>145</ele>
        <time>2021-06-05T13:42:52Z</time>
      </trkpt>
      <trkpt lat="43.6546" lon="3.40297">
        <ele>145</ele>
        <time>2021-06-05T13:42:53Z</time>
      </trkpt>
      <trkpt lat="43.6546" lon="3.40295">
        <ele>145</ele>
        <time>2021-06-05T13:42:54Z</time>
      </trkpt>
      <trkpt lat="43.65458" lon="3.40293">
        <ele>145</ele>
        <time>2021-06-05T13:42:55Z</time>
      </trkpt>
      <trkpt lat="43.65456" lon="3.4029">
        <ele>145</ele>
        <time>2021-06-05T13:42:56Z</time>
      </trkpt>
      <trkpt lat="43.65454" lon="3.40289">
        <ele>145</ele>
        <time>2021-06-05T13:42:57Z</time>
      </trkpt>
      <trkpt lat="43.65453" lon="3.40286">
        <ele>145</ele>
        <time>2021-06-05T13:42:58Z</time>
      </trkpt>
      <trkpt lat="43.6545" lon="3.40284">
        <ele>145</ele>
        <time>2021-06-05T13:42:59Z</time>
      </trkpt>
      <trkpt lat="43.65449" lon="3.40282">
        <ele>145</ele>
        <time>2021-06-05T13:43:00Z</time>
      </trkpt>
      <trkpt lat="43.65447" lon="3.4028">
        <ele>145</ele>
        <time>2021-06-05T13:43:01Z</time>
      </trkpt>
      <trkpt lat="43.65445" lon="3.40278">
        <ele>145</ele>
        <time>2021-06-05T13:43:02Z</time>
      </trkpt>
      <trkpt lat="43.65444" lon="3.40277">
        <ele>145</ele>
        <time>2021-06-05T13:43:03Z</time>
      </trkpt>
      <trkpt lat="43.65441" lon="3.40275">
        <ele>148</ele>
        <time>2021-06-05T13:43:04Z</time>
      </trkpt>
      <trkpt lat="43.65439" lon="3.40273">
        <ele>148</ele>
        <time>2021-06-05T13:43:05Z</time>
      </trkpt>
      <trkpt lat="43.65438" lon="3.40271">
        <ele>148</ele>
        <time>2021-06-05T13:43:06Z</time>
      </trkpt>
      <trkpt lat="43.65436" lon="3.4027">
        <ele>148</ele>
        <time>2021-06-05T13:43:07Z</time>
      </trkpt>
      <trkpt lat="43.65434" lon="3.40268">
        <ele>148</ele>
        <time>2021-06-05T13:43:08Z</time>
      </trkpt>
      <trkpt lat="43.65432" lon="3.40267">
        <ele>148</ele>
        <time>2021-06-05T13:43:09Z</time>
      </trkpt>
      <trkpt lat="43.65431" lon="3.40265">
        <ele>148</ele>
        <time>2021-06-05T13:43:10Z</time>
      </trkpt>
      <trkpt lat="43.65429" lon="3.40263">
        <ele>148</ele>
        <time>2021-06-05T13:43:11Z</time>
      </trkpt>
      <trkpt lat="43.65428" lon="3.40262">
        <ele>148</ele>
        <time>2021-06-05T13:43:12Z</time>
      </trkpt>
      <trkpt lat="43.65426" lon="3.4026">
        <ele>148</ele>
        <time>2021-06-05T13:43:13Z</time>
      </trkpt>
      <trkpt lat="43.65424" lon="3.40259">
        <ele>150</ele>
        <time>2021-06-05T13:43:14Z</time>
      </trkpt>
      <trkpt lat="43.65422" lon="3.40258">
        <ele>150</ele>
        <time>2021-06-05T13:43:15Z</time>
      </trkpt>
      <trkpt lat="43.65421" lon="3.40257">
        <ele>150</ele>
        <time>2021-06-05T13:43:16Z</time>
      </trkpt>
      <trkpt lat="43.65419" lon="3.40256">
        <ele>150</ele>
        <time>2021-06-05T13:43:17Z</time>
      </trkpt>
      <trkpt lat="43.65417" lon="3.40255">
        <ele>150</ele>
        <time>2021-06-05T13:43:18Z</time>
      </trkpt>
      <trkpt lat="43.65415" lon="3.40253">
        <ele>150</ele>
        <time>2021-06-05T13:43:19Z</time>
      </trkpt>
      <trkpt lat="43.65413" lon="3.40252">
        <ele>150</ele>
        <time>2021-06-05T13:43:20Z</time>
      </trkpt>
      <trkpt lat="43.65412" lon="3.4025">
        <ele>150</ele>
        <time>2021-06-05T13:43:21Z</time>
      </trkpt>
      <trkpt lat="43.6541" lon="3.40249">
        <ele>150</ele>
        <time>2021-06-05T13:43:22Z</time>
      </trkpt>
      <trkpt lat="43.65408" lon="3.40247">
        <ele>150</ele>
        <time>2021-06-05T13:43:23Z</time>
      </trkpt>
      <trkpt lat="43.65406" lon="3.40246">
        <ele>151</ele>
        <time>2021-06-05T13:43:24Z</time>
      </trkpt>
      <trkpt lat="43.65405" lon="3.40245">
        <ele>151</ele>
        <time>2021-06-05T13:43:25Z</time>
      </trkpt>
      <trkpt lat="43.65403" lon="3.40244">
        <ele>151</ele>
        <time>2021-06-05T13:43:26Z</time>
      </trkpt>
      <trkpt lat="43.65401" lon="3.40243">
        <ele>151</ele>
        <time>2021-06-05T13:43:27Z</time>
      </trkpt>
      <trkpt lat="43.654" lon="3.40241">
        <ele>151</ele>
        <time>2021-06-05T13:43:28Z</time>
      </trkpt>
      <trkpt lat="43.65398" lon="3.40239">
        <ele>151</ele>
        <time>2021-06-05T13:43:29Z</time>
      </trkpt>
      <trkpt lat="43.65396" lon="3.40237">
        <ele>151</ele>
        <time>2021-06-05T13:43:30Z</time>
      </trkpt>
      <trkpt lat="43.65395" lon="3.40236">
        <ele>151</ele>
        <time>2021-06-05T13:43:31Z</time>
      </trkpt>
      <trkpt lat="43.65393" lon="3.40235">
        <ele>151</ele>
        <time>2021-06-05T13:43:32Z</time>
      </trkpt>
      <trkpt lat="43.65391" lon="3.40234">
        <ele>151</ele>
        <time>2021-06-05T13:43:33Z</time>
      </trkpt>
      <trkpt lat="43.65389" lon="3.40233">
        <ele>153</ele>
        <time>2021-06-05T13:43:34Z</time>
      </trkpt>
      <trkpt lat="43.65387" lon="3.40231">
        <ele>153</ele>
        <time>2021-06-05T13:43:35Z</time>
      </trkpt>
      <trkpt lat="43.65385" lon="3.4023">
        <ele>153</ele>
        <time>2021-06-05T13:43:36Z</time>
      </trkpt>
      <trkpt lat="43.65383" lon="3.40229">
        <ele>153</ele>
        <time>2021-06-05T13:43:37Z</time>
      </trkpt>
      <trkpt lat="43.65382" lon="3.40228">
        <ele>153</ele>
        <time>2021-06-05T13:43:38Z</time>
      </trkpt>
      <trkpt lat="43.6538" lon="3.40226">
        <ele>153</ele>
        <time>2021-06-05T13:43:39Z</time>
      </trkpt>
      <trkpt lat="43.65378" lon="3.40225">
        <ele>153</ele>
        <time>2021-06-05T13:43:40Z</time>
      </trkpt>
      <trkpt lat="43.65377" lon="3.40224">
        <ele>153</ele>
        <time>2021-06-05T13:43:41Z</time>
      </trkpt>
      <trkpt lat="43.65375" lon="3.40224">
        <ele>153</ele>
        <time>2021-06-05T13:43:42Z</time>
      </trkpt>
      <trkpt lat="43.65373" lon="3.40223">
        <ele>153</ele>
        <time>2021-06-05T13:43:43Z</time>
      </trkpt>
      <trkpt lat="43.65371" lon="3.40222">
        <ele>154</ele>
        <time>2021-06-05T13:43:44Z</time>
      </trkpt>
      <trkpt lat="43.65369" lon="3.40221">
        <ele>154</ele>
        <time>2021-06-05T13:43:45Z</time>
      </trkpt>
      <trkpt lat="43.65367" lon="3.4022">
        <ele>154</ele>
        <time>2021-06-05T13:43:46Z</time>
      </trkpt>
      <trkpt lat="43.65365" lon="3.40219">
        <ele>154</ele>
        <time>2021-06-05T13:43:47Z</time>
      </trkpt>
      <trkpt lat="43.65363" lon="3.40219">
        <ele>154</ele>
        <time>2021-06-05T13:43:48Z</time>
      </trkpt>
      <trkpt lat="43.65361" lon="3.40218">
        <ele>154</ele>
        <time>2021-06-05T13:43:49Z</time>
      </trkpt>
      <trkpt lat="43.6536" lon="3.40217">
        <ele>154</ele>
        <time>2021-06-05T13:43:50Z</time>
      </trkpt>
      <trkpt lat="43.65357" lon="3.40216">
        <ele>154</ele>
        <time>2021-06-05T13:43:51Z</time>
      </trkpt>
      <trkpt lat="43.65355" lon="3.40215">
        <ele>154</ele>
        <time>2021-06-05T13:43:52Z</time>
      </trkpt>
      <trkpt lat="43.65353" lon="3.40214">
        <ele>154</ele>
        <time>2021-06-05T13:43:53Z</time>
      </trkpt>
      <trkpt lat="43.65351" lon="3.40214">
        <ele>155</ele>
        <time>2021-06-05T13:43:54Z</time>
      </trkpt>
      <trkpt lat="43.65349" lon="3.40213">
        <ele>155</ele>
        <time>2021-06-05T13:43:55Z</time>
      </trkpt>
      <trkpt lat="43.65347" lon="3.40212">
        <ele>155</ele>
        <time>2021-06-05T13:43:56Z</time>
      </trkpt>
      <trkpt lat="43.65345" lon="3.40212">
        <ele>155</ele>
        <time>2021-06-05T13:43:57Z</time>
      </trkpt>
      <trkpt lat="43.65343" lon="3.40211">
        <ele>155</ele>
        <time>2021-06-05T13:43:58Z</time>
      </trkpt>
      <trkpt lat="43.65341" lon="3.40211">
        <ele>155</ele>
        <time>2021-06-05T13:43:59Z</time>
      </trkpt>
      <trkpt lat="43.65339" lon="3.40209">
        <ele>155</ele>
        <time>2021-06-05T13:44:00Z</time>
      </trkpt>
      <trkpt lat="43.65338" lon="3.40209">
        <ele>155</ele>
        <time>2021-06-05T13:44:01Z</time>
      </trkpt>
      <trkpt lat="43.65335" lon="3.40209">
        <ele>155</ele>
        <time>2021-06-05T13:44:02Z</time>
      </trkpt>
      <trkpt lat="43.65333" lon="3.40208">
        <ele>155</ele>
        <time>2021-06-05T13:44:03Z</time>
      </trkpt>
      <trkpt lat="43.65331" lon="3.40207">
        <ele>156</ele>
        <time>2021-06-05T13:44:04Z</time>
      </trkpt>
      <trkpt lat="43.65329" lon="3.40207">
        <ele>156</ele>
        <time>2021-06-05T13:44:05Z</time>
      </trkpt>
      <trkpt lat="43.65327" lon="3.40206">
        <ele>156</ele>
        <time>2021-06-05T13:44:06Z</time>
      </trkpt>
      <trkpt lat="43.65325" lon="3.40206">
        <ele>156</ele>
        <time>2021-06-05T13:44:07Z</time>
      </trkpt>
      <trkpt lat="43.65323" lon="3.40206">
        <ele>156</ele>
        <time>2021-06-05T13:44:08Z</time>
      </trkpt>
      <trkpt lat="43.65321" lon="3.40206">
        <ele>156</ele>
        <time>2021-06-05T13:44:09Z</time>
      </trkpt>
      <trkpt lat="43.65319" lon="3.40205">
        <ele>156</ele>
        <time>2021-06-05T13:44:10Z</time>
      </trkpt>
      <trkpt lat="43.65317" lon="3.40205">
        <ele>156</ele>
        <time>2021-06-05T13:44:11Z</time>
      </trkpt>
      <trkpt lat="43.65314" lon="3.40205">
        <ele>156</ele>
        <time>2021-06-05T13:44:12Z</time>
      </trkpt>
      <trkpt lat="43.65312" lon="3.40204">
        <ele>156</ele>
        <time>2021-06-05T13:44:13Z</time>
      </trkpt>
      <trkpt lat="43.65311" lon="3.40203">
        <ele>157</ele>
        <time>2021-06-05T13:44:13Z</time>
      </trkpt>
      <trkpt lat="43.65308" lon="3.40203">
        <ele>157</ele>
        <time>2021-06-05T13:44:14Z</time>
      </trkpt>
      <trkpt lat="43.65307" lon="3.40202">
        <ele>157</ele>
        <time>2021-06-05T13:44:15Z</time>
      </trkpt>
      <trkpt lat="43.65304" lon="3.40201">
        <ele>157</ele>
        <time>2021-06-05T13:44:16Z</time>
      </trkpt>
      <trkpt lat="43.65302" lon="3.402">
        <ele>157</ele>
        <time>2021-06-05T13:44:17Z</time>
      </trkpt>
      <trkpt lat="43.653" lon="3.40199">
        <ele>157</ele>
        <time>2021-06-05T13:44:18Z</time>
      </trkpt>
      <trkpt lat="43.65298" lon="3.40198">
        <ele>157</ele>
        <time>2021-06-05T13:44:19Z</time>
      </trkpt>
      <trkpt lat="43.65296" lon="3.40197">
        <ele>157</ele>
        <time>2021-06-05T13:44:20Z</time>
      </trkpt>
      <trkpt lat="43.65294" lon="3.40195">
        <ele>157</ele>
        <time>2021-06-05T13:44:21Z</time>
      </trkpt>
      <trkpt lat="43.65293" lon="3.40193">
        <ele>157</ele>
        <time>2021-06-05T13:44:22Z</time>
      </trkpt>
      <trkpt lat="43.65292" lon="3.40192">
        <ele>158</ele>
        <time>2021-06-05T13:44:24Z</time>
      </trkpt>
      <trkpt lat="43.6529" lon="3.40189">
        <ele>158</ele>
        <time>2021-06-05T13:44:25Z</time>
      </trkpt>
      <trkpt lat="43.65289" lon="3.40187">
        <ele>158</ele>
        <time>2021-06-05T13:44:26Z</time>
      </trkpt>
      <trkpt lat="43.65287" lon="3.40185">
        <ele>158</ele>
        <time>2021-06-05T13:44:27Z</time>
      </trkpt>
      <trkpt lat="43.65286" lon="3.40182">
        <ele>158</ele>
        <time>2021-06-05T13:44:28Z</time>
      </trkpt>
      <trkpt lat="43.65285" lon="3.40179">
        <ele>158</ele>
        <time>2021-06-05T13:44:29Z</time>
      </trkpt>
      <trkpt lat="43.65283" lon="3.40177">
        <ele>158</ele>
        <time>2021-06-05T13:44:30Z</time>
      </trkpt>
      <trkpt lat="43.65282" lon="3.40175">
        <ele>158</ele>
        <time>2021-06-05T13:44:31Z</time>
      </trkpt>
      <trkpt lat="43.65281" lon="3.40172">
        <ele>158</ele>
        <time>2021-06-05T13:44:32Z</time>
      </trkpt>
      <trkpt lat="43.6528" lon="3.40169">
        <ele>158</ele>
        <time>2021-06-05T13:44:33Z</time>
      </trkpt>
      <trkpt lat="43.6528" lon="3.40166">
        <ele>159</ele>
        <time>2021-06-05T13:44:34Z</time>
      </trkpt>
      <trkpt lat="43.65279" lon="3.40163">
        <ele>159</ele>
        <time>2021-06-05T13:44:35Z</time>
      </trkpt>
      <trkpt lat="43.65279" lon="3.40161">
        <ele>159</ele>
        <time>2021-06-05T13:44:36Z</time>
      </trkpt>
      <trkpt lat="43.65279" lon="3.40158">
        <ele>159</ele>
        <time>2021-06-05T13:44:37Z</time>
      </trkpt>
      <trkpt lat="43.65279" lon="3.40155">
        <ele>159</ele>
        <time>2021-06-05T13:44:38Z</time>
      </trkpt>
      <trkpt lat="43.65278" lon="3.40152">
        <ele>159</ele>
        <time>2021-06-05T13:44:39Z</time>
      </trkpt>
      <trkpt lat="43.65278" lon="3.40149">
        <ele>159</ele>
        <time>2021-06-05T13:44:40Z</time>
      </trkpt>
      <trkpt lat="43.65278" lon="3.40146">
        <ele>159</ele>
        <time>2021-06-05T13:44:41Z</time>
      </trkpt>
      <trkpt lat="43.65278" lon="3.40144">
        <ele>159</ele>
        <time>2021-06-05T13:44:42Z</time>
      </trkpt>
      <trkpt lat="43.65277" lon="3.40141">
        <ele>159</ele>
        <time>2021-06-05T13:44:43Z</time>
      </trkpt>
      <trkpt lat="43.65277" lon="3.40138">
        <ele>160</ele>
        <time>2021-06-05T13:44:44Z</time>
      </trkpt>
      <trkpt lat="43.65277" lon="3.40135">
        <ele>160</ele>
        <time>2021-06-05T13:44:45Z</time>
      </trkpt>
      <trkpt lat="43.65277" lon="3.40132">
        <ele>160</ele>
        <time>2021-06-05T13:44:46Z</time>
      </trkpt>
      <trkpt lat="43.65277" lon="3.4013">
        <ele>160</ele>
        <time>2021-06-05T13:44:47Z</time>
      </trkpt>
      <trkpt lat="43.65277" lon="3.40127">
        <ele>160</ele>
        <time>2021-06-05T13:44:48Z</time>
      </trkpt>
      <trkpt lat="43.65277" lon="3.40124">
        <ele>160</ele>
        <time>2021-06-05T13:44:49Z</time>
      </trkpt>
      <trkpt lat="43.65277" lon="3.40121">
        <ele>160</ele>
        <time>2021-06-05T13:44:50Z</time>
      </trkpt>
      <trkpt lat="43.65277" lon="3.40118">
        <ele>160</ele>
        <time>2021-06-05T13:44:51Z</time>
      </trkpt>
      <trkpt lat="43.65277" lon="3.40116">
        <ele>160</ele>
        <time>2021-06-05T13:44:52Z</time>
      </trkpt>
      <trkpt lat="43.65277" lon="3.40113">
        <ele>160</ele>
        <time>2021-06-05T13:44:53Z</time>
      </trkpt>
      <trkpt lat="43.65276" lon="3.4011">
        <ele>161</ele>
        <time>2021-06-05T13:44:54Z</time>
      </trkpt>
      <trkpt lat="43.65276" lon="3.40108">
        <ele>161</ele>
        <time>2021-06-05T13:44:55Z</time>
      </trkpt>
      <trkpt lat="43.65276" lon="3.40105">
        <ele>161</ele>
        <time>2021-06-05T13:44:56Z</time>
      </trkpt>
      <trkpt lat="43.65276" lon="3.401">
        <ele>161</ele>
        <time>2021-06-05T13:44:58Z</time>
      </trkpt>
      <trkpt lat="43.65274" lon="3.40096">
        <ele>161</ele>
        <time>2021-06-05T13:45:00Z</time>
      </trkpt>
      <trkpt lat="43.65274" lon="3.40093">
        <ele>161</ele>
        <time>2021-06-05T13:45:01Z</time>
      </trkpt>
      <trkpt lat="43.65273" lon="3.40088">
        <ele>161</ele>
        <time>2021-06-05T13:45:03Z</time>
      </trkpt>
      <trkpt lat="43.65272" lon="3.40086">
        <ele>163</ele>
        <time>2021-06-05T13:45:04Z</time>
      </trkpt>
      <trkpt lat="43.65271" lon="3.40084">
        <ele>163</ele>
        <time>2021-06-05T13:45:05Z</time>
      </trkpt>
      <trkpt lat="43.6527" lon="3.40081">
        <ele>163</ele>
        <time>2021-06-05T13:45:06Z</time>
      </trkpt>
      <trkpt lat="43.6527" lon="3.40079">
        <ele>163</ele>
        <time>2021-06-05T13:45:07Z</time>
      </trkpt>
      <trkpt lat="43.65269" lon="3.40076">
        <ele>163</ele>
        <time>2021-06-05T13:45:08Z</time>
      </trkpt>
      <trkpt lat="43.65269" lon="3.40074">
        <ele>163</ele>
        <time>2021-06-05T13:45:09Z</time>
      </trkpt>
      <trkpt lat="43.65267" lon="3.40071">
        <ele>163</ele>
        <time>2021-06-05T13:45:10Z</time>
      </trkpt>
      <trkpt lat="43.65266" lon="3.40069">
        <ele>163</ele>
        <time>2021-06-05T13:45:11Z</time>
      </trkpt>
      <trkpt lat="43.65265" lon="3.40066">
        <ele>163</ele>
        <time>2021-06-05T13:45:12Z</time>
      </trkpt>
      <trkpt lat="43.65263" lon="3.40064">
        <ele>163</ele>
        <time>2021-06-05T13:45:13Z</time>
      </trkpt>
      <trkpt lat="43.65263" lon="3.40062">
        <ele>164</ele>
        <time>2021-06-05T13:45:14Z</time>
      </trkpt>
      <trkpt lat="43.65261" lon="3.4006">
        <ele>164</ele>
        <time>2021-06-05T13:45:15Z</time>
      </trkpt>
      <trkpt lat="43.6526" lon="3.40058">
        <ele>164</ele>
        <time>2021-06-05T13:45:16Z</time>
      </trkpt>
      <trkpt lat="43.65259" lon="3.40056">
        <ele>164</ele>
        <time>2021-06-05T13:45:17Z</time>
      </trkpt>
      <trkpt lat="43.65257" lon="3.40054">
        <ele>164</ele>
        <time>2021-06-05T13:45:18Z</time>
      </trkpt>
      <trkpt lat="43.65256" lon="3.40052">
        <ele>164</ele>
        <time>2021-06-05T13:45:19Z</time>
      </trkpt>
      <trkpt lat="43.65255" lon="3.4005">
        <ele>164</ele>
        <time>2021-06-05T13:45:20Z</time>
      </trkpt>
      <trkpt lat="43.65253" lon="3.40048">
        <ele>164</ele>
        <time>2021-06-05T13:45:21Z</time>
      </trkpt>
      <trkpt lat="43.65251" lon="3.40046">
        <ele>164</ele>
        <time>2021-06-05T13:45:22Z</time>
      </trkpt>
      <trkpt lat="43.6525" lon="3.40044">
        <ele>164</ele>
        <time>2021-06-05T13:45:23Z</time>
      </trkpt>
      <trkpt lat="43.65249" lon="3.40042">
        <ele>165</ele>
        <time>2021-06-05T13:45:24Z</time>
      </trkpt>
      <trkpt lat="43.65247" lon="3.4004">
        <ele>165</ele>
        <time>2021-06-05T13:45:25Z</time>
      </trkpt>
      <trkpt lat="43.65246" lon="3.40038">
        <ele>165</ele>
        <time>2021-06-05T13:45:26Z</time>
      </trkpt>
      <trkpt lat="43.65244" lon="3.40036">
        <ele>165</ele>
        <time>2021-06-05T13:45:27Z</time>
      </trkpt>
      <trkpt lat="43.65243" lon="3.40033">
        <ele>165</ele>
        <time>2021-06-05T13:45:28Z</time>
      </trkpt>
      <trkpt lat="43.65242" lon="3.40031">
        <ele>165</ele>
        <time>2021-06-05T13:45:29Z</time>
      </trkpt>
      <trkpt lat="43.6524" lon="3.40029">
        <ele>165</ele>
        <time>2021-06-05T13:45:30Z</time>
      </trkpt>
      <trkpt lat="43.65239" lon="3.40028">
        <ele>165</ele>
        <time>2021-06-05T13:45:31Z</time>
      </trkpt>
      <trkpt lat="43.65238" lon="3.40026">
        <ele>165</ele>
        <time>2021-06-05T13:45:32Z</time>
      </trkpt>
      <trkpt lat="43.65236" lon="3.40024">
        <ele>165</ele>
        <time>2021-06-05T13:45:33Z</time>
      </trkpt>
      <trkpt lat="43.65234" lon="3.40022">
        <ele>166</ele>
        <time>2021-06-05T13:45:34Z</time>
      </trkpt>
      <trkpt lat="43.65232" lon="3.4002">
        <ele>166</ele>
        <time>2021-06-05T13:45:35Z</time>
      </trkpt>
      <trkpt lat="43.65231" lon="3.40019">
        <ele>166</ele>
        <time>2021-06-05T13:45:36Z</time>
      </trkpt>
      <trkpt lat="43.6523" lon="3.40017">
        <ele>166</ele>
        <time>2021-06-05T13:45:37Z</time>
      </trkpt>
      <trkpt lat="43.65228" lon="3.40015">
        <ele>166</ele>
        <time>2021-06-05T13:45:38Z</time>
      </trkpt>
      <trkpt lat="43.65227" lon="3.40013">
        <ele>166</ele>
        <time>2021-06-05T13:45:39Z</time>
      </trkpt>
      <trkpt lat="43.65225" lon="3.40011">
        <ele>166</ele>
        <time>2021-06-05T13:45:40Z</time>
      </trkpt>
      <trkpt lat="43.65224" lon="3.40009">
        <ele>166</ele>
        <time>2021-06-05T13:45:41Z</time>
      </trkpt>
      <trkpt lat="43.65222" lon="3.40008">
        <ele>166</ele>
        <time>2021-06-05T13:45:42Z</time>
      </trkpt>
      <trkpt lat="43.6522" lon="3.40007">
        <ele>166</ele>
        <time>2021-06-05T13:45:43Z</time>
      </trkpt>
      <trkpt lat="43.65218" lon="3.40006">
        <ele>168</ele>
        <time>2021-06-05T13:45:44Z</time>
      </trkpt>
      <trkpt lat="43.65216" lon="3.40005">
        <ele>168</ele>
        <time>2021-06-05T13:45:45Z</time>
      </trkpt>
      <trkpt lat="43.65214" lon="3.40003">
        <ele>168</ele>
        <time>2021-06-05T13:45:46Z</time>
      </trkpt>
      <trkpt lat="43.65212" lon="3.40001">
        <ele>168</ele>
        <time>2021-06-05T13:45:47Z</time>
      </trkpt>
      <trkpt lat="43.65211" lon="3.4">
        <ele>168</ele>
        <time>2021-06-05T13:45:48Z</time>
      </trkpt>
      <trkpt lat="43.65209" lon="3.39999">
        <ele>168</ele>
        <time>2021-06-05T13:45:49Z</time>
      </trkpt>
      <trkpt lat="43.65207" lon="3.39998">
        <ele>168</ele>
        <time>2021-06-05T13:45:50Z</time>
      </trkpt>
      <trkpt lat="43.65205" lon="3.39997">
        <ele>168</ele>
        <time>2021-06-05T13:45:51Z</time>
      </trkpt>
      <trkpt lat="43.65203" lon="3.39996">
        <ele>168</ele>
        <time>2021-06-05T13:45:52Z</time>
      </trkpt>
      <trkpt lat="43.65202" lon="3.39995">
        <ele>168</ele>
        <time>2021-06-05T13:45:53Z</time>
      </trkpt>
      <trkpt lat="43.65199" lon="3.39995">
        <ele>168</ele>
        <time>2021-06-05T13:45:54Z</time>
      </trkpt>
      <trkpt lat="43.65197" lon="3.39994">
        <ele>168</ele>
        <time>2021-06-05T13:45:55Z</time>
      </trkpt>
      <trkpt lat="43.65195" lon="3.39993">
        <ele>168</ele>
        <time>2021-06-05T13:45:56Z</time>
      </trkpt>
      <trkpt lat="43.65194" lon="3.39992">
        <ele>168</ele>
        <time>2021-06-05T13:45:57Z</time>
      </trkpt>
      <trkpt lat="43.65192" lon="3.39992">
        <ele>168</ele>
        <time>2021-06-05T13:45:58Z</time>
      </trkpt>
      <trkpt lat="43.6519" lon="3.39991">
        <ele>168</ele>
        <time>2021-06-05T13:45:59Z</time>
      </trkpt>
      <trkpt lat="43.65187" lon="3.39991">
        <ele>168</ele>
        <time>2021-06-05T13:46:00Z</time>
      </trkpt>
      <trkpt lat="43.65186" lon="3.3999">
        <ele>168</ele>
        <time>2021-06-05T13:46:01Z</time>
      </trkpt>
      <trkpt lat="43.65183" lon="3.3999">
        <ele>168</ele>
        <time>2021-06-05T13:46:02Z</time>
      </trkpt>
      <trkpt lat="43.65181" lon="3.3999">
        <ele>168</ele>
        <time>2021-06-05T13:46:03Z</time>
      </trkpt>
      <trkpt lat="43.65179" lon="3.3999">
        <ele>169</ele>
        <time>2021-06-05T13:46:04Z</time>
      </trkpt>
      <trkpt lat="43.65177" lon="3.39989">
        <ele>169</ele>
        <time>2021-06-05T13:46:05Z</time>
      </trkpt>
      <trkpt lat="43.65175" lon="3.39989">
        <ele>169</ele>
        <time>2021-06-05T13:46:06Z</time>
      </trkpt>
      <trkpt lat="43.65173" lon="3.39988">
        <ele>169</ele>
        <time>2021-06-05T13:46:07Z</time>
      </trkpt>
      <trkpt lat="43.65171" lon="3.39988">
        <ele>169</ele>
        <time>2021-06-05T13:46:08Z</time>
      </trkpt>
      <trkpt lat="43.65168" lon="3.39987">
        <ele>169</ele>
        <time>2021-06-05T13:46:09Z</time>
      </trkpt>
      <trkpt lat="43.65166" lon="3.39987">
        <ele>169</ele>
        <time>2021-06-05T13:46:10Z</time>
      </trkpt>
      <trkpt lat="43.65164" lon="3.39986">
        <ele>169</ele>
        <time>2021-06-05T13:46:11Z</time>
      </trkpt>
      <trkpt lat="43.65162" lon="3.39985">
        <ele>169</ele>
        <time>2021-06-05T13:46:12Z</time>
      </trkpt>
      <trkpt lat="43.6516" lon="3.39985">
        <ele>169</ele>
        <time>2021-06-05T13:46:13Z</time>
      </trkpt>
      <trkpt lat="43.65158" lon="3.39984">
        <ele>170</ele>
        <time>2021-06-05T13:46:14Z</time>
      </trkpt>
      <trkpt lat="43.65156" lon="3.39983">
        <ele>170</ele>
        <time>2021-06-05T13:46:15Z</time>
      </trkpt>
      <trkpt lat="43.65154" lon="3.39982">
        <ele>170</ele>
        <time>2021-06-05T13:46:16Z</time>
      </trkpt>
      <trkpt lat="43.65152" lon="3.39981">
        <ele>170</ele>
        <time>2021-06-05T13:46:17Z</time>
      </trkpt>
      <trkpt lat="43.65149" lon="3.3998">
        <ele>170</ele>
        <time>2021-06-05T13:46:18Z</time>
      </trkpt>
      <trkpt lat="43.65148" lon="3.39979">
        <ele>170</ele>
        <time>2021-06-05T13:46:19Z</time>
      </trkpt>
      <trkpt lat="43.65146" lon="3.39978">
        <ele>170</ele>
        <time>2021-06-05T13:46:20Z</time>
      </trkpt>
      <trkpt lat="43.65144" lon="3.39976">
        <ele>170</ele>
        <time>2021-06-05T13:46:21Z</time>
      </trkpt>
      <trkpt lat="43.65142" lon="3.39974">
        <ele>170</ele>
        <time>2021-06-05T13:46:22Z</time>
      </trkpt>
      <trkpt lat="43.65141" lon="3.39973">
        <ele>170</ele>
        <time>2021-06-05T13:46:23Z</time>
      </trkpt>
      <trkpt lat="43.65139" lon="3.39971">
        <ele>171</ele>
        <time>2021-06-05T13:46:24Z</time>
      </trkpt>
      <trkpt lat="43.65137" lon="3.39969">
        <ele>171</ele>
        <time>2021-06-05T13:46:25Z</time>
      </trkpt>
      <trkpt lat="43.65135" lon="3.39966">
        <ele>171</ele>
        <time>2021-06-05T13:46:26Z</time>
      </trkpt>
      <trkpt lat="43.65134" lon="3.39964">
        <ele>171</ele>
        <time>2021-06-05T13:46:27Z</time>
      </trkpt>
      <trkpt lat="43.65133" lon="3.39961">
        <ele>171</ele>
        <time>2021-06-05T13:46:28Z</time>
      </trkpt>
      <trkpt lat="43.65131" lon="3.39959">
        <ele>171</ele>
        <time>2021-06-05T13:46:29Z</time>
      </trkpt>
      <trkpt lat="43.6513" lon="3.39956">
        <ele>171</ele>
        <time>2021-06-05T13:46:30Z</time>
      </trkpt>
      <trkpt lat="43.65129" lon="3.39953">
        <ele>171</ele>
        <time>2021-06-05T13:46:31Z</time>
      </trkpt>
      <trkpt lat="43.65128" lon="3.3995">
        <ele>171</ele>
        <time>2021-06-05T13:46:32Z</time>
      </trkpt>
      <trkpt lat="43.65127" lon="3.39946">
        <ele>171</ele>
        <time>2021-06-05T13:46:33Z</time>
      </trkpt>
      <trkpt lat="43.65127" lon="3.39943">
        <ele>171</ele>
        <time>2021-06-05T13:46:34Z</time>
      </trkpt>
      <trkpt lat="43.65126" lon="3.39939">
        <ele>171</ele>
        <time>2021-06-05T13:46:35Z</time>
      </trkpt>
      <trkpt lat="43.65126" lon="3.39936">
        <ele>171</ele>
        <time>2021-06-05T13:46:36Z</time>
      </trkpt>
      <trkpt lat="43.65126" lon="3.39933">
        <ele>171</ele>
        <time>2021-06-05T13:46:37Z</time>
      </trkpt>
      <trkpt lat="43.65126" lon="3.39929">
        <ele>171</ele>
        <time>2021-06-05T13:46:38Z</time>
      </trkpt>
      <trkpt lat="43.65126" lon="3.39926">
        <ele>171</ele>
        <time>2021-06-05T13:46:39Z</time>
      </trkpt>
      <trkpt lat="43.65126" lon="3.39922">
        <ele>171</ele>
        <time>2021-06-05T13:46:40Z</time>
      </trkpt>
      <trkpt lat="43.65127" lon="3.39919">
        <ele>171</ele>
        <time>2021-06-05T13:46:41Z</time>
      </trkpt>
      <trkpt lat="43.65127" lon="3.39915">
        <ele>171</ele>
        <time>2021-06-05T13:46:42Z</time>
      </trkpt>
      <trkpt lat="43.65128" lon="3.39912">
        <ele>171</ele>
        <time>2021-06-05T13:46:43Z</time>
      </trkpt>
      <trkpt lat="43.65128" lon="3.39908">
        <ele>172</ele>
        <time>2021-06-05T13:46:44Z</time>
      </trkpt>
      <trkpt lat="43.65129" lon="3.39904">
        <ele>172</ele>
        <time>2021-06-05T13:46:45Z</time>
      </trkpt>
      <trkpt lat="43.65131" lon="3.39901">
        <ele>172</ele>
        <time>2021-06-05T13:46:46Z</time>
      </trkpt>
      <trkpt lat="43.65132" lon="3.39898">
        <ele>172</ele>
        <time>2021-06-05T13:46:47Z</time>
      </trkpt>
      <trkpt lat="43.65134" lon="3.39894">
        <ele>172</ele>
        <time>2021-06-05T13:46:48Z</time>
      </trkpt>
      <trkpt lat="43.65135" lon="3.39891">
        <ele>172</ele>
        <time>2021-06-05T13:46:49Z</time>
      </trkpt>
      <trkpt lat="43.65136" lon="3.39888">
        <ele>172</ele>
        <time>2021-06-05T13:46:50Z</time>
      </trkpt>
      <trkpt lat="43.65138" lon="3.39884">
        <ele>172</ele>
        <time>2021-06-05T13:46:51Z</time>
      </trkpt>
      <trkpt lat="43.65139" lon="3.39881">
        <ele>172</ele>
        <time>2021-06-05T13:46:52Z</time>
      </trkpt>
      <trkpt lat="43.6514" lon="3.39878">
        <ele>172</ele>
        <time>2021-06-05T13:46:53Z</time>
      </trkpt>
      <trkpt lat="43.65141" lon="3.39874">
        <ele>173</ele>
        <time>2021-06-05T13:46:54Z</time>
      </trkpt>
      <trkpt lat="43.65143" lon="3.39871">
        <ele>173</ele>
        <time>2021-06-05T13:46:55Z</time>
      </trkpt>
      <trkpt lat="43.65144" lon="3.39868">
        <ele>173</ele>
        <time>2021-06-05T13:46:56Z</time>
      </trkpt>
      <trkpt lat="43.65145" lon="3.39865">
        <ele>173</ele>
        <time>2021-06-05T13:46:57Z</time>
      </trkpt>
      <trkpt lat="43.65147" lon="3.39861">
        <ele>173</ele>
        <time>2021-06-05T13:46:58Z</time>
      </trkpt>
      <trkpt lat="43.65148" lon="3.39857">
        <ele>173</ele>
        <time>2021-06-05T13:46:59Z</time>
      </trkpt>
      <trkpt lat="43.65149" lon="3.39854">
        <ele>173</ele>
        <time>2021-06-05T13:47:00Z</time>
      </trkpt>
      <trkpt lat="43.6515" lon="3.3985">
        <ele>173</ele>
        <time>2021-06-05T13:47:01Z</time>
      </trkpt>
      <trkpt lat="43.65151" lon="3.39846">
        <ele>173</ele>
        <time>2021-06-05T13:47:02Z</time>
      </trkpt>
      <trkpt lat="43.65152" lon="3.39842">
        <ele>173</ele>
        <time>2021-06-05T13:47:03Z</time>
      </trkpt>
      <trkpt lat="43.65153" lon="3.39838">
        <ele>174</ele>
        <time>2021-06-05T13:47:04Z</time>
      </trkpt>
      <trkpt lat="43.65154" lon="3.39834">
        <ele>174</ele>
        <time>2021-06-05T13:47:05Z</time>
      </trkpt>
      <trkpt lat="43.65155" lon="3.3983">
        <ele>174</ele>
        <time>2021-06-05T13:47:06Z</time>
      </trkpt>
      <trkpt lat="43.65155" lon="3.39825">
        <ele>174</ele>
        <time>2021-06-05T13:47:07Z</time>
      </trkpt>
      <trkpt lat="43.65156" lon="3.39821">
        <ele>174</ele>
        <time>2021-06-05T13:47:08Z</time>
      </trkpt>
      <trkpt lat="43.65156" lon="3.39816">
        <ele>174</ele>
        <time>2021-06-05T13:47:09Z</time>
      </trkpt>
      <trkpt lat="43.65156" lon="3.39811">
        <ele>174</ele>
        <time>2021-06-05T13:47:10Z</time>
      </trkpt>
      <trkpt lat="43.65156" lon="3.39806">
        <ele>174</ele>
        <time>2021-06-05T13:47:11Z</time>
      </trkpt>
      <trkpt lat="43.65156" lon="3.39802">
        <ele>174</ele>
        <time>2021-06-05T13:47:12Z</time>
      </trkpt>
      <trkpt lat="43.65156" lon="3.39797">
        <ele>174</ele>
        <time>2021-06-05T13:47:13Z</time>
      </trkpt>
      <trkpt lat="43.65157" lon="3.39793">
        <ele>174</ele>
        <time>2021-06-05T13:47:14Z</time>
      </trkpt>
      <trkpt lat="43.65157" lon="3.39788">
        <ele>174</ele>
        <time>2021-06-05T13:47:15Z</time>
      </trkpt>
      <trkpt lat="43.65156" lon="3.39784">
        <ele>174</ele>
        <time>2021-06-05T13:47:16Z</time>
      </trkpt>
      <trkpt lat="43.65156" lon="3.3978">
        <ele>174</ele>
        <time>2021-06-05T13:47:17Z</time>
      </trkpt>
      <trkpt lat="43.65156" lon="3.39775">
        <ele>174</ele>
        <time>2021-06-05T13:47:18Z</time>
      </trkpt>
      <trkpt lat="43.65156" lon="3.39771">
        <ele>174</ele>
        <time>2021-06-05T13:47:19Z</time>
      </trkpt>
      <trkpt lat="43.65155" lon="3.39766">
        <ele>174</ele>
        <time>2021-06-05T13:47:20Z</time>
      </trkpt>
      <trkpt lat="43.65155" lon="3.39762">
        <ele>174</ele>
        <time>2021-06-05T13:47:21Z</time>
      </trkpt>
      <trkpt lat="43.65155" lon="3.39757">
        <ele>174</ele>
        <time>2021-06-05T13:47:22Z</time>
      </trkpt>
      <trkpt lat="43.65154" lon="3.39752">
        <ele>174</ele>
        <time>2021-06-05T13:47:23Z</time>
      </trkpt>
      <trkpt lat="43.65154" lon="3.39748">
        <ele>175</ele>
        <time>2021-06-05T13:47:23Z</time>
      </trkpt>
      <trkpt lat="43.65154" lon="3.39743">
        <ele>175</ele>
        <time>2021-06-05T13:47:24Z</time>
      </trkpt>
      <trkpt lat="43.65153" lon="3.39739">
        <ele>175</ele>
        <time>2021-06-05T13:47:25Z</time>
      </trkpt>
      <trkpt lat="43.65153" lon="3.39734">
        <ele>175</ele>
        <time>2021-06-05T13:47:27Z</time>
      </trkpt>
      <trkpt lat="43.65152" lon="3.39729">
        <ele>175</ele>
        <time>2021-06-05T13:47:27Z</time>
      </trkpt>
      <trkpt lat="43.65152" lon="3.39725">
        <ele>175</ele>
        <time>2021-06-05T13:47:29Z</time>
      </trkpt>
      <trkpt lat="43.65151" lon="3.3972">
        <ele>175</ele>
        <time>2021-06-05T13:47:29Z</time>
      </trkpt>
      <trkpt lat="43.65151" lon="3.39715">
        <ele>175</ele>
        <time>2021-06-05T13:47:30Z</time>
      </trkpt>
      <trkpt lat="43.6515" lon="3.3971">
        <ele>175</ele>
        <time>2021-06-05T13:47:31Z</time>
      </trkpt>
      <trkpt lat="43.6515" lon="3.39705">
        <ele>175</ele>
        <time>2021-06-05T13:47:32Z</time>
      </trkpt>
      <trkpt lat="43.65149" lon="3.397">
        <ele>176</ele>
        <time>2021-06-05T13:47:34Z</time>
      </trkpt>
      <trkpt lat="43.65149" lon="3.39695">
        <ele>176</ele>
        <time>2021-06-05T13:47:35Z</time>
      </trkpt>
      <trkpt lat="43.65149" lon="3.39689">
        <ele>176</ele>
        <time>2021-06-05T13:47:36Z</time>
      </trkpt>
      <trkpt lat="43.65149" lon="3.39684">
        <ele>176</ele>
        <time>2021-06-05T13:47:37Z</time>
      </trkpt>
      <trkpt lat="43.65148" lon="3.39679">
        <ele>176</ele>
        <time>2021-06-05T13:47:38Z</time>
      </trkpt>
      <trkpt lat="43.65148" lon="3.39673">
        <ele>176</ele>
        <time>2021-06-05T13:47:39Z</time>
      </trkpt>
      <trkpt lat="43.65147" lon="3.39668">
        <ele>176</ele>
        <time>2021-06-05T13:47:40Z</time>
      </trkpt>
      <trkpt lat="43.65147" lon="3.39662">
        <ele>176</ele>
        <time>2021-06-05T13:47:41Z</time>
      </trkpt>
      <trkpt lat="43.65146" lon="3.39657">
        <ele>176</ele>
        <time>2021-06-05T13:47:42Z</time>
      </trkpt>
      <trkpt lat="43.65145" lon="3.39652">
        <ele>176</ele>
        <time>2021-06-05T13:47:43Z</time>
      </trkpt>
      <trkpt lat="43.65145" lon="3.39646">
        <ele>177</ele>
        <time>2021-06-05T13:47:44Z</time>
      </trkpt>
      <trkpt lat="43.65144" lon="3.39641">
        <ele>177</ele>
        <time>2021-06-05T13:47:45Z</time>
      </trkpt>
      <trkpt lat="43.65144" lon="3.39635">
        <ele>177</ele>
        <time>2021-06-05T13:47:46Z</time>
      </trkpt>
      <trkpt lat="43.65144" lon="3.3963">
        <ele>177</ele>
        <time>2021-06-05T13:47:47Z</time>
      </trkpt>
      <trkpt lat="43.65143" lon="3.39624">
        <ele>177</ele>
        <time>2021-06-05T13:47:48Z</time>
      </trkpt>
      <trkpt lat="43.65143" lon="3.39619">
        <ele>177</ele>
        <time>2021-06-05T13:47:49Z</time>
      </trkpt>
      <trkpt lat="43.65143" lon="3.39613">
        <ele>177</ele>
        <time>2021-06-05T13:47:50Z</time>
      </trkpt>
      <trkpt lat="43.65142" lon="3.39607">
        <ele>177</ele>
        <time>2021-06-05T13:47:51Z</time>
      </trkpt>
      <trkpt lat="43.65142" lon="3.39602">
        <ele>177</ele>
        <time>2021-06-05T13:47:52Z</time>
      </trkpt>
      <trkpt lat="43.65142" lon="3.39596">
        <ele>177</ele>
        <time>2021-06-05T13:47:53Z</time>
      </trkpt>
      <trkpt lat="43.65142" lon="3.39591">
        <ele>178</ele>
        <time>2021-06-05T13:47:54Z</time>
      </trkpt>
      <trkpt lat="43.65142" lon="3.39586">
        <ele>178</ele>
        <time>2021-06-05T13:47:55Z</time>
      </trkpt>
      <trkpt lat="43.65142" lon="3.3958">
        <ele>178</ele>
        <time>2021-06-05T13:47:56Z</time>
      </trkpt>
      <trkpt lat="43.65143" lon="3.39575">
        <ele>178</ele>
        <time>2021-06-05T13:47:57Z</time>
      </trkpt>
      <trkpt lat="43.65143" lon="3.39569">
        <ele>178</ele>
        <time>2021-06-05T13:47:58Z</time>
      </trkpt>
      <trkpt lat="43.65144" lon="3.39564">
        <ele>178</ele>
        <time>2021-06-05T13:47:59Z</time>
      </trkpt>
      <trkpt lat="43.65145" lon="3.39558">
        <ele>178</ele>
        <time>2021-06-05T13:48:00Z</time>
      </trkpt>
      <trkpt lat="43.65146" lon="3.39553">
        <ele>178</ele>
        <time>2021-06-05T13:48:01Z</time>
      </trkpt>
      <trkpt lat="43.65147" lon="3.39548">
        <ele>178</ele>
        <time>2021-06-05T13:48:02Z</time>
      </trkpt>
      <trkpt lat="43.65148" lon="3.39542">
        <ele>178</ele>
        <time>2021-06-05T13:48:03Z</time>
      </trkpt>
      <trkpt lat="43.65149" lon="3.39537">
        <ele>178</ele>
        <time>2021-06-05T13:48:04Z</time>
      </trkpt>
      <trkpt lat="43.6515" lon="3.39532">
        <ele>178</ele>
        <time>2021-06-05T13:48:05Z</time>
      </trkpt>
      <trkpt lat="43.65151" lon="3.39526">
        <ele>178</ele>
        <time>2021-06-05T13:48:06Z</time>
      </trkpt>
      <trkpt lat="43.65152" lon="3.39521">
        <ele>178</ele>
        <time>2021-06-05T13:48:07Z</time>
      </trkpt>
      <trkpt lat="43.65154" lon="3.39516">
        <ele>178</ele>
        <time>2021-06-05T13:48:08Z</time>
      </trkpt>
      <trkpt lat="43.65155" lon="3.3951">
        <ele>178</ele>
        <time>2021-06-05T13:48:09Z</time>
      </trkpt>
      <trkpt lat="43.65156" lon="3.39505">
        <ele>178</ele>
        <time>2021-06-05T13:48:10Z</time>
      </trkpt>
      <trkpt lat="43.65157" lon="3.395">
        <ele>178</ele>
        <time>2021-06-05T13:48:11Z</time>
      </trkpt>
      <trkpt lat="43.65158" lon="3.39495">
        <ele>178</ele>
        <time>2021-06-05T13:48:12Z</time>
      </trkpt>
      <trkpt lat="43.65158" lon="3.3949">
        <ele>178</ele>
        <time>2021-06-05T13:48:13Z</time>
      </trkpt>
      <trkpt lat="43.65159" lon="3.39484">
        <ele>179</ele>
        <time>2021-06-05T13:48:14Z</time>
      </trkpt>
      <trkpt lat="43.6516" lon="3.39479">
        <ele>179</ele>
        <time>2021-06-05T13:48:15Z</time>
      </trkpt>
      <trkpt lat="43.65161" lon="3.39474">
        <ele>179</ele>
        <time>2021-06-05T13:48:16Z</time>
      </trkpt>
      <trkpt lat="43.65161" lon="3.39468">
        <ele>179</ele>
        <time>2021-06-05T13:48:17Z</time>
      </trkpt>
      <trkpt lat="43.65162" lon="3.39463">
        <ele>179</ele>
        <time>2021-06-05T13:48:18Z</time>
      </trkpt>
      <trkpt lat="43.65162" lon="3.39457">
        <ele>179</ele>
        <time>2021-06-05T13:48:19Z</time>
      </trkpt>
      <trkpt lat="43.65162" lon="3.39452">
        <ele>179</ele>
        <time>2021-06-05T13:48:20Z</time>
      </trkpt>
      <trkpt lat="43.65162" lon="3.39446">
        <ele>179</ele>
        <time>2021-06-05T13:48:21Z</time>
      </trkpt>
      <trkpt lat="43.65162" lon="3.39441">
        <ele>179</ele>
        <time>2021-06-05T13:48:22Z</time>
      </trkpt>
      <trkpt lat="43.65161" lon="3.39436">
        <ele>179</ele>
        <time>2021-06-05T13:48:23Z</time>
      </trkpt>
      <trkpt lat="43.65161" lon="3.3943">
        <ele>179</ele>
        <time>2021-06-05T13:48:24Z</time>
      </trkpt>
      <trkpt lat="43.65161" lon="3.39425">
        <ele>179</ele>
        <time>2021-06-05T13:48:25Z</time>
      </trkpt>
      <trkpt lat="43.6516" lon="3.3942">
        <ele>179</ele>
        <time>2021-06-05T13:48:26Z</time>
      </trkpt>
      <trkpt lat="43.65159" lon="3.39415">
        <ele>179</ele>
        <time>2021-06-05T13:48:27Z</time>
      </trkpt>
      <trkpt lat="43.65159" lon="3.39409">
        <ele>179</ele>
        <time>2021-06-05T13:48:28Z</time>
      </trkpt>
      <trkpt lat="43.65158" lon="3.39404">
        <ele>179</ele>
        <time>2021-06-05T13:48:29Z</time>
      </trkpt>
      <trkpt lat="43.65158" lon="3.39399">
        <ele>179</ele>
        <time>2021-06-05T13:48:30Z</time>
      </trkpt>
      <trkpt lat="43.65158" lon="3.39394">
        <ele>179</ele>
        <time>2021-06-05T13:48:31Z</time>
      </trkpt>
      <trkpt lat="43.65157" lon="3.39389">
        <ele>179</ele>
        <time>2021-06-05T13:48:32Z</time>
      </trkpt>
      <trkpt lat="43.65157" lon="3.39383">
        <ele>179</ele>
        <time>2021-06-05T13:48:33Z</time>
      </trkpt>
      <trkpt lat="43.65156" lon="3.39378">
        <ele>180</ele>
        <time>2021-06-05T13:48:34Z</time>
      </trkpt>
      <trkpt lat="43.65156" lon="3.39372">
        <ele>180</ele>
        <time>2021-06-05T13:48:35Z</time>
      </trkpt>
      <trkpt lat="43.65155" lon="3.39367">
        <ele>180</ele>
        <time>2021-06-05T13:48:36Z</time>
      </trkpt>
      <trkpt lat="43.65155" lon="3.39362">
        <ele>180</ele>
        <time>2021-06-05T13:48:37Z</time>
      </trkpt>
      <trkpt lat="43.65154" lon="3.39356">
        <ele>180</ele>
        <time>2021-06-05T13:48:38Z</time>
      </trkpt>
      <trkpt lat="43.65154" lon="3.39351">
        <ele>180</ele>
        <time>2021-06-05T13:48:39Z</time>
      </trkpt>
      <trkpt lat="43.65153" lon="3.39346">
        <ele>180</ele>
        <time>2021-06-05T13:48:40Z</time>
      </trkpt>
      <trkpt lat="43.65152" lon="3.39341">
        <ele>180</ele>
        <time>2021-06-05T13:48:41Z</time>
      </trkpt>
      <trkpt lat="43.65152" lon="3.39335">
        <ele>180</ele>
        <time>2021-06-05T13:48:42Z</time>
      </trkpt>
      <trkpt lat="43.65151" lon="3.3933">
        <ele>180</ele>
        <time>2021-06-05T13:48:43Z</time>
      </trkpt>
      <trkpt lat="43.65151" lon="3.39325">
        <ele>180</ele>
        <time>2021-06-05T13:48:44Z</time>
      </trkpt>
      <trkpt lat="43.6515" lon="3.39319">
        <ele>180</ele>
        <time>2021-06-05T13:48:45Z</time>
      </trkpt>
      <trkpt lat="43.65149" lon="3.39314">
        <ele>180</ele>
        <time>2021-06-05T13:48:46Z</time>
      </trkpt>
      <trkpt lat="43.65149" lon="3.39309">
        <ele>180</ele>
        <time>2021-06-05T13:48:47Z</time>
      </trkpt>
      <trkpt lat="43.65148" lon="3.39303">
        <ele>180</ele>
        <time>2021-06-05T13:48:48Z</time>
      </trkpt>
      <trkpt lat="43.65147" lon="3.39298">
        <ele>180</ele>
        <time>2021-06-05T13:48:49Z</time>
      </trkpt>
      <trkpt lat="43.65146" lon="3.39293">
        <ele>180</ele>
        <time>2021-06-05T13:48:50Z</time>
      </trkpt>
      <trkpt lat="43.65145" lon="3.39288">
        <ele>180</ele>
        <time>2021-06-05T13:48:51Z</time>
      </trkpt>
      <trkpt lat="43.65144" lon="3.39283">
        <ele>180</ele>
        <time>2021-06-05T13:48:52Z</time>
      </trkpt>
      <trkpt lat="43.65143" lon="3.39279">
        <ele>180</ele>
        <time>2021-06-05T13:48:53Z</time>
      </trkpt>
      <trkpt lat="43.65143" lon="3.39274">
        <ele>181</ele>
        <time>2021-06-05T13:48:54Z</time>
      </trkpt>
      <trkpt lat="43.65142" lon="3.39271">
        <ele>181</ele>
        <time>2021-06-05T13:48:55Z</time>
      </trkpt>
      <trkpt lat="43.65142" lon="3.39267">
        <ele>181</ele>
        <time>2021-06-05T13:48:56Z</time>
      </trkpt>
      <trkpt lat="43.65141" lon="3.39264">
        <ele>181</ele>
        <time>2021-06-05T13:48:57Z</time>
      </trkpt>
      <trkpt lat="43.65141" lon="3.39261">
        <ele>181</ele>
        <time>2021-06-05T13:48:58Z</time>
      </trkpt>
      <trkpt lat="43.6514" lon="3.39256">
        <ele>181</ele>
        <time>2021-06-05T13:48:59Z</time>
      </trkpt>
      <trkpt lat="43.65139" lon="3.39253">
        <ele>181</ele>
        <time>2021-06-05T13:49:00Z</time>
      </trkpt>
      <trkpt lat="43.65138" lon="3.39248">
        <ele>181</ele>
        <time>2021-06-05T13:49:01Z</time>
      </trkpt>
      <trkpt lat="43.65136" lon="3.39245">
        <ele>181</ele>
        <time>2021-06-05T13:49:02Z</time>
      </trkpt>
      <trkpt lat="43.65135" lon="3.3924">
        <ele>181</ele>
        <time>2021-06-05T13:49:03Z</time>
      </trkpt>
      <trkpt lat="43.65134" lon="3.39236">
        <ele>181</ele>
        <time>2021-06-05T13:49:04Z</time>
      </trkpt>
      <trkpt lat="43.65133" lon="3.39232">
        <ele>181</ele>
        <time>2021-06-05T13:49:05Z</time>
      </trkpt>
      <trkpt lat="43.65132" lon="3.39228">
        <ele>181</ele>
        <time>2021-06-05T13:49:06Z</time>
      </trkpt>
      <trkpt lat="43.65131" lon="3.39224">
        <ele>181</ele>
        <time>2021-06-05T13:49:07Z</time>
      </trkpt>
      <trkpt lat="43.65129" lon="3.3922">
        <ele>181</ele>
        <time>2021-06-05T13:49:08Z</time>
      </trkpt>
      <trkpt lat="43.65128" lon="3.39216">
        <ele>181</ele>
        <time>2021-06-05T13:49:09Z</time>
      </trkpt>
      <trkpt lat="43.65127" lon="3.39212">
        <ele>181</ele>
        <time>2021-06-05T13:49:10Z</time>
      </trkpt>
      <trkpt lat="43.65125" lon="3.39208">
        <ele>181</ele>
        <time>2021-06-05T13:49:11Z</time>
      </trkpt>
      <trkpt lat="43.65124" lon="3.39204">
        <ele>181</ele>
        <time>2021-06-05T13:49:12Z</time>
      </trkpt>
      <trkpt lat="43.65122" lon="3.392">
        <ele>181</ele>
        <time>2021-06-05T13:49:13Z</time>
      </trkpt>
      <trkpt lat="43.65121" lon="3.39196">
        <ele>181</ele>
        <time>2021-06-05T13:49:14Z</time>
      </trkpt>
      <trkpt lat="43.65119" lon="3.39191">
        <ele>181</ele>
        <time>2021-06-05T13:49:15Z</time>
      </trkpt>
      <trkpt lat="43.65118" lon="3.39187">
        <ele>181</ele>
        <time>2021-06-05T13:49:16Z</time>
      </trkpt>
      <trkpt lat="43.65116" lon="3.39183">
        <ele>181</ele>
        <time>2021-06-05T13:49:17Z</time>
      </trkpt>
      <trkpt lat="43.65115" lon="3.39179">
        <ele>181</ele>
        <time>2021-06-05T13:49:18Z</time>
      </trkpt>
      <trkpt lat="43.65113" lon="3.39175">
        <ele>181</ele>
        <time>2021-06-05T13:49:19Z</time>
      </trkpt>
      <trkpt lat="43.65111" lon="3.39171">
        <ele>181</ele>
        <time>2021-06-05T13:49:20Z</time>
      </trkpt>
      <trkpt lat="43.6511" lon="3.39168">
        <ele>181</ele>
        <time>2021-06-05T13:49:21Z</time>
      </trkpt>
      <trkpt lat="43.65107" lon="3.39164">
        <ele>181</ele>
        <time>2021-06-05T13:49:22Z</time>
      </trkpt>
      <trkpt lat="43.65106" lon="3.3916">
        <ele>181</ele>
        <time>2021-06-05T13:49:23Z</time>
      </trkpt>
      <trkpt lat="43.65104" lon="3.39157">
        <ele>182</ele>
        <time>2021-06-05T13:49:24Z</time>
      </trkpt>
      <trkpt lat="43.65102" lon="3.39153">
        <ele>182</ele>
        <time>2021-06-05T13:49:25Z</time>
      </trkpt>
      <trkpt lat="43.651" lon="3.39149">
        <ele>182</ele>
        <time>2021-06-05T13:49:26Z</time>
      </trkpt>
      <trkpt lat="43.65098" lon="3.39145">
        <ele>182</ele>
        <time>2021-06-05T13:49:27Z</time>
      </trkpt>
      <trkpt lat="43.65096" lon="3.39142">
        <ele>182</ele>
        <time>2021-06-05T13:49:28Z</time>
      </trkpt>
      <trkpt lat="43.65094" lon="3.39138">
        <ele>182</ele>
        <time>2021-06-05T13:49:29Z</time>
      </trkpt>
      <trkpt lat="43.65092" lon="3.39134">
        <ele>182</ele>
        <time>2021-06-05T13:49:30Z</time>
      </trkpt>
      <trkpt lat="43.6509" lon="3.3913">
        <ele>182</ele>
        <time>2021-06-05T13:49:31Z</time>
      </trkpt>
      <trkpt lat="43.65088" lon="3.39126">
        <ele>182</ele>
        <time>2021-06-05T13:49:32Z</time>
      </trkpt>
      <trkpt lat="43.65086" lon="3.39122">
        <ele>182</ele>
        <time>2021-06-05T13:49:33Z</time>
      </trkpt>
      <trkpt lat="43.65083" lon="3.39118">
        <ele>183</ele>
        <time>2021-06-05T13:49:34Z</time>
      </trkpt>
      <trkpt lat="43.6508" lon="3.39115">
        <ele>183</ele>
        <time>2021-06-05T13:49:35Z</time>
      </trkpt>
      <trkpt lat="43.65076" lon="3.39112">
        <ele>183</ele>
        <time>2021-06-05T13:49:36Z</time>
      </trkpt>
      <trkpt lat="43.65073" lon="3.39109">
        <ele>183</ele>
        <time>2021-06-05T13:49:37Z</time>
      </trkpt>
      <trkpt lat="43.6507" lon="3.39105">
        <ele>183</ele>
        <time>2021-06-05T13:49:38Z</time>
      </trkpt>
      <trkpt lat="43.65066" lon="3.39101">
        <ele>183</ele>
        <time>2021-06-05T13:49:39Z</time>
      </trkpt>
      <trkpt lat="43.65062" lon="3.39097">
        <ele>183</ele>
        <time>2021-06-05T13:49:40Z</time>
      </trkpt>
      <trkpt lat="43.65059" lon="3.39094">
        <ele>183</ele>
        <time>2021-06-05T13:49:41Z</time>
      </trkpt>
      <trkpt lat="43.65055" lon="3.3909">
        <ele>183</ele>
        <time>2021-06-05T13:49:42Z</time>
      </trkpt>
      <trkpt lat="43.6505" lon="3.39086">
        <ele>183</ele>
        <time>2021-06-05T13:49:43Z</time>
      </trkpt>
      <trkpt lat="43.65046" lon="3.39084">
        <ele>182</ele>
        <time>2021-06-05T13:49:44Z</time>
      </trkpt>
      <trkpt lat="43.65041" lon="3.3908">
        <ele>182</ele>
        <time>2021-06-05T13:49:45Z</time>
      </trkpt>
      <trkpt lat="43.65036" lon="3.39077">
        <ele>182</ele>
        <time>2021-06-05T13:49:46Z</time>
      </trkpt>
      <trkpt lat="43.65031" lon="3.39074">
        <ele>182</ele>
        <time>2021-06-05T13:49:47Z</time>
      </trkpt>
      <trkpt lat="43.65024" lon="3.39071">
        <ele>182</ele>
        <time>2021-06-05T13:49:48Z</time>
      </trkpt>
      <trkpt lat="43.65018" lon="3.39068">
        <ele>182</ele>
        <time>2021-06-05T13:49:49Z</time>
      </trkpt>
      <trkpt lat="43.65011" lon="3.39066">
        <ele>182</ele>
        <time>2021-06-05T13:49:50Z</time>
      </trkpt>
      <trkpt lat="43.65004" lon="3.39064">
        <ele>182</ele>
        <time>2021-06-05T13:49:51Z</time>
      </trkpt>
      <trkpt lat="43.64996" lon="3.39063">
        <ele>182</ele>
        <time>2021-06-05T13:49:52Z</time>
      </trkpt>
      <trkpt lat="43.64989" lon="3.39062">
        <ele>182</ele>
        <time>2021-06-05T13:49:53Z</time>
      </trkpt>
      <trkpt lat="43.64982" lon="3.39061">
        <ele>178</ele>
        <time>2021-06-05T13:49:54Z</time>
      </trkpt>
      <trkpt lat="43.64975" lon="3.39061">
        <ele>178</ele>
        <time>2021-06-05T13:49:55Z</time>
      </trkpt>
      <trkpt lat="43.64969" lon="3.39061">
        <ele>178</ele>
        <time>2021-06-05T13:49:56Z</time>
      </trkpt>
      <trkpt lat="43.64961" lon="3.39063">
        <ele>178</ele>
        <time>2021-06-05T13:49:57Z</time>
      </trkpt>
      <trkpt lat="43.64954" lon="3.39065">
        <ele>178</ele>
        <time>2021-06-05T13:49:58Z</time>
      </trkpt>
      <trkpt lat="43.64946" lon="3.39067">
        <ele>178</ele>
        <time>2021-06-05T13:49:59Z</time>
      </trkpt>
      <trkpt lat="43.6494" lon="3.39067">
        <ele>178</ele>
        <time>2021-06-05T13:50:00Z</time>
      </trkpt>
      <trkpt lat="43.64935" lon="3.39065">
        <ele>178</ele>
        <time>2021-06-05T13:50:01Z</time>
      </trkpt>
      <trkpt lat="43.64931" lon="3.39063">
        <ele>178</ele>
        <time>2021-06-05T13:50:02Z</time>
      </trkpt>
      <trkpt lat="43.64926" lon="3.39061">
        <ele>178</ele>
        <time>2021-06-05T13:50:03Z</time>
      </trkpt>
      <trkpt lat="43.64921" lon="3.39058">
        <ele>173</ele>
        <time>2021-06-05T13:50:04Z</time>
      </trkpt>
      <trkpt lat="43.64915" lon="3.39054">
        <ele>173</ele>
        <time>2021-06-05T13:50:05Z</time>
      </trkpt>
      <trkpt lat="43.64911" lon="3.39048">
        <ele>173</ele>
        <time>2021-06-05T13:50:06Z</time>
      </trkpt>
      <trkpt lat="43.64908" lon="3.39043">
        <ele>173</ele>
        <time>2021-06-05T13:50:07Z</time>
      </trkpt>
      <trkpt lat="43.64907" lon="3.39038">
        <ele>173</ele>
        <time>2021-06-05T13:50:08Z</time>
      </trkpt>
      <trkpt lat="43.64908" lon="3.39035">
        <ele>173</ele>
        <time>2021-06-05T13:50:09Z</time>
      </trkpt>
      <trkpt lat="43.64907" lon="3.39031">
        <ele>173</ele>
        <time>2021-06-05T13:50:10Z</time>
      </trkpt>
      <trkpt lat="43.64907" lon="3.39026">
        <ele>173</ele>
        <time>2021-06-05T13:50:11Z</time>
      </trkpt>
      <trkpt lat="43.64908" lon="3.39021">
        <ele>173</ele>
        <time>2021-06-05T13:50:12Z</time>
      </trkpt>
      <trkpt lat="43.64909" lon="3.39015">
        <ele>173</ele>
        <time>2021-06-05T13:50:13Z</time>
      </trkpt>
      <trkpt lat="43.64908" lon="3.39009">
        <ele>171</ele>
        <time>2021-06-05T13:50:14Z</time>
      </trkpt>
      <trkpt lat="43.64907" lon="3.39002">
        <ele>171</ele>
        <time>2021-06-05T13:50:15Z</time>
      </trkpt>
      <trkpt lat="43.64907" lon="3.38995">
        <ele>171</ele>
        <time>2021-06-05T13:50:16Z</time>
      </trkpt>
      <trkpt lat="43.64908" lon="3.38988">
        <ele>171</ele>
        <time>2021-06-05T13:50:17Z</time>
      </trkpt>
      <trkpt lat="43.64909" lon="3.3898">
        <ele>171</ele>
        <time>2021-06-05T13:50:18Z</time>
      </trkpt>
      <trkpt lat="43.64909" lon="3.38972">
        <ele>171</ele>
        <time>2021-06-05T13:50:19Z</time>
      </trkpt>
      <trkpt lat="43.64908" lon="3.38965">
        <ele>171</ele>
        <time>2021-06-05T13:50:20Z</time>
      </trkpt>
      <trkpt lat="43.64905" lon="3.38959">
        <ele>171</ele>
        <time>2021-06-05T13:50:21Z</time>
      </trkpt>
      <trkpt lat="43.64903" lon="3.38952">
        <ele>171</ele>
        <time>2021-06-05T13:50:22Z</time>
      </trkpt>
      <trkpt lat="43.64898" lon="3.38946">
        <ele>171</ele>
        <time>2021-06-05T13:50:23Z</time>
      </trkpt>
      <trkpt lat="43.64893" lon="3.38941">
        <ele>168</ele>
        <time>2021-06-05T13:50:24Z</time>
      </trkpt>
      <trkpt lat="43.64888" lon="3.38935">
        <ele>168</ele>
        <time>2021-06-05T13:50:25Z</time>
      </trkpt>
      <trkpt lat="43.64883" lon="3.38929">
        <ele>168</ele>
        <time>2021-06-05T13:50:26Z</time>
      </trkpt>
      <trkpt lat="43.6488" lon="3.38923">
        <ele>168</ele>
        <time>2021-06-05T13:50:27Z</time>
      </trkpt>
      <trkpt lat="43.64876" lon="3.38916">
        <ele>168</ele>
        <time>2021-06-05T13:50:28Z</time>
      </trkpt>
      <trkpt lat="43.64872" lon="3.38912">
        <ele>168</ele>
        <time>2021-06-05T13:50:29Z</time>
      </trkpt>
      <trkpt lat="43.64867" lon="3.38909">
        <ele>168</ele>
        <time>2021-06-05T13:50:30Z</time>
      </trkpt>
      <trkpt lat="43.64861" lon="3.38906">
        <ele>168</ele>
        <time>2021-06-05T13:50:31Z</time>
      </trkpt>
      <trkpt lat="43.64854" lon="3.38904">
        <ele>168</ele>
        <time>2021-06-05T13:50:32Z</time>
      </trkpt>
      <trkpt lat="43.64848" lon="3.38902">
        <ele>168</ele>
        <time>2021-06-05T13:50:33Z</time>
      </trkpt>
      <trkpt lat="43.64841" lon="3.38898">
        <ele>162</ele>
        <time>2021-06-05T13:50:34Z</time>
      </trkpt>
      <trkpt lat="43.64835" lon="3.38893">
        <ele>162</ele>
        <time>2021-06-05T13:50:35Z</time>
      </trkpt>
      <trkpt lat="43.64828" lon="3.38887">
        <ele>162</ele>
        <time>2021-06-05T13:50:35Z</time>
      </trkpt>
      <trkpt lat="43.64822" lon="3.3888">
        <ele>162</ele>
        <time>2021-06-05T13:50:36Z</time>
      </trkpt>
      <trkpt lat="43.64816" lon="3.38875">
        <ele>162</ele>
        <time>2021-06-05T13:50:37Z</time>
      </trkpt>
      <trkpt lat="43.64811" lon="3.38871">
        <ele>162</ele>
        <time>2021-06-05T13:50:38Z</time>
      </trkpt>
      <trkpt lat="43.64807" lon="3.38868">
        <ele>162</ele>
        <time>2021-06-05T13:50:39Z</time>
      </trkpt>
      <trkpt lat="43.64805" lon="3.38865">
        <ele>162</ele>
        <time>2021-06-05T13:50:41Z</time>
      </trkpt>
      <trkpt lat="43.64804" lon="3.38862">
        <ele>162</ele>
        <time>2021-06-05T13:50:41Z</time>
      </trkpt>
      <trkpt lat="43.64804" lon="3.38858">
        <ele>162</ele>
        <time>2021-06-05T13:50:42Z</time>
      </trkpt>
      <trkpt lat="43.64804" lon="3.38853">
        <ele>156</ele>
        <time>2021-06-05T13:50:44Z</time>
      </trkpt>
      <trkpt lat="43.64803" lon="3.38849">
        <ele>156</ele>
        <time>2021-06-05T13:50:45Z</time>
      </trkpt>
      <trkpt lat="43.64801" lon="3.38847">
        <ele>156</ele>
        <time>2021-06-05T13:50:46Z</time>
      </trkpt>
      <trkpt lat="43.64799" lon="3.38848">
        <ele>156</ele>
        <time>2021-06-05T13:50:48Z</time>
      </trkpt>
      <trkpt lat="43.64797" lon="3.38852">
        <ele>156</ele>
        <time>2021-06-05T13:50:50Z</time>
      </trkpt>
      <trkpt lat="43.64796" lon="3.38855">
        <ele>156</ele>
        <time>2021-06-05T13:50:51Z</time>
      </trkpt>
      <trkpt lat="43.64795" lon="3.38859">
        <ele>156</ele>
        <time>2021-06-05T13:50:52Z</time>
      </trkpt>
      <trkpt lat="43.64792" lon="3.38863">
        <ele>156</ele>
        <time>2021-06-05T13:50:53Z</time>
      </trkpt>
      <trkpt lat="43.6479" lon="3.38867">
        <ele>154</ele>
        <time>2021-06-05T13:50:54Z</time>
      </trkpt>
      <trkpt lat="43.64786" lon="3.38872">
        <ele>154</ele>
        <time>2021-06-05T13:50:55Z</time>
      </trkpt>
      <trkpt lat="43.64783" lon="3.38876">
        <ele>154</ele>
        <time>2021-06-05T13:50:56Z</time>
      </trkpt>
      <trkpt lat="43.64779" lon="3.38881">
        <ele>154</ele>
        <time>2021-06-05T13:50:57Z</time>
      </trkpt>
      <trkpt lat="43.64776" lon="3.38886">
        <ele>154</ele>
        <time>2021-06-05T13:50:58Z</time>
      </trkpt>
      <trkpt lat="43.64771" lon="3.38891">
        <ele>154</ele>
        <time>2021-06-05T13:50:59Z</time>
      </trkpt>
      <trkpt lat="43.64767" lon="3.38896">
        <ele>154</ele>
        <time>2021-06-05T13:51:00Z</time>
      </trkpt>
      <trkpt lat="43.64763" lon="3.38902">
        <ele>154</ele>
        <time>2021-06-05T13:51:01Z</time>
      </trkpt>
      <trkpt lat="43.64759" lon="3.38908">
        <ele>154</ele>
        <time>2021-06-05T13:51:02Z</time>
      </trkpt>
      <trkpt lat="43.64755" lon="3.38914">
        <ele>154</ele>
        <time>2021-06-05T13:51:03Z</time>
      </trkpt>
      <trkpt lat="43.64751" lon="3.38919">
        <ele>153</ele>
        <time>2021-06-05T13:51:04Z</time>
      </trkpt>
      <trkpt lat="43.64748" lon="3.38922">
        <ele>153</ele>
        <time>2021-06-05T13:51:05Z</time>
      </trkpt>
      <trkpt lat="43.64745" lon="3.38923">
        <ele>153</ele>
        <time>2021-06-05T13:51:06Z</time>
      </trkpt>
      <trkpt lat="43.64741" lon="3.38921">
        <ele>153</ele>
        <time>2021-06-05T13:51:07Z</time>
      </trkpt>
      <trkpt lat="43.64738" lon="3.38918">
        <ele>153</ele>
        <time>2021-06-05T13:51:08Z</time>
      </trkpt>
      <trkpt lat="43.64735" lon="3.38915">
        <ele>153</ele>
        <time>2021-06-05T13:51:09Z</time>
      </trkpt>
      <trkpt lat="43.64731" lon="3.38911">
        <ele>153</ele>
        <time>2021-06-05T13:51:10Z</time>
      </trkpt>
      <trkpt lat="43.64728" lon="3.38907">
        <ele>153</ele>
        <time>2021-06-05T13:51:11Z</time>
      </trkpt>
      <trkpt lat="43.64725" lon="3.38903">
        <ele>153</ele>
        <time>2021-06-05T13:51:12Z</time>
      </trkpt>
      <trkpt lat="43.64722" lon="3.38899">
        <ele>153</ele>
        <time>2021-06-05T13:51:13Z</time>
      </trkpt>
      <trkpt lat="43.64718" lon="3.38896">
        <ele>152</ele>
        <time>2021-06-05T13:51:14Z</time>
      </trkpt>
      <trkpt lat="43.64715" lon="3.38893">
        <ele>152</ele>
        <time>2021-06-05T13:51:15Z</time>
      </trkpt>
      <trkpt lat="43.6471" lon="3.38892">
        <ele>152</ele>
        <time>2021-06-05T13:51:16Z</time>
      </trkpt>
      <trkpt lat="43.64706" lon="3.38891">
        <ele>152</ele>
        <time>2021-06-05T13:51:17Z</time>
      </trkpt>
      <trkpt lat="43.64701" lon="3.38892">
        <ele>152</ele>
        <time>2021-06-05T13:51:18Z</time>
      </trkpt>
      <trkpt lat="43.64697" lon="3.38892">
        <ele>152</ele>
        <time>2021-06-05T13:51:19Z</time>
      </trkpt>
      <trkpt lat="43.64693" lon="3.38891">
        <ele>152</ele>
        <time>2021-06-05T13:51:20Z</time>
      </trkpt>
      <trkpt lat="43.6469" lon="3.38891">
        <ele>152</ele>
        <time>2021-06-05T13:51:21Z</time>
      </trkpt>
      <trkpt lat="43.64686" lon="3.3889">
        <ele>152</ele>
        <time>2021-06-05T13:51:22Z</time>
      </trkpt>
      <trkpt lat="43.64683" lon="3.38889">
        <ele>152</ele>
        <time>2021-06-05T13:51:23Z</time>
      </trkpt>
      <trkpt lat="43.64679" lon="3.38889">
        <ele>150</ele>
        <time>2021-06-05T13:51:24Z</time>
      </trkpt>
      <trkpt lat="43.64676" lon="3.38889">
        <ele>150</ele>
        <time>2021-06-05T13:51:25Z</time>
      </trkpt>
      <trkpt lat="43.64672" lon="3.38888">
        <ele>150</ele>
        <time>2021-06-05T13:51:26Z</time>
      </trkpt>
      <trkpt lat="43.64669" lon="3.38887">
        <ele>150</ele>
        <time>2021-06-05T13:51:27Z</time>
      </trkpt>
      <trkpt lat="43.64666" lon="3.38887">
        <ele>150</ele>
        <time>2021-06-05T13:51:28Z</time>
      </trkpt>
      <trkpt lat="43.64663" lon="3.38887">
        <ele>150</ele>
        <time>2021-06-05T13:51:29Z</time>
      </trkpt>
      <trkpt lat="43.6466" lon="3.38887">
        <ele>150</ele>
        <time>2021-06-05T13:51:30Z</time>
      </trkpt>
      <trkpt lat="43.64657" lon="3.38886">
        <ele>150</ele>
        <time>2021-06-05T13:51:31Z</time>
      </trkpt>
      <trkpt lat="43.64655" lon="3.38884">
        <ele>150</ele>
        <time>2021-06-05T13:51:32Z</time>
      </trkpt>
      <trkpt lat="43.64652" lon="3.38883">
        <ele>150</ele>
        <time>2021-06-05T13:51:33Z</time>
      </trkpt>
      <trkpt lat="43.64649" lon="3.38881">
        <ele>149</ele>
        <time>2021-06-05T13:51:34Z</time>
      </trkpt>
      <trkpt lat="43.64648" lon="3.38881">
        <ele>149</ele>
        <time>2021-06-05T13:51:35Z</time>
      </trkpt>
      <trkpt lat="43.64645" lon="3.3888">
        <ele>149</ele>
        <time>2021-06-05T13:51:36Z</time>
      </trkpt>
      <trkpt lat="43.64642" lon="3.38878">
        <ele>149</ele>
        <time>2021-06-05T13:51:37Z</time>
      </trkpt>
      <trkpt lat="43.6464" lon="3.38877">
        <ele>149</ele>
        <time>2021-06-05T13:51:38Z</time>
      </trkpt>
      <trkpt lat="43.64637" lon="3.38876">
        <ele>149</ele>
        <time>2021-06-05T13:51:39Z</time>
      </trkpt>
      <trkpt lat="43.64633" lon="3.38874">
        <ele>149</ele>
        <time>2021-06-05T13:51:40Z</time>
      </trkpt>
      <trkpt lat="43.64631" lon="3.38873">
        <ele>149</ele>
        <time>2021-06-05T13:51:41Z</time>
      </trkpt>
      <trkpt lat="43.64627" lon="3.38872">
        <ele>149</ele>
        <time>2021-06-05T13:51:42Z</time>
      </trkpt>
      <trkpt lat="43.64624" lon="3.38872">
        <ele>149</ele>
        <time>2021-06-05T13:51:43Z</time>
      </trkpt>
      <trkpt lat="43.64622" lon="3.38874">
        <ele>148</ele>
        <time>2021-06-05T13:51:44Z</time>
      </trkpt>
      <trkpt lat="43.6462" lon="3.38877">
        <ele>148</ele>
        <time>2021-06-05T13:51:45Z</time>
      </trkpt>
      <trkpt lat="43.64618" lon="3.3888">
        <ele>148</ele>
        <time>2021-06-05T13:51:46Z</time>
      </trkpt>
      <trkpt lat="43.64616" lon="3.38882">
        <ele>148</ele>
        <time>2021-06-05T13:51:47Z</time>
      </trkpt>
      <trkpt lat="43.64614" lon="3.38885">
        <ele>148</ele>
        <time>2021-06-05T13:51:48Z</time>
      </trkpt>
      <trkpt lat="43.64611" lon="3.38888">
        <ele>148</ele>
        <time>2021-06-05T13:51:49Z</time>
      </trkpt>
      <trkpt lat="43.6461" lon="3.38891">
        <ele>148</ele>
        <time>2021-06-05T13:51:50Z</time>
      </trkpt>
      <trkpt lat="43.64608" lon="3.38894">
        <ele>148</ele>
        <time>2021-06-05T13:51:51Z</time>
      </trkpt>
      <trkpt lat="43.64607" lon="3.38897">
        <ele>148</ele>
        <time>2021-06-05T13:51:52Z</time>
      </trkpt>
      <trkpt lat="43.64606" lon="3.38901">
        <ele>148</ele>
        <time>2021-06-05T13:51:53Z</time>
      </trkpt>
      <trkpt lat="43.64605" lon="3.38904">
        <ele>148</ele>
        <time>2021-06-05T13:51:54Z</time>
      </trkpt>
      <trkpt lat="43.64603" lon="3.38907">
        <ele>148</ele>
        <time>2021-06-05T13:51:55Z</time>
      </trkpt>
      <trkpt lat="43.64602" lon="3.38911">
        <ele>148</ele>
        <time>2021-06-05T13:51:56Z</time>
      </trkpt>
      <trkpt lat="43.64601" lon="3.38914">
        <ele>148</ele>
        <time>2021-06-05T13:51:57Z</time>
      </trkpt>
      <trkpt lat="43.64599" lon="3.38916">
        <ele>148</ele>
        <time>2021-06-05T13:51:58Z</time>
      </trkpt>
      <trkpt lat="43.64597" lon="3.38919">
        <ele>148</ele>
        <time>2021-06-05T13:51:59Z</time>
      </trkpt>
      <trkpt lat="43.64596" lon="3.38922">
        <ele>148</ele>
        <time>2021-06-05T13:52:00Z</time>
      </trkpt>
      <trkpt lat="43.64595" lon="3.38925">
        <ele>148</ele>
        <time>2021-06-05T13:52:01Z</time>
      </trkpt>
      <trkpt lat="43.64593" lon="3.38927">
        <ele>148</ele>
        <time>2021-06-05T13:52:02Z</time>
      </trkpt>
      <trkpt lat="43.64591" lon="3.3893">
        <ele>147</ele>
        <time>2021-06-05T13:52:04Z</time>
      </trkpt>
      <trkpt lat="43.6459" lon="3.38932">
        <ele>147</ele>
        <time>2021-06-05T13:52:05Z</time>
      </trkpt>
      <trkpt lat="43.64587" lon="3.38932">
        <ele>147</ele>
        <time>2021-06-05T13:52:06Z</time>
      </trkpt>
      <trkpt lat="43.64585" lon="3.38933">
        <ele>147</ele>
        <time>2021-06-05T13:52:08Z</time>
      </trkpt>
      <trkpt lat="43.64583" lon="3.38934">
        <ele>147</ele>
        <time>2021-06-05T13:52:15Z</time>
      </trkpt>
      <trkpt lat="43.6458" lon="3.38932">
        <ele>148</ele>
        <time>2021-06-05T13:52:31Z</time>
      </trkpt>
      <trkpt lat="43.6458" lon="3.3893">
        <ele>148</ele>
        <time>2021-06-05T13:52:33Z</time>
      </trkpt>
      <trkpt lat="43.6458" lon="3.3893">
        <ele>148</ele>
        <time>2021-06-05T13:52:38Z</time>
      </trkpt>
    </trkseg>
  </trk>
</gpx>